<?xml version="1.0" encoding="UTF-8"?>
<gpx xmlns="http://www.topografix.com/GPX/1/1"
     creator="GpsDump 4.73"
     version="1.1"
     xmlns:xsi="http://www.w3.org/2001/XMLSchema-instance"
     xsi:schemaLocation="http://www.topografix.com/GPX/1/1 http://www.topografix.com/GPX/1/1/gpx.xsd">
  <metadata>
    <link href="http://www.gethome.no/stein.sorensen/">
      <text>GPS dump for www.flightlog.org</text>
    </link>
    <time>2014-05-18T22:05:42Z</time>
    <bounds minlat="40.032367" minlon="-5.484483" maxlat="40.252733" maxlon="-4.883850"/>
  </metadata>
  <trk>
    <name>Track 001</name>
    <trkseg>
      <trkpt lat="40.252517" lon="-4.887400">
        <ele>1016.0</ele>
        <time>2014-05-17T12:05:15Z</time>
      </trkpt>
      <trkpt lat="40.252500" lon="-4.887350">
        <ele>1016.0</ele>
        <time>2014-05-17T12:05:16Z</time>
      </trkpt>
      <trkpt lat="40.252500" lon="-4.887317">
        <ele>1016.0</ele>
        <time>2014-05-17T12:05:17Z</time>
      </trkpt>
      <trkpt lat="40.252483" lon="-4.887283">
        <ele>1017.0</ele>
        <time>2014-05-17T12:05:18Z</time>
      </trkpt>
      <trkpt lat="40.252483" lon="-4.887250">
        <ele>1017.0</ele>
        <time>2014-05-17T12:05:19Z</time>
      </trkpt>
      <trkpt lat="40.252500" lon="-4.887200">
        <ele>1018.0</ele>
        <time>2014-05-17T12:05:20Z</time>
      </trkpt>
      <trkpt lat="40.252517" lon="-4.887133">
        <ele>1018.0</ele>
        <time>2014-05-17T12:05:21Z</time>
      </trkpt>
      <trkpt lat="40.252550" lon="-4.887083">
        <ele>1018.0</ele>
        <time>2014-05-17T12:05:22Z</time>
      </trkpt>
      <trkpt lat="40.252567" lon="-4.887050">
        <ele>1018.0</ele>
        <time>2014-05-17T12:05:23Z</time>
      </trkpt>
      <trkpt lat="40.252583" lon="-4.887033">
        <ele>1019.0</ele>
        <time>2014-05-17T12:05:24Z</time>
      </trkpt>
      <trkpt lat="40.252583" lon="-4.887000">
        <ele>1020.0</ele>
        <time>2014-05-17T12:05:25Z</time>
      </trkpt>
      <trkpt lat="40.252600" lon="-4.886950">
        <ele>1020.0</ele>
        <time>2014-05-17T12:05:26Z</time>
      </trkpt>
      <trkpt lat="40.252633" lon="-4.886900">
        <ele>1020.0</ele>
        <time>2014-05-17T12:05:27Z</time>
      </trkpt>
      <trkpt lat="40.252667" lon="-4.886867">
        <ele>1020.0</ele>
        <time>2014-05-17T12:05:28Z</time>
      </trkpt>
      <trkpt lat="40.252700" lon="-4.886817">
        <ele>1020.0</ele>
        <time>2014-05-17T12:05:29Z</time>
      </trkpt>
      <trkpt lat="40.252733" lon="-4.886767">
        <ele>1020.0</ele>
        <time>2014-05-17T12:05:30Z</time>
      </trkpt>
      <trkpt lat="40.252717" lon="-4.886717">
        <ele>1020.0</ele>
        <time>2014-05-17T12:05:31Z</time>
      </trkpt>
      <trkpt lat="40.252683" lon="-4.886683">
        <ele>1020.0</ele>
        <time>2014-05-17T12:05:32Z</time>
      </trkpt>
      <trkpt lat="40.252633" lon="-4.886633">
        <ele>1019.0</ele>
        <time>2014-05-17T12:05:33Z</time>
      </trkpt>
      <trkpt lat="40.252583" lon="-4.886617">
        <ele>1020.0</ele>
        <time>2014-05-17T12:05:34Z</time>
      </trkpt>
      <trkpt lat="40.252550" lon="-4.886583">
        <ele>1020.0</ele>
        <time>2014-05-17T12:05:35Z</time>
      </trkpt>
      <trkpt lat="40.252500" lon="-4.886550">
        <ele>1021.0</ele>
        <time>2014-05-17T12:05:36Z</time>
      </trkpt>
      <trkpt lat="40.252467" lon="-4.886500">
        <ele>1022.0</ele>
        <time>2014-05-17T12:05:37Z</time>
      </trkpt>
      <trkpt lat="40.252433" lon="-4.886467">
        <ele>1022.0</ele>
        <time>2014-05-17T12:05:38Z</time>
      </trkpt>
      <trkpt lat="40.252417" lon="-4.886417">
        <ele>1022.0</ele>
        <time>2014-05-17T12:05:39Z</time>
      </trkpt>
      <trkpt lat="40.252400" lon="-4.886350">
        <ele>1022.0</ele>
        <time>2014-05-17T12:05:40Z</time>
      </trkpt>
      <trkpt lat="40.252383" lon="-4.886267">
        <ele>1022.0</ele>
        <time>2014-05-17T12:05:41Z</time>
      </trkpt>
      <trkpt lat="40.252400" lon="-4.886183">
        <ele>1022.0</ele>
        <time>2014-05-17T12:05:42Z</time>
      </trkpt>
      <trkpt lat="40.252400" lon="-4.886117">
        <ele>1022.0</ele>
        <time>2014-05-17T12:05:43Z</time>
      </trkpt>
      <trkpt lat="40.252383" lon="-4.886050">
        <ele>1022.0</ele>
        <time>2014-05-17T12:05:44Z</time>
      </trkpt>
      <trkpt lat="40.252367" lon="-4.886000">
        <ele>1022.0</ele>
        <time>2014-05-17T12:05:45Z</time>
      </trkpt>
      <trkpt lat="40.252333" lon="-4.885950">
        <ele>1021.0</ele>
        <time>2014-05-17T12:05:46Z</time>
      </trkpt>
      <trkpt lat="40.252283" lon="-4.885883">
        <ele>1019.0</ele>
        <time>2014-05-17T12:05:47Z</time>
      </trkpt>
      <trkpt lat="40.252217" lon="-4.885833">
        <ele>1017.0</ele>
        <time>2014-05-17T12:05:48Z</time>
      </trkpt>
      <trkpt lat="40.252167" lon="-4.885800">
        <ele>1016.0</ele>
        <time>2014-05-17T12:05:49Z</time>
      </trkpt>
      <trkpt lat="40.252117" lon="-4.885767">
        <ele>1016.0</ele>
        <time>2014-05-17T12:05:50Z</time>
      </trkpt>
      <trkpt lat="40.252050" lon="-4.885733">
        <ele>1014.0</ele>
        <time>2014-05-17T12:05:51Z</time>
      </trkpt>
      <trkpt lat="40.251983" lon="-4.885700">
        <ele>1013.0</ele>
        <time>2014-05-17T12:05:52Z</time>
      </trkpt>
      <trkpt lat="40.251917" lon="-4.885683">
        <ele>1011.0</ele>
        <time>2014-05-17T12:05:53Z</time>
      </trkpt>
      <trkpt lat="40.251833" lon="-4.885650">
        <ele>1011.0</ele>
        <time>2014-05-17T12:05:54Z</time>
      </trkpt>
      <trkpt lat="40.251767" lon="-4.885633">
        <ele>1012.0</ele>
        <time>2014-05-17T12:05:55Z</time>
      </trkpt>
      <trkpt lat="40.251700" lon="-4.885583">
        <ele>1011.0</ele>
        <time>2014-05-17T12:05:56Z</time>
      </trkpt>
      <trkpt lat="40.251650" lon="-4.885550">
        <ele>1011.0</ele>
        <time>2014-05-17T12:05:57Z</time>
      </trkpt>
      <trkpt lat="40.251600" lon="-4.885517">
        <ele>1010.0</ele>
        <time>2014-05-17T12:05:58Z</time>
      </trkpt>
      <trkpt lat="40.251533" lon="-4.885483">
        <ele>1010.0</ele>
        <time>2014-05-17T12:05:59Z</time>
      </trkpt>
      <trkpt lat="40.251467" lon="-4.885467">
        <ele>1010.0</ele>
        <time>2014-05-17T12:06:00Z</time>
      </trkpt>
      <trkpt lat="40.251400" lon="-4.885450">
        <ele>1010.0</ele>
        <time>2014-05-17T12:06:01Z</time>
      </trkpt>
      <trkpt lat="40.251317" lon="-4.885433">
        <ele>1009.0</ele>
        <time>2014-05-17T12:06:02Z</time>
      </trkpt>
      <trkpt lat="40.251233" lon="-4.885400">
        <ele>1009.0</ele>
        <time>2014-05-17T12:06:03Z</time>
      </trkpt>
      <trkpt lat="40.251167" lon="-4.885383">
        <ele>1009.0</ele>
        <time>2014-05-17T12:06:04Z</time>
      </trkpt>
      <trkpt lat="40.251083" lon="-4.885367">
        <ele>1009.0</ele>
        <time>2014-05-17T12:06:05Z</time>
      </trkpt>
      <trkpt lat="40.251017" lon="-4.885350">
        <ele>1009.0</ele>
        <time>2014-05-17T12:06:06Z</time>
      </trkpt>
      <trkpt lat="40.250950" lon="-4.885317">
        <ele>1007.0</ele>
        <time>2014-05-17T12:06:07Z</time>
      </trkpt>
      <trkpt lat="40.250867" lon="-4.885300">
        <ele>1005.0</ele>
        <time>2014-05-17T12:06:08Z</time>
      </trkpt>
      <trkpt lat="40.250783" lon="-4.885300">
        <ele>1003.0</ele>
        <time>2014-05-17T12:06:09Z</time>
      </trkpt>
      <trkpt lat="40.250700" lon="-4.885283">
        <ele>1001.0</ele>
        <time>2014-05-17T12:06:10Z</time>
      </trkpt>
      <trkpt lat="40.250617" lon="-4.885283">
        <ele>1000.0</ele>
        <time>2014-05-17T12:06:11Z</time>
      </trkpt>
      <trkpt lat="40.250533" lon="-4.885267">
        <ele>998.0</ele>
        <time>2014-05-17T12:06:12Z</time>
      </trkpt>
      <trkpt lat="40.250450" lon="-4.885233">
        <ele>996.0</ele>
        <time>2014-05-17T12:06:13Z</time>
      </trkpt>
      <trkpt lat="40.250367" lon="-4.885200">
        <ele>994.0</ele>
        <time>2014-05-17T12:06:14Z</time>
      </trkpt>
      <trkpt lat="40.250267" lon="-4.885167">
        <ele>992.0</ele>
        <time>2014-05-17T12:06:15Z</time>
      </trkpt>
      <trkpt lat="40.250200" lon="-4.885117">
        <ele>991.0</ele>
        <time>2014-05-17T12:06:16Z</time>
      </trkpt>
      <trkpt lat="40.250133" lon="-4.885083">
        <ele>991.0</ele>
        <time>2014-05-17T12:06:17Z</time>
      </trkpt>
      <trkpt lat="40.250067" lon="-4.885050">
        <ele>990.0</ele>
        <time>2014-05-17T12:06:18Z</time>
      </trkpt>
      <trkpt lat="40.250000" lon="-4.885033">
        <ele>988.0</ele>
        <time>2014-05-17T12:06:19Z</time>
      </trkpt>
      <trkpt lat="40.249917" lon="-4.885000">
        <ele>986.0</ele>
        <time>2014-05-17T12:06:20Z</time>
      </trkpt>
      <trkpt lat="40.249833" lon="-4.885000">
        <ele>983.0</ele>
        <time>2014-05-17T12:06:21Z</time>
      </trkpt>
      <trkpt lat="40.249733" lon="-4.884983">
        <ele>982.0</ele>
        <time>2014-05-17T12:06:22Z</time>
      </trkpt>
      <trkpt lat="40.249633" lon="-4.884983">
        <ele>981.0</ele>
        <time>2014-05-17T12:06:23Z</time>
      </trkpt>
      <trkpt lat="40.249533" lon="-4.884983">
        <ele>979.0</ele>
        <time>2014-05-17T12:06:24Z</time>
      </trkpt>
      <trkpt lat="40.249450" lon="-4.885000">
        <ele>978.0</ele>
        <time>2014-05-17T12:06:25Z</time>
      </trkpt>
      <trkpt lat="40.249350" lon="-4.885000">
        <ele>977.0</ele>
        <time>2014-05-17T12:06:26Z</time>
      </trkpt>
      <trkpt lat="40.249250" lon="-4.884983">
        <ele>974.0</ele>
        <time>2014-05-17T12:06:27Z</time>
      </trkpt>
      <trkpt lat="40.249150" lon="-4.884983">
        <ele>972.0</ele>
        <time>2014-05-17T12:06:28Z</time>
      </trkpt>
      <trkpt lat="40.249050" lon="-4.884983">
        <ele>971.0</ele>
        <time>2014-05-17T12:06:29Z</time>
      </trkpt>
      <trkpt lat="40.248967" lon="-4.884983">
        <ele>969.0</ele>
        <time>2014-05-17T12:06:30Z</time>
      </trkpt>
      <trkpt lat="40.248867" lon="-4.885000">
        <ele>968.0</ele>
        <time>2014-05-17T12:06:31Z</time>
      </trkpt>
      <trkpt lat="40.248767" lon="-4.885000">
        <ele>966.0</ele>
        <time>2014-05-17T12:06:32Z</time>
      </trkpt>
      <trkpt lat="40.248667" lon="-4.885017">
        <ele>964.0</ele>
        <time>2014-05-17T12:06:33Z</time>
      </trkpt>
      <trkpt lat="40.248567" lon="-4.885017">
        <ele>963.0</ele>
        <time>2014-05-17T12:06:34Z</time>
      </trkpt>
      <trkpt lat="40.248467" lon="-4.885000">
        <ele>961.0</ele>
        <time>2014-05-17T12:06:35Z</time>
      </trkpt>
      <trkpt lat="40.248367" lon="-4.884983">
        <ele>960.0</ele>
        <time>2014-05-17T12:06:36Z</time>
      </trkpt>
      <trkpt lat="40.248267" lon="-4.884967">
        <ele>959.0</ele>
        <time>2014-05-17T12:06:37Z</time>
      </trkpt>
      <trkpt lat="40.248167" lon="-4.884967">
        <ele>959.0</ele>
        <time>2014-05-17T12:06:38Z</time>
      </trkpt>
      <trkpt lat="40.248067" lon="-4.884950">
        <ele>958.0</ele>
        <time>2014-05-17T12:06:39Z</time>
      </trkpt>
      <trkpt lat="40.247967" lon="-4.884950">
        <ele>957.0</ele>
        <time>2014-05-17T12:06:40Z</time>
      </trkpt>
      <trkpt lat="40.247883" lon="-4.884933">
        <ele>956.0</ele>
        <time>2014-05-17T12:06:41Z</time>
      </trkpt>
      <trkpt lat="40.247783" lon="-4.884933">
        <ele>955.0</ele>
        <time>2014-05-17T12:06:42Z</time>
      </trkpt>
      <trkpt lat="40.247683" lon="-4.884917">
        <ele>953.0</ele>
        <time>2014-05-17T12:06:43Z</time>
      </trkpt>
      <trkpt lat="40.247600" lon="-4.884900">
        <ele>951.0</ele>
        <time>2014-05-17T12:06:44Z</time>
      </trkpt>
      <trkpt lat="40.247500" lon="-4.884883">
        <ele>950.0</ele>
        <time>2014-05-17T12:06:45Z</time>
      </trkpt>
      <trkpt lat="40.247417" lon="-4.884867">
        <ele>949.0</ele>
        <time>2014-05-17T12:06:46Z</time>
      </trkpt>
      <trkpt lat="40.247317" lon="-4.884850">
        <ele>948.0</ele>
        <time>2014-05-17T12:06:47Z</time>
      </trkpt>
      <trkpt lat="40.247233" lon="-4.884833">
        <ele>947.0</ele>
        <time>2014-05-17T12:06:48Z</time>
      </trkpt>
      <trkpt lat="40.247150" lon="-4.884817">
        <ele>946.0</ele>
        <time>2014-05-17T12:06:49Z</time>
      </trkpt>
      <trkpt lat="40.247067" lon="-4.884800">
        <ele>945.0</ele>
        <time>2014-05-17T12:06:50Z</time>
      </trkpt>
      <trkpt lat="40.246967" lon="-4.884783">
        <ele>944.0</ele>
        <time>2014-05-17T12:06:51Z</time>
      </trkpt>
      <trkpt lat="40.246883" lon="-4.884750">
        <ele>943.0</ele>
        <time>2014-05-17T12:06:52Z</time>
      </trkpt>
      <trkpt lat="40.246800" lon="-4.884733">
        <ele>942.0</ele>
        <time>2014-05-17T12:06:53Z</time>
      </trkpt>
      <trkpt lat="40.246717" lon="-4.884717">
        <ele>941.0</ele>
        <time>2014-05-17T12:06:54Z</time>
      </trkpt>
      <trkpt lat="40.246617" lon="-4.884683">
        <ele>940.0</ele>
        <time>2014-05-17T12:06:55Z</time>
      </trkpt>
      <trkpt lat="40.246550" lon="-4.884667">
        <ele>939.0</ele>
        <time>2014-05-17T12:06:56Z</time>
      </trkpt>
      <trkpt lat="40.246467" lon="-4.884633">
        <ele>939.0</ele>
        <time>2014-05-17T12:06:57Z</time>
      </trkpt>
      <trkpt lat="40.246383" lon="-4.884600">
        <ele>938.0</ele>
        <time>2014-05-17T12:06:58Z</time>
      </trkpt>
      <trkpt lat="40.246317" lon="-4.884583">
        <ele>938.0</ele>
        <time>2014-05-17T12:06:59Z</time>
      </trkpt>
      <trkpt lat="40.246233" lon="-4.884567">
        <ele>937.0</ele>
        <time>2014-05-17T12:07:00Z</time>
      </trkpt>
      <trkpt lat="40.246167" lon="-4.884533">
        <ele>936.0</ele>
        <time>2014-05-17T12:07:01Z</time>
      </trkpt>
      <trkpt lat="40.246083" lon="-4.884517">
        <ele>935.0</ele>
        <time>2014-05-17T12:07:02Z</time>
      </trkpt>
      <trkpt lat="40.246017" lon="-4.884467">
        <ele>935.0</ele>
        <time>2014-05-17T12:07:03Z</time>
      </trkpt>
      <trkpt lat="40.245933" lon="-4.884450">
        <ele>934.0</ele>
        <time>2014-05-17T12:07:04Z</time>
      </trkpt>
      <trkpt lat="40.245867" lon="-4.884417">
        <ele>934.0</ele>
        <time>2014-05-17T12:07:05Z</time>
      </trkpt>
      <trkpt lat="40.245800" lon="-4.884417">
        <ele>934.0</ele>
        <time>2014-05-17T12:07:06Z</time>
      </trkpt>
      <trkpt lat="40.245717" lon="-4.884400">
        <ele>933.0</ele>
        <time>2014-05-17T12:07:07Z</time>
      </trkpt>
      <trkpt lat="40.245633" lon="-4.884367">
        <ele>931.0</ele>
        <time>2014-05-17T12:07:08Z</time>
      </trkpt>
      <trkpt lat="40.245550" lon="-4.884333">
        <ele>929.0</ele>
        <time>2014-05-17T12:07:09Z</time>
      </trkpt>
      <trkpt lat="40.245467" lon="-4.884300">
        <ele>927.0</ele>
        <time>2014-05-17T12:07:10Z</time>
      </trkpt>
      <trkpt lat="40.245400" lon="-4.884267">
        <ele>926.0</ele>
        <time>2014-05-17T12:07:11Z</time>
      </trkpt>
      <trkpt lat="40.245317" lon="-4.884250">
        <ele>926.0</ele>
        <time>2014-05-17T12:07:12Z</time>
      </trkpt>
      <trkpt lat="40.245250" lon="-4.884217">
        <ele>925.0</ele>
        <time>2014-05-17T12:07:13Z</time>
      </trkpt>
      <trkpt lat="40.245183" lon="-4.884200">
        <ele>923.0</ele>
        <time>2014-05-17T12:07:14Z</time>
      </trkpt>
      <trkpt lat="40.245100" lon="-4.884167">
        <ele>922.0</ele>
        <time>2014-05-17T12:07:15Z</time>
      </trkpt>
      <trkpt lat="40.245033" lon="-4.884133">
        <ele>921.0</ele>
        <time>2014-05-17T12:07:16Z</time>
      </trkpt>
      <trkpt lat="40.244967" lon="-4.884117">
        <ele>921.0</ele>
        <time>2014-05-17T12:07:17Z</time>
      </trkpt>
      <trkpt lat="40.244883" lon="-4.884083">
        <ele>921.0</ele>
        <time>2014-05-17T12:07:18Z</time>
      </trkpt>
      <trkpt lat="40.244817" lon="-4.884050">
        <ele>920.0</ele>
        <time>2014-05-17T12:07:19Z</time>
      </trkpt>
      <trkpt lat="40.244733" lon="-4.884017">
        <ele>919.0</ele>
        <time>2014-05-17T12:07:20Z</time>
      </trkpt>
      <trkpt lat="40.244650" lon="-4.883983">
        <ele>918.0</ele>
        <time>2014-05-17T12:07:21Z</time>
      </trkpt>
      <trkpt lat="40.244567" lon="-4.883933">
        <ele>918.0</ele>
        <time>2014-05-17T12:07:22Z</time>
      </trkpt>
      <trkpt lat="40.244483" lon="-4.883917">
        <ele>918.0</ele>
        <time>2014-05-17T12:07:23Z</time>
      </trkpt>
      <trkpt lat="40.244400" lon="-4.883900">
        <ele>919.0</ele>
        <time>2014-05-17T12:07:24Z</time>
      </trkpt>
      <trkpt lat="40.244317" lon="-4.883867">
        <ele>920.0</ele>
        <time>2014-05-17T12:07:25Z</time>
      </trkpt>
      <trkpt lat="40.244217" lon="-4.883850">
        <ele>920.0</ele>
        <time>2014-05-17T12:07:26Z</time>
      </trkpt>
      <trkpt lat="40.244100" lon="-4.883867">
        <ele>921.0</ele>
        <time>2014-05-17T12:07:27Z</time>
      </trkpt>
      <trkpt lat="40.244000" lon="-4.883917">
        <ele>924.0</ele>
        <time>2014-05-17T12:07:28Z</time>
      </trkpt>
      <trkpt lat="40.243900" lon="-4.884000">
        <ele>927.0</ele>
        <time>2014-05-17T12:07:29Z</time>
      </trkpt>
      <trkpt lat="40.243817" lon="-4.884117">
        <ele>929.0</ele>
        <time>2014-05-17T12:07:30Z</time>
      </trkpt>
      <trkpt lat="40.243733" lon="-4.884233">
        <ele>931.0</ele>
        <time>2014-05-17T12:07:31Z</time>
      </trkpt>
      <trkpt lat="40.243700" lon="-4.884367">
        <ele>933.0</ele>
        <time>2014-05-17T12:07:32Z</time>
      </trkpt>
      <trkpt lat="40.243667" lon="-4.884500">
        <ele>935.0</ele>
        <time>2014-05-17T12:07:33Z</time>
      </trkpt>
      <trkpt lat="40.243667" lon="-4.884617">
        <ele>937.0</ele>
        <time>2014-05-17T12:07:34Z</time>
      </trkpt>
      <trkpt lat="40.243683" lon="-4.884750">
        <ele>938.0</ele>
        <time>2014-05-17T12:07:35Z</time>
      </trkpt>
      <trkpt lat="40.243700" lon="-4.884850">
        <ele>939.0</ele>
        <time>2014-05-17T12:07:36Z</time>
      </trkpt>
      <trkpt lat="40.243733" lon="-4.884933">
        <ele>940.0</ele>
        <time>2014-05-17T12:07:37Z</time>
      </trkpt>
      <trkpt lat="40.243783" lon="-4.885000">
        <ele>938.0</ele>
        <time>2014-05-17T12:07:38Z</time>
      </trkpt>
      <trkpt lat="40.243850" lon="-4.885033">
        <ele>937.0</ele>
        <time>2014-05-17T12:07:39Z</time>
      </trkpt>
      <trkpt lat="40.243917" lon="-4.885067">
        <ele>937.0</ele>
        <time>2014-05-17T12:07:40Z</time>
      </trkpt>
      <trkpt lat="40.243967" lon="-4.885100">
        <ele>939.0</ele>
        <time>2014-05-17T12:07:41Z</time>
      </trkpt>
      <trkpt lat="40.244000" lon="-4.885117">
        <ele>942.0</ele>
        <time>2014-05-17T12:07:42Z</time>
      </trkpt>
      <trkpt lat="40.244017" lon="-4.885100">
        <ele>944.0</ele>
        <time>2014-05-17T12:07:43Z</time>
      </trkpt>
      <trkpt lat="40.244050" lon="-4.885067">
        <ele>945.0</ele>
        <time>2014-05-17T12:07:44Z</time>
      </trkpt>
      <trkpt lat="40.244100" lon="-4.885017">
        <ele>944.0</ele>
        <time>2014-05-17T12:07:45Z</time>
      </trkpt>
      <trkpt lat="40.244133" lon="-4.884950">
        <ele>945.0</ele>
        <time>2014-05-17T12:07:46Z</time>
      </trkpt>
      <trkpt lat="40.244133" lon="-4.884883">
        <ele>946.0</ele>
        <time>2014-05-17T12:07:47Z</time>
      </trkpt>
      <trkpt lat="40.244117" lon="-4.884817">
        <ele>948.0</ele>
        <time>2014-05-17T12:07:48Z</time>
      </trkpt>
      <trkpt lat="40.244067" lon="-4.884750">
        <ele>950.0</ele>
        <time>2014-05-17T12:07:49Z</time>
      </trkpt>
      <trkpt lat="40.244017" lon="-4.884683">
        <ele>952.0</ele>
        <time>2014-05-17T12:07:50Z</time>
      </trkpt>
      <trkpt lat="40.243967" lon="-4.884633">
        <ele>954.0</ele>
        <time>2014-05-17T12:07:51Z</time>
      </trkpt>
      <trkpt lat="40.243900" lon="-4.884600">
        <ele>955.0</ele>
        <time>2014-05-17T12:07:52Z</time>
      </trkpt>
      <trkpt lat="40.243800" lon="-4.884567">
        <ele>956.0</ele>
        <time>2014-05-17T12:07:53Z</time>
      </trkpt>
      <trkpt lat="40.243700" lon="-4.884533">
        <ele>956.0</ele>
        <time>2014-05-17T12:07:54Z</time>
      </trkpt>
      <trkpt lat="40.243600" lon="-4.884517">
        <ele>956.0</ele>
        <time>2014-05-17T12:07:55Z</time>
      </trkpt>
      <trkpt lat="40.243500" lon="-4.884500">
        <ele>957.0</ele>
        <time>2014-05-17T12:07:56Z</time>
      </trkpt>
      <trkpt lat="40.243400" lon="-4.884500">
        <ele>960.0</ele>
        <time>2014-05-17T12:07:57Z</time>
      </trkpt>
      <trkpt lat="40.243317" lon="-4.884517">
        <ele>963.0</ele>
        <time>2014-05-17T12:07:58Z</time>
      </trkpt>
      <trkpt lat="40.243217" lon="-4.884550">
        <ele>966.0</ele>
        <time>2014-05-17T12:07:59Z</time>
      </trkpt>
      <trkpt lat="40.243133" lon="-4.884617">
        <ele>967.0</ele>
        <time>2014-05-17T12:08:00Z</time>
      </trkpt>
      <trkpt lat="40.243050" lon="-4.884717">
        <ele>967.0</ele>
        <time>2014-05-17T12:08:01Z</time>
      </trkpt>
      <trkpt lat="40.242950" lon="-4.884817">
        <ele>966.0</ele>
        <time>2014-05-17T12:08:02Z</time>
      </trkpt>
      <trkpt lat="40.242867" lon="-4.884933">
        <ele>967.0</ele>
        <time>2014-05-17T12:08:03Z</time>
      </trkpt>
      <trkpt lat="40.242783" lon="-4.885050">
        <ele>967.0</ele>
        <time>2014-05-17T12:08:04Z</time>
      </trkpt>
      <trkpt lat="40.242733" lon="-4.885167">
        <ele>969.0</ele>
        <time>2014-05-17T12:08:05Z</time>
      </trkpt>
      <trkpt lat="40.242700" lon="-4.885317">
        <ele>970.0</ele>
        <time>2014-05-17T12:08:06Z</time>
      </trkpt>
      <trkpt lat="40.242700" lon="-4.885467">
        <ele>970.0</ele>
        <time>2014-05-17T12:08:07Z</time>
      </trkpt>
      <trkpt lat="40.242717" lon="-4.885583">
        <ele>970.0</ele>
        <time>2014-05-17T12:08:08Z</time>
      </trkpt>
      <trkpt lat="40.242733" lon="-4.885683">
        <ele>971.0</ele>
        <time>2014-05-17T12:08:09Z</time>
      </trkpt>
      <trkpt lat="40.242767" lon="-4.885767">
        <ele>971.0</ele>
        <time>2014-05-17T12:08:10Z</time>
      </trkpt>
      <trkpt lat="40.242783" lon="-4.885867">
        <ele>972.0</ele>
        <time>2014-05-17T12:08:11Z</time>
      </trkpt>
      <trkpt lat="40.242817" lon="-4.885983">
        <ele>972.0</ele>
        <time>2014-05-17T12:08:12Z</time>
      </trkpt>
      <trkpt lat="40.242850" lon="-4.886083">
        <ele>972.0</ele>
        <time>2014-05-17T12:08:13Z</time>
      </trkpt>
      <trkpt lat="40.242900" lon="-4.886167">
        <ele>974.0</ele>
        <time>2014-05-17T12:08:14Z</time>
      </trkpt>
      <trkpt lat="40.242967" lon="-4.886217">
        <ele>975.0</ele>
        <time>2014-05-17T12:08:15Z</time>
      </trkpt>
      <trkpt lat="40.243017" lon="-4.886217">
        <ele>975.0</ele>
        <time>2014-05-17T12:08:16Z</time>
      </trkpt>
      <trkpt lat="40.243083" lon="-4.886217">
        <ele>975.0</ele>
        <time>2014-05-17T12:08:17Z</time>
      </trkpt>
      <trkpt lat="40.243150" lon="-4.886233">
        <ele>976.0</ele>
        <time>2014-05-17T12:08:18Z</time>
      </trkpt>
      <trkpt lat="40.243200" lon="-4.886217">
        <ele>976.0</ele>
        <time>2014-05-17T12:08:19Z</time>
      </trkpt>
      <trkpt lat="40.243250" lon="-4.886200">
        <ele>979.0</ele>
        <time>2014-05-17T12:08:20Z</time>
      </trkpt>
      <trkpt lat="40.243283" lon="-4.886183">
        <ele>981.0</ele>
        <time>2014-05-17T12:08:21Z</time>
      </trkpt>
      <trkpt lat="40.243317" lon="-4.886150">
        <ele>984.0</ele>
        <time>2014-05-17T12:08:22Z</time>
      </trkpt>
      <trkpt lat="40.243317" lon="-4.886100">
        <ele>986.0</ele>
        <time>2014-05-17T12:08:23Z</time>
      </trkpt>
      <trkpt lat="40.243283" lon="-4.886033">
        <ele>988.0</ele>
        <time>2014-05-17T12:08:24Z</time>
      </trkpt>
      <trkpt lat="40.243233" lon="-4.885983">
        <ele>989.0</ele>
        <time>2014-05-17T12:08:25Z</time>
      </trkpt>
      <trkpt lat="40.243183" lon="-4.885950">
        <ele>991.0</ele>
        <time>2014-05-17T12:08:26Z</time>
      </trkpt>
      <trkpt lat="40.243100" lon="-4.885900">
        <ele>992.0</ele>
        <time>2014-05-17T12:08:27Z</time>
      </trkpt>
      <trkpt lat="40.242983" lon="-4.885883">
        <ele>993.0</ele>
        <time>2014-05-17T12:08:28Z</time>
      </trkpt>
      <trkpt lat="40.242883" lon="-4.885867">
        <ele>994.0</ele>
        <time>2014-05-17T12:08:29Z</time>
      </trkpt>
      <trkpt lat="40.242783" lon="-4.885883">
        <ele>997.0</ele>
        <time>2014-05-17T12:08:30Z</time>
      </trkpt>
      <trkpt lat="40.242683" lon="-4.885950">
        <ele>999.0</ele>
        <time>2014-05-17T12:08:31Z</time>
      </trkpt>
      <trkpt lat="40.242583" lon="-4.886033">
        <ele>1000.0</ele>
        <time>2014-05-17T12:08:32Z</time>
      </trkpt>
      <trkpt lat="40.242483" lon="-4.886133">
        <ele>1000.0</ele>
        <time>2014-05-17T12:08:33Z</time>
      </trkpt>
      <trkpt lat="40.242417" lon="-4.886250">
        <ele>1001.0</ele>
        <time>2014-05-17T12:08:34Z</time>
      </trkpt>
      <trkpt lat="40.242350" lon="-4.886350">
        <ele>1001.0</ele>
        <time>2014-05-17T12:08:35Z</time>
      </trkpt>
      <trkpt lat="40.242300" lon="-4.886483">
        <ele>1002.0</ele>
        <time>2014-05-17T12:08:36Z</time>
      </trkpt>
      <trkpt lat="40.242250" lon="-4.886617">
        <ele>1002.0</ele>
        <time>2014-05-17T12:08:37Z</time>
      </trkpt>
      <trkpt lat="40.242233" lon="-4.886767">
        <ele>1002.0</ele>
        <time>2014-05-17T12:08:38Z</time>
      </trkpt>
      <trkpt lat="40.242217" lon="-4.886900">
        <ele>1001.0</ele>
        <time>2014-05-17T12:08:39Z</time>
      </trkpt>
      <trkpt lat="40.242233" lon="-4.887050">
        <ele>1001.0</ele>
        <time>2014-05-17T12:08:40Z</time>
      </trkpt>
      <trkpt lat="40.242250" lon="-4.887183">
        <ele>1002.0</ele>
        <time>2014-05-17T12:08:41Z</time>
      </trkpt>
      <trkpt lat="40.242267" lon="-4.887300">
        <ele>1002.0</ele>
        <time>2014-05-17T12:08:42Z</time>
      </trkpt>
      <trkpt lat="40.242283" lon="-4.887383">
        <ele>1003.0</ele>
        <time>2014-05-17T12:08:43Z</time>
      </trkpt>
      <trkpt lat="40.242317" lon="-4.887467">
        <ele>1004.0</ele>
        <time>2014-05-17T12:08:44Z</time>
      </trkpt>
      <trkpt lat="40.242383" lon="-4.887533">
        <ele>1004.0</ele>
        <time>2014-05-17T12:08:45Z</time>
      </trkpt>
      <trkpt lat="40.242450" lon="-4.887583">
        <ele>1003.0</ele>
        <time>2014-05-17T12:08:46Z</time>
      </trkpt>
      <trkpt lat="40.242517" lon="-4.887617">
        <ele>1004.0</ele>
        <time>2014-05-17T12:08:47Z</time>
      </trkpt>
      <trkpt lat="40.242567" lon="-4.887617">
        <ele>1005.0</ele>
        <time>2014-05-17T12:08:48Z</time>
      </trkpt>
      <trkpt lat="40.242617" lon="-4.887617">
        <ele>1007.0</ele>
        <time>2014-05-17T12:08:49Z</time>
      </trkpt>
      <trkpt lat="40.242683" lon="-4.887617">
        <ele>1011.0</ele>
        <time>2014-05-17T12:08:51Z</time>
      </trkpt>
      <trkpt lat="40.242767" lon="-4.887583">
        <ele>1014.0</ele>
        <time>2014-05-17T12:08:53Z</time>
      </trkpt>
      <trkpt lat="40.242783" lon="-4.887550">
        <ele>1015.0</ele>
        <time>2014-05-17T12:08:54Z</time>
      </trkpt>
      <trkpt lat="40.242783" lon="-4.887483">
        <ele>1016.0</ele>
        <time>2014-05-17T12:08:55Z</time>
      </trkpt>
      <trkpt lat="40.242733" lon="-4.887400">
        <ele>1017.0</ele>
        <time>2014-05-17T12:08:56Z</time>
      </trkpt>
      <trkpt lat="40.242683" lon="-4.887333">
        <ele>1018.0</ele>
        <time>2014-05-17T12:08:57Z</time>
      </trkpt>
      <trkpt lat="40.242600" lon="-4.887300">
        <ele>1019.0</ele>
        <time>2014-05-17T12:08:58Z</time>
      </trkpt>
      <trkpt lat="40.242500" lon="-4.887283">
        <ele>1020.0</ele>
        <time>2014-05-17T12:08:59Z</time>
      </trkpt>
      <trkpt lat="40.242383" lon="-4.887317">
        <ele>1021.0</ele>
        <time>2014-05-17T12:09:00Z</time>
      </trkpt>
      <trkpt lat="40.242267" lon="-4.887350">
        <ele>1022.0</ele>
        <time>2014-05-17T12:09:01Z</time>
      </trkpt>
      <trkpt lat="40.242150" lon="-4.887400">
        <ele>1023.0</ele>
        <time>2014-05-17T12:09:02Z</time>
      </trkpt>
      <trkpt lat="40.242050" lon="-4.887467">
        <ele>1025.0</ele>
        <time>2014-05-17T12:09:03Z</time>
      </trkpt>
      <trkpt lat="40.241967" lon="-4.887567">
        <ele>1025.0</ele>
        <time>2014-05-17T12:09:04Z</time>
      </trkpt>
      <trkpt lat="40.241883" lon="-4.887683">
        <ele>1025.0</ele>
        <time>2014-05-17T12:09:05Z</time>
      </trkpt>
      <trkpt lat="40.241800" lon="-4.887783">
        <ele>1024.0</ele>
        <time>2014-05-17T12:09:06Z</time>
      </trkpt>
      <trkpt lat="40.241733" lon="-4.887900">
        <ele>1024.0</ele>
        <time>2014-05-17T12:09:07Z</time>
      </trkpt>
      <trkpt lat="40.241667" lon="-4.888017">
        <ele>1024.0</ele>
        <time>2014-05-17T12:09:08Z</time>
      </trkpt>
      <trkpt lat="40.241617" lon="-4.888150">
        <ele>1023.0</ele>
        <time>2014-05-17T12:09:09Z</time>
      </trkpt>
      <trkpt lat="40.241600" lon="-4.888300">
        <ele>1022.0</ele>
        <time>2014-05-17T12:09:10Z</time>
      </trkpt>
      <trkpt lat="40.241600" lon="-4.888450">
        <ele>1020.0</ele>
        <time>2014-05-17T12:09:11Z</time>
      </trkpt>
      <trkpt lat="40.241633" lon="-4.888583">
        <ele>1019.0</ele>
        <time>2014-05-17T12:09:12Z</time>
      </trkpt>
      <trkpt lat="40.241683" lon="-4.888667">
        <ele>1019.0</ele>
        <time>2014-05-17T12:09:13Z</time>
      </trkpt>
      <trkpt lat="40.241733" lon="-4.888733">
        <ele>1020.0</ele>
        <time>2014-05-17T12:09:14Z</time>
      </trkpt>
      <trkpt lat="40.241767" lon="-4.888767">
        <ele>1021.0</ele>
        <time>2014-05-17T12:09:15Z</time>
      </trkpt>
      <trkpt lat="40.241817" lon="-4.888800">
        <ele>1022.0</ele>
        <time>2014-05-17T12:09:16Z</time>
      </trkpt>
      <trkpt lat="40.241867" lon="-4.888817">
        <ele>1022.0</ele>
        <time>2014-05-17T12:09:17Z</time>
      </trkpt>
      <trkpt lat="40.241917" lon="-4.888817">
        <ele>1022.0</ele>
        <time>2014-05-17T12:09:18Z</time>
      </trkpt>
      <trkpt lat="40.241950" lon="-4.888817">
        <ele>1023.0</ele>
        <time>2014-05-17T12:09:19Z</time>
      </trkpt>
      <trkpt lat="40.241983" lon="-4.888817">
        <ele>1025.0</ele>
        <time>2014-05-17T12:09:20Z</time>
      </trkpt>
      <trkpt lat="40.242017" lon="-4.888800">
        <ele>1026.0</ele>
        <time>2014-05-17T12:09:21Z</time>
      </trkpt>
      <trkpt lat="40.242050" lon="-4.888783">
        <ele>1027.0</ele>
        <time>2014-05-17T12:09:22Z</time>
      </trkpt>
      <trkpt lat="40.242083" lon="-4.888750">
        <ele>1026.0</ele>
        <time>2014-05-17T12:09:23Z</time>
      </trkpt>
      <trkpt lat="40.242117" lon="-4.888717">
        <ele>1026.0</ele>
        <time>2014-05-17T12:09:24Z</time>
      </trkpt>
      <trkpt lat="40.242150" lon="-4.888683">
        <ele>1025.0</ele>
        <time>2014-05-17T12:09:25Z</time>
      </trkpt>
      <trkpt lat="40.242200" lon="-4.888633">
        <ele>1025.0</ele>
        <time>2014-05-17T12:09:26Z</time>
      </trkpt>
      <trkpt lat="40.242233" lon="-4.888617">
        <ele>1026.0</ele>
        <time>2014-05-17T12:09:27Z</time>
      </trkpt>
      <trkpt lat="40.242267" lon="-4.888583">
        <ele>1026.0</ele>
        <time>2014-05-17T12:09:28Z</time>
      </trkpt>
      <trkpt lat="40.242300" lon="-4.888567">
        <ele>1026.0</ele>
        <time>2014-05-17T12:09:29Z</time>
      </trkpt>
      <trkpt lat="40.242333" lon="-4.888517">
        <ele>1025.0</ele>
        <time>2014-05-17T12:09:30Z</time>
      </trkpt>
      <trkpt lat="40.242383" lon="-4.888467">
        <ele>1024.0</ele>
        <time>2014-05-17T12:09:31Z</time>
      </trkpt>
      <trkpt lat="40.242417" lon="-4.888417">
        <ele>1024.0</ele>
        <time>2014-05-17T12:09:32Z</time>
      </trkpt>
      <trkpt lat="40.242450" lon="-4.888383">
        <ele>1024.0</ele>
        <time>2014-05-17T12:09:33Z</time>
      </trkpt>
      <trkpt lat="40.242483" lon="-4.888367">
        <ele>1025.0</ele>
        <time>2014-05-17T12:09:34Z</time>
      </trkpt>
      <trkpt lat="40.242517" lon="-4.888333">
        <ele>1026.0</ele>
        <time>2014-05-17T12:09:35Z</time>
      </trkpt>
      <trkpt lat="40.242550" lon="-4.888300">
        <ele>1026.0</ele>
        <time>2014-05-17T12:09:36Z</time>
      </trkpt>
      <trkpt lat="40.242583" lon="-4.888250">
        <ele>1026.0</ele>
        <time>2014-05-17T12:09:37Z</time>
      </trkpt>
      <trkpt lat="40.242650" lon="-4.888183">
        <ele>1027.0</ele>
        <time>2014-05-17T12:09:39Z</time>
      </trkpt>
      <trkpt lat="40.242700" lon="-4.888150">
        <ele>1030.0</ele>
        <time>2014-05-17T12:09:41Z</time>
      </trkpt>
      <trkpt lat="40.242750" lon="-4.888083">
        <ele>1031.0</ele>
        <time>2014-05-17T12:09:43Z</time>
      </trkpt>
      <trkpt lat="40.242767" lon="-4.888017">
        <ele>1031.0</ele>
        <time>2014-05-17T12:09:44Z</time>
      </trkpt>
      <trkpt lat="40.242767" lon="-4.887950">
        <ele>1031.0</ele>
        <time>2014-05-17T12:09:45Z</time>
      </trkpt>
      <trkpt lat="40.242750" lon="-4.887883">
        <ele>1031.0</ele>
        <time>2014-05-17T12:09:46Z</time>
      </trkpt>
      <trkpt lat="40.242733" lon="-4.887817">
        <ele>1031.0</ele>
        <time>2014-05-17T12:09:47Z</time>
      </trkpt>
      <trkpt lat="40.242750" lon="-4.887767">
        <ele>1031.0</ele>
        <time>2014-05-17T12:09:48Z</time>
      </trkpt>
      <trkpt lat="40.242783" lon="-4.887717">
        <ele>1030.0</ele>
        <time>2014-05-17T12:09:49Z</time>
      </trkpt>
      <trkpt lat="40.242833" lon="-4.887700">
        <ele>1030.0</ele>
        <time>2014-05-17T12:09:50Z</time>
      </trkpt>
      <trkpt lat="40.242867" lon="-4.887683">
        <ele>1030.0</ele>
        <time>2014-05-17T12:09:51Z</time>
      </trkpt>
      <trkpt lat="40.242917" lon="-4.887667">
        <ele>1030.0</ele>
        <time>2014-05-17T12:09:52Z</time>
      </trkpt>
      <trkpt lat="40.242967" lon="-4.887650">
        <ele>1029.0</ele>
        <time>2014-05-17T12:09:53Z</time>
      </trkpt>
      <trkpt lat="40.243033" lon="-4.887633">
        <ele>1029.0</ele>
        <time>2014-05-17T12:09:54Z</time>
      </trkpt>
      <trkpt lat="40.243083" lon="-4.887617">
        <ele>1029.0</ele>
        <time>2014-05-17T12:09:55Z</time>
      </trkpt>
      <trkpt lat="40.243133" lon="-4.887600">
        <ele>1029.0</ele>
        <time>2014-05-17T12:09:56Z</time>
      </trkpt>
      <trkpt lat="40.243167" lon="-4.887583">
        <ele>1030.0</ele>
        <time>2014-05-17T12:09:57Z</time>
      </trkpt>
      <trkpt lat="40.243200" lon="-4.887567">
        <ele>1032.0</ele>
        <time>2014-05-17T12:09:58Z</time>
      </trkpt>
      <trkpt lat="40.243250" lon="-4.887550">
        <ele>1032.0</ele>
        <time>2014-05-17T12:09:59Z</time>
      </trkpt>
      <trkpt lat="40.243300" lon="-4.887533">
        <ele>1031.0</ele>
        <time>2014-05-17T12:10:00Z</time>
      </trkpt>
      <trkpt lat="40.243367" lon="-4.887533">
        <ele>1031.0</ele>
        <time>2014-05-17T12:10:01Z</time>
      </trkpt>
      <trkpt lat="40.243433" lon="-4.887500">
        <ele>1031.0</ele>
        <time>2014-05-17T12:10:02Z</time>
      </trkpt>
      <trkpt lat="40.243500" lon="-4.887483">
        <ele>1033.0</ele>
        <time>2014-05-17T12:10:03Z</time>
      </trkpt>
      <trkpt lat="40.243550" lon="-4.887467">
        <ele>1035.0</ele>
        <time>2014-05-17T12:10:04Z</time>
      </trkpt>
      <trkpt lat="40.243683" lon="-4.887417">
        <ele>1038.0</ele>
        <time>2014-05-17T12:10:07Z</time>
      </trkpt>
      <trkpt lat="40.243767" lon="-4.887400">
        <ele>1038.0</ele>
        <time>2014-05-17T12:10:08Z</time>
      </trkpt>
      <trkpt lat="40.243833" lon="-4.887400">
        <ele>1038.0</ele>
        <time>2014-05-17T12:10:09Z</time>
      </trkpt>
      <trkpt lat="40.243917" lon="-4.887417">
        <ele>1039.0</ele>
        <time>2014-05-17T12:10:10Z</time>
      </trkpt>
      <trkpt lat="40.243983" lon="-4.887450">
        <ele>1040.0</ele>
        <time>2014-05-17T12:10:11Z</time>
      </trkpt>
      <trkpt lat="40.244050" lon="-4.887517">
        <ele>1041.0</ele>
        <time>2014-05-17T12:10:12Z</time>
      </trkpt>
      <trkpt lat="40.244100" lon="-4.887600">
        <ele>1044.0</ele>
        <time>2014-05-17T12:10:13Z</time>
      </trkpt>
      <trkpt lat="40.244133" lon="-4.887683">
        <ele>1046.0</ele>
        <time>2014-05-17T12:10:14Z</time>
      </trkpt>
      <trkpt lat="40.244150" lon="-4.887800">
        <ele>1048.0</ele>
        <time>2014-05-17T12:10:15Z</time>
      </trkpt>
      <trkpt lat="40.244167" lon="-4.887933">
        <ele>1049.0</ele>
        <time>2014-05-17T12:10:16Z</time>
      </trkpt>
      <trkpt lat="40.244150" lon="-4.888083">
        <ele>1051.0</ele>
        <time>2014-05-17T12:10:17Z</time>
      </trkpt>
      <trkpt lat="40.244117" lon="-4.888217">
        <ele>1052.0</ele>
        <time>2014-05-17T12:10:18Z</time>
      </trkpt>
      <trkpt lat="40.244050" lon="-4.888333">
        <ele>1053.0</ele>
        <time>2014-05-17T12:10:19Z</time>
      </trkpt>
      <trkpt lat="40.243967" lon="-4.888400">
        <ele>1055.0</ele>
        <time>2014-05-17T12:10:20Z</time>
      </trkpt>
      <trkpt lat="40.243883" lon="-4.888433">
        <ele>1055.0</ele>
        <time>2014-05-17T12:10:21Z</time>
      </trkpt>
      <trkpt lat="40.243783" lon="-4.888417">
        <ele>1054.0</ele>
        <time>2014-05-17T12:10:22Z</time>
      </trkpt>
      <trkpt lat="40.243683" lon="-4.888400">
        <ele>1054.0</ele>
        <time>2014-05-17T12:10:23Z</time>
      </trkpt>
      <trkpt lat="40.243583" lon="-4.888367">
        <ele>1054.0</ele>
        <time>2014-05-17T12:10:24Z</time>
      </trkpt>
      <trkpt lat="40.243500" lon="-4.888317">
        <ele>1055.0</ele>
        <time>2014-05-17T12:10:25Z</time>
      </trkpt>
      <trkpt lat="40.243433" lon="-4.888250">
        <ele>1057.0</ele>
        <time>2014-05-17T12:10:26Z</time>
      </trkpt>
      <trkpt lat="40.243400" lon="-4.888167">
        <ele>1058.0</ele>
        <time>2014-05-17T12:10:27Z</time>
      </trkpt>
      <trkpt lat="40.243400" lon="-4.888100">
        <ele>1060.0</ele>
        <time>2014-05-17T12:10:28Z</time>
      </trkpt>
      <trkpt lat="40.243400" lon="-4.888033">
        <ele>1061.0</ele>
        <time>2014-05-17T12:10:29Z</time>
      </trkpt>
      <trkpt lat="40.243417" lon="-4.887983">
        <ele>1062.0</ele>
        <time>2014-05-17T12:10:30Z</time>
      </trkpt>
      <trkpt lat="40.243433" lon="-4.887933">
        <ele>1063.0</ele>
        <time>2014-05-17T12:10:31Z</time>
      </trkpt>
      <trkpt lat="40.243450" lon="-4.887867">
        <ele>1063.0</ele>
        <time>2014-05-17T12:10:32Z</time>
      </trkpt>
      <trkpt lat="40.243467" lon="-4.887783">
        <ele>1063.0</ele>
        <time>2014-05-17T12:10:33Z</time>
      </trkpt>
      <trkpt lat="40.243500" lon="-4.887733">
        <ele>1064.0</ele>
        <time>2014-05-17T12:10:34Z</time>
      </trkpt>
      <trkpt lat="40.243550" lon="-4.887700">
        <ele>1066.0</ele>
        <time>2014-05-17T12:10:35Z</time>
      </trkpt>
      <trkpt lat="40.243600" lon="-4.887683">
        <ele>1067.0</ele>
        <time>2014-05-17T12:10:36Z</time>
      </trkpt>
      <trkpt lat="40.243633" lon="-4.887683">
        <ele>1067.0</ele>
        <time>2014-05-17T12:10:37Z</time>
      </trkpt>
      <trkpt lat="40.243700" lon="-4.887667">
        <ele>1067.0</ele>
        <time>2014-05-17T12:10:38Z</time>
      </trkpt>
      <trkpt lat="40.243750" lon="-4.887667">
        <ele>1068.0</ele>
        <time>2014-05-17T12:10:39Z</time>
      </trkpt>
      <trkpt lat="40.243817" lon="-4.887667">
        <ele>1070.0</ele>
        <time>2014-05-17T12:10:40Z</time>
      </trkpt>
      <trkpt lat="40.243867" lon="-4.887700">
        <ele>1073.0</ele>
        <time>2014-05-17T12:10:41Z</time>
      </trkpt>
      <trkpt lat="40.243933" lon="-4.887783">
        <ele>1075.0</ele>
        <time>2014-05-17T12:10:42Z</time>
      </trkpt>
      <trkpt lat="40.243983" lon="-4.887900">
        <ele>1076.0</ele>
        <time>2014-05-17T12:10:43Z</time>
      </trkpt>
      <trkpt lat="40.244017" lon="-4.888033">
        <ele>1077.0</ele>
        <time>2014-05-17T12:10:44Z</time>
      </trkpt>
      <trkpt lat="40.244050" lon="-4.888167">
        <ele>1079.0</ele>
        <time>2014-05-17T12:10:45Z</time>
      </trkpt>
      <trkpt lat="40.244067" lon="-4.888300">
        <ele>1080.0</ele>
        <time>2014-05-17T12:10:46Z</time>
      </trkpt>
      <trkpt lat="40.244067" lon="-4.888450">
        <ele>1081.0</ele>
        <time>2014-05-17T12:10:47Z</time>
      </trkpt>
      <trkpt lat="40.244050" lon="-4.888583">
        <ele>1083.0</ele>
        <time>2014-05-17T12:10:48Z</time>
      </trkpt>
      <trkpt lat="40.244017" lon="-4.888717">
        <ele>1083.0</ele>
        <time>2014-05-17T12:10:49Z</time>
      </trkpt>
      <trkpt lat="40.243967" lon="-4.888833">
        <ele>1084.0</ele>
        <time>2014-05-17T12:10:50Z</time>
      </trkpt>
      <trkpt lat="40.243900" lon="-4.888933">
        <ele>1084.0</ele>
        <time>2014-05-17T12:10:51Z</time>
      </trkpt>
      <trkpt lat="40.243817" lon="-4.889017">
        <ele>1084.0</ele>
        <time>2014-05-17T12:10:52Z</time>
      </trkpt>
      <trkpt lat="40.243733" lon="-4.889083">
        <ele>1084.0</ele>
        <time>2014-05-17T12:10:53Z</time>
      </trkpt>
      <trkpt lat="40.243633" lon="-4.889133">
        <ele>1084.0</ele>
        <time>2014-05-17T12:10:54Z</time>
      </trkpt>
      <trkpt lat="40.243550" lon="-4.889150">
        <ele>1084.0</ele>
        <time>2014-05-17T12:10:55Z</time>
      </trkpt>
      <trkpt lat="40.243467" lon="-4.889133">
        <ele>1085.0</ele>
        <time>2014-05-17T12:10:56Z</time>
      </trkpt>
      <trkpt lat="40.243400" lon="-4.889067">
        <ele>1085.0</ele>
        <time>2014-05-17T12:10:57Z</time>
      </trkpt>
      <trkpt lat="40.243367" lon="-4.889017">
        <ele>1085.0</ele>
        <time>2014-05-17T12:10:58Z</time>
      </trkpt>
      <trkpt lat="40.243333" lon="-4.888950">
        <ele>1086.0</ele>
        <time>2014-05-17T12:10:59Z</time>
      </trkpt>
      <trkpt lat="40.243317" lon="-4.888900">
        <ele>1086.0</ele>
        <time>2014-05-17T12:11:00Z</time>
      </trkpt>
      <trkpt lat="40.243300" lon="-4.888833">
        <ele>1087.0</ele>
        <time>2014-05-17T12:11:01Z</time>
      </trkpt>
      <trkpt lat="40.243300" lon="-4.888767">
        <ele>1087.0</ele>
        <time>2014-05-17T12:11:02Z</time>
      </trkpt>
      <trkpt lat="40.243333" lon="-4.888717">
        <ele>1088.0</ele>
        <time>2014-05-17T12:11:03Z</time>
      </trkpt>
      <trkpt lat="40.243367" lon="-4.888667">
        <ele>1087.0</ele>
        <time>2014-05-17T12:11:04Z</time>
      </trkpt>
      <trkpt lat="40.243417" lon="-4.888633">
        <ele>1088.0</ele>
        <time>2014-05-17T12:11:05Z</time>
      </trkpt>
      <trkpt lat="40.243467" lon="-4.888600">
        <ele>1088.0</ele>
        <time>2014-05-17T12:11:06Z</time>
      </trkpt>
      <trkpt lat="40.243500" lon="-4.888583">
        <ele>1089.0</ele>
        <time>2014-05-17T12:11:07Z</time>
      </trkpt>
      <trkpt lat="40.243533" lon="-4.888550">
        <ele>1090.0</ele>
        <time>2014-05-17T12:11:08Z</time>
      </trkpt>
      <trkpt lat="40.243583" lon="-4.888483">
        <ele>1094.0</ele>
        <time>2014-05-17T12:11:10Z</time>
      </trkpt>
      <trkpt lat="40.243600" lon="-4.888450">
        <ele>1096.0</ele>
        <time>2014-05-17T12:11:11Z</time>
      </trkpt>
      <trkpt lat="40.243617" lon="-4.888400">
        <ele>1098.0</ele>
        <time>2014-05-17T12:11:12Z</time>
      </trkpt>
      <trkpt lat="40.243600" lon="-4.888350">
        <ele>1099.0</ele>
        <time>2014-05-17T12:11:13Z</time>
      </trkpt>
      <trkpt lat="40.243583" lon="-4.888283">
        <ele>1101.0</ele>
        <time>2014-05-17T12:11:14Z</time>
      </trkpt>
      <trkpt lat="40.243550" lon="-4.888217">
        <ele>1102.0</ele>
        <time>2014-05-17T12:11:15Z</time>
      </trkpt>
      <trkpt lat="40.243550" lon="-4.888167">
        <ele>1103.0</ele>
        <time>2014-05-17T12:11:16Z</time>
      </trkpt>
      <trkpt lat="40.243567" lon="-4.888133">
        <ele>1105.0</ele>
        <time>2014-05-17T12:11:17Z</time>
      </trkpt>
      <trkpt lat="40.243600" lon="-4.888083">
        <ele>1105.0</ele>
        <time>2014-05-17T12:11:18Z</time>
      </trkpt>
      <trkpt lat="40.243650" lon="-4.888067">
        <ele>1105.0</ele>
        <time>2014-05-17T12:11:19Z</time>
      </trkpt>
      <trkpt lat="40.243700" lon="-4.888050">
        <ele>1106.0</ele>
        <time>2014-05-17T12:11:20Z</time>
      </trkpt>
      <trkpt lat="40.243750" lon="-4.888050">
        <ele>1107.0</ele>
        <time>2014-05-17T12:11:21Z</time>
      </trkpt>
      <trkpt lat="40.243800" lon="-4.888050">
        <ele>1108.0</ele>
        <time>2014-05-17T12:11:22Z</time>
      </trkpt>
      <trkpt lat="40.243867" lon="-4.888083">
        <ele>1109.0</ele>
        <time>2014-05-17T12:11:23Z</time>
      </trkpt>
      <trkpt lat="40.243933" lon="-4.888117">
        <ele>1110.0</ele>
        <time>2014-05-17T12:11:24Z</time>
      </trkpt>
      <trkpt lat="40.244000" lon="-4.888167">
        <ele>1111.0</ele>
        <time>2014-05-17T12:11:25Z</time>
      </trkpt>
      <trkpt lat="40.244067" lon="-4.888217">
        <ele>1112.0</ele>
        <time>2014-05-17T12:11:26Z</time>
      </trkpt>
      <trkpt lat="40.244117" lon="-4.888283">
        <ele>1114.0</ele>
        <time>2014-05-17T12:11:27Z</time>
      </trkpt>
      <trkpt lat="40.244167" lon="-4.888383">
        <ele>1116.0</ele>
        <time>2014-05-17T12:11:28Z</time>
      </trkpt>
      <trkpt lat="40.244200" lon="-4.888500">
        <ele>1118.0</ele>
        <time>2014-05-17T12:11:29Z</time>
      </trkpt>
      <trkpt lat="40.244233" lon="-4.888650">
        <ele>1119.0</ele>
        <time>2014-05-17T12:11:30Z</time>
      </trkpt>
      <trkpt lat="40.244233" lon="-4.888800">
        <ele>1120.0</ele>
        <time>2014-05-17T12:11:31Z</time>
      </trkpt>
      <trkpt lat="40.244217" lon="-4.888950">
        <ele>1122.0</ele>
        <time>2014-05-17T12:11:32Z</time>
      </trkpt>
      <trkpt lat="40.244183" lon="-4.889100">
        <ele>1124.0</ele>
        <time>2014-05-17T12:11:33Z</time>
      </trkpt>
      <trkpt lat="40.244133" lon="-4.889233">
        <ele>1126.0</ele>
        <time>2014-05-17T12:11:34Z</time>
      </trkpt>
      <trkpt lat="40.244050" lon="-4.889333">
        <ele>1129.0</ele>
        <time>2014-05-17T12:11:35Z</time>
      </trkpt>
      <trkpt lat="40.243983" lon="-4.889417">
        <ele>1131.0</ele>
        <time>2014-05-17T12:11:36Z</time>
      </trkpt>
      <trkpt lat="40.243900" lon="-4.889483">
        <ele>1133.0</ele>
        <time>2014-05-17T12:11:37Z</time>
      </trkpt>
      <trkpt lat="40.243817" lon="-4.889533">
        <ele>1133.0</ele>
        <time>2014-05-17T12:11:38Z</time>
      </trkpt>
      <trkpt lat="40.243717" lon="-4.889567">
        <ele>1134.0</ele>
        <time>2014-05-17T12:11:39Z</time>
      </trkpt>
      <trkpt lat="40.243617" lon="-4.889567">
        <ele>1135.0</ele>
        <time>2014-05-17T12:11:40Z</time>
      </trkpt>
      <trkpt lat="40.243533" lon="-4.889533">
        <ele>1136.0</ele>
        <time>2014-05-17T12:11:41Z</time>
      </trkpt>
      <trkpt lat="40.243483" lon="-4.889483">
        <ele>1138.0</ele>
        <time>2014-05-17T12:11:42Z</time>
      </trkpt>
      <trkpt lat="40.243433" lon="-4.889433">
        <ele>1139.0</ele>
        <time>2014-05-17T12:11:43Z</time>
      </trkpt>
      <trkpt lat="40.243400" lon="-4.889367">
        <ele>1141.0</ele>
        <time>2014-05-17T12:11:44Z</time>
      </trkpt>
      <trkpt lat="40.243383" lon="-4.889317">
        <ele>1143.0</ele>
        <time>2014-05-17T12:11:45Z</time>
      </trkpt>
      <trkpt lat="40.243383" lon="-4.889267">
        <ele>1144.0</ele>
        <time>2014-05-17T12:11:46Z</time>
      </trkpt>
      <trkpt lat="40.243400" lon="-4.889217">
        <ele>1145.0</ele>
        <time>2014-05-17T12:11:47Z</time>
      </trkpt>
      <trkpt lat="40.243450" lon="-4.889183">
        <ele>1145.0</ele>
        <time>2014-05-17T12:11:48Z</time>
      </trkpt>
      <trkpt lat="40.243500" lon="-4.889150">
        <ele>1146.0</ele>
        <time>2014-05-17T12:11:49Z</time>
      </trkpt>
      <trkpt lat="40.243550" lon="-4.889150">
        <ele>1147.0</ele>
        <time>2014-05-17T12:11:50Z</time>
      </trkpt>
      <trkpt lat="40.243617" lon="-4.889167">
        <ele>1149.0</ele>
        <time>2014-05-17T12:11:51Z</time>
      </trkpt>
      <trkpt lat="40.243683" lon="-4.889200">
        <ele>1151.0</ele>
        <time>2014-05-17T12:11:52Z</time>
      </trkpt>
      <trkpt lat="40.243750" lon="-4.889250">
        <ele>1152.0</ele>
        <time>2014-05-17T12:11:53Z</time>
      </trkpt>
      <trkpt lat="40.243800" lon="-4.889317">
        <ele>1154.0</ele>
        <time>2014-05-17T12:11:54Z</time>
      </trkpt>
      <trkpt lat="40.243850" lon="-4.889417">
        <ele>1156.0</ele>
        <time>2014-05-17T12:11:55Z</time>
      </trkpt>
      <trkpt lat="40.243883" lon="-4.889550">
        <ele>1158.0</ele>
        <time>2014-05-17T12:11:56Z</time>
      </trkpt>
      <trkpt lat="40.243917" lon="-4.889683">
        <ele>1159.0</ele>
        <time>2014-05-17T12:11:57Z</time>
      </trkpt>
      <trkpt lat="40.243950" lon="-4.889833">
        <ele>1160.0</ele>
        <time>2014-05-17T12:11:58Z</time>
      </trkpt>
      <trkpt lat="40.243950" lon="-4.889983">
        <ele>1161.0</ele>
        <time>2014-05-17T12:11:59Z</time>
      </trkpt>
      <trkpt lat="40.243933" lon="-4.890133">
        <ele>1163.0</ele>
        <time>2014-05-17T12:12:00Z</time>
      </trkpt>
      <trkpt lat="40.243883" lon="-4.890267">
        <ele>1164.0</ele>
        <time>2014-05-17T12:12:01Z</time>
      </trkpt>
      <trkpt lat="40.243833" lon="-4.890400">
        <ele>1164.0</ele>
        <time>2014-05-17T12:12:02Z</time>
      </trkpt>
      <trkpt lat="40.243750" lon="-4.890517">
        <ele>1165.0</ele>
        <time>2014-05-17T12:12:03Z</time>
      </trkpt>
      <trkpt lat="40.243667" lon="-4.890600">
        <ele>1167.0</ele>
        <time>2014-05-17T12:12:04Z</time>
      </trkpt>
      <trkpt lat="40.243583" lon="-4.890633">
        <ele>1169.0</ele>
        <time>2014-05-17T12:12:05Z</time>
      </trkpt>
      <trkpt lat="40.243483" lon="-4.890617">
        <ele>1170.0</ele>
        <time>2014-05-17T12:12:06Z</time>
      </trkpt>
      <trkpt lat="40.243417" lon="-4.890583">
        <ele>1171.0</ele>
        <time>2014-05-17T12:12:07Z</time>
      </trkpt>
      <trkpt lat="40.243367" lon="-4.890517">
        <ele>1172.0</ele>
        <time>2014-05-17T12:12:08Z</time>
      </trkpt>
      <trkpt lat="40.243333" lon="-4.890450">
        <ele>1174.0</ele>
        <time>2014-05-17T12:12:09Z</time>
      </trkpt>
      <trkpt lat="40.243300" lon="-4.890400">
        <ele>1176.0</ele>
        <time>2014-05-17T12:12:10Z</time>
      </trkpt>
      <trkpt lat="40.243283" lon="-4.890350">
        <ele>1177.0</ele>
        <time>2014-05-17T12:12:11Z</time>
      </trkpt>
      <trkpt lat="40.243283" lon="-4.890283">
        <ele>1178.0</ele>
        <time>2014-05-17T12:12:12Z</time>
      </trkpt>
      <trkpt lat="40.243283" lon="-4.890200">
        <ele>1179.0</ele>
        <time>2014-05-17T12:12:13Z</time>
      </trkpt>
      <trkpt lat="40.243300" lon="-4.890150">
        <ele>1180.0</ele>
        <time>2014-05-17T12:12:14Z</time>
      </trkpt>
      <trkpt lat="40.243350" lon="-4.890100">
        <ele>1183.0</ele>
        <time>2014-05-17T12:12:15Z</time>
      </trkpt>
      <trkpt lat="40.243400" lon="-4.890100">
        <ele>1185.0</ele>
        <time>2014-05-17T12:12:16Z</time>
      </trkpt>
      <trkpt lat="40.243467" lon="-4.890100">
        <ele>1186.0</ele>
        <time>2014-05-17T12:12:17Z</time>
      </trkpt>
      <trkpt lat="40.243533" lon="-4.890117">
        <ele>1188.0</ele>
        <time>2014-05-17T12:12:18Z</time>
      </trkpt>
      <trkpt lat="40.243600" lon="-4.890150">
        <ele>1191.0</ele>
        <time>2014-05-17T12:12:19Z</time>
      </trkpt>
      <trkpt lat="40.243667" lon="-4.890217">
        <ele>1193.0</ele>
        <time>2014-05-17T12:12:20Z</time>
      </trkpt>
      <trkpt lat="40.243717" lon="-4.890317">
        <ele>1194.0</ele>
        <time>2014-05-17T12:12:21Z</time>
      </trkpt>
      <trkpt lat="40.243767" lon="-4.890433">
        <ele>1195.0</ele>
        <time>2014-05-17T12:12:22Z</time>
      </trkpt>
      <trkpt lat="40.243800" lon="-4.890550">
        <ele>1197.0</ele>
        <time>2014-05-17T12:12:23Z</time>
      </trkpt>
      <trkpt lat="40.243817" lon="-4.890683">
        <ele>1198.0</ele>
        <time>2014-05-17T12:12:24Z</time>
      </trkpt>
      <trkpt lat="40.243800" lon="-4.890800">
        <ele>1199.0</ele>
        <time>2014-05-17T12:12:25Z</time>
      </trkpt>
      <trkpt lat="40.243783" lon="-4.890917">
        <ele>1200.0</ele>
        <time>2014-05-17T12:12:26Z</time>
      </trkpt>
      <trkpt lat="40.243750" lon="-4.891050">
        <ele>1200.0</ele>
        <time>2014-05-17T12:12:27Z</time>
      </trkpt>
      <trkpt lat="40.243683" lon="-4.891167">
        <ele>1199.0</ele>
        <time>2014-05-17T12:12:28Z</time>
      </trkpt>
      <trkpt lat="40.243617" lon="-4.891267">
        <ele>1200.0</ele>
        <time>2014-05-17T12:12:29Z</time>
      </trkpt>
      <trkpt lat="40.243533" lon="-4.891333">
        <ele>1202.0</ele>
        <time>2014-05-17T12:12:30Z</time>
      </trkpt>
      <trkpt lat="40.243450" lon="-4.891383">
        <ele>1203.0</ele>
        <time>2014-05-17T12:12:31Z</time>
      </trkpt>
      <trkpt lat="40.243367" lon="-4.891400">
        <ele>1204.0</ele>
        <time>2014-05-17T12:12:32Z</time>
      </trkpt>
      <trkpt lat="40.243283" lon="-4.891400">
        <ele>1206.0</ele>
        <time>2014-05-17T12:12:33Z</time>
      </trkpt>
      <trkpt lat="40.243217" lon="-4.891383">
        <ele>1208.0</ele>
        <time>2014-05-17T12:12:34Z</time>
      </trkpt>
      <trkpt lat="40.243150" lon="-4.891350">
        <ele>1210.0</ele>
        <time>2014-05-17T12:12:35Z</time>
      </trkpt>
      <trkpt lat="40.243117" lon="-4.891300">
        <ele>1212.0</ele>
        <time>2014-05-17T12:12:36Z</time>
      </trkpt>
      <trkpt lat="40.243100" lon="-4.891233">
        <ele>1214.0</ele>
        <time>2014-05-17T12:12:37Z</time>
      </trkpt>
      <trkpt lat="40.243100" lon="-4.891167">
        <ele>1215.0</ele>
        <time>2014-05-17T12:12:38Z</time>
      </trkpt>
      <trkpt lat="40.243117" lon="-4.891133">
        <ele>1217.0</ele>
        <time>2014-05-17T12:12:39Z</time>
      </trkpt>
      <trkpt lat="40.243167" lon="-4.891100">
        <ele>1218.0</ele>
        <time>2014-05-17T12:12:40Z</time>
      </trkpt>
      <trkpt lat="40.243217" lon="-4.891067">
        <ele>1219.0</ele>
        <time>2014-05-17T12:12:41Z</time>
      </trkpt>
      <trkpt lat="40.243283" lon="-4.891067">
        <ele>1221.0</ele>
        <time>2014-05-17T12:12:42Z</time>
      </trkpt>
      <trkpt lat="40.243350" lon="-4.891100">
        <ele>1221.0</ele>
        <time>2014-05-17T12:12:43Z</time>
      </trkpt>
      <trkpt lat="40.243417" lon="-4.891150">
        <ele>1222.0</ele>
        <time>2014-05-17T12:12:44Z</time>
      </trkpt>
      <trkpt lat="40.243483" lon="-4.891217">
        <ele>1222.0</ele>
        <time>2014-05-17T12:12:45Z</time>
      </trkpt>
      <trkpt lat="40.243533" lon="-4.891300">
        <ele>1222.0</ele>
        <time>2014-05-17T12:12:46Z</time>
      </trkpt>
      <trkpt lat="40.243583" lon="-4.891383">
        <ele>1223.0</ele>
        <time>2014-05-17T12:12:47Z</time>
      </trkpt>
      <trkpt lat="40.243600" lon="-4.891500">
        <ele>1223.0</ele>
        <time>2014-05-17T12:12:48Z</time>
      </trkpt>
      <trkpt lat="40.243600" lon="-4.891633">
        <ele>1223.0</ele>
        <time>2014-05-17T12:12:49Z</time>
      </trkpt>
      <trkpt lat="40.243583" lon="-4.891767">
        <ele>1221.0</ele>
        <time>2014-05-17T12:12:50Z</time>
      </trkpt>
      <trkpt lat="40.243567" lon="-4.891917">
        <ele>1220.0</ele>
        <time>2014-05-17T12:12:51Z</time>
      </trkpt>
      <trkpt lat="40.243533" lon="-4.892067">
        <ele>1219.0</ele>
        <time>2014-05-17T12:12:52Z</time>
      </trkpt>
      <trkpt lat="40.243483" lon="-4.892200">
        <ele>1219.0</ele>
        <time>2014-05-17T12:12:53Z</time>
      </trkpt>
      <trkpt lat="40.243417" lon="-4.892333">
        <ele>1220.0</ele>
        <time>2014-05-17T12:12:54Z</time>
      </trkpt>
      <trkpt lat="40.243333" lon="-4.892417">
        <ele>1221.0</ele>
        <time>2014-05-17T12:12:55Z</time>
      </trkpt>
      <trkpt lat="40.243250" lon="-4.892450">
        <ele>1222.0</ele>
        <time>2014-05-17T12:12:56Z</time>
      </trkpt>
      <trkpt lat="40.243167" lon="-4.892450">
        <ele>1222.0</ele>
        <time>2014-05-17T12:12:57Z</time>
      </trkpt>
      <trkpt lat="40.243100" lon="-4.892450">
        <ele>1225.0</ele>
        <time>2014-05-17T12:12:58Z</time>
      </trkpt>
      <trkpt lat="40.243033" lon="-4.892417">
        <ele>1226.0</ele>
        <time>2014-05-17T12:12:59Z</time>
      </trkpt>
      <trkpt lat="40.242983" lon="-4.892367">
        <ele>1227.0</ele>
        <time>2014-05-17T12:13:00Z</time>
      </trkpt>
      <trkpt lat="40.242967" lon="-4.892300">
        <ele>1228.0</ele>
        <time>2014-05-17T12:13:01Z</time>
      </trkpt>
      <trkpt lat="40.242967" lon="-4.892233">
        <ele>1228.0</ele>
        <time>2014-05-17T12:13:02Z</time>
      </trkpt>
      <trkpt lat="40.242983" lon="-4.892183">
        <ele>1230.0</ele>
        <time>2014-05-17T12:13:03Z</time>
      </trkpt>
      <trkpt lat="40.243000" lon="-4.892150">
        <ele>1232.0</ele>
        <time>2014-05-17T12:13:04Z</time>
      </trkpt>
      <trkpt lat="40.243017" lon="-4.892100">
        <ele>1233.0</ele>
        <time>2014-05-17T12:13:05Z</time>
      </trkpt>
      <trkpt lat="40.243050" lon="-4.892050">
        <ele>1232.0</ele>
        <time>2014-05-17T12:13:06Z</time>
      </trkpt>
      <trkpt lat="40.243083" lon="-4.892000">
        <ele>1232.0</ele>
        <time>2014-05-17T12:13:07Z</time>
      </trkpt>
      <trkpt lat="40.243150" lon="-4.891983">
        <ele>1231.0</ele>
        <time>2014-05-17T12:13:08Z</time>
      </trkpt>
      <trkpt lat="40.243200" lon="-4.891967">
        <ele>1230.0</ele>
        <time>2014-05-17T12:13:09Z</time>
      </trkpt>
      <trkpt lat="40.243250" lon="-4.891950">
        <ele>1230.0</ele>
        <time>2014-05-17T12:13:10Z</time>
      </trkpt>
      <trkpt lat="40.243300" lon="-4.891950">
        <ele>1230.0</ele>
        <time>2014-05-17T12:13:11Z</time>
      </trkpt>
      <trkpt lat="40.243350" lon="-4.891967">
        <ele>1230.0</ele>
        <time>2014-05-17T12:13:12Z</time>
      </trkpt>
      <trkpt lat="40.243383" lon="-4.891983">
        <ele>1229.0</ele>
        <time>2014-05-17T12:13:13Z</time>
      </trkpt>
      <trkpt lat="40.243450" lon="-4.892000">
        <ele>1225.0</ele>
        <time>2014-05-17T12:13:14Z</time>
      </trkpt>
      <trkpt lat="40.243517" lon="-4.892017">
        <ele>1220.0</ele>
        <time>2014-05-17T12:13:15Z</time>
      </trkpt>
      <trkpt lat="40.243600" lon="-4.892033">
        <ele>1217.0</ele>
        <time>2014-05-17T12:13:16Z</time>
      </trkpt>
      <trkpt lat="40.243667" lon="-4.892083">
        <ele>1214.0</ele>
        <time>2014-05-17T12:13:17Z</time>
      </trkpt>
      <trkpt lat="40.243733" lon="-4.892150">
        <ele>1211.0</ele>
        <time>2014-05-17T12:13:18Z</time>
      </trkpt>
      <trkpt lat="40.243800" lon="-4.892233">
        <ele>1209.0</ele>
        <time>2014-05-17T12:13:19Z</time>
      </trkpt>
      <trkpt lat="40.243867" lon="-4.892317">
        <ele>1207.0</ele>
        <time>2014-05-17T12:13:20Z</time>
      </trkpt>
      <trkpt lat="40.243917" lon="-4.892400">
        <ele>1204.0</ele>
        <time>2014-05-17T12:13:21Z</time>
      </trkpt>
      <trkpt lat="40.243983" lon="-4.892500">
        <ele>1202.0</ele>
        <time>2014-05-17T12:13:22Z</time>
      </trkpt>
      <trkpt lat="40.244017" lon="-4.892600">
        <ele>1200.0</ele>
        <time>2014-05-17T12:13:23Z</time>
      </trkpt>
      <trkpt lat="40.244067" lon="-4.892717">
        <ele>1198.0</ele>
        <time>2014-05-17T12:13:24Z</time>
      </trkpt>
      <trkpt lat="40.244117" lon="-4.892833">
        <ele>1196.0</ele>
        <time>2014-05-17T12:13:25Z</time>
      </trkpt>
      <trkpt lat="40.244167" lon="-4.892950">
        <ele>1196.0</ele>
        <time>2014-05-17T12:13:26Z</time>
      </trkpt>
      <trkpt lat="40.244217" lon="-4.893067">
        <ele>1196.0</ele>
        <time>2014-05-17T12:13:27Z</time>
      </trkpt>
      <trkpt lat="40.244267" lon="-4.893167">
        <ele>1196.0</ele>
        <time>2014-05-17T12:13:28Z</time>
      </trkpt>
      <trkpt lat="40.244317" lon="-4.893250">
        <ele>1196.0</ele>
        <time>2014-05-17T12:13:29Z</time>
      </trkpt>
      <trkpt lat="40.244383" lon="-4.893333">
        <ele>1196.0</ele>
        <time>2014-05-17T12:13:30Z</time>
      </trkpt>
      <trkpt lat="40.244467" lon="-4.893417">
        <ele>1196.0</ele>
        <time>2014-05-17T12:13:31Z</time>
      </trkpt>
      <trkpt lat="40.244533" lon="-4.893500">
        <ele>1196.0</ele>
        <time>2014-05-17T12:13:32Z</time>
      </trkpt>
      <trkpt lat="40.244617" lon="-4.893550">
        <ele>1196.0</ele>
        <time>2014-05-17T12:13:33Z</time>
      </trkpt>
      <trkpt lat="40.244667" lon="-4.893600">
        <ele>1198.0</ele>
        <time>2014-05-17T12:13:34Z</time>
      </trkpt>
      <trkpt lat="40.244733" lon="-4.893633">
        <ele>1198.0</ele>
        <time>2014-05-17T12:13:35Z</time>
      </trkpt>
      <trkpt lat="40.244900" lon="-4.893683">
        <ele>1196.0</ele>
        <time>2014-05-17T12:13:37Z</time>
      </trkpt>
      <trkpt lat="40.245067" lon="-4.893667">
        <ele>1201.0</ele>
        <time>2014-05-17T12:13:40Z</time>
      </trkpt>
      <trkpt lat="40.245100" lon="-4.893667">
        <ele>1203.0</ele>
        <time>2014-05-17T12:13:41Z</time>
      </trkpt>
      <trkpt lat="40.245133" lon="-4.893667">
        <ele>1204.0</ele>
        <time>2014-05-17T12:13:42Z</time>
      </trkpt>
      <trkpt lat="40.245200" lon="-4.893667">
        <ele>1205.0</ele>
        <time>2014-05-17T12:13:43Z</time>
      </trkpt>
      <trkpt lat="40.245267" lon="-4.893667">
        <ele>1204.0</ele>
        <time>2014-05-17T12:13:44Z</time>
      </trkpt>
      <trkpt lat="40.245350" lon="-4.893683">
        <ele>1204.0</ele>
        <time>2014-05-17T12:13:45Z</time>
      </trkpt>
      <trkpt lat="40.245400" lon="-4.893717">
        <ele>1206.0</ele>
        <time>2014-05-17T12:13:46Z</time>
      </trkpt>
      <trkpt lat="40.245450" lon="-4.893750">
        <ele>1207.0</ele>
        <time>2014-05-17T12:13:47Z</time>
      </trkpt>
      <trkpt lat="40.245483" lon="-4.893800">
        <ele>1208.0</ele>
        <time>2014-05-17T12:13:48Z</time>
      </trkpt>
      <trkpt lat="40.245533" lon="-4.893833">
        <ele>1209.0</ele>
        <time>2014-05-17T12:13:49Z</time>
      </trkpt>
      <trkpt lat="40.245600" lon="-4.893883">
        <ele>1210.0</ele>
        <time>2014-05-17T12:13:50Z</time>
      </trkpt>
      <trkpt lat="40.245650" lon="-4.893917">
        <ele>1211.0</ele>
        <time>2014-05-17T12:13:51Z</time>
      </trkpt>
      <trkpt lat="40.245700" lon="-4.893950">
        <ele>1213.0</ele>
        <time>2014-05-17T12:13:52Z</time>
      </trkpt>
      <trkpt lat="40.245733" lon="-4.894000">
        <ele>1214.0</ele>
        <time>2014-05-17T12:13:53Z</time>
      </trkpt>
      <trkpt lat="40.245783" lon="-4.894033">
        <ele>1215.0</ele>
        <time>2014-05-17T12:13:54Z</time>
      </trkpt>
      <trkpt lat="40.245833" lon="-4.894067">
        <ele>1216.0</ele>
        <time>2014-05-17T12:13:55Z</time>
      </trkpt>
      <trkpt lat="40.245883" lon="-4.894083">
        <ele>1216.0</ele>
        <time>2014-05-17T12:13:56Z</time>
      </trkpt>
      <trkpt lat="40.245917" lon="-4.894083">
        <ele>1216.0</ele>
        <time>2014-05-17T12:13:57Z</time>
      </trkpt>
      <trkpt lat="40.245933" lon="-4.894083">
        <ele>1215.0</ele>
        <time>2014-05-17T12:13:58Z</time>
      </trkpt>
      <trkpt lat="40.245933" lon="-4.894083">
        <ele>1214.0</ele>
        <time>2014-05-17T12:13:59Z</time>
      </trkpt>
      <trkpt lat="40.245950" lon="-4.894067">
        <ele>1212.0</ele>
        <time>2014-05-17T12:14:00Z</time>
      </trkpt>
      <trkpt lat="40.245967" lon="-4.894033">
        <ele>1210.0</ele>
        <time>2014-05-17T12:14:01Z</time>
      </trkpt>
      <trkpt lat="40.245967" lon="-4.893983">
        <ele>1208.0</ele>
        <time>2014-05-17T12:14:02Z</time>
      </trkpt>
      <trkpt lat="40.245950" lon="-4.893933">
        <ele>1205.0</ele>
        <time>2014-05-17T12:14:03Z</time>
      </trkpt>
      <trkpt lat="40.245900" lon="-4.893900">
        <ele>1202.0</ele>
        <time>2014-05-17T12:14:04Z</time>
      </trkpt>
      <trkpt lat="40.245817" lon="-4.893883">
        <ele>1199.0</ele>
        <time>2014-05-17T12:14:05Z</time>
      </trkpt>
      <trkpt lat="40.245733" lon="-4.893883">
        <ele>1196.0</ele>
        <time>2014-05-17T12:14:06Z</time>
      </trkpt>
      <trkpt lat="40.245650" lon="-4.893900">
        <ele>1193.0</ele>
        <time>2014-05-17T12:14:07Z</time>
      </trkpt>
      <trkpt lat="40.245533" lon="-4.893917">
        <ele>1191.0</ele>
        <time>2014-05-17T12:14:08Z</time>
      </trkpt>
      <trkpt lat="40.245433" lon="-4.893950">
        <ele>1188.0</ele>
        <time>2014-05-17T12:14:09Z</time>
      </trkpt>
      <trkpt lat="40.245333" lon="-4.894000">
        <ele>1185.0</ele>
        <time>2014-05-17T12:14:10Z</time>
      </trkpt>
      <trkpt lat="40.245233" lon="-4.894067">
        <ele>1185.0</ele>
        <time>2014-05-17T12:14:11Z</time>
      </trkpt>
      <trkpt lat="40.245133" lon="-4.894167">
        <ele>1183.0</ele>
        <time>2014-05-17T12:14:12Z</time>
      </trkpt>
      <trkpt lat="40.245050" lon="-4.894267">
        <ele>1181.0</ele>
        <time>2014-05-17T12:14:13Z</time>
      </trkpt>
      <trkpt lat="40.244967" lon="-4.894383">
        <ele>1180.0</ele>
        <time>2014-05-17T12:14:14Z</time>
      </trkpt>
      <trkpt lat="40.244883" lon="-4.894517">
        <ele>1178.0</ele>
        <time>2014-05-17T12:14:15Z</time>
      </trkpt>
      <trkpt lat="40.244800" lon="-4.894633">
        <ele>1176.0</ele>
        <time>2014-05-17T12:14:16Z</time>
      </trkpt>
      <trkpt lat="40.244717" lon="-4.894750">
        <ele>1175.0</ele>
        <time>2014-05-17T12:14:17Z</time>
      </trkpt>
      <trkpt lat="40.244650" lon="-4.894850">
        <ele>1176.0</ele>
        <time>2014-05-17T12:14:18Z</time>
      </trkpt>
      <trkpt lat="40.244583" lon="-4.894950">
        <ele>1176.0</ele>
        <time>2014-05-17T12:14:19Z</time>
      </trkpt>
      <trkpt lat="40.244517" lon="-4.895033">
        <ele>1177.0</ele>
        <time>2014-05-17T12:14:20Z</time>
      </trkpt>
      <trkpt lat="40.244450" lon="-4.895133">
        <ele>1176.0</ele>
        <time>2014-05-17T12:14:21Z</time>
      </trkpt>
      <trkpt lat="40.244383" lon="-4.895217">
        <ele>1176.0</ele>
        <time>2014-05-17T12:14:22Z</time>
      </trkpt>
      <trkpt lat="40.244317" lon="-4.895300">
        <ele>1175.0</ele>
        <time>2014-05-17T12:14:23Z</time>
      </trkpt>
      <trkpt lat="40.244250" lon="-4.895400">
        <ele>1174.0</ele>
        <time>2014-05-17T12:14:24Z</time>
      </trkpt>
      <trkpt lat="40.244167" lon="-4.895483">
        <ele>1173.0</ele>
        <time>2014-05-17T12:14:25Z</time>
      </trkpt>
      <trkpt lat="40.244100" lon="-4.895550">
        <ele>1173.0</ele>
        <time>2014-05-17T12:14:26Z</time>
      </trkpt>
      <trkpt lat="40.244000" lon="-4.895617">
        <ele>1172.0</ele>
        <time>2014-05-17T12:14:27Z</time>
      </trkpt>
      <trkpt lat="40.243917" lon="-4.895650">
        <ele>1170.0</ele>
        <time>2014-05-17T12:14:28Z</time>
      </trkpt>
      <trkpt lat="40.243833" lon="-4.895650">
        <ele>1169.0</ele>
        <time>2014-05-17T12:14:29Z</time>
      </trkpt>
      <trkpt lat="40.243750" lon="-4.895617">
        <ele>1168.0</ele>
        <time>2014-05-17T12:14:30Z</time>
      </trkpt>
      <trkpt lat="40.243700" lon="-4.895550">
        <ele>1168.0</ele>
        <time>2014-05-17T12:14:31Z</time>
      </trkpt>
      <trkpt lat="40.243683" lon="-4.895483">
        <ele>1168.0</ele>
        <time>2014-05-17T12:14:32Z</time>
      </trkpt>
      <trkpt lat="40.243667" lon="-4.895433">
        <ele>1168.0</ele>
        <time>2014-05-17T12:14:33Z</time>
      </trkpt>
      <trkpt lat="40.243667" lon="-4.895367">
        <ele>1167.0</ele>
        <time>2014-05-17T12:14:34Z</time>
      </trkpt>
      <trkpt lat="40.243683" lon="-4.895317">
        <ele>1167.0</ele>
        <time>2014-05-17T12:14:35Z</time>
      </trkpt>
      <trkpt lat="40.243700" lon="-4.895283">
        <ele>1166.0</ele>
        <time>2014-05-17T12:14:36Z</time>
      </trkpt>
      <trkpt lat="40.243733" lon="-4.895250">
        <ele>1166.0</ele>
        <time>2014-05-17T12:14:37Z</time>
      </trkpt>
      <trkpt lat="40.243767" lon="-4.895233">
        <ele>1165.0</ele>
        <time>2014-05-17T12:14:38Z</time>
      </trkpt>
      <trkpt lat="40.243833" lon="-4.895233">
        <ele>1163.0</ele>
        <time>2014-05-17T12:14:39Z</time>
      </trkpt>
      <trkpt lat="40.243883" lon="-4.895217">
        <ele>1162.0</ele>
        <time>2014-05-17T12:14:40Z</time>
      </trkpt>
      <trkpt lat="40.243967" lon="-4.895200">
        <ele>1164.0</ele>
        <time>2014-05-17T12:14:42Z</time>
      </trkpt>
      <trkpt lat="40.244000" lon="-4.895200">
        <ele>1163.0</ele>
        <time>2014-05-17T12:14:43Z</time>
      </trkpt>
      <trkpt lat="40.244033" lon="-4.895200">
        <ele>1162.0</ele>
        <time>2014-05-17T12:14:44Z</time>
      </trkpt>
      <trkpt lat="40.244100" lon="-4.895217">
        <ele>1160.0</ele>
        <time>2014-05-17T12:14:45Z</time>
      </trkpt>
      <trkpt lat="40.244150" lon="-4.895200">
        <ele>1158.0</ele>
        <time>2014-05-17T12:14:46Z</time>
      </trkpt>
      <trkpt lat="40.244267" lon="-4.895200">
        <ele>1154.0</ele>
        <time>2014-05-17T12:14:49Z</time>
      </trkpt>
      <trkpt lat="40.244300" lon="-4.895200">
        <ele>1153.0</ele>
        <time>2014-05-17T12:14:50Z</time>
      </trkpt>
      <trkpt lat="40.244350" lon="-4.895200">
        <ele>1150.0</ele>
        <time>2014-05-17T12:14:51Z</time>
      </trkpt>
      <trkpt lat="40.244400" lon="-4.895183">
        <ele>1147.0</ele>
        <time>2014-05-17T12:14:52Z</time>
      </trkpt>
      <trkpt lat="40.244450" lon="-4.895167">
        <ele>1145.0</ele>
        <time>2014-05-17T12:14:53Z</time>
      </trkpt>
      <trkpt lat="40.244483" lon="-4.895133">
        <ele>1143.0</ele>
        <time>2014-05-17T12:14:54Z</time>
      </trkpt>
      <trkpt lat="40.244517" lon="-4.895100">
        <ele>1142.0</ele>
        <time>2014-05-17T12:14:55Z</time>
      </trkpt>
      <trkpt lat="40.244533" lon="-4.895050">
        <ele>1141.0</ele>
        <time>2014-05-17T12:14:56Z</time>
      </trkpt>
      <trkpt lat="40.244550" lon="-4.895000">
        <ele>1139.0</ele>
        <time>2014-05-17T12:14:57Z</time>
      </trkpt>
      <trkpt lat="40.244550" lon="-4.894950">
        <ele>1137.0</ele>
        <time>2014-05-17T12:14:58Z</time>
      </trkpt>
      <trkpt lat="40.244550" lon="-4.894883">
        <ele>1136.0</ele>
        <time>2014-05-17T12:14:59Z</time>
      </trkpt>
      <trkpt lat="40.244550" lon="-4.894817">
        <ele>1134.0</ele>
        <time>2014-05-17T12:15:00Z</time>
      </trkpt>
      <trkpt lat="40.244533" lon="-4.894733">
        <ele>1133.0</ele>
        <time>2014-05-17T12:15:01Z</time>
      </trkpt>
      <trkpt lat="40.244517" lon="-4.894667">
        <ele>1133.0</ele>
        <time>2014-05-17T12:15:02Z</time>
      </trkpt>
      <trkpt lat="40.244517" lon="-4.894617">
        <ele>1132.0</ele>
        <time>2014-05-17T12:15:03Z</time>
      </trkpt>
      <trkpt lat="40.244517" lon="-4.894567">
        <ele>1132.0</ele>
        <time>2014-05-17T12:15:04Z</time>
      </trkpt>
      <trkpt lat="40.244533" lon="-4.894517">
        <ele>1132.0</ele>
        <time>2014-05-17T12:15:05Z</time>
      </trkpt>
      <trkpt lat="40.244533" lon="-4.894467">
        <ele>1131.0</ele>
        <time>2014-05-17T12:15:06Z</time>
      </trkpt>
      <trkpt lat="40.244517" lon="-4.894417">
        <ele>1130.0</ele>
        <time>2014-05-17T12:15:07Z</time>
      </trkpt>
      <trkpt lat="40.244500" lon="-4.894300">
        <ele>1127.0</ele>
        <time>2014-05-17T12:15:09Z</time>
      </trkpt>
      <trkpt lat="40.244500" lon="-4.894250">
        <ele>1126.0</ele>
        <time>2014-05-17T12:15:10Z</time>
      </trkpt>
      <trkpt lat="40.244483" lon="-4.894183">
        <ele>1124.0</ele>
        <time>2014-05-17T12:15:11Z</time>
      </trkpt>
      <trkpt lat="40.244483" lon="-4.894133">
        <ele>1123.0</ele>
        <time>2014-05-17T12:15:12Z</time>
      </trkpt>
      <trkpt lat="40.244483" lon="-4.894083">
        <ele>1122.0</ele>
        <time>2014-05-17T12:15:13Z</time>
      </trkpt>
      <trkpt lat="40.244483" lon="-4.894033">
        <ele>1121.0</ele>
        <time>2014-05-17T12:15:14Z</time>
      </trkpt>
      <trkpt lat="40.244500" lon="-4.893983">
        <ele>1120.0</ele>
        <time>2014-05-17T12:15:15Z</time>
      </trkpt>
      <trkpt lat="40.244500" lon="-4.893933">
        <ele>1119.0</ele>
        <time>2014-05-17T12:15:16Z</time>
      </trkpt>
      <trkpt lat="40.244517" lon="-4.893900">
        <ele>1119.0</ele>
        <time>2014-05-17T12:15:17Z</time>
      </trkpt>
      <trkpt lat="40.244550" lon="-4.893867">
        <ele>1119.0</ele>
        <time>2014-05-17T12:15:18Z</time>
      </trkpt>
      <trkpt lat="40.244583" lon="-4.893833">
        <ele>1120.0</ele>
        <time>2014-05-17T12:15:19Z</time>
      </trkpt>
      <trkpt lat="40.244600" lon="-4.893817">
        <ele>1120.0</ele>
        <time>2014-05-17T12:15:20Z</time>
      </trkpt>
      <trkpt lat="40.244617" lon="-4.893783">
        <ele>1123.0</ele>
        <time>2014-05-17T12:15:21Z</time>
      </trkpt>
      <trkpt lat="40.244633" lon="-4.893767">
        <ele>1125.0</ele>
        <time>2014-05-17T12:15:22Z</time>
      </trkpt>
      <trkpt lat="40.244633" lon="-4.893750">
        <ele>1126.0</ele>
        <time>2014-05-17T12:15:23Z</time>
      </trkpt>
      <trkpt lat="40.244617" lon="-4.893717">
        <ele>1128.0</ele>
        <time>2014-05-17T12:15:24Z</time>
      </trkpt>
      <trkpt lat="40.244567" lon="-4.893700">
        <ele>1129.0</ele>
        <time>2014-05-17T12:15:25Z</time>
      </trkpt>
      <trkpt lat="40.244483" lon="-4.893717">
        <ele>1130.0</ele>
        <time>2014-05-17T12:15:26Z</time>
      </trkpt>
      <trkpt lat="40.244400" lon="-4.893767">
        <ele>1131.0</ele>
        <time>2014-05-17T12:15:27Z</time>
      </trkpt>
      <trkpt lat="40.244317" lon="-4.893867">
        <ele>1133.0</ele>
        <time>2014-05-17T12:15:28Z</time>
      </trkpt>
      <trkpt lat="40.244250" lon="-4.894000">
        <ele>1135.0</ele>
        <time>2014-05-17T12:15:29Z</time>
      </trkpt>
      <trkpt lat="40.244233" lon="-4.894150">
        <ele>1137.0</ele>
        <time>2014-05-17T12:15:30Z</time>
      </trkpt>
      <trkpt lat="40.244217" lon="-4.894283">
        <ele>1138.0</ele>
        <time>2014-05-17T12:15:31Z</time>
      </trkpt>
      <trkpt lat="40.244200" lon="-4.894400">
        <ele>1140.0</ele>
        <time>2014-05-17T12:15:32Z</time>
      </trkpt>
      <trkpt lat="40.244183" lon="-4.894533">
        <ele>1141.0</ele>
        <time>2014-05-17T12:15:33Z</time>
      </trkpt>
      <trkpt lat="40.244183" lon="-4.894683">
        <ele>1142.0</ele>
        <time>2014-05-17T12:15:34Z</time>
      </trkpt>
      <trkpt lat="40.244167" lon="-4.894850">
        <ele>1141.0</ele>
        <time>2014-05-17T12:15:35Z</time>
      </trkpt>
      <trkpt lat="40.244150" lon="-4.894983">
        <ele>1141.0</ele>
        <time>2014-05-17T12:15:36Z</time>
      </trkpt>
      <trkpt lat="40.244100" lon="-4.895117">
        <ele>1140.0</ele>
        <time>2014-05-17T12:15:37Z</time>
      </trkpt>
      <trkpt lat="40.244017" lon="-4.895217">
        <ele>1138.0</ele>
        <time>2014-05-17T12:15:38Z</time>
      </trkpt>
      <trkpt lat="40.243933" lon="-4.895317">
        <ele>1136.0</ele>
        <time>2014-05-17T12:15:39Z</time>
      </trkpt>
      <trkpt lat="40.243850" lon="-4.895400">
        <ele>1134.0</ele>
        <time>2014-05-17T12:15:40Z</time>
      </trkpt>
      <trkpt lat="40.243750" lon="-4.895450">
        <ele>1133.0</ele>
        <time>2014-05-17T12:15:41Z</time>
      </trkpt>
      <trkpt lat="40.243667" lon="-4.895483">
        <ele>1131.0</ele>
        <time>2014-05-17T12:15:42Z</time>
      </trkpt>
      <trkpt lat="40.243583" lon="-4.895500">
        <ele>1130.0</ele>
        <time>2014-05-17T12:15:43Z</time>
      </trkpt>
      <trkpt lat="40.243517" lon="-4.895483">
        <ele>1129.0</ele>
        <time>2014-05-17T12:15:44Z</time>
      </trkpt>
      <trkpt lat="40.243450" lon="-4.895433">
        <ele>1127.0</ele>
        <time>2014-05-17T12:15:45Z</time>
      </trkpt>
      <trkpt lat="40.243417" lon="-4.895383">
        <ele>1126.0</ele>
        <time>2014-05-17T12:15:46Z</time>
      </trkpt>
      <trkpt lat="40.243383" lon="-4.895333">
        <ele>1124.0</ele>
        <time>2014-05-17T12:15:47Z</time>
      </trkpt>
      <trkpt lat="40.243367" lon="-4.895283">
        <ele>1123.0</ele>
        <time>2014-05-17T12:15:48Z</time>
      </trkpt>
      <trkpt lat="40.243333" lon="-4.895250">
        <ele>1121.0</ele>
        <time>2014-05-17T12:15:49Z</time>
      </trkpt>
      <trkpt lat="40.243317" lon="-4.895200">
        <ele>1120.0</ele>
        <time>2014-05-17T12:15:50Z</time>
      </trkpt>
      <trkpt lat="40.243300" lon="-4.895167">
        <ele>1117.0</ele>
        <time>2014-05-17T12:15:51Z</time>
      </trkpt>
      <trkpt lat="40.243267" lon="-4.895117">
        <ele>1115.0</ele>
        <time>2014-05-17T12:15:52Z</time>
      </trkpt>
      <trkpt lat="40.243200" lon="-4.895083">
        <ele>1113.0</ele>
        <time>2014-05-17T12:15:53Z</time>
      </trkpt>
      <trkpt lat="40.243133" lon="-4.895050">
        <ele>1110.0</ele>
        <time>2014-05-17T12:15:54Z</time>
      </trkpt>
      <trkpt lat="40.243050" lon="-4.895033">
        <ele>1108.0</ele>
        <time>2014-05-17T12:15:55Z</time>
      </trkpt>
      <trkpt lat="40.242983" lon="-4.895033">
        <ele>1107.0</ele>
        <time>2014-05-17T12:15:56Z</time>
      </trkpt>
      <trkpt lat="40.242900" lon="-4.895050">
        <ele>1106.0</ele>
        <time>2014-05-17T12:15:57Z</time>
      </trkpt>
      <trkpt lat="40.242817" lon="-4.895067">
        <ele>1105.0</ele>
        <time>2014-05-17T12:15:58Z</time>
      </trkpt>
      <trkpt lat="40.242733" lon="-4.895083">
        <ele>1104.0</ele>
        <time>2014-05-17T12:15:59Z</time>
      </trkpt>
      <trkpt lat="40.242650" lon="-4.895117">
        <ele>1104.0</ele>
        <time>2014-05-17T12:16:00Z</time>
      </trkpt>
      <trkpt lat="40.242567" lon="-4.895150">
        <ele>1103.0</ele>
        <time>2014-05-17T12:16:01Z</time>
      </trkpt>
      <trkpt lat="40.242467" lon="-4.895167">
        <ele>1102.0</ele>
        <time>2014-05-17T12:16:02Z</time>
      </trkpt>
      <trkpt lat="40.242367" lon="-4.895217">
        <ele>1101.0</ele>
        <time>2014-05-17T12:16:03Z</time>
      </trkpt>
      <trkpt lat="40.242283" lon="-4.895267">
        <ele>1100.0</ele>
        <time>2014-05-17T12:16:04Z</time>
      </trkpt>
      <trkpt lat="40.242200" lon="-4.895317">
        <ele>1099.0</ele>
        <time>2014-05-17T12:16:05Z</time>
      </trkpt>
      <trkpt lat="40.242117" lon="-4.895367">
        <ele>1097.0</ele>
        <time>2014-05-17T12:16:06Z</time>
      </trkpt>
      <trkpt lat="40.242017" lon="-4.895433">
        <ele>1094.0</ele>
        <time>2014-05-17T12:16:07Z</time>
      </trkpt>
      <trkpt lat="40.241917" lon="-4.895483">
        <ele>1091.0</ele>
        <time>2014-05-17T12:16:08Z</time>
      </trkpt>
      <trkpt lat="40.241817" lon="-4.895567">
        <ele>1089.0</ele>
        <time>2014-05-17T12:16:09Z</time>
      </trkpt>
      <trkpt lat="40.241717" lon="-4.895633">
        <ele>1088.0</ele>
        <time>2014-05-17T12:16:10Z</time>
      </trkpt>
      <trkpt lat="40.241633" lon="-4.895700">
        <ele>1087.0</ele>
        <time>2014-05-17T12:16:11Z</time>
      </trkpt>
      <trkpt lat="40.241550" lon="-4.895767">
        <ele>1085.0</ele>
        <time>2014-05-17T12:16:12Z</time>
      </trkpt>
      <trkpt lat="40.241467" lon="-4.895833">
        <ele>1084.0</ele>
        <time>2014-05-17T12:16:13Z</time>
      </trkpt>
      <trkpt lat="40.241367" lon="-4.895900">
        <ele>1082.0</ele>
        <time>2014-05-17T12:16:14Z</time>
      </trkpt>
      <trkpt lat="40.241267" lon="-4.895983">
        <ele>1079.0</ele>
        <time>2014-05-17T12:16:15Z</time>
      </trkpt>
      <trkpt lat="40.241167" lon="-4.896050">
        <ele>1077.0</ele>
        <time>2014-05-17T12:16:16Z</time>
      </trkpt>
      <trkpt lat="40.241067" lon="-4.896133">
        <ele>1077.0</ele>
        <time>2014-05-17T12:16:17Z</time>
      </trkpt>
      <trkpt lat="40.240983" lon="-4.896183">
        <ele>1076.0</ele>
        <time>2014-05-17T12:16:18Z</time>
      </trkpt>
      <trkpt lat="40.240900" lon="-4.896250">
        <ele>1076.0</ele>
        <time>2014-05-17T12:16:19Z</time>
      </trkpt>
      <trkpt lat="40.240800" lon="-4.896317">
        <ele>1074.0</ele>
        <time>2014-05-17T12:16:20Z</time>
      </trkpt>
      <trkpt lat="40.240717" lon="-4.896400">
        <ele>1072.0</ele>
        <time>2014-05-17T12:16:21Z</time>
      </trkpt>
      <trkpt lat="40.240633" lon="-4.896483">
        <ele>1071.0</ele>
        <time>2014-05-17T12:16:22Z</time>
      </trkpt>
      <trkpt lat="40.240550" lon="-4.896600">
        <ele>1070.0</ele>
        <time>2014-05-17T12:16:23Z</time>
      </trkpt>
      <trkpt lat="40.240467" lon="-4.896700">
        <ele>1068.0</ele>
        <time>2014-05-17T12:16:24Z</time>
      </trkpt>
      <trkpt lat="40.240383" lon="-4.896800">
        <ele>1066.0</ele>
        <time>2014-05-17T12:16:25Z</time>
      </trkpt>
      <trkpt lat="40.240283" lon="-4.896900">
        <ele>1063.0</ele>
        <time>2014-05-17T12:16:26Z</time>
      </trkpt>
      <trkpt lat="40.240183" lon="-4.897017">
        <ele>1060.0</ele>
        <time>2014-05-17T12:16:27Z</time>
      </trkpt>
      <trkpt lat="40.240067" lon="-4.897117">
        <ele>1057.0</ele>
        <time>2014-05-17T12:16:28Z</time>
      </trkpt>
      <trkpt lat="40.239950" lon="-4.897233">
        <ele>1055.0</ele>
        <time>2014-05-17T12:16:29Z</time>
      </trkpt>
      <trkpt lat="40.239833" lon="-4.897333">
        <ele>1054.0</ele>
        <time>2014-05-17T12:16:30Z</time>
      </trkpt>
      <trkpt lat="40.239717" lon="-4.897433">
        <ele>1056.0</ele>
        <time>2014-05-17T12:16:31Z</time>
      </trkpt>
      <trkpt lat="40.239600" lon="-4.897500">
        <ele>1057.0</ele>
        <time>2014-05-17T12:16:32Z</time>
      </trkpt>
      <trkpt lat="40.239500" lon="-4.897567">
        <ele>1058.0</ele>
        <time>2014-05-17T12:16:33Z</time>
      </trkpt>
      <trkpt lat="40.239400" lon="-4.897617">
        <ele>1059.0</ele>
        <time>2014-05-17T12:16:34Z</time>
      </trkpt>
      <trkpt lat="40.239317" lon="-4.897667">
        <ele>1061.0</ele>
        <time>2014-05-17T12:16:35Z</time>
      </trkpt>
      <trkpt lat="40.239233" lon="-4.897733">
        <ele>1061.0</ele>
        <time>2014-05-17T12:16:36Z</time>
      </trkpt>
      <trkpt lat="40.239117" lon="-4.897800">
        <ele>1059.0</ele>
        <time>2014-05-17T12:16:37Z</time>
      </trkpt>
      <trkpt lat="40.239017" lon="-4.897883">
        <ele>1058.0</ele>
        <time>2014-05-17T12:16:38Z</time>
      </trkpt>
      <trkpt lat="40.238933" lon="-4.897983">
        <ele>1058.0</ele>
        <time>2014-05-17T12:16:39Z</time>
      </trkpt>
      <trkpt lat="40.238867" lon="-4.898100">
        <ele>1061.0</ele>
        <time>2014-05-17T12:16:40Z</time>
      </trkpt>
      <trkpt lat="40.238800" lon="-4.898233">
        <ele>1062.0</ele>
        <time>2014-05-17T12:16:41Z</time>
      </trkpt>
      <trkpt lat="40.238767" lon="-4.898367">
        <ele>1063.0</ele>
        <time>2014-05-17T12:16:42Z</time>
      </trkpt>
      <trkpt lat="40.238733" lon="-4.898483">
        <ele>1063.0</ele>
        <time>2014-05-17T12:16:43Z</time>
      </trkpt>
      <trkpt lat="40.238733" lon="-4.898633">
        <ele>1064.0</ele>
        <time>2014-05-17T12:16:44Z</time>
      </trkpt>
      <trkpt lat="40.238733" lon="-4.898767">
        <ele>1064.0</ele>
        <time>2014-05-17T12:16:45Z</time>
      </trkpt>
      <trkpt lat="40.238767" lon="-4.898900">
        <ele>1064.0</ele>
        <time>2014-05-17T12:16:46Z</time>
      </trkpt>
      <trkpt lat="40.238800" lon="-4.899017">
        <ele>1065.0</ele>
        <time>2014-05-17T12:16:47Z</time>
      </trkpt>
      <trkpt lat="40.238850" lon="-4.899100">
        <ele>1064.0</ele>
        <time>2014-05-17T12:16:48Z</time>
      </trkpt>
      <trkpt lat="40.238900" lon="-4.899183">
        <ele>1063.0</ele>
        <time>2014-05-17T12:16:49Z</time>
      </trkpt>
      <trkpt lat="40.238950" lon="-4.899300">
        <ele>1061.0</ele>
        <time>2014-05-17T12:16:50Z</time>
      </trkpt>
      <trkpt lat="40.238983" lon="-4.899433">
        <ele>1060.0</ele>
        <time>2014-05-17T12:16:51Z</time>
      </trkpt>
      <trkpt lat="40.238983" lon="-4.899583">
        <ele>1057.0</ele>
        <time>2014-05-17T12:16:52Z</time>
      </trkpt>
      <trkpt lat="40.238950" lon="-4.899733">
        <ele>1054.0</ele>
        <time>2014-05-17T12:16:53Z</time>
      </trkpt>
      <trkpt lat="40.238933" lon="-4.899883">
        <ele>1052.0</ele>
        <time>2014-05-17T12:16:54Z</time>
      </trkpt>
      <trkpt lat="40.238917" lon="-4.900033">
        <ele>1050.0</ele>
        <time>2014-05-17T12:16:55Z</time>
      </trkpt>
      <trkpt lat="40.238883" lon="-4.900183">
        <ele>1049.0</ele>
        <time>2014-05-17T12:16:56Z</time>
      </trkpt>
      <trkpt lat="40.238850" lon="-4.900333">
        <ele>1047.0</ele>
        <time>2014-05-17T12:16:57Z</time>
      </trkpt>
      <trkpt lat="40.238800" lon="-4.900500">
        <ele>1046.0</ele>
        <time>2014-05-17T12:16:58Z</time>
      </trkpt>
      <trkpt lat="40.238750" lon="-4.900667">
        <ele>1044.0</ele>
        <time>2014-05-17T12:16:59Z</time>
      </trkpt>
      <trkpt lat="40.238667" lon="-4.900800">
        <ele>1043.0</ele>
        <time>2014-05-17T12:17:00Z</time>
      </trkpt>
      <trkpt lat="40.238583" lon="-4.900933">
        <ele>1043.0</ele>
        <time>2014-05-17T12:17:01Z</time>
      </trkpt>
      <trkpt lat="40.238517" lon="-4.901050">
        <ele>1044.0</ele>
        <time>2014-05-17T12:17:02Z</time>
      </trkpt>
      <trkpt lat="40.238450" lon="-4.901150">
        <ele>1045.0</ele>
        <time>2014-05-17T12:17:03Z</time>
      </trkpt>
      <trkpt lat="40.238383" lon="-4.901267">
        <ele>1045.0</ele>
        <time>2014-05-17T12:17:04Z</time>
      </trkpt>
      <trkpt lat="40.238300" lon="-4.901400">
        <ele>1043.0</ele>
        <time>2014-05-17T12:17:05Z</time>
      </trkpt>
      <trkpt lat="40.238217" lon="-4.901517">
        <ele>1040.0</ele>
        <time>2014-05-17T12:17:06Z</time>
      </trkpt>
      <trkpt lat="40.238117" lon="-4.901633">
        <ele>1038.0</ele>
        <time>2014-05-17T12:17:07Z</time>
      </trkpt>
      <trkpt lat="40.238000" lon="-4.901733">
        <ele>1036.0</ele>
        <time>2014-05-17T12:17:08Z</time>
      </trkpt>
      <trkpt lat="40.237917" lon="-4.901817">
        <ele>1036.0</ele>
        <time>2014-05-17T12:17:09Z</time>
      </trkpt>
      <trkpt lat="40.237850" lon="-4.901900">
        <ele>1035.0</ele>
        <time>2014-05-17T12:17:10Z</time>
      </trkpt>
      <trkpt lat="40.237783" lon="-4.901983">
        <ele>1033.0</ele>
        <time>2014-05-17T12:17:11Z</time>
      </trkpt>
      <trkpt lat="40.237683" lon="-4.902067">
        <ele>1031.0</ele>
        <time>2014-05-17T12:17:12Z</time>
      </trkpt>
      <trkpt lat="40.237600" lon="-4.902167">
        <ele>1028.0</ele>
        <time>2014-05-17T12:17:13Z</time>
      </trkpt>
      <trkpt lat="40.237517" lon="-4.902267">
        <ele>1026.0</ele>
        <time>2014-05-17T12:17:14Z</time>
      </trkpt>
      <trkpt lat="40.237450" lon="-4.902350">
        <ele>1025.0</ele>
        <time>2014-05-17T12:17:15Z</time>
      </trkpt>
      <trkpt lat="40.237367" lon="-4.902450">
        <ele>1024.0</ele>
        <time>2014-05-17T12:17:16Z</time>
      </trkpt>
      <trkpt lat="40.237283" lon="-4.902533">
        <ele>1021.0</ele>
        <time>2014-05-17T12:17:17Z</time>
      </trkpt>
      <trkpt lat="40.237200" lon="-4.902600">
        <ele>1017.0</ele>
        <time>2014-05-17T12:17:18Z</time>
      </trkpt>
      <trkpt lat="40.237100" lon="-4.902700">
        <ele>1015.0</ele>
        <time>2014-05-17T12:17:19Z</time>
      </trkpt>
      <trkpt lat="40.237017" lon="-4.902800">
        <ele>1012.0</ele>
        <time>2014-05-17T12:17:20Z</time>
      </trkpt>
      <trkpt lat="40.236933" lon="-4.902900">
        <ele>1011.0</ele>
        <time>2014-05-17T12:17:21Z</time>
      </trkpt>
      <trkpt lat="40.236867" lon="-4.903000">
        <ele>1010.0</ele>
        <time>2014-05-17T12:17:22Z</time>
      </trkpt>
      <trkpt lat="40.236783" lon="-4.903083">
        <ele>1009.0</ele>
        <time>2014-05-17T12:17:23Z</time>
      </trkpt>
      <trkpt lat="40.236717" lon="-4.903167">
        <ele>1008.0</ele>
        <time>2014-05-17T12:17:24Z</time>
      </trkpt>
      <trkpt lat="40.236617" lon="-4.903233">
        <ele>1006.0</ele>
        <time>2014-05-17T12:17:25Z</time>
      </trkpt>
      <trkpt lat="40.236533" lon="-4.903300">
        <ele>1004.0</ele>
        <time>2014-05-17T12:17:26Z</time>
      </trkpt>
      <trkpt lat="40.236450" lon="-4.903350">
        <ele>1002.0</ele>
        <time>2014-05-17T12:17:27Z</time>
      </trkpt>
      <trkpt lat="40.236367" lon="-4.903367">
        <ele>1001.0</ele>
        <time>2014-05-17T12:17:28Z</time>
      </trkpt>
      <trkpt lat="40.236300" lon="-4.903400">
        <ele>999.0</ele>
        <time>2014-05-17T12:17:29Z</time>
      </trkpt>
      <trkpt lat="40.236217" lon="-4.903417">
        <ele>998.0</ele>
        <time>2014-05-17T12:17:30Z</time>
      </trkpt>
      <trkpt lat="40.236150" lon="-4.903450">
        <ele>997.0</ele>
        <time>2014-05-17T12:17:31Z</time>
      </trkpt>
      <trkpt lat="40.236067" lon="-4.903483">
        <ele>996.0</ele>
        <time>2014-05-17T12:17:32Z</time>
      </trkpt>
      <trkpt lat="40.236017" lon="-4.903500">
        <ele>995.0</ele>
        <time>2014-05-17T12:17:33Z</time>
      </trkpt>
      <trkpt lat="40.235950" lon="-4.903517">
        <ele>993.0</ele>
        <time>2014-05-17T12:17:34Z</time>
      </trkpt>
      <trkpt lat="40.235883" lon="-4.903533">
        <ele>992.0</ele>
        <time>2014-05-17T12:17:35Z</time>
      </trkpt>
      <trkpt lat="40.235817" lon="-4.903567">
        <ele>990.0</ele>
        <time>2014-05-17T12:17:36Z</time>
      </trkpt>
      <trkpt lat="40.235767" lon="-4.903600">
        <ele>989.0</ele>
        <time>2014-05-17T12:17:37Z</time>
      </trkpt>
      <trkpt lat="40.235700" lon="-4.903633">
        <ele>987.0</ele>
        <time>2014-05-17T12:17:38Z</time>
      </trkpt>
      <trkpt lat="40.235617" lon="-4.903667">
        <ele>984.0</ele>
        <time>2014-05-17T12:17:39Z</time>
      </trkpt>
      <trkpt lat="40.235550" lon="-4.903700">
        <ele>982.0</ele>
        <time>2014-05-17T12:17:40Z</time>
      </trkpt>
      <trkpt lat="40.235483" lon="-4.903733">
        <ele>980.0</ele>
        <time>2014-05-17T12:17:41Z</time>
      </trkpt>
      <trkpt lat="40.235400" lon="-4.903750">
        <ele>977.0</ele>
        <time>2014-05-17T12:17:42Z</time>
      </trkpt>
      <trkpt lat="40.235333" lon="-4.903767">
        <ele>975.0</ele>
        <time>2014-05-17T12:17:43Z</time>
      </trkpt>
      <trkpt lat="40.235267" lon="-4.903783">
        <ele>972.0</ele>
        <time>2014-05-17T12:17:44Z</time>
      </trkpt>
      <trkpt lat="40.235183" lon="-4.903783">
        <ele>968.0</ele>
        <time>2014-05-17T12:17:45Z</time>
      </trkpt>
      <trkpt lat="40.235083" lon="-4.903800">
        <ele>964.0</ele>
        <time>2014-05-17T12:17:46Z</time>
      </trkpt>
      <trkpt lat="40.235000" lon="-4.903800">
        <ele>961.0</ele>
        <time>2014-05-17T12:17:47Z</time>
      </trkpt>
      <trkpt lat="40.234917" lon="-4.903800">
        <ele>959.0</ele>
        <time>2014-05-17T12:17:48Z</time>
      </trkpt>
      <trkpt lat="40.234850" lon="-4.903800">
        <ele>958.0</ele>
        <time>2014-05-17T12:17:49Z</time>
      </trkpt>
      <trkpt lat="40.234783" lon="-4.903817">
        <ele>957.0</ele>
        <time>2014-05-17T12:17:50Z</time>
      </trkpt>
      <trkpt lat="40.234733" lon="-4.903833">
        <ele>957.0</ele>
        <time>2014-05-17T12:17:51Z</time>
      </trkpt>
      <trkpt lat="40.234650" lon="-4.903850">
        <ele>954.0</ele>
        <time>2014-05-17T12:17:52Z</time>
      </trkpt>
      <trkpt lat="40.234567" lon="-4.903883">
        <ele>951.0</ele>
        <time>2014-05-17T12:17:53Z</time>
      </trkpt>
      <trkpt lat="40.234483" lon="-4.903883">
        <ele>949.0</ele>
        <time>2014-05-17T12:17:54Z</time>
      </trkpt>
      <trkpt lat="40.234433" lon="-4.903900">
        <ele>948.0</ele>
        <time>2014-05-17T12:17:55Z</time>
      </trkpt>
      <trkpt lat="40.234383" lon="-4.903900">
        <ele>946.0</ele>
        <time>2014-05-17T12:17:56Z</time>
      </trkpt>
      <trkpt lat="40.234333" lon="-4.903917">
        <ele>944.0</ele>
        <time>2014-05-17T12:17:57Z</time>
      </trkpt>
      <trkpt lat="40.234267" lon="-4.903950">
        <ele>939.0</ele>
        <time>2014-05-17T12:17:58Z</time>
      </trkpt>
      <trkpt lat="40.234183" lon="-4.903967">
        <ele>934.0</ele>
        <time>2014-05-17T12:17:59Z</time>
      </trkpt>
      <trkpt lat="40.234100" lon="-4.903950">
        <ele>931.0</ele>
        <time>2014-05-17T12:18:00Z</time>
      </trkpt>
      <trkpt lat="40.234033" lon="-4.903950">
        <ele>929.0</ele>
        <time>2014-05-17T12:18:01Z</time>
      </trkpt>
      <trkpt lat="40.233967" lon="-4.903917">
        <ele>928.0</ele>
        <time>2014-05-17T12:18:02Z</time>
      </trkpt>
      <trkpt lat="40.233917" lon="-4.903883">
        <ele>926.0</ele>
        <time>2014-05-17T12:18:03Z</time>
      </trkpt>
      <trkpt lat="40.233883" lon="-4.903833">
        <ele>925.0</ele>
        <time>2014-05-17T12:18:04Z</time>
      </trkpt>
      <trkpt lat="40.233833" lon="-4.903783">
        <ele>923.0</ele>
        <time>2014-05-17T12:18:05Z</time>
      </trkpt>
      <trkpt lat="40.233800" lon="-4.903717">
        <ele>921.0</ele>
        <time>2014-05-17T12:18:06Z</time>
      </trkpt>
      <trkpt lat="40.233767" lon="-4.903650">
        <ele>919.0</ele>
        <time>2014-05-17T12:18:07Z</time>
      </trkpt>
      <trkpt lat="40.233750" lon="-4.903567">
        <ele>918.0</ele>
        <time>2014-05-17T12:18:08Z</time>
      </trkpt>
      <trkpt lat="40.233733" lon="-4.903483">
        <ele>916.0</ele>
        <time>2014-05-17T12:18:09Z</time>
      </trkpt>
      <trkpt lat="40.233717" lon="-4.903333">
        <ele>912.0</ele>
        <time>2014-05-17T12:18:11Z</time>
      </trkpt>
      <trkpt lat="40.233717" lon="-4.903250">
        <ele>911.0</ele>
        <time>2014-05-17T12:18:12Z</time>
      </trkpt>
      <trkpt lat="40.233700" lon="-4.903183">
        <ele>909.0</ele>
        <time>2014-05-17T12:18:13Z</time>
      </trkpt>
      <trkpt lat="40.233683" lon="-4.903100">
        <ele>908.0</ele>
        <time>2014-05-17T12:18:14Z</time>
      </trkpt>
      <trkpt lat="40.233667" lon="-4.903017">
        <ele>906.0</ele>
        <time>2014-05-17T12:18:15Z</time>
      </trkpt>
      <trkpt lat="40.233650" lon="-4.902933">
        <ele>904.0</ele>
        <time>2014-05-17T12:18:16Z</time>
      </trkpt>
      <trkpt lat="40.233633" lon="-4.902850">
        <ele>903.0</ele>
        <time>2014-05-17T12:18:17Z</time>
      </trkpt>
      <trkpt lat="40.233633" lon="-4.902767">
        <ele>902.0</ele>
        <time>2014-05-17T12:18:18Z</time>
      </trkpt>
      <trkpt lat="40.233617" lon="-4.902683">
        <ele>901.0</ele>
        <time>2014-05-17T12:18:19Z</time>
      </trkpt>
      <trkpt lat="40.233600" lon="-4.902600">
        <ele>900.0</ele>
        <time>2014-05-17T12:18:20Z</time>
      </trkpt>
      <trkpt lat="40.233600" lon="-4.902517">
        <ele>899.0</ele>
        <time>2014-05-17T12:18:21Z</time>
      </trkpt>
      <trkpt lat="40.233583" lon="-4.902333">
        <ele>897.0</ele>
        <time>2014-05-17T12:18:23Z</time>
      </trkpt>
      <trkpt lat="40.233600" lon="-4.902250">
        <ele>897.0</ele>
        <time>2014-05-17T12:18:24Z</time>
      </trkpt>
      <trkpt lat="40.233600" lon="-4.902167">
        <ele>898.0</ele>
        <time>2014-05-17T12:18:25Z</time>
      </trkpt>
      <trkpt lat="40.233600" lon="-4.902100">
        <ele>898.0</ele>
        <time>2014-05-17T12:18:26Z</time>
      </trkpt>
      <trkpt lat="40.233583" lon="-4.902000">
        <ele>898.0</ele>
        <time>2014-05-17T12:18:27Z</time>
      </trkpt>
      <trkpt lat="40.233583" lon="-4.901917">
        <ele>899.0</ele>
        <time>2014-05-17T12:18:28Z</time>
      </trkpt>
      <trkpt lat="40.233567" lon="-4.901850">
        <ele>901.0</ele>
        <time>2014-05-17T12:18:29Z</time>
      </trkpt>
      <trkpt lat="40.233567" lon="-4.901767">
        <ele>903.0</ele>
        <time>2014-05-17T12:18:30Z</time>
      </trkpt>
      <trkpt lat="40.233567" lon="-4.901617">
        <ele>906.0</ele>
        <time>2014-05-17T12:18:32Z</time>
      </trkpt>
      <trkpt lat="40.233567" lon="-4.901450">
        <ele>909.0</ele>
        <time>2014-05-17T12:18:34Z</time>
      </trkpt>
      <trkpt lat="40.233550" lon="-4.901383">
        <ele>910.0</ele>
        <time>2014-05-17T12:18:35Z</time>
      </trkpt>
      <trkpt lat="40.233567" lon="-4.901200">
        <ele>917.0</ele>
        <time>2014-05-17T12:18:38Z</time>
      </trkpt>
      <trkpt lat="40.233583" lon="-4.901167">
        <ele>918.0</ele>
        <time>2014-05-17T12:18:39Z</time>
      </trkpt>
      <trkpt lat="40.233567" lon="-4.901067">
        <ele>920.0</ele>
        <time>2014-05-17T12:18:41Z</time>
      </trkpt>
      <trkpt lat="40.233533" lon="-4.901033">
        <ele>918.0</ele>
        <time>2014-05-17T12:18:42Z</time>
      </trkpt>
      <trkpt lat="40.233533" lon="-4.900983">
        <ele>918.0</ele>
        <time>2014-05-17T12:18:43Z</time>
      </trkpt>
      <trkpt lat="40.233550" lon="-4.900933">
        <ele>917.0</ele>
        <time>2014-05-17T12:18:44Z</time>
      </trkpt>
      <trkpt lat="40.233583" lon="-4.900900">
        <ele>915.0</ele>
        <time>2014-05-17T12:18:45Z</time>
      </trkpt>
      <trkpt lat="40.233600" lon="-4.900850">
        <ele>914.0</ele>
        <time>2014-05-17T12:18:46Z</time>
      </trkpt>
      <trkpt lat="40.233617" lon="-4.900800">
        <ele>913.0</ele>
        <time>2014-05-17T12:18:47Z</time>
      </trkpt>
      <trkpt lat="40.233617" lon="-4.900733">
        <ele>912.0</ele>
        <time>2014-05-17T12:18:48Z</time>
      </trkpt>
      <trkpt lat="40.233633" lon="-4.900683">
        <ele>910.0</ele>
        <time>2014-05-17T12:18:49Z</time>
      </trkpt>
      <trkpt lat="40.233633" lon="-4.900650">
        <ele>908.0</ele>
        <time>2014-05-17T12:18:50Z</time>
      </trkpt>
      <trkpt lat="40.233650" lon="-4.900583">
        <ele>905.0</ele>
        <time>2014-05-17T12:18:52Z</time>
      </trkpt>
      <trkpt lat="40.233667" lon="-4.900533">
        <ele>902.0</ele>
        <time>2014-05-17T12:18:54Z</time>
      </trkpt>
      <trkpt lat="40.233700" lon="-4.900467">
        <ele>904.0</ele>
        <time>2014-05-17T12:18:56Z</time>
      </trkpt>
      <trkpt lat="40.233717" lon="-4.900400">
        <ele>901.0</ele>
        <time>2014-05-17T12:18:59Z</time>
      </trkpt>
      <trkpt lat="40.233700" lon="-4.900400">
        <ele>900.0</ele>
        <time>2014-05-17T12:19:00Z</time>
      </trkpt>
      <trkpt lat="40.233667" lon="-4.900400">
        <ele>898.0</ele>
        <time>2014-05-17T12:19:01Z</time>
      </trkpt>
      <trkpt lat="40.233617" lon="-4.900400">
        <ele>896.0</ele>
        <time>2014-05-17T12:19:02Z</time>
      </trkpt>
      <trkpt lat="40.233567" lon="-4.900433">
        <ele>895.0</ele>
        <time>2014-05-17T12:19:03Z</time>
      </trkpt>
      <trkpt lat="40.233517" lon="-4.900467">
        <ele>895.0</ele>
        <time>2014-05-17T12:19:04Z</time>
      </trkpt>
      <trkpt lat="40.233483" lon="-4.900517">
        <ele>895.0</ele>
        <time>2014-05-17T12:19:05Z</time>
      </trkpt>
      <trkpt lat="40.233433" lon="-4.900550">
        <ele>894.0</ele>
        <time>2014-05-17T12:19:06Z</time>
      </trkpt>
      <trkpt lat="40.233400" lon="-4.900567">
        <ele>893.0</ele>
        <time>2014-05-17T12:19:07Z</time>
      </trkpt>
      <trkpt lat="40.233350" lon="-4.900567">
        <ele>892.0</ele>
        <time>2014-05-17T12:19:08Z</time>
      </trkpt>
      <trkpt lat="40.233317" lon="-4.900583">
        <ele>889.0</ele>
        <time>2014-05-17T12:19:09Z</time>
      </trkpt>
      <trkpt lat="40.233250" lon="-4.900617">
        <ele>886.0</ele>
        <time>2014-05-17T12:19:10Z</time>
      </trkpt>
      <trkpt lat="40.233183" lon="-4.900667">
        <ele>883.0</ele>
        <time>2014-05-17T12:19:11Z</time>
      </trkpt>
      <trkpt lat="40.233117" lon="-4.900700">
        <ele>881.0</ele>
        <time>2014-05-17T12:19:12Z</time>
      </trkpt>
      <trkpt lat="40.233067" lon="-4.900750">
        <ele>880.0</ele>
        <time>2014-05-17T12:19:13Z</time>
      </trkpt>
      <trkpt lat="40.233017" lon="-4.900767">
        <ele>879.0</ele>
        <time>2014-05-17T12:19:14Z</time>
      </trkpt>
      <trkpt lat="40.232967" lon="-4.900783">
        <ele>877.0</ele>
        <time>2014-05-17T12:19:15Z</time>
      </trkpt>
      <trkpt lat="40.232900" lon="-4.900800">
        <ele>875.0</ele>
        <time>2014-05-17T12:19:16Z</time>
      </trkpt>
      <trkpt lat="40.232817" lon="-4.900817">
        <ele>874.0</ele>
        <time>2014-05-17T12:19:17Z</time>
      </trkpt>
      <trkpt lat="40.232750" lon="-4.900833">
        <ele>874.0</ele>
        <time>2014-05-17T12:19:18Z</time>
      </trkpt>
      <trkpt lat="40.232700" lon="-4.900850">
        <ele>875.0</ele>
        <time>2014-05-17T12:19:19Z</time>
      </trkpt>
      <trkpt lat="40.232650" lon="-4.900883">
        <ele>877.0</ele>
        <time>2014-05-17T12:19:20Z</time>
      </trkpt>
      <trkpt lat="40.232600" lon="-4.900917">
        <ele>878.0</ele>
        <time>2014-05-17T12:19:21Z</time>
      </trkpt>
      <trkpt lat="40.232533" lon="-4.900967">
        <ele>879.0</ele>
        <time>2014-05-17T12:19:22Z</time>
      </trkpt>
      <trkpt lat="40.232483" lon="-4.901050">
        <ele>879.0</ele>
        <time>2014-05-17T12:19:23Z</time>
      </trkpt>
      <trkpt lat="40.232417" lon="-4.901150">
        <ele>879.0</ele>
        <time>2014-05-17T12:19:24Z</time>
      </trkpt>
      <trkpt lat="40.232367" lon="-4.901283">
        <ele>879.0</ele>
        <time>2014-05-17T12:19:25Z</time>
      </trkpt>
      <trkpt lat="40.232317" lon="-4.901417">
        <ele>880.0</ele>
        <time>2014-05-17T12:19:26Z</time>
      </trkpt>
      <trkpt lat="40.232300" lon="-4.901567">
        <ele>881.0</ele>
        <time>2014-05-17T12:19:27Z</time>
      </trkpt>
      <trkpt lat="40.232300" lon="-4.901700">
        <ele>882.0</ele>
        <time>2014-05-17T12:19:28Z</time>
      </trkpt>
      <trkpt lat="40.232317" lon="-4.901833">
        <ele>884.0</ele>
        <time>2014-05-17T12:19:29Z</time>
      </trkpt>
      <trkpt lat="40.232367" lon="-4.901933">
        <ele>885.0</ele>
        <time>2014-05-17T12:19:30Z</time>
      </trkpt>
      <trkpt lat="40.232433" lon="-4.902033">
        <ele>885.0</ele>
        <time>2014-05-17T12:19:31Z</time>
      </trkpt>
      <trkpt lat="40.232500" lon="-4.902117">
        <ele>885.0</ele>
        <time>2014-05-17T12:19:32Z</time>
      </trkpt>
      <trkpt lat="40.232567" lon="-4.902200">
        <ele>885.0</ele>
        <time>2014-05-17T12:19:33Z</time>
      </trkpt>
      <trkpt lat="40.232633" lon="-4.902267">
        <ele>886.0</ele>
        <time>2014-05-17T12:19:34Z</time>
      </trkpt>
      <trkpt lat="40.232717" lon="-4.902333">
        <ele>887.0</ele>
        <time>2014-05-17T12:19:35Z</time>
      </trkpt>
      <trkpt lat="40.232783" lon="-4.902350">
        <ele>886.0</ele>
        <time>2014-05-17T12:19:36Z</time>
      </trkpt>
      <trkpt lat="40.232850" lon="-4.902333">
        <ele>886.0</ele>
        <time>2014-05-17T12:19:37Z</time>
      </trkpt>
      <trkpt lat="40.232900" lon="-4.902300">
        <ele>885.0</ele>
        <time>2014-05-17T12:19:38Z</time>
      </trkpt>
      <trkpt lat="40.232933" lon="-4.902267">
        <ele>885.0</ele>
        <time>2014-05-17T12:19:39Z</time>
      </trkpt>
      <trkpt lat="40.232933" lon="-4.902233">
        <ele>884.0</ele>
        <time>2014-05-17T12:19:40Z</time>
      </trkpt>
      <trkpt lat="40.232933" lon="-4.902200">
        <ele>884.0</ele>
        <time>2014-05-17T12:19:41Z</time>
      </trkpt>
      <trkpt lat="40.232933" lon="-4.902150">
        <ele>883.0</ele>
        <time>2014-05-17T12:19:42Z</time>
      </trkpt>
      <trkpt lat="40.232933" lon="-4.902117">
        <ele>883.0</ele>
        <time>2014-05-17T12:19:43Z</time>
      </trkpt>
      <trkpt lat="40.232883" lon="-4.902083">
        <ele>883.0</ele>
        <time>2014-05-17T12:19:45Z</time>
      </trkpt>
      <trkpt lat="40.232833" lon="-4.902100">
        <ele>884.0</ele>
        <time>2014-05-17T12:19:46Z</time>
      </trkpt>
      <trkpt lat="40.232783" lon="-4.902100">
        <ele>884.0</ele>
        <time>2014-05-17T12:19:47Z</time>
      </trkpt>
      <trkpt lat="40.232717" lon="-4.902083">
        <ele>885.0</ele>
        <time>2014-05-17T12:19:48Z</time>
      </trkpt>
      <trkpt lat="40.232667" lon="-4.902100">
        <ele>887.0</ele>
        <time>2014-05-17T12:19:49Z</time>
      </trkpt>
      <trkpt lat="40.232617" lon="-4.902133">
        <ele>889.0</ele>
        <time>2014-05-17T12:19:50Z</time>
      </trkpt>
      <trkpt lat="40.232550" lon="-4.902167">
        <ele>890.0</ele>
        <time>2014-05-17T12:19:51Z</time>
      </trkpt>
      <trkpt lat="40.232467" lon="-4.902200">
        <ele>890.0</ele>
        <time>2014-05-17T12:19:52Z</time>
      </trkpt>
      <trkpt lat="40.232367" lon="-4.902233">
        <ele>890.0</ele>
        <time>2014-05-17T12:19:53Z</time>
      </trkpt>
      <trkpt lat="40.232300" lon="-4.902267">
        <ele>892.0</ele>
        <time>2014-05-17T12:19:54Z</time>
      </trkpt>
      <trkpt lat="40.232233" lon="-4.902317">
        <ele>895.0</ele>
        <time>2014-05-17T12:19:55Z</time>
      </trkpt>
      <trkpt lat="40.232167" lon="-4.902383">
        <ele>897.0</ele>
        <time>2014-05-17T12:19:56Z</time>
      </trkpt>
      <trkpt lat="40.232100" lon="-4.902467">
        <ele>899.0</ele>
        <time>2014-05-17T12:19:57Z</time>
      </trkpt>
      <trkpt lat="40.232033" lon="-4.902567">
        <ele>900.0</ele>
        <time>2014-05-17T12:19:58Z</time>
      </trkpt>
      <trkpt lat="40.231983" lon="-4.902683">
        <ele>902.0</ele>
        <time>2014-05-17T12:19:59Z</time>
      </trkpt>
      <trkpt lat="40.231933" lon="-4.902800">
        <ele>905.0</ele>
        <time>2014-05-17T12:20:00Z</time>
      </trkpt>
      <trkpt lat="40.231917" lon="-4.902933">
        <ele>907.0</ele>
        <time>2014-05-17T12:20:01Z</time>
      </trkpt>
      <trkpt lat="40.231933" lon="-4.903067">
        <ele>908.0</ele>
        <time>2014-05-17T12:20:02Z</time>
      </trkpt>
      <trkpt lat="40.231967" lon="-4.903183">
        <ele>909.0</ele>
        <time>2014-05-17T12:20:03Z</time>
      </trkpt>
      <trkpt lat="40.232017" lon="-4.903283">
        <ele>911.0</ele>
        <time>2014-05-17T12:20:04Z</time>
      </trkpt>
      <trkpt lat="40.232083" lon="-4.903350">
        <ele>911.0</ele>
        <time>2014-05-17T12:20:05Z</time>
      </trkpt>
      <trkpt lat="40.232217" lon="-4.903433">
        <ele>913.0</ele>
        <time>2014-05-17T12:20:07Z</time>
      </trkpt>
      <trkpt lat="40.232283" lon="-4.903433">
        <ele>914.0</ele>
        <time>2014-05-17T12:20:08Z</time>
      </trkpt>
      <trkpt lat="40.232350" lon="-4.903417">
        <ele>915.0</ele>
        <time>2014-05-17T12:20:09Z</time>
      </trkpt>
      <trkpt lat="40.232417" lon="-4.903350">
        <ele>921.0</ele>
        <time>2014-05-17T12:20:11Z</time>
      </trkpt>
      <trkpt lat="40.232417" lon="-4.903333">
        <ele>919.0</ele>
        <time>2014-05-17T12:20:12Z</time>
      </trkpt>
      <trkpt lat="40.232433" lon="-4.903300">
        <ele>920.0</ele>
        <time>2014-05-17T12:20:13Z</time>
      </trkpt>
      <trkpt lat="40.232417" lon="-4.903267">
        <ele>921.0</ele>
        <time>2014-05-17T12:20:14Z</time>
      </trkpt>
      <trkpt lat="40.232400" lon="-4.903217">
        <ele>922.0</ele>
        <time>2014-05-17T12:20:15Z</time>
      </trkpt>
      <trkpt lat="40.232367" lon="-4.903167">
        <ele>922.0</ele>
        <time>2014-05-17T12:20:16Z</time>
      </trkpt>
      <trkpt lat="40.232317" lon="-4.903150">
        <ele>923.0</ele>
        <time>2014-05-17T12:20:17Z</time>
      </trkpt>
      <trkpt lat="40.232250" lon="-4.903133">
        <ele>924.0</ele>
        <time>2014-05-17T12:20:18Z</time>
      </trkpt>
      <trkpt lat="40.232183" lon="-4.903150">
        <ele>927.0</ele>
        <time>2014-05-17T12:20:19Z</time>
      </trkpt>
      <trkpt lat="40.232117" lon="-4.903150">
        <ele>930.0</ele>
        <time>2014-05-17T12:20:20Z</time>
      </trkpt>
      <trkpt lat="40.232067" lon="-4.903183">
        <ele>933.0</ele>
        <time>2014-05-17T12:20:21Z</time>
      </trkpt>
      <trkpt lat="40.232017" lon="-4.903233">
        <ele>937.0</ele>
        <time>2014-05-17T12:20:22Z</time>
      </trkpt>
      <trkpt lat="40.231950" lon="-4.903300">
        <ele>938.0</ele>
        <time>2014-05-17T12:20:23Z</time>
      </trkpt>
      <trkpt lat="40.231900" lon="-4.903367">
        <ele>939.0</ele>
        <time>2014-05-17T12:20:24Z</time>
      </trkpt>
      <trkpt lat="40.231850" lon="-4.903450">
        <ele>940.0</ele>
        <time>2014-05-17T12:20:25Z</time>
      </trkpt>
      <trkpt lat="40.231800" lon="-4.903533">
        <ele>943.0</ele>
        <time>2014-05-17T12:20:26Z</time>
      </trkpt>
      <trkpt lat="40.231783" lon="-4.903633">
        <ele>945.0</ele>
        <time>2014-05-17T12:20:27Z</time>
      </trkpt>
      <trkpt lat="40.231767" lon="-4.903750">
        <ele>946.0</ele>
        <time>2014-05-17T12:20:28Z</time>
      </trkpt>
      <trkpt lat="40.231750" lon="-4.903883">
        <ele>947.0</ele>
        <time>2014-05-17T12:20:29Z</time>
      </trkpt>
      <trkpt lat="40.231733" lon="-4.904033">
        <ele>947.0</ele>
        <time>2014-05-17T12:20:30Z</time>
      </trkpt>
      <trkpt lat="40.231733" lon="-4.904167">
        <ele>948.0</ele>
        <time>2014-05-17T12:20:31Z</time>
      </trkpt>
      <trkpt lat="40.231767" lon="-4.904300">
        <ele>949.0</ele>
        <time>2014-05-17T12:20:32Z</time>
      </trkpt>
      <trkpt lat="40.231800" lon="-4.904417">
        <ele>951.0</ele>
        <time>2014-05-17T12:20:33Z</time>
      </trkpt>
      <trkpt lat="40.231850" lon="-4.904500">
        <ele>952.0</ele>
        <time>2014-05-17T12:20:34Z</time>
      </trkpt>
      <trkpt lat="40.231917" lon="-4.904583">
        <ele>953.0</ele>
        <time>2014-05-17T12:20:35Z</time>
      </trkpt>
      <trkpt lat="40.231983" lon="-4.904633">
        <ele>955.0</ele>
        <time>2014-05-17T12:20:36Z</time>
      </trkpt>
      <trkpt lat="40.232067" lon="-4.904667">
        <ele>957.0</ele>
        <time>2014-05-17T12:20:37Z</time>
      </trkpt>
      <trkpt lat="40.232183" lon="-4.904650">
        <ele>961.0</ele>
        <time>2014-05-17T12:20:39Z</time>
      </trkpt>
      <trkpt lat="40.232233" lon="-4.904650">
        <ele>965.0</ele>
        <time>2014-05-17T12:20:40Z</time>
      </trkpt>
      <trkpt lat="40.232250" lon="-4.904633">
        <ele>968.0</ele>
        <time>2014-05-17T12:20:41Z</time>
      </trkpt>
      <trkpt lat="40.232283" lon="-4.904533">
        <ele>972.0</ele>
        <time>2014-05-17T12:20:43Z</time>
      </trkpt>
      <trkpt lat="40.232283" lon="-4.904467">
        <ele>973.0</ele>
        <time>2014-05-17T12:20:44Z</time>
      </trkpt>
      <trkpt lat="40.232267" lon="-4.904383">
        <ele>974.0</ele>
        <time>2014-05-17T12:20:45Z</time>
      </trkpt>
      <trkpt lat="40.232250" lon="-4.904317">
        <ele>975.0</ele>
        <time>2014-05-17T12:20:46Z</time>
      </trkpt>
      <trkpt lat="40.232200" lon="-4.904267">
        <ele>976.0</ele>
        <time>2014-05-17T12:20:47Z</time>
      </trkpt>
      <trkpt lat="40.232167" lon="-4.904233">
        <ele>979.0</ele>
        <time>2014-05-17T12:20:48Z</time>
      </trkpt>
      <trkpt lat="40.232117" lon="-4.904233">
        <ele>981.0</ele>
        <time>2014-05-17T12:20:49Z</time>
      </trkpt>
      <trkpt lat="40.232083" lon="-4.904250">
        <ele>984.0</ele>
        <time>2014-05-17T12:20:50Z</time>
      </trkpt>
      <trkpt lat="40.232033" lon="-4.904283">
        <ele>985.0</ele>
        <time>2014-05-17T12:20:51Z</time>
      </trkpt>
      <trkpt lat="40.231950" lon="-4.904300">
        <ele>985.0</ele>
        <time>2014-05-17T12:20:52Z</time>
      </trkpt>
      <trkpt lat="40.231883" lon="-4.904333">
        <ele>985.0</ele>
        <time>2014-05-17T12:20:53Z</time>
      </trkpt>
      <trkpt lat="40.231800" lon="-4.904367">
        <ele>985.0</ele>
        <time>2014-05-17T12:20:54Z</time>
      </trkpt>
      <trkpt lat="40.231717" lon="-4.904417">
        <ele>986.0</ele>
        <time>2014-05-17T12:20:55Z</time>
      </trkpt>
      <trkpt lat="40.231667" lon="-4.904467">
        <ele>988.0</ele>
        <time>2014-05-17T12:20:56Z</time>
      </trkpt>
      <trkpt lat="40.231600" lon="-4.904533">
        <ele>990.0</ele>
        <time>2014-05-17T12:20:57Z</time>
      </trkpt>
      <trkpt lat="40.231550" lon="-4.904617">
        <ele>992.0</ele>
        <time>2014-05-17T12:20:58Z</time>
      </trkpt>
      <trkpt lat="40.231500" lon="-4.904717">
        <ele>994.0</ele>
        <time>2014-05-17T12:20:59Z</time>
      </trkpt>
      <trkpt lat="40.231450" lon="-4.904833">
        <ele>996.0</ele>
        <time>2014-05-17T12:21:00Z</time>
      </trkpt>
      <trkpt lat="40.231433" lon="-4.904950">
        <ele>998.0</ele>
        <time>2014-05-17T12:21:01Z</time>
      </trkpt>
      <trkpt lat="40.231417" lon="-4.905100">
        <ele>1000.0</ele>
        <time>2014-05-17T12:21:02Z</time>
      </trkpt>
      <trkpt lat="40.231433" lon="-4.905250">
        <ele>1001.0</ele>
        <time>2014-05-17T12:21:03Z</time>
      </trkpt>
      <trkpt lat="40.231467" lon="-4.905383">
        <ele>1003.0</ele>
        <time>2014-05-17T12:21:04Z</time>
      </trkpt>
      <trkpt lat="40.231517" lon="-4.905500">
        <ele>1005.0</ele>
        <time>2014-05-17T12:21:05Z</time>
      </trkpt>
      <trkpt lat="40.231567" lon="-4.905583">
        <ele>1007.0</ele>
        <time>2014-05-17T12:21:06Z</time>
      </trkpt>
      <trkpt lat="40.231650" lon="-4.905683">
        <ele>1009.0</ele>
        <time>2014-05-17T12:21:07Z</time>
      </trkpt>
      <trkpt lat="40.231717" lon="-4.905750">
        <ele>1009.0</ele>
        <time>2014-05-17T12:21:08Z</time>
      </trkpt>
      <trkpt lat="40.231800" lon="-4.905833">
        <ele>1010.0</ele>
        <time>2014-05-17T12:21:09Z</time>
      </trkpt>
      <trkpt lat="40.231883" lon="-4.905900">
        <ele>1011.0</ele>
        <time>2014-05-17T12:21:10Z</time>
      </trkpt>
      <trkpt lat="40.231967" lon="-4.905950">
        <ele>1012.0</ele>
        <time>2014-05-17T12:21:11Z</time>
      </trkpt>
      <trkpt lat="40.232017" lon="-4.905983">
        <ele>1015.0</ele>
        <time>2014-05-17T12:21:12Z</time>
      </trkpt>
      <trkpt lat="40.232100" lon="-4.906000">
        <ele>1017.0</ele>
        <time>2014-05-17T12:21:13Z</time>
      </trkpt>
      <trkpt lat="40.232233" lon="-4.905967">
        <ele>1021.0</ele>
        <time>2014-05-17T12:21:15Z</time>
      </trkpt>
      <trkpt lat="40.232300" lon="-4.905950">
        <ele>1022.0</ele>
        <time>2014-05-17T12:21:16Z</time>
      </trkpt>
      <trkpt lat="40.232350" lon="-4.905933">
        <ele>1025.0</ele>
        <time>2014-05-17T12:21:17Z</time>
      </trkpt>
      <trkpt lat="40.232383" lon="-4.905900">
        <ele>1027.0</ele>
        <time>2014-05-17T12:21:18Z</time>
      </trkpt>
      <trkpt lat="40.232417" lon="-4.905867">
        <ele>1028.0</ele>
        <time>2014-05-17T12:21:19Z</time>
      </trkpt>
      <trkpt lat="40.232433" lon="-4.905800">
        <ele>1029.0</ele>
        <time>2014-05-17T12:21:20Z</time>
      </trkpt>
      <trkpt lat="40.232433" lon="-4.905717">
        <ele>1030.0</ele>
        <time>2014-05-17T12:21:21Z</time>
      </trkpt>
      <trkpt lat="40.232433" lon="-4.905633">
        <ele>1030.0</ele>
        <time>2014-05-17T12:21:22Z</time>
      </trkpt>
      <trkpt lat="40.232417" lon="-4.905583">
        <ele>1031.0</ele>
        <time>2014-05-17T12:21:23Z</time>
      </trkpt>
      <trkpt lat="40.232383" lon="-4.905533">
        <ele>1031.0</ele>
        <time>2014-05-17T12:21:24Z</time>
      </trkpt>
      <trkpt lat="40.232367" lon="-4.905500">
        <ele>1032.0</ele>
        <time>2014-05-17T12:21:25Z</time>
      </trkpt>
      <trkpt lat="40.232317" lon="-4.905467">
        <ele>1032.0</ele>
        <time>2014-05-17T12:21:26Z</time>
      </trkpt>
      <trkpt lat="40.232250" lon="-4.905433">
        <ele>1031.0</ele>
        <time>2014-05-17T12:21:27Z</time>
      </trkpt>
      <trkpt lat="40.232183" lon="-4.905417">
        <ele>1030.0</ele>
        <time>2014-05-17T12:21:28Z</time>
      </trkpt>
      <trkpt lat="40.232117" lon="-4.905400">
        <ele>1031.0</ele>
        <time>2014-05-17T12:21:29Z</time>
      </trkpt>
      <trkpt lat="40.232067" lon="-4.905433">
        <ele>1034.0</ele>
        <time>2014-05-17T12:21:30Z</time>
      </trkpt>
      <trkpt lat="40.232017" lon="-4.905483">
        <ele>1036.0</ele>
        <time>2014-05-17T12:21:31Z</time>
      </trkpt>
      <trkpt lat="40.231950" lon="-4.905550">
        <ele>1037.0</ele>
        <time>2014-05-17T12:21:32Z</time>
      </trkpt>
      <trkpt lat="40.231900" lon="-4.905617">
        <ele>1037.0</ele>
        <time>2014-05-17T12:21:33Z</time>
      </trkpt>
      <trkpt lat="40.231833" lon="-4.905700">
        <ele>1037.0</ele>
        <time>2014-05-17T12:21:34Z</time>
      </trkpt>
      <trkpt lat="40.231783" lon="-4.905817">
        <ele>1037.0</ele>
        <time>2014-05-17T12:21:35Z</time>
      </trkpt>
      <trkpt lat="40.231750" lon="-4.905950">
        <ele>1038.0</ele>
        <time>2014-05-17T12:21:36Z</time>
      </trkpt>
      <trkpt lat="40.231767" lon="-4.906083">
        <ele>1039.0</ele>
        <time>2014-05-17T12:21:37Z</time>
      </trkpt>
      <trkpt lat="40.231783" lon="-4.906233">
        <ele>1040.0</ele>
        <time>2014-05-17T12:21:38Z</time>
      </trkpt>
      <trkpt lat="40.231817" lon="-4.906367">
        <ele>1040.0</ele>
        <time>2014-05-17T12:21:39Z</time>
      </trkpt>
      <trkpt lat="40.231867" lon="-4.906500">
        <ele>1041.0</ele>
        <time>2014-05-17T12:21:40Z</time>
      </trkpt>
      <trkpt lat="40.231933" lon="-4.906617">
        <ele>1041.0</ele>
        <time>2014-05-17T12:21:41Z</time>
      </trkpt>
      <trkpt lat="40.232000" lon="-4.906717">
        <ele>1042.0</ele>
        <time>2014-05-17T12:21:42Z</time>
      </trkpt>
      <trkpt lat="40.232083" lon="-4.906800">
        <ele>1042.0</ele>
        <time>2014-05-17T12:21:43Z</time>
      </trkpt>
      <trkpt lat="40.232167" lon="-4.906867">
        <ele>1043.0</ele>
        <time>2014-05-17T12:21:44Z</time>
      </trkpt>
      <trkpt lat="40.232250" lon="-4.906883">
        <ele>1044.0</ele>
        <time>2014-05-17T12:21:45Z</time>
      </trkpt>
      <trkpt lat="40.232333" lon="-4.906900">
        <ele>1046.0</ele>
        <time>2014-05-17T12:21:46Z</time>
      </trkpt>
      <trkpt lat="40.232400" lon="-4.906900">
        <ele>1046.0</ele>
        <time>2014-05-17T12:21:47Z</time>
      </trkpt>
      <trkpt lat="40.232550" lon="-4.906883">
        <ele>1045.0</ele>
        <time>2014-05-17T12:21:49Z</time>
      </trkpt>
      <trkpt lat="40.232617" lon="-4.906850">
        <ele>1045.0</ele>
        <time>2014-05-17T12:21:50Z</time>
      </trkpt>
      <trkpt lat="40.232683" lon="-4.906817">
        <ele>1045.0</ele>
        <time>2014-05-17T12:21:51Z</time>
      </trkpt>
      <trkpt lat="40.232733" lon="-4.906767">
        <ele>1046.0</ele>
        <time>2014-05-17T12:21:52Z</time>
      </trkpt>
      <trkpt lat="40.232783" lon="-4.906717">
        <ele>1046.0</ele>
        <time>2014-05-17T12:21:53Z</time>
      </trkpt>
      <trkpt lat="40.232817" lon="-4.906633">
        <ele>1046.0</ele>
        <time>2014-05-17T12:21:54Z</time>
      </trkpt>
      <trkpt lat="40.232833" lon="-4.906567">
        <ele>1046.0</ele>
        <time>2014-05-17T12:21:55Z</time>
      </trkpt>
      <trkpt lat="40.232833" lon="-4.906483">
        <ele>1045.0</ele>
        <time>2014-05-17T12:21:56Z</time>
      </trkpt>
      <trkpt lat="40.232850" lon="-4.906400">
        <ele>1045.0</ele>
        <time>2014-05-17T12:21:57Z</time>
      </trkpt>
      <trkpt lat="40.232850" lon="-4.906333">
        <ele>1045.0</ele>
        <time>2014-05-17T12:21:58Z</time>
      </trkpt>
      <trkpt lat="40.232850" lon="-4.906283">
        <ele>1046.0</ele>
        <time>2014-05-17T12:21:59Z</time>
      </trkpt>
      <trkpt lat="40.232833" lon="-4.906250">
        <ele>1046.0</ele>
        <time>2014-05-17T12:22:00Z</time>
      </trkpt>
      <trkpt lat="40.232800" lon="-4.906200">
        <ele>1045.0</ele>
        <time>2014-05-17T12:22:01Z</time>
      </trkpt>
      <trkpt lat="40.232767" lon="-4.906150">
        <ele>1043.0</ele>
        <time>2014-05-17T12:22:02Z</time>
      </trkpt>
      <trkpt lat="40.232733" lon="-4.906100">
        <ele>1042.0</ele>
        <time>2014-05-17T12:22:03Z</time>
      </trkpt>
      <trkpt lat="40.232700" lon="-4.906017">
        <ele>1042.0</ele>
        <time>2014-05-17T12:22:04Z</time>
      </trkpt>
      <trkpt lat="40.232650" lon="-4.905950">
        <ele>1042.0</ele>
        <time>2014-05-17T12:22:05Z</time>
      </trkpt>
      <trkpt lat="40.232617" lon="-4.905933">
        <ele>1042.0</ele>
        <time>2014-05-17T12:22:06Z</time>
      </trkpt>
      <trkpt lat="40.232550" lon="-4.905917">
        <ele>1043.0</ele>
        <time>2014-05-17T12:22:07Z</time>
      </trkpt>
      <trkpt lat="40.232500" lon="-4.905933">
        <ele>1043.0</ele>
        <time>2014-05-17T12:22:08Z</time>
      </trkpt>
      <trkpt lat="40.232450" lon="-4.905950">
        <ele>1042.0</ele>
        <time>2014-05-17T12:22:09Z</time>
      </trkpt>
      <trkpt lat="40.232400" lon="-4.905967">
        <ele>1038.0</ele>
        <time>2014-05-17T12:22:10Z</time>
      </trkpt>
      <trkpt lat="40.232333" lon="-4.906000">
        <ele>1036.0</ele>
        <time>2014-05-17T12:22:11Z</time>
      </trkpt>
      <trkpt lat="40.232250" lon="-4.906050">
        <ele>1033.0</ele>
        <time>2014-05-17T12:22:12Z</time>
      </trkpt>
      <trkpt lat="40.232200" lon="-4.906083">
        <ele>1032.0</ele>
        <time>2014-05-17T12:22:13Z</time>
      </trkpt>
      <trkpt lat="40.232150" lon="-4.906117">
        <ele>1032.0</ele>
        <time>2014-05-17T12:22:14Z</time>
      </trkpt>
      <trkpt lat="40.232133" lon="-4.906150">
        <ele>1032.0</ele>
        <time>2014-05-17T12:22:15Z</time>
      </trkpt>
      <trkpt lat="40.232100" lon="-4.906183">
        <ele>1032.0</ele>
        <time>2014-05-17T12:22:16Z</time>
      </trkpt>
      <trkpt lat="40.232050" lon="-4.906217">
        <ele>1030.0</ele>
        <time>2014-05-17T12:22:17Z</time>
      </trkpt>
      <trkpt lat="40.231983" lon="-4.906233">
        <ele>1026.0</ele>
        <time>2014-05-17T12:22:18Z</time>
      </trkpt>
      <trkpt lat="40.231900" lon="-4.906233">
        <ele>1025.0</ele>
        <time>2014-05-17T12:22:19Z</time>
      </trkpt>
      <trkpt lat="40.231833" lon="-4.906233">
        <ele>1025.0</ele>
        <time>2014-05-17T12:22:20Z</time>
      </trkpt>
      <trkpt lat="40.231783" lon="-4.906233">
        <ele>1025.0</ele>
        <time>2014-05-17T12:22:21Z</time>
      </trkpt>
      <trkpt lat="40.231750" lon="-4.906250">
        <ele>1025.0</ele>
        <time>2014-05-17T12:22:22Z</time>
      </trkpt>
      <trkpt lat="40.231700" lon="-4.906267">
        <ele>1024.0</ele>
        <time>2014-05-17T12:22:23Z</time>
      </trkpt>
      <trkpt lat="40.231617" lon="-4.906267">
        <ele>1022.0</ele>
        <time>2014-05-17T12:22:24Z</time>
      </trkpt>
      <trkpt lat="40.231550" lon="-4.906233">
        <ele>1020.0</ele>
        <time>2014-05-17T12:22:25Z</time>
      </trkpt>
      <trkpt lat="40.231483" lon="-4.906217">
        <ele>1018.0</ele>
        <time>2014-05-17T12:22:26Z</time>
      </trkpt>
      <trkpt lat="40.231433" lon="-4.906200">
        <ele>1017.0</ele>
        <time>2014-05-17T12:22:27Z</time>
      </trkpt>
      <trkpt lat="40.231367" lon="-4.906217">
        <ele>1018.0</ele>
        <time>2014-05-17T12:22:28Z</time>
      </trkpt>
      <trkpt lat="40.231317" lon="-4.906233">
        <ele>1016.0</ele>
        <time>2014-05-17T12:22:29Z</time>
      </trkpt>
      <trkpt lat="40.231250" lon="-4.906250">
        <ele>1013.0</ele>
        <time>2014-05-17T12:22:30Z</time>
      </trkpt>
      <trkpt lat="40.231150" lon="-4.906267">
        <ele>1011.0</ele>
        <time>2014-05-17T12:22:31Z</time>
      </trkpt>
      <trkpt lat="40.231050" lon="-4.906283">
        <ele>1008.0</ele>
        <time>2014-05-17T12:22:32Z</time>
      </trkpt>
      <trkpt lat="40.230967" lon="-4.906317">
        <ele>1006.0</ele>
        <time>2014-05-17T12:22:33Z</time>
      </trkpt>
      <trkpt lat="40.230883" lon="-4.906350">
        <ele>1004.0</ele>
        <time>2014-05-17T12:22:34Z</time>
      </trkpt>
      <trkpt lat="40.230800" lon="-4.906383">
        <ele>1003.0</ele>
        <time>2014-05-17T12:22:35Z</time>
      </trkpt>
      <trkpt lat="40.230733" lon="-4.906417">
        <ele>1002.0</ele>
        <time>2014-05-17T12:22:36Z</time>
      </trkpt>
      <trkpt lat="40.230633" lon="-4.906483">
        <ele>1001.0</ele>
        <time>2014-05-17T12:22:37Z</time>
      </trkpt>
      <trkpt lat="40.230550" lon="-4.906550">
        <ele>999.0</ele>
        <time>2014-05-17T12:22:38Z</time>
      </trkpt>
      <trkpt lat="40.230483" lon="-4.906617">
        <ele>999.0</ele>
        <time>2014-05-17T12:22:39Z</time>
      </trkpt>
      <trkpt lat="40.230400" lon="-4.906700">
        <ele>998.0</ele>
        <time>2014-05-17T12:22:40Z</time>
      </trkpt>
      <trkpt lat="40.230333" lon="-4.906783">
        <ele>997.0</ele>
        <time>2014-05-17T12:22:41Z</time>
      </trkpt>
      <trkpt lat="40.230267" lon="-4.906850">
        <ele>995.0</ele>
        <time>2014-05-17T12:22:42Z</time>
      </trkpt>
      <trkpt lat="40.230183" lon="-4.906917">
        <ele>992.0</ele>
        <time>2014-05-17T12:22:43Z</time>
      </trkpt>
      <trkpt lat="40.230100" lon="-4.906967">
        <ele>990.0</ele>
        <time>2014-05-17T12:22:44Z</time>
      </trkpt>
      <trkpt lat="40.230017" lon="-4.907033">
        <ele>987.0</ele>
        <time>2014-05-17T12:22:45Z</time>
      </trkpt>
      <trkpt lat="40.229933" lon="-4.907117">
        <ele>985.0</ele>
        <time>2014-05-17T12:22:46Z</time>
      </trkpt>
      <trkpt lat="40.229850" lon="-4.907200">
        <ele>983.0</ele>
        <time>2014-05-17T12:22:47Z</time>
      </trkpt>
      <trkpt lat="40.229767" lon="-4.907283">
        <ele>980.0</ele>
        <time>2014-05-17T12:22:48Z</time>
      </trkpt>
      <trkpt lat="40.229683" lon="-4.907367">
        <ele>978.0</ele>
        <time>2014-05-17T12:22:49Z</time>
      </trkpt>
      <trkpt lat="40.229583" lon="-4.907433">
        <ele>976.0</ele>
        <time>2014-05-17T12:22:50Z</time>
      </trkpt>
      <trkpt lat="40.229517" lon="-4.907517">
        <ele>974.0</ele>
        <time>2014-05-17T12:22:51Z</time>
      </trkpt>
      <trkpt lat="40.229433" lon="-4.907567">
        <ele>971.0</ele>
        <time>2014-05-17T12:22:52Z</time>
      </trkpt>
      <trkpt lat="40.229367" lon="-4.907633">
        <ele>969.0</ele>
        <time>2014-05-17T12:22:53Z</time>
      </trkpt>
      <trkpt lat="40.229283" lon="-4.907683">
        <ele>966.0</ele>
        <time>2014-05-17T12:22:54Z</time>
      </trkpt>
      <trkpt lat="40.229183" lon="-4.907733">
        <ele>964.0</ele>
        <time>2014-05-17T12:22:55Z</time>
      </trkpt>
      <trkpt lat="40.229100" lon="-4.907767">
        <ele>961.0</ele>
        <time>2014-05-17T12:22:56Z</time>
      </trkpt>
      <trkpt lat="40.229017" lon="-4.907800">
        <ele>959.0</ele>
        <time>2014-05-17T12:22:57Z</time>
      </trkpt>
      <trkpt lat="40.228950" lon="-4.907817">
        <ele>957.0</ele>
        <time>2014-05-17T12:22:58Z</time>
      </trkpt>
      <trkpt lat="40.228883" lon="-4.907817">
        <ele>954.0</ele>
        <time>2014-05-17T12:22:59Z</time>
      </trkpt>
      <trkpt lat="40.228800" lon="-4.907833">
        <ele>952.0</ele>
        <time>2014-05-17T12:23:00Z</time>
      </trkpt>
      <trkpt lat="40.228700" lon="-4.907833">
        <ele>949.0</ele>
        <time>2014-05-17T12:23:01Z</time>
      </trkpt>
      <trkpt lat="40.228617" lon="-4.907850">
        <ele>947.0</ele>
        <time>2014-05-17T12:23:02Z</time>
      </trkpt>
      <trkpt lat="40.228533" lon="-4.907833">
        <ele>947.0</ele>
        <time>2014-05-17T12:23:03Z</time>
      </trkpt>
      <trkpt lat="40.228450" lon="-4.907817">
        <ele>945.0</ele>
        <time>2014-05-17T12:23:04Z</time>
      </trkpt>
      <trkpt lat="40.228350" lon="-4.907783">
        <ele>946.0</ele>
        <time>2014-05-17T12:23:05Z</time>
      </trkpt>
      <trkpt lat="40.228267" lon="-4.907767">
        <ele>948.0</ele>
        <time>2014-05-17T12:23:06Z</time>
      </trkpt>
      <trkpt lat="40.228183" lon="-4.907767">
        <ele>951.0</ele>
        <time>2014-05-17T12:23:07Z</time>
      </trkpt>
      <trkpt lat="40.228117" lon="-4.907767">
        <ele>954.0</ele>
        <time>2014-05-17T12:23:08Z</time>
      </trkpt>
      <trkpt lat="40.228033" lon="-4.907783">
        <ele>956.0</ele>
        <time>2014-05-17T12:23:09Z</time>
      </trkpt>
      <trkpt lat="40.227967" lon="-4.907800">
        <ele>958.0</ele>
        <time>2014-05-17T12:23:10Z</time>
      </trkpt>
      <trkpt lat="40.227900" lon="-4.907833">
        <ele>960.0</ele>
        <time>2014-05-17T12:23:11Z</time>
      </trkpt>
      <trkpt lat="40.227817" lon="-4.907867">
        <ele>962.0</ele>
        <time>2014-05-17T12:23:12Z</time>
      </trkpt>
      <trkpt lat="40.227750" lon="-4.907883">
        <ele>964.0</ele>
        <time>2014-05-17T12:23:13Z</time>
      </trkpt>
      <trkpt lat="40.227667" lon="-4.907917">
        <ele>966.0</ele>
        <time>2014-05-17T12:23:14Z</time>
      </trkpt>
      <trkpt lat="40.227583" lon="-4.907950">
        <ele>969.0</ele>
        <time>2014-05-17T12:23:15Z</time>
      </trkpt>
      <trkpt lat="40.227517" lon="-4.908017">
        <ele>971.0</ele>
        <time>2014-05-17T12:23:16Z</time>
      </trkpt>
      <trkpt lat="40.227467" lon="-4.908100">
        <ele>974.0</ele>
        <time>2014-05-17T12:23:17Z</time>
      </trkpt>
      <trkpt lat="40.227417" lon="-4.908233">
        <ele>976.0</ele>
        <time>2014-05-17T12:23:18Z</time>
      </trkpt>
      <trkpt lat="40.227383" lon="-4.908383">
        <ele>977.0</ele>
        <time>2014-05-17T12:23:19Z</time>
      </trkpt>
      <trkpt lat="40.227383" lon="-4.908550">
        <ele>979.0</ele>
        <time>2014-05-17T12:23:20Z</time>
      </trkpt>
      <trkpt lat="40.227517" lon="-4.908967">
        <ele>984.0</ele>
        <time>2014-05-17T12:23:23Z</time>
      </trkpt>
      <trkpt lat="40.227583" lon="-4.909067">
        <ele>986.0</ele>
        <time>2014-05-17T12:23:24Z</time>
      </trkpt>
      <trkpt lat="40.227650" lon="-4.909133">
        <ele>988.0</ele>
        <time>2014-05-17T12:23:25Z</time>
      </trkpt>
      <trkpt lat="40.227700" lon="-4.909200">
        <ele>990.0</ele>
        <time>2014-05-17T12:23:26Z</time>
      </trkpt>
      <trkpt lat="40.227767" lon="-4.909250">
        <ele>992.0</ele>
        <time>2014-05-17T12:23:27Z</time>
      </trkpt>
      <trkpt lat="40.227817" lon="-4.909300">
        <ele>993.0</ele>
        <time>2014-05-17T12:23:28Z</time>
      </trkpt>
      <trkpt lat="40.227900" lon="-4.909333">
        <ele>994.0</ele>
        <time>2014-05-17T12:23:29Z</time>
      </trkpt>
      <trkpt lat="40.228017" lon="-4.909317">
        <ele>997.0</ele>
        <time>2014-05-17T12:23:31Z</time>
      </trkpt>
      <trkpt lat="40.228050" lon="-4.909283">
        <ele>999.0</ele>
        <time>2014-05-17T12:23:32Z</time>
      </trkpt>
      <trkpt lat="40.228050" lon="-4.909150">
        <ele>1004.0</ele>
        <time>2014-05-17T12:23:35Z</time>
      </trkpt>
      <trkpt lat="40.228017" lon="-4.909117">
        <ele>1006.0</ele>
        <time>2014-05-17T12:23:36Z</time>
      </trkpt>
      <trkpt lat="40.227983" lon="-4.909067">
        <ele>1007.0</ele>
        <time>2014-05-17T12:23:37Z</time>
      </trkpt>
      <trkpt lat="40.227917" lon="-4.909067">
        <ele>1009.0</ele>
        <time>2014-05-17T12:23:38Z</time>
      </trkpt>
      <trkpt lat="40.227850" lon="-4.909083">
        <ele>1011.0</ele>
        <time>2014-05-17T12:23:39Z</time>
      </trkpt>
      <trkpt lat="40.227767" lon="-4.909117">
        <ele>1014.0</ele>
        <time>2014-05-17T12:23:40Z</time>
      </trkpt>
      <trkpt lat="40.227700" lon="-4.909167">
        <ele>1017.0</ele>
        <time>2014-05-17T12:23:41Z</time>
      </trkpt>
      <trkpt lat="40.227633" lon="-4.909250">
        <ele>1020.0</ele>
        <time>2014-05-17T12:23:42Z</time>
      </trkpt>
      <trkpt lat="40.227583" lon="-4.909350">
        <ele>1023.0</ele>
        <time>2014-05-17T12:23:43Z</time>
      </trkpt>
      <trkpt lat="40.227533" lon="-4.909467">
        <ele>1025.0</ele>
        <time>2014-05-17T12:23:44Z</time>
      </trkpt>
      <trkpt lat="40.227500" lon="-4.909617">
        <ele>1027.0</ele>
        <time>2014-05-17T12:23:45Z</time>
      </trkpt>
      <trkpt lat="40.227467" lon="-4.909750">
        <ele>1029.0</ele>
        <time>2014-05-17T12:23:46Z</time>
      </trkpt>
      <trkpt lat="40.227467" lon="-4.909900">
        <ele>1032.0</ele>
        <time>2014-05-17T12:23:47Z</time>
      </trkpt>
      <trkpt lat="40.227483" lon="-4.910050">
        <ele>1034.0</ele>
        <time>2014-05-17T12:23:48Z</time>
      </trkpt>
      <trkpt lat="40.227500" lon="-4.910200">
        <ele>1036.0</ele>
        <time>2014-05-17T12:23:49Z</time>
      </trkpt>
      <trkpt lat="40.227533" lon="-4.910333">
        <ele>1038.0</ele>
        <time>2014-05-17T12:23:50Z</time>
      </trkpt>
      <trkpt lat="40.227583" lon="-4.910450">
        <ele>1039.0</ele>
        <time>2014-05-17T12:23:51Z</time>
      </trkpt>
      <trkpt lat="40.227650" lon="-4.910533">
        <ele>1040.0</ele>
        <time>2014-05-17T12:23:52Z</time>
      </trkpt>
      <trkpt lat="40.227733" lon="-4.910617">
        <ele>1042.0</ele>
        <time>2014-05-17T12:23:53Z</time>
      </trkpt>
      <trkpt lat="40.227800" lon="-4.910650">
        <ele>1043.0</ele>
        <time>2014-05-17T12:23:54Z</time>
      </trkpt>
      <trkpt lat="40.227867" lon="-4.910667">
        <ele>1045.0</ele>
        <time>2014-05-17T12:23:55Z</time>
      </trkpt>
      <trkpt lat="40.227917" lon="-4.910667">
        <ele>1047.0</ele>
        <time>2014-05-17T12:23:56Z</time>
      </trkpt>
      <trkpt lat="40.228017" lon="-4.910600">
        <ele>1047.0</ele>
        <time>2014-05-17T12:23:58Z</time>
      </trkpt>
      <trkpt lat="40.228100" lon="-4.910483">
        <ele>1049.0</ele>
        <time>2014-05-17T12:24:00Z</time>
      </trkpt>
      <trkpt lat="40.228117" lon="-4.910433">
        <ele>1050.0</ele>
        <time>2014-05-17T12:24:01Z</time>
      </trkpt>
      <trkpt lat="40.228117" lon="-4.910383">
        <ele>1051.0</ele>
        <time>2014-05-17T12:24:02Z</time>
      </trkpt>
      <trkpt lat="40.228117" lon="-4.910317">
        <ele>1052.0</ele>
        <time>2014-05-17T12:24:03Z</time>
      </trkpt>
      <trkpt lat="40.228100" lon="-4.910250">
        <ele>1052.0</ele>
        <time>2014-05-17T12:24:04Z</time>
      </trkpt>
      <trkpt lat="40.228083" lon="-4.910183">
        <ele>1052.0</ele>
        <time>2014-05-17T12:24:05Z</time>
      </trkpt>
      <trkpt lat="40.228050" lon="-4.910117">
        <ele>1054.0</ele>
        <time>2014-05-17T12:24:06Z</time>
      </trkpt>
      <trkpt lat="40.228017" lon="-4.910083">
        <ele>1055.0</ele>
        <time>2014-05-17T12:24:07Z</time>
      </trkpt>
      <trkpt lat="40.227983" lon="-4.910050">
        <ele>1057.0</ele>
        <time>2014-05-17T12:24:08Z</time>
      </trkpt>
      <trkpt lat="40.227967" lon="-4.910017">
        <ele>1059.0</ele>
        <time>2014-05-17T12:24:09Z</time>
      </trkpt>
      <trkpt lat="40.227933" lon="-4.909983">
        <ele>1061.0</ele>
        <time>2014-05-17T12:24:10Z</time>
      </trkpt>
      <trkpt lat="40.227883" lon="-4.909950">
        <ele>1061.0</ele>
        <time>2014-05-17T12:24:11Z</time>
      </trkpt>
      <trkpt lat="40.227817" lon="-4.909917">
        <ele>1062.0</ele>
        <time>2014-05-17T12:24:12Z</time>
      </trkpt>
      <trkpt lat="40.227733" lon="-4.909917">
        <ele>1065.0</ele>
        <time>2014-05-17T12:24:13Z</time>
      </trkpt>
      <trkpt lat="40.227667" lon="-4.909967">
        <ele>1069.0</ele>
        <time>2014-05-17T12:24:14Z</time>
      </trkpt>
      <trkpt lat="40.227617" lon="-4.910033">
        <ele>1072.0</ele>
        <time>2014-05-17T12:24:15Z</time>
      </trkpt>
      <trkpt lat="40.227567" lon="-4.910133">
        <ele>1075.0</ele>
        <time>2014-05-17T12:24:16Z</time>
      </trkpt>
      <trkpt lat="40.227500" lon="-4.910250">
        <ele>1077.0</ele>
        <time>2014-05-17T12:24:17Z</time>
      </trkpt>
      <trkpt lat="40.227450" lon="-4.910367">
        <ele>1081.0</ele>
        <time>2014-05-17T12:24:18Z</time>
      </trkpt>
      <trkpt lat="40.227433" lon="-4.910500">
        <ele>1085.0</ele>
        <time>2014-05-17T12:24:19Z</time>
      </trkpt>
      <trkpt lat="40.227417" lon="-4.910617">
        <ele>1088.0</ele>
        <time>2014-05-17T12:24:20Z</time>
      </trkpt>
      <trkpt lat="40.227417" lon="-4.910750">
        <ele>1091.0</ele>
        <time>2014-05-17T12:24:21Z</time>
      </trkpt>
      <trkpt lat="40.227450" lon="-4.910900">
        <ele>1094.0</ele>
        <time>2014-05-17T12:24:22Z</time>
      </trkpt>
      <trkpt lat="40.227467" lon="-4.911033">
        <ele>1096.0</ele>
        <time>2014-05-17T12:24:23Z</time>
      </trkpt>
      <trkpt lat="40.227517" lon="-4.911150">
        <ele>1099.0</ele>
        <time>2014-05-17T12:24:24Z</time>
      </trkpt>
      <trkpt lat="40.227567" lon="-4.911267">
        <ele>1101.0</ele>
        <time>2014-05-17T12:24:25Z</time>
      </trkpt>
      <trkpt lat="40.227650" lon="-4.911350">
        <ele>1103.0</ele>
        <time>2014-05-17T12:24:26Z</time>
      </trkpt>
      <trkpt lat="40.227733" lon="-4.911400">
        <ele>1105.0</ele>
        <time>2014-05-17T12:24:27Z</time>
      </trkpt>
      <trkpt lat="40.227817" lon="-4.911450">
        <ele>1106.0</ele>
        <time>2014-05-17T12:24:28Z</time>
      </trkpt>
      <trkpt lat="40.227900" lon="-4.911467">
        <ele>1108.0</ele>
        <time>2014-05-17T12:24:29Z</time>
      </trkpt>
      <trkpt lat="40.227983" lon="-4.911467">
        <ele>1109.0</ele>
        <time>2014-05-17T12:24:30Z</time>
      </trkpt>
      <trkpt lat="40.228050" lon="-4.911433">
        <ele>1109.0</ele>
        <time>2014-05-17T12:24:31Z</time>
      </trkpt>
      <trkpt lat="40.228100" lon="-4.911400">
        <ele>1109.0</ele>
        <time>2014-05-17T12:24:32Z</time>
      </trkpt>
      <trkpt lat="40.228167" lon="-4.911367">
        <ele>1108.0</ele>
        <time>2014-05-17T12:24:33Z</time>
      </trkpt>
      <trkpt lat="40.228217" lon="-4.911300">
        <ele>1108.0</ele>
        <time>2014-05-17T12:24:34Z</time>
      </trkpt>
      <trkpt lat="40.228267" lon="-4.911233">
        <ele>1108.0</ele>
        <time>2014-05-17T12:24:35Z</time>
      </trkpt>
      <trkpt lat="40.228267" lon="-4.911167">
        <ele>1108.0</ele>
        <time>2014-05-17T12:24:36Z</time>
      </trkpt>
      <trkpt lat="40.228250" lon="-4.911100">
        <ele>1107.0</ele>
        <time>2014-05-17T12:24:37Z</time>
      </trkpt>
      <trkpt lat="40.228217" lon="-4.911033">
        <ele>1106.0</ele>
        <time>2014-05-17T12:24:38Z</time>
      </trkpt>
      <trkpt lat="40.228183" lon="-4.911000">
        <ele>1105.0</ele>
        <time>2014-05-17T12:24:39Z</time>
      </trkpt>
      <trkpt lat="40.228150" lon="-4.910950">
        <ele>1104.0</ele>
        <time>2014-05-17T12:24:40Z</time>
      </trkpt>
      <trkpt lat="40.228117" lon="-4.910917">
        <ele>1103.0</ele>
        <time>2014-05-17T12:24:41Z</time>
      </trkpt>
      <trkpt lat="40.228067" lon="-4.910883">
        <ele>1100.0</ele>
        <time>2014-05-17T12:24:42Z</time>
      </trkpt>
      <trkpt lat="40.227983" lon="-4.910833">
        <ele>1097.0</ele>
        <time>2014-05-17T12:24:43Z</time>
      </trkpt>
      <trkpt lat="40.227883" lon="-4.910817">
        <ele>1093.0</ele>
        <time>2014-05-17T12:24:44Z</time>
      </trkpt>
      <trkpt lat="40.227783" lon="-4.910817">
        <ele>1092.0</ele>
        <time>2014-05-17T12:24:45Z</time>
      </trkpt>
      <trkpt lat="40.227683" lon="-4.910867">
        <ele>1091.0</ele>
        <time>2014-05-17T12:24:46Z</time>
      </trkpt>
      <trkpt lat="40.227617" lon="-4.910917">
        <ele>1091.0</ele>
        <time>2014-05-17T12:24:47Z</time>
      </trkpt>
      <trkpt lat="40.227567" lon="-4.910983">
        <ele>1095.0</ele>
        <time>2014-05-17T12:24:48Z</time>
      </trkpt>
      <trkpt lat="40.227517" lon="-4.911050">
        <ele>1097.0</ele>
        <time>2014-05-17T12:24:49Z</time>
      </trkpt>
      <trkpt lat="40.227450" lon="-4.911133">
        <ele>1098.0</ele>
        <time>2014-05-17T12:24:50Z</time>
      </trkpt>
      <trkpt lat="40.227400" lon="-4.911200">
        <ele>1099.0</ele>
        <time>2014-05-17T12:24:51Z</time>
      </trkpt>
      <trkpt lat="40.227333" lon="-4.911300">
        <ele>1100.0</ele>
        <time>2014-05-17T12:24:52Z</time>
      </trkpt>
      <trkpt lat="40.227300" lon="-4.911433">
        <ele>1100.0</ele>
        <time>2014-05-17T12:24:53Z</time>
      </trkpt>
      <trkpt lat="40.227267" lon="-4.911567">
        <ele>1101.0</ele>
        <time>2014-05-17T12:24:54Z</time>
      </trkpt>
      <trkpt lat="40.227267" lon="-4.911717">
        <ele>1102.0</ele>
        <time>2014-05-17T12:24:55Z</time>
      </trkpt>
      <trkpt lat="40.227283" lon="-4.911883">
        <ele>1102.0</ele>
        <time>2014-05-17T12:24:56Z</time>
      </trkpt>
      <trkpt lat="40.227333" lon="-4.912017">
        <ele>1103.0</ele>
        <time>2014-05-17T12:24:57Z</time>
      </trkpt>
      <trkpt lat="40.227400" lon="-4.912150">
        <ele>1103.0</ele>
        <time>2014-05-17T12:24:58Z</time>
      </trkpt>
      <trkpt lat="40.227467" lon="-4.912267">
        <ele>1104.0</ele>
        <time>2014-05-17T12:24:59Z</time>
      </trkpt>
      <trkpt lat="40.227550" lon="-4.912350">
        <ele>1104.0</ele>
        <time>2014-05-17T12:25:00Z</time>
      </trkpt>
      <trkpt lat="40.227650" lon="-4.912417">
        <ele>1104.0</ele>
        <time>2014-05-17T12:25:01Z</time>
      </trkpt>
      <trkpt lat="40.227733" lon="-4.912433">
        <ele>1105.0</ele>
        <time>2014-05-17T12:25:02Z</time>
      </trkpt>
      <trkpt lat="40.227883" lon="-4.912450">
        <ele>1110.0</ele>
        <time>2014-05-17T12:25:04Z</time>
      </trkpt>
      <trkpt lat="40.227933" lon="-4.912467">
        <ele>1112.0</ele>
        <time>2014-05-17T12:25:05Z</time>
      </trkpt>
      <trkpt lat="40.227950" lon="-4.912483">
        <ele>1113.0</ele>
        <time>2014-05-17T12:25:06Z</time>
      </trkpt>
      <trkpt lat="40.228100" lon="-4.912467">
        <ele>1110.0</ele>
        <time>2014-05-17T12:25:09Z</time>
      </trkpt>
      <trkpt lat="40.228150" lon="-4.912433">
        <ele>1108.0</ele>
        <time>2014-05-17T12:25:10Z</time>
      </trkpt>
      <trkpt lat="40.228200" lon="-4.912400">
        <ele>1106.0</ele>
        <time>2014-05-17T12:25:11Z</time>
      </trkpt>
      <trkpt lat="40.228233" lon="-4.912367">
        <ele>1105.0</ele>
        <time>2014-05-17T12:25:12Z</time>
      </trkpt>
      <trkpt lat="40.228217" lon="-4.912333">
        <ele>1103.0</ele>
        <time>2014-05-17T12:25:13Z</time>
      </trkpt>
      <trkpt lat="40.228200" lon="-4.912283">
        <ele>1102.0</ele>
        <time>2014-05-17T12:25:14Z</time>
      </trkpt>
      <trkpt lat="40.228167" lon="-4.912233">
        <ele>1100.0</ele>
        <time>2014-05-17T12:25:15Z</time>
      </trkpt>
      <trkpt lat="40.228117" lon="-4.912217">
        <ele>1099.0</ele>
        <time>2014-05-17T12:25:16Z</time>
      </trkpt>
      <trkpt lat="40.228083" lon="-4.912217">
        <ele>1098.0</ele>
        <time>2014-05-17T12:25:17Z</time>
      </trkpt>
      <trkpt lat="40.228033" lon="-4.912200">
        <ele>1096.0</ele>
        <time>2014-05-17T12:25:18Z</time>
      </trkpt>
      <trkpt lat="40.227967" lon="-4.912167">
        <ele>1094.0</ele>
        <time>2014-05-17T12:25:19Z</time>
      </trkpt>
      <trkpt lat="40.227900" lon="-4.912150">
        <ele>1091.0</ele>
        <time>2014-05-17T12:25:20Z</time>
      </trkpt>
      <trkpt lat="40.227817" lon="-4.912117">
        <ele>1088.0</ele>
        <time>2014-05-17T12:25:21Z</time>
      </trkpt>
      <trkpt lat="40.227767" lon="-4.912100">
        <ele>1087.0</ele>
        <time>2014-05-17T12:25:22Z</time>
      </trkpt>
      <trkpt lat="40.227700" lon="-4.912083">
        <ele>1086.0</ele>
        <time>2014-05-17T12:25:23Z</time>
      </trkpt>
      <trkpt lat="40.227633" lon="-4.912083">
        <ele>1085.0</ele>
        <time>2014-05-17T12:25:24Z</time>
      </trkpt>
      <trkpt lat="40.227567" lon="-4.912083">
        <ele>1083.0</ele>
        <time>2014-05-17T12:25:25Z</time>
      </trkpt>
      <trkpt lat="40.227467" lon="-4.912083">
        <ele>1080.0</ele>
        <time>2014-05-17T12:25:26Z</time>
      </trkpt>
      <trkpt lat="40.227383" lon="-4.912083">
        <ele>1078.0</ele>
        <time>2014-05-17T12:25:27Z</time>
      </trkpt>
      <trkpt lat="40.227317" lon="-4.912083">
        <ele>1078.0</ele>
        <time>2014-05-17T12:25:28Z</time>
      </trkpt>
      <trkpt lat="40.227250" lon="-4.912067">
        <ele>1078.0</ele>
        <time>2014-05-17T12:25:29Z</time>
      </trkpt>
      <trkpt lat="40.227200" lon="-4.912067">
        <ele>1077.0</ele>
        <time>2014-05-17T12:25:30Z</time>
      </trkpt>
      <trkpt lat="40.227117" lon="-4.912050">
        <ele>1076.0</ele>
        <time>2014-05-17T12:25:31Z</time>
      </trkpt>
      <trkpt lat="40.227050" lon="-4.912050">
        <ele>1075.0</ele>
        <time>2014-05-17T12:25:32Z</time>
      </trkpt>
      <trkpt lat="40.226967" lon="-4.912033">
        <ele>1074.0</ele>
        <time>2014-05-17T12:25:33Z</time>
      </trkpt>
      <trkpt lat="40.226900" lon="-4.912017">
        <ele>1073.0</ele>
        <time>2014-05-17T12:25:34Z</time>
      </trkpt>
      <trkpt lat="40.226833" lon="-4.912000">
        <ele>1073.0</ele>
        <time>2014-05-17T12:25:35Z</time>
      </trkpt>
      <trkpt lat="40.226750" lon="-4.912000">
        <ele>1073.0</ele>
        <time>2014-05-17T12:25:36Z</time>
      </trkpt>
      <trkpt lat="40.226667" lon="-4.912017">
        <ele>1072.0</ele>
        <time>2014-05-17T12:25:37Z</time>
      </trkpt>
      <trkpt lat="40.226567" lon="-4.912050">
        <ele>1072.0</ele>
        <time>2014-05-17T12:25:38Z</time>
      </trkpt>
      <trkpt lat="40.226467" lon="-4.912083">
        <ele>1071.0</ele>
        <time>2014-05-17T12:25:39Z</time>
      </trkpt>
      <trkpt lat="40.226367" lon="-4.912133">
        <ele>1071.0</ele>
        <time>2014-05-17T12:25:40Z</time>
      </trkpt>
      <trkpt lat="40.226267" lon="-4.912183">
        <ele>1072.0</ele>
        <time>2014-05-17T12:25:41Z</time>
      </trkpt>
      <trkpt lat="40.226167" lon="-4.912233">
        <ele>1072.0</ele>
        <time>2014-05-17T12:25:42Z</time>
      </trkpt>
      <trkpt lat="40.226067" lon="-4.912300">
        <ele>1072.0</ele>
        <time>2014-05-17T12:25:43Z</time>
      </trkpt>
      <trkpt lat="40.225967" lon="-4.912367">
        <ele>1073.0</ele>
        <time>2014-05-17T12:25:44Z</time>
      </trkpt>
      <trkpt lat="40.225850" lon="-4.912433">
        <ele>1075.0</ele>
        <time>2014-05-17T12:25:45Z</time>
      </trkpt>
      <trkpt lat="40.225750" lon="-4.912500">
        <ele>1077.0</ele>
        <time>2014-05-17T12:25:46Z</time>
      </trkpt>
      <trkpt lat="40.225667" lon="-4.912567">
        <ele>1079.0</ele>
        <time>2014-05-17T12:25:47Z</time>
      </trkpt>
      <trkpt lat="40.225583" lon="-4.912617">
        <ele>1081.0</ele>
        <time>2014-05-17T12:25:48Z</time>
      </trkpt>
      <trkpt lat="40.225483" lon="-4.912683">
        <ele>1082.0</ele>
        <time>2014-05-17T12:25:49Z</time>
      </trkpt>
      <trkpt lat="40.225400" lon="-4.912783">
        <ele>1084.0</ele>
        <time>2014-05-17T12:25:50Z</time>
      </trkpt>
      <trkpt lat="40.225317" lon="-4.912867">
        <ele>1087.0</ele>
        <time>2014-05-17T12:25:51Z</time>
      </trkpt>
      <trkpt lat="40.225233" lon="-4.912950">
        <ele>1091.0</ele>
        <time>2014-05-17T12:25:52Z</time>
      </trkpt>
      <trkpt lat="40.225167" lon="-4.913017">
        <ele>1097.0</ele>
        <time>2014-05-17T12:25:53Z</time>
      </trkpt>
      <trkpt lat="40.225117" lon="-4.913083">
        <ele>1101.0</ele>
        <time>2014-05-17T12:25:54Z</time>
      </trkpt>
      <trkpt lat="40.225083" lon="-4.913167">
        <ele>1105.0</ele>
        <time>2014-05-17T12:25:55Z</time>
      </trkpt>
      <trkpt lat="40.225050" lon="-4.913300">
        <ele>1108.0</ele>
        <time>2014-05-17T12:25:56Z</time>
      </trkpt>
      <trkpt lat="40.225050" lon="-4.913450">
        <ele>1111.0</ele>
        <time>2014-05-17T12:25:57Z</time>
      </trkpt>
      <trkpt lat="40.225083" lon="-4.913583">
        <ele>1114.0</ele>
        <time>2014-05-17T12:25:58Z</time>
      </trkpt>
      <trkpt lat="40.225150" lon="-4.913683">
        <ele>1117.0</ele>
        <time>2014-05-17T12:25:59Z</time>
      </trkpt>
      <trkpt lat="40.225233" lon="-4.913717">
        <ele>1120.0</ele>
        <time>2014-05-17T12:26:00Z</time>
      </trkpt>
      <trkpt lat="40.225317" lon="-4.913717">
        <ele>1124.0</ele>
        <time>2014-05-17T12:26:01Z</time>
      </trkpt>
      <trkpt lat="40.225367" lon="-4.913700">
        <ele>1127.0</ele>
        <time>2014-05-17T12:26:02Z</time>
      </trkpt>
      <trkpt lat="40.225417" lon="-4.913667">
        <ele>1131.0</ele>
        <time>2014-05-17T12:26:03Z</time>
      </trkpt>
      <trkpt lat="40.225433" lon="-4.913650">
        <ele>1136.0</ele>
        <time>2014-05-17T12:26:04Z</time>
      </trkpt>
      <trkpt lat="40.225450" lon="-4.913617">
        <ele>1139.0</ele>
        <time>2014-05-17T12:26:05Z</time>
      </trkpt>
      <trkpt lat="40.225467" lon="-4.913550">
        <ele>1142.0</ele>
        <time>2014-05-17T12:26:06Z</time>
      </trkpt>
      <trkpt lat="40.225467" lon="-4.913467">
        <ele>1144.0</ele>
        <time>2014-05-17T12:26:07Z</time>
      </trkpt>
      <trkpt lat="40.225450" lon="-4.913400">
        <ele>1146.0</ele>
        <time>2014-05-17T12:26:08Z</time>
      </trkpt>
      <trkpt lat="40.225417" lon="-4.913350">
        <ele>1149.0</ele>
        <time>2014-05-17T12:26:09Z</time>
      </trkpt>
      <trkpt lat="40.225367" lon="-4.913300">
        <ele>1151.0</ele>
        <time>2014-05-17T12:26:10Z</time>
      </trkpt>
      <trkpt lat="40.225317" lon="-4.913250">
        <ele>1153.0</ele>
        <time>2014-05-17T12:26:11Z</time>
      </trkpt>
      <trkpt lat="40.225233" lon="-4.913200">
        <ele>1155.0</ele>
        <time>2014-05-17T12:26:12Z</time>
      </trkpt>
      <trkpt lat="40.225150" lon="-4.913167">
        <ele>1155.0</ele>
        <time>2014-05-17T12:26:13Z</time>
      </trkpt>
      <trkpt lat="40.225067" lon="-4.913133">
        <ele>1157.0</ele>
        <time>2014-05-17T12:26:14Z</time>
      </trkpt>
      <trkpt lat="40.224967" lon="-4.913150">
        <ele>1161.0</ele>
        <time>2014-05-17T12:26:15Z</time>
      </trkpt>
      <trkpt lat="40.224883" lon="-4.913167">
        <ele>1164.0</ele>
        <time>2014-05-17T12:26:16Z</time>
      </trkpt>
      <trkpt lat="40.224817" lon="-4.913217">
        <ele>1168.0</ele>
        <time>2014-05-17T12:26:17Z</time>
      </trkpt>
      <trkpt lat="40.224750" lon="-4.913283">
        <ele>1171.0</ele>
        <time>2014-05-17T12:26:18Z</time>
      </trkpt>
      <trkpt lat="40.224667" lon="-4.913367">
        <ele>1174.0</ele>
        <time>2014-05-17T12:26:19Z</time>
      </trkpt>
      <trkpt lat="40.224600" lon="-4.913450">
        <ele>1178.0</ele>
        <time>2014-05-17T12:26:20Z</time>
      </trkpt>
      <trkpt lat="40.224550" lon="-4.913567">
        <ele>1182.0</ele>
        <time>2014-05-17T12:26:21Z</time>
      </trkpt>
      <trkpt lat="40.224517" lon="-4.913683">
        <ele>1187.0</ele>
        <time>2014-05-17T12:26:22Z</time>
      </trkpt>
      <trkpt lat="40.224500" lon="-4.913800">
        <ele>1191.0</ele>
        <time>2014-05-17T12:26:23Z</time>
      </trkpt>
      <trkpt lat="40.224483" lon="-4.913917">
        <ele>1195.0</ele>
        <time>2014-05-17T12:26:24Z</time>
      </trkpt>
      <trkpt lat="40.224483" lon="-4.914033">
        <ele>1199.0</ele>
        <time>2014-05-17T12:26:25Z</time>
      </trkpt>
      <trkpt lat="40.224467" lon="-4.914167">
        <ele>1201.0</ele>
        <time>2014-05-17T12:26:26Z</time>
      </trkpt>
      <trkpt lat="40.224467" lon="-4.914333">
        <ele>1204.0</ele>
        <time>2014-05-17T12:26:27Z</time>
      </trkpt>
      <trkpt lat="40.224483" lon="-4.914467">
        <ele>1208.0</ele>
        <time>2014-05-17T12:26:28Z</time>
      </trkpt>
      <trkpt lat="40.224517" lon="-4.914583">
        <ele>1212.0</ele>
        <time>2014-05-17T12:26:29Z</time>
      </trkpt>
      <trkpt lat="40.224550" lon="-4.914683">
        <ele>1216.0</ele>
        <time>2014-05-17T12:26:30Z</time>
      </trkpt>
      <trkpt lat="40.224600" lon="-4.914767">
        <ele>1220.0</ele>
        <time>2014-05-17T12:26:31Z</time>
      </trkpt>
      <trkpt lat="40.224667" lon="-4.914850">
        <ele>1223.0</ele>
        <time>2014-05-17T12:26:32Z</time>
      </trkpt>
      <trkpt lat="40.224733" lon="-4.914933">
        <ele>1226.0</ele>
        <time>2014-05-17T12:26:33Z</time>
      </trkpt>
      <trkpt lat="40.224800" lon="-4.915000">
        <ele>1228.0</ele>
        <time>2014-05-17T12:26:34Z</time>
      </trkpt>
      <trkpt lat="40.224867" lon="-4.915033">
        <ele>1232.0</ele>
        <time>2014-05-17T12:26:35Z</time>
      </trkpt>
      <trkpt lat="40.224933" lon="-4.915050">
        <ele>1235.0</ele>
        <time>2014-05-17T12:26:36Z</time>
      </trkpt>
      <trkpt lat="40.224983" lon="-4.915033">
        <ele>1239.0</ele>
        <time>2014-05-17T12:26:37Z</time>
      </trkpt>
      <trkpt lat="40.225050" lon="-4.915017">
        <ele>1241.0</ele>
        <time>2014-05-17T12:26:38Z</time>
      </trkpt>
      <trkpt lat="40.225100" lon="-4.915000">
        <ele>1243.0</ele>
        <time>2014-05-17T12:26:39Z</time>
      </trkpt>
      <trkpt lat="40.225150" lon="-4.914983">
        <ele>1246.0</ele>
        <time>2014-05-17T12:26:40Z</time>
      </trkpt>
      <trkpt lat="40.225183" lon="-4.914933">
        <ele>1248.0</ele>
        <time>2014-05-17T12:26:41Z</time>
      </trkpt>
      <trkpt lat="40.225200" lon="-4.914867">
        <ele>1250.0</ele>
        <time>2014-05-17T12:26:42Z</time>
      </trkpt>
      <trkpt lat="40.225200" lon="-4.914783">
        <ele>1252.0</ele>
        <time>2014-05-17T12:26:43Z</time>
      </trkpt>
      <trkpt lat="40.225167" lon="-4.914717">
        <ele>1254.0</ele>
        <time>2014-05-17T12:26:44Z</time>
      </trkpt>
      <trkpt lat="40.225117" lon="-4.914650">
        <ele>1256.0</ele>
        <time>2014-05-17T12:26:45Z</time>
      </trkpt>
      <trkpt lat="40.225067" lon="-4.914617">
        <ele>1259.0</ele>
        <time>2014-05-17T12:26:46Z</time>
      </trkpt>
      <trkpt lat="40.224983" lon="-4.914583">
        <ele>1261.0</ele>
        <time>2014-05-17T12:26:47Z</time>
      </trkpt>
      <trkpt lat="40.224900" lon="-4.914550">
        <ele>1262.0</ele>
        <time>2014-05-17T12:26:48Z</time>
      </trkpt>
      <trkpt lat="40.224817" lon="-4.914517">
        <ele>1265.0</ele>
        <time>2014-05-17T12:26:49Z</time>
      </trkpt>
      <trkpt lat="40.224717" lon="-4.914517">
        <ele>1268.0</ele>
        <time>2014-05-17T12:26:50Z</time>
      </trkpt>
      <trkpt lat="40.224633" lon="-4.914517">
        <ele>1271.0</ele>
        <time>2014-05-17T12:26:51Z</time>
      </trkpt>
      <trkpt lat="40.224533" lon="-4.914533">
        <ele>1275.0</ele>
        <time>2014-05-17T12:26:52Z</time>
      </trkpt>
      <trkpt lat="40.224433" lon="-4.914583">
        <ele>1278.0</ele>
        <time>2014-05-17T12:26:53Z</time>
      </trkpt>
      <trkpt lat="40.224350" lon="-4.914633">
        <ele>1281.0</ele>
        <time>2014-05-17T12:26:54Z</time>
      </trkpt>
      <trkpt lat="40.224250" lon="-4.914667">
        <ele>1284.0</ele>
        <time>2014-05-17T12:26:55Z</time>
      </trkpt>
      <trkpt lat="40.224150" lon="-4.914717">
        <ele>1287.0</ele>
        <time>2014-05-17T12:26:56Z</time>
      </trkpt>
      <trkpt lat="40.224067" lon="-4.914800">
        <ele>1291.0</ele>
        <time>2014-05-17T12:26:57Z</time>
      </trkpt>
      <trkpt lat="40.224017" lon="-4.914917">
        <ele>1295.0</ele>
        <time>2014-05-17T12:26:58Z</time>
      </trkpt>
      <trkpt lat="40.223967" lon="-4.915033">
        <ele>1300.0</ele>
        <time>2014-05-17T12:26:59Z</time>
      </trkpt>
      <trkpt lat="40.223950" lon="-4.915167">
        <ele>1304.0</ele>
        <time>2014-05-17T12:27:00Z</time>
      </trkpt>
      <trkpt lat="40.223917" lon="-4.915300">
        <ele>1307.0</ele>
        <time>2014-05-17T12:27:01Z</time>
      </trkpt>
      <trkpt lat="40.223900" lon="-4.915450">
        <ele>1311.0</ele>
        <time>2014-05-17T12:27:02Z</time>
      </trkpt>
      <trkpt lat="40.223883" lon="-4.915600">
        <ele>1314.0</ele>
        <time>2014-05-17T12:27:03Z</time>
      </trkpt>
      <trkpt lat="40.223900" lon="-4.915750">
        <ele>1317.0</ele>
        <time>2014-05-17T12:27:04Z</time>
      </trkpt>
      <trkpt lat="40.223950" lon="-4.915850">
        <ele>1321.0</ele>
        <time>2014-05-17T12:27:05Z</time>
      </trkpt>
      <trkpt lat="40.224017" lon="-4.915933">
        <ele>1324.0</ele>
        <time>2014-05-17T12:27:06Z</time>
      </trkpt>
      <trkpt lat="40.224083" lon="-4.915983">
        <ele>1327.0</ele>
        <time>2014-05-17T12:27:07Z</time>
      </trkpt>
      <trkpt lat="40.224133" lon="-4.916033">
        <ele>1331.0</ele>
        <time>2014-05-17T12:27:08Z</time>
      </trkpt>
      <trkpt lat="40.224200" lon="-4.916067">
        <ele>1334.0</ele>
        <time>2014-05-17T12:27:09Z</time>
      </trkpt>
      <trkpt lat="40.224250" lon="-4.916117">
        <ele>1338.0</ele>
        <time>2014-05-17T12:27:10Z</time>
      </trkpt>
      <trkpt lat="40.224317" lon="-4.916133">
        <ele>1340.0</ele>
        <time>2014-05-17T12:27:11Z</time>
      </trkpt>
      <trkpt lat="40.224383" lon="-4.916150">
        <ele>1343.0</ele>
        <time>2014-05-17T12:27:12Z</time>
      </trkpt>
      <trkpt lat="40.224467" lon="-4.916117">
        <ele>1344.0</ele>
        <time>2014-05-17T12:27:13Z</time>
      </trkpt>
      <trkpt lat="40.224533" lon="-4.916067">
        <ele>1346.0</ele>
        <time>2014-05-17T12:27:14Z</time>
      </trkpt>
      <trkpt lat="40.224550" lon="-4.916017">
        <ele>1348.0</ele>
        <time>2014-05-17T12:27:15Z</time>
      </trkpt>
      <trkpt lat="40.224550" lon="-4.915950">
        <ele>1352.0</ele>
        <time>2014-05-17T12:27:16Z</time>
      </trkpt>
      <trkpt lat="40.224517" lon="-4.915883">
        <ele>1354.0</ele>
        <time>2014-05-17T12:27:17Z</time>
      </trkpt>
      <trkpt lat="40.224483" lon="-4.915817">
        <ele>1356.0</ele>
        <time>2014-05-17T12:27:18Z</time>
      </trkpt>
      <trkpt lat="40.224433" lon="-4.915767">
        <ele>1359.0</ele>
        <time>2014-05-17T12:27:19Z</time>
      </trkpt>
      <trkpt lat="40.224383" lon="-4.915700">
        <ele>1361.0</ele>
        <time>2014-05-17T12:27:20Z</time>
      </trkpt>
      <trkpt lat="40.224333" lon="-4.915667">
        <ele>1363.0</ele>
        <time>2014-05-17T12:27:21Z</time>
      </trkpt>
      <trkpt lat="40.224250" lon="-4.915633">
        <ele>1366.0</ele>
        <time>2014-05-17T12:27:22Z</time>
      </trkpt>
      <trkpt lat="40.224150" lon="-4.915633">
        <ele>1369.0</ele>
        <time>2014-05-17T12:27:23Z</time>
      </trkpt>
      <trkpt lat="40.224067" lon="-4.915650">
        <ele>1372.0</ele>
        <time>2014-05-17T12:27:24Z</time>
      </trkpt>
      <trkpt lat="40.223983" lon="-4.915700">
        <ele>1376.0</ele>
        <time>2014-05-17T12:27:25Z</time>
      </trkpt>
      <trkpt lat="40.223917" lon="-4.915767">
        <ele>1381.0</ele>
        <time>2014-05-17T12:27:26Z</time>
      </trkpt>
      <trkpt lat="40.223850" lon="-4.915850">
        <ele>1385.0</ele>
        <time>2014-05-17T12:27:27Z</time>
      </trkpt>
      <trkpt lat="40.223800" lon="-4.915967">
        <ele>1388.0</ele>
        <time>2014-05-17T12:27:28Z</time>
      </trkpt>
      <trkpt lat="40.223733" lon="-4.916083">
        <ele>1390.0</ele>
        <time>2014-05-17T12:27:29Z</time>
      </trkpt>
      <trkpt lat="40.223683" lon="-4.916217">
        <ele>1394.0</ele>
        <time>2014-05-17T12:27:30Z</time>
      </trkpt>
      <trkpt lat="40.223650" lon="-4.916333">
        <ele>1397.0</ele>
        <time>2014-05-17T12:27:31Z</time>
      </trkpt>
      <trkpt lat="40.223633" lon="-4.916483">
        <ele>1400.0</ele>
        <time>2014-05-17T12:27:32Z</time>
      </trkpt>
      <trkpt lat="40.223650" lon="-4.916633">
        <ele>1403.0</ele>
        <time>2014-05-17T12:27:33Z</time>
      </trkpt>
      <trkpt lat="40.223683" lon="-4.916767">
        <ele>1405.0</ele>
        <time>2014-05-17T12:27:34Z</time>
      </trkpt>
      <trkpt lat="40.223750" lon="-4.916867">
        <ele>1407.0</ele>
        <time>2014-05-17T12:27:35Z</time>
      </trkpt>
      <trkpt lat="40.223800" lon="-4.916933">
        <ele>1410.0</ele>
        <time>2014-05-17T12:27:36Z</time>
      </trkpt>
      <trkpt lat="40.223867" lon="-4.916983">
        <ele>1413.0</ele>
        <time>2014-05-17T12:27:37Z</time>
      </trkpt>
      <trkpt lat="40.223917" lon="-4.917033">
        <ele>1416.0</ele>
        <time>2014-05-17T12:27:38Z</time>
      </trkpt>
      <trkpt lat="40.223967" lon="-4.917083">
        <ele>1419.0</ele>
        <time>2014-05-17T12:27:39Z</time>
      </trkpt>
      <trkpt lat="40.224050" lon="-4.917117">
        <ele>1421.0</ele>
        <time>2014-05-17T12:27:40Z</time>
      </trkpt>
      <trkpt lat="40.224117" lon="-4.917117">
        <ele>1422.0</ele>
        <time>2014-05-17T12:27:41Z</time>
      </trkpt>
      <trkpt lat="40.224183" lon="-4.917100">
        <ele>1424.0</ele>
        <time>2014-05-17T12:27:42Z</time>
      </trkpt>
      <trkpt lat="40.224217" lon="-4.917050">
        <ele>1427.0</ele>
        <time>2014-05-17T12:27:43Z</time>
      </trkpt>
      <trkpt lat="40.224233" lon="-4.916983">
        <ele>1429.0</ele>
        <time>2014-05-17T12:27:44Z</time>
      </trkpt>
      <trkpt lat="40.224217" lon="-4.916917">
        <ele>1431.0</ele>
        <time>2014-05-17T12:27:45Z</time>
      </trkpt>
      <trkpt lat="40.224200" lon="-4.916850">
        <ele>1434.0</ele>
        <time>2014-05-17T12:27:46Z</time>
      </trkpt>
      <trkpt lat="40.224167" lon="-4.916800">
        <ele>1436.0</ele>
        <time>2014-05-17T12:27:47Z</time>
      </trkpt>
      <trkpt lat="40.224117" lon="-4.916750">
        <ele>1439.0</ele>
        <time>2014-05-17T12:27:48Z</time>
      </trkpt>
      <trkpt lat="40.224050" lon="-4.916717">
        <ele>1441.0</ele>
        <time>2014-05-17T12:27:49Z</time>
      </trkpt>
      <trkpt lat="40.223950" lon="-4.916700">
        <ele>1443.0</ele>
        <time>2014-05-17T12:27:50Z</time>
      </trkpt>
      <trkpt lat="40.223850" lon="-4.916683">
        <ele>1444.0</ele>
        <time>2014-05-17T12:27:51Z</time>
      </trkpt>
      <trkpt lat="40.223750" lon="-4.916683">
        <ele>1447.0</ele>
        <time>2014-05-17T12:27:52Z</time>
      </trkpt>
      <trkpt lat="40.223667" lon="-4.916733">
        <ele>1452.0</ele>
        <time>2014-05-17T12:27:53Z</time>
      </trkpt>
      <trkpt lat="40.223583" lon="-4.916783">
        <ele>1456.0</ele>
        <time>2014-05-17T12:27:54Z</time>
      </trkpt>
      <trkpt lat="40.223517" lon="-4.916867">
        <ele>1459.0</ele>
        <time>2014-05-17T12:27:55Z</time>
      </trkpt>
      <trkpt lat="40.223450" lon="-4.916967">
        <ele>1462.0</ele>
        <time>2014-05-17T12:27:56Z</time>
      </trkpt>
      <trkpt lat="40.223383" lon="-4.917067">
        <ele>1465.0</ele>
        <time>2014-05-17T12:27:57Z</time>
      </trkpt>
      <trkpt lat="40.223350" lon="-4.917200">
        <ele>1467.0</ele>
        <time>2014-05-17T12:27:58Z</time>
      </trkpt>
      <trkpt lat="40.223333" lon="-4.917333">
        <ele>1469.0</ele>
        <time>2014-05-17T12:27:59Z</time>
      </trkpt>
      <trkpt lat="40.223333" lon="-4.917467">
        <ele>1471.0</ele>
        <time>2014-05-17T12:28:00Z</time>
      </trkpt>
      <trkpt lat="40.223367" lon="-4.917583">
        <ele>1473.0</ele>
        <time>2014-05-17T12:28:01Z</time>
      </trkpt>
      <trkpt lat="40.223400" lon="-4.917683">
        <ele>1475.0</ele>
        <time>2014-05-17T12:28:02Z</time>
      </trkpt>
      <trkpt lat="40.223433" lon="-4.917783">
        <ele>1478.0</ele>
        <time>2014-05-17T12:28:03Z</time>
      </trkpt>
      <trkpt lat="40.223483" lon="-4.917883">
        <ele>1480.0</ele>
        <time>2014-05-17T12:28:04Z</time>
      </trkpt>
      <trkpt lat="40.223533" lon="-4.917950">
        <ele>1483.0</ele>
        <time>2014-05-17T12:28:05Z</time>
      </trkpt>
      <trkpt lat="40.223583" lon="-4.918017">
        <ele>1486.0</ele>
        <time>2014-05-17T12:28:06Z</time>
      </trkpt>
      <trkpt lat="40.223633" lon="-4.918050">
        <ele>1488.0</ele>
        <time>2014-05-17T12:28:07Z</time>
      </trkpt>
      <trkpt lat="40.223700" lon="-4.918083">
        <ele>1490.0</ele>
        <time>2014-05-17T12:28:08Z</time>
      </trkpt>
      <trkpt lat="40.223750" lon="-4.918083">
        <ele>1492.0</ele>
        <time>2014-05-17T12:28:09Z</time>
      </trkpt>
      <trkpt lat="40.223817" lon="-4.918083">
        <ele>1493.0</ele>
        <time>2014-05-17T12:28:10Z</time>
      </trkpt>
      <trkpt lat="40.223883" lon="-4.918067">
        <ele>1494.0</ele>
        <time>2014-05-17T12:28:11Z</time>
      </trkpt>
      <trkpt lat="40.223933" lon="-4.918033">
        <ele>1495.0</ele>
        <time>2014-05-17T12:28:12Z</time>
      </trkpt>
      <trkpt lat="40.223983" lon="-4.918000">
        <ele>1497.0</ele>
        <time>2014-05-17T12:28:13Z</time>
      </trkpt>
      <trkpt lat="40.223983" lon="-4.917933">
        <ele>1498.0</ele>
        <time>2014-05-17T12:28:14Z</time>
      </trkpt>
      <trkpt lat="40.223967" lon="-4.917867">
        <ele>1499.0</ele>
        <time>2014-05-17T12:28:15Z</time>
      </trkpt>
      <trkpt lat="40.223933" lon="-4.917800">
        <ele>1500.0</ele>
        <time>2014-05-17T12:28:16Z</time>
      </trkpt>
      <trkpt lat="40.223900" lon="-4.917767">
        <ele>1502.0</ele>
        <time>2014-05-17T12:28:17Z</time>
      </trkpt>
      <trkpt lat="40.223850" lon="-4.917733">
        <ele>1503.0</ele>
        <time>2014-05-17T12:28:18Z</time>
      </trkpt>
      <trkpt lat="40.223783" lon="-4.917700">
        <ele>1504.0</ele>
        <time>2014-05-17T12:28:19Z</time>
      </trkpt>
      <trkpt lat="40.223683" lon="-4.917667">
        <ele>1504.0</ele>
        <time>2014-05-17T12:28:20Z</time>
      </trkpt>
      <trkpt lat="40.223567" lon="-4.917650">
        <ele>1504.0</ele>
        <time>2014-05-17T12:28:21Z</time>
      </trkpt>
      <trkpt lat="40.223467" lon="-4.917683">
        <ele>1506.0</ele>
        <time>2014-05-17T12:28:22Z</time>
      </trkpt>
      <trkpt lat="40.223383" lon="-4.917717">
        <ele>1510.0</ele>
        <time>2014-05-17T12:28:23Z</time>
      </trkpt>
      <trkpt lat="40.223300" lon="-4.917783">
        <ele>1513.0</ele>
        <time>2014-05-17T12:28:24Z</time>
      </trkpt>
      <trkpt lat="40.223233" lon="-4.917850">
        <ele>1516.0</ele>
        <time>2014-05-17T12:28:25Z</time>
      </trkpt>
      <trkpt lat="40.223150" lon="-4.917933">
        <ele>1519.0</ele>
        <time>2014-05-17T12:28:26Z</time>
      </trkpt>
      <trkpt lat="40.223083" lon="-4.918033">
        <ele>1521.0</ele>
        <time>2014-05-17T12:28:27Z</time>
      </trkpt>
      <trkpt lat="40.223033" lon="-4.918150">
        <ele>1523.0</ele>
        <time>2014-05-17T12:28:28Z</time>
      </trkpt>
      <trkpt lat="40.223000" lon="-4.918283">
        <ele>1526.0</ele>
        <time>2014-05-17T12:28:29Z</time>
      </trkpt>
      <trkpt lat="40.223000" lon="-4.918417">
        <ele>1529.0</ele>
        <time>2014-05-17T12:28:30Z</time>
      </trkpt>
      <trkpt lat="40.223000" lon="-4.918533">
        <ele>1532.0</ele>
        <time>2014-05-17T12:28:31Z</time>
      </trkpt>
      <trkpt lat="40.223033" lon="-4.918650">
        <ele>1535.0</ele>
        <time>2014-05-17T12:28:32Z</time>
      </trkpt>
      <trkpt lat="40.223083" lon="-4.918750">
        <ele>1538.0</ele>
        <time>2014-05-17T12:28:33Z</time>
      </trkpt>
      <trkpt lat="40.223117" lon="-4.918850">
        <ele>1540.0</ele>
        <time>2014-05-17T12:28:34Z</time>
      </trkpt>
      <trkpt lat="40.223167" lon="-4.918917">
        <ele>1543.0</ele>
        <time>2014-05-17T12:28:35Z</time>
      </trkpt>
      <trkpt lat="40.223217" lon="-4.918983">
        <ele>1545.0</ele>
        <time>2014-05-17T12:28:36Z</time>
      </trkpt>
      <trkpt lat="40.223267" lon="-4.919033">
        <ele>1547.0</ele>
        <time>2014-05-17T12:28:37Z</time>
      </trkpt>
      <trkpt lat="40.223317" lon="-4.919067">
        <ele>1547.0</ele>
        <time>2014-05-17T12:28:38Z</time>
      </trkpt>
      <trkpt lat="40.223383" lon="-4.919083">
        <ele>1547.0</ele>
        <time>2014-05-17T12:28:39Z</time>
      </trkpt>
      <trkpt lat="40.223450" lon="-4.919083">
        <ele>1546.0</ele>
        <time>2014-05-17T12:28:40Z</time>
      </trkpt>
      <trkpt lat="40.223517" lon="-4.919100">
        <ele>1546.0</ele>
        <time>2014-05-17T12:28:41Z</time>
      </trkpt>
      <trkpt lat="40.223583" lon="-4.919083">
        <ele>1546.0</ele>
        <time>2014-05-17T12:28:42Z</time>
      </trkpt>
      <trkpt lat="40.223650" lon="-4.919067">
        <ele>1547.0</ele>
        <time>2014-05-17T12:28:43Z</time>
      </trkpt>
      <trkpt lat="40.223683" lon="-4.919033">
        <ele>1548.0</ele>
        <time>2014-05-17T12:28:44Z</time>
      </trkpt>
      <trkpt lat="40.223667" lon="-4.918983">
        <ele>1549.0</ele>
        <time>2014-05-17T12:28:45Z</time>
      </trkpt>
      <trkpt lat="40.223650" lon="-4.918950">
        <ele>1549.0</ele>
        <time>2014-05-17T12:28:46Z</time>
      </trkpt>
      <trkpt lat="40.223633" lon="-4.918900">
        <ele>1549.0</ele>
        <time>2014-05-17T12:28:47Z</time>
      </trkpt>
      <trkpt lat="40.223600" lon="-4.918850">
        <ele>1550.0</ele>
        <time>2014-05-17T12:28:48Z</time>
      </trkpt>
      <trkpt lat="40.223583" lon="-4.918817">
        <ele>1551.0</ele>
        <time>2014-05-17T12:28:49Z</time>
      </trkpt>
      <trkpt lat="40.223567" lon="-4.918767">
        <ele>1551.0</ele>
        <time>2014-05-17T12:28:50Z</time>
      </trkpt>
      <trkpt lat="40.223550" lon="-4.918700">
        <ele>1552.0</ele>
        <time>2014-05-17T12:28:51Z</time>
      </trkpt>
      <trkpt lat="40.223517" lon="-4.918633">
        <ele>1552.0</ele>
        <time>2014-05-17T12:28:52Z</time>
      </trkpt>
      <trkpt lat="40.223467" lon="-4.918583">
        <ele>1553.0</ele>
        <time>2014-05-17T12:28:53Z</time>
      </trkpt>
      <trkpt lat="40.223417" lon="-4.918533">
        <ele>1554.0</ele>
        <time>2014-05-17T12:28:54Z</time>
      </trkpt>
      <trkpt lat="40.223350" lon="-4.918500">
        <ele>1556.0</ele>
        <time>2014-05-17T12:28:55Z</time>
      </trkpt>
      <trkpt lat="40.223267" lon="-4.918483">
        <ele>1558.0</ele>
        <time>2014-05-17T12:28:56Z</time>
      </trkpt>
      <trkpt lat="40.223167" lon="-4.918483">
        <ele>1560.0</ele>
        <time>2014-05-17T12:28:57Z</time>
      </trkpt>
      <trkpt lat="40.223067" lon="-4.918533">
        <ele>1562.0</ele>
        <time>2014-05-17T12:28:58Z</time>
      </trkpt>
      <trkpt lat="40.222983" lon="-4.918617">
        <ele>1563.0</ele>
        <time>2014-05-17T12:28:59Z</time>
      </trkpt>
      <trkpt lat="40.222900" lon="-4.918717">
        <ele>1566.0</ele>
        <time>2014-05-17T12:29:00Z</time>
      </trkpt>
      <trkpt lat="40.222850" lon="-4.918833">
        <ele>1569.0</ele>
        <time>2014-05-17T12:29:01Z</time>
      </trkpt>
      <trkpt lat="40.222800" lon="-4.918933">
        <ele>1572.0</ele>
        <time>2014-05-17T12:29:02Z</time>
      </trkpt>
      <trkpt lat="40.222733" lon="-4.919017">
        <ele>1575.0</ele>
        <time>2014-05-17T12:29:03Z</time>
      </trkpt>
      <trkpt lat="40.222683" lon="-4.919117">
        <ele>1576.0</ele>
        <time>2014-05-17T12:29:04Z</time>
      </trkpt>
      <trkpt lat="40.222617" lon="-4.919233">
        <ele>1578.0</ele>
        <time>2014-05-17T12:29:05Z</time>
      </trkpt>
      <trkpt lat="40.222567" lon="-4.919350">
        <ele>1579.0</ele>
        <time>2014-05-17T12:29:06Z</time>
      </trkpt>
      <trkpt lat="40.222550" lon="-4.919483">
        <ele>1580.0</ele>
        <time>2014-05-17T12:29:07Z</time>
      </trkpt>
      <trkpt lat="40.222567" lon="-4.919617">
        <ele>1582.0</ele>
        <time>2014-05-17T12:29:08Z</time>
      </trkpt>
      <trkpt lat="40.222583" lon="-4.919767">
        <ele>1583.0</ele>
        <time>2014-05-17T12:29:09Z</time>
      </trkpt>
      <trkpt lat="40.222600" lon="-4.919900">
        <ele>1584.0</ele>
        <time>2014-05-17T12:29:10Z</time>
      </trkpt>
      <trkpt lat="40.222633" lon="-4.920000">
        <ele>1586.0</ele>
        <time>2014-05-17T12:29:11Z</time>
      </trkpt>
      <trkpt lat="40.222683" lon="-4.920083">
        <ele>1588.0</ele>
        <time>2014-05-17T12:29:12Z</time>
      </trkpt>
      <trkpt lat="40.222750" lon="-4.920117">
        <ele>1591.0</ele>
        <time>2014-05-17T12:29:13Z</time>
      </trkpt>
      <trkpt lat="40.222817" lon="-4.920133">
        <ele>1593.0</ele>
        <time>2014-05-17T12:29:14Z</time>
      </trkpt>
      <trkpt lat="40.222867" lon="-4.920183">
        <ele>1594.0</ele>
        <time>2014-05-17T12:29:15Z</time>
      </trkpt>
      <trkpt lat="40.222917" lon="-4.920250">
        <ele>1595.0</ele>
        <time>2014-05-17T12:29:16Z</time>
      </trkpt>
      <trkpt lat="40.222950" lon="-4.920350">
        <ele>1594.0</ele>
        <time>2014-05-17T12:29:17Z</time>
      </trkpt>
      <trkpt lat="40.222983" lon="-4.920450">
        <ele>1593.0</ele>
        <time>2014-05-17T12:29:18Z</time>
      </trkpt>
      <trkpt lat="40.223050" lon="-4.920533">
        <ele>1591.0</ele>
        <time>2014-05-17T12:29:19Z</time>
      </trkpt>
      <trkpt lat="40.223100" lon="-4.920583">
        <ele>1589.0</ele>
        <time>2014-05-17T12:29:20Z</time>
      </trkpt>
      <trkpt lat="40.223167" lon="-4.920600">
        <ele>1588.0</ele>
        <time>2014-05-17T12:29:21Z</time>
      </trkpt>
      <trkpt lat="40.223217" lon="-4.920567">
        <ele>1588.0</ele>
        <time>2014-05-17T12:29:22Z</time>
      </trkpt>
      <trkpt lat="40.223233" lon="-4.920517">
        <ele>1587.0</ele>
        <time>2014-05-17T12:29:23Z</time>
      </trkpt>
      <trkpt lat="40.223233" lon="-4.920467">
        <ele>1587.0</ele>
        <time>2014-05-17T12:29:24Z</time>
      </trkpt>
      <trkpt lat="40.223217" lon="-4.920367">
        <ele>1587.0</ele>
        <time>2014-05-17T12:29:26Z</time>
      </trkpt>
      <trkpt lat="40.223200" lon="-4.920300">
        <ele>1586.0</ele>
        <time>2014-05-17T12:29:27Z</time>
      </trkpt>
      <trkpt lat="40.223150" lon="-4.920217">
        <ele>1586.0</ele>
        <time>2014-05-17T12:29:28Z</time>
      </trkpt>
      <trkpt lat="40.223117" lon="-4.920150">
        <ele>1586.0</ele>
        <time>2014-05-17T12:29:29Z</time>
      </trkpt>
      <trkpt lat="40.223033" lon="-4.920033">
        <ele>1587.0</ele>
        <time>2014-05-17T12:29:31Z</time>
      </trkpt>
      <trkpt lat="40.222917" lon="-4.919900">
        <ele>1587.0</ele>
        <time>2014-05-17T12:29:33Z</time>
      </trkpt>
      <trkpt lat="40.222867" lon="-4.919817">
        <ele>1588.0</ele>
        <time>2014-05-17T12:29:34Z</time>
      </trkpt>
      <trkpt lat="40.222817" lon="-4.919767">
        <ele>1591.0</ele>
        <time>2014-05-17T12:29:35Z</time>
      </trkpt>
      <trkpt lat="40.222783" lon="-4.919717">
        <ele>1595.0</ele>
        <time>2014-05-17T12:29:36Z</time>
      </trkpt>
      <trkpt lat="40.222750" lon="-4.919683">
        <ele>1598.0</ele>
        <time>2014-05-17T12:29:37Z</time>
      </trkpt>
      <trkpt lat="40.222700" lon="-4.919633">
        <ele>1600.0</ele>
        <time>2014-05-17T12:29:38Z</time>
      </trkpt>
      <trkpt lat="40.222633" lon="-4.919567">
        <ele>1600.0</ele>
        <time>2014-05-17T12:29:39Z</time>
      </trkpt>
      <trkpt lat="40.222567" lon="-4.919517">
        <ele>1602.0</ele>
        <time>2014-05-17T12:29:40Z</time>
      </trkpt>
      <trkpt lat="40.222500" lon="-4.919483">
        <ele>1604.0</ele>
        <time>2014-05-17T12:29:41Z</time>
      </trkpt>
      <trkpt lat="40.222417" lon="-4.919467">
        <ele>1609.0</ele>
        <time>2014-05-17T12:29:42Z</time>
      </trkpt>
      <trkpt lat="40.222350" lon="-4.919467">
        <ele>1612.0</ele>
        <time>2014-05-17T12:29:43Z</time>
      </trkpt>
      <trkpt lat="40.222283" lon="-4.919467">
        <ele>1614.0</ele>
        <time>2014-05-17T12:29:44Z</time>
      </trkpt>
      <trkpt lat="40.222183" lon="-4.919467">
        <ele>1614.0</ele>
        <time>2014-05-17T12:29:45Z</time>
      </trkpt>
      <trkpt lat="40.222083" lon="-4.919483">
        <ele>1616.0</ele>
        <time>2014-05-17T12:29:46Z</time>
      </trkpt>
      <trkpt lat="40.221983" lon="-4.919517">
        <ele>1617.0</ele>
        <time>2014-05-17T12:29:47Z</time>
      </trkpt>
      <trkpt lat="40.221883" lon="-4.919583">
        <ele>1620.0</ele>
        <time>2014-05-17T12:29:48Z</time>
      </trkpt>
      <trkpt lat="40.221817" lon="-4.919683">
        <ele>1622.0</ele>
        <time>2014-05-17T12:29:49Z</time>
      </trkpt>
      <trkpt lat="40.221750" lon="-4.919783">
        <ele>1624.0</ele>
        <time>2014-05-17T12:29:50Z</time>
      </trkpt>
      <trkpt lat="40.221700" lon="-4.919917">
        <ele>1625.0</ele>
        <time>2014-05-17T12:29:51Z</time>
      </trkpt>
      <trkpt lat="40.221650" lon="-4.920050">
        <ele>1626.0</ele>
        <time>2014-05-17T12:29:52Z</time>
      </trkpt>
      <trkpt lat="40.221617" lon="-4.920200">
        <ele>1627.0</ele>
        <time>2014-05-17T12:29:53Z</time>
      </trkpt>
      <trkpt lat="40.221617" lon="-4.920333">
        <ele>1629.0</ele>
        <time>2014-05-17T12:29:54Z</time>
      </trkpt>
      <trkpt lat="40.221633" lon="-4.920450">
        <ele>1630.0</ele>
        <time>2014-05-17T12:29:55Z</time>
      </trkpt>
      <trkpt lat="40.221683" lon="-4.920583">
        <ele>1632.0</ele>
        <time>2014-05-17T12:29:56Z</time>
      </trkpt>
      <trkpt lat="40.221750" lon="-4.920700">
        <ele>1633.0</ele>
        <time>2014-05-17T12:29:57Z</time>
      </trkpt>
      <trkpt lat="40.221817" lon="-4.920783">
        <ele>1634.0</ele>
        <time>2014-05-17T12:29:58Z</time>
      </trkpt>
      <trkpt lat="40.221900" lon="-4.920850">
        <ele>1636.0</ele>
        <time>2014-05-17T12:29:59Z</time>
      </trkpt>
      <trkpt lat="40.221967" lon="-4.920883">
        <ele>1638.0</ele>
        <time>2014-05-17T12:30:00Z</time>
      </trkpt>
      <trkpt lat="40.222033" lon="-4.920883">
        <ele>1639.0</ele>
        <time>2014-05-17T12:30:01Z</time>
      </trkpt>
      <trkpt lat="40.222117" lon="-4.920900">
        <ele>1639.0</ele>
        <time>2014-05-17T12:30:02Z</time>
      </trkpt>
      <trkpt lat="40.222183" lon="-4.920883">
        <ele>1640.0</ele>
        <time>2014-05-17T12:30:03Z</time>
      </trkpt>
      <trkpt lat="40.222250" lon="-4.920867">
        <ele>1641.0</ele>
        <time>2014-05-17T12:30:04Z</time>
      </trkpt>
      <trkpt lat="40.222300" lon="-4.920817">
        <ele>1643.0</ele>
        <time>2014-05-17T12:30:05Z</time>
      </trkpt>
      <trkpt lat="40.222333" lon="-4.920767">
        <ele>1645.0</ele>
        <time>2014-05-17T12:30:06Z</time>
      </trkpt>
      <trkpt lat="40.222367" lon="-4.920700">
        <ele>1646.0</ele>
        <time>2014-05-17T12:30:07Z</time>
      </trkpt>
      <trkpt lat="40.222383" lon="-4.920633">
        <ele>1647.0</ele>
        <time>2014-05-17T12:30:08Z</time>
      </trkpt>
      <trkpt lat="40.222383" lon="-4.920567">
        <ele>1648.0</ele>
        <time>2014-05-17T12:30:09Z</time>
      </trkpt>
      <trkpt lat="40.222383" lon="-4.920483">
        <ele>1649.0</ele>
        <time>2014-05-17T12:30:10Z</time>
      </trkpt>
      <trkpt lat="40.222350" lon="-4.920417">
        <ele>1650.0</ele>
        <time>2014-05-17T12:30:11Z</time>
      </trkpt>
      <trkpt lat="40.222317" lon="-4.920350">
        <ele>1651.0</ele>
        <time>2014-05-17T12:30:12Z</time>
      </trkpt>
      <trkpt lat="40.222267" lon="-4.920317">
        <ele>1653.0</ele>
        <time>2014-05-17T12:30:13Z</time>
      </trkpt>
      <trkpt lat="40.222217" lon="-4.920283">
        <ele>1655.0</ele>
        <time>2014-05-17T12:30:14Z</time>
      </trkpt>
      <trkpt lat="40.222167" lon="-4.920250">
        <ele>1657.0</ele>
        <time>2014-05-17T12:30:15Z</time>
      </trkpt>
      <trkpt lat="40.222100" lon="-4.920217">
        <ele>1658.0</ele>
        <time>2014-05-17T12:30:16Z</time>
      </trkpt>
      <trkpt lat="40.222017" lon="-4.920167">
        <ele>1659.0</ele>
        <time>2014-05-17T12:30:17Z</time>
      </trkpt>
      <trkpt lat="40.221967" lon="-4.920117">
        <ele>1660.0</ele>
        <time>2014-05-17T12:30:18Z</time>
      </trkpt>
      <trkpt lat="40.221917" lon="-4.920083">
        <ele>1661.0</ele>
        <time>2014-05-17T12:30:19Z</time>
      </trkpt>
      <trkpt lat="40.221867" lon="-4.920033">
        <ele>1662.0</ele>
        <time>2014-05-17T12:30:20Z</time>
      </trkpt>
      <trkpt lat="40.221800" lon="-4.920000">
        <ele>1663.0</ele>
        <time>2014-05-17T12:30:21Z</time>
      </trkpt>
      <trkpt lat="40.221700" lon="-4.919983">
        <ele>1663.0</ele>
        <time>2014-05-17T12:30:22Z</time>
      </trkpt>
      <trkpt lat="40.221600" lon="-4.919967">
        <ele>1662.0</ele>
        <time>2014-05-17T12:30:23Z</time>
      </trkpt>
      <trkpt lat="40.221500" lon="-4.919983">
        <ele>1663.0</ele>
        <time>2014-05-17T12:30:24Z</time>
      </trkpt>
      <trkpt lat="40.221400" lon="-4.920017">
        <ele>1664.0</ele>
        <time>2014-05-17T12:30:25Z</time>
      </trkpt>
      <trkpt lat="40.221317" lon="-4.920050">
        <ele>1664.0</ele>
        <time>2014-05-17T12:30:26Z</time>
      </trkpt>
      <trkpt lat="40.221233" lon="-4.920117">
        <ele>1663.0</ele>
        <time>2014-05-17T12:30:27Z</time>
      </trkpt>
      <trkpt lat="40.221133" lon="-4.920200">
        <ele>1662.0</ele>
        <time>2014-05-17T12:30:28Z</time>
      </trkpt>
      <trkpt lat="40.221033" lon="-4.920283">
        <ele>1661.0</ele>
        <time>2014-05-17T12:30:29Z</time>
      </trkpt>
      <trkpt lat="40.220950" lon="-4.920383">
        <ele>1662.0</ele>
        <time>2014-05-17T12:30:30Z</time>
      </trkpt>
      <trkpt lat="40.220850" lon="-4.920467">
        <ele>1664.0</ele>
        <time>2014-05-17T12:30:31Z</time>
      </trkpt>
      <trkpt lat="40.220783" lon="-4.920533">
        <ele>1666.0</ele>
        <time>2014-05-17T12:30:32Z</time>
      </trkpt>
      <trkpt lat="40.220717" lon="-4.920617">
        <ele>1669.0</ele>
        <time>2014-05-17T12:30:33Z</time>
      </trkpt>
      <trkpt lat="40.220650" lon="-4.920700">
        <ele>1670.0</ele>
        <time>2014-05-17T12:30:34Z</time>
      </trkpt>
      <trkpt lat="40.220600" lon="-4.920783">
        <ele>1671.0</ele>
        <time>2014-05-17T12:30:35Z</time>
      </trkpt>
      <trkpt lat="40.220550" lon="-4.920883">
        <ele>1671.0</ele>
        <time>2014-05-17T12:30:36Z</time>
      </trkpt>
      <trkpt lat="40.220533" lon="-4.921000">
        <ele>1670.0</ele>
        <time>2014-05-17T12:30:37Z</time>
      </trkpt>
      <trkpt lat="40.220517" lon="-4.921133">
        <ele>1669.0</ele>
        <time>2014-05-17T12:30:38Z</time>
      </trkpt>
      <trkpt lat="40.220500" lon="-4.921267">
        <ele>1668.0</ele>
        <time>2014-05-17T12:30:39Z</time>
      </trkpt>
      <trkpt lat="40.220500" lon="-4.921400">
        <ele>1667.0</ele>
        <time>2014-05-17T12:30:40Z</time>
      </trkpt>
      <trkpt lat="40.220467" lon="-4.921517">
        <ele>1666.0</ele>
        <time>2014-05-17T12:30:41Z</time>
      </trkpt>
      <trkpt lat="40.220433" lon="-4.921650">
        <ele>1665.0</ele>
        <time>2014-05-17T12:30:42Z</time>
      </trkpt>
      <trkpt lat="40.220367" lon="-4.921750">
        <ele>1664.0</ele>
        <time>2014-05-17T12:30:43Z</time>
      </trkpt>
      <trkpt lat="40.220283" lon="-4.921833">
        <ele>1663.0</ele>
        <time>2014-05-17T12:30:44Z</time>
      </trkpt>
      <trkpt lat="40.220217" lon="-4.921917">
        <ele>1664.0</ele>
        <time>2014-05-17T12:30:45Z</time>
      </trkpt>
      <trkpt lat="40.220133" lon="-4.921983">
        <ele>1665.0</ele>
        <time>2014-05-17T12:30:46Z</time>
      </trkpt>
      <trkpt lat="40.220067" lon="-4.922033">
        <ele>1665.0</ele>
        <time>2014-05-17T12:30:47Z</time>
      </trkpt>
      <trkpt lat="40.220000" lon="-4.922083">
        <ele>1664.0</ele>
        <time>2014-05-17T12:30:48Z</time>
      </trkpt>
      <trkpt lat="40.219917" lon="-4.922133">
        <ele>1663.0</ele>
        <time>2014-05-17T12:30:49Z</time>
      </trkpt>
      <trkpt lat="40.219817" lon="-4.922183">
        <ele>1661.0</ele>
        <time>2014-05-17T12:30:50Z</time>
      </trkpt>
      <trkpt lat="40.219633" lon="-4.922317">
        <ele>1656.0</ele>
        <time>2014-05-17T12:30:52Z</time>
      </trkpt>
      <trkpt lat="40.219567" lon="-4.922383">
        <ele>1656.0</ele>
        <time>2014-05-17T12:30:53Z</time>
      </trkpt>
      <trkpt lat="40.219500" lon="-4.922433">
        <ele>1656.0</ele>
        <time>2014-05-17T12:30:54Z</time>
      </trkpt>
      <trkpt lat="40.219433" lon="-4.922483">
        <ele>1655.0</ele>
        <time>2014-05-17T12:30:55Z</time>
      </trkpt>
      <trkpt lat="40.219350" lon="-4.922550">
        <ele>1653.0</ele>
        <time>2014-05-17T12:30:56Z</time>
      </trkpt>
      <trkpt lat="40.219250" lon="-4.922617">
        <ele>1650.0</ele>
        <time>2014-05-17T12:30:57Z</time>
      </trkpt>
      <trkpt lat="40.219133" lon="-4.922700">
        <ele>1649.0</ele>
        <time>2014-05-17T12:30:58Z</time>
      </trkpt>
      <trkpt lat="40.219017" lon="-4.922767">
        <ele>1647.0</ele>
        <time>2014-05-17T12:30:59Z</time>
      </trkpt>
      <trkpt lat="40.218917" lon="-4.922817">
        <ele>1647.0</ele>
        <time>2014-05-17T12:31:00Z</time>
      </trkpt>
      <trkpt lat="40.218817" lon="-4.922867">
        <ele>1648.0</ele>
        <time>2014-05-17T12:31:01Z</time>
      </trkpt>
      <trkpt lat="40.218733" lon="-4.922900">
        <ele>1652.0</ele>
        <time>2014-05-17T12:31:02Z</time>
      </trkpt>
      <trkpt lat="40.218633" lon="-4.922933">
        <ele>1654.0</ele>
        <time>2014-05-17T12:31:03Z</time>
      </trkpt>
      <trkpt lat="40.218533" lon="-4.922983">
        <ele>1656.0</ele>
        <time>2014-05-17T12:31:04Z</time>
      </trkpt>
      <trkpt lat="40.218433" lon="-4.923033">
        <ele>1658.0</ele>
        <time>2014-05-17T12:31:05Z</time>
      </trkpt>
      <trkpt lat="40.218333" lon="-4.923117">
        <ele>1661.0</ele>
        <time>2014-05-17T12:31:06Z</time>
      </trkpt>
      <trkpt lat="40.218250" lon="-4.923183">
        <ele>1664.0</ele>
        <time>2014-05-17T12:31:07Z</time>
      </trkpt>
      <trkpt lat="40.218167" lon="-4.923250">
        <ele>1666.0</ele>
        <time>2014-05-17T12:31:08Z</time>
      </trkpt>
      <trkpt lat="40.218083" lon="-4.923350">
        <ele>1669.0</ele>
        <time>2014-05-17T12:31:09Z</time>
      </trkpt>
      <trkpt lat="40.218000" lon="-4.923483">
        <ele>1670.0</ele>
        <time>2014-05-17T12:31:10Z</time>
      </trkpt>
      <trkpt lat="40.217950" lon="-4.923650">
        <ele>1672.0</ele>
        <time>2014-05-17T12:31:11Z</time>
      </trkpt>
      <trkpt lat="40.217917" lon="-4.923833">
        <ele>1675.0</ele>
        <time>2014-05-17T12:31:12Z</time>
      </trkpt>
      <trkpt lat="40.217900" lon="-4.923983">
        <ele>1678.0</ele>
        <time>2014-05-17T12:31:13Z</time>
      </trkpt>
      <trkpt lat="40.217883" lon="-4.924117">
        <ele>1682.0</ele>
        <time>2014-05-17T12:31:14Z</time>
      </trkpt>
      <trkpt lat="40.217900" lon="-4.924250">
        <ele>1686.0</ele>
        <time>2014-05-17T12:31:15Z</time>
      </trkpt>
      <trkpt lat="40.217900" lon="-4.924383">
        <ele>1689.0</ele>
        <time>2014-05-17T12:31:16Z</time>
      </trkpt>
      <trkpt lat="40.217917" lon="-4.924533">
        <ele>1691.0</ele>
        <time>2014-05-17T12:31:17Z</time>
      </trkpt>
      <trkpt lat="40.217950" lon="-4.924667">
        <ele>1693.0</ele>
        <time>2014-05-17T12:31:18Z</time>
      </trkpt>
      <trkpt lat="40.218000" lon="-4.924750">
        <ele>1697.0</ele>
        <time>2014-05-17T12:31:19Z</time>
      </trkpt>
      <trkpt lat="40.218050" lon="-4.924817">
        <ele>1700.0</ele>
        <time>2014-05-17T12:31:20Z</time>
      </trkpt>
      <trkpt lat="40.218117" lon="-4.924883">
        <ele>1701.0</ele>
        <time>2014-05-17T12:31:21Z</time>
      </trkpt>
      <trkpt lat="40.218167" lon="-4.924933">
        <ele>1702.0</ele>
        <time>2014-05-17T12:31:22Z</time>
      </trkpt>
      <trkpt lat="40.218233" lon="-4.924967">
        <ele>1702.0</ele>
        <time>2014-05-17T12:31:23Z</time>
      </trkpt>
      <trkpt lat="40.218283" lon="-4.925000">
        <ele>1702.0</ele>
        <time>2014-05-17T12:31:24Z</time>
      </trkpt>
      <trkpt lat="40.218333" lon="-4.925000">
        <ele>1702.0</ele>
        <time>2014-05-17T12:31:25Z</time>
      </trkpt>
      <trkpt lat="40.218383" lon="-4.925000">
        <ele>1703.0</ele>
        <time>2014-05-17T12:31:26Z</time>
      </trkpt>
      <trkpt lat="40.218417" lon="-4.924967">
        <ele>1703.0</ele>
        <time>2014-05-17T12:31:27Z</time>
      </trkpt>
      <trkpt lat="40.218433" lon="-4.924917">
        <ele>1704.0</ele>
        <time>2014-05-17T12:31:28Z</time>
      </trkpt>
      <trkpt lat="40.218450" lon="-4.924850">
        <ele>1705.0</ele>
        <time>2014-05-17T12:31:29Z</time>
      </trkpt>
      <trkpt lat="40.218433" lon="-4.924783">
        <ele>1706.0</ele>
        <time>2014-05-17T12:31:30Z</time>
      </trkpt>
      <trkpt lat="40.218417" lon="-4.924717">
        <ele>1707.0</ele>
        <time>2014-05-17T12:31:31Z</time>
      </trkpt>
      <trkpt lat="40.218400" lon="-4.924650">
        <ele>1707.0</ele>
        <time>2014-05-17T12:31:32Z</time>
      </trkpt>
      <trkpt lat="40.218367" lon="-4.924583">
        <ele>1708.0</ele>
        <time>2014-05-17T12:31:33Z</time>
      </trkpt>
      <trkpt lat="40.218333" lon="-4.924500">
        <ele>1708.0</ele>
        <time>2014-05-17T12:31:34Z</time>
      </trkpt>
      <trkpt lat="40.218283" lon="-4.924417">
        <ele>1709.0</ele>
        <time>2014-05-17T12:31:35Z</time>
      </trkpt>
      <trkpt lat="40.218250" lon="-4.924333">
        <ele>1709.0</ele>
        <time>2014-05-17T12:31:36Z</time>
      </trkpt>
      <trkpt lat="40.218200" lon="-4.924267">
        <ele>1710.0</ele>
        <time>2014-05-17T12:31:37Z</time>
      </trkpt>
      <trkpt lat="40.218117" lon="-4.924133">
        <ele>1713.0</ele>
        <time>2014-05-17T12:31:39Z</time>
      </trkpt>
      <trkpt lat="40.218067" lon="-4.924083">
        <ele>1716.0</ele>
        <time>2014-05-17T12:31:40Z</time>
      </trkpt>
      <trkpt lat="40.218000" lon="-4.924033">
        <ele>1719.0</ele>
        <time>2014-05-17T12:31:41Z</time>
      </trkpt>
      <trkpt lat="40.217867" lon="-4.923983">
        <ele>1726.0</ele>
        <time>2014-05-17T12:31:43Z</time>
      </trkpt>
      <trkpt lat="40.217800" lon="-4.924000">
        <ele>1730.0</ele>
        <time>2014-05-17T12:31:44Z</time>
      </trkpt>
      <trkpt lat="40.217733" lon="-4.924033">
        <ele>1734.0</ele>
        <time>2014-05-17T12:31:45Z</time>
      </trkpt>
      <trkpt lat="40.217650" lon="-4.924067">
        <ele>1737.0</ele>
        <time>2014-05-17T12:31:46Z</time>
      </trkpt>
      <trkpt lat="40.217567" lon="-4.924133">
        <ele>1740.0</ele>
        <time>2014-05-17T12:31:47Z</time>
      </trkpt>
      <trkpt lat="40.217483" lon="-4.924217">
        <ele>1743.0</ele>
        <time>2014-05-17T12:31:48Z</time>
      </trkpt>
      <trkpt lat="40.217400" lon="-4.924333">
        <ele>1747.0</ele>
        <time>2014-05-17T12:31:49Z</time>
      </trkpt>
      <trkpt lat="40.217350" lon="-4.924450">
        <ele>1751.0</ele>
        <time>2014-05-17T12:31:50Z</time>
      </trkpt>
      <trkpt lat="40.217317" lon="-4.924583">
        <ele>1756.0</ele>
        <time>2014-05-17T12:31:51Z</time>
      </trkpt>
      <trkpt lat="40.217300" lon="-4.924700">
        <ele>1760.0</ele>
        <time>2014-05-17T12:31:52Z</time>
      </trkpt>
      <trkpt lat="40.217283" lon="-4.924850">
        <ele>1763.0</ele>
        <time>2014-05-17T12:31:53Z</time>
      </trkpt>
      <trkpt lat="40.217300" lon="-4.925000">
        <ele>1765.0</ele>
        <time>2014-05-17T12:31:54Z</time>
      </trkpt>
      <trkpt lat="40.217317" lon="-4.925133">
        <ele>1767.0</ele>
        <time>2014-05-17T12:31:55Z</time>
      </trkpt>
      <trkpt lat="40.217350" lon="-4.925283">
        <ele>1769.0</ele>
        <time>2014-05-17T12:31:56Z</time>
      </trkpt>
      <trkpt lat="40.217417" lon="-4.925400">
        <ele>1771.0</ele>
        <time>2014-05-17T12:31:57Z</time>
      </trkpt>
      <trkpt lat="40.217483" lon="-4.925500">
        <ele>1774.0</ele>
        <time>2014-05-17T12:31:58Z</time>
      </trkpt>
      <trkpt lat="40.217567" lon="-4.925550">
        <ele>1776.0</ele>
        <time>2014-05-17T12:31:59Z</time>
      </trkpt>
      <trkpt lat="40.217633" lon="-4.925583">
        <ele>1779.0</ele>
        <time>2014-05-17T12:32:00Z</time>
      </trkpt>
      <trkpt lat="40.217700" lon="-4.925617">
        <ele>1782.0</ele>
        <time>2014-05-17T12:32:01Z</time>
      </trkpt>
      <trkpt lat="40.217767" lon="-4.925650">
        <ele>1784.0</ele>
        <time>2014-05-17T12:32:02Z</time>
      </trkpt>
      <trkpt lat="40.217817" lon="-4.925700">
        <ele>1786.0</ele>
        <time>2014-05-17T12:32:03Z</time>
      </trkpt>
      <trkpt lat="40.217900" lon="-4.925767">
        <ele>1787.0</ele>
        <time>2014-05-17T12:32:04Z</time>
      </trkpt>
      <trkpt lat="40.217967" lon="-4.925817">
        <ele>1789.0</ele>
        <time>2014-05-17T12:32:05Z</time>
      </trkpt>
      <trkpt lat="40.218017" lon="-4.925867">
        <ele>1790.0</ele>
        <time>2014-05-17T12:32:06Z</time>
      </trkpt>
      <trkpt lat="40.218083" lon="-4.925900">
        <ele>1792.0</ele>
        <time>2014-05-17T12:32:07Z</time>
      </trkpt>
      <trkpt lat="40.218150" lon="-4.925933">
        <ele>1794.0</ele>
        <time>2014-05-17T12:32:08Z</time>
      </trkpt>
      <trkpt lat="40.218200" lon="-4.925933">
        <ele>1796.0</ele>
        <time>2014-05-17T12:32:09Z</time>
      </trkpt>
      <trkpt lat="40.218250" lon="-4.925900">
        <ele>1798.0</ele>
        <time>2014-05-17T12:32:10Z</time>
      </trkpt>
      <trkpt lat="40.218300" lon="-4.925867">
        <ele>1801.0</ele>
        <time>2014-05-17T12:32:11Z</time>
      </trkpt>
      <trkpt lat="40.218333" lon="-4.925800">
        <ele>1803.0</ele>
        <time>2014-05-17T12:32:12Z</time>
      </trkpt>
      <trkpt lat="40.218350" lon="-4.925750">
        <ele>1805.0</ele>
        <time>2014-05-17T12:32:13Z</time>
      </trkpt>
      <trkpt lat="40.218367" lon="-4.925683">
        <ele>1808.0</ele>
        <time>2014-05-17T12:32:14Z</time>
      </trkpt>
      <trkpt lat="40.218367" lon="-4.925617">
        <ele>1810.0</ele>
        <time>2014-05-17T12:32:15Z</time>
      </trkpt>
      <trkpt lat="40.218350" lon="-4.925467">
        <ele>1816.0</ele>
        <time>2014-05-17T12:32:17Z</time>
      </trkpt>
      <trkpt lat="40.218350" lon="-4.925383">
        <ele>1818.0</ele>
        <time>2014-05-17T12:32:18Z</time>
      </trkpt>
      <trkpt lat="40.218333" lon="-4.925333">
        <ele>1821.0</ele>
        <time>2014-05-17T12:32:19Z</time>
      </trkpt>
      <trkpt lat="40.218317" lon="-4.925283">
        <ele>1823.0</ele>
        <time>2014-05-17T12:32:20Z</time>
      </trkpt>
      <trkpt lat="40.218267" lon="-4.925217">
        <ele>1824.0</ele>
        <time>2014-05-17T12:32:21Z</time>
      </trkpt>
      <trkpt lat="40.218233" lon="-4.925167">
        <ele>1825.0</ele>
        <time>2014-05-17T12:32:22Z</time>
      </trkpt>
      <trkpt lat="40.218217" lon="-4.925133">
        <ele>1828.0</ele>
        <time>2014-05-17T12:32:23Z</time>
      </trkpt>
      <trkpt lat="40.218200" lon="-4.925083">
        <ele>1830.0</ele>
        <time>2014-05-17T12:32:24Z</time>
      </trkpt>
      <trkpt lat="40.218167" lon="-4.925050">
        <ele>1832.0</ele>
        <time>2014-05-17T12:32:25Z</time>
      </trkpt>
      <trkpt lat="40.218150" lon="-4.925000">
        <ele>1834.0</ele>
        <time>2014-05-17T12:32:26Z</time>
      </trkpt>
      <trkpt lat="40.218100" lon="-4.924967">
        <ele>1835.0</ele>
        <time>2014-05-17T12:32:27Z</time>
      </trkpt>
      <trkpt lat="40.218067" lon="-4.924933">
        <ele>1837.0</ele>
        <time>2014-05-17T12:32:28Z</time>
      </trkpt>
      <trkpt lat="40.218017" lon="-4.924917">
        <ele>1839.0</ele>
        <time>2014-05-17T12:32:29Z</time>
      </trkpt>
      <trkpt lat="40.217967" lon="-4.924900">
        <ele>1841.0</ele>
        <time>2014-05-17T12:32:30Z</time>
      </trkpt>
      <trkpt lat="40.217900" lon="-4.924867">
        <ele>1844.0</ele>
        <time>2014-05-17T12:32:31Z</time>
      </trkpt>
      <trkpt lat="40.217850" lon="-4.924850">
        <ele>1846.0</ele>
        <time>2014-05-17T12:32:32Z</time>
      </trkpt>
      <trkpt lat="40.217800" lon="-4.924833">
        <ele>1849.0</ele>
        <time>2014-05-17T12:32:33Z</time>
      </trkpt>
      <trkpt lat="40.217767" lon="-4.924817">
        <ele>1852.0</ele>
        <time>2014-05-17T12:32:34Z</time>
      </trkpt>
      <trkpt lat="40.217717" lon="-4.924817">
        <ele>1856.0</ele>
        <time>2014-05-17T12:32:35Z</time>
      </trkpt>
      <trkpt lat="40.217667" lon="-4.924817">
        <ele>1860.0</ele>
        <time>2014-05-17T12:32:36Z</time>
      </trkpt>
      <trkpt lat="40.217617" lon="-4.924817">
        <ele>1863.0</ele>
        <time>2014-05-17T12:32:37Z</time>
      </trkpt>
      <trkpt lat="40.217567" lon="-4.924817">
        <ele>1866.0</ele>
        <time>2014-05-17T12:32:38Z</time>
      </trkpt>
      <trkpt lat="40.217500" lon="-4.924800">
        <ele>1868.0</ele>
        <time>2014-05-17T12:32:39Z</time>
      </trkpt>
      <trkpt lat="40.217433" lon="-4.924783">
        <ele>1870.0</ele>
        <time>2014-05-17T12:32:40Z</time>
      </trkpt>
      <trkpt lat="40.217367" lon="-4.924783">
        <ele>1872.0</ele>
        <time>2014-05-17T12:32:41Z</time>
      </trkpt>
      <trkpt lat="40.217317" lon="-4.924783">
        <ele>1876.0</ele>
        <time>2014-05-17T12:32:42Z</time>
      </trkpt>
      <trkpt lat="40.217250" lon="-4.924800">
        <ele>1880.0</ele>
        <time>2014-05-17T12:32:43Z</time>
      </trkpt>
      <trkpt lat="40.217183" lon="-4.924833">
        <ele>1882.0</ele>
        <time>2014-05-17T12:32:44Z</time>
      </trkpt>
      <trkpt lat="40.217033" lon="-4.924917">
        <ele>1888.0</ele>
        <time>2014-05-17T12:32:46Z</time>
      </trkpt>
      <trkpt lat="40.216983" lon="-4.924983">
        <ele>1891.0</ele>
        <time>2014-05-17T12:32:47Z</time>
      </trkpt>
      <trkpt lat="40.216933" lon="-4.925083">
        <ele>1893.0</ele>
        <time>2014-05-17T12:32:48Z</time>
      </trkpt>
      <trkpt lat="40.216867" lon="-4.925167">
        <ele>1895.0</ele>
        <time>2014-05-17T12:32:49Z</time>
      </trkpt>
      <trkpt lat="40.216800" lon="-4.925283">
        <ele>1896.0</ele>
        <time>2014-05-17T12:32:50Z</time>
      </trkpt>
      <trkpt lat="40.216750" lon="-4.925417">
        <ele>1898.0</ele>
        <time>2014-05-17T12:32:51Z</time>
      </trkpt>
      <trkpt lat="40.216717" lon="-4.925550">
        <ele>1901.0</ele>
        <time>2014-05-17T12:32:52Z</time>
      </trkpt>
      <trkpt lat="40.216700" lon="-4.925700">
        <ele>1904.0</ele>
        <time>2014-05-17T12:32:53Z</time>
      </trkpt>
      <trkpt lat="40.216717" lon="-4.925833">
        <ele>1908.0</ele>
        <time>2014-05-17T12:32:54Z</time>
      </trkpt>
      <trkpt lat="40.216750" lon="-4.925950">
        <ele>1911.0</ele>
        <time>2014-05-17T12:32:55Z</time>
      </trkpt>
      <trkpt lat="40.216783" lon="-4.926083">
        <ele>1913.0</ele>
        <time>2014-05-17T12:32:56Z</time>
      </trkpt>
      <trkpt lat="40.216833" lon="-4.926217">
        <ele>1915.0</ele>
        <time>2014-05-17T12:32:57Z</time>
      </trkpt>
      <trkpt lat="40.216900" lon="-4.926333">
        <ele>1917.0</ele>
        <time>2014-05-17T12:32:58Z</time>
      </trkpt>
      <trkpt lat="40.216967" lon="-4.926433">
        <ele>1919.0</ele>
        <time>2014-05-17T12:32:59Z</time>
      </trkpt>
      <trkpt lat="40.217033" lon="-4.926517">
        <ele>1921.0</ele>
        <time>2014-05-17T12:33:00Z</time>
      </trkpt>
      <trkpt lat="40.217117" lon="-4.926583">
        <ele>1922.0</ele>
        <time>2014-05-17T12:33:01Z</time>
      </trkpt>
      <trkpt lat="40.217217" lon="-4.926633">
        <ele>1923.0</ele>
        <time>2014-05-17T12:33:02Z</time>
      </trkpt>
      <trkpt lat="40.217300" lon="-4.926683">
        <ele>1924.0</ele>
        <time>2014-05-17T12:33:03Z</time>
      </trkpt>
      <trkpt lat="40.217400" lon="-4.926700">
        <ele>1925.0</ele>
        <time>2014-05-17T12:33:04Z</time>
      </trkpt>
      <trkpt lat="40.217483" lon="-4.926717">
        <ele>1927.0</ele>
        <time>2014-05-17T12:33:05Z</time>
      </trkpt>
      <trkpt lat="40.217683" lon="-4.926617">
        <ele>1930.0</ele>
        <time>2014-05-17T12:33:08Z</time>
      </trkpt>
      <trkpt lat="40.217733" lon="-4.926467">
        <ele>1937.0</ele>
        <time>2014-05-17T12:33:11Z</time>
      </trkpt>
      <trkpt lat="40.217717" lon="-4.926417">
        <ele>1939.0</ele>
        <time>2014-05-17T12:33:12Z</time>
      </trkpt>
      <trkpt lat="40.217717" lon="-4.926350">
        <ele>1941.0</ele>
        <time>2014-05-17T12:33:13Z</time>
      </trkpt>
      <trkpt lat="40.217700" lon="-4.926283">
        <ele>1943.0</ele>
        <time>2014-05-17T12:33:14Z</time>
      </trkpt>
      <trkpt lat="40.217667" lon="-4.926233">
        <ele>1947.0</ele>
        <time>2014-05-17T12:33:15Z</time>
      </trkpt>
      <trkpt lat="40.217633" lon="-4.926217">
        <ele>1951.0</ele>
        <time>2014-05-17T12:33:16Z</time>
      </trkpt>
      <trkpt lat="40.217617" lon="-4.926200">
        <ele>1954.0</ele>
        <time>2014-05-17T12:33:17Z</time>
      </trkpt>
      <trkpt lat="40.217567" lon="-4.926200">
        <ele>1957.0</ele>
        <time>2014-05-17T12:33:18Z</time>
      </trkpt>
      <trkpt lat="40.217500" lon="-4.926167">
        <ele>1959.0</ele>
        <time>2014-05-17T12:33:19Z</time>
      </trkpt>
      <trkpt lat="40.217433" lon="-4.926117">
        <ele>1959.0</ele>
        <time>2014-05-17T12:33:20Z</time>
      </trkpt>
      <trkpt lat="40.217383" lon="-4.926083">
        <ele>1962.0</ele>
        <time>2014-05-17T12:33:21Z</time>
      </trkpt>
      <trkpt lat="40.217317" lon="-4.926067">
        <ele>1965.0</ele>
        <time>2014-05-17T12:33:22Z</time>
      </trkpt>
      <trkpt lat="40.217267" lon="-4.926067">
        <ele>1969.0</ele>
        <time>2014-05-17T12:33:23Z</time>
      </trkpt>
      <trkpt lat="40.217200" lon="-4.926083">
        <ele>1971.0</ele>
        <time>2014-05-17T12:33:24Z</time>
      </trkpt>
      <trkpt lat="40.217117" lon="-4.926133">
        <ele>1972.0</ele>
        <time>2014-05-17T12:33:25Z</time>
      </trkpt>
      <trkpt lat="40.217033" lon="-4.926183">
        <ele>1973.0</ele>
        <time>2014-05-17T12:33:26Z</time>
      </trkpt>
      <trkpt lat="40.216967" lon="-4.926250">
        <ele>1974.0</ele>
        <time>2014-05-17T12:33:27Z</time>
      </trkpt>
      <trkpt lat="40.216900" lon="-4.926333">
        <ele>1976.0</ele>
        <time>2014-05-17T12:33:28Z</time>
      </trkpt>
      <trkpt lat="40.216833" lon="-4.926450">
        <ele>1978.0</ele>
        <time>2014-05-17T12:33:29Z</time>
      </trkpt>
      <trkpt lat="40.216783" lon="-4.926567">
        <ele>1980.0</ele>
        <time>2014-05-17T12:33:30Z</time>
      </trkpt>
      <trkpt lat="40.216750" lon="-4.926700">
        <ele>1980.0</ele>
        <time>2014-05-17T12:33:31Z</time>
      </trkpt>
      <trkpt lat="40.216717" lon="-4.926867">
        <ele>1981.0</ele>
        <time>2014-05-17T12:33:32Z</time>
      </trkpt>
      <trkpt lat="40.216717" lon="-4.927033">
        <ele>1981.0</ele>
        <time>2014-05-17T12:33:33Z</time>
      </trkpt>
      <trkpt lat="40.216733" lon="-4.927217">
        <ele>1981.0</ele>
        <time>2014-05-17T12:33:34Z</time>
      </trkpt>
      <trkpt lat="40.216767" lon="-4.927383">
        <ele>1983.0</ele>
        <time>2014-05-17T12:33:35Z</time>
      </trkpt>
      <trkpt lat="40.216833" lon="-4.927517">
        <ele>1985.0</ele>
        <time>2014-05-17T12:33:36Z</time>
      </trkpt>
      <trkpt lat="40.216900" lon="-4.927617">
        <ele>1987.0</ele>
        <time>2014-05-17T12:33:37Z</time>
      </trkpt>
      <trkpt lat="40.216967" lon="-4.927700">
        <ele>1989.0</ele>
        <time>2014-05-17T12:33:38Z</time>
      </trkpt>
      <trkpt lat="40.217033" lon="-4.927783">
        <ele>1991.0</ele>
        <time>2014-05-17T12:33:39Z</time>
      </trkpt>
      <trkpt lat="40.217117" lon="-4.927850">
        <ele>1993.0</ele>
        <time>2014-05-17T12:33:40Z</time>
      </trkpt>
      <trkpt lat="40.217200" lon="-4.927900">
        <ele>1995.0</ele>
        <time>2014-05-17T12:33:41Z</time>
      </trkpt>
      <trkpt lat="40.217283" lon="-4.927917">
        <ele>1997.0</ele>
        <time>2014-05-17T12:33:42Z</time>
      </trkpt>
      <trkpt lat="40.217367" lon="-4.927917">
        <ele>1999.0</ele>
        <time>2014-05-17T12:33:43Z</time>
      </trkpt>
      <trkpt lat="40.217433" lon="-4.927883">
        <ele>2001.0</ele>
        <time>2014-05-17T12:33:44Z</time>
      </trkpt>
      <trkpt lat="40.217550" lon="-4.927783">
        <ele>2005.0</ele>
        <time>2014-05-17T12:33:46Z</time>
      </trkpt>
      <trkpt lat="40.217583" lon="-4.927717">
        <ele>2007.0</ele>
        <time>2014-05-17T12:33:47Z</time>
      </trkpt>
      <trkpt lat="40.217583" lon="-4.927567">
        <ele>2010.0</ele>
        <time>2014-05-17T12:33:49Z</time>
      </trkpt>
      <trkpt lat="40.217550" lon="-4.927517">
        <ele>2012.0</ele>
        <time>2014-05-17T12:33:50Z</time>
      </trkpt>
      <trkpt lat="40.217517" lon="-4.927467">
        <ele>2014.0</ele>
        <time>2014-05-17T12:33:51Z</time>
      </trkpt>
      <trkpt lat="40.217483" lon="-4.927433">
        <ele>2016.0</ele>
        <time>2014-05-17T12:33:52Z</time>
      </trkpt>
      <trkpt lat="40.217433" lon="-4.927417">
        <ele>2018.0</ele>
        <time>2014-05-17T12:33:53Z</time>
      </trkpt>
      <trkpt lat="40.217367" lon="-4.927400">
        <ele>2019.0</ele>
        <time>2014-05-17T12:33:54Z</time>
      </trkpt>
      <trkpt lat="40.217283" lon="-4.927417">
        <ele>2020.0</ele>
        <time>2014-05-17T12:33:55Z</time>
      </trkpt>
      <trkpt lat="40.217200" lon="-4.927450">
        <ele>2021.0</ele>
        <time>2014-05-17T12:33:56Z</time>
      </trkpt>
      <trkpt lat="40.217117" lon="-4.927517">
        <ele>2023.0</ele>
        <time>2014-05-17T12:33:57Z</time>
      </trkpt>
      <trkpt lat="40.217033" lon="-4.927583">
        <ele>2025.0</ele>
        <time>2014-05-17T12:33:58Z</time>
      </trkpt>
      <trkpt lat="40.216967" lon="-4.927683">
        <ele>2027.0</ele>
        <time>2014-05-17T12:33:59Z</time>
      </trkpt>
      <trkpt lat="40.216917" lon="-4.927800">
        <ele>2028.0</ele>
        <time>2014-05-17T12:34:00Z</time>
      </trkpt>
      <trkpt lat="40.216867" lon="-4.927933">
        <ele>2029.0</ele>
        <time>2014-05-17T12:34:01Z</time>
      </trkpt>
      <trkpt lat="40.216833" lon="-4.928083">
        <ele>2030.0</ele>
        <time>2014-05-17T12:34:02Z</time>
      </trkpt>
      <trkpt lat="40.216817" lon="-4.928250">
        <ele>2031.0</ele>
        <time>2014-05-17T12:34:03Z</time>
      </trkpt>
      <trkpt lat="40.216817" lon="-4.928417">
        <ele>2032.0</ele>
        <time>2014-05-17T12:34:04Z</time>
      </trkpt>
      <trkpt lat="40.216833" lon="-4.928567">
        <ele>2033.0</ele>
        <time>2014-05-17T12:34:05Z</time>
      </trkpt>
      <trkpt lat="40.216867" lon="-4.928700">
        <ele>2035.0</ele>
        <time>2014-05-17T12:34:06Z</time>
      </trkpt>
      <trkpt lat="40.216933" lon="-4.928817">
        <ele>2036.0</ele>
        <time>2014-05-17T12:34:07Z</time>
      </trkpt>
      <trkpt lat="40.217017" lon="-4.928917">
        <ele>2037.0</ele>
        <time>2014-05-17T12:34:08Z</time>
      </trkpt>
      <trkpt lat="40.217100" lon="-4.928983">
        <ele>2038.0</ele>
        <time>2014-05-17T12:34:09Z</time>
      </trkpt>
      <trkpt lat="40.217183" lon="-4.929033">
        <ele>2040.0</ele>
        <time>2014-05-17T12:34:10Z</time>
      </trkpt>
      <trkpt lat="40.217267" lon="-4.929067">
        <ele>2042.0</ele>
        <time>2014-05-17T12:34:11Z</time>
      </trkpt>
      <trkpt lat="40.217350" lon="-4.929067">
        <ele>2044.0</ele>
        <time>2014-05-17T12:34:12Z</time>
      </trkpt>
      <trkpt lat="40.217400" lon="-4.929050">
        <ele>2045.0</ele>
        <time>2014-05-17T12:34:13Z</time>
      </trkpt>
      <trkpt lat="40.217467" lon="-4.929017">
        <ele>2047.0</ele>
        <time>2014-05-17T12:34:14Z</time>
      </trkpt>
      <trkpt lat="40.217500" lon="-4.928967">
        <ele>2049.0</ele>
        <time>2014-05-17T12:34:15Z</time>
      </trkpt>
      <trkpt lat="40.217500" lon="-4.928900">
        <ele>2050.0</ele>
        <time>2014-05-17T12:34:16Z</time>
      </trkpt>
      <trkpt lat="40.217500" lon="-4.928833">
        <ele>2051.0</ele>
        <time>2014-05-17T12:34:17Z</time>
      </trkpt>
      <trkpt lat="40.217467" lon="-4.928783">
        <ele>2053.0</ele>
        <time>2014-05-17T12:34:18Z</time>
      </trkpt>
      <trkpt lat="40.217433" lon="-4.928733">
        <ele>2054.0</ele>
        <time>2014-05-17T12:34:19Z</time>
      </trkpt>
      <trkpt lat="40.217367" lon="-4.928717">
        <ele>2056.0</ele>
        <time>2014-05-17T12:34:20Z</time>
      </trkpt>
      <trkpt lat="40.217300" lon="-4.928717">
        <ele>2057.0</ele>
        <time>2014-05-17T12:34:21Z</time>
      </trkpt>
      <trkpt lat="40.217233" lon="-4.928733">
        <ele>2059.0</ele>
        <time>2014-05-17T12:34:22Z</time>
      </trkpt>
      <trkpt lat="40.217150" lon="-4.928800">
        <ele>2060.0</ele>
        <time>2014-05-17T12:34:23Z</time>
      </trkpt>
      <trkpt lat="40.217067" lon="-4.928867">
        <ele>2061.0</ele>
        <time>2014-05-17T12:34:24Z</time>
      </trkpt>
      <trkpt lat="40.217000" lon="-4.928950">
        <ele>2062.0</ele>
        <time>2014-05-17T12:34:25Z</time>
      </trkpt>
      <trkpt lat="40.216933" lon="-4.929067">
        <ele>2063.0</ele>
        <time>2014-05-17T12:34:26Z</time>
      </trkpt>
      <trkpt lat="40.216883" lon="-4.929183">
        <ele>2064.0</ele>
        <time>2014-05-17T12:34:27Z</time>
      </trkpt>
      <trkpt lat="40.216833" lon="-4.929333">
        <ele>2064.0</ele>
        <time>2014-05-17T12:34:28Z</time>
      </trkpt>
      <trkpt lat="40.216817" lon="-4.929483">
        <ele>2065.0</ele>
        <time>2014-05-17T12:34:29Z</time>
      </trkpt>
      <trkpt lat="40.216800" lon="-4.929650">
        <ele>2066.0</ele>
        <time>2014-05-17T12:34:30Z</time>
      </trkpt>
      <trkpt lat="40.216817" lon="-4.929817">
        <ele>2066.0</ele>
        <time>2014-05-17T12:34:31Z</time>
      </trkpt>
      <trkpt lat="40.216850" lon="-4.929967">
        <ele>2067.0</ele>
        <time>2014-05-17T12:34:32Z</time>
      </trkpt>
      <trkpt lat="40.216883" lon="-4.930100">
        <ele>2068.0</ele>
        <time>2014-05-17T12:34:33Z</time>
      </trkpt>
      <trkpt lat="40.216950" lon="-4.930250">
        <ele>2069.0</ele>
        <time>2014-05-17T12:34:34Z</time>
      </trkpt>
      <trkpt lat="40.217017" lon="-4.930367">
        <ele>2071.0</ele>
        <time>2014-05-17T12:34:35Z</time>
      </trkpt>
      <trkpt lat="40.217100" lon="-4.930483">
        <ele>2073.0</ele>
        <time>2014-05-17T12:34:36Z</time>
      </trkpt>
      <trkpt lat="40.217167" lon="-4.930583">
        <ele>2075.0</ele>
        <time>2014-05-17T12:34:37Z</time>
      </trkpt>
      <trkpt lat="40.217233" lon="-4.930667">
        <ele>2077.0</ele>
        <time>2014-05-17T12:34:38Z</time>
      </trkpt>
      <trkpt lat="40.217300" lon="-4.930750">
        <ele>2080.0</ele>
        <time>2014-05-17T12:34:39Z</time>
      </trkpt>
      <trkpt lat="40.217383" lon="-4.930817">
        <ele>2082.0</ele>
        <time>2014-05-17T12:34:40Z</time>
      </trkpt>
      <trkpt lat="40.217450" lon="-4.930867">
        <ele>2084.0</ele>
        <time>2014-05-17T12:34:41Z</time>
      </trkpt>
      <trkpt lat="40.217533" lon="-4.930883">
        <ele>2086.0</ele>
        <time>2014-05-17T12:34:42Z</time>
      </trkpt>
      <trkpt lat="40.217600" lon="-4.930867">
        <ele>2087.0</ele>
        <time>2014-05-17T12:34:43Z</time>
      </trkpt>
      <trkpt lat="40.217667" lon="-4.930817">
        <ele>2088.0</ele>
        <time>2014-05-17T12:34:44Z</time>
      </trkpt>
      <trkpt lat="40.217700" lon="-4.930767">
        <ele>2089.0</ele>
        <time>2014-05-17T12:34:45Z</time>
      </trkpt>
      <trkpt lat="40.217717" lon="-4.930717">
        <ele>2091.0</ele>
        <time>2014-05-17T12:34:46Z</time>
      </trkpt>
      <trkpt lat="40.217733" lon="-4.930650">
        <ele>2093.0</ele>
        <time>2014-05-17T12:34:47Z</time>
      </trkpt>
      <trkpt lat="40.217750" lon="-4.930583">
        <ele>2094.0</ele>
        <time>2014-05-17T12:34:48Z</time>
      </trkpt>
      <trkpt lat="40.217733" lon="-4.930500">
        <ele>2095.0</ele>
        <time>2014-05-17T12:34:49Z</time>
      </trkpt>
      <trkpt lat="40.217717" lon="-4.930433">
        <ele>2096.0</ele>
        <time>2014-05-17T12:34:50Z</time>
      </trkpt>
      <trkpt lat="40.217683" lon="-4.930400">
        <ele>2098.0</ele>
        <time>2014-05-17T12:34:51Z</time>
      </trkpt>
      <trkpt lat="40.217650" lon="-4.930367">
        <ele>2101.0</ele>
        <time>2014-05-17T12:34:52Z</time>
      </trkpt>
      <trkpt lat="40.217617" lon="-4.930350">
        <ele>2102.0</ele>
        <time>2014-05-17T12:34:53Z</time>
      </trkpt>
      <trkpt lat="40.217567" lon="-4.930317">
        <ele>2104.0</ele>
        <time>2014-05-17T12:34:54Z</time>
      </trkpt>
      <trkpt lat="40.217467" lon="-4.930217">
        <ele>2104.0</ele>
        <time>2014-05-17T12:34:56Z</time>
      </trkpt>
      <trkpt lat="40.217417" lon="-4.930200">
        <ele>2105.0</ele>
        <time>2014-05-17T12:34:57Z</time>
      </trkpt>
      <trkpt lat="40.217350" lon="-4.930200">
        <ele>2106.0</ele>
        <time>2014-05-17T12:34:58Z</time>
      </trkpt>
      <trkpt lat="40.217267" lon="-4.930217">
        <ele>2107.0</ele>
        <time>2014-05-17T12:34:59Z</time>
      </trkpt>
      <trkpt lat="40.217200" lon="-4.930233">
        <ele>2107.0</ele>
        <time>2014-05-17T12:35:00Z</time>
      </trkpt>
      <trkpt lat="40.217117" lon="-4.930250">
        <ele>2108.0</ele>
        <time>2014-05-17T12:35:01Z</time>
      </trkpt>
      <trkpt lat="40.217050" lon="-4.930267">
        <ele>2109.0</ele>
        <time>2014-05-17T12:35:02Z</time>
      </trkpt>
      <trkpt lat="40.216967" lon="-4.930300">
        <ele>2111.0</ele>
        <time>2014-05-17T12:35:03Z</time>
      </trkpt>
      <trkpt lat="40.216900" lon="-4.930367">
        <ele>2113.0</ele>
        <time>2014-05-17T12:35:04Z</time>
      </trkpt>
      <trkpt lat="40.216833" lon="-4.930450">
        <ele>2115.0</ele>
        <time>2014-05-17T12:35:05Z</time>
      </trkpt>
      <trkpt lat="40.216783" lon="-4.930550">
        <ele>2115.0</ele>
        <time>2014-05-17T12:35:06Z</time>
      </trkpt>
      <trkpt lat="40.216733" lon="-4.930700">
        <ele>2115.0</ele>
        <time>2014-05-17T12:35:07Z</time>
      </trkpt>
      <trkpt lat="40.216683" lon="-4.930850">
        <ele>2115.0</ele>
        <time>2014-05-17T12:35:08Z</time>
      </trkpt>
      <trkpt lat="40.216633" lon="-4.930983">
        <ele>2115.0</ele>
        <time>2014-05-17T12:35:09Z</time>
      </trkpt>
      <trkpt lat="40.216583" lon="-4.931100">
        <ele>2116.0</ele>
        <time>2014-05-17T12:35:10Z</time>
      </trkpt>
      <trkpt lat="40.216550" lon="-4.931217">
        <ele>2118.0</ele>
        <time>2014-05-17T12:35:11Z</time>
      </trkpt>
      <trkpt lat="40.216517" lon="-4.931350">
        <ele>2118.0</ele>
        <time>2014-05-17T12:35:12Z</time>
      </trkpt>
      <trkpt lat="40.216550" lon="-4.931683">
        <ele>2117.0</ele>
        <time>2014-05-17T12:35:14Z</time>
      </trkpt>
      <trkpt lat="40.216600" lon="-4.931833">
        <ele>2116.0</ele>
        <time>2014-05-17T12:35:15Z</time>
      </trkpt>
      <trkpt lat="40.216667" lon="-4.931967">
        <ele>2118.0</ele>
        <time>2014-05-17T12:35:16Z</time>
      </trkpt>
      <trkpt lat="40.216717" lon="-4.932067">
        <ele>2122.0</ele>
        <time>2014-05-17T12:35:17Z</time>
      </trkpt>
      <trkpt lat="40.216767" lon="-4.932150">
        <ele>2124.0</ele>
        <time>2014-05-17T12:35:18Z</time>
      </trkpt>
      <trkpt lat="40.216833" lon="-4.932233">
        <ele>2126.0</ele>
        <time>2014-05-17T12:35:19Z</time>
      </trkpt>
      <trkpt lat="40.216900" lon="-4.932317">
        <ele>2128.0</ele>
        <time>2014-05-17T12:35:20Z</time>
      </trkpt>
      <trkpt lat="40.216983" lon="-4.932367">
        <ele>2128.0</ele>
        <time>2014-05-17T12:35:21Z</time>
      </trkpt>
      <trkpt lat="40.217067" lon="-4.932400">
        <ele>2129.0</ele>
        <time>2014-05-17T12:35:22Z</time>
      </trkpt>
      <trkpt lat="40.217133" lon="-4.932417">
        <ele>2131.0</ele>
        <time>2014-05-17T12:35:23Z</time>
      </trkpt>
      <trkpt lat="40.217200" lon="-4.932433">
        <ele>2133.0</ele>
        <time>2014-05-17T12:35:24Z</time>
      </trkpt>
      <trkpt lat="40.217267" lon="-4.932417">
        <ele>2134.0</ele>
        <time>2014-05-17T12:35:25Z</time>
      </trkpt>
      <trkpt lat="40.217333" lon="-4.932417">
        <ele>2136.0</ele>
        <time>2014-05-17T12:35:26Z</time>
      </trkpt>
      <trkpt lat="40.217400" lon="-4.932383">
        <ele>2137.0</ele>
        <time>2014-05-17T12:35:27Z</time>
      </trkpt>
      <trkpt lat="40.217450" lon="-4.932350">
        <ele>2138.0</ele>
        <time>2014-05-17T12:35:28Z</time>
      </trkpt>
      <trkpt lat="40.217483" lon="-4.932283">
        <ele>2140.0</ele>
        <time>2014-05-17T12:35:29Z</time>
      </trkpt>
      <trkpt lat="40.217517" lon="-4.932217">
        <ele>2142.0</ele>
        <time>2014-05-17T12:35:30Z</time>
      </trkpt>
      <trkpt lat="40.217517" lon="-4.932150">
        <ele>2144.0</ele>
        <time>2014-05-17T12:35:31Z</time>
      </trkpt>
      <trkpt lat="40.217533" lon="-4.932017">
        <ele>2147.0</ele>
        <time>2014-05-17T12:35:33Z</time>
      </trkpt>
      <trkpt lat="40.217517" lon="-4.931933">
        <ele>2148.0</ele>
        <time>2014-05-17T12:35:34Z</time>
      </trkpt>
      <trkpt lat="40.217483" lon="-4.931867">
        <ele>2148.0</ele>
        <time>2014-05-17T12:35:35Z</time>
      </trkpt>
      <trkpt lat="40.217450" lon="-4.931800">
        <ele>2148.0</ele>
        <time>2014-05-17T12:35:36Z</time>
      </trkpt>
      <trkpt lat="40.217400" lon="-4.931750">
        <ele>2148.0</ele>
        <time>2014-05-17T12:35:37Z</time>
      </trkpt>
      <trkpt lat="40.217350" lon="-4.931717">
        <ele>2148.0</ele>
        <time>2014-05-17T12:35:38Z</time>
      </trkpt>
      <trkpt lat="40.217300" lon="-4.931667">
        <ele>2149.0</ele>
        <time>2014-05-17T12:35:39Z</time>
      </trkpt>
      <trkpt lat="40.217233" lon="-4.931650">
        <ele>2149.0</ele>
        <time>2014-05-17T12:35:40Z</time>
      </trkpt>
      <trkpt lat="40.217150" lon="-4.931617">
        <ele>2149.0</ele>
        <time>2014-05-17T12:35:41Z</time>
      </trkpt>
      <trkpt lat="40.217017" lon="-4.931567">
        <ele>2150.0</ele>
        <time>2014-05-17T12:35:43Z</time>
      </trkpt>
      <trkpt lat="40.216950" lon="-4.931533">
        <ele>2152.0</ele>
        <time>2014-05-17T12:35:44Z</time>
      </trkpt>
      <trkpt lat="40.216883" lon="-4.931533">
        <ele>2154.0</ele>
        <time>2014-05-17T12:35:45Z</time>
      </trkpt>
      <trkpt lat="40.216800" lon="-4.931533">
        <ele>2155.0</ele>
        <time>2014-05-17T12:35:46Z</time>
      </trkpt>
      <trkpt lat="40.216717" lon="-4.931550">
        <ele>2157.0</ele>
        <time>2014-05-17T12:35:47Z</time>
      </trkpt>
      <trkpt lat="40.216650" lon="-4.931567">
        <ele>2158.0</ele>
        <time>2014-05-17T12:35:48Z</time>
      </trkpt>
      <trkpt lat="40.216567" lon="-4.931600">
        <ele>2160.0</ele>
        <time>2014-05-17T12:35:49Z</time>
      </trkpt>
      <trkpt lat="40.216483" lon="-4.931617">
        <ele>2161.0</ele>
        <time>2014-05-17T12:35:50Z</time>
      </trkpt>
      <trkpt lat="40.216400" lon="-4.931667">
        <ele>2162.0</ele>
        <time>2014-05-17T12:35:51Z</time>
      </trkpt>
      <trkpt lat="40.216317" lon="-4.931733">
        <ele>2164.0</ele>
        <time>2014-05-17T12:35:52Z</time>
      </trkpt>
      <trkpt lat="40.216250" lon="-4.931817">
        <ele>2165.0</ele>
        <time>2014-05-17T12:35:53Z</time>
      </trkpt>
      <trkpt lat="40.216183" lon="-4.931917">
        <ele>2166.0</ele>
        <time>2014-05-17T12:35:54Z</time>
      </trkpt>
      <trkpt lat="40.216117" lon="-4.932033">
        <ele>2166.0</ele>
        <time>2014-05-17T12:35:55Z</time>
      </trkpt>
      <trkpt lat="40.216050" lon="-4.932167">
        <ele>2167.0</ele>
        <time>2014-05-17T12:35:56Z</time>
      </trkpt>
      <trkpt lat="40.216000" lon="-4.932300">
        <ele>2168.0</ele>
        <time>2014-05-17T12:35:57Z</time>
      </trkpt>
      <trkpt lat="40.215967" lon="-4.932433">
        <ele>2170.0</ele>
        <time>2014-05-17T12:35:58Z</time>
      </trkpt>
      <trkpt lat="40.215950" lon="-4.932583">
        <ele>2171.0</ele>
        <time>2014-05-17T12:35:59Z</time>
      </trkpt>
      <trkpt lat="40.215933" lon="-4.932733">
        <ele>2172.0</ele>
        <time>2014-05-17T12:36:00Z</time>
      </trkpt>
      <trkpt lat="40.215933" lon="-4.932883">
        <ele>2173.0</ele>
        <time>2014-05-17T12:36:01Z</time>
      </trkpt>
      <trkpt lat="40.215950" lon="-4.933033">
        <ele>2174.0</ele>
        <time>2014-05-17T12:36:02Z</time>
      </trkpt>
      <trkpt lat="40.215983" lon="-4.933167">
        <ele>2176.0</ele>
        <time>2014-05-17T12:36:03Z</time>
      </trkpt>
      <trkpt lat="40.216050" lon="-4.933267">
        <ele>2178.0</ele>
        <time>2014-05-17T12:36:04Z</time>
      </trkpt>
      <trkpt lat="40.216117" lon="-4.933333">
        <ele>2180.0</ele>
        <time>2014-05-17T12:36:05Z</time>
      </trkpt>
      <trkpt lat="40.216200" lon="-4.933383">
        <ele>2181.0</ele>
        <time>2014-05-17T12:36:06Z</time>
      </trkpt>
      <trkpt lat="40.216267" lon="-4.933433">
        <ele>2182.0</ele>
        <time>2014-05-17T12:36:07Z</time>
      </trkpt>
      <trkpt lat="40.216333" lon="-4.933467">
        <ele>2184.0</ele>
        <time>2014-05-17T12:36:08Z</time>
      </trkpt>
      <trkpt lat="40.216400" lon="-4.933483">
        <ele>2185.0</ele>
        <time>2014-05-17T12:36:09Z</time>
      </trkpt>
      <trkpt lat="40.216617" lon="-4.933400">
        <ele>2183.0</ele>
        <time>2014-05-17T12:36:12Z</time>
      </trkpt>
      <trkpt lat="40.216683" lon="-4.933367">
        <ele>2183.0</ele>
        <time>2014-05-17T12:36:13Z</time>
      </trkpt>
      <trkpt lat="40.216717" lon="-4.933317">
        <ele>2184.0</ele>
        <time>2014-05-17T12:36:14Z</time>
      </trkpt>
      <trkpt lat="40.216750" lon="-4.933250">
        <ele>2185.0</ele>
        <time>2014-05-17T12:36:15Z</time>
      </trkpt>
      <trkpt lat="40.216783" lon="-4.933167">
        <ele>2185.0</ele>
        <time>2014-05-17T12:36:16Z</time>
      </trkpt>
      <trkpt lat="40.216817" lon="-4.933067">
        <ele>2184.0</ele>
        <time>2014-05-17T12:36:17Z</time>
      </trkpt>
      <trkpt lat="40.216817" lon="-4.932900">
        <ele>2184.0</ele>
        <time>2014-05-17T12:36:19Z</time>
      </trkpt>
      <trkpt lat="40.216783" lon="-4.932850">
        <ele>2185.0</ele>
        <time>2014-05-17T12:36:20Z</time>
      </trkpt>
      <trkpt lat="40.216733" lon="-4.932817">
        <ele>2187.0</ele>
        <time>2014-05-17T12:36:21Z</time>
      </trkpt>
      <trkpt lat="40.216683" lon="-4.932800">
        <ele>2188.0</ele>
        <time>2014-05-17T12:36:22Z</time>
      </trkpt>
      <trkpt lat="40.216633" lon="-4.932767">
        <ele>2189.0</ele>
        <time>2014-05-17T12:36:23Z</time>
      </trkpt>
      <trkpt lat="40.216567" lon="-4.932733">
        <ele>2190.0</ele>
        <time>2014-05-17T12:36:24Z</time>
      </trkpt>
      <trkpt lat="40.216517" lon="-4.932717">
        <ele>2191.0</ele>
        <time>2014-05-17T12:36:25Z</time>
      </trkpt>
      <trkpt lat="40.216450" lon="-4.932717">
        <ele>2193.0</ele>
        <time>2014-05-17T12:36:26Z</time>
      </trkpt>
      <trkpt lat="40.216383" lon="-4.932717">
        <ele>2193.0</ele>
        <time>2014-05-17T12:36:27Z</time>
      </trkpt>
      <trkpt lat="40.216300" lon="-4.932733">
        <ele>2193.0</ele>
        <time>2014-05-17T12:36:28Z</time>
      </trkpt>
      <trkpt lat="40.216217" lon="-4.932783">
        <ele>2193.0</ele>
        <time>2014-05-17T12:36:29Z</time>
      </trkpt>
      <trkpt lat="40.216133" lon="-4.932867">
        <ele>2192.0</ele>
        <time>2014-05-17T12:36:30Z</time>
      </trkpt>
      <trkpt lat="40.216033" lon="-4.932967">
        <ele>2192.0</ele>
        <time>2014-05-17T12:36:31Z</time>
      </trkpt>
      <trkpt lat="40.215950" lon="-4.933050">
        <ele>2194.0</ele>
        <time>2014-05-17T12:36:32Z</time>
      </trkpt>
      <trkpt lat="40.215867" lon="-4.933133">
        <ele>2197.0</ele>
        <time>2014-05-17T12:36:33Z</time>
      </trkpt>
      <trkpt lat="40.215800" lon="-4.933217">
        <ele>2199.0</ele>
        <time>2014-05-17T12:36:34Z</time>
      </trkpt>
      <trkpt lat="40.215733" lon="-4.933300">
        <ele>2199.0</ele>
        <time>2014-05-17T12:36:35Z</time>
      </trkpt>
      <trkpt lat="40.215667" lon="-4.933383">
        <ele>2199.0</ele>
        <time>2014-05-17T12:36:36Z</time>
      </trkpt>
      <trkpt lat="40.215567" lon="-4.933483">
        <ele>2198.0</ele>
        <time>2014-05-17T12:36:37Z</time>
      </trkpt>
      <trkpt lat="40.215483" lon="-4.933583">
        <ele>2198.0</ele>
        <time>2014-05-17T12:36:38Z</time>
      </trkpt>
      <trkpt lat="40.215400" lon="-4.933667">
        <ele>2201.0</ele>
        <time>2014-05-17T12:36:39Z</time>
      </trkpt>
      <trkpt lat="40.215350" lon="-4.933750">
        <ele>2203.0</ele>
        <time>2014-05-17T12:36:40Z</time>
      </trkpt>
      <trkpt lat="40.215300" lon="-4.933833">
        <ele>2206.0</ele>
        <time>2014-05-17T12:36:41Z</time>
      </trkpt>
      <trkpt lat="40.215250" lon="-4.933950">
        <ele>2206.0</ele>
        <time>2014-05-17T12:36:42Z</time>
      </trkpt>
      <trkpt lat="40.215200" lon="-4.934083">
        <ele>2206.0</ele>
        <time>2014-05-17T12:36:43Z</time>
      </trkpt>
      <trkpt lat="40.215167" lon="-4.934217">
        <ele>2205.0</ele>
        <time>2014-05-17T12:36:44Z</time>
      </trkpt>
      <trkpt lat="40.215150" lon="-4.934367">
        <ele>2206.0</ele>
        <time>2014-05-17T12:36:45Z</time>
      </trkpt>
      <trkpt lat="40.215100" lon="-4.934483">
        <ele>2206.0</ele>
        <time>2014-05-17T12:36:46Z</time>
      </trkpt>
      <trkpt lat="40.215050" lon="-4.934600">
        <ele>2206.0</ele>
        <time>2014-05-17T12:36:47Z</time>
      </trkpt>
      <trkpt lat="40.214983" lon="-4.934717">
        <ele>2207.0</ele>
        <time>2014-05-17T12:36:48Z</time>
      </trkpt>
      <trkpt lat="40.214933" lon="-4.934833">
        <ele>2207.0</ele>
        <time>2014-05-17T12:36:49Z</time>
      </trkpt>
      <trkpt lat="40.214883" lon="-4.934967">
        <ele>2206.0</ele>
        <time>2014-05-17T12:36:50Z</time>
      </trkpt>
      <trkpt lat="40.214833" lon="-4.935117">
        <ele>2206.0</ele>
        <time>2014-05-17T12:36:51Z</time>
      </trkpt>
      <trkpt lat="40.214783" lon="-4.935267">
        <ele>2205.0</ele>
        <time>2014-05-17T12:36:52Z</time>
      </trkpt>
      <trkpt lat="40.214717" lon="-4.935400">
        <ele>2206.0</ele>
        <time>2014-05-17T12:36:53Z</time>
      </trkpt>
      <trkpt lat="40.214667" lon="-4.935533">
        <ele>2208.0</ele>
        <time>2014-05-17T12:36:54Z</time>
      </trkpt>
      <trkpt lat="40.214617" lon="-4.935650">
        <ele>2210.0</ele>
        <time>2014-05-17T12:36:55Z</time>
      </trkpt>
      <trkpt lat="40.214567" lon="-4.935783">
        <ele>2211.0</ele>
        <time>2014-05-17T12:36:56Z</time>
      </trkpt>
      <trkpt lat="40.214500" lon="-4.935933">
        <ele>2212.0</ele>
        <time>2014-05-17T12:36:57Z</time>
      </trkpt>
      <trkpt lat="40.214467" lon="-4.936083">
        <ele>2214.0</ele>
        <time>2014-05-17T12:36:58Z</time>
      </trkpt>
      <trkpt lat="40.214433" lon="-4.936233">
        <ele>2215.0</ele>
        <time>2014-05-17T12:36:59Z</time>
      </trkpt>
      <trkpt lat="40.214450" lon="-4.936367">
        <ele>2217.0</ele>
        <time>2014-05-17T12:37:00Z</time>
      </trkpt>
      <trkpt lat="40.214483" lon="-4.936500">
        <ele>2218.0</ele>
        <time>2014-05-17T12:37:01Z</time>
      </trkpt>
      <trkpt lat="40.214533" lon="-4.936600">
        <ele>2219.0</ele>
        <time>2014-05-17T12:37:02Z</time>
      </trkpt>
      <trkpt lat="40.214600" lon="-4.936700">
        <ele>2219.0</ele>
        <time>2014-05-17T12:37:03Z</time>
      </trkpt>
      <trkpt lat="40.214683" lon="-4.936783">
        <ele>2220.0</ele>
        <time>2014-05-17T12:37:04Z</time>
      </trkpt>
      <trkpt lat="40.214750" lon="-4.936833">
        <ele>2222.0</ele>
        <time>2014-05-17T12:37:05Z</time>
      </trkpt>
      <trkpt lat="40.214817" lon="-4.936833">
        <ele>2223.0</ele>
        <time>2014-05-17T12:37:06Z</time>
      </trkpt>
      <trkpt lat="40.214883" lon="-4.936817">
        <ele>2225.0</ele>
        <time>2014-05-17T12:37:07Z</time>
      </trkpt>
      <trkpt lat="40.214933" lon="-4.936767">
        <ele>2227.0</ele>
        <time>2014-05-17T12:37:08Z</time>
      </trkpt>
      <trkpt lat="40.214950" lon="-4.936650">
        <ele>2231.0</ele>
        <time>2014-05-17T12:37:10Z</time>
      </trkpt>
      <trkpt lat="40.214933" lon="-4.936583">
        <ele>2232.0</ele>
        <time>2014-05-17T12:37:11Z</time>
      </trkpt>
      <trkpt lat="40.214917" lon="-4.936533">
        <ele>2234.0</ele>
        <time>2014-05-17T12:37:12Z</time>
      </trkpt>
      <trkpt lat="40.214800" lon="-4.936433">
        <ele>2235.0</ele>
        <time>2014-05-17T12:37:14Z</time>
      </trkpt>
      <trkpt lat="40.214733" lon="-4.936400">
        <ele>2236.0</ele>
        <time>2014-05-17T12:37:15Z</time>
      </trkpt>
      <trkpt lat="40.214633" lon="-4.936400">
        <ele>2237.0</ele>
        <time>2014-05-17T12:37:16Z</time>
      </trkpt>
      <trkpt lat="40.214533" lon="-4.936417">
        <ele>2239.0</ele>
        <time>2014-05-17T12:37:17Z</time>
      </trkpt>
      <trkpt lat="40.214450" lon="-4.936483">
        <ele>2241.0</ele>
        <time>2014-05-17T12:37:18Z</time>
      </trkpt>
      <trkpt lat="40.214350" lon="-4.936550">
        <ele>2243.0</ele>
        <time>2014-05-17T12:37:19Z</time>
      </trkpt>
      <trkpt lat="40.214250" lon="-4.936617">
        <ele>2245.0</ele>
        <time>2014-05-17T12:37:20Z</time>
      </trkpt>
      <trkpt lat="40.214167" lon="-4.936700">
        <ele>2247.0</ele>
        <time>2014-05-17T12:37:21Z</time>
      </trkpt>
      <trkpt lat="40.214067" lon="-4.936783">
        <ele>2249.0</ele>
        <time>2014-05-17T12:37:22Z</time>
      </trkpt>
      <trkpt lat="40.213967" lon="-4.936867">
        <ele>2251.0</ele>
        <time>2014-05-17T12:37:23Z</time>
      </trkpt>
      <trkpt lat="40.213883" lon="-4.936967">
        <ele>2254.0</ele>
        <time>2014-05-17T12:37:24Z</time>
      </trkpt>
      <trkpt lat="40.213800" lon="-4.937067">
        <ele>2257.0</ele>
        <time>2014-05-17T12:37:25Z</time>
      </trkpt>
      <trkpt lat="40.213717" lon="-4.937200">
        <ele>2259.0</ele>
        <time>2014-05-17T12:37:26Z</time>
      </trkpt>
      <trkpt lat="40.213667" lon="-4.937333">
        <ele>2261.0</ele>
        <time>2014-05-17T12:37:27Z</time>
      </trkpt>
      <trkpt lat="40.213617" lon="-4.937483">
        <ele>2263.0</ele>
        <time>2014-05-17T12:37:28Z</time>
      </trkpt>
      <trkpt lat="40.213600" lon="-4.937650">
        <ele>2265.0</ele>
        <time>2014-05-17T12:37:29Z</time>
      </trkpt>
      <trkpt lat="40.213600" lon="-4.937800">
        <ele>2267.0</ele>
        <time>2014-05-17T12:37:30Z</time>
      </trkpt>
      <trkpt lat="40.213633" lon="-4.937950">
        <ele>2269.0</ele>
        <time>2014-05-17T12:37:31Z</time>
      </trkpt>
      <trkpt lat="40.213667" lon="-4.938067">
        <ele>2270.0</ele>
        <time>2014-05-17T12:37:32Z</time>
      </trkpt>
      <trkpt lat="40.213717" lon="-4.938167">
        <ele>2272.0</ele>
        <time>2014-05-17T12:37:33Z</time>
      </trkpt>
      <trkpt lat="40.213767" lon="-4.938250">
        <ele>2273.0</ele>
        <time>2014-05-17T12:37:34Z</time>
      </trkpt>
      <trkpt lat="40.213833" lon="-4.938300">
        <ele>2275.0</ele>
        <time>2014-05-17T12:37:35Z</time>
      </trkpt>
      <trkpt lat="40.213900" lon="-4.938333">
        <ele>2276.0</ele>
        <time>2014-05-17T12:37:36Z</time>
      </trkpt>
      <trkpt lat="40.214017" lon="-4.938300">
        <ele>2279.0</ele>
        <time>2014-05-17T12:37:38Z</time>
      </trkpt>
      <trkpt lat="40.214033" lon="-4.938233">
        <ele>2279.0</ele>
        <time>2014-05-17T12:37:39Z</time>
      </trkpt>
      <trkpt lat="40.214033" lon="-4.938167">
        <ele>2280.0</ele>
        <time>2014-05-17T12:37:40Z</time>
      </trkpt>
      <trkpt lat="40.214033" lon="-4.938117">
        <ele>2281.0</ele>
        <time>2014-05-17T12:37:41Z</time>
      </trkpt>
      <trkpt lat="40.213967" lon="-4.938033">
        <ele>2284.0</ele>
        <time>2014-05-17T12:37:43Z</time>
      </trkpt>
      <trkpt lat="40.213900" lon="-4.938000">
        <ele>2286.0</ele>
        <time>2014-05-17T12:37:44Z</time>
      </trkpt>
      <trkpt lat="40.213833" lon="-4.937983">
        <ele>2287.0</ele>
        <time>2014-05-17T12:37:45Z</time>
      </trkpt>
      <trkpt lat="40.213750" lon="-4.937967">
        <ele>2289.0</ele>
        <time>2014-05-17T12:37:46Z</time>
      </trkpt>
      <trkpt lat="40.213650" lon="-4.937967">
        <ele>2290.0</ele>
        <time>2014-05-17T12:37:47Z</time>
      </trkpt>
      <trkpt lat="40.213533" lon="-4.938000">
        <ele>2292.0</ele>
        <time>2014-05-17T12:37:48Z</time>
      </trkpt>
      <trkpt lat="40.213417" lon="-4.938033">
        <ele>2293.0</ele>
        <time>2014-05-17T12:37:49Z</time>
      </trkpt>
      <trkpt lat="40.213317" lon="-4.938083">
        <ele>2294.0</ele>
        <time>2014-05-17T12:37:50Z</time>
      </trkpt>
      <trkpt lat="40.213200" lon="-4.938133">
        <ele>2297.0</ele>
        <time>2014-05-17T12:37:51Z</time>
      </trkpt>
      <trkpt lat="40.213100" lon="-4.938167">
        <ele>2300.0</ele>
        <time>2014-05-17T12:37:52Z</time>
      </trkpt>
      <trkpt lat="40.213000" lon="-4.938217">
        <ele>2302.0</ele>
        <time>2014-05-17T12:37:53Z</time>
      </trkpt>
      <trkpt lat="40.212900" lon="-4.938283">
        <ele>2304.0</ele>
        <time>2014-05-17T12:37:54Z</time>
      </trkpt>
      <trkpt lat="40.212800" lon="-4.938367">
        <ele>2305.0</ele>
        <time>2014-05-17T12:37:55Z</time>
      </trkpt>
      <trkpt lat="40.212733" lon="-4.938467">
        <ele>2306.0</ele>
        <time>2014-05-17T12:37:56Z</time>
      </trkpt>
      <trkpt lat="40.212667" lon="-4.938567">
        <ele>2307.0</ele>
        <time>2014-05-17T12:37:57Z</time>
      </trkpt>
      <trkpt lat="40.212600" lon="-4.938667">
        <ele>2308.0</ele>
        <time>2014-05-17T12:37:58Z</time>
      </trkpt>
      <trkpt lat="40.212533" lon="-4.938800">
        <ele>2308.0</ele>
        <time>2014-05-17T12:37:59Z</time>
      </trkpt>
      <trkpt lat="40.212467" lon="-4.938950">
        <ele>2307.0</ele>
        <time>2014-05-17T12:38:00Z</time>
      </trkpt>
      <trkpt lat="40.212400" lon="-4.939083">
        <ele>2308.0</ele>
        <time>2014-05-17T12:38:01Z</time>
      </trkpt>
      <trkpt lat="40.212333" lon="-4.939217">
        <ele>2308.0</ele>
        <time>2014-05-17T12:38:02Z</time>
      </trkpt>
      <trkpt lat="40.212283" lon="-4.939350">
        <ele>2309.0</ele>
        <time>2014-05-17T12:38:03Z</time>
      </trkpt>
      <trkpt lat="40.212233" lon="-4.939483">
        <ele>2310.0</ele>
        <time>2014-05-17T12:38:04Z</time>
      </trkpt>
      <trkpt lat="40.212200" lon="-4.939617">
        <ele>2311.0</ele>
        <time>2014-05-17T12:38:05Z</time>
      </trkpt>
      <trkpt lat="40.212183" lon="-4.939750">
        <ele>2311.0</ele>
        <time>2014-05-17T12:38:06Z</time>
      </trkpt>
      <trkpt lat="40.212167" lon="-4.939900">
        <ele>2311.0</ele>
        <time>2014-05-17T12:38:07Z</time>
      </trkpt>
      <trkpt lat="40.212167" lon="-4.940050">
        <ele>2311.0</ele>
        <time>2014-05-17T12:38:08Z</time>
      </trkpt>
      <trkpt lat="40.212150" lon="-4.940200">
        <ele>2312.0</ele>
        <time>2014-05-17T12:38:09Z</time>
      </trkpt>
      <trkpt lat="40.212133" lon="-4.940350">
        <ele>2312.0</ele>
        <time>2014-05-17T12:38:10Z</time>
      </trkpt>
      <trkpt lat="40.212117" lon="-4.940500">
        <ele>2312.0</ele>
        <time>2014-05-17T12:38:11Z</time>
      </trkpt>
      <trkpt lat="40.212100" lon="-4.940650">
        <ele>2312.0</ele>
        <time>2014-05-17T12:38:12Z</time>
      </trkpt>
      <trkpt lat="40.212083" lon="-4.940817">
        <ele>2312.0</ele>
        <time>2014-05-17T12:38:13Z</time>
      </trkpt>
      <trkpt lat="40.212083" lon="-4.940983">
        <ele>2312.0</ele>
        <time>2014-05-17T12:38:14Z</time>
      </trkpt>
      <trkpt lat="40.212083" lon="-4.941150">
        <ele>2312.0</ele>
        <time>2014-05-17T12:38:15Z</time>
      </trkpt>
      <trkpt lat="40.212083" lon="-4.941300">
        <ele>2313.0</ele>
        <time>2014-05-17T12:38:16Z</time>
      </trkpt>
      <trkpt lat="40.212067" lon="-4.941417">
        <ele>2315.0</ele>
        <time>2014-05-17T12:38:17Z</time>
      </trkpt>
      <trkpt lat="40.212033" lon="-4.941550">
        <ele>2316.0</ele>
        <time>2014-05-17T12:38:18Z</time>
      </trkpt>
      <trkpt lat="40.212017" lon="-4.941683">
        <ele>2316.0</ele>
        <time>2014-05-17T12:38:19Z</time>
      </trkpt>
      <trkpt lat="40.212000" lon="-4.941850">
        <ele>2315.0</ele>
        <time>2014-05-17T12:38:20Z</time>
      </trkpt>
      <trkpt lat="40.211967" lon="-4.942017">
        <ele>2314.0</ele>
        <time>2014-05-17T12:38:21Z</time>
      </trkpt>
      <trkpt lat="40.211917" lon="-4.942167">
        <ele>2314.0</ele>
        <time>2014-05-17T12:38:22Z</time>
      </trkpt>
      <trkpt lat="40.211867" lon="-4.942317">
        <ele>2314.0</ele>
        <time>2014-05-17T12:38:23Z</time>
      </trkpt>
      <trkpt lat="40.211817" lon="-4.942467">
        <ele>2314.0</ele>
        <time>2014-05-17T12:38:24Z</time>
      </trkpt>
      <trkpt lat="40.211783" lon="-4.942617">
        <ele>2314.0</ele>
        <time>2014-05-17T12:38:25Z</time>
      </trkpt>
      <trkpt lat="40.211733" lon="-4.942767">
        <ele>2314.0</ele>
        <time>2014-05-17T12:38:26Z</time>
      </trkpt>
      <trkpt lat="40.211700" lon="-4.942933">
        <ele>2313.0</ele>
        <time>2014-05-17T12:38:27Z</time>
      </trkpt>
      <trkpt lat="40.211667" lon="-4.943083">
        <ele>2313.0</ele>
        <time>2014-05-17T12:38:28Z</time>
      </trkpt>
      <trkpt lat="40.211617" lon="-4.943250">
        <ele>2313.0</ele>
        <time>2014-05-17T12:38:29Z</time>
      </trkpt>
      <trkpt lat="40.211567" lon="-4.943400">
        <ele>2312.0</ele>
        <time>2014-05-17T12:38:30Z</time>
      </trkpt>
      <trkpt lat="40.211533" lon="-4.943567">
        <ele>2312.0</ele>
        <time>2014-05-17T12:38:31Z</time>
      </trkpt>
      <trkpt lat="40.211483" lon="-4.943717">
        <ele>2311.0</ele>
        <time>2014-05-17T12:38:32Z</time>
      </trkpt>
      <trkpt lat="40.211433" lon="-4.943883">
        <ele>2310.0</ele>
        <time>2014-05-17T12:38:33Z</time>
      </trkpt>
      <trkpt lat="40.211400" lon="-4.944050">
        <ele>2309.0</ele>
        <time>2014-05-17T12:38:34Z</time>
      </trkpt>
      <trkpt lat="40.211367" lon="-4.944233">
        <ele>2307.0</ele>
        <time>2014-05-17T12:38:35Z</time>
      </trkpt>
      <trkpt lat="40.211333" lon="-4.944417">
        <ele>2306.0</ele>
        <time>2014-05-17T12:38:36Z</time>
      </trkpt>
      <trkpt lat="40.211300" lon="-4.944583">
        <ele>2304.0</ele>
        <time>2014-05-17T12:38:37Z</time>
      </trkpt>
      <trkpt lat="40.211267" lon="-4.944750">
        <ele>2303.0</ele>
        <time>2014-05-17T12:38:38Z</time>
      </trkpt>
      <trkpt lat="40.211217" lon="-4.944917">
        <ele>2302.0</ele>
        <time>2014-05-17T12:38:39Z</time>
      </trkpt>
      <trkpt lat="40.211150" lon="-4.945067">
        <ele>2301.0</ele>
        <time>2014-05-17T12:38:40Z</time>
      </trkpt>
      <trkpt lat="40.211100" lon="-4.945233">
        <ele>2300.0</ele>
        <time>2014-05-17T12:38:41Z</time>
      </trkpt>
      <trkpt lat="40.211050" lon="-4.945400">
        <ele>2299.0</ele>
        <time>2014-05-17T12:38:42Z</time>
      </trkpt>
      <trkpt lat="40.211017" lon="-4.945550">
        <ele>2299.0</ele>
        <time>2014-05-17T12:38:43Z</time>
      </trkpt>
      <trkpt lat="40.210967" lon="-4.945700">
        <ele>2298.0</ele>
        <time>2014-05-17T12:38:44Z</time>
      </trkpt>
      <trkpt lat="40.210917" lon="-4.945867">
        <ele>2297.0</ele>
        <time>2014-05-17T12:38:45Z</time>
      </trkpt>
      <trkpt lat="40.210850" lon="-4.946017">
        <ele>2296.0</ele>
        <time>2014-05-17T12:38:46Z</time>
      </trkpt>
      <trkpt lat="40.210783" lon="-4.946183">
        <ele>2294.0</ele>
        <time>2014-05-17T12:38:47Z</time>
      </trkpt>
      <trkpt lat="40.210733" lon="-4.946350">
        <ele>2293.0</ele>
        <time>2014-05-17T12:38:48Z</time>
      </trkpt>
      <trkpt lat="40.210667" lon="-4.946500">
        <ele>2292.0</ele>
        <time>2014-05-17T12:38:49Z</time>
      </trkpt>
      <trkpt lat="40.210600" lon="-4.946650">
        <ele>2292.0</ele>
        <time>2014-05-17T12:38:50Z</time>
      </trkpt>
      <trkpt lat="40.210550" lon="-4.946800">
        <ele>2291.0</ele>
        <time>2014-05-17T12:38:51Z</time>
      </trkpt>
      <trkpt lat="40.210500" lon="-4.946933">
        <ele>2290.0</ele>
        <time>2014-05-17T12:38:52Z</time>
      </trkpt>
      <trkpt lat="40.210433" lon="-4.947083">
        <ele>2290.0</ele>
        <time>2014-05-17T12:38:53Z</time>
      </trkpt>
      <trkpt lat="40.210383" lon="-4.947217">
        <ele>2289.0</ele>
        <time>2014-05-17T12:38:54Z</time>
      </trkpt>
      <trkpt lat="40.210333" lon="-4.947367">
        <ele>2288.0</ele>
        <time>2014-05-17T12:38:55Z</time>
      </trkpt>
      <trkpt lat="40.210283" lon="-4.947500">
        <ele>2287.0</ele>
        <time>2014-05-17T12:38:56Z</time>
      </trkpt>
      <trkpt lat="40.210233" lon="-4.947633">
        <ele>2286.0</ele>
        <time>2014-05-17T12:38:57Z</time>
      </trkpt>
      <trkpt lat="40.210200" lon="-4.947800">
        <ele>2284.0</ele>
        <time>2014-05-17T12:38:58Z</time>
      </trkpt>
      <trkpt lat="40.210167" lon="-4.947983">
        <ele>2281.0</ele>
        <time>2014-05-17T12:38:59Z</time>
      </trkpt>
      <trkpt lat="40.210117" lon="-4.948167">
        <ele>2280.0</ele>
        <time>2014-05-17T12:39:00Z</time>
      </trkpt>
      <trkpt lat="40.210067" lon="-4.948333">
        <ele>2279.0</ele>
        <time>2014-05-17T12:39:01Z</time>
      </trkpt>
      <trkpt lat="40.210017" lon="-4.948500">
        <ele>2279.0</ele>
        <time>2014-05-17T12:39:02Z</time>
      </trkpt>
      <trkpt lat="40.209950" lon="-4.948650">
        <ele>2279.0</ele>
        <time>2014-05-17T12:39:03Z</time>
      </trkpt>
      <trkpt lat="40.209900" lon="-4.948817">
        <ele>2279.0</ele>
        <time>2014-05-17T12:39:04Z</time>
      </trkpt>
      <trkpt lat="40.209850" lon="-4.948983">
        <ele>2278.0</ele>
        <time>2014-05-17T12:39:05Z</time>
      </trkpt>
      <trkpt lat="40.209817" lon="-4.949150">
        <ele>2278.0</ele>
        <time>2014-05-17T12:39:06Z</time>
      </trkpt>
      <trkpt lat="40.209767" lon="-4.949317">
        <ele>2278.0</ele>
        <time>2014-05-17T12:39:07Z</time>
      </trkpt>
      <trkpt lat="40.209717" lon="-4.949467">
        <ele>2278.0</ele>
        <time>2014-05-17T12:39:08Z</time>
      </trkpt>
      <trkpt lat="40.209667" lon="-4.949617">
        <ele>2280.0</ele>
        <time>2014-05-17T12:39:09Z</time>
      </trkpt>
      <trkpt lat="40.209617" lon="-4.949750">
        <ele>2280.0</ele>
        <time>2014-05-17T12:39:10Z</time>
      </trkpt>
      <trkpt lat="40.209567" lon="-4.949917">
        <ele>2279.0</ele>
        <time>2014-05-17T12:39:11Z</time>
      </trkpt>
      <trkpt lat="40.209533" lon="-4.950067">
        <ele>2278.0</ele>
        <time>2014-05-17T12:39:12Z</time>
      </trkpt>
      <trkpt lat="40.209483" lon="-4.950217">
        <ele>2278.0</ele>
        <time>2014-05-17T12:39:13Z</time>
      </trkpt>
      <trkpt lat="40.209433" lon="-4.950367">
        <ele>2278.0</ele>
        <time>2014-05-17T12:39:14Z</time>
      </trkpt>
      <trkpt lat="40.209383" lon="-4.950500">
        <ele>2277.0</ele>
        <time>2014-05-17T12:39:15Z</time>
      </trkpt>
      <trkpt lat="40.209333" lon="-4.950650">
        <ele>2276.0</ele>
        <time>2014-05-17T12:39:16Z</time>
      </trkpt>
      <trkpt lat="40.209267" lon="-4.950800">
        <ele>2276.0</ele>
        <time>2014-05-17T12:39:17Z</time>
      </trkpt>
      <trkpt lat="40.209217" lon="-4.950967">
        <ele>2275.0</ele>
        <time>2014-05-17T12:39:18Z</time>
      </trkpt>
      <trkpt lat="40.209117" lon="-4.951250">
        <ele>2274.0</ele>
        <time>2014-05-17T12:39:20Z</time>
      </trkpt>
      <trkpt lat="40.209083" lon="-4.951400">
        <ele>2274.0</ele>
        <time>2014-05-17T12:39:21Z</time>
      </trkpt>
      <trkpt lat="40.209033" lon="-4.951533">
        <ele>2273.0</ele>
        <time>2014-05-17T12:39:22Z</time>
      </trkpt>
      <trkpt lat="40.208967" lon="-4.951683">
        <ele>2272.0</ele>
        <time>2014-05-17T12:39:23Z</time>
      </trkpt>
      <trkpt lat="40.208917" lon="-4.951817">
        <ele>2271.0</ele>
        <time>2014-05-17T12:39:24Z</time>
      </trkpt>
      <trkpt lat="40.208867" lon="-4.951950">
        <ele>2270.0</ele>
        <time>2014-05-17T12:39:25Z</time>
      </trkpt>
      <trkpt lat="40.208817" lon="-4.952083">
        <ele>2269.0</ele>
        <time>2014-05-17T12:39:26Z</time>
      </trkpt>
      <trkpt lat="40.208750" lon="-4.952217">
        <ele>2267.0</ele>
        <time>2014-05-17T12:39:27Z</time>
      </trkpt>
      <trkpt lat="40.208667" lon="-4.952333">
        <ele>2267.0</ele>
        <time>2014-05-17T12:39:28Z</time>
      </trkpt>
      <trkpt lat="40.208600" lon="-4.952450">
        <ele>2266.0</ele>
        <time>2014-05-17T12:39:29Z</time>
      </trkpt>
      <trkpt lat="40.208533" lon="-4.952583">
        <ele>2266.0</ele>
        <time>2014-05-17T12:39:30Z</time>
      </trkpt>
      <trkpt lat="40.208467" lon="-4.952700">
        <ele>2266.0</ele>
        <time>2014-05-17T12:39:31Z</time>
      </trkpt>
      <trkpt lat="40.208417" lon="-4.952833">
        <ele>2266.0</ele>
        <time>2014-05-17T12:39:32Z</time>
      </trkpt>
      <trkpt lat="40.208367" lon="-4.952950">
        <ele>2266.0</ele>
        <time>2014-05-17T12:39:33Z</time>
      </trkpt>
      <trkpt lat="40.208317" lon="-4.953050">
        <ele>2266.0</ele>
        <time>2014-05-17T12:39:34Z</time>
      </trkpt>
      <trkpt lat="40.208267" lon="-4.953167">
        <ele>2266.0</ele>
        <time>2014-05-17T12:39:35Z</time>
      </trkpt>
      <trkpt lat="40.208217" lon="-4.953267">
        <ele>2266.0</ele>
        <time>2014-05-17T12:39:36Z</time>
      </trkpt>
      <trkpt lat="40.208183" lon="-4.953400">
        <ele>2265.0</ele>
        <time>2014-05-17T12:39:37Z</time>
      </trkpt>
      <trkpt lat="40.208133" lon="-4.953533">
        <ele>2264.0</ele>
        <time>2014-05-17T12:39:38Z</time>
      </trkpt>
      <trkpt lat="40.208083" lon="-4.953667">
        <ele>2264.0</ele>
        <time>2014-05-17T12:39:39Z</time>
      </trkpt>
      <trkpt lat="40.208017" lon="-4.953783">
        <ele>2264.0</ele>
        <time>2014-05-17T12:39:40Z</time>
      </trkpt>
      <trkpt lat="40.207967" lon="-4.953900">
        <ele>2264.0</ele>
        <time>2014-05-17T12:39:41Z</time>
      </trkpt>
      <trkpt lat="40.207900" lon="-4.954017">
        <ele>2264.0</ele>
        <time>2014-05-17T12:39:42Z</time>
      </trkpt>
      <trkpt lat="40.207850" lon="-4.954133">
        <ele>2263.0</ele>
        <time>2014-05-17T12:39:43Z</time>
      </trkpt>
      <trkpt lat="40.207800" lon="-4.954267">
        <ele>2263.0</ele>
        <time>2014-05-17T12:39:44Z</time>
      </trkpt>
      <trkpt lat="40.207767" lon="-4.954400">
        <ele>2263.0</ele>
        <time>2014-05-17T12:39:45Z</time>
      </trkpt>
      <trkpt lat="40.207717" lon="-4.954533">
        <ele>2263.0</ele>
        <time>2014-05-17T12:39:46Z</time>
      </trkpt>
      <trkpt lat="40.207667" lon="-4.954650">
        <ele>2262.0</ele>
        <time>2014-05-17T12:39:47Z</time>
      </trkpt>
      <trkpt lat="40.207617" lon="-4.954783">
        <ele>2262.0</ele>
        <time>2014-05-17T12:39:48Z</time>
      </trkpt>
      <trkpt lat="40.207550" lon="-4.954917">
        <ele>2261.0</ele>
        <time>2014-05-17T12:39:49Z</time>
      </trkpt>
      <trkpt lat="40.207500" lon="-4.955017">
        <ele>2262.0</ele>
        <time>2014-05-17T12:39:50Z</time>
      </trkpt>
      <trkpt lat="40.207450" lon="-4.955133">
        <ele>2261.0</ele>
        <time>2014-05-17T12:39:51Z</time>
      </trkpt>
      <trkpt lat="40.207400" lon="-4.955250">
        <ele>2259.0</ele>
        <time>2014-05-17T12:39:52Z</time>
      </trkpt>
      <trkpt lat="40.207333" lon="-4.955383">
        <ele>2257.0</ele>
        <time>2014-05-17T12:39:53Z</time>
      </trkpt>
      <trkpt lat="40.207267" lon="-4.955517">
        <ele>2256.0</ele>
        <time>2014-05-17T12:39:54Z</time>
      </trkpt>
      <trkpt lat="40.207217" lon="-4.955633">
        <ele>2255.0</ele>
        <time>2014-05-17T12:39:55Z</time>
      </trkpt>
      <trkpt lat="40.207150" lon="-4.955767">
        <ele>2255.0</ele>
        <time>2014-05-17T12:39:56Z</time>
      </trkpt>
      <trkpt lat="40.207100" lon="-4.955883">
        <ele>2255.0</ele>
        <time>2014-05-17T12:39:57Z</time>
      </trkpt>
      <trkpt lat="40.207050" lon="-4.956017">
        <ele>2256.0</ele>
        <time>2014-05-17T12:39:58Z</time>
      </trkpt>
      <trkpt lat="40.207000" lon="-4.956133">
        <ele>2257.0</ele>
        <time>2014-05-17T12:39:59Z</time>
      </trkpt>
      <trkpt lat="40.206967" lon="-4.956233">
        <ele>2257.0</ele>
        <time>2014-05-17T12:40:00Z</time>
      </trkpt>
      <trkpt lat="40.206917" lon="-4.956367">
        <ele>2258.0</ele>
        <time>2014-05-17T12:40:01Z</time>
      </trkpt>
      <trkpt lat="40.206867" lon="-4.956500">
        <ele>2257.0</ele>
        <time>2014-05-17T12:40:02Z</time>
      </trkpt>
      <trkpt lat="40.206800" lon="-4.956667">
        <ele>2256.0</ele>
        <time>2014-05-17T12:40:03Z</time>
      </trkpt>
      <trkpt lat="40.206717" lon="-4.956817">
        <ele>2255.0</ele>
        <time>2014-05-17T12:40:04Z</time>
      </trkpt>
      <trkpt lat="40.206650" lon="-4.956983">
        <ele>2254.0</ele>
        <time>2014-05-17T12:40:05Z</time>
      </trkpt>
      <trkpt lat="40.206617" lon="-4.957133">
        <ele>2255.0</ele>
        <time>2014-05-17T12:40:06Z</time>
      </trkpt>
      <trkpt lat="40.206583" lon="-4.957250">
        <ele>2254.0</ele>
        <time>2014-05-17T12:40:07Z</time>
      </trkpt>
      <trkpt lat="40.206550" lon="-4.957400">
        <ele>2252.0</ele>
        <time>2014-05-17T12:40:08Z</time>
      </trkpt>
      <trkpt lat="40.206517" lon="-4.957550">
        <ele>2249.0</ele>
        <time>2014-05-17T12:40:09Z</time>
      </trkpt>
      <trkpt lat="40.206467" lon="-4.957733">
        <ele>2244.0</ele>
        <time>2014-05-17T12:40:10Z</time>
      </trkpt>
      <trkpt lat="40.206417" lon="-4.957900">
        <ele>2240.0</ele>
        <time>2014-05-17T12:40:11Z</time>
      </trkpt>
      <trkpt lat="40.206350" lon="-4.958050">
        <ele>2237.0</ele>
        <time>2014-05-17T12:40:12Z</time>
      </trkpt>
      <trkpt lat="40.206283" lon="-4.958200">
        <ele>2234.0</ele>
        <time>2014-05-17T12:40:13Z</time>
      </trkpt>
      <trkpt lat="40.206217" lon="-4.958333">
        <ele>2231.0</ele>
        <time>2014-05-17T12:40:14Z</time>
      </trkpt>
      <trkpt lat="40.206167" lon="-4.958483">
        <ele>2228.0</ele>
        <time>2014-05-17T12:40:15Z</time>
      </trkpt>
      <trkpt lat="40.206100" lon="-4.958633">
        <ele>2225.0</ele>
        <time>2014-05-17T12:40:16Z</time>
      </trkpt>
      <trkpt lat="40.206050" lon="-4.958800">
        <ele>2221.0</ele>
        <time>2014-05-17T12:40:17Z</time>
      </trkpt>
      <trkpt lat="40.205983" lon="-4.958950">
        <ele>2217.0</ele>
        <time>2014-05-17T12:40:18Z</time>
      </trkpt>
      <trkpt lat="40.205933" lon="-4.959117">
        <ele>2214.0</ele>
        <time>2014-05-17T12:40:19Z</time>
      </trkpt>
      <trkpt lat="40.205867" lon="-4.959283">
        <ele>2211.0</ele>
        <time>2014-05-17T12:40:20Z</time>
      </trkpt>
      <trkpt lat="40.205817" lon="-4.959450">
        <ele>2208.0</ele>
        <time>2014-05-17T12:40:21Z</time>
      </trkpt>
      <trkpt lat="40.205767" lon="-4.959617">
        <ele>2205.0</ele>
        <time>2014-05-17T12:40:22Z</time>
      </trkpt>
      <trkpt lat="40.205733" lon="-4.959783">
        <ele>2202.0</ele>
        <time>2014-05-17T12:40:23Z</time>
      </trkpt>
      <trkpt lat="40.205683" lon="-4.959950">
        <ele>2200.0</ele>
        <time>2014-05-17T12:40:24Z</time>
      </trkpt>
      <trkpt lat="40.205650" lon="-4.960100">
        <ele>2198.0</ele>
        <time>2014-05-17T12:40:25Z</time>
      </trkpt>
      <trkpt lat="40.205600" lon="-4.960233">
        <ele>2197.0</ele>
        <time>2014-05-17T12:40:26Z</time>
      </trkpt>
      <trkpt lat="40.205550" lon="-4.960350">
        <ele>2196.0</ele>
        <time>2014-05-17T12:40:27Z</time>
      </trkpt>
      <trkpt lat="40.205500" lon="-4.960467">
        <ele>2195.0</ele>
        <time>2014-05-17T12:40:28Z</time>
      </trkpt>
      <trkpt lat="40.205450" lon="-4.960600">
        <ele>2193.0</ele>
        <time>2014-05-17T12:40:29Z</time>
      </trkpt>
      <trkpt lat="40.205417" lon="-4.960750">
        <ele>2191.0</ele>
        <time>2014-05-17T12:40:30Z</time>
      </trkpt>
      <trkpt lat="40.205367" lon="-4.960883">
        <ele>2189.0</ele>
        <time>2014-05-17T12:40:31Z</time>
      </trkpt>
      <trkpt lat="40.205317" lon="-4.961050">
        <ele>2188.0</ele>
        <time>2014-05-17T12:40:32Z</time>
      </trkpt>
      <trkpt lat="40.205267" lon="-4.961200">
        <ele>2187.0</ele>
        <time>2014-05-17T12:40:33Z</time>
      </trkpt>
      <trkpt lat="40.205217" lon="-4.961350">
        <ele>2187.0</ele>
        <time>2014-05-17T12:40:34Z</time>
      </trkpt>
      <trkpt lat="40.205167" lon="-4.961517">
        <ele>2187.0</ele>
        <time>2014-05-17T12:40:35Z</time>
      </trkpt>
      <trkpt lat="40.205133" lon="-4.961667">
        <ele>2187.0</ele>
        <time>2014-05-17T12:40:36Z</time>
      </trkpt>
      <trkpt lat="40.205083" lon="-4.961833">
        <ele>2187.0</ele>
        <time>2014-05-17T12:40:37Z</time>
      </trkpt>
      <trkpt lat="40.205033" lon="-4.961983">
        <ele>2188.0</ele>
        <time>2014-05-17T12:40:38Z</time>
      </trkpt>
      <trkpt lat="40.205000" lon="-4.962133">
        <ele>2189.0</ele>
        <time>2014-05-17T12:40:39Z</time>
      </trkpt>
      <trkpt lat="40.204950" lon="-4.962283">
        <ele>2189.0</ele>
        <time>2014-05-17T12:40:40Z</time>
      </trkpt>
      <trkpt lat="40.204900" lon="-4.962433">
        <ele>2190.0</ele>
        <time>2014-05-17T12:40:41Z</time>
      </trkpt>
      <trkpt lat="40.204867" lon="-4.962583">
        <ele>2191.0</ele>
        <time>2014-05-17T12:40:42Z</time>
      </trkpt>
      <trkpt lat="40.204817" lon="-4.962717">
        <ele>2192.0</ele>
        <time>2014-05-17T12:40:43Z</time>
      </trkpt>
      <trkpt lat="40.204767" lon="-4.962883">
        <ele>2192.0</ele>
        <time>2014-05-17T12:40:44Z</time>
      </trkpt>
      <trkpt lat="40.204733" lon="-4.963033">
        <ele>2193.0</ele>
        <time>2014-05-17T12:40:45Z</time>
      </trkpt>
      <trkpt lat="40.204700" lon="-4.963200">
        <ele>2194.0</ele>
        <time>2014-05-17T12:40:46Z</time>
      </trkpt>
      <trkpt lat="40.204650" lon="-4.963350">
        <ele>2195.0</ele>
        <time>2014-05-17T12:40:47Z</time>
      </trkpt>
      <trkpt lat="40.204600" lon="-4.963500">
        <ele>2196.0</ele>
        <time>2014-05-17T12:40:48Z</time>
      </trkpt>
      <trkpt lat="40.204550" lon="-4.963650">
        <ele>2197.0</ele>
        <time>2014-05-17T12:40:49Z</time>
      </trkpt>
      <trkpt lat="40.204500" lon="-4.963800">
        <ele>2197.0</ele>
        <time>2014-05-17T12:40:50Z</time>
      </trkpt>
      <trkpt lat="40.204450" lon="-4.963967">
        <ele>2197.0</ele>
        <time>2014-05-17T12:40:51Z</time>
      </trkpt>
      <trkpt lat="40.204400" lon="-4.964133">
        <ele>2196.0</ele>
        <time>2014-05-17T12:40:52Z</time>
      </trkpt>
      <trkpt lat="40.204333" lon="-4.964283">
        <ele>2196.0</ele>
        <time>2014-05-17T12:40:53Z</time>
      </trkpt>
      <trkpt lat="40.204283" lon="-4.964450">
        <ele>2196.0</ele>
        <time>2014-05-17T12:40:54Z</time>
      </trkpt>
      <trkpt lat="40.204233" lon="-4.964617">
        <ele>2196.0</ele>
        <time>2014-05-17T12:40:55Z</time>
      </trkpt>
      <trkpt lat="40.204183" lon="-4.964767">
        <ele>2196.0</ele>
        <time>2014-05-17T12:40:56Z</time>
      </trkpt>
      <trkpt lat="40.204133" lon="-4.964933">
        <ele>2196.0</ele>
        <time>2014-05-17T12:40:57Z</time>
      </trkpt>
      <trkpt lat="40.204083" lon="-4.965067">
        <ele>2196.0</ele>
        <time>2014-05-17T12:40:58Z</time>
      </trkpt>
      <trkpt lat="40.204033" lon="-4.965217">
        <ele>2196.0</ele>
        <time>2014-05-17T12:40:59Z</time>
      </trkpt>
      <trkpt lat="40.203967" lon="-4.965367">
        <ele>2196.0</ele>
        <time>2014-05-17T12:41:00Z</time>
      </trkpt>
      <trkpt lat="40.203917" lon="-4.965517">
        <ele>2196.0</ele>
        <time>2014-05-17T12:41:01Z</time>
      </trkpt>
      <trkpt lat="40.203883" lon="-4.965667">
        <ele>2196.0</ele>
        <time>2014-05-17T12:41:02Z</time>
      </trkpt>
      <trkpt lat="40.203833" lon="-4.965817">
        <ele>2196.0</ele>
        <time>2014-05-17T12:41:03Z</time>
      </trkpt>
      <trkpt lat="40.203800" lon="-4.965967">
        <ele>2197.0</ele>
        <time>2014-05-17T12:41:04Z</time>
      </trkpt>
      <trkpt lat="40.203750" lon="-4.966117">
        <ele>2197.0</ele>
        <time>2014-05-17T12:41:05Z</time>
      </trkpt>
      <trkpt lat="40.203700" lon="-4.966267">
        <ele>2196.0</ele>
        <time>2014-05-17T12:41:06Z</time>
      </trkpt>
      <trkpt lat="40.203667" lon="-4.966433">
        <ele>2195.0</ele>
        <time>2014-05-17T12:41:07Z</time>
      </trkpt>
      <trkpt lat="40.203617" lon="-4.966600">
        <ele>2194.0</ele>
        <time>2014-05-17T12:41:08Z</time>
      </trkpt>
      <trkpt lat="40.203583" lon="-4.966750">
        <ele>2194.0</ele>
        <time>2014-05-17T12:41:09Z</time>
      </trkpt>
      <trkpt lat="40.203533" lon="-4.966900">
        <ele>2193.0</ele>
        <time>2014-05-17T12:41:10Z</time>
      </trkpt>
      <trkpt lat="40.203500" lon="-4.967050">
        <ele>2192.0</ele>
        <time>2014-05-17T12:41:11Z</time>
      </trkpt>
      <trkpt lat="40.203450" lon="-4.967217">
        <ele>2190.0</ele>
        <time>2014-05-17T12:41:12Z</time>
      </trkpt>
      <trkpt lat="40.203400" lon="-4.967383">
        <ele>2188.0</ele>
        <time>2014-05-17T12:41:13Z</time>
      </trkpt>
      <trkpt lat="40.203367" lon="-4.967533">
        <ele>2186.0</ele>
        <time>2014-05-17T12:41:14Z</time>
      </trkpt>
      <trkpt lat="40.203333" lon="-4.967667">
        <ele>2185.0</ele>
        <time>2014-05-17T12:41:15Z</time>
      </trkpt>
      <trkpt lat="40.203283" lon="-4.967817">
        <ele>2183.0</ele>
        <time>2014-05-17T12:41:16Z</time>
      </trkpt>
      <trkpt lat="40.203233" lon="-4.967967">
        <ele>2180.0</ele>
        <time>2014-05-17T12:41:17Z</time>
      </trkpt>
      <trkpt lat="40.203200" lon="-4.968133">
        <ele>2176.0</ele>
        <time>2014-05-17T12:41:18Z</time>
      </trkpt>
      <trkpt lat="40.203150" lon="-4.968300">
        <ele>2173.0</ele>
        <time>2014-05-17T12:41:19Z</time>
      </trkpt>
      <trkpt lat="40.203100" lon="-4.968450">
        <ele>2170.0</ele>
        <time>2014-05-17T12:41:20Z</time>
      </trkpt>
      <trkpt lat="40.203050" lon="-4.968600">
        <ele>2168.0</ele>
        <time>2014-05-17T12:41:21Z</time>
      </trkpt>
      <trkpt lat="40.203000" lon="-4.968733">
        <ele>2166.0</ele>
        <time>2014-05-17T12:41:22Z</time>
      </trkpt>
      <trkpt lat="40.202967" lon="-4.968850">
        <ele>2163.0</ele>
        <time>2014-05-17T12:41:23Z</time>
      </trkpt>
      <trkpt lat="40.202917" lon="-4.969000">
        <ele>2161.0</ele>
        <time>2014-05-17T12:41:24Z</time>
      </trkpt>
      <trkpt lat="40.202867" lon="-4.969133">
        <ele>2158.0</ele>
        <time>2014-05-17T12:41:25Z</time>
      </trkpt>
      <trkpt lat="40.202800" lon="-4.969283">
        <ele>2156.0</ele>
        <time>2014-05-17T12:41:26Z</time>
      </trkpt>
      <trkpt lat="40.202750" lon="-4.969450">
        <ele>2154.0</ele>
        <time>2014-05-17T12:41:27Z</time>
      </trkpt>
      <trkpt lat="40.202700" lon="-4.969600">
        <ele>2154.0</ele>
        <time>2014-05-17T12:41:28Z</time>
      </trkpt>
      <trkpt lat="40.202650" lon="-4.969750">
        <ele>2153.0</ele>
        <time>2014-05-17T12:41:29Z</time>
      </trkpt>
      <trkpt lat="40.202617" lon="-4.969883">
        <ele>2153.0</ele>
        <time>2014-05-17T12:41:30Z</time>
      </trkpt>
      <trkpt lat="40.202567" lon="-4.970050">
        <ele>2152.0</ele>
        <time>2014-05-17T12:41:31Z</time>
      </trkpt>
      <trkpt lat="40.202517" lon="-4.970200">
        <ele>2150.0</ele>
        <time>2014-05-17T12:41:32Z</time>
      </trkpt>
      <trkpt lat="40.202483" lon="-4.970383">
        <ele>2149.0</ele>
        <time>2014-05-17T12:41:33Z</time>
      </trkpt>
      <trkpt lat="40.202433" lon="-4.970533">
        <ele>2147.0</ele>
        <time>2014-05-17T12:41:34Z</time>
      </trkpt>
      <trkpt lat="40.202400" lon="-4.970700">
        <ele>2145.0</ele>
        <time>2014-05-17T12:41:35Z</time>
      </trkpt>
      <trkpt lat="40.202350" lon="-4.970867">
        <ele>2144.0</ele>
        <time>2014-05-17T12:41:36Z</time>
      </trkpt>
      <trkpt lat="40.202317" lon="-4.971033">
        <ele>2142.0</ele>
        <time>2014-05-17T12:41:37Z</time>
      </trkpt>
      <trkpt lat="40.202283" lon="-4.971200">
        <ele>2140.0</ele>
        <time>2014-05-17T12:41:38Z</time>
      </trkpt>
      <trkpt lat="40.202267" lon="-4.971367">
        <ele>2138.0</ele>
        <time>2014-05-17T12:41:39Z</time>
      </trkpt>
      <trkpt lat="40.202233" lon="-4.971550">
        <ele>2136.0</ele>
        <time>2014-05-17T12:41:40Z</time>
      </trkpt>
      <trkpt lat="40.202217" lon="-4.971717">
        <ele>2135.0</ele>
        <time>2014-05-17T12:41:41Z</time>
      </trkpt>
      <trkpt lat="40.202183" lon="-4.971883">
        <ele>2134.0</ele>
        <time>2014-05-17T12:41:42Z</time>
      </trkpt>
      <trkpt lat="40.202150" lon="-4.972050">
        <ele>2134.0</ele>
        <time>2014-05-17T12:41:43Z</time>
      </trkpt>
      <trkpt lat="40.202117" lon="-4.972217">
        <ele>2133.0</ele>
        <time>2014-05-17T12:41:44Z</time>
      </trkpt>
      <trkpt lat="40.202083" lon="-4.972367">
        <ele>2132.0</ele>
        <time>2014-05-17T12:41:45Z</time>
      </trkpt>
      <trkpt lat="40.202033" lon="-4.972517">
        <ele>2131.0</ele>
        <time>2014-05-17T12:41:46Z</time>
      </trkpt>
      <trkpt lat="40.202000" lon="-4.972683">
        <ele>2129.0</ele>
        <time>2014-05-17T12:41:47Z</time>
      </trkpt>
      <trkpt lat="40.201967" lon="-4.972833">
        <ele>2128.0</ele>
        <time>2014-05-17T12:41:48Z</time>
      </trkpt>
      <trkpt lat="40.201917" lon="-4.972967">
        <ele>2128.0</ele>
        <time>2014-05-17T12:41:49Z</time>
      </trkpt>
      <trkpt lat="40.201883" lon="-4.973100">
        <ele>2128.0</ele>
        <time>2014-05-17T12:41:50Z</time>
      </trkpt>
      <trkpt lat="40.201850" lon="-4.973233">
        <ele>2127.0</ele>
        <time>2014-05-17T12:41:51Z</time>
      </trkpt>
      <trkpt lat="40.201817" lon="-4.973383">
        <ele>2126.0</ele>
        <time>2014-05-17T12:41:52Z</time>
      </trkpt>
      <trkpt lat="40.201783" lon="-4.973517">
        <ele>2125.0</ele>
        <time>2014-05-17T12:41:53Z</time>
      </trkpt>
      <trkpt lat="40.201750" lon="-4.973667">
        <ele>2123.0</ele>
        <time>2014-05-17T12:41:54Z</time>
      </trkpt>
      <trkpt lat="40.201733" lon="-4.973817">
        <ele>2122.0</ele>
        <time>2014-05-17T12:41:55Z</time>
      </trkpt>
      <trkpt lat="40.201717" lon="-4.973967">
        <ele>2120.0</ele>
        <time>2014-05-17T12:41:56Z</time>
      </trkpt>
      <trkpt lat="40.201683" lon="-4.974100">
        <ele>2119.0</ele>
        <time>2014-05-17T12:41:57Z</time>
      </trkpt>
      <trkpt lat="40.201633" lon="-4.974233">
        <ele>2117.0</ele>
        <time>2014-05-17T12:41:58Z</time>
      </trkpt>
      <trkpt lat="40.201583" lon="-4.974383">
        <ele>2115.0</ele>
        <time>2014-05-17T12:41:59Z</time>
      </trkpt>
      <trkpt lat="40.201550" lon="-4.974533">
        <ele>2113.0</ele>
        <time>2014-05-17T12:42:00Z</time>
      </trkpt>
      <trkpt lat="40.201500" lon="-4.974700">
        <ele>2112.0</ele>
        <time>2014-05-17T12:42:01Z</time>
      </trkpt>
      <trkpt lat="40.201450" lon="-4.974850">
        <ele>2110.0</ele>
        <time>2014-05-17T12:42:02Z</time>
      </trkpt>
      <trkpt lat="40.201400" lon="-4.975000">
        <ele>2109.0</ele>
        <time>2014-05-17T12:42:03Z</time>
      </trkpt>
      <trkpt lat="40.201350" lon="-4.975133">
        <ele>2108.0</ele>
        <time>2014-05-17T12:42:04Z</time>
      </trkpt>
      <trkpt lat="40.201300" lon="-4.975283">
        <ele>2107.0</ele>
        <time>2014-05-17T12:42:05Z</time>
      </trkpt>
      <trkpt lat="40.201233" lon="-4.975433">
        <ele>2105.0</ele>
        <time>2014-05-17T12:42:06Z</time>
      </trkpt>
      <trkpt lat="40.201167" lon="-4.975583">
        <ele>2104.0</ele>
        <time>2014-05-17T12:42:07Z</time>
      </trkpt>
      <trkpt lat="40.201100" lon="-4.975733">
        <ele>2103.0</ele>
        <time>2014-05-17T12:42:08Z</time>
      </trkpt>
      <trkpt lat="40.201050" lon="-4.975883">
        <ele>2102.0</ele>
        <time>2014-05-17T12:42:09Z</time>
      </trkpt>
      <trkpt lat="40.200983" lon="-4.976033">
        <ele>2100.0</ele>
        <time>2014-05-17T12:42:10Z</time>
      </trkpt>
      <trkpt lat="40.200917" lon="-4.976183">
        <ele>2099.0</ele>
        <time>2014-05-17T12:42:11Z</time>
      </trkpt>
      <trkpt lat="40.200867" lon="-4.976350">
        <ele>2097.0</ele>
        <time>2014-05-17T12:42:12Z</time>
      </trkpt>
      <trkpt lat="40.200800" lon="-4.976517">
        <ele>2095.0</ele>
        <time>2014-05-17T12:42:13Z</time>
      </trkpt>
      <trkpt lat="40.200750" lon="-4.976683">
        <ele>2093.0</ele>
        <time>2014-05-17T12:42:14Z</time>
      </trkpt>
      <trkpt lat="40.200717" lon="-4.976850">
        <ele>2092.0</ele>
        <time>2014-05-17T12:42:15Z</time>
      </trkpt>
      <trkpt lat="40.200667" lon="-4.977033">
        <ele>2091.0</ele>
        <time>2014-05-17T12:42:16Z</time>
      </trkpt>
      <trkpt lat="40.200617" lon="-4.977183">
        <ele>2091.0</ele>
        <time>2014-05-17T12:42:17Z</time>
      </trkpt>
      <trkpt lat="40.200583" lon="-4.977350">
        <ele>2090.0</ele>
        <time>2014-05-17T12:42:18Z</time>
      </trkpt>
      <trkpt lat="40.200533" lon="-4.977517">
        <ele>2090.0</ele>
        <time>2014-05-17T12:42:19Z</time>
      </trkpt>
      <trkpt lat="40.200500" lon="-4.977683">
        <ele>2090.0</ele>
        <time>2014-05-17T12:42:20Z</time>
      </trkpt>
      <trkpt lat="40.200467" lon="-4.977833">
        <ele>2090.0</ele>
        <time>2014-05-17T12:42:21Z</time>
      </trkpt>
      <trkpt lat="40.200417" lon="-4.978000">
        <ele>2090.0</ele>
        <time>2014-05-17T12:42:22Z</time>
      </trkpt>
      <trkpt lat="40.200383" lon="-4.978167">
        <ele>2090.0</ele>
        <time>2014-05-17T12:42:23Z</time>
      </trkpt>
      <trkpt lat="40.200350" lon="-4.978333">
        <ele>2090.0</ele>
        <time>2014-05-17T12:42:24Z</time>
      </trkpt>
      <trkpt lat="40.200317" lon="-4.978500">
        <ele>2090.0</ele>
        <time>2014-05-17T12:42:25Z</time>
      </trkpt>
      <trkpt lat="40.200283" lon="-4.978667">
        <ele>2090.0</ele>
        <time>2014-05-17T12:42:26Z</time>
      </trkpt>
      <trkpt lat="40.200250" lon="-4.978833">
        <ele>2089.0</ele>
        <time>2014-05-17T12:42:27Z</time>
      </trkpt>
      <trkpt lat="40.200217" lon="-4.979000">
        <ele>2090.0</ele>
        <time>2014-05-17T12:42:28Z</time>
      </trkpt>
      <trkpt lat="40.200183" lon="-4.979133">
        <ele>2091.0</ele>
        <time>2014-05-17T12:42:29Z</time>
      </trkpt>
      <trkpt lat="40.200150" lon="-4.979283">
        <ele>2091.0</ele>
        <time>2014-05-17T12:42:30Z</time>
      </trkpt>
      <trkpt lat="40.200117" lon="-4.979417">
        <ele>2091.0</ele>
        <time>2014-05-17T12:42:31Z</time>
      </trkpt>
      <trkpt lat="40.200083" lon="-4.979567">
        <ele>2091.0</ele>
        <time>2014-05-17T12:42:32Z</time>
      </trkpt>
      <trkpt lat="40.200050" lon="-4.979717">
        <ele>2090.0</ele>
        <time>2014-05-17T12:42:33Z</time>
      </trkpt>
      <trkpt lat="40.200017" lon="-4.979867">
        <ele>2089.0</ele>
        <time>2014-05-17T12:42:34Z</time>
      </trkpt>
      <trkpt lat="40.199983" lon="-4.980033">
        <ele>2087.0</ele>
        <time>2014-05-17T12:42:35Z</time>
      </trkpt>
      <trkpt lat="40.199933" lon="-4.980200">
        <ele>2086.0</ele>
        <time>2014-05-17T12:42:36Z</time>
      </trkpt>
      <trkpt lat="40.199900" lon="-4.980367">
        <ele>2084.0</ele>
        <time>2014-05-17T12:42:37Z</time>
      </trkpt>
      <trkpt lat="40.199867" lon="-4.980533">
        <ele>2083.0</ele>
        <time>2014-05-17T12:42:38Z</time>
      </trkpt>
      <trkpt lat="40.199833" lon="-4.980700">
        <ele>2083.0</ele>
        <time>2014-05-17T12:42:39Z</time>
      </trkpt>
      <trkpt lat="40.199783" lon="-4.980867">
        <ele>2082.0</ele>
        <time>2014-05-17T12:42:40Z</time>
      </trkpt>
      <trkpt lat="40.199750" lon="-4.981033">
        <ele>2081.0</ele>
        <time>2014-05-17T12:42:41Z</time>
      </trkpt>
      <trkpt lat="40.199717" lon="-4.981200">
        <ele>2080.0</ele>
        <time>2014-05-17T12:42:42Z</time>
      </trkpt>
      <trkpt lat="40.199683" lon="-4.981383">
        <ele>2079.0</ele>
        <time>2014-05-17T12:42:43Z</time>
      </trkpt>
      <trkpt lat="40.199667" lon="-4.981550">
        <ele>2078.0</ele>
        <time>2014-05-17T12:42:44Z</time>
      </trkpt>
      <trkpt lat="40.199633" lon="-4.981717">
        <ele>2077.0</ele>
        <time>2014-05-17T12:42:45Z</time>
      </trkpt>
      <trkpt lat="40.199583" lon="-4.981883">
        <ele>2077.0</ele>
        <time>2014-05-17T12:42:46Z</time>
      </trkpt>
      <trkpt lat="40.199550" lon="-4.982050">
        <ele>2076.0</ele>
        <time>2014-05-17T12:42:47Z</time>
      </trkpt>
      <trkpt lat="40.199517" lon="-4.982200">
        <ele>2075.0</ele>
        <time>2014-05-17T12:42:48Z</time>
      </trkpt>
      <trkpt lat="40.199483" lon="-4.982367">
        <ele>2074.0</ele>
        <time>2014-05-17T12:42:49Z</time>
      </trkpt>
      <trkpt lat="40.199433" lon="-4.982533">
        <ele>2072.0</ele>
        <time>2014-05-17T12:42:50Z</time>
      </trkpt>
      <trkpt lat="40.199400" lon="-4.982700">
        <ele>2071.0</ele>
        <time>2014-05-17T12:42:51Z</time>
      </trkpt>
      <trkpt lat="40.199367" lon="-4.982900">
        <ele>2069.0</ele>
        <time>2014-05-17T12:42:52Z</time>
      </trkpt>
      <trkpt lat="40.199317" lon="-4.983083">
        <ele>2067.0</ele>
        <time>2014-05-17T12:42:53Z</time>
      </trkpt>
      <trkpt lat="40.199267" lon="-4.983267">
        <ele>2066.0</ele>
        <time>2014-05-17T12:42:54Z</time>
      </trkpt>
      <trkpt lat="40.199217" lon="-4.983433">
        <ele>2064.0</ele>
        <time>2014-05-17T12:42:55Z</time>
      </trkpt>
      <trkpt lat="40.199167" lon="-4.983600">
        <ele>2063.0</ele>
        <time>2014-05-17T12:42:56Z</time>
      </trkpt>
      <trkpt lat="40.199133" lon="-4.983767">
        <ele>2061.0</ele>
        <time>2014-05-17T12:42:57Z</time>
      </trkpt>
      <trkpt lat="40.199100" lon="-4.983950">
        <ele>2059.0</ele>
        <time>2014-05-17T12:42:58Z</time>
      </trkpt>
      <trkpt lat="40.199067" lon="-4.984117">
        <ele>2057.0</ele>
        <time>2014-05-17T12:42:59Z</time>
      </trkpt>
      <trkpt lat="40.199033" lon="-4.984267">
        <ele>2055.0</ele>
        <time>2014-05-17T12:43:00Z</time>
      </trkpt>
      <trkpt lat="40.199000" lon="-4.984433">
        <ele>2053.0</ele>
        <time>2014-05-17T12:43:01Z</time>
      </trkpt>
      <trkpt lat="40.198950" lon="-4.984600">
        <ele>2051.0</ele>
        <time>2014-05-17T12:43:02Z</time>
      </trkpt>
      <trkpt lat="40.198917" lon="-4.984767">
        <ele>2048.0</ele>
        <time>2014-05-17T12:43:03Z</time>
      </trkpt>
      <trkpt lat="40.198883" lon="-4.984950">
        <ele>2045.0</ele>
        <time>2014-05-17T12:43:04Z</time>
      </trkpt>
      <trkpt lat="40.198850" lon="-4.985133">
        <ele>2043.0</ele>
        <time>2014-05-17T12:43:05Z</time>
      </trkpt>
      <trkpt lat="40.198817" lon="-4.985317">
        <ele>2042.0</ele>
        <time>2014-05-17T12:43:06Z</time>
      </trkpt>
      <trkpt lat="40.198783" lon="-4.985483">
        <ele>2040.0</ele>
        <time>2014-05-17T12:43:07Z</time>
      </trkpt>
      <trkpt lat="40.198750" lon="-4.985633">
        <ele>2039.0</ele>
        <time>2014-05-17T12:43:08Z</time>
      </trkpt>
      <trkpt lat="40.198717" lon="-4.985817">
        <ele>2037.0</ele>
        <time>2014-05-17T12:43:09Z</time>
      </trkpt>
      <trkpt lat="40.198683" lon="-4.985983">
        <ele>2035.0</ele>
        <time>2014-05-17T12:43:10Z</time>
      </trkpt>
      <trkpt lat="40.198650" lon="-4.986150">
        <ele>2034.0</ele>
        <time>2014-05-17T12:43:11Z</time>
      </trkpt>
      <trkpt lat="40.198617" lon="-4.986300">
        <ele>2033.0</ele>
        <time>2014-05-17T12:43:12Z</time>
      </trkpt>
      <trkpt lat="40.198583" lon="-4.986467">
        <ele>2031.0</ele>
        <time>2014-05-17T12:43:13Z</time>
      </trkpt>
      <trkpt lat="40.198550" lon="-4.986633">
        <ele>2029.0</ele>
        <time>2014-05-17T12:43:14Z</time>
      </trkpt>
      <trkpt lat="40.198517" lon="-4.986817">
        <ele>2028.0</ele>
        <time>2014-05-17T12:43:15Z</time>
      </trkpt>
      <trkpt lat="40.198483" lon="-4.986983">
        <ele>2026.0</ele>
        <time>2014-05-17T12:43:16Z</time>
      </trkpt>
      <trkpt lat="40.198450" lon="-4.987150">
        <ele>2025.0</ele>
        <time>2014-05-17T12:43:17Z</time>
      </trkpt>
      <trkpt lat="40.198417" lon="-4.987300">
        <ele>2024.0</ele>
        <time>2014-05-17T12:43:18Z</time>
      </trkpt>
      <trkpt lat="40.198383" lon="-4.987467">
        <ele>2022.0</ele>
        <time>2014-05-17T12:43:19Z</time>
      </trkpt>
      <trkpt lat="40.198350" lon="-4.987633">
        <ele>2021.0</ele>
        <time>2014-05-17T12:43:20Z</time>
      </trkpt>
      <trkpt lat="40.198317" lon="-4.987800">
        <ele>2019.0</ele>
        <time>2014-05-17T12:43:21Z</time>
      </trkpt>
      <trkpt lat="40.198283" lon="-4.987967">
        <ele>2017.0</ele>
        <time>2014-05-17T12:43:22Z</time>
      </trkpt>
      <trkpt lat="40.198267" lon="-4.988117">
        <ele>2016.0</ele>
        <time>2014-05-17T12:43:23Z</time>
      </trkpt>
      <trkpt lat="40.198233" lon="-4.988267">
        <ele>2014.0</ele>
        <time>2014-05-17T12:43:24Z</time>
      </trkpt>
      <trkpt lat="40.198200" lon="-4.988417">
        <ele>2013.0</ele>
        <time>2014-05-17T12:43:25Z</time>
      </trkpt>
      <trkpt lat="40.198167" lon="-4.988567">
        <ele>2011.0</ele>
        <time>2014-05-17T12:43:26Z</time>
      </trkpt>
      <trkpt lat="40.198133" lon="-4.988717">
        <ele>2009.0</ele>
        <time>2014-05-17T12:43:27Z</time>
      </trkpt>
      <trkpt lat="40.198100" lon="-4.988867">
        <ele>2007.0</ele>
        <time>2014-05-17T12:43:28Z</time>
      </trkpt>
      <trkpt lat="40.198050" lon="-4.989033">
        <ele>2005.0</ele>
        <time>2014-05-17T12:43:29Z</time>
      </trkpt>
      <trkpt lat="40.198000" lon="-4.989217">
        <ele>2003.0</ele>
        <time>2014-05-17T12:43:30Z</time>
      </trkpt>
      <trkpt lat="40.197967" lon="-4.989400">
        <ele>2000.0</ele>
        <time>2014-05-17T12:43:31Z</time>
      </trkpt>
      <trkpt lat="40.197933" lon="-4.989583">
        <ele>1999.0</ele>
        <time>2014-05-17T12:43:32Z</time>
      </trkpt>
      <trkpt lat="40.197883" lon="-4.989767">
        <ele>1998.0</ele>
        <time>2014-05-17T12:43:33Z</time>
      </trkpt>
      <trkpt lat="40.197833" lon="-4.989933">
        <ele>1997.0</ele>
        <time>2014-05-17T12:43:34Z</time>
      </trkpt>
      <trkpt lat="40.197783" lon="-4.990100">
        <ele>1996.0</ele>
        <time>2014-05-17T12:43:35Z</time>
      </trkpt>
      <trkpt lat="40.197733" lon="-4.990283">
        <ele>1994.0</ele>
        <time>2014-05-17T12:43:36Z</time>
      </trkpt>
      <trkpt lat="40.197700" lon="-4.990450">
        <ele>1993.0</ele>
        <time>2014-05-17T12:43:37Z</time>
      </trkpt>
      <trkpt lat="40.197667" lon="-4.990617">
        <ele>1992.0</ele>
        <time>2014-05-17T12:43:38Z</time>
      </trkpt>
      <trkpt lat="40.197633" lon="-4.990800">
        <ele>1991.0</ele>
        <time>2014-05-17T12:43:39Z</time>
      </trkpt>
      <trkpt lat="40.197617" lon="-4.990983">
        <ele>1990.0</ele>
        <time>2014-05-17T12:43:40Z</time>
      </trkpt>
      <trkpt lat="40.197583" lon="-4.991150">
        <ele>1989.0</ele>
        <time>2014-05-17T12:43:41Z</time>
      </trkpt>
      <trkpt lat="40.197550" lon="-4.991317">
        <ele>1988.0</ele>
        <time>2014-05-17T12:43:42Z</time>
      </trkpt>
      <trkpt lat="40.197517" lon="-4.991467">
        <ele>1987.0</ele>
        <time>2014-05-17T12:43:43Z</time>
      </trkpt>
      <trkpt lat="40.197500" lon="-4.991600">
        <ele>1987.0</ele>
        <time>2014-05-17T12:43:44Z</time>
      </trkpt>
      <trkpt lat="40.197467" lon="-4.991750">
        <ele>1985.0</ele>
        <time>2014-05-17T12:43:45Z</time>
      </trkpt>
      <trkpt lat="40.197450" lon="-4.991900">
        <ele>1983.0</ele>
        <time>2014-05-17T12:43:46Z</time>
      </trkpt>
      <trkpt lat="40.197417" lon="-4.992067">
        <ele>1981.0</ele>
        <time>2014-05-17T12:43:47Z</time>
      </trkpt>
      <trkpt lat="40.197383" lon="-4.992233">
        <ele>1980.0</ele>
        <time>2014-05-17T12:43:48Z</time>
      </trkpt>
      <trkpt lat="40.197367" lon="-4.992400">
        <ele>1979.0</ele>
        <time>2014-05-17T12:43:49Z</time>
      </trkpt>
      <trkpt lat="40.197350" lon="-4.992550">
        <ele>1978.0</ele>
        <time>2014-05-17T12:43:50Z</time>
      </trkpt>
      <trkpt lat="40.197317" lon="-4.992700">
        <ele>1977.0</ele>
        <time>2014-05-17T12:43:51Z</time>
      </trkpt>
      <trkpt lat="40.197300" lon="-4.992850">
        <ele>1976.0</ele>
        <time>2014-05-17T12:43:52Z</time>
      </trkpt>
      <trkpt lat="40.197283" lon="-4.993000">
        <ele>1974.0</ele>
        <time>2014-05-17T12:43:53Z</time>
      </trkpt>
      <trkpt lat="40.197267" lon="-4.993167">
        <ele>1972.0</ele>
        <time>2014-05-17T12:43:54Z</time>
      </trkpt>
      <trkpt lat="40.197250" lon="-4.993333">
        <ele>1970.0</ele>
        <time>2014-05-17T12:43:55Z</time>
      </trkpt>
      <trkpt lat="40.197217" lon="-4.993500">
        <ele>1968.0</ele>
        <time>2014-05-17T12:43:56Z</time>
      </trkpt>
      <trkpt lat="40.197200" lon="-4.993650">
        <ele>1967.0</ele>
        <time>2014-05-17T12:43:57Z</time>
      </trkpt>
      <trkpt lat="40.197167" lon="-4.993800">
        <ele>1965.0</ele>
        <time>2014-05-17T12:43:58Z</time>
      </trkpt>
      <trkpt lat="40.197133" lon="-4.993950">
        <ele>1963.0</ele>
        <time>2014-05-17T12:43:59Z</time>
      </trkpt>
      <trkpt lat="40.197117" lon="-4.994117">
        <ele>1960.0</ele>
        <time>2014-05-17T12:44:00Z</time>
      </trkpt>
      <trkpt lat="40.197083" lon="-4.994283">
        <ele>1957.0</ele>
        <time>2014-05-17T12:44:01Z</time>
      </trkpt>
      <trkpt lat="40.197050" lon="-4.994450">
        <ele>1954.0</ele>
        <time>2014-05-17T12:44:02Z</time>
      </trkpt>
      <trkpt lat="40.197000" lon="-4.994617">
        <ele>1952.0</ele>
        <time>2014-05-17T12:44:03Z</time>
      </trkpt>
      <trkpt lat="40.196967" lon="-4.994800">
        <ele>1950.0</ele>
        <time>2014-05-17T12:44:04Z</time>
      </trkpt>
      <trkpt lat="40.196933" lon="-4.994967">
        <ele>1948.0</ele>
        <time>2014-05-17T12:44:05Z</time>
      </trkpt>
      <trkpt lat="40.196900" lon="-4.995133">
        <ele>1947.0</ele>
        <time>2014-05-17T12:44:06Z</time>
      </trkpt>
      <trkpt lat="40.196883" lon="-4.995300">
        <ele>1946.0</ele>
        <time>2014-05-17T12:44:07Z</time>
      </trkpt>
      <trkpt lat="40.196850" lon="-4.995467">
        <ele>1945.0</ele>
        <time>2014-05-17T12:44:08Z</time>
      </trkpt>
      <trkpt lat="40.196817" lon="-4.995633">
        <ele>1945.0</ele>
        <time>2014-05-17T12:44:09Z</time>
      </trkpt>
      <trkpt lat="40.196783" lon="-4.995783">
        <ele>1945.0</ele>
        <time>2014-05-17T12:44:10Z</time>
      </trkpt>
      <trkpt lat="40.196767" lon="-4.995950">
        <ele>1944.0</ele>
        <time>2014-05-17T12:44:11Z</time>
      </trkpt>
      <trkpt lat="40.196733" lon="-4.996100">
        <ele>1943.0</ele>
        <time>2014-05-17T12:44:12Z</time>
      </trkpt>
      <trkpt lat="40.196717" lon="-4.996267">
        <ele>1941.0</ele>
        <time>2014-05-17T12:44:13Z</time>
      </trkpt>
      <trkpt lat="40.196683" lon="-4.996417">
        <ele>1940.0</ele>
        <time>2014-05-17T12:44:14Z</time>
      </trkpt>
      <trkpt lat="40.196667" lon="-4.996583">
        <ele>1939.0</ele>
        <time>2014-05-17T12:44:15Z</time>
      </trkpt>
      <trkpt lat="40.196633" lon="-4.996750">
        <ele>1938.0</ele>
        <time>2014-05-17T12:44:16Z</time>
      </trkpt>
      <trkpt lat="40.196617" lon="-4.996933">
        <ele>1936.0</ele>
        <time>2014-05-17T12:44:17Z</time>
      </trkpt>
      <trkpt lat="40.196583" lon="-4.997100">
        <ele>1935.0</ele>
        <time>2014-05-17T12:44:18Z</time>
      </trkpt>
      <trkpt lat="40.196550" lon="-4.997267">
        <ele>1934.0</ele>
        <time>2014-05-17T12:44:19Z</time>
      </trkpt>
      <trkpt lat="40.196533" lon="-4.997417">
        <ele>1933.0</ele>
        <time>2014-05-17T12:44:20Z</time>
      </trkpt>
      <trkpt lat="40.196500" lon="-4.997567">
        <ele>1933.0</ele>
        <time>2014-05-17T12:44:21Z</time>
      </trkpt>
      <trkpt lat="40.196467" lon="-4.997717">
        <ele>1932.0</ele>
        <time>2014-05-17T12:44:22Z</time>
      </trkpt>
      <trkpt lat="40.196433" lon="-4.997900">
        <ele>1931.0</ele>
        <time>2014-05-17T12:44:23Z</time>
      </trkpt>
      <trkpt lat="40.196383" lon="-4.998217">
        <ele>1929.0</ele>
        <time>2014-05-17T12:44:25Z</time>
      </trkpt>
      <trkpt lat="40.196350" lon="-4.998367">
        <ele>1927.0</ele>
        <time>2014-05-17T12:44:26Z</time>
      </trkpt>
      <trkpt lat="40.196300" lon="-4.998517">
        <ele>1926.0</ele>
        <time>2014-05-17T12:44:27Z</time>
      </trkpt>
      <trkpt lat="40.196267" lon="-4.998683">
        <ele>1923.0</ele>
        <time>2014-05-17T12:44:28Z</time>
      </trkpt>
      <trkpt lat="40.196233" lon="-4.998867">
        <ele>1921.0</ele>
        <time>2014-05-17T12:44:29Z</time>
      </trkpt>
      <trkpt lat="40.196200" lon="-4.999050">
        <ele>1919.0</ele>
        <time>2014-05-17T12:44:30Z</time>
      </trkpt>
      <trkpt lat="40.196183" lon="-4.999217">
        <ele>1917.0</ele>
        <time>2014-05-17T12:44:31Z</time>
      </trkpt>
      <trkpt lat="40.196150" lon="-4.999383">
        <ele>1917.0</ele>
        <time>2014-05-17T12:44:32Z</time>
      </trkpt>
      <trkpt lat="40.196117" lon="-4.999550">
        <ele>1915.0</ele>
        <time>2014-05-17T12:44:33Z</time>
      </trkpt>
      <trkpt lat="40.196083" lon="-4.999717">
        <ele>1914.0</ele>
        <time>2014-05-17T12:44:34Z</time>
      </trkpt>
      <trkpt lat="40.196050" lon="-4.999883">
        <ele>1912.0</ele>
        <time>2014-05-17T12:44:35Z</time>
      </trkpt>
      <trkpt lat="40.196017" lon="-5.000050">
        <ele>1910.0</ele>
        <time>2014-05-17T12:44:36Z</time>
      </trkpt>
      <trkpt lat="40.195933" lon="-5.000383">
        <ele>1908.0</ele>
        <time>2014-05-17T12:44:38Z</time>
      </trkpt>
      <trkpt lat="40.195883" lon="-5.000550">
        <ele>1906.0</ele>
        <time>2014-05-17T12:44:39Z</time>
      </trkpt>
      <trkpt lat="40.195800" lon="-5.000867">
        <ele>1904.0</ele>
        <time>2014-05-17T12:44:41Z</time>
      </trkpt>
      <trkpt lat="40.195767" lon="-5.001033">
        <ele>1904.0</ele>
        <time>2014-05-17T12:44:42Z</time>
      </trkpt>
      <trkpt lat="40.195717" lon="-5.001183">
        <ele>1903.0</ele>
        <time>2014-05-17T12:44:43Z</time>
      </trkpt>
      <trkpt lat="40.195683" lon="-5.001350">
        <ele>1903.0</ele>
        <time>2014-05-17T12:44:44Z</time>
      </trkpt>
      <trkpt lat="40.195667" lon="-5.001517">
        <ele>1902.0</ele>
        <time>2014-05-17T12:44:45Z</time>
      </trkpt>
      <trkpt lat="40.195633" lon="-5.001683">
        <ele>1901.0</ele>
        <time>2014-05-17T12:44:46Z</time>
      </trkpt>
      <trkpt lat="40.195600" lon="-5.001850">
        <ele>1901.0</ele>
        <time>2014-05-17T12:44:47Z</time>
      </trkpt>
      <trkpt lat="40.195567" lon="-5.002017">
        <ele>1900.0</ele>
        <time>2014-05-17T12:44:48Z</time>
      </trkpt>
      <trkpt lat="40.195533" lon="-5.002183">
        <ele>1900.0</ele>
        <time>2014-05-17T12:44:49Z</time>
      </trkpt>
      <trkpt lat="40.195500" lon="-5.002350">
        <ele>1900.0</ele>
        <time>2014-05-17T12:44:50Z</time>
      </trkpt>
      <trkpt lat="40.195467" lon="-5.002500">
        <ele>1900.0</ele>
        <time>2014-05-17T12:44:51Z</time>
      </trkpt>
      <trkpt lat="40.195450" lon="-5.002667">
        <ele>1899.0</ele>
        <time>2014-05-17T12:44:52Z</time>
      </trkpt>
      <trkpt lat="40.195417" lon="-5.002817">
        <ele>1899.0</ele>
        <time>2014-05-17T12:44:53Z</time>
      </trkpt>
      <trkpt lat="40.195383" lon="-5.002983">
        <ele>1898.0</ele>
        <time>2014-05-17T12:44:54Z</time>
      </trkpt>
      <trkpt lat="40.195333" lon="-5.003133">
        <ele>1897.0</ele>
        <time>2014-05-17T12:44:55Z</time>
      </trkpt>
      <trkpt lat="40.195300" lon="-5.003300">
        <ele>1897.0</ele>
        <time>2014-05-17T12:44:56Z</time>
      </trkpt>
      <trkpt lat="40.195267" lon="-5.003467">
        <ele>1896.0</ele>
        <time>2014-05-17T12:44:57Z</time>
      </trkpt>
      <trkpt lat="40.195233" lon="-5.003633">
        <ele>1896.0</ele>
        <time>2014-05-17T12:44:58Z</time>
      </trkpt>
      <trkpt lat="40.195200" lon="-5.003783">
        <ele>1896.0</ele>
        <time>2014-05-17T12:44:59Z</time>
      </trkpt>
      <trkpt lat="40.195167" lon="-5.003950">
        <ele>1895.0</ele>
        <time>2014-05-17T12:45:00Z</time>
      </trkpt>
      <trkpt lat="40.195133" lon="-5.004100">
        <ele>1895.0</ele>
        <time>2014-05-17T12:45:01Z</time>
      </trkpt>
      <trkpt lat="40.195100" lon="-5.004267">
        <ele>1895.0</ele>
        <time>2014-05-17T12:45:02Z</time>
      </trkpt>
      <trkpt lat="40.195067" lon="-5.004433">
        <ele>1894.0</ele>
        <time>2014-05-17T12:45:03Z</time>
      </trkpt>
      <trkpt lat="40.195033" lon="-5.004600">
        <ele>1894.0</ele>
        <time>2014-05-17T12:45:04Z</time>
      </trkpt>
      <trkpt lat="40.195000" lon="-5.004767">
        <ele>1893.0</ele>
        <time>2014-05-17T12:45:05Z</time>
      </trkpt>
      <trkpt lat="40.194967" lon="-5.004917">
        <ele>1893.0</ele>
        <time>2014-05-17T12:45:06Z</time>
      </trkpt>
      <trkpt lat="40.194933" lon="-5.005083">
        <ele>1892.0</ele>
        <time>2014-05-17T12:45:07Z</time>
      </trkpt>
      <trkpt lat="40.194900" lon="-5.005250">
        <ele>1891.0</ele>
        <time>2014-05-17T12:45:08Z</time>
      </trkpt>
      <trkpt lat="40.194867" lon="-5.005417">
        <ele>1890.0</ele>
        <time>2014-05-17T12:45:09Z</time>
      </trkpt>
      <trkpt lat="40.194850" lon="-5.005567">
        <ele>1889.0</ele>
        <time>2014-05-17T12:45:10Z</time>
      </trkpt>
      <trkpt lat="40.194783" lon="-5.005883">
        <ele>1885.0</ele>
        <time>2014-05-17T12:45:12Z</time>
      </trkpt>
      <trkpt lat="40.194733" lon="-5.006050">
        <ele>1883.0</ele>
        <time>2014-05-17T12:45:13Z</time>
      </trkpt>
      <trkpt lat="40.194700" lon="-5.006217">
        <ele>1880.0</ele>
        <time>2014-05-17T12:45:14Z</time>
      </trkpt>
      <trkpt lat="40.194667" lon="-5.006383">
        <ele>1877.0</ele>
        <time>2014-05-17T12:45:15Z</time>
      </trkpt>
      <trkpt lat="40.194617" lon="-5.006550">
        <ele>1874.0</ele>
        <time>2014-05-17T12:45:16Z</time>
      </trkpt>
      <trkpt lat="40.194567" lon="-5.006717">
        <ele>1872.0</ele>
        <time>2014-05-17T12:45:17Z</time>
      </trkpt>
      <trkpt lat="40.194533" lon="-5.006867">
        <ele>1871.0</ele>
        <time>2014-05-17T12:45:18Z</time>
      </trkpt>
      <trkpt lat="40.194500" lon="-5.007050">
        <ele>1868.0</ele>
        <time>2014-05-17T12:45:19Z</time>
      </trkpt>
      <trkpt lat="40.194467" lon="-5.007217">
        <ele>1866.0</ele>
        <time>2014-05-17T12:45:20Z</time>
      </trkpt>
      <trkpt lat="40.194433" lon="-5.007383">
        <ele>1864.0</ele>
        <time>2014-05-17T12:45:21Z</time>
      </trkpt>
      <trkpt lat="40.194400" lon="-5.007550">
        <ele>1862.0</ele>
        <time>2014-05-17T12:45:22Z</time>
      </trkpt>
      <trkpt lat="40.194367" lon="-5.007717">
        <ele>1860.0</ele>
        <time>2014-05-17T12:45:23Z</time>
      </trkpt>
      <trkpt lat="40.194350" lon="-5.007883">
        <ele>1857.0</ele>
        <time>2014-05-17T12:45:24Z</time>
      </trkpt>
      <trkpt lat="40.194317" lon="-5.008050">
        <ele>1855.0</ele>
        <time>2014-05-17T12:45:25Z</time>
      </trkpt>
      <trkpt lat="40.194283" lon="-5.008217">
        <ele>1852.0</ele>
        <time>2014-05-17T12:45:26Z</time>
      </trkpt>
      <trkpt lat="40.194250" lon="-5.008383">
        <ele>1850.0</ele>
        <time>2014-05-17T12:45:27Z</time>
      </trkpt>
      <trkpt lat="40.194233" lon="-5.008533">
        <ele>1848.0</ele>
        <time>2014-05-17T12:45:28Z</time>
      </trkpt>
      <trkpt lat="40.194217" lon="-5.008667">
        <ele>1846.0</ele>
        <time>2014-05-17T12:45:29Z</time>
      </trkpt>
      <trkpt lat="40.194183" lon="-5.008800">
        <ele>1844.0</ele>
        <time>2014-05-17T12:45:30Z</time>
      </trkpt>
      <trkpt lat="40.194167" lon="-5.008933">
        <ele>1840.0</ele>
        <time>2014-05-17T12:45:31Z</time>
      </trkpt>
      <trkpt lat="40.194150" lon="-5.009083">
        <ele>1836.0</ele>
        <time>2014-05-17T12:45:32Z</time>
      </trkpt>
      <trkpt lat="40.194150" lon="-5.009217">
        <ele>1833.0</ele>
        <time>2014-05-17T12:45:33Z</time>
      </trkpt>
      <trkpt lat="40.194167" lon="-5.009467">
        <ele>1830.0</ele>
        <time>2014-05-17T12:45:35Z</time>
      </trkpt>
      <trkpt lat="40.194183" lon="-5.009617">
        <ele>1827.0</ele>
        <time>2014-05-17T12:45:36Z</time>
      </trkpt>
      <trkpt lat="40.194200" lon="-5.009767">
        <ele>1824.0</ele>
        <time>2014-05-17T12:45:37Z</time>
      </trkpt>
      <trkpt lat="40.194217" lon="-5.009933">
        <ele>1822.0</ele>
        <time>2014-05-17T12:45:38Z</time>
      </trkpt>
      <trkpt lat="40.194217" lon="-5.010083">
        <ele>1820.0</ele>
        <time>2014-05-17T12:45:39Z</time>
      </trkpt>
      <trkpt lat="40.194217" lon="-5.010233">
        <ele>1819.0</ele>
        <time>2014-05-17T12:45:40Z</time>
      </trkpt>
      <trkpt lat="40.194217" lon="-5.010383">
        <ele>1817.0</ele>
        <time>2014-05-17T12:45:41Z</time>
      </trkpt>
      <trkpt lat="40.194217" lon="-5.010533">
        <ele>1815.0</ele>
        <time>2014-05-17T12:45:42Z</time>
      </trkpt>
      <trkpt lat="40.194233" lon="-5.010683">
        <ele>1813.0</ele>
        <time>2014-05-17T12:45:43Z</time>
      </trkpt>
      <trkpt lat="40.194233" lon="-5.010833">
        <ele>1811.0</ele>
        <time>2014-05-17T12:45:44Z</time>
      </trkpt>
      <trkpt lat="40.194217" lon="-5.010983">
        <ele>1809.0</ele>
        <time>2014-05-17T12:45:45Z</time>
      </trkpt>
      <trkpt lat="40.194183" lon="-5.011150">
        <ele>1806.0</ele>
        <time>2014-05-17T12:45:46Z</time>
      </trkpt>
      <trkpt lat="40.194167" lon="-5.011300">
        <ele>1804.0</ele>
        <time>2014-05-17T12:45:47Z</time>
      </trkpt>
      <trkpt lat="40.194167" lon="-5.011450">
        <ele>1803.0</ele>
        <time>2014-05-17T12:45:48Z</time>
      </trkpt>
      <trkpt lat="40.194167" lon="-5.011583">
        <ele>1802.0</ele>
        <time>2014-05-17T12:45:49Z</time>
      </trkpt>
      <trkpt lat="40.194167" lon="-5.011717">
        <ele>1801.0</ele>
        <time>2014-05-17T12:45:50Z</time>
      </trkpt>
      <trkpt lat="40.194167" lon="-5.011867">
        <ele>1798.0</ele>
        <time>2014-05-17T12:45:51Z</time>
      </trkpt>
      <trkpt lat="40.194167" lon="-5.012017">
        <ele>1796.0</ele>
        <time>2014-05-17T12:45:52Z</time>
      </trkpt>
      <trkpt lat="40.194167" lon="-5.012150">
        <ele>1794.0</ele>
        <time>2014-05-17T12:45:53Z</time>
      </trkpt>
      <trkpt lat="40.194167" lon="-5.012300">
        <ele>1792.0</ele>
        <time>2014-05-17T12:45:54Z</time>
      </trkpt>
      <trkpt lat="40.194183" lon="-5.012433">
        <ele>1791.0</ele>
        <time>2014-05-17T12:45:55Z</time>
      </trkpt>
      <trkpt lat="40.194183" lon="-5.012583">
        <ele>1790.0</ele>
        <time>2014-05-17T12:45:56Z</time>
      </trkpt>
      <trkpt lat="40.194200" lon="-5.012733">
        <ele>1788.0</ele>
        <time>2014-05-17T12:45:57Z</time>
      </trkpt>
      <trkpt lat="40.194217" lon="-5.012883">
        <ele>1786.0</ele>
        <time>2014-05-17T12:45:58Z</time>
      </trkpt>
      <trkpt lat="40.194233" lon="-5.013033">
        <ele>1785.0</ele>
        <time>2014-05-17T12:45:59Z</time>
      </trkpt>
      <trkpt lat="40.194250" lon="-5.013183">
        <ele>1784.0</ele>
        <time>2014-05-17T12:46:00Z</time>
      </trkpt>
      <trkpt lat="40.194250" lon="-5.013317">
        <ele>1784.0</ele>
        <time>2014-05-17T12:46:01Z</time>
      </trkpt>
      <trkpt lat="40.194267" lon="-5.013467">
        <ele>1783.0</ele>
        <time>2014-05-17T12:46:02Z</time>
      </trkpt>
      <trkpt lat="40.194267" lon="-5.013617">
        <ele>1782.0</ele>
        <time>2014-05-17T12:46:03Z</time>
      </trkpt>
      <trkpt lat="40.194267" lon="-5.013767">
        <ele>1782.0</ele>
        <time>2014-05-17T12:46:04Z</time>
      </trkpt>
      <trkpt lat="40.194267" lon="-5.013917">
        <ele>1781.0</ele>
        <time>2014-05-17T12:46:05Z</time>
      </trkpt>
      <trkpt lat="40.194283" lon="-5.014067">
        <ele>1780.0</ele>
        <time>2014-05-17T12:46:06Z</time>
      </trkpt>
      <trkpt lat="40.194283" lon="-5.014217">
        <ele>1779.0</ele>
        <time>2014-05-17T12:46:07Z</time>
      </trkpt>
      <trkpt lat="40.194300" lon="-5.014367">
        <ele>1779.0</ele>
        <time>2014-05-17T12:46:08Z</time>
      </trkpt>
      <trkpt lat="40.194317" lon="-5.014500">
        <ele>1778.0</ele>
        <time>2014-05-17T12:46:09Z</time>
      </trkpt>
      <trkpt lat="40.194317" lon="-5.014650">
        <ele>1778.0</ele>
        <time>2014-05-17T12:46:10Z</time>
      </trkpt>
      <trkpt lat="40.194317" lon="-5.014800">
        <ele>1776.0</ele>
        <time>2014-05-17T12:46:11Z</time>
      </trkpt>
      <trkpt lat="40.194317" lon="-5.014950">
        <ele>1775.0</ele>
        <time>2014-05-17T12:46:12Z</time>
      </trkpt>
      <trkpt lat="40.194317" lon="-5.015083">
        <ele>1774.0</ele>
        <time>2014-05-17T12:46:13Z</time>
      </trkpt>
      <trkpt lat="40.194317" lon="-5.015217">
        <ele>1773.0</ele>
        <time>2014-05-17T12:46:14Z</time>
      </trkpt>
      <trkpt lat="40.194317" lon="-5.015367">
        <ele>1771.0</ele>
        <time>2014-05-17T12:46:15Z</time>
      </trkpt>
      <trkpt lat="40.194333" lon="-5.015517">
        <ele>1768.0</ele>
        <time>2014-05-17T12:46:16Z</time>
      </trkpt>
      <trkpt lat="40.194333" lon="-5.015683">
        <ele>1765.0</ele>
        <time>2014-05-17T12:46:17Z</time>
      </trkpt>
      <trkpt lat="40.194350" lon="-5.015833">
        <ele>1763.0</ele>
        <time>2014-05-17T12:46:18Z</time>
      </trkpt>
      <trkpt lat="40.194350" lon="-5.015983">
        <ele>1761.0</ele>
        <time>2014-05-17T12:46:19Z</time>
      </trkpt>
      <trkpt lat="40.194367" lon="-5.016117">
        <ele>1760.0</ele>
        <time>2014-05-17T12:46:20Z</time>
      </trkpt>
      <trkpt lat="40.194383" lon="-5.016250">
        <ele>1758.0</ele>
        <time>2014-05-17T12:46:21Z</time>
      </trkpt>
      <trkpt lat="40.194383" lon="-5.016400">
        <ele>1755.0</ele>
        <time>2014-05-17T12:46:22Z</time>
      </trkpt>
      <trkpt lat="40.194400" lon="-5.016550">
        <ele>1751.0</ele>
        <time>2014-05-17T12:46:23Z</time>
      </trkpt>
      <trkpt lat="40.194400" lon="-5.016717">
        <ele>1747.0</ele>
        <time>2014-05-17T12:46:24Z</time>
      </trkpt>
      <trkpt lat="40.194400" lon="-5.016867">
        <ele>1743.0</ele>
        <time>2014-05-17T12:46:25Z</time>
      </trkpt>
      <trkpt lat="40.194400" lon="-5.017017">
        <ele>1741.0</ele>
        <time>2014-05-17T12:46:26Z</time>
      </trkpt>
      <trkpt lat="40.194400" lon="-5.017150">
        <ele>1738.0</ele>
        <time>2014-05-17T12:46:27Z</time>
      </trkpt>
      <trkpt lat="40.194417" lon="-5.017300">
        <ele>1735.0</ele>
        <time>2014-05-17T12:46:28Z</time>
      </trkpt>
      <trkpt lat="40.194417" lon="-5.017450">
        <ele>1732.0</ele>
        <time>2014-05-17T12:46:29Z</time>
      </trkpt>
      <trkpt lat="40.194433" lon="-5.017600">
        <ele>1729.0</ele>
        <time>2014-05-17T12:46:30Z</time>
      </trkpt>
      <trkpt lat="40.194433" lon="-5.017750">
        <ele>1725.0</ele>
        <time>2014-05-17T12:46:31Z</time>
      </trkpt>
      <trkpt lat="40.194417" lon="-5.017900">
        <ele>1722.0</ele>
        <time>2014-05-17T12:46:32Z</time>
      </trkpt>
      <trkpt lat="40.194417" lon="-5.018050">
        <ele>1719.0</ele>
        <time>2014-05-17T12:46:33Z</time>
      </trkpt>
      <trkpt lat="40.194400" lon="-5.018200">
        <ele>1717.0</ele>
        <time>2014-05-17T12:46:34Z</time>
      </trkpt>
      <trkpt lat="40.194383" lon="-5.018333">
        <ele>1714.0</ele>
        <time>2014-05-17T12:46:35Z</time>
      </trkpt>
      <trkpt lat="40.194367" lon="-5.018483">
        <ele>1711.0</ele>
        <time>2014-05-17T12:46:36Z</time>
      </trkpt>
      <trkpt lat="40.194350" lon="-5.018617">
        <ele>1709.0</ele>
        <time>2014-05-17T12:46:37Z</time>
      </trkpt>
      <trkpt lat="40.194333" lon="-5.018750">
        <ele>1706.0</ele>
        <time>2014-05-17T12:46:38Z</time>
      </trkpt>
      <trkpt lat="40.194317" lon="-5.018900">
        <ele>1703.0</ele>
        <time>2014-05-17T12:46:39Z</time>
      </trkpt>
      <trkpt lat="40.194300" lon="-5.019050">
        <ele>1700.0</ele>
        <time>2014-05-17T12:46:40Z</time>
      </trkpt>
      <trkpt lat="40.194267" lon="-5.019200">
        <ele>1697.0</ele>
        <time>2014-05-17T12:46:41Z</time>
      </trkpt>
      <trkpt lat="40.194250" lon="-5.019367">
        <ele>1694.0</ele>
        <time>2014-05-17T12:46:42Z</time>
      </trkpt>
      <trkpt lat="40.194217" lon="-5.019517">
        <ele>1691.0</ele>
        <time>2014-05-17T12:46:43Z</time>
      </trkpt>
      <trkpt lat="40.194183" lon="-5.019650">
        <ele>1689.0</ele>
        <time>2014-05-17T12:46:44Z</time>
      </trkpt>
      <trkpt lat="40.194133" lon="-5.019783">
        <ele>1688.0</ele>
        <time>2014-05-17T12:46:45Z</time>
      </trkpt>
      <trkpt lat="40.194100" lon="-5.019917">
        <ele>1686.0</ele>
        <time>2014-05-17T12:46:46Z</time>
      </trkpt>
      <trkpt lat="40.194067" lon="-5.020050">
        <ele>1684.0</ele>
        <time>2014-05-17T12:46:47Z</time>
      </trkpt>
      <trkpt lat="40.194050" lon="-5.020183">
        <ele>1683.0</ele>
        <time>2014-05-17T12:46:48Z</time>
      </trkpt>
      <trkpt lat="40.194033" lon="-5.020300">
        <ele>1681.0</ele>
        <time>2014-05-17T12:46:49Z</time>
      </trkpt>
      <trkpt lat="40.194000" lon="-5.020433">
        <ele>1678.0</ele>
        <time>2014-05-17T12:46:50Z</time>
      </trkpt>
      <trkpt lat="40.193983" lon="-5.020583">
        <ele>1676.0</ele>
        <time>2014-05-17T12:46:51Z</time>
      </trkpt>
      <trkpt lat="40.193950" lon="-5.020717">
        <ele>1673.0</ele>
        <time>2014-05-17T12:46:52Z</time>
      </trkpt>
      <trkpt lat="40.193933" lon="-5.020867">
        <ele>1671.0</ele>
        <time>2014-05-17T12:46:53Z</time>
      </trkpt>
      <trkpt lat="40.193917" lon="-5.021000">
        <ele>1670.0</ele>
        <time>2014-05-17T12:46:54Z</time>
      </trkpt>
      <trkpt lat="40.193900" lon="-5.021133">
        <ele>1669.0</ele>
        <time>2014-05-17T12:46:55Z</time>
      </trkpt>
      <trkpt lat="40.193867" lon="-5.021400">
        <ele>1665.0</ele>
        <time>2014-05-17T12:46:57Z</time>
      </trkpt>
      <trkpt lat="40.193850" lon="-5.021550">
        <ele>1663.0</ele>
        <time>2014-05-17T12:46:58Z</time>
      </trkpt>
      <trkpt lat="40.193800" lon="-5.021850">
        <ele>1658.0</ele>
        <time>2014-05-17T12:47:00Z</time>
      </trkpt>
      <trkpt lat="40.193767" lon="-5.022000">
        <ele>1657.0</ele>
        <time>2014-05-17T12:47:01Z</time>
      </trkpt>
      <trkpt lat="40.193733" lon="-5.022133">
        <ele>1655.0</ele>
        <time>2014-05-17T12:47:02Z</time>
      </trkpt>
      <trkpt lat="40.193700" lon="-5.022250">
        <ele>1653.0</ele>
        <time>2014-05-17T12:47:03Z</time>
      </trkpt>
      <trkpt lat="40.193650" lon="-5.022400">
        <ele>1651.0</ele>
        <time>2014-05-17T12:47:04Z</time>
      </trkpt>
      <trkpt lat="40.193617" lon="-5.022567">
        <ele>1647.0</ele>
        <time>2014-05-17T12:47:05Z</time>
      </trkpt>
      <trkpt lat="40.193567" lon="-5.022733">
        <ele>1643.0</ele>
        <time>2014-05-17T12:47:06Z</time>
      </trkpt>
      <trkpt lat="40.193550" lon="-5.022883">
        <ele>1640.0</ele>
        <time>2014-05-17T12:47:07Z</time>
      </trkpt>
      <trkpt lat="40.193533" lon="-5.023033">
        <ele>1637.0</ele>
        <time>2014-05-17T12:47:08Z</time>
      </trkpt>
      <trkpt lat="40.193517" lon="-5.023150">
        <ele>1636.0</ele>
        <time>2014-05-17T12:47:09Z</time>
      </trkpt>
      <trkpt lat="40.193500" lon="-5.023283">
        <ele>1634.0</ele>
        <time>2014-05-17T12:47:10Z</time>
      </trkpt>
      <trkpt lat="40.193500" lon="-5.023417">
        <ele>1633.0</ele>
        <time>2014-05-17T12:47:11Z</time>
      </trkpt>
      <trkpt lat="40.193467" lon="-5.023567">
        <ele>1631.0</ele>
        <time>2014-05-17T12:47:12Z</time>
      </trkpt>
      <trkpt lat="40.193450" lon="-5.023717">
        <ele>1629.0</ele>
        <time>2014-05-17T12:47:13Z</time>
      </trkpt>
      <trkpt lat="40.193417" lon="-5.023867">
        <ele>1628.0</ele>
        <time>2014-05-17T12:47:14Z</time>
      </trkpt>
      <trkpt lat="40.193400" lon="-5.024000">
        <ele>1629.0</ele>
        <time>2014-05-17T12:47:15Z</time>
      </trkpt>
      <trkpt lat="40.193383" lon="-5.024100">
        <ele>1632.0</ele>
        <time>2014-05-17T12:47:16Z</time>
      </trkpt>
      <trkpt lat="40.193367" lon="-5.024200">
        <ele>1634.0</ele>
        <time>2014-05-17T12:47:17Z</time>
      </trkpt>
      <trkpt lat="40.193333" lon="-5.024300">
        <ele>1635.0</ele>
        <time>2014-05-17T12:47:18Z</time>
      </trkpt>
      <trkpt lat="40.193300" lon="-5.024450">
        <ele>1636.0</ele>
        <time>2014-05-17T12:47:19Z</time>
      </trkpt>
      <trkpt lat="40.193267" lon="-5.024600">
        <ele>1636.0</ele>
        <time>2014-05-17T12:47:20Z</time>
      </trkpt>
      <trkpt lat="40.193233" lon="-5.024750">
        <ele>1638.0</ele>
        <time>2014-05-17T12:47:21Z</time>
      </trkpt>
      <trkpt lat="40.193233" lon="-5.024867">
        <ele>1642.0</ele>
        <time>2014-05-17T12:47:22Z</time>
      </trkpt>
      <trkpt lat="40.193233" lon="-5.024983">
        <ele>1645.0</ele>
        <time>2014-05-17T12:47:23Z</time>
      </trkpt>
      <trkpt lat="40.193250" lon="-5.025117">
        <ele>1648.0</ele>
        <time>2014-05-17T12:47:24Z</time>
      </trkpt>
      <trkpt lat="40.193283" lon="-5.025283">
        <ele>1650.0</ele>
        <time>2014-05-17T12:47:25Z</time>
      </trkpt>
      <trkpt lat="40.193333" lon="-5.025417">
        <ele>1651.0</ele>
        <time>2014-05-17T12:47:26Z</time>
      </trkpt>
      <trkpt lat="40.193483" lon="-5.025617">
        <ele>1656.0</ele>
        <time>2014-05-17T12:47:28Z</time>
      </trkpt>
      <trkpt lat="40.193550" lon="-5.025650">
        <ele>1658.0</ele>
        <time>2014-05-17T12:47:29Z</time>
      </trkpt>
      <trkpt lat="40.193667" lon="-5.025617">
        <ele>1661.0</ele>
        <time>2014-05-17T12:47:31Z</time>
      </trkpt>
      <trkpt lat="40.193800" lon="-5.025517">
        <ele>1665.0</ele>
        <time>2014-05-17T12:47:34Z</time>
      </trkpt>
      <trkpt lat="40.193817" lon="-5.025367">
        <ele>1666.0</ele>
        <time>2014-05-17T12:47:36Z</time>
      </trkpt>
      <trkpt lat="40.193783" lon="-5.025300">
        <ele>1666.0</ele>
        <time>2014-05-17T12:47:37Z</time>
      </trkpt>
      <trkpt lat="40.193750" lon="-5.025250">
        <ele>1667.0</ele>
        <time>2014-05-17T12:47:38Z</time>
      </trkpt>
      <trkpt lat="40.193717" lon="-5.025200">
        <ele>1667.0</ele>
        <time>2014-05-17T12:47:39Z</time>
      </trkpt>
      <trkpt lat="40.193700" lon="-5.025167">
        <ele>1666.0</ele>
        <time>2014-05-17T12:47:40Z</time>
      </trkpt>
      <trkpt lat="40.193667" lon="-5.025133">
        <ele>1666.0</ele>
        <time>2014-05-17T12:47:41Z</time>
      </trkpt>
      <trkpt lat="40.193633" lon="-5.025100">
        <ele>1664.0</ele>
        <time>2014-05-17T12:47:42Z</time>
      </trkpt>
      <trkpt lat="40.193600" lon="-5.025083">
        <ele>1662.0</ele>
        <time>2014-05-17T12:47:43Z</time>
      </trkpt>
      <trkpt lat="40.193533" lon="-5.025067">
        <ele>1659.0</ele>
        <time>2014-05-17T12:47:44Z</time>
      </trkpt>
      <trkpt lat="40.193450" lon="-5.025067">
        <ele>1656.0</ele>
        <time>2014-05-17T12:47:45Z</time>
      </trkpt>
      <trkpt lat="40.193367" lon="-5.025083">
        <ele>1653.0</ele>
        <time>2014-05-17T12:47:46Z</time>
      </trkpt>
      <trkpt lat="40.193283" lon="-5.025117">
        <ele>1650.0</ele>
        <time>2014-05-17T12:47:47Z</time>
      </trkpt>
      <trkpt lat="40.193200" lon="-5.025167">
        <ele>1649.0</ele>
        <time>2014-05-17T12:47:48Z</time>
      </trkpt>
      <trkpt lat="40.193117" lon="-5.025250">
        <ele>1648.0</ele>
        <time>2014-05-17T12:47:49Z</time>
      </trkpt>
      <trkpt lat="40.193033" lon="-5.025350">
        <ele>1649.0</ele>
        <time>2014-05-17T12:47:50Z</time>
      </trkpt>
      <trkpt lat="40.192967" lon="-5.025450">
        <ele>1650.0</ele>
        <time>2014-05-17T12:47:51Z</time>
      </trkpt>
      <trkpt lat="40.192917" lon="-5.025567">
        <ele>1650.0</ele>
        <time>2014-05-17T12:47:52Z</time>
      </trkpt>
      <trkpt lat="40.192867" lon="-5.025683">
        <ele>1651.0</ele>
        <time>2014-05-17T12:47:53Z</time>
      </trkpt>
      <trkpt lat="40.192817" lon="-5.025817">
        <ele>1651.0</ele>
        <time>2014-05-17T12:47:54Z</time>
      </trkpt>
      <trkpt lat="40.192767" lon="-5.025950">
        <ele>1650.0</ele>
        <time>2014-05-17T12:47:55Z</time>
      </trkpt>
      <trkpt lat="40.192700" lon="-5.026083">
        <ele>1649.0</ele>
        <time>2014-05-17T12:47:56Z</time>
      </trkpt>
      <trkpt lat="40.192650" lon="-5.026217">
        <ele>1649.0</ele>
        <time>2014-05-17T12:47:57Z</time>
      </trkpt>
      <trkpt lat="40.192533" lon="-5.026650">
        <ele>1648.0</ele>
        <time>2014-05-17T12:48:00Z</time>
      </trkpt>
      <trkpt lat="40.192500" lon="-5.026783">
        <ele>1648.0</ele>
        <time>2014-05-17T12:48:01Z</time>
      </trkpt>
      <trkpt lat="40.192483" lon="-5.026917">
        <ele>1648.0</ele>
        <time>2014-05-17T12:48:02Z</time>
      </trkpt>
      <trkpt lat="40.192467" lon="-5.027050">
        <ele>1648.0</ele>
        <time>2014-05-17T12:48:03Z</time>
      </trkpt>
      <trkpt lat="40.192450" lon="-5.027200">
        <ele>1647.0</ele>
        <time>2014-05-17T12:48:04Z</time>
      </trkpt>
      <trkpt lat="40.192433" lon="-5.027367">
        <ele>1646.0</ele>
        <time>2014-05-17T12:48:05Z</time>
      </trkpt>
      <trkpt lat="40.192417" lon="-5.027533">
        <ele>1645.0</ele>
        <time>2014-05-17T12:48:06Z</time>
      </trkpt>
      <trkpt lat="40.192383" lon="-5.027683">
        <ele>1645.0</ele>
        <time>2014-05-17T12:48:07Z</time>
      </trkpt>
      <trkpt lat="40.192333" lon="-5.027833">
        <ele>1645.0</ele>
        <time>2014-05-17T12:48:08Z</time>
      </trkpt>
      <trkpt lat="40.192283" lon="-5.027967">
        <ele>1644.0</ele>
        <time>2014-05-17T12:48:09Z</time>
      </trkpt>
      <trkpt lat="40.192233" lon="-5.028100">
        <ele>1644.0</ele>
        <time>2014-05-17T12:48:10Z</time>
      </trkpt>
      <trkpt lat="40.192183" lon="-5.028233">
        <ele>1645.0</ele>
        <time>2014-05-17T12:48:11Z</time>
      </trkpt>
      <trkpt lat="40.192150" lon="-5.028367">
        <ele>1645.0</ele>
        <time>2014-05-17T12:48:12Z</time>
      </trkpt>
      <trkpt lat="40.192117" lon="-5.028517">
        <ele>1645.0</ele>
        <time>2014-05-17T12:48:13Z</time>
      </trkpt>
      <trkpt lat="40.192083" lon="-5.028667">
        <ele>1645.0</ele>
        <time>2014-05-17T12:48:14Z</time>
      </trkpt>
      <trkpt lat="40.192067" lon="-5.028833">
        <ele>1645.0</ele>
        <time>2014-05-17T12:48:15Z</time>
      </trkpt>
      <trkpt lat="40.192100" lon="-5.029167">
        <ele>1645.0</ele>
        <time>2014-05-17T12:48:17Z</time>
      </trkpt>
      <trkpt lat="40.192133" lon="-5.029317">
        <ele>1645.0</ele>
        <time>2014-05-17T12:48:18Z</time>
      </trkpt>
      <trkpt lat="40.192183" lon="-5.029467">
        <ele>1645.0</ele>
        <time>2014-05-17T12:48:19Z</time>
      </trkpt>
      <trkpt lat="40.192233" lon="-5.029617">
        <ele>1645.0</ele>
        <time>2014-05-17T12:48:20Z</time>
      </trkpt>
      <trkpt lat="40.192300" lon="-5.029767">
        <ele>1646.0</ele>
        <time>2014-05-17T12:48:21Z</time>
      </trkpt>
      <trkpt lat="40.192350" lon="-5.029917">
        <ele>1647.0</ele>
        <time>2014-05-17T12:48:22Z</time>
      </trkpt>
      <trkpt lat="40.192400" lon="-5.030050">
        <ele>1649.0</ele>
        <time>2014-05-17T12:48:23Z</time>
      </trkpt>
      <trkpt lat="40.192450" lon="-5.030200">
        <ele>1650.0</ele>
        <time>2014-05-17T12:48:24Z</time>
      </trkpt>
      <trkpt lat="40.192500" lon="-5.030333">
        <ele>1651.0</ele>
        <time>2014-05-17T12:48:25Z</time>
      </trkpt>
      <trkpt lat="40.192550" lon="-5.030467">
        <ele>1651.0</ele>
        <time>2014-05-17T12:48:26Z</time>
      </trkpt>
      <trkpt lat="40.192633" lon="-5.030600">
        <ele>1652.0</ele>
        <time>2014-05-17T12:48:27Z</time>
      </trkpt>
      <trkpt lat="40.192700" lon="-5.030733">
        <ele>1653.0</ele>
        <time>2014-05-17T12:48:28Z</time>
      </trkpt>
      <trkpt lat="40.192767" lon="-5.030867">
        <ele>1654.0</ele>
        <time>2014-05-17T12:48:29Z</time>
      </trkpt>
      <trkpt lat="40.192817" lon="-5.031000">
        <ele>1655.0</ele>
        <time>2014-05-17T12:48:30Z</time>
      </trkpt>
      <trkpt lat="40.192850" lon="-5.031133">
        <ele>1657.0</ele>
        <time>2014-05-17T12:48:31Z</time>
      </trkpt>
      <trkpt lat="40.192883" lon="-5.031283">
        <ele>1659.0</ele>
        <time>2014-05-17T12:48:32Z</time>
      </trkpt>
      <trkpt lat="40.192933" lon="-5.031417">
        <ele>1660.0</ele>
        <time>2014-05-17T12:48:33Z</time>
      </trkpt>
      <trkpt lat="40.193067" lon="-5.031733">
        <ele>1662.0</ele>
        <time>2014-05-17T12:48:35Z</time>
      </trkpt>
      <trkpt lat="40.193117" lon="-5.031883">
        <ele>1664.0</ele>
        <time>2014-05-17T12:48:36Z</time>
      </trkpt>
      <trkpt lat="40.193167" lon="-5.032033">
        <ele>1668.0</ele>
        <time>2014-05-17T12:48:37Z</time>
      </trkpt>
      <trkpt lat="40.193217" lon="-5.032167">
        <ele>1671.0</ele>
        <time>2014-05-17T12:48:38Z</time>
      </trkpt>
      <trkpt lat="40.193267" lon="-5.032300">
        <ele>1674.0</ele>
        <time>2014-05-17T12:48:39Z</time>
      </trkpt>
      <trkpt lat="40.193350" lon="-5.032400">
        <ele>1676.0</ele>
        <time>2014-05-17T12:48:40Z</time>
      </trkpt>
      <trkpt lat="40.193433" lon="-5.032483">
        <ele>1677.0</ele>
        <time>2014-05-17T12:48:41Z</time>
      </trkpt>
      <trkpt lat="40.193533" lon="-5.032517">
        <ele>1678.0</ele>
        <time>2014-05-17T12:48:42Z</time>
      </trkpt>
      <trkpt lat="40.193600" lon="-5.032517">
        <ele>1680.0</ele>
        <time>2014-05-17T12:48:43Z</time>
      </trkpt>
      <trkpt lat="40.193650" lon="-5.032500">
        <ele>1682.0</ele>
        <time>2014-05-17T12:48:44Z</time>
      </trkpt>
      <trkpt lat="40.193667" lon="-5.032467">
        <ele>1684.0</ele>
        <time>2014-05-17T12:48:45Z</time>
      </trkpt>
      <trkpt lat="40.193683" lon="-5.032417">
        <ele>1686.0</ele>
        <time>2014-05-17T12:48:46Z</time>
      </trkpt>
      <trkpt lat="40.193650" lon="-5.032333">
        <ele>1691.0</ele>
        <time>2014-05-17T12:48:48Z</time>
      </trkpt>
      <trkpt lat="40.193600" lon="-5.032300">
        <ele>1693.0</ele>
        <time>2014-05-17T12:48:49Z</time>
      </trkpt>
      <trkpt lat="40.193517" lon="-5.032300">
        <ele>1695.0</ele>
        <time>2014-05-17T12:48:50Z</time>
      </trkpt>
      <trkpt lat="40.193417" lon="-5.032317">
        <ele>1696.0</ele>
        <time>2014-05-17T12:48:51Z</time>
      </trkpt>
      <trkpt lat="40.193317" lon="-5.032367">
        <ele>1699.0</ele>
        <time>2014-05-17T12:48:52Z</time>
      </trkpt>
      <trkpt lat="40.193217" lon="-5.032450">
        <ele>1702.0</ele>
        <time>2014-05-17T12:48:53Z</time>
      </trkpt>
      <trkpt lat="40.193167" lon="-5.032550">
        <ele>1705.0</ele>
        <time>2014-05-17T12:48:54Z</time>
      </trkpt>
      <trkpt lat="40.193100" lon="-5.032683">
        <ele>1709.0</ele>
        <time>2014-05-17T12:48:55Z</time>
      </trkpt>
      <trkpt lat="40.193050" lon="-5.032800">
        <ele>1712.0</ele>
        <time>2014-05-17T12:48:56Z</time>
      </trkpt>
      <trkpt lat="40.193000" lon="-5.032950">
        <ele>1714.0</ele>
        <time>2014-05-17T12:48:57Z</time>
      </trkpt>
      <trkpt lat="40.192950" lon="-5.033100">
        <ele>1716.0</ele>
        <time>2014-05-17T12:48:58Z</time>
      </trkpt>
      <trkpt lat="40.192933" lon="-5.033250">
        <ele>1719.0</ele>
        <time>2014-05-17T12:48:59Z</time>
      </trkpt>
      <trkpt lat="40.192917" lon="-5.033417">
        <ele>1721.0</ele>
        <time>2014-05-17T12:49:00Z</time>
      </trkpt>
      <trkpt lat="40.192917" lon="-5.033567">
        <ele>1723.0</ele>
        <time>2014-05-17T12:49:01Z</time>
      </trkpt>
      <trkpt lat="40.192917" lon="-5.033717">
        <ele>1722.0</ele>
        <time>2014-05-17T12:49:02Z</time>
      </trkpt>
      <trkpt lat="40.193000" lon="-5.034200">
        <ele>1723.0</ele>
        <time>2014-05-17T12:49:05Z</time>
      </trkpt>
      <trkpt lat="40.193050" lon="-5.034333">
        <ele>1722.0</ele>
        <time>2014-05-17T12:49:06Z</time>
      </trkpt>
      <trkpt lat="40.193117" lon="-5.034467">
        <ele>1722.0</ele>
        <time>2014-05-17T12:49:07Z</time>
      </trkpt>
      <trkpt lat="40.193200" lon="-5.034600">
        <ele>1721.0</ele>
        <time>2014-05-17T12:49:08Z</time>
      </trkpt>
      <trkpt lat="40.193283" lon="-5.034717">
        <ele>1721.0</ele>
        <time>2014-05-17T12:49:09Z</time>
      </trkpt>
      <trkpt lat="40.193467" lon="-5.034900">
        <ele>1721.0</ele>
        <time>2014-05-17T12:49:11Z</time>
      </trkpt>
      <trkpt lat="40.193550" lon="-5.034983">
        <ele>1722.0</ele>
        <time>2014-05-17T12:49:12Z</time>
      </trkpt>
      <trkpt lat="40.193633" lon="-5.035050">
        <ele>1722.0</ele>
        <time>2014-05-17T12:49:13Z</time>
      </trkpt>
      <trkpt lat="40.193733" lon="-5.035100">
        <ele>1722.0</ele>
        <time>2014-05-17T12:49:14Z</time>
      </trkpt>
      <trkpt lat="40.193833" lon="-5.035150">
        <ele>1722.0</ele>
        <time>2014-05-17T12:49:15Z</time>
      </trkpt>
      <trkpt lat="40.193933" lon="-5.035183">
        <ele>1722.0</ele>
        <time>2014-05-17T12:49:16Z</time>
      </trkpt>
      <trkpt lat="40.194033" lon="-5.035200">
        <ele>1723.0</ele>
        <time>2014-05-17T12:49:17Z</time>
      </trkpt>
      <trkpt lat="40.194117" lon="-5.035200">
        <ele>1724.0</ele>
        <time>2014-05-17T12:49:18Z</time>
      </trkpt>
      <trkpt lat="40.194200" lon="-5.035200">
        <ele>1725.0</ele>
        <time>2014-05-17T12:49:19Z</time>
      </trkpt>
      <trkpt lat="40.194267" lon="-5.035200">
        <ele>1727.0</ele>
        <time>2014-05-17T12:49:20Z</time>
      </trkpt>
      <trkpt lat="40.194383" lon="-5.035200">
        <ele>1729.0</ele>
        <time>2014-05-17T12:49:22Z</time>
      </trkpt>
      <trkpt lat="40.194517" lon="-5.035167">
        <ele>1731.0</ele>
        <time>2014-05-17T12:49:24Z</time>
      </trkpt>
      <trkpt lat="40.194583" lon="-5.035117">
        <ele>1731.0</ele>
        <time>2014-05-17T12:49:25Z</time>
      </trkpt>
      <trkpt lat="40.194617" lon="-5.035067">
        <ele>1732.0</ele>
        <time>2014-05-17T12:49:26Z</time>
      </trkpt>
      <trkpt lat="40.194600" lon="-5.034967">
        <ele>1733.0</ele>
        <time>2014-05-17T12:49:28Z</time>
      </trkpt>
      <trkpt lat="40.194567" lon="-5.034933">
        <ele>1733.0</ele>
        <time>2014-05-17T12:49:29Z</time>
      </trkpt>
      <trkpt lat="40.194517" lon="-5.034900">
        <ele>1734.0</ele>
        <time>2014-05-17T12:49:30Z</time>
      </trkpt>
      <trkpt lat="40.194450" lon="-5.034900">
        <ele>1736.0</ele>
        <time>2014-05-17T12:49:31Z</time>
      </trkpt>
      <trkpt lat="40.194383" lon="-5.034917">
        <ele>1738.0</ele>
        <time>2014-05-17T12:49:32Z</time>
      </trkpt>
      <trkpt lat="40.194300" lon="-5.034967">
        <ele>1739.0</ele>
        <time>2014-05-17T12:49:33Z</time>
      </trkpt>
      <trkpt lat="40.194217" lon="-5.035033">
        <ele>1740.0</ele>
        <time>2014-05-17T12:49:34Z</time>
      </trkpt>
      <trkpt lat="40.194133" lon="-5.035150">
        <ele>1740.0</ele>
        <time>2014-05-17T12:49:35Z</time>
      </trkpt>
      <trkpt lat="40.194067" lon="-5.035283">
        <ele>1741.0</ele>
        <time>2014-05-17T12:49:36Z</time>
      </trkpt>
      <trkpt lat="40.194000" lon="-5.035417">
        <ele>1742.0</ele>
        <time>2014-05-17T12:49:37Z</time>
      </trkpt>
      <trkpt lat="40.193950" lon="-5.035583">
        <ele>1744.0</ele>
        <time>2014-05-17T12:49:38Z</time>
      </trkpt>
      <trkpt lat="40.193917" lon="-5.035733">
        <ele>1746.0</ele>
        <time>2014-05-17T12:49:39Z</time>
      </trkpt>
      <trkpt lat="40.193883" lon="-5.035883">
        <ele>1748.0</ele>
        <time>2014-05-17T12:49:40Z</time>
      </trkpt>
      <trkpt lat="40.193900" lon="-5.036050">
        <ele>1749.0</ele>
        <time>2014-05-17T12:49:41Z</time>
      </trkpt>
      <trkpt lat="40.193933" lon="-5.036217">
        <ele>1749.0</ele>
        <time>2014-05-17T12:49:42Z</time>
      </trkpt>
      <trkpt lat="40.194000" lon="-5.036367">
        <ele>1750.0</ele>
        <time>2014-05-17T12:49:43Z</time>
      </trkpt>
      <trkpt lat="40.194050" lon="-5.036500">
        <ele>1751.0</ele>
        <time>2014-05-17T12:49:44Z</time>
      </trkpt>
      <trkpt lat="40.194117" lon="-5.036617">
        <ele>1753.0</ele>
        <time>2014-05-17T12:49:45Z</time>
      </trkpt>
      <trkpt lat="40.194183" lon="-5.036717">
        <ele>1755.0</ele>
        <time>2014-05-17T12:49:46Z</time>
      </trkpt>
      <trkpt lat="40.194267" lon="-5.036800">
        <ele>1755.0</ele>
        <time>2014-05-17T12:49:47Z</time>
      </trkpt>
      <trkpt lat="40.194367" lon="-5.036867">
        <ele>1754.0</ele>
        <time>2014-05-17T12:49:48Z</time>
      </trkpt>
      <trkpt lat="40.194450" lon="-5.036950">
        <ele>1755.0</ele>
        <time>2014-05-17T12:49:49Z</time>
      </trkpt>
      <trkpt lat="40.194517" lon="-5.037000">
        <ele>1756.0</ele>
        <time>2014-05-17T12:49:50Z</time>
      </trkpt>
      <trkpt lat="40.194600" lon="-5.037067">
        <ele>1756.0</ele>
        <time>2014-05-17T12:49:51Z</time>
      </trkpt>
      <trkpt lat="40.194683" lon="-5.037083">
        <ele>1757.0</ele>
        <time>2014-05-17T12:49:52Z</time>
      </trkpt>
      <trkpt lat="40.194767" lon="-5.037100">
        <ele>1757.0</ele>
        <time>2014-05-17T12:49:53Z</time>
      </trkpt>
      <trkpt lat="40.194850" lon="-5.037067">
        <ele>1757.0</ele>
        <time>2014-05-17T12:49:54Z</time>
      </trkpt>
      <trkpt lat="40.194917" lon="-5.037050">
        <ele>1757.0</ele>
        <time>2014-05-17T12:49:55Z</time>
      </trkpt>
      <trkpt lat="40.194983" lon="-5.037050">
        <ele>1759.0</ele>
        <time>2014-05-17T12:49:56Z</time>
      </trkpt>
      <trkpt lat="40.195033" lon="-5.037033">
        <ele>1760.0</ele>
        <time>2014-05-17T12:49:57Z</time>
      </trkpt>
      <trkpt lat="40.195100" lon="-5.037017">
        <ele>1761.0</ele>
        <time>2014-05-17T12:49:58Z</time>
      </trkpt>
      <trkpt lat="40.195150" lon="-5.036983">
        <ele>1760.0</ele>
        <time>2014-05-17T12:49:59Z</time>
      </trkpt>
      <trkpt lat="40.195217" lon="-5.036933">
        <ele>1759.0</ele>
        <time>2014-05-17T12:50:00Z</time>
      </trkpt>
      <trkpt lat="40.195267" lon="-5.036867">
        <ele>1759.0</ele>
        <time>2014-05-17T12:50:01Z</time>
      </trkpt>
      <trkpt lat="40.195300" lon="-5.036833">
        <ele>1760.0</ele>
        <time>2014-05-17T12:50:02Z</time>
      </trkpt>
      <trkpt lat="40.195317" lon="-5.036783">
        <ele>1761.0</ele>
        <time>2014-05-17T12:50:03Z</time>
      </trkpt>
      <trkpt lat="40.195317" lon="-5.036733">
        <ele>1762.0</ele>
        <time>2014-05-17T12:50:04Z</time>
      </trkpt>
      <trkpt lat="40.195300" lon="-5.036667">
        <ele>1762.0</ele>
        <time>2014-05-17T12:50:05Z</time>
      </trkpt>
      <trkpt lat="40.195283" lon="-5.036600">
        <ele>1761.0</ele>
        <time>2014-05-17T12:50:06Z</time>
      </trkpt>
      <trkpt lat="40.195267" lon="-5.036550">
        <ele>1762.0</ele>
        <time>2014-05-17T12:50:07Z</time>
      </trkpt>
      <trkpt lat="40.195233" lon="-5.036500">
        <ele>1763.0</ele>
        <time>2014-05-17T12:50:08Z</time>
      </trkpt>
      <trkpt lat="40.195217" lon="-5.036450">
        <ele>1764.0</ele>
        <time>2014-05-17T12:50:09Z</time>
      </trkpt>
      <trkpt lat="40.195183" lon="-5.036400">
        <ele>1766.0</ele>
        <time>2014-05-17T12:50:10Z</time>
      </trkpt>
      <trkpt lat="40.195133" lon="-5.036367">
        <ele>1766.0</ele>
        <time>2014-05-17T12:50:11Z</time>
      </trkpt>
      <trkpt lat="40.195067" lon="-5.036350">
        <ele>1767.0</ele>
        <time>2014-05-17T12:50:12Z</time>
      </trkpt>
      <trkpt lat="40.194983" lon="-5.036367">
        <ele>1768.0</ele>
        <time>2014-05-17T12:50:13Z</time>
      </trkpt>
      <trkpt lat="40.194900" lon="-5.036417">
        <ele>1769.0</ele>
        <time>2014-05-17T12:50:14Z</time>
      </trkpt>
      <trkpt lat="40.194817" lon="-5.036467">
        <ele>1769.0</ele>
        <time>2014-05-17T12:50:15Z</time>
      </trkpt>
      <trkpt lat="40.194733" lon="-5.036550">
        <ele>1770.0</ele>
        <time>2014-05-17T12:50:16Z</time>
      </trkpt>
      <trkpt lat="40.194667" lon="-5.036650">
        <ele>1770.0</ele>
        <time>2014-05-17T12:50:17Z</time>
      </trkpt>
      <trkpt lat="40.194583" lon="-5.036767">
        <ele>1770.0</ele>
        <time>2014-05-17T12:50:18Z</time>
      </trkpt>
      <trkpt lat="40.194517" lon="-5.036900">
        <ele>1770.0</ele>
        <time>2014-05-17T12:50:19Z</time>
      </trkpt>
      <trkpt lat="40.194467" lon="-5.037033">
        <ele>1770.0</ele>
        <time>2014-05-17T12:50:20Z</time>
      </trkpt>
      <trkpt lat="40.194433" lon="-5.037200">
        <ele>1770.0</ele>
        <time>2014-05-17T12:50:21Z</time>
      </trkpt>
      <trkpt lat="40.194417" lon="-5.037350">
        <ele>1770.0</ele>
        <time>2014-05-17T12:50:22Z</time>
      </trkpt>
      <trkpt lat="40.194417" lon="-5.037500">
        <ele>1770.0</ele>
        <time>2014-05-17T12:50:23Z</time>
      </trkpt>
      <trkpt lat="40.194433" lon="-5.037650">
        <ele>1771.0</ele>
        <time>2014-05-17T12:50:24Z</time>
      </trkpt>
      <trkpt lat="40.194467" lon="-5.037767">
        <ele>1771.0</ele>
        <time>2014-05-17T12:50:25Z</time>
      </trkpt>
      <trkpt lat="40.194517" lon="-5.037883">
        <ele>1771.0</ele>
        <time>2014-05-17T12:50:26Z</time>
      </trkpt>
      <trkpt lat="40.194583" lon="-5.037983">
        <ele>1770.0</ele>
        <time>2014-05-17T12:50:27Z</time>
      </trkpt>
      <trkpt lat="40.194650" lon="-5.038067">
        <ele>1770.0</ele>
        <time>2014-05-17T12:50:28Z</time>
      </trkpt>
      <trkpt lat="40.194733" lon="-5.038150">
        <ele>1769.0</ele>
        <time>2014-05-17T12:50:29Z</time>
      </trkpt>
      <trkpt lat="40.194817" lon="-5.038217">
        <ele>1769.0</ele>
        <time>2014-05-17T12:50:30Z</time>
      </trkpt>
      <trkpt lat="40.194900" lon="-5.038233">
        <ele>1768.0</ele>
        <time>2014-05-17T12:50:31Z</time>
      </trkpt>
      <trkpt lat="40.194983" lon="-5.038217">
        <ele>1767.0</ele>
        <time>2014-05-17T12:50:32Z</time>
      </trkpt>
      <trkpt lat="40.195050" lon="-5.038200">
        <ele>1768.0</ele>
        <time>2014-05-17T12:50:33Z</time>
      </trkpt>
      <trkpt lat="40.195117" lon="-5.038167">
        <ele>1769.0</ele>
        <time>2014-05-17T12:50:34Z</time>
      </trkpt>
      <trkpt lat="40.195167" lon="-5.038133">
        <ele>1769.0</ele>
        <time>2014-05-17T12:50:35Z</time>
      </trkpt>
      <trkpt lat="40.195200" lon="-5.038100">
        <ele>1769.0</ele>
        <time>2014-05-17T12:50:36Z</time>
      </trkpt>
      <trkpt lat="40.195250" lon="-5.038050">
        <ele>1770.0</ele>
        <time>2014-05-17T12:50:37Z</time>
      </trkpt>
      <trkpt lat="40.195283" lon="-5.038000">
        <ele>1770.0</ele>
        <time>2014-05-17T12:50:38Z</time>
      </trkpt>
      <trkpt lat="40.195333" lon="-5.037950">
        <ele>1770.0</ele>
        <time>2014-05-17T12:50:39Z</time>
      </trkpt>
      <trkpt lat="40.195383" lon="-5.037900">
        <ele>1771.0</ele>
        <time>2014-05-17T12:50:40Z</time>
      </trkpt>
      <trkpt lat="40.195417" lon="-5.037850">
        <ele>1772.0</ele>
        <time>2014-05-17T12:50:41Z</time>
      </trkpt>
      <trkpt lat="40.195467" lon="-5.037817">
        <ele>1773.0</ele>
        <time>2014-05-17T12:50:42Z</time>
      </trkpt>
      <trkpt lat="40.195483" lon="-5.037750">
        <ele>1775.0</ele>
        <time>2014-05-17T12:50:43Z</time>
      </trkpt>
      <trkpt lat="40.195517" lon="-5.037700">
        <ele>1777.0</ele>
        <time>2014-05-17T12:50:44Z</time>
      </trkpt>
      <trkpt lat="40.195533" lon="-5.037633">
        <ele>1779.0</ele>
        <time>2014-05-17T12:50:45Z</time>
      </trkpt>
      <trkpt lat="40.195550" lon="-5.037583">
        <ele>1780.0</ele>
        <time>2014-05-17T12:50:46Z</time>
      </trkpt>
      <trkpt lat="40.195533" lon="-5.037517">
        <ele>1782.0</ele>
        <time>2014-05-17T12:50:47Z</time>
      </trkpt>
      <trkpt lat="40.195500" lon="-5.037467">
        <ele>1783.0</ele>
        <time>2014-05-17T12:50:48Z</time>
      </trkpt>
      <trkpt lat="40.195433" lon="-5.037433">
        <ele>1784.0</ele>
        <time>2014-05-17T12:50:49Z</time>
      </trkpt>
      <trkpt lat="40.195367" lon="-5.037417">
        <ele>1784.0</ele>
        <time>2014-05-17T12:50:50Z</time>
      </trkpt>
      <trkpt lat="40.195300" lon="-5.037433">
        <ele>1785.0</ele>
        <time>2014-05-17T12:50:51Z</time>
      </trkpt>
      <trkpt lat="40.195217" lon="-5.037467">
        <ele>1786.0</ele>
        <time>2014-05-17T12:50:52Z</time>
      </trkpt>
      <trkpt lat="40.195117" lon="-5.037533">
        <ele>1786.0</ele>
        <time>2014-05-17T12:50:53Z</time>
      </trkpt>
      <trkpt lat="40.195033" lon="-5.037633">
        <ele>1786.0</ele>
        <time>2014-05-17T12:50:54Z</time>
      </trkpt>
      <trkpt lat="40.194967" lon="-5.037767">
        <ele>1786.0</ele>
        <time>2014-05-17T12:50:55Z</time>
      </trkpt>
      <trkpt lat="40.194917" lon="-5.037917">
        <ele>1787.0</ele>
        <time>2014-05-17T12:50:56Z</time>
      </trkpt>
      <trkpt lat="40.194883" lon="-5.038067">
        <ele>1788.0</ele>
        <time>2014-05-17T12:50:57Z</time>
      </trkpt>
      <trkpt lat="40.194883" lon="-5.038233">
        <ele>1788.0</ele>
        <time>2014-05-17T12:50:58Z</time>
      </trkpt>
      <trkpt lat="40.194883" lon="-5.038383">
        <ele>1789.0</ele>
        <time>2014-05-17T12:50:59Z</time>
      </trkpt>
      <trkpt lat="40.194917" lon="-5.038517">
        <ele>1790.0</ele>
        <time>2014-05-17T12:51:00Z</time>
      </trkpt>
      <trkpt lat="40.194967" lon="-5.038633">
        <ele>1792.0</ele>
        <time>2014-05-17T12:51:01Z</time>
      </trkpt>
      <trkpt lat="40.195033" lon="-5.038733">
        <ele>1794.0</ele>
        <time>2014-05-17T12:51:02Z</time>
      </trkpt>
      <trkpt lat="40.195117" lon="-5.038800">
        <ele>1796.0</ele>
        <time>2014-05-17T12:51:03Z</time>
      </trkpt>
      <trkpt lat="40.195200" lon="-5.038833">
        <ele>1798.0</ele>
        <time>2014-05-17T12:51:04Z</time>
      </trkpt>
      <trkpt lat="40.195267" lon="-5.038850">
        <ele>1800.0</ele>
        <time>2014-05-17T12:51:05Z</time>
      </trkpt>
      <trkpt lat="40.195317" lon="-5.038833">
        <ele>1802.0</ele>
        <time>2014-05-17T12:51:06Z</time>
      </trkpt>
      <trkpt lat="40.195367" lon="-5.038800">
        <ele>1804.0</ele>
        <time>2014-05-17T12:51:07Z</time>
      </trkpt>
      <trkpt lat="40.195417" lon="-5.038767">
        <ele>1805.0</ele>
        <time>2014-05-17T12:51:08Z</time>
      </trkpt>
      <trkpt lat="40.195467" lon="-5.038717">
        <ele>1807.0</ele>
        <time>2014-05-17T12:51:09Z</time>
      </trkpt>
      <trkpt lat="40.195483" lon="-5.038550">
        <ele>1812.0</ele>
        <time>2014-05-17T12:51:12Z</time>
      </trkpt>
      <trkpt lat="40.195467" lon="-5.038483">
        <ele>1813.0</ele>
        <time>2014-05-17T12:51:13Z</time>
      </trkpt>
      <trkpt lat="40.195417" lon="-5.038417">
        <ele>1813.0</ele>
        <time>2014-05-17T12:51:14Z</time>
      </trkpt>
      <trkpt lat="40.195367" lon="-5.038383">
        <ele>1813.0</ele>
        <time>2014-05-17T12:51:15Z</time>
      </trkpt>
      <trkpt lat="40.195283" lon="-5.038367">
        <ele>1815.0</ele>
        <time>2014-05-17T12:51:16Z</time>
      </trkpt>
      <trkpt lat="40.195217" lon="-5.038367">
        <ele>1815.0</ele>
        <time>2014-05-17T12:51:17Z</time>
      </trkpt>
      <trkpt lat="40.195117" lon="-5.038417">
        <ele>1816.0</ele>
        <time>2014-05-17T12:51:18Z</time>
      </trkpt>
      <trkpt lat="40.195033" lon="-5.038483">
        <ele>1816.0</ele>
        <time>2014-05-17T12:51:19Z</time>
      </trkpt>
      <trkpt lat="40.194950" lon="-5.038567">
        <ele>1816.0</ele>
        <time>2014-05-17T12:51:20Z</time>
      </trkpt>
      <trkpt lat="40.194867" lon="-5.038667">
        <ele>1817.0</ele>
        <time>2014-05-17T12:51:21Z</time>
      </trkpt>
      <trkpt lat="40.194800" lon="-5.038800">
        <ele>1817.0</ele>
        <time>2014-05-17T12:51:22Z</time>
      </trkpt>
      <trkpt lat="40.194733" lon="-5.038933">
        <ele>1817.0</ele>
        <time>2014-05-17T12:51:23Z</time>
      </trkpt>
      <trkpt lat="40.194700" lon="-5.039100">
        <ele>1817.0</ele>
        <time>2014-05-17T12:51:24Z</time>
      </trkpt>
      <trkpt lat="40.194667" lon="-5.039250">
        <ele>1818.0</ele>
        <time>2014-05-17T12:51:25Z</time>
      </trkpt>
      <trkpt lat="40.194667" lon="-5.039400">
        <ele>1820.0</ele>
        <time>2014-05-17T12:51:26Z</time>
      </trkpt>
      <trkpt lat="40.194683" lon="-5.039567">
        <ele>1820.0</ele>
        <time>2014-05-17T12:51:27Z</time>
      </trkpt>
      <trkpt lat="40.194700" lon="-5.039717">
        <ele>1821.0</ele>
        <time>2014-05-17T12:51:28Z</time>
      </trkpt>
      <trkpt lat="40.194750" lon="-5.039850">
        <ele>1822.0</ele>
        <time>2014-05-17T12:51:29Z</time>
      </trkpt>
      <trkpt lat="40.194817" lon="-5.039950">
        <ele>1822.0</ele>
        <time>2014-05-17T12:51:30Z</time>
      </trkpt>
      <trkpt lat="40.194900" lon="-5.040033">
        <ele>1824.0</ele>
        <time>2014-05-17T12:51:31Z</time>
      </trkpt>
      <trkpt lat="40.194983" lon="-5.040083">
        <ele>1825.0</ele>
        <time>2014-05-17T12:51:32Z</time>
      </trkpt>
      <trkpt lat="40.195050" lon="-5.040117">
        <ele>1826.0</ele>
        <time>2014-05-17T12:51:33Z</time>
      </trkpt>
      <trkpt lat="40.195117" lon="-5.040133">
        <ele>1828.0</ele>
        <time>2014-05-17T12:51:34Z</time>
      </trkpt>
      <trkpt lat="40.195183" lon="-5.040150">
        <ele>1829.0</ele>
        <time>2014-05-17T12:51:35Z</time>
      </trkpt>
      <trkpt lat="40.195250" lon="-5.040150">
        <ele>1831.0</ele>
        <time>2014-05-17T12:51:36Z</time>
      </trkpt>
      <trkpt lat="40.195317" lon="-5.040150">
        <ele>1832.0</ele>
        <time>2014-05-17T12:51:37Z</time>
      </trkpt>
      <trkpt lat="40.195383" lon="-5.040117">
        <ele>1833.0</ele>
        <time>2014-05-17T12:51:38Z</time>
      </trkpt>
      <trkpt lat="40.195433" lon="-5.040100">
        <ele>1835.0</ele>
        <time>2014-05-17T12:51:39Z</time>
      </trkpt>
      <trkpt lat="40.195500" lon="-5.040067">
        <ele>1836.0</ele>
        <time>2014-05-17T12:51:40Z</time>
      </trkpt>
      <trkpt lat="40.195550" lon="-5.040033">
        <ele>1838.0</ele>
        <time>2014-05-17T12:51:41Z</time>
      </trkpt>
      <trkpt lat="40.195583" lon="-5.040017">
        <ele>1839.0</ele>
        <time>2014-05-17T12:51:42Z</time>
      </trkpt>
      <trkpt lat="40.195617" lon="-5.039983">
        <ele>1840.0</ele>
        <time>2014-05-17T12:51:43Z</time>
      </trkpt>
      <trkpt lat="40.195650" lon="-5.039917">
        <ele>1841.0</ele>
        <time>2014-05-17T12:51:44Z</time>
      </trkpt>
      <trkpt lat="40.195683" lon="-5.039850">
        <ele>1841.0</ele>
        <time>2014-05-17T12:51:45Z</time>
      </trkpt>
      <trkpt lat="40.195700" lon="-5.039783">
        <ele>1841.0</ele>
        <time>2014-05-17T12:51:46Z</time>
      </trkpt>
      <trkpt lat="40.195683" lon="-5.039717">
        <ele>1841.0</ele>
        <time>2014-05-17T12:51:47Z</time>
      </trkpt>
      <trkpt lat="40.195650" lon="-5.039650">
        <ele>1842.0</ele>
        <time>2014-05-17T12:51:48Z</time>
      </trkpt>
      <trkpt lat="40.195617" lon="-5.039583">
        <ele>1841.0</ele>
        <time>2014-05-17T12:51:49Z</time>
      </trkpt>
      <trkpt lat="40.195567" lon="-5.039517">
        <ele>1840.0</ele>
        <time>2014-05-17T12:51:50Z</time>
      </trkpt>
      <trkpt lat="40.195500" lon="-5.039467">
        <ele>1839.0</ele>
        <time>2014-05-17T12:51:51Z</time>
      </trkpt>
      <trkpt lat="40.195433" lon="-5.039433">
        <ele>1838.0</ele>
        <time>2014-05-17T12:51:52Z</time>
      </trkpt>
      <trkpt lat="40.195333" lon="-5.039417">
        <ele>1838.0</ele>
        <time>2014-05-17T12:51:53Z</time>
      </trkpt>
      <trkpt lat="40.195250" lon="-5.039417">
        <ele>1839.0</ele>
        <time>2014-05-17T12:51:54Z</time>
      </trkpt>
      <trkpt lat="40.195167" lon="-5.039450">
        <ele>1839.0</ele>
        <time>2014-05-17T12:51:55Z</time>
      </trkpt>
      <trkpt lat="40.195067" lon="-5.039483">
        <ele>1839.0</ele>
        <time>2014-05-17T12:51:56Z</time>
      </trkpt>
      <trkpt lat="40.194983" lon="-5.039517">
        <ele>1839.0</ele>
        <time>2014-05-17T12:51:57Z</time>
      </trkpt>
      <trkpt lat="40.194883" lon="-5.039583">
        <ele>1839.0</ele>
        <time>2014-05-17T12:51:58Z</time>
      </trkpt>
      <trkpt lat="40.194783" lon="-5.039667">
        <ele>1839.0</ele>
        <time>2014-05-17T12:51:59Z</time>
      </trkpt>
      <trkpt lat="40.194700" lon="-5.039750">
        <ele>1839.0</ele>
        <time>2014-05-17T12:52:00Z</time>
      </trkpt>
      <trkpt lat="40.194617" lon="-5.039833">
        <ele>1839.0</ele>
        <time>2014-05-17T12:52:01Z</time>
      </trkpt>
      <trkpt lat="40.194550" lon="-5.039950">
        <ele>1839.0</ele>
        <time>2014-05-17T12:52:02Z</time>
      </trkpt>
      <trkpt lat="40.194500" lon="-5.040050">
        <ele>1839.0</ele>
        <time>2014-05-17T12:52:03Z</time>
      </trkpt>
      <trkpt lat="40.194433" lon="-5.040183">
        <ele>1839.0</ele>
        <time>2014-05-17T12:52:04Z</time>
      </trkpt>
      <trkpt lat="40.194383" lon="-5.040317">
        <ele>1839.0</ele>
        <time>2014-05-17T12:52:05Z</time>
      </trkpt>
      <trkpt lat="40.194317" lon="-5.040450">
        <ele>1838.0</ele>
        <time>2014-05-17T12:52:06Z</time>
      </trkpt>
      <trkpt lat="40.194267" lon="-5.040567">
        <ele>1839.0</ele>
        <time>2014-05-17T12:52:07Z</time>
      </trkpt>
      <trkpt lat="40.194233" lon="-5.040700">
        <ele>1839.0</ele>
        <time>2014-05-17T12:52:08Z</time>
      </trkpt>
      <trkpt lat="40.194200" lon="-5.040850">
        <ele>1839.0</ele>
        <time>2014-05-17T12:52:09Z</time>
      </trkpt>
      <trkpt lat="40.194200" lon="-5.041000">
        <ele>1838.0</ele>
        <time>2014-05-17T12:52:10Z</time>
      </trkpt>
      <trkpt lat="40.194217" lon="-5.041150">
        <ele>1837.0</ele>
        <time>2014-05-17T12:52:11Z</time>
      </trkpt>
      <trkpt lat="40.194217" lon="-5.041300">
        <ele>1836.0</ele>
        <time>2014-05-17T12:52:12Z</time>
      </trkpt>
      <trkpt lat="40.194217" lon="-5.041450">
        <ele>1836.0</ele>
        <time>2014-05-17T12:52:13Z</time>
      </trkpt>
      <trkpt lat="40.194217" lon="-5.041617">
        <ele>1835.0</ele>
        <time>2014-05-17T12:52:14Z</time>
      </trkpt>
      <trkpt lat="40.194217" lon="-5.041783">
        <ele>1835.0</ele>
        <time>2014-05-17T12:52:15Z</time>
      </trkpt>
      <trkpt lat="40.194217" lon="-5.041950">
        <ele>1835.0</ele>
        <time>2014-05-17T12:52:16Z</time>
      </trkpt>
      <trkpt lat="40.194217" lon="-5.042100">
        <ele>1835.0</ele>
        <time>2014-05-17T12:52:17Z</time>
      </trkpt>
      <trkpt lat="40.194233" lon="-5.042267">
        <ele>1836.0</ele>
        <time>2014-05-17T12:52:18Z</time>
      </trkpt>
      <trkpt lat="40.194250" lon="-5.042433">
        <ele>1837.0</ele>
        <time>2014-05-17T12:52:19Z</time>
      </trkpt>
      <trkpt lat="40.194250" lon="-5.042583">
        <ele>1838.0</ele>
        <time>2014-05-17T12:52:20Z</time>
      </trkpt>
      <trkpt lat="40.194250" lon="-5.042733">
        <ele>1838.0</ele>
        <time>2014-05-17T12:52:21Z</time>
      </trkpt>
      <trkpt lat="40.194250" lon="-5.042883">
        <ele>1838.0</ele>
        <time>2014-05-17T12:52:22Z</time>
      </trkpt>
      <trkpt lat="40.194250" lon="-5.043017">
        <ele>1838.0</ele>
        <time>2014-05-17T12:52:23Z</time>
      </trkpt>
      <trkpt lat="40.194233" lon="-5.043167">
        <ele>1837.0</ele>
        <time>2014-05-17T12:52:24Z</time>
      </trkpt>
      <trkpt lat="40.194217" lon="-5.043333">
        <ele>1836.0</ele>
        <time>2014-05-17T12:52:25Z</time>
      </trkpt>
      <trkpt lat="40.194200" lon="-5.043483">
        <ele>1834.0</ele>
        <time>2014-05-17T12:52:26Z</time>
      </trkpt>
      <trkpt lat="40.194183" lon="-5.043650">
        <ele>1833.0</ele>
        <time>2014-05-17T12:52:27Z</time>
      </trkpt>
      <trkpt lat="40.194150" lon="-5.043783">
        <ele>1833.0</ele>
        <time>2014-05-17T12:52:28Z</time>
      </trkpt>
      <trkpt lat="40.194117" lon="-5.043917">
        <ele>1833.0</ele>
        <time>2014-05-17T12:52:29Z</time>
      </trkpt>
      <trkpt lat="40.194100" lon="-5.044050">
        <ele>1833.0</ele>
        <time>2014-05-17T12:52:30Z</time>
      </trkpt>
      <trkpt lat="40.194067" lon="-5.044167">
        <ele>1833.0</ele>
        <time>2014-05-17T12:52:31Z</time>
      </trkpt>
      <trkpt lat="40.194017" lon="-5.044317">
        <ele>1832.0</ele>
        <time>2014-05-17T12:52:32Z</time>
      </trkpt>
      <trkpt lat="40.193967" lon="-5.044467">
        <ele>1831.0</ele>
        <time>2014-05-17T12:52:33Z</time>
      </trkpt>
      <trkpt lat="40.193900" lon="-5.044617">
        <ele>1830.0</ele>
        <time>2014-05-17T12:52:34Z</time>
      </trkpt>
      <trkpt lat="40.193850" lon="-5.044767">
        <ele>1830.0</ele>
        <time>2014-05-17T12:52:35Z</time>
      </trkpt>
      <trkpt lat="40.193833" lon="-5.044917">
        <ele>1829.0</ele>
        <time>2014-05-17T12:52:36Z</time>
      </trkpt>
      <trkpt lat="40.193817" lon="-5.045050">
        <ele>1829.0</ele>
        <time>2014-05-17T12:52:37Z</time>
      </trkpt>
      <trkpt lat="40.193800" lon="-5.045183">
        <ele>1829.0</ele>
        <time>2014-05-17T12:52:38Z</time>
      </trkpt>
      <trkpt lat="40.193800" lon="-5.045333">
        <ele>1828.0</ele>
        <time>2014-05-17T12:52:39Z</time>
      </trkpt>
      <trkpt lat="40.193767" lon="-5.045500">
        <ele>1828.0</ele>
        <time>2014-05-17T12:52:40Z</time>
      </trkpt>
      <trkpt lat="40.193733" lon="-5.045633">
        <ele>1828.0</ele>
        <time>2014-05-17T12:52:41Z</time>
      </trkpt>
      <trkpt lat="40.193700" lon="-5.045767">
        <ele>1828.0</ele>
        <time>2014-05-17T12:52:42Z</time>
      </trkpt>
      <trkpt lat="40.193683" lon="-5.045883">
        <ele>1830.0</ele>
        <time>2014-05-17T12:52:43Z</time>
      </trkpt>
      <trkpt lat="40.193683" lon="-5.046017">
        <ele>1831.0</ele>
        <time>2014-05-17T12:52:44Z</time>
      </trkpt>
      <trkpt lat="40.193683" lon="-5.046183">
        <ele>1830.0</ele>
        <time>2014-05-17T12:52:45Z</time>
      </trkpt>
      <trkpt lat="40.193667" lon="-5.046350">
        <ele>1830.0</ele>
        <time>2014-05-17T12:52:46Z</time>
      </trkpt>
      <trkpt lat="40.193650" lon="-5.046500">
        <ele>1829.0</ele>
        <time>2014-05-17T12:52:47Z</time>
      </trkpt>
      <trkpt lat="40.193617" lon="-5.046633">
        <ele>1829.0</ele>
        <time>2014-05-17T12:52:48Z</time>
      </trkpt>
      <trkpt lat="40.193600" lon="-5.046783">
        <ele>1830.0</ele>
        <time>2014-05-17T12:52:49Z</time>
      </trkpt>
      <trkpt lat="40.193583" lon="-5.046917">
        <ele>1830.0</ele>
        <time>2014-05-17T12:52:50Z</time>
      </trkpt>
      <trkpt lat="40.193583" lon="-5.047050">
        <ele>1830.0</ele>
        <time>2014-05-17T12:52:51Z</time>
      </trkpt>
      <trkpt lat="40.193567" lon="-5.047200">
        <ele>1828.0</ele>
        <time>2014-05-17T12:52:52Z</time>
      </trkpt>
      <trkpt lat="40.193533" lon="-5.047350">
        <ele>1826.0</ele>
        <time>2014-05-17T12:52:53Z</time>
      </trkpt>
      <trkpt lat="40.193500" lon="-5.047500">
        <ele>1824.0</ele>
        <time>2014-05-17T12:52:54Z</time>
      </trkpt>
      <trkpt lat="40.193450" lon="-5.047667">
        <ele>1822.0</ele>
        <time>2014-05-17T12:52:55Z</time>
      </trkpt>
      <trkpt lat="40.193417" lon="-5.047817">
        <ele>1821.0</ele>
        <time>2014-05-17T12:52:56Z</time>
      </trkpt>
      <trkpt lat="40.193367" lon="-5.047983">
        <ele>1819.0</ele>
        <time>2014-05-17T12:52:57Z</time>
      </trkpt>
      <trkpt lat="40.193333" lon="-5.048150">
        <ele>1818.0</ele>
        <time>2014-05-17T12:52:58Z</time>
      </trkpt>
      <trkpt lat="40.193317" lon="-5.048317">
        <ele>1818.0</ele>
        <time>2014-05-17T12:52:59Z</time>
      </trkpt>
      <trkpt lat="40.193283" lon="-5.048467">
        <ele>1817.0</ele>
        <time>2014-05-17T12:53:00Z</time>
      </trkpt>
      <trkpt lat="40.193267" lon="-5.048633">
        <ele>1816.0</ele>
        <time>2014-05-17T12:53:01Z</time>
      </trkpt>
      <trkpt lat="40.193233" lon="-5.048800">
        <ele>1814.0</ele>
        <time>2014-05-17T12:53:02Z</time>
      </trkpt>
      <trkpt lat="40.193217" lon="-5.048967">
        <ele>1812.0</ele>
        <time>2014-05-17T12:53:03Z</time>
      </trkpt>
      <trkpt lat="40.193200" lon="-5.049150">
        <ele>1810.0</ele>
        <time>2014-05-17T12:53:04Z</time>
      </trkpt>
      <trkpt lat="40.193200" lon="-5.049317">
        <ele>1808.0</ele>
        <time>2014-05-17T12:53:05Z</time>
      </trkpt>
      <trkpt lat="40.193183" lon="-5.049500">
        <ele>1806.0</ele>
        <time>2014-05-17T12:53:06Z</time>
      </trkpt>
      <trkpt lat="40.193150" lon="-5.049667">
        <ele>1804.0</ele>
        <time>2014-05-17T12:53:07Z</time>
      </trkpt>
      <trkpt lat="40.193133" lon="-5.049833">
        <ele>1802.0</ele>
        <time>2014-05-17T12:53:08Z</time>
      </trkpt>
      <trkpt lat="40.193100" lon="-5.049983">
        <ele>1800.0</ele>
        <time>2014-05-17T12:53:09Z</time>
      </trkpt>
      <trkpt lat="40.193067" lon="-5.050150">
        <ele>1798.0</ele>
        <time>2014-05-17T12:53:10Z</time>
      </trkpt>
      <trkpt lat="40.193033" lon="-5.050300">
        <ele>1796.0</ele>
        <time>2014-05-17T12:53:11Z</time>
      </trkpt>
      <trkpt lat="40.192983" lon="-5.050450">
        <ele>1795.0</ele>
        <time>2014-05-17T12:53:12Z</time>
      </trkpt>
      <trkpt lat="40.192950" lon="-5.050600">
        <ele>1793.0</ele>
        <time>2014-05-17T12:53:13Z</time>
      </trkpt>
      <trkpt lat="40.192900" lon="-5.050750">
        <ele>1791.0</ele>
        <time>2014-05-17T12:53:14Z</time>
      </trkpt>
      <trkpt lat="40.192850" lon="-5.050900">
        <ele>1790.0</ele>
        <time>2014-05-17T12:53:15Z</time>
      </trkpt>
      <trkpt lat="40.192800" lon="-5.051050">
        <ele>1789.0</ele>
        <time>2014-05-17T12:53:16Z</time>
      </trkpt>
      <trkpt lat="40.192750" lon="-5.051183">
        <ele>1789.0</ele>
        <time>2014-05-17T12:53:17Z</time>
      </trkpt>
      <trkpt lat="40.192700" lon="-5.051333">
        <ele>1788.0</ele>
        <time>2014-05-17T12:53:18Z</time>
      </trkpt>
      <trkpt lat="40.192667" lon="-5.051483">
        <ele>1786.0</ele>
        <time>2014-05-17T12:53:19Z</time>
      </trkpt>
      <trkpt lat="40.192617" lon="-5.051617">
        <ele>1784.0</ele>
        <time>2014-05-17T12:53:20Z</time>
      </trkpt>
      <trkpt lat="40.192583" lon="-5.051767">
        <ele>1782.0</ele>
        <time>2014-05-17T12:53:21Z</time>
      </trkpt>
      <trkpt lat="40.192550" lon="-5.051900">
        <ele>1780.0</ele>
        <time>2014-05-17T12:53:22Z</time>
      </trkpt>
      <trkpt lat="40.192500" lon="-5.052050">
        <ele>1778.0</ele>
        <time>2014-05-17T12:53:23Z</time>
      </trkpt>
      <trkpt lat="40.192467" lon="-5.052183">
        <ele>1776.0</ele>
        <time>2014-05-17T12:53:24Z</time>
      </trkpt>
      <trkpt lat="40.192417" lon="-5.052317">
        <ele>1774.0</ele>
        <time>2014-05-17T12:53:25Z</time>
      </trkpt>
      <trkpt lat="40.192383" lon="-5.052450">
        <ele>1773.0</ele>
        <time>2014-05-17T12:53:26Z</time>
      </trkpt>
      <trkpt lat="40.192333" lon="-5.052567">
        <ele>1771.0</ele>
        <time>2014-05-17T12:53:27Z</time>
      </trkpt>
      <trkpt lat="40.192300" lon="-5.052700">
        <ele>1769.0</ele>
        <time>2014-05-17T12:53:28Z</time>
      </trkpt>
      <trkpt lat="40.192250" lon="-5.052817">
        <ele>1767.0</ele>
        <time>2014-05-17T12:53:29Z</time>
      </trkpt>
      <trkpt lat="40.192200" lon="-5.052950">
        <ele>1765.0</ele>
        <time>2014-05-17T12:53:30Z</time>
      </trkpt>
      <trkpt lat="40.192150" lon="-5.053083">
        <ele>1763.0</ele>
        <time>2014-05-17T12:53:31Z</time>
      </trkpt>
      <trkpt lat="40.192100" lon="-5.053217">
        <ele>1761.0</ele>
        <time>2014-05-17T12:53:32Z</time>
      </trkpt>
      <trkpt lat="40.192067" lon="-5.053333">
        <ele>1760.0</ele>
        <time>2014-05-17T12:53:33Z</time>
      </trkpt>
      <trkpt lat="40.192017" lon="-5.053467">
        <ele>1759.0</ele>
        <time>2014-05-17T12:53:34Z</time>
      </trkpt>
      <trkpt lat="40.191967" lon="-5.053600">
        <ele>1757.0</ele>
        <time>2014-05-17T12:53:35Z</time>
      </trkpt>
      <trkpt lat="40.191917" lon="-5.053750">
        <ele>1755.0</ele>
        <time>2014-05-17T12:53:36Z</time>
      </trkpt>
      <trkpt lat="40.191850" lon="-5.053900">
        <ele>1753.0</ele>
        <time>2014-05-17T12:53:37Z</time>
      </trkpt>
      <trkpt lat="40.191800" lon="-5.054050">
        <ele>1751.0</ele>
        <time>2014-05-17T12:53:38Z</time>
      </trkpt>
      <trkpt lat="40.191767" lon="-5.054217">
        <ele>1750.0</ele>
        <time>2014-05-17T12:53:39Z</time>
      </trkpt>
      <trkpt lat="40.191717" lon="-5.054350">
        <ele>1750.0</ele>
        <time>2014-05-17T12:53:40Z</time>
      </trkpt>
      <trkpt lat="40.191683" lon="-5.054483">
        <ele>1749.0</ele>
        <time>2014-05-17T12:53:41Z</time>
      </trkpt>
      <trkpt lat="40.191633" lon="-5.054633">
        <ele>1748.0</ele>
        <time>2014-05-17T12:53:42Z</time>
      </trkpt>
      <trkpt lat="40.191600" lon="-5.054783">
        <ele>1747.0</ele>
        <time>2014-05-17T12:53:43Z</time>
      </trkpt>
      <trkpt lat="40.191550" lon="-5.054933">
        <ele>1746.0</ele>
        <time>2014-05-17T12:53:44Z</time>
      </trkpt>
      <trkpt lat="40.191483" lon="-5.055067">
        <ele>1745.0</ele>
        <time>2014-05-17T12:53:45Z</time>
      </trkpt>
      <trkpt lat="40.191417" lon="-5.055200">
        <ele>1744.0</ele>
        <time>2014-05-17T12:53:46Z</time>
      </trkpt>
      <trkpt lat="40.191367" lon="-5.055333">
        <ele>1743.0</ele>
        <time>2014-05-17T12:53:47Z</time>
      </trkpt>
      <trkpt lat="40.191317" lon="-5.055483">
        <ele>1742.0</ele>
        <time>2014-05-17T12:53:48Z</time>
      </trkpt>
      <trkpt lat="40.191267" lon="-5.055633">
        <ele>1742.0</ele>
        <time>2014-05-17T12:53:49Z</time>
      </trkpt>
      <trkpt lat="40.191217" lon="-5.055767">
        <ele>1741.0</ele>
        <time>2014-05-17T12:53:50Z</time>
      </trkpt>
      <trkpt lat="40.191167" lon="-5.055900">
        <ele>1741.0</ele>
        <time>2014-05-17T12:53:51Z</time>
      </trkpt>
      <trkpt lat="40.191133" lon="-5.056033">
        <ele>1741.0</ele>
        <time>2014-05-17T12:53:52Z</time>
      </trkpt>
      <trkpt lat="40.191083" lon="-5.056167">
        <ele>1741.0</ele>
        <time>2014-05-17T12:53:53Z</time>
      </trkpt>
      <trkpt lat="40.191050" lon="-5.056283">
        <ele>1740.0</ele>
        <time>2014-05-17T12:53:54Z</time>
      </trkpt>
      <trkpt lat="40.191000" lon="-5.056417">
        <ele>1738.0</ele>
        <time>2014-05-17T12:53:55Z</time>
      </trkpt>
      <trkpt lat="40.190950" lon="-5.056567">
        <ele>1736.0</ele>
        <time>2014-05-17T12:53:56Z</time>
      </trkpt>
      <trkpt lat="40.190917" lon="-5.056717">
        <ele>1734.0</ele>
        <time>2014-05-17T12:53:57Z</time>
      </trkpt>
      <trkpt lat="40.190883" lon="-5.056867">
        <ele>1733.0</ele>
        <time>2014-05-17T12:53:58Z</time>
      </trkpt>
      <trkpt lat="40.190850" lon="-5.057000">
        <ele>1733.0</ele>
        <time>2014-05-17T12:53:59Z</time>
      </trkpt>
      <trkpt lat="40.190817" lon="-5.057150">
        <ele>1732.0</ele>
        <time>2014-05-17T12:54:00Z</time>
      </trkpt>
      <trkpt lat="40.190783" lon="-5.057300">
        <ele>1731.0</ele>
        <time>2014-05-17T12:54:01Z</time>
      </trkpt>
      <trkpt lat="40.190750" lon="-5.057467">
        <ele>1729.0</ele>
        <time>2014-05-17T12:54:02Z</time>
      </trkpt>
      <trkpt lat="40.190700" lon="-5.057633">
        <ele>1728.0</ele>
        <time>2014-05-17T12:54:03Z</time>
      </trkpt>
      <trkpt lat="40.190650" lon="-5.057767">
        <ele>1727.0</ele>
        <time>2014-05-17T12:54:04Z</time>
      </trkpt>
      <trkpt lat="40.190600" lon="-5.057900">
        <ele>1728.0</ele>
        <time>2014-05-17T12:54:05Z</time>
      </trkpt>
      <trkpt lat="40.190550" lon="-5.058017">
        <ele>1727.0</ele>
        <time>2014-05-17T12:54:06Z</time>
      </trkpt>
      <trkpt lat="40.190483" lon="-5.058133">
        <ele>1726.0</ele>
        <time>2014-05-17T12:54:07Z</time>
      </trkpt>
      <trkpt lat="40.190433" lon="-5.058233">
        <ele>1724.0</ele>
        <time>2014-05-17T12:54:08Z</time>
      </trkpt>
      <trkpt lat="40.190383" lon="-5.058350">
        <ele>1721.0</ele>
        <time>2014-05-17T12:54:09Z</time>
      </trkpt>
      <trkpt lat="40.190333" lon="-5.058483">
        <ele>1719.0</ele>
        <time>2014-05-17T12:54:10Z</time>
      </trkpt>
      <trkpt lat="40.190283" lon="-5.058617">
        <ele>1716.0</ele>
        <time>2014-05-17T12:54:11Z</time>
      </trkpt>
      <trkpt lat="40.190217" lon="-5.058733">
        <ele>1714.0</ele>
        <time>2014-05-17T12:54:12Z</time>
      </trkpt>
      <trkpt lat="40.190167" lon="-5.058850">
        <ele>1712.0</ele>
        <time>2014-05-17T12:54:13Z</time>
      </trkpt>
      <trkpt lat="40.190117" lon="-5.058967">
        <ele>1711.0</ele>
        <time>2014-05-17T12:54:14Z</time>
      </trkpt>
      <trkpt lat="40.190083" lon="-5.059083">
        <ele>1712.0</ele>
        <time>2014-05-17T12:54:15Z</time>
      </trkpt>
      <trkpt lat="40.190050" lon="-5.059183">
        <ele>1711.0</ele>
        <time>2014-05-17T12:54:16Z</time>
      </trkpt>
      <trkpt lat="40.190000" lon="-5.059283">
        <ele>1710.0</ele>
        <time>2014-05-17T12:54:17Z</time>
      </trkpt>
      <trkpt lat="40.189967" lon="-5.059400">
        <ele>1707.0</ele>
        <time>2014-05-17T12:54:18Z</time>
      </trkpt>
      <trkpt lat="40.189917" lon="-5.059533">
        <ele>1705.0</ele>
        <time>2014-05-17T12:54:19Z</time>
      </trkpt>
      <trkpt lat="40.189900" lon="-5.059650">
        <ele>1703.0</ele>
        <time>2014-05-17T12:54:20Z</time>
      </trkpt>
      <trkpt lat="40.189867" lon="-5.059783">
        <ele>1701.0</ele>
        <time>2014-05-17T12:54:21Z</time>
      </trkpt>
      <trkpt lat="40.189850" lon="-5.059917">
        <ele>1699.0</ele>
        <time>2014-05-17T12:54:22Z</time>
      </trkpt>
      <trkpt lat="40.189833" lon="-5.060050">
        <ele>1697.0</ele>
        <time>2014-05-17T12:54:23Z</time>
      </trkpt>
      <trkpt lat="40.189817" lon="-5.060167">
        <ele>1696.0</ele>
        <time>2014-05-17T12:54:24Z</time>
      </trkpt>
      <trkpt lat="40.189800" lon="-5.060300">
        <ele>1694.0</ele>
        <time>2014-05-17T12:54:25Z</time>
      </trkpt>
      <trkpt lat="40.189767" lon="-5.060400">
        <ele>1691.0</ele>
        <time>2014-05-17T12:54:26Z</time>
      </trkpt>
      <trkpt lat="40.189750" lon="-5.060517">
        <ele>1689.0</ele>
        <time>2014-05-17T12:54:27Z</time>
      </trkpt>
      <trkpt lat="40.189717" lon="-5.060633">
        <ele>1686.0</ele>
        <time>2014-05-17T12:54:28Z</time>
      </trkpt>
      <trkpt lat="40.189683" lon="-5.060767">
        <ele>1683.0</ele>
        <time>2014-05-17T12:54:29Z</time>
      </trkpt>
      <trkpt lat="40.189650" lon="-5.060900">
        <ele>1680.0</ele>
        <time>2014-05-17T12:54:30Z</time>
      </trkpt>
      <trkpt lat="40.189617" lon="-5.061017">
        <ele>1677.0</ele>
        <time>2014-05-17T12:54:31Z</time>
      </trkpt>
      <trkpt lat="40.189600" lon="-5.061133">
        <ele>1675.0</ele>
        <time>2014-05-17T12:54:32Z</time>
      </trkpt>
      <trkpt lat="40.189567" lon="-5.061250">
        <ele>1673.0</ele>
        <time>2014-05-17T12:54:33Z</time>
      </trkpt>
      <trkpt lat="40.189533" lon="-5.061367">
        <ele>1671.0</ele>
        <time>2014-05-17T12:54:34Z</time>
      </trkpt>
      <trkpt lat="40.189467" lon="-5.061467">
        <ele>1669.0</ele>
        <time>2014-05-17T12:54:35Z</time>
      </trkpt>
      <trkpt lat="40.189417" lon="-5.061567">
        <ele>1667.0</ele>
        <time>2014-05-17T12:54:36Z</time>
      </trkpt>
      <trkpt lat="40.189383" lon="-5.061683">
        <ele>1666.0</ele>
        <time>2014-05-17T12:54:37Z</time>
      </trkpt>
      <trkpt lat="40.189367" lon="-5.061800">
        <ele>1665.0</ele>
        <time>2014-05-17T12:54:38Z</time>
      </trkpt>
      <trkpt lat="40.189350" lon="-5.061900">
        <ele>1664.0</ele>
        <time>2014-05-17T12:54:39Z</time>
      </trkpt>
      <trkpt lat="40.189317" lon="-5.062017">
        <ele>1664.0</ele>
        <time>2014-05-17T12:54:40Z</time>
      </trkpt>
      <trkpt lat="40.189283" lon="-5.062133">
        <ele>1663.0</ele>
        <time>2014-05-17T12:54:41Z</time>
      </trkpt>
      <trkpt lat="40.189267" lon="-5.062250">
        <ele>1662.0</ele>
        <time>2014-05-17T12:54:42Z</time>
      </trkpt>
      <trkpt lat="40.189233" lon="-5.062367">
        <ele>1661.0</ele>
        <time>2014-05-17T12:54:43Z</time>
      </trkpt>
      <trkpt lat="40.189200" lon="-5.062467">
        <ele>1661.0</ele>
        <time>2014-05-17T12:54:44Z</time>
      </trkpt>
      <trkpt lat="40.189167" lon="-5.062583">
        <ele>1661.0</ele>
        <time>2014-05-17T12:54:45Z</time>
      </trkpt>
      <trkpt lat="40.189150" lon="-5.062700">
        <ele>1661.0</ele>
        <time>2014-05-17T12:54:46Z</time>
      </trkpt>
      <trkpt lat="40.189100" lon="-5.062833">
        <ele>1660.0</ele>
        <time>2014-05-17T12:54:47Z</time>
      </trkpt>
      <trkpt lat="40.189067" lon="-5.062967">
        <ele>1661.0</ele>
        <time>2014-05-17T12:54:48Z</time>
      </trkpt>
      <trkpt lat="40.189017" lon="-5.063100">
        <ele>1661.0</ele>
        <time>2014-05-17T12:54:49Z</time>
      </trkpt>
      <trkpt lat="40.188983" lon="-5.063217">
        <ele>1662.0</ele>
        <time>2014-05-17T12:54:50Z</time>
      </trkpt>
      <trkpt lat="40.188950" lon="-5.063333">
        <ele>1663.0</ele>
        <time>2014-05-17T12:54:51Z</time>
      </trkpt>
      <trkpt lat="40.188900" lon="-5.063450">
        <ele>1664.0</ele>
        <time>2014-05-17T12:54:52Z</time>
      </trkpt>
      <trkpt lat="40.188867" lon="-5.063583">
        <ele>1665.0</ele>
        <time>2014-05-17T12:54:53Z</time>
      </trkpt>
      <trkpt lat="40.188817" lon="-5.063717">
        <ele>1666.0</ele>
        <time>2014-05-17T12:54:54Z</time>
      </trkpt>
      <trkpt lat="40.188750" lon="-5.063817">
        <ele>1667.0</ele>
        <time>2014-05-17T12:54:55Z</time>
      </trkpt>
      <trkpt lat="40.188683" lon="-5.063900">
        <ele>1668.0</ele>
        <time>2014-05-17T12:54:56Z</time>
      </trkpt>
      <trkpt lat="40.188617" lon="-5.063950">
        <ele>1668.0</ele>
        <time>2014-05-17T12:54:57Z</time>
      </trkpt>
      <trkpt lat="40.188550" lon="-5.063950">
        <ele>1669.0</ele>
        <time>2014-05-17T12:54:58Z</time>
      </trkpt>
      <trkpt lat="40.188500" lon="-5.063933">
        <ele>1669.0</ele>
        <time>2014-05-17T12:54:59Z</time>
      </trkpt>
      <trkpt lat="40.188467" lon="-5.063900">
        <ele>1670.0</ele>
        <time>2014-05-17T12:55:00Z</time>
      </trkpt>
      <trkpt lat="40.188467" lon="-5.063850">
        <ele>1671.0</ele>
        <time>2014-05-17T12:55:01Z</time>
      </trkpt>
      <trkpt lat="40.188483" lon="-5.063783">
        <ele>1671.0</ele>
        <time>2014-05-17T12:55:02Z</time>
      </trkpt>
      <trkpt lat="40.188550" lon="-5.063750">
        <ele>1672.0</ele>
        <time>2014-05-17T12:55:03Z</time>
      </trkpt>
      <trkpt lat="40.188717" lon="-5.063733">
        <ele>1673.0</ele>
        <time>2014-05-17T12:55:05Z</time>
      </trkpt>
      <trkpt lat="40.188800" lon="-5.063767">
        <ele>1673.0</ele>
        <time>2014-05-17T12:55:06Z</time>
      </trkpt>
      <trkpt lat="40.188900" lon="-5.063833">
        <ele>1673.0</ele>
        <time>2014-05-17T12:55:07Z</time>
      </trkpt>
      <trkpt lat="40.188983" lon="-5.063933">
        <ele>1673.0</ele>
        <time>2014-05-17T12:55:08Z</time>
      </trkpt>
      <trkpt lat="40.189067" lon="-5.064033">
        <ele>1674.0</ele>
        <time>2014-05-17T12:55:09Z</time>
      </trkpt>
      <trkpt lat="40.189133" lon="-5.064150">
        <ele>1675.0</ele>
        <time>2014-05-17T12:55:10Z</time>
      </trkpt>
      <trkpt lat="40.189183" lon="-5.064300">
        <ele>1676.0</ele>
        <time>2014-05-17T12:55:11Z</time>
      </trkpt>
      <trkpt lat="40.189217" lon="-5.064433">
        <ele>1677.0</ele>
        <time>2014-05-17T12:55:12Z</time>
      </trkpt>
      <trkpt lat="40.189217" lon="-5.064600">
        <ele>1677.0</ele>
        <time>2014-05-17T12:55:13Z</time>
      </trkpt>
      <trkpt lat="40.189200" lon="-5.064733">
        <ele>1677.0</ele>
        <time>2014-05-17T12:55:14Z</time>
      </trkpt>
      <trkpt lat="40.189150" lon="-5.064883">
        <ele>1677.0</ele>
        <time>2014-05-17T12:55:15Z</time>
      </trkpt>
      <trkpt lat="40.189100" lon="-5.065000">
        <ele>1678.0</ele>
        <time>2014-05-17T12:55:16Z</time>
      </trkpt>
      <trkpt lat="40.189050" lon="-5.065083">
        <ele>1679.0</ele>
        <time>2014-05-17T12:55:17Z</time>
      </trkpt>
      <trkpt lat="40.188983" lon="-5.065167">
        <ele>1680.0</ele>
        <time>2014-05-17T12:55:18Z</time>
      </trkpt>
      <trkpt lat="40.188917" lon="-5.065217">
        <ele>1681.0</ele>
        <time>2014-05-17T12:55:19Z</time>
      </trkpt>
      <trkpt lat="40.188850" lon="-5.065233">
        <ele>1683.0</ele>
        <time>2014-05-17T12:55:20Z</time>
      </trkpt>
      <trkpt lat="40.188783" lon="-5.065233">
        <ele>1683.0</ele>
        <time>2014-05-17T12:55:21Z</time>
      </trkpt>
      <trkpt lat="40.188717" lon="-5.065200">
        <ele>1684.0</ele>
        <time>2014-05-17T12:55:22Z</time>
      </trkpt>
      <trkpt lat="40.188683" lon="-5.065150">
        <ele>1684.0</ele>
        <time>2014-05-17T12:55:23Z</time>
      </trkpt>
      <trkpt lat="40.188667" lon="-5.065083">
        <ele>1685.0</ele>
        <time>2014-05-17T12:55:24Z</time>
      </trkpt>
      <trkpt lat="40.188683" lon="-5.065017">
        <ele>1685.0</ele>
        <time>2014-05-17T12:55:25Z</time>
      </trkpt>
      <trkpt lat="40.188717" lon="-5.064967">
        <ele>1685.0</ele>
        <time>2014-05-17T12:55:26Z</time>
      </trkpt>
      <trkpt lat="40.188783" lon="-5.064933">
        <ele>1686.0</ele>
        <time>2014-05-17T12:55:27Z</time>
      </trkpt>
      <trkpt lat="40.188850" lon="-5.064917">
        <ele>1686.0</ele>
        <time>2014-05-17T12:55:28Z</time>
      </trkpt>
      <trkpt lat="40.188933" lon="-5.064917">
        <ele>1687.0</ele>
        <time>2014-05-17T12:55:29Z</time>
      </trkpt>
      <trkpt lat="40.189017" lon="-5.064933">
        <ele>1687.0</ele>
        <time>2014-05-17T12:55:30Z</time>
      </trkpt>
      <trkpt lat="40.189117" lon="-5.064983">
        <ele>1688.0</ele>
        <time>2014-05-17T12:55:31Z</time>
      </trkpt>
      <trkpt lat="40.189200" lon="-5.065050">
        <ele>1688.0</ele>
        <time>2014-05-17T12:55:32Z</time>
      </trkpt>
      <trkpt lat="40.189300" lon="-5.065150">
        <ele>1688.0</ele>
        <time>2014-05-17T12:55:33Z</time>
      </trkpt>
      <trkpt lat="40.189367" lon="-5.065250">
        <ele>1689.0</ele>
        <time>2014-05-17T12:55:34Z</time>
      </trkpt>
      <trkpt lat="40.189417" lon="-5.065383">
        <ele>1689.0</ele>
        <time>2014-05-17T12:55:35Z</time>
      </trkpt>
      <trkpt lat="40.189450" lon="-5.065517">
        <ele>1690.0</ele>
        <time>2014-05-17T12:55:36Z</time>
      </trkpt>
      <trkpt lat="40.189483" lon="-5.065667">
        <ele>1690.0</ele>
        <time>2014-05-17T12:55:37Z</time>
      </trkpt>
      <trkpt lat="40.189483" lon="-5.065833">
        <ele>1690.0</ele>
        <time>2014-05-17T12:55:38Z</time>
      </trkpt>
      <trkpt lat="40.189467" lon="-5.065983">
        <ele>1690.0</ele>
        <time>2014-05-17T12:55:39Z</time>
      </trkpt>
      <trkpt lat="40.189433" lon="-5.066117">
        <ele>1690.0</ele>
        <time>2014-05-17T12:55:40Z</time>
      </trkpt>
      <trkpt lat="40.189383" lon="-5.066250">
        <ele>1689.0</ele>
        <time>2014-05-17T12:55:41Z</time>
      </trkpt>
      <trkpt lat="40.189333" lon="-5.066367">
        <ele>1690.0</ele>
        <time>2014-05-17T12:55:42Z</time>
      </trkpt>
      <trkpt lat="40.189283" lon="-5.066483">
        <ele>1691.0</ele>
        <time>2014-05-17T12:55:43Z</time>
      </trkpt>
      <trkpt lat="40.189217" lon="-5.066583">
        <ele>1693.0</ele>
        <time>2014-05-17T12:55:44Z</time>
      </trkpt>
      <trkpt lat="40.189167" lon="-5.066683">
        <ele>1694.0</ele>
        <time>2014-05-17T12:55:45Z</time>
      </trkpt>
      <trkpt lat="40.189100" lon="-5.066750">
        <ele>1695.0</ele>
        <time>2014-05-17T12:55:46Z</time>
      </trkpt>
      <trkpt lat="40.189017" lon="-5.066783">
        <ele>1695.0</ele>
        <time>2014-05-17T12:55:47Z</time>
      </trkpt>
      <trkpt lat="40.188933" lon="-5.066800">
        <ele>1695.0</ele>
        <time>2014-05-17T12:55:48Z</time>
      </trkpt>
      <trkpt lat="40.188867" lon="-5.066767">
        <ele>1696.0</ele>
        <time>2014-05-17T12:55:49Z</time>
      </trkpt>
      <trkpt lat="40.188817" lon="-5.066733">
        <ele>1697.0</ele>
        <time>2014-05-17T12:55:50Z</time>
      </trkpt>
      <trkpt lat="40.188800" lon="-5.066667">
        <ele>1697.0</ele>
        <time>2014-05-17T12:55:51Z</time>
      </trkpt>
      <trkpt lat="40.188817" lon="-5.066617">
        <ele>1698.0</ele>
        <time>2014-05-17T12:55:52Z</time>
      </trkpt>
      <trkpt lat="40.188850" lon="-5.066550">
        <ele>1698.0</ele>
        <time>2014-05-17T12:55:53Z</time>
      </trkpt>
      <trkpt lat="40.188917" lon="-5.066517">
        <ele>1699.0</ele>
        <time>2014-05-17T12:55:54Z</time>
      </trkpt>
      <trkpt lat="40.188967" lon="-5.066500">
        <ele>1700.0</ele>
        <time>2014-05-17T12:55:55Z</time>
      </trkpt>
      <trkpt lat="40.189050" lon="-5.066500">
        <ele>1701.0</ele>
        <time>2014-05-17T12:55:56Z</time>
      </trkpt>
      <trkpt lat="40.189133" lon="-5.066517">
        <ele>1701.0</ele>
        <time>2014-05-17T12:55:57Z</time>
      </trkpt>
      <trkpt lat="40.189233" lon="-5.066550">
        <ele>1701.0</ele>
        <time>2014-05-17T12:55:58Z</time>
      </trkpt>
      <trkpt lat="40.189333" lon="-5.066617">
        <ele>1701.0</ele>
        <time>2014-05-17T12:55:59Z</time>
      </trkpt>
      <trkpt lat="40.189400" lon="-5.066717">
        <ele>1701.0</ele>
        <time>2014-05-17T12:56:00Z</time>
      </trkpt>
      <trkpt lat="40.189467" lon="-5.066850">
        <ele>1701.0</ele>
        <time>2014-05-17T12:56:01Z</time>
      </trkpt>
      <trkpt lat="40.189500" lon="-5.067017">
        <ele>1701.0</ele>
        <time>2014-05-17T12:56:02Z</time>
      </trkpt>
      <trkpt lat="40.189517" lon="-5.067167">
        <ele>1701.0</ele>
        <time>2014-05-17T12:56:03Z</time>
      </trkpt>
      <trkpt lat="40.189517" lon="-5.067300">
        <ele>1702.0</ele>
        <time>2014-05-17T12:56:04Z</time>
      </trkpt>
      <trkpt lat="40.189500" lon="-5.067433">
        <ele>1702.0</ele>
        <time>2014-05-17T12:56:05Z</time>
      </trkpt>
      <trkpt lat="40.189450" lon="-5.067567">
        <ele>1702.0</ele>
        <time>2014-05-17T12:56:06Z</time>
      </trkpt>
      <trkpt lat="40.189400" lon="-5.067700">
        <ele>1701.0</ele>
        <time>2014-05-17T12:56:07Z</time>
      </trkpt>
      <trkpt lat="40.189350" lon="-5.067817">
        <ele>1701.0</ele>
        <time>2014-05-17T12:56:08Z</time>
      </trkpt>
      <trkpt lat="40.189267" lon="-5.067917">
        <ele>1702.0</ele>
        <time>2014-05-17T12:56:09Z</time>
      </trkpt>
      <trkpt lat="40.189200" lon="-5.068000">
        <ele>1702.0</ele>
        <time>2014-05-17T12:56:10Z</time>
      </trkpt>
      <trkpt lat="40.189133" lon="-5.068083">
        <ele>1702.0</ele>
        <time>2014-05-17T12:56:11Z</time>
      </trkpt>
      <trkpt lat="40.189050" lon="-5.068183">
        <ele>1703.0</ele>
        <time>2014-05-17T12:56:12Z</time>
      </trkpt>
      <trkpt lat="40.188983" lon="-5.068267">
        <ele>1703.0</ele>
        <time>2014-05-17T12:56:13Z</time>
      </trkpt>
      <trkpt lat="40.188900" lon="-5.068350">
        <ele>1704.0</ele>
        <time>2014-05-17T12:56:14Z</time>
      </trkpt>
      <trkpt lat="40.188817" lon="-5.068433">
        <ele>1705.0</ele>
        <time>2014-05-17T12:56:15Z</time>
      </trkpt>
      <trkpt lat="40.188750" lon="-5.068517">
        <ele>1706.0</ele>
        <time>2014-05-17T12:56:16Z</time>
      </trkpt>
      <trkpt lat="40.188667" lon="-5.068583">
        <ele>1707.0</ele>
        <time>2014-05-17T12:56:17Z</time>
      </trkpt>
      <trkpt lat="40.188583" lon="-5.068667">
        <ele>1708.0</ele>
        <time>2014-05-17T12:56:18Z</time>
      </trkpt>
      <trkpt lat="40.188517" lon="-5.068717">
        <ele>1709.0</ele>
        <time>2014-05-17T12:56:19Z</time>
      </trkpt>
      <trkpt lat="40.188433" lon="-5.068750">
        <ele>1710.0</ele>
        <time>2014-05-17T12:56:20Z</time>
      </trkpt>
      <trkpt lat="40.188367" lon="-5.068733">
        <ele>1711.0</ele>
        <time>2014-05-17T12:56:21Z</time>
      </trkpt>
      <trkpt lat="40.188333" lon="-5.068683">
        <ele>1712.0</ele>
        <time>2014-05-17T12:56:22Z</time>
      </trkpt>
      <trkpt lat="40.188317" lon="-5.068617">
        <ele>1713.0</ele>
        <time>2014-05-17T12:56:23Z</time>
      </trkpt>
      <trkpt lat="40.188333" lon="-5.068567">
        <ele>1714.0</ele>
        <time>2014-05-17T12:56:24Z</time>
      </trkpt>
      <trkpt lat="40.188367" lon="-5.068517">
        <ele>1716.0</ele>
        <time>2014-05-17T12:56:25Z</time>
      </trkpt>
      <trkpt lat="40.188433" lon="-5.068500">
        <ele>1717.0</ele>
        <time>2014-05-17T12:56:26Z</time>
      </trkpt>
      <trkpt lat="40.188500" lon="-5.068500">
        <ele>1719.0</ele>
        <time>2014-05-17T12:56:27Z</time>
      </trkpt>
      <trkpt lat="40.188583" lon="-5.068500">
        <ele>1720.0</ele>
        <time>2014-05-17T12:56:28Z</time>
      </trkpt>
      <trkpt lat="40.188667" lon="-5.068550">
        <ele>1721.0</ele>
        <time>2014-05-17T12:56:29Z</time>
      </trkpt>
      <trkpt lat="40.188767" lon="-5.068650">
        <ele>1721.0</ele>
        <time>2014-05-17T12:56:30Z</time>
      </trkpt>
      <trkpt lat="40.188833" lon="-5.068783">
        <ele>1722.0</ele>
        <time>2014-05-17T12:56:31Z</time>
      </trkpt>
      <trkpt lat="40.188883" lon="-5.068950">
        <ele>1723.0</ele>
        <time>2014-05-17T12:56:32Z</time>
      </trkpt>
      <trkpt lat="40.188900" lon="-5.069117">
        <ele>1724.0</ele>
        <time>2014-05-17T12:56:33Z</time>
      </trkpt>
      <trkpt lat="40.188883" lon="-5.069267">
        <ele>1726.0</ele>
        <time>2014-05-17T12:56:34Z</time>
      </trkpt>
      <trkpt lat="40.188850" lon="-5.069417">
        <ele>1727.0</ele>
        <time>2014-05-17T12:56:35Z</time>
      </trkpt>
      <trkpt lat="40.188817" lon="-5.069550">
        <ele>1727.0</ele>
        <time>2014-05-17T12:56:36Z</time>
      </trkpt>
      <trkpt lat="40.188750" lon="-5.069667">
        <ele>1728.0</ele>
        <time>2014-05-17T12:56:37Z</time>
      </trkpt>
      <trkpt lat="40.188667" lon="-5.069750">
        <ele>1729.0</ele>
        <time>2014-05-17T12:56:38Z</time>
      </trkpt>
      <trkpt lat="40.188583" lon="-5.069817">
        <ele>1730.0</ele>
        <time>2014-05-17T12:56:39Z</time>
      </trkpt>
      <trkpt lat="40.188500" lon="-5.069833">
        <ele>1731.0</ele>
        <time>2014-05-17T12:56:40Z</time>
      </trkpt>
      <trkpt lat="40.188433" lon="-5.069817">
        <ele>1732.0</ele>
        <time>2014-05-17T12:56:41Z</time>
      </trkpt>
      <trkpt lat="40.188383" lon="-5.069767">
        <ele>1734.0</ele>
        <time>2014-05-17T12:56:42Z</time>
      </trkpt>
      <trkpt lat="40.188367" lon="-5.069717">
        <ele>1735.0</ele>
        <time>2014-05-17T12:56:43Z</time>
      </trkpt>
      <trkpt lat="40.188400" lon="-5.069617">
        <ele>1737.0</ele>
        <time>2014-05-17T12:56:45Z</time>
      </trkpt>
      <trkpt lat="40.188450" lon="-5.069600">
        <ele>1738.0</ele>
        <time>2014-05-17T12:56:46Z</time>
      </trkpt>
      <trkpt lat="40.188517" lon="-5.069583">
        <ele>1738.0</ele>
        <time>2014-05-17T12:56:47Z</time>
      </trkpt>
      <trkpt lat="40.188600" lon="-5.069600">
        <ele>1738.0</ele>
        <time>2014-05-17T12:56:48Z</time>
      </trkpt>
      <trkpt lat="40.188700" lon="-5.069650">
        <ele>1738.0</ele>
        <time>2014-05-17T12:56:49Z</time>
      </trkpt>
      <trkpt lat="40.188783" lon="-5.069733">
        <ele>1739.0</ele>
        <time>2014-05-17T12:56:50Z</time>
      </trkpt>
      <trkpt lat="40.188850" lon="-5.069850">
        <ele>1739.0</ele>
        <time>2014-05-17T12:56:51Z</time>
      </trkpt>
      <trkpt lat="40.188900" lon="-5.069983">
        <ele>1740.0</ele>
        <time>2014-05-17T12:56:52Z</time>
      </trkpt>
      <trkpt lat="40.188917" lon="-5.070150">
        <ele>1741.0</ele>
        <time>2014-05-17T12:56:53Z</time>
      </trkpt>
      <trkpt lat="40.188917" lon="-5.070300">
        <ele>1742.0</ele>
        <time>2014-05-17T12:56:54Z</time>
      </trkpt>
      <trkpt lat="40.188900" lon="-5.070450">
        <ele>1743.0</ele>
        <time>2014-05-17T12:56:55Z</time>
      </trkpt>
      <trkpt lat="40.188850" lon="-5.070583">
        <ele>1744.0</ele>
        <time>2014-05-17T12:56:56Z</time>
      </trkpt>
      <trkpt lat="40.188800" lon="-5.070717">
        <ele>1745.0</ele>
        <time>2014-05-17T12:56:57Z</time>
      </trkpt>
      <trkpt lat="40.188717" lon="-5.070850">
        <ele>1746.0</ele>
        <time>2014-05-17T12:56:58Z</time>
      </trkpt>
      <trkpt lat="40.188633" lon="-5.070933">
        <ele>1747.0</ele>
        <time>2014-05-17T12:56:59Z</time>
      </trkpt>
      <trkpt lat="40.188550" lon="-5.070983">
        <ele>1748.0</ele>
        <time>2014-05-17T12:57:00Z</time>
      </trkpt>
      <trkpt lat="40.188483" lon="-5.071017">
        <ele>1750.0</ele>
        <time>2014-05-17T12:57:01Z</time>
      </trkpt>
      <trkpt lat="40.188417" lon="-5.071000">
        <ele>1751.0</ele>
        <time>2014-05-17T12:57:02Z</time>
      </trkpt>
      <trkpt lat="40.188383" lon="-5.070983">
        <ele>1751.0</ele>
        <time>2014-05-17T12:57:03Z</time>
      </trkpt>
      <trkpt lat="40.188333" lon="-5.070933">
        <ele>1750.0</ele>
        <time>2014-05-17T12:57:04Z</time>
      </trkpt>
      <trkpt lat="40.188317" lon="-5.070883">
        <ele>1750.0</ele>
        <time>2014-05-17T12:57:05Z</time>
      </trkpt>
      <trkpt lat="40.188317" lon="-5.070833">
        <ele>1750.0</ele>
        <time>2014-05-17T12:57:06Z</time>
      </trkpt>
      <trkpt lat="40.188350" lon="-5.070783">
        <ele>1749.0</ele>
        <time>2014-05-17T12:57:07Z</time>
      </trkpt>
      <trkpt lat="40.188500" lon="-5.070767">
        <ele>1748.0</ele>
        <time>2014-05-17T12:57:09Z</time>
      </trkpt>
      <trkpt lat="40.188583" lon="-5.070817">
        <ele>1748.0</ele>
        <time>2014-05-17T12:57:10Z</time>
      </trkpt>
      <trkpt lat="40.188667" lon="-5.070900">
        <ele>1748.0</ele>
        <time>2014-05-17T12:57:11Z</time>
      </trkpt>
      <trkpt lat="40.188750" lon="-5.071000">
        <ele>1748.0</ele>
        <time>2014-05-17T12:57:12Z</time>
      </trkpt>
      <trkpt lat="40.188800" lon="-5.071117">
        <ele>1748.0</ele>
        <time>2014-05-17T12:57:13Z</time>
      </trkpt>
      <trkpt lat="40.188850" lon="-5.071250">
        <ele>1749.0</ele>
        <time>2014-05-17T12:57:14Z</time>
      </trkpt>
      <trkpt lat="40.188883" lon="-5.071400">
        <ele>1749.0</ele>
        <time>2014-05-17T12:57:15Z</time>
      </trkpt>
      <trkpt lat="40.188883" lon="-5.071550">
        <ele>1750.0</ele>
        <time>2014-05-17T12:57:16Z</time>
      </trkpt>
      <trkpt lat="40.188867" lon="-5.071700">
        <ele>1750.0</ele>
        <time>2014-05-17T12:57:17Z</time>
      </trkpt>
      <trkpt lat="40.188833" lon="-5.071850">
        <ele>1751.0</ele>
        <time>2014-05-17T12:57:18Z</time>
      </trkpt>
      <trkpt lat="40.188783" lon="-5.071983">
        <ele>1751.0</ele>
        <time>2014-05-17T12:57:19Z</time>
      </trkpt>
      <trkpt lat="40.188717" lon="-5.072067">
        <ele>1752.0</ele>
        <time>2014-05-17T12:57:20Z</time>
      </trkpt>
      <trkpt lat="40.188650" lon="-5.072150">
        <ele>1753.0</ele>
        <time>2014-05-17T12:57:21Z</time>
      </trkpt>
      <trkpt lat="40.188583" lon="-5.072183">
        <ele>1754.0</ele>
        <time>2014-05-17T12:57:22Z</time>
      </trkpt>
      <trkpt lat="40.188500" lon="-5.072217">
        <ele>1754.0</ele>
        <time>2014-05-17T12:57:23Z</time>
      </trkpt>
      <trkpt lat="40.188433" lon="-5.072217">
        <ele>1754.0</ele>
        <time>2014-05-17T12:57:24Z</time>
      </trkpt>
      <trkpt lat="40.188383" lon="-5.072183">
        <ele>1754.0</ele>
        <time>2014-05-17T12:57:25Z</time>
      </trkpt>
      <trkpt lat="40.188367" lon="-5.072150">
        <ele>1753.0</ele>
        <time>2014-05-17T12:57:26Z</time>
      </trkpt>
      <trkpt lat="40.188350" lon="-5.072100">
        <ele>1752.0</ele>
        <time>2014-05-17T12:57:27Z</time>
      </trkpt>
      <trkpt lat="40.188367" lon="-5.072050">
        <ele>1752.0</ele>
        <time>2014-05-17T12:57:28Z</time>
      </trkpt>
      <trkpt lat="40.188400" lon="-5.072000">
        <ele>1751.0</ele>
        <time>2014-05-17T12:57:29Z</time>
      </trkpt>
      <trkpt lat="40.188450" lon="-5.071950">
        <ele>1750.0</ele>
        <time>2014-05-17T12:57:30Z</time>
      </trkpt>
      <trkpt lat="40.188517" lon="-5.071917">
        <ele>1749.0</ele>
        <time>2014-05-17T12:57:31Z</time>
      </trkpt>
      <trkpt lat="40.188583" lon="-5.071933">
        <ele>1748.0</ele>
        <time>2014-05-17T12:57:32Z</time>
      </trkpt>
      <trkpt lat="40.188683" lon="-5.071967">
        <ele>1747.0</ele>
        <time>2014-05-17T12:57:33Z</time>
      </trkpt>
      <trkpt lat="40.188783" lon="-5.072033">
        <ele>1746.0</ele>
        <time>2014-05-17T12:57:34Z</time>
      </trkpt>
      <trkpt lat="40.188867" lon="-5.072100">
        <ele>1745.0</ele>
        <time>2014-05-17T12:57:35Z</time>
      </trkpt>
      <trkpt lat="40.188950" lon="-5.072183">
        <ele>1745.0</ele>
        <time>2014-05-17T12:57:36Z</time>
      </trkpt>
      <trkpt lat="40.189033" lon="-5.072283">
        <ele>1746.0</ele>
        <time>2014-05-17T12:57:37Z</time>
      </trkpt>
      <trkpt lat="40.189117" lon="-5.072383">
        <ele>1747.0</ele>
        <time>2014-05-17T12:57:38Z</time>
      </trkpt>
      <trkpt lat="40.189200" lon="-5.072500">
        <ele>1748.0</ele>
        <time>2014-05-17T12:57:39Z</time>
      </trkpt>
      <trkpt lat="40.189267" lon="-5.072633">
        <ele>1748.0</ele>
        <time>2014-05-17T12:57:40Z</time>
      </trkpt>
      <trkpt lat="40.189333" lon="-5.072767">
        <ele>1749.0</ele>
        <time>2014-05-17T12:57:41Z</time>
      </trkpt>
      <trkpt lat="40.189383" lon="-5.072917">
        <ele>1750.0</ele>
        <time>2014-05-17T12:57:42Z</time>
      </trkpt>
      <trkpt lat="40.189417" lon="-5.073067">
        <ele>1750.0</ele>
        <time>2014-05-17T12:57:43Z</time>
      </trkpt>
      <trkpt lat="40.189417" lon="-5.073400">
        <ele>1752.0</ele>
        <time>2014-05-17T12:57:45Z</time>
      </trkpt>
      <trkpt lat="40.189400" lon="-5.073567">
        <ele>1752.0</ele>
        <time>2014-05-17T12:57:46Z</time>
      </trkpt>
      <trkpt lat="40.189367" lon="-5.073717">
        <ele>1753.0</ele>
        <time>2014-05-17T12:57:47Z</time>
      </trkpt>
      <trkpt lat="40.189300" lon="-5.073850">
        <ele>1754.0</ele>
        <time>2014-05-17T12:57:48Z</time>
      </trkpt>
      <trkpt lat="40.189233" lon="-5.073967">
        <ele>1754.0</ele>
        <time>2014-05-17T12:57:49Z</time>
      </trkpt>
      <trkpt lat="40.189167" lon="-5.074050">
        <ele>1755.0</ele>
        <time>2014-05-17T12:57:50Z</time>
      </trkpt>
      <trkpt lat="40.189083" lon="-5.074083">
        <ele>1756.0</ele>
        <time>2014-05-17T12:57:51Z</time>
      </trkpt>
      <trkpt lat="40.189000" lon="-5.074100">
        <ele>1757.0</ele>
        <time>2014-05-17T12:57:52Z</time>
      </trkpt>
      <trkpt lat="40.188967" lon="-5.074100">
        <ele>1758.0</ele>
        <time>2014-05-17T12:57:53Z</time>
      </trkpt>
      <trkpt lat="40.188933" lon="-5.074050">
        <ele>1759.0</ele>
        <time>2014-05-17T12:57:54Z</time>
      </trkpt>
      <trkpt lat="40.188950" lon="-5.073950">
        <ele>1759.0</ele>
        <time>2014-05-17T12:57:56Z</time>
      </trkpt>
      <trkpt lat="40.189000" lon="-5.073900">
        <ele>1759.0</ele>
        <time>2014-05-17T12:57:57Z</time>
      </trkpt>
      <trkpt lat="40.189067" lon="-5.073867">
        <ele>1759.0</ele>
        <time>2014-05-17T12:57:58Z</time>
      </trkpt>
      <trkpt lat="40.189150" lon="-5.073867">
        <ele>1759.0</ele>
        <time>2014-05-17T12:57:59Z</time>
      </trkpt>
      <trkpt lat="40.189250" lon="-5.073867">
        <ele>1759.0</ele>
        <time>2014-05-17T12:58:00Z</time>
      </trkpt>
      <trkpt lat="40.189367" lon="-5.073917">
        <ele>1759.0</ele>
        <time>2014-05-17T12:58:01Z</time>
      </trkpt>
      <trkpt lat="40.189450" lon="-5.074000">
        <ele>1760.0</ele>
        <time>2014-05-17T12:58:02Z</time>
      </trkpt>
      <trkpt lat="40.189533" lon="-5.074133">
        <ele>1761.0</ele>
        <time>2014-05-17T12:58:03Z</time>
      </trkpt>
      <trkpt lat="40.189583" lon="-5.074283">
        <ele>1761.0</ele>
        <time>2014-05-17T12:58:04Z</time>
      </trkpt>
      <trkpt lat="40.189617" lon="-5.074433">
        <ele>1762.0</ele>
        <time>2014-05-17T12:58:05Z</time>
      </trkpt>
      <trkpt lat="40.189633" lon="-5.074600">
        <ele>1763.0</ele>
        <time>2014-05-17T12:58:06Z</time>
      </trkpt>
      <trkpt lat="40.189633" lon="-5.074767">
        <ele>1763.0</ele>
        <time>2014-05-17T12:58:07Z</time>
      </trkpt>
      <trkpt lat="40.189617" lon="-5.074933">
        <ele>1762.0</ele>
        <time>2014-05-17T12:58:08Z</time>
      </trkpt>
      <trkpt lat="40.189583" lon="-5.075100">
        <ele>1761.0</ele>
        <time>2014-05-17T12:58:09Z</time>
      </trkpt>
      <trkpt lat="40.189533" lon="-5.075233">
        <ele>1760.0</ele>
        <time>2014-05-17T12:58:10Z</time>
      </trkpt>
      <trkpt lat="40.189467" lon="-5.075350">
        <ele>1760.0</ele>
        <time>2014-05-17T12:58:11Z</time>
      </trkpt>
      <trkpt lat="40.189400" lon="-5.075450">
        <ele>1760.0</ele>
        <time>2014-05-17T12:58:12Z</time>
      </trkpt>
      <trkpt lat="40.189333" lon="-5.075533">
        <ele>1760.0</ele>
        <time>2014-05-17T12:58:13Z</time>
      </trkpt>
      <trkpt lat="40.189250" lon="-5.075600">
        <ele>1761.0</ele>
        <time>2014-05-17T12:58:14Z</time>
      </trkpt>
      <trkpt lat="40.189183" lon="-5.075633">
        <ele>1760.0</ele>
        <time>2014-05-17T12:58:15Z</time>
      </trkpt>
      <trkpt lat="40.189117" lon="-5.075633">
        <ele>1760.0</ele>
        <time>2014-05-17T12:58:16Z</time>
      </trkpt>
      <trkpt lat="40.189083" lon="-5.075617">
        <ele>1760.0</ele>
        <time>2014-05-17T12:58:17Z</time>
      </trkpt>
      <trkpt lat="40.189067" lon="-5.075567">
        <ele>1760.0</ele>
        <time>2014-05-17T12:58:18Z</time>
      </trkpt>
      <trkpt lat="40.189050" lon="-5.075533">
        <ele>1759.0</ele>
        <time>2014-05-17T12:58:19Z</time>
      </trkpt>
      <trkpt lat="40.189050" lon="-5.075483">
        <ele>1759.0</ele>
        <time>2014-05-17T12:58:20Z</time>
      </trkpt>
      <trkpt lat="40.189083" lon="-5.075433">
        <ele>1759.0</ele>
        <time>2014-05-17T12:58:21Z</time>
      </trkpt>
      <trkpt lat="40.189167" lon="-5.075400">
        <ele>1758.0</ele>
        <time>2014-05-17T12:58:22Z</time>
      </trkpt>
      <trkpt lat="40.189250" lon="-5.075400">
        <ele>1757.0</ele>
        <time>2014-05-17T12:58:23Z</time>
      </trkpt>
      <trkpt lat="40.189350" lon="-5.075433">
        <ele>1757.0</ele>
        <time>2014-05-17T12:58:24Z</time>
      </trkpt>
      <trkpt lat="40.189450" lon="-5.075517">
        <ele>1756.0</ele>
        <time>2014-05-17T12:58:25Z</time>
      </trkpt>
      <trkpt lat="40.189533" lon="-5.075600">
        <ele>1757.0</ele>
        <time>2014-05-17T12:58:26Z</time>
      </trkpt>
      <trkpt lat="40.189600" lon="-5.075683">
        <ele>1758.0</ele>
        <time>2014-05-17T12:58:27Z</time>
      </trkpt>
      <trkpt lat="40.189667" lon="-5.075800">
        <ele>1759.0</ele>
        <time>2014-05-17T12:58:28Z</time>
      </trkpt>
      <trkpt lat="40.189733" lon="-5.075933">
        <ele>1758.0</ele>
        <time>2014-05-17T12:58:29Z</time>
      </trkpt>
      <trkpt lat="40.189783" lon="-5.076100">
        <ele>1757.0</ele>
        <time>2014-05-17T12:58:30Z</time>
      </trkpt>
      <trkpt lat="40.189800" lon="-5.076267">
        <ele>1755.0</ele>
        <time>2014-05-17T12:58:31Z</time>
      </trkpt>
      <trkpt lat="40.189800" lon="-5.076450">
        <ele>1754.0</ele>
        <time>2014-05-17T12:58:32Z</time>
      </trkpt>
      <trkpt lat="40.189800" lon="-5.076600">
        <ele>1753.0</ele>
        <time>2014-05-17T12:58:33Z</time>
      </trkpt>
      <trkpt lat="40.189783" lon="-5.076767">
        <ele>1752.0</ele>
        <time>2014-05-17T12:58:34Z</time>
      </trkpt>
      <trkpt lat="40.189767" lon="-5.076917">
        <ele>1752.0</ele>
        <time>2014-05-17T12:58:35Z</time>
      </trkpt>
      <trkpt lat="40.189750" lon="-5.077067">
        <ele>1750.0</ele>
        <time>2014-05-17T12:58:36Z</time>
      </trkpt>
      <trkpt lat="40.189717" lon="-5.077233">
        <ele>1748.0</ele>
        <time>2014-05-17T12:58:37Z</time>
      </trkpt>
      <trkpt lat="40.189667" lon="-5.077400">
        <ele>1747.0</ele>
        <time>2014-05-17T12:58:38Z</time>
      </trkpt>
      <trkpt lat="40.189600" lon="-5.077533">
        <ele>1746.0</ele>
        <time>2014-05-17T12:58:39Z</time>
      </trkpt>
      <trkpt lat="40.189533" lon="-5.077650">
        <ele>1745.0</ele>
        <time>2014-05-17T12:58:40Z</time>
      </trkpt>
      <trkpt lat="40.189467" lon="-5.077733">
        <ele>1745.0</ele>
        <time>2014-05-17T12:58:41Z</time>
      </trkpt>
      <trkpt lat="40.189400" lon="-5.077817">
        <ele>1744.0</ele>
        <time>2014-05-17T12:58:42Z</time>
      </trkpt>
      <trkpt lat="40.189333" lon="-5.077883">
        <ele>1743.0</ele>
        <time>2014-05-17T12:58:43Z</time>
      </trkpt>
      <trkpt lat="40.189267" lon="-5.077983">
        <ele>1742.0</ele>
        <time>2014-05-17T12:58:44Z</time>
      </trkpt>
      <trkpt lat="40.189200" lon="-5.078100">
        <ele>1741.0</ele>
        <time>2014-05-17T12:58:45Z</time>
      </trkpt>
      <trkpt lat="40.189133" lon="-5.078217">
        <ele>1739.0</ele>
        <time>2014-05-17T12:58:46Z</time>
      </trkpt>
      <trkpt lat="40.189083" lon="-5.078350">
        <ele>1738.0</ele>
        <time>2014-05-17T12:58:47Z</time>
      </trkpt>
      <trkpt lat="40.189033" lon="-5.078483">
        <ele>1737.0</ele>
        <time>2014-05-17T12:58:48Z</time>
      </trkpt>
      <trkpt lat="40.189000" lon="-5.078617">
        <ele>1736.0</ele>
        <time>2014-05-17T12:58:49Z</time>
      </trkpt>
      <trkpt lat="40.188967" lon="-5.078767">
        <ele>1734.0</ele>
        <time>2014-05-17T12:58:50Z</time>
      </trkpt>
      <trkpt lat="40.188917" lon="-5.078917">
        <ele>1732.0</ele>
        <time>2014-05-17T12:58:51Z</time>
      </trkpt>
      <trkpt lat="40.188867" lon="-5.079067">
        <ele>1729.0</ele>
        <time>2014-05-17T12:58:52Z</time>
      </trkpt>
      <trkpt lat="40.188800" lon="-5.079200">
        <ele>1727.0</ele>
        <time>2014-05-17T12:58:53Z</time>
      </trkpt>
      <trkpt lat="40.188750" lon="-5.079317">
        <ele>1727.0</ele>
        <time>2014-05-17T12:58:54Z</time>
      </trkpt>
      <trkpt lat="40.188700" lon="-5.079433">
        <ele>1726.0</ele>
        <time>2014-05-17T12:58:55Z</time>
      </trkpt>
      <trkpt lat="40.188667" lon="-5.079550">
        <ele>1725.0</ele>
        <time>2014-05-17T12:58:56Z</time>
      </trkpt>
      <trkpt lat="40.188633" lon="-5.079683">
        <ele>1724.0</ele>
        <time>2014-05-17T12:58:57Z</time>
      </trkpt>
      <trkpt lat="40.188583" lon="-5.079817">
        <ele>1721.0</ele>
        <time>2014-05-17T12:58:58Z</time>
      </trkpt>
      <trkpt lat="40.188550" lon="-5.079967">
        <ele>1719.0</ele>
        <time>2014-05-17T12:58:59Z</time>
      </trkpt>
      <trkpt lat="40.188517" lon="-5.080117">
        <ele>1716.0</ele>
        <time>2014-05-17T12:59:00Z</time>
      </trkpt>
      <trkpt lat="40.188483" lon="-5.080250">
        <ele>1715.0</ele>
        <time>2014-05-17T12:59:01Z</time>
      </trkpt>
      <trkpt lat="40.188450" lon="-5.080383">
        <ele>1713.0</ele>
        <time>2014-05-17T12:59:02Z</time>
      </trkpt>
      <trkpt lat="40.188400" lon="-5.080500">
        <ele>1711.0</ele>
        <time>2014-05-17T12:59:03Z</time>
      </trkpt>
      <trkpt lat="40.188367" lon="-5.080617">
        <ele>1709.0</ele>
        <time>2014-05-17T12:59:04Z</time>
      </trkpt>
      <trkpt lat="40.188333" lon="-5.080750">
        <ele>1706.0</ele>
        <time>2014-05-17T12:59:05Z</time>
      </trkpt>
      <trkpt lat="40.188300" lon="-5.080900">
        <ele>1704.0</ele>
        <time>2014-05-17T12:59:06Z</time>
      </trkpt>
      <trkpt lat="40.188267" lon="-5.081050">
        <ele>1702.0</ele>
        <time>2014-05-17T12:59:07Z</time>
      </trkpt>
      <trkpt lat="40.188217" lon="-5.081200">
        <ele>1699.0</ele>
        <time>2014-05-17T12:59:08Z</time>
      </trkpt>
      <trkpt lat="40.188183" lon="-5.081350">
        <ele>1697.0</ele>
        <time>2014-05-17T12:59:09Z</time>
      </trkpt>
      <trkpt lat="40.188150" lon="-5.081500">
        <ele>1696.0</ele>
        <time>2014-05-17T12:59:10Z</time>
      </trkpt>
      <trkpt lat="40.188117" lon="-5.081667">
        <ele>1694.0</ele>
        <time>2014-05-17T12:59:11Z</time>
      </trkpt>
      <trkpt lat="40.188083" lon="-5.081817">
        <ele>1693.0</ele>
        <time>2014-05-17T12:59:12Z</time>
      </trkpt>
      <trkpt lat="40.188050" lon="-5.081967">
        <ele>1691.0</ele>
        <time>2014-05-17T12:59:13Z</time>
      </trkpt>
      <trkpt lat="40.188017" lon="-5.082117">
        <ele>1690.0</ele>
        <time>2014-05-17T12:59:14Z</time>
      </trkpt>
      <trkpt lat="40.187983" lon="-5.082267">
        <ele>1688.0</ele>
        <time>2014-05-17T12:59:15Z</time>
      </trkpt>
      <trkpt lat="40.187933" lon="-5.082433">
        <ele>1686.0</ele>
        <time>2014-05-17T12:59:16Z</time>
      </trkpt>
      <trkpt lat="40.187900" lon="-5.082600">
        <ele>1684.0</ele>
        <time>2014-05-17T12:59:17Z</time>
      </trkpt>
      <trkpt lat="40.187867" lon="-5.082750">
        <ele>1683.0</ele>
        <time>2014-05-17T12:59:18Z</time>
      </trkpt>
      <trkpt lat="40.187833" lon="-5.082900">
        <ele>1683.0</ele>
        <time>2014-05-17T12:59:19Z</time>
      </trkpt>
      <trkpt lat="40.187800" lon="-5.083033">
        <ele>1682.0</ele>
        <time>2014-05-17T12:59:20Z</time>
      </trkpt>
      <trkpt lat="40.187767" lon="-5.083183">
        <ele>1680.0</ele>
        <time>2014-05-17T12:59:21Z</time>
      </trkpt>
      <trkpt lat="40.187733" lon="-5.083333">
        <ele>1678.0</ele>
        <time>2014-05-17T12:59:22Z</time>
      </trkpt>
      <trkpt lat="40.187683" lon="-5.083500">
        <ele>1675.0</ele>
        <time>2014-05-17T12:59:23Z</time>
      </trkpt>
      <trkpt lat="40.187633" lon="-5.083667">
        <ele>1672.0</ele>
        <time>2014-05-17T12:59:24Z</time>
      </trkpt>
      <trkpt lat="40.187583" lon="-5.083817">
        <ele>1669.0</ele>
        <time>2014-05-17T12:59:25Z</time>
      </trkpt>
      <trkpt lat="40.187550" lon="-5.083983">
        <ele>1668.0</ele>
        <time>2014-05-17T12:59:26Z</time>
      </trkpt>
      <trkpt lat="40.187517" lon="-5.084117">
        <ele>1667.0</ele>
        <time>2014-05-17T12:59:27Z</time>
      </trkpt>
      <trkpt lat="40.187483" lon="-5.084267">
        <ele>1666.0</ele>
        <time>2014-05-17T12:59:28Z</time>
      </trkpt>
      <trkpt lat="40.187450" lon="-5.084400">
        <ele>1664.0</ele>
        <time>2014-05-17T12:59:29Z</time>
      </trkpt>
      <trkpt lat="40.187417" lon="-5.084550">
        <ele>1663.0</ele>
        <time>2014-05-17T12:59:30Z</time>
      </trkpt>
      <trkpt lat="40.187383" lon="-5.084700">
        <ele>1662.0</ele>
        <time>2014-05-17T12:59:31Z</time>
      </trkpt>
      <trkpt lat="40.187350" lon="-5.084850">
        <ele>1660.0</ele>
        <time>2014-05-17T12:59:32Z</time>
      </trkpt>
      <trkpt lat="40.187317" lon="-5.084983">
        <ele>1659.0</ele>
        <time>2014-05-17T12:59:33Z</time>
      </trkpt>
      <trkpt lat="40.187267" lon="-5.085117">
        <ele>1658.0</ele>
        <time>2014-05-17T12:59:34Z</time>
      </trkpt>
      <trkpt lat="40.187233" lon="-5.085267">
        <ele>1656.0</ele>
        <time>2014-05-17T12:59:35Z</time>
      </trkpt>
      <trkpt lat="40.187200" lon="-5.085417">
        <ele>1655.0</ele>
        <time>2014-05-17T12:59:36Z</time>
      </trkpt>
      <trkpt lat="40.187167" lon="-5.085550">
        <ele>1654.0</ele>
        <time>2014-05-17T12:59:37Z</time>
      </trkpt>
      <trkpt lat="40.187133" lon="-5.085700">
        <ele>1653.0</ele>
        <time>2014-05-17T12:59:38Z</time>
      </trkpt>
      <trkpt lat="40.187100" lon="-5.085850">
        <ele>1652.0</ele>
        <time>2014-05-17T12:59:39Z</time>
      </trkpt>
      <trkpt lat="40.187067" lon="-5.086000">
        <ele>1651.0</ele>
        <time>2014-05-17T12:59:40Z</time>
      </trkpt>
      <trkpt lat="40.187033" lon="-5.086150">
        <ele>1651.0</ele>
        <time>2014-05-17T12:59:41Z</time>
      </trkpt>
      <trkpt lat="40.187017" lon="-5.086317">
        <ele>1650.0</ele>
        <time>2014-05-17T12:59:42Z</time>
      </trkpt>
      <trkpt lat="40.186983" lon="-5.086467">
        <ele>1649.0</ele>
        <time>2014-05-17T12:59:43Z</time>
      </trkpt>
      <trkpt lat="40.186950" lon="-5.086633">
        <ele>1649.0</ele>
        <time>2014-05-17T12:59:44Z</time>
      </trkpt>
      <trkpt lat="40.186933" lon="-5.086783">
        <ele>1648.0</ele>
        <time>2014-05-17T12:59:45Z</time>
      </trkpt>
      <trkpt lat="40.186900" lon="-5.086933">
        <ele>1648.0</ele>
        <time>2014-05-17T12:59:46Z</time>
      </trkpt>
      <trkpt lat="40.186883" lon="-5.087067">
        <ele>1648.0</ele>
        <time>2014-05-17T12:59:47Z</time>
      </trkpt>
      <trkpt lat="40.186850" lon="-5.087217">
        <ele>1647.0</ele>
        <time>2014-05-17T12:59:48Z</time>
      </trkpt>
      <trkpt lat="40.186817" lon="-5.087350">
        <ele>1646.0</ele>
        <time>2014-05-17T12:59:49Z</time>
      </trkpt>
      <trkpt lat="40.186783" lon="-5.087500">
        <ele>1644.0</ele>
        <time>2014-05-17T12:59:50Z</time>
      </trkpt>
      <trkpt lat="40.186733" lon="-5.087650">
        <ele>1643.0</ele>
        <time>2014-05-17T12:59:51Z</time>
      </trkpt>
      <trkpt lat="40.186700" lon="-5.087817">
        <ele>1642.0</ele>
        <time>2014-05-17T12:59:52Z</time>
      </trkpt>
      <trkpt lat="40.186683" lon="-5.087967">
        <ele>1641.0</ele>
        <time>2014-05-17T12:59:53Z</time>
      </trkpt>
      <trkpt lat="40.186650" lon="-5.088117">
        <ele>1640.0</ele>
        <time>2014-05-17T12:59:54Z</time>
      </trkpt>
      <trkpt lat="40.186633" lon="-5.088283">
        <ele>1639.0</ele>
        <time>2014-05-17T12:59:55Z</time>
      </trkpt>
      <trkpt lat="40.186617" lon="-5.088450">
        <ele>1638.0</ele>
        <time>2014-05-17T12:59:56Z</time>
      </trkpt>
      <trkpt lat="40.186583" lon="-5.088617">
        <ele>1637.0</ele>
        <time>2014-05-17T12:59:57Z</time>
      </trkpt>
      <trkpt lat="40.186550" lon="-5.088800">
        <ele>1636.0</ele>
        <time>2014-05-17T12:59:58Z</time>
      </trkpt>
      <trkpt lat="40.186517" lon="-5.088967">
        <ele>1634.0</ele>
        <time>2014-05-17T12:59:59Z</time>
      </trkpt>
      <trkpt lat="40.186483" lon="-5.089133">
        <ele>1633.0</ele>
        <time>2014-05-17T13:00:00Z</time>
      </trkpt>
      <trkpt lat="40.186433" lon="-5.089300">
        <ele>1631.0</ele>
        <time>2014-05-17T13:00:01Z</time>
      </trkpt>
      <trkpt lat="40.186400" lon="-5.089467">
        <ele>1629.0</ele>
        <time>2014-05-17T13:00:02Z</time>
      </trkpt>
      <trkpt lat="40.186350" lon="-5.089633">
        <ele>1627.0</ele>
        <time>2014-05-17T13:00:03Z</time>
      </trkpt>
      <trkpt lat="40.186300" lon="-5.089800">
        <ele>1625.0</ele>
        <time>2014-05-17T13:00:04Z</time>
      </trkpt>
      <trkpt lat="40.186267" lon="-5.089950">
        <ele>1623.0</ele>
        <time>2014-05-17T13:00:05Z</time>
      </trkpt>
      <trkpt lat="40.186217" lon="-5.090117">
        <ele>1622.0</ele>
        <time>2014-05-17T13:00:06Z</time>
      </trkpt>
      <trkpt lat="40.186167" lon="-5.090267">
        <ele>1620.0</ele>
        <time>2014-05-17T13:00:07Z</time>
      </trkpt>
      <trkpt lat="40.186133" lon="-5.090417">
        <ele>1619.0</ele>
        <time>2014-05-17T13:00:08Z</time>
      </trkpt>
      <trkpt lat="40.186083" lon="-5.090567">
        <ele>1617.0</ele>
        <time>2014-05-17T13:00:09Z</time>
      </trkpt>
      <trkpt lat="40.186050" lon="-5.090733">
        <ele>1615.0</ele>
        <time>2014-05-17T13:00:10Z</time>
      </trkpt>
      <trkpt lat="40.186000" lon="-5.090900">
        <ele>1614.0</ele>
        <time>2014-05-17T13:00:11Z</time>
      </trkpt>
      <trkpt lat="40.185950" lon="-5.091050">
        <ele>1612.0</ele>
        <time>2014-05-17T13:00:12Z</time>
      </trkpt>
      <trkpt lat="40.185917" lon="-5.091200">
        <ele>1611.0</ele>
        <time>2014-05-17T13:00:13Z</time>
      </trkpt>
      <trkpt lat="40.185867" lon="-5.091350">
        <ele>1609.0</ele>
        <time>2014-05-17T13:00:14Z</time>
      </trkpt>
      <trkpt lat="40.185817" lon="-5.091517">
        <ele>1607.0</ele>
        <time>2014-05-17T13:00:15Z</time>
      </trkpt>
      <trkpt lat="40.185767" lon="-5.091683">
        <ele>1605.0</ele>
        <time>2014-05-17T13:00:16Z</time>
      </trkpt>
      <trkpt lat="40.185700" lon="-5.091850">
        <ele>1603.0</ele>
        <time>2014-05-17T13:00:17Z</time>
      </trkpt>
      <trkpt lat="40.185650" lon="-5.092017">
        <ele>1601.0</ele>
        <time>2014-05-17T13:00:18Z</time>
      </trkpt>
      <trkpt lat="40.185583" lon="-5.092150">
        <ele>1600.0</ele>
        <time>2014-05-17T13:00:19Z</time>
      </trkpt>
      <trkpt lat="40.185533" lon="-5.092317">
        <ele>1598.0</ele>
        <time>2014-05-17T13:00:20Z</time>
      </trkpt>
      <trkpt lat="40.185483" lon="-5.092483">
        <ele>1596.0</ele>
        <time>2014-05-17T13:00:21Z</time>
      </trkpt>
      <trkpt lat="40.185417" lon="-5.092650">
        <ele>1594.0</ele>
        <time>2014-05-17T13:00:22Z</time>
      </trkpt>
      <trkpt lat="40.185367" lon="-5.092817">
        <ele>1593.0</ele>
        <time>2014-05-17T13:00:23Z</time>
      </trkpt>
      <trkpt lat="40.185300" lon="-5.092983">
        <ele>1592.0</ele>
        <time>2014-05-17T13:00:24Z</time>
      </trkpt>
      <trkpt lat="40.185250" lon="-5.093117">
        <ele>1592.0</ele>
        <time>2014-05-17T13:00:25Z</time>
      </trkpt>
      <trkpt lat="40.185200" lon="-5.093250">
        <ele>1592.0</ele>
        <time>2014-05-17T13:00:26Z</time>
      </trkpt>
      <trkpt lat="40.185150" lon="-5.093400">
        <ele>1591.0</ele>
        <time>2014-05-17T13:00:27Z</time>
      </trkpt>
      <trkpt lat="40.185100" lon="-5.093533">
        <ele>1590.0</ele>
        <time>2014-05-17T13:00:28Z</time>
      </trkpt>
      <trkpt lat="40.185033" lon="-5.093683">
        <ele>1589.0</ele>
        <time>2014-05-17T13:00:29Z</time>
      </trkpt>
      <trkpt lat="40.184983" lon="-5.093833">
        <ele>1588.0</ele>
        <time>2014-05-17T13:00:30Z</time>
      </trkpt>
      <trkpt lat="40.184933" lon="-5.093967">
        <ele>1587.0</ele>
        <time>2014-05-17T13:00:31Z</time>
      </trkpt>
      <trkpt lat="40.184867" lon="-5.094100">
        <ele>1586.0</ele>
        <time>2014-05-17T13:00:32Z</time>
      </trkpt>
      <trkpt lat="40.184817" lon="-5.094233">
        <ele>1585.0</ele>
        <time>2014-05-17T13:00:33Z</time>
      </trkpt>
      <trkpt lat="40.184767" lon="-5.094367">
        <ele>1584.0</ele>
        <time>2014-05-17T13:00:34Z</time>
      </trkpt>
      <trkpt lat="40.184717" lon="-5.094500">
        <ele>1583.0</ele>
        <time>2014-05-17T13:00:35Z</time>
      </trkpt>
      <trkpt lat="40.184667" lon="-5.094650">
        <ele>1581.0</ele>
        <time>2014-05-17T13:00:36Z</time>
      </trkpt>
      <trkpt lat="40.184617" lon="-5.094800">
        <ele>1579.0</ele>
        <time>2014-05-17T13:00:37Z</time>
      </trkpt>
      <trkpt lat="40.184567" lon="-5.094950">
        <ele>1577.0</ele>
        <time>2014-05-17T13:00:38Z</time>
      </trkpt>
      <trkpt lat="40.184500" lon="-5.095100">
        <ele>1575.0</ele>
        <time>2014-05-17T13:00:39Z</time>
      </trkpt>
      <trkpt lat="40.184450" lon="-5.095233">
        <ele>1574.0</ele>
        <time>2014-05-17T13:00:40Z</time>
      </trkpt>
      <trkpt lat="40.184400" lon="-5.095367">
        <ele>1573.0</ele>
        <time>2014-05-17T13:00:41Z</time>
      </trkpt>
      <trkpt lat="40.184350" lon="-5.095500">
        <ele>1571.0</ele>
        <time>2014-05-17T13:00:42Z</time>
      </trkpt>
      <trkpt lat="40.184317" lon="-5.095633">
        <ele>1570.0</ele>
        <time>2014-05-17T13:00:43Z</time>
      </trkpt>
      <trkpt lat="40.184283" lon="-5.095767">
        <ele>1568.0</ele>
        <time>2014-05-17T13:00:44Z</time>
      </trkpt>
      <trkpt lat="40.184233" lon="-5.095900">
        <ele>1565.0</ele>
        <time>2014-05-17T13:00:45Z</time>
      </trkpt>
      <trkpt lat="40.184200" lon="-5.096033">
        <ele>1562.0</ele>
        <time>2014-05-17T13:00:46Z</time>
      </trkpt>
      <trkpt lat="40.184150" lon="-5.096183">
        <ele>1560.0</ele>
        <time>2014-05-17T13:00:47Z</time>
      </trkpt>
      <trkpt lat="40.184117" lon="-5.096317">
        <ele>1558.0</ele>
        <time>2014-05-17T13:00:48Z</time>
      </trkpt>
      <trkpt lat="40.184067" lon="-5.096450">
        <ele>1556.0</ele>
        <time>2014-05-17T13:00:49Z</time>
      </trkpt>
      <trkpt lat="40.184033" lon="-5.096583">
        <ele>1554.0</ele>
        <time>2014-05-17T13:00:50Z</time>
      </trkpt>
      <trkpt lat="40.184000" lon="-5.096700">
        <ele>1553.0</ele>
        <time>2014-05-17T13:00:51Z</time>
      </trkpt>
      <trkpt lat="40.183967" lon="-5.096833">
        <ele>1551.0</ele>
        <time>2014-05-17T13:00:52Z</time>
      </trkpt>
      <trkpt lat="40.183917" lon="-5.096983">
        <ele>1549.0</ele>
        <time>2014-05-17T13:00:53Z</time>
      </trkpt>
      <trkpt lat="40.183883" lon="-5.097117">
        <ele>1547.0</ele>
        <time>2014-05-17T13:00:54Z</time>
      </trkpt>
      <trkpt lat="40.183833" lon="-5.097250">
        <ele>1544.0</ele>
        <time>2014-05-17T13:00:55Z</time>
      </trkpt>
      <trkpt lat="40.183783" lon="-5.097383">
        <ele>1543.0</ele>
        <time>2014-05-17T13:00:56Z</time>
      </trkpt>
      <trkpt lat="40.183733" lon="-5.097517">
        <ele>1541.0</ele>
        <time>2014-05-17T13:00:57Z</time>
      </trkpt>
      <trkpt lat="40.183683" lon="-5.097650">
        <ele>1540.0</ele>
        <time>2014-05-17T13:00:58Z</time>
      </trkpt>
      <trkpt lat="40.183633" lon="-5.097800">
        <ele>1537.0</ele>
        <time>2014-05-17T13:00:59Z</time>
      </trkpt>
      <trkpt lat="40.183583" lon="-5.097950">
        <ele>1535.0</ele>
        <time>2014-05-17T13:01:00Z</time>
      </trkpt>
      <trkpt lat="40.183550" lon="-5.098100">
        <ele>1534.0</ele>
        <time>2014-05-17T13:01:01Z</time>
      </trkpt>
      <trkpt lat="40.183517" lon="-5.098250">
        <ele>1533.0</ele>
        <time>2014-05-17T13:01:02Z</time>
      </trkpt>
      <trkpt lat="40.183483" lon="-5.098400">
        <ele>1531.0</ele>
        <time>2014-05-17T13:01:03Z</time>
      </trkpt>
      <trkpt lat="40.183450" lon="-5.098550">
        <ele>1530.0</ele>
        <time>2014-05-17T13:01:04Z</time>
      </trkpt>
      <trkpt lat="40.183417" lon="-5.098700">
        <ele>1528.0</ele>
        <time>2014-05-17T13:01:05Z</time>
      </trkpt>
      <trkpt lat="40.183383" lon="-5.098850">
        <ele>1527.0</ele>
        <time>2014-05-17T13:01:06Z</time>
      </trkpt>
      <trkpt lat="40.183350" lon="-5.099000">
        <ele>1526.0</ele>
        <time>2014-05-17T13:01:07Z</time>
      </trkpt>
      <trkpt lat="40.183317" lon="-5.099150">
        <ele>1525.0</ele>
        <time>2014-05-17T13:01:08Z</time>
      </trkpt>
      <trkpt lat="40.183267" lon="-5.099283">
        <ele>1524.0</ele>
        <time>2014-05-17T13:01:09Z</time>
      </trkpt>
      <trkpt lat="40.183233" lon="-5.099433">
        <ele>1523.0</ele>
        <time>2014-05-17T13:01:10Z</time>
      </trkpt>
      <trkpt lat="40.183200" lon="-5.099600">
        <ele>1522.0</ele>
        <time>2014-05-17T13:01:11Z</time>
      </trkpt>
      <trkpt lat="40.183167" lon="-5.099750">
        <ele>1522.0</ele>
        <time>2014-05-17T13:01:12Z</time>
      </trkpt>
      <trkpt lat="40.183133" lon="-5.099900">
        <ele>1521.0</ele>
        <time>2014-05-17T13:01:13Z</time>
      </trkpt>
      <trkpt lat="40.183083" lon="-5.100033">
        <ele>1520.0</ele>
        <time>2014-05-17T13:01:14Z</time>
      </trkpt>
      <trkpt lat="40.183050" lon="-5.100167">
        <ele>1519.0</ele>
        <time>2014-05-17T13:01:15Z</time>
      </trkpt>
      <trkpt lat="40.183000" lon="-5.100317">
        <ele>1517.0</ele>
        <time>2014-05-17T13:01:16Z</time>
      </trkpt>
      <trkpt lat="40.182950" lon="-5.100467">
        <ele>1516.0</ele>
        <time>2014-05-17T13:01:17Z</time>
      </trkpt>
      <trkpt lat="40.182900" lon="-5.100617">
        <ele>1514.0</ele>
        <time>2014-05-17T13:01:18Z</time>
      </trkpt>
      <trkpt lat="40.182850" lon="-5.100767">
        <ele>1513.0</ele>
        <time>2014-05-17T13:01:19Z</time>
      </trkpt>
      <trkpt lat="40.182783" lon="-5.100917">
        <ele>1512.0</ele>
        <time>2014-05-17T13:01:20Z</time>
      </trkpt>
      <trkpt lat="40.182733" lon="-5.101050">
        <ele>1512.0</ele>
        <time>2014-05-17T13:01:21Z</time>
      </trkpt>
      <trkpt lat="40.182683" lon="-5.101183">
        <ele>1511.0</ele>
        <time>2014-05-17T13:01:22Z</time>
      </trkpt>
      <trkpt lat="40.182633" lon="-5.101317">
        <ele>1511.0</ele>
        <time>2014-05-17T13:01:23Z</time>
      </trkpt>
      <trkpt lat="40.182583" lon="-5.101467">
        <ele>1509.0</ele>
        <time>2014-05-17T13:01:24Z</time>
      </trkpt>
      <trkpt lat="40.182533" lon="-5.101617">
        <ele>1508.0</ele>
        <time>2014-05-17T13:01:25Z</time>
      </trkpt>
      <trkpt lat="40.182500" lon="-5.101767">
        <ele>1506.0</ele>
        <time>2014-05-17T13:01:26Z</time>
      </trkpt>
      <trkpt lat="40.182450" lon="-5.101900">
        <ele>1505.0</ele>
        <time>2014-05-17T13:01:27Z</time>
      </trkpt>
      <trkpt lat="40.182383" lon="-5.102033">
        <ele>1504.0</ele>
        <time>2014-05-17T13:01:28Z</time>
      </trkpt>
      <trkpt lat="40.182333" lon="-5.102167">
        <ele>1503.0</ele>
        <time>2014-05-17T13:01:29Z</time>
      </trkpt>
      <trkpt lat="40.182283" lon="-5.102300">
        <ele>1501.0</ele>
        <time>2014-05-17T13:01:30Z</time>
      </trkpt>
      <trkpt lat="40.182233" lon="-5.102433">
        <ele>1500.0</ele>
        <time>2014-05-17T13:01:31Z</time>
      </trkpt>
      <trkpt lat="40.182183" lon="-5.102567">
        <ele>1498.0</ele>
        <time>2014-05-17T13:01:32Z</time>
      </trkpt>
      <trkpt lat="40.182133" lon="-5.102717">
        <ele>1497.0</ele>
        <time>2014-05-17T13:01:33Z</time>
      </trkpt>
      <trkpt lat="40.182083" lon="-5.102867">
        <ele>1496.0</ele>
        <time>2014-05-17T13:01:34Z</time>
      </trkpt>
      <trkpt lat="40.182033" lon="-5.103000">
        <ele>1494.0</ele>
        <time>2014-05-17T13:01:35Z</time>
      </trkpt>
      <trkpt lat="40.181983" lon="-5.103133">
        <ele>1493.0</ele>
        <time>2014-05-17T13:01:36Z</time>
      </trkpt>
      <trkpt lat="40.181933" lon="-5.103267">
        <ele>1492.0</ele>
        <time>2014-05-17T13:01:37Z</time>
      </trkpt>
      <trkpt lat="40.181883" lon="-5.103400">
        <ele>1490.0</ele>
        <time>2014-05-17T13:01:38Z</time>
      </trkpt>
      <trkpt lat="40.181817" lon="-5.103533">
        <ele>1489.0</ele>
        <time>2014-05-17T13:01:39Z</time>
      </trkpt>
      <trkpt lat="40.181767" lon="-5.103683">
        <ele>1487.0</ele>
        <time>2014-05-17T13:01:40Z</time>
      </trkpt>
      <trkpt lat="40.181717" lon="-5.103833">
        <ele>1486.0</ele>
        <time>2014-05-17T13:01:41Z</time>
      </trkpt>
      <trkpt lat="40.181667" lon="-5.103967">
        <ele>1485.0</ele>
        <time>2014-05-17T13:01:42Z</time>
      </trkpt>
      <trkpt lat="40.181600" lon="-5.104117">
        <ele>1483.0</ele>
        <time>2014-05-17T13:01:43Z</time>
      </trkpt>
      <trkpt lat="40.181550" lon="-5.104250">
        <ele>1482.0</ele>
        <time>2014-05-17T13:01:44Z</time>
      </trkpt>
      <trkpt lat="40.181500" lon="-5.104400">
        <ele>1481.0</ele>
        <time>2014-05-17T13:01:45Z</time>
      </trkpt>
      <trkpt lat="40.181467" lon="-5.104533">
        <ele>1481.0</ele>
        <time>2014-05-17T13:01:46Z</time>
      </trkpt>
      <trkpt lat="40.181417" lon="-5.104667">
        <ele>1480.0</ele>
        <time>2014-05-17T13:01:47Z</time>
      </trkpt>
      <trkpt lat="40.181367" lon="-5.104817">
        <ele>1479.0</ele>
        <time>2014-05-17T13:01:48Z</time>
      </trkpt>
      <trkpt lat="40.181300" lon="-5.104950">
        <ele>1477.0</ele>
        <time>2014-05-17T13:01:49Z</time>
      </trkpt>
      <trkpt lat="40.181250" lon="-5.105100">
        <ele>1476.0</ele>
        <time>2014-05-17T13:01:50Z</time>
      </trkpt>
      <trkpt lat="40.181200" lon="-5.105250">
        <ele>1475.0</ele>
        <time>2014-05-17T13:01:51Z</time>
      </trkpt>
      <trkpt lat="40.181150" lon="-5.105383">
        <ele>1474.0</ele>
        <time>2014-05-17T13:01:52Z</time>
      </trkpt>
      <trkpt lat="40.181100" lon="-5.105533">
        <ele>1472.0</ele>
        <time>2014-05-17T13:01:53Z</time>
      </trkpt>
      <trkpt lat="40.181050" lon="-5.105683">
        <ele>1471.0</ele>
        <time>2014-05-17T13:01:54Z</time>
      </trkpt>
      <trkpt lat="40.180983" lon="-5.105833">
        <ele>1469.0</ele>
        <time>2014-05-17T13:01:55Z</time>
      </trkpt>
      <trkpt lat="40.180933" lon="-5.105983">
        <ele>1468.0</ele>
        <time>2014-05-17T13:01:56Z</time>
      </trkpt>
      <trkpt lat="40.180867" lon="-5.106117">
        <ele>1467.0</ele>
        <time>2014-05-17T13:01:57Z</time>
      </trkpt>
      <trkpt lat="40.180817" lon="-5.106267">
        <ele>1467.0</ele>
        <time>2014-05-17T13:01:58Z</time>
      </trkpt>
      <trkpt lat="40.180767" lon="-5.106400">
        <ele>1466.0</ele>
        <time>2014-05-17T13:01:59Z</time>
      </trkpt>
      <trkpt lat="40.180700" lon="-5.106550">
        <ele>1464.0</ele>
        <time>2014-05-17T13:02:00Z</time>
      </trkpt>
      <trkpt lat="40.180650" lon="-5.106683">
        <ele>1463.0</ele>
        <time>2014-05-17T13:02:01Z</time>
      </trkpt>
      <trkpt lat="40.180583" lon="-5.106833">
        <ele>1461.0</ele>
        <time>2014-05-17T13:02:02Z</time>
      </trkpt>
      <trkpt lat="40.180517" lon="-5.107000">
        <ele>1460.0</ele>
        <time>2014-05-17T13:02:03Z</time>
      </trkpt>
      <trkpt lat="40.180467" lon="-5.107150">
        <ele>1458.0</ele>
        <time>2014-05-17T13:02:04Z</time>
      </trkpt>
      <trkpt lat="40.180417" lon="-5.107283">
        <ele>1457.0</ele>
        <time>2014-05-17T13:02:05Z</time>
      </trkpt>
      <trkpt lat="40.180350" lon="-5.107433">
        <ele>1456.0</ele>
        <time>2014-05-17T13:02:06Z</time>
      </trkpt>
      <trkpt lat="40.180300" lon="-5.107583">
        <ele>1454.0</ele>
        <time>2014-05-17T13:02:07Z</time>
      </trkpt>
      <trkpt lat="40.180233" lon="-5.107733">
        <ele>1452.0</ele>
        <time>2014-05-17T13:02:08Z</time>
      </trkpt>
      <trkpt lat="40.180167" lon="-5.107883">
        <ele>1450.0</ele>
        <time>2014-05-17T13:02:09Z</time>
      </trkpt>
      <trkpt lat="40.180100" lon="-5.108033">
        <ele>1448.0</ele>
        <time>2014-05-17T13:02:10Z</time>
      </trkpt>
      <trkpt lat="40.180050" lon="-5.108183">
        <ele>1448.0</ele>
        <time>2014-05-17T13:02:11Z</time>
      </trkpt>
      <trkpt lat="40.180000" lon="-5.108333">
        <ele>1447.0</ele>
        <time>2014-05-17T13:02:12Z</time>
      </trkpt>
      <trkpt lat="40.179950" lon="-5.108483">
        <ele>1445.0</ele>
        <time>2014-05-17T13:02:13Z</time>
      </trkpt>
      <trkpt lat="40.179900" lon="-5.108633">
        <ele>1443.0</ele>
        <time>2014-05-17T13:02:14Z</time>
      </trkpt>
      <trkpt lat="40.179833" lon="-5.108783">
        <ele>1441.0</ele>
        <time>2014-05-17T13:02:15Z</time>
      </trkpt>
      <trkpt lat="40.179800" lon="-5.108950">
        <ele>1440.0</ele>
        <time>2014-05-17T13:02:16Z</time>
      </trkpt>
      <trkpt lat="40.179750" lon="-5.109117">
        <ele>1438.0</ele>
        <time>2014-05-17T13:02:17Z</time>
      </trkpt>
      <trkpt lat="40.179717" lon="-5.109267">
        <ele>1437.0</ele>
        <time>2014-05-17T13:02:18Z</time>
      </trkpt>
      <trkpt lat="40.179683" lon="-5.109417">
        <ele>1436.0</ele>
        <time>2014-05-17T13:02:19Z</time>
      </trkpt>
      <trkpt lat="40.179650" lon="-5.109567">
        <ele>1434.0</ele>
        <time>2014-05-17T13:02:20Z</time>
      </trkpt>
      <trkpt lat="40.179617" lon="-5.109733">
        <ele>1431.0</ele>
        <time>2014-05-17T13:02:21Z</time>
      </trkpt>
      <trkpt lat="40.179600" lon="-5.109900">
        <ele>1429.0</ele>
        <time>2014-05-17T13:02:22Z</time>
      </trkpt>
      <trkpt lat="40.179567" lon="-5.110067">
        <ele>1426.0</ele>
        <time>2014-05-17T13:02:23Z</time>
      </trkpt>
      <trkpt lat="40.179550" lon="-5.110233">
        <ele>1424.0</ele>
        <time>2014-05-17T13:02:24Z</time>
      </trkpt>
      <trkpt lat="40.179533" lon="-5.110383">
        <ele>1422.0</ele>
        <time>2014-05-17T13:02:25Z</time>
      </trkpt>
      <trkpt lat="40.179500" lon="-5.110550">
        <ele>1420.0</ele>
        <time>2014-05-17T13:02:26Z</time>
      </trkpt>
      <trkpt lat="40.179483" lon="-5.110700">
        <ele>1418.0</ele>
        <time>2014-05-17T13:02:27Z</time>
      </trkpt>
      <trkpt lat="40.179467" lon="-5.110850">
        <ele>1416.0</ele>
        <time>2014-05-17T13:02:28Z</time>
      </trkpt>
      <trkpt lat="40.179450" lon="-5.111000">
        <ele>1414.0</ele>
        <time>2014-05-17T13:02:29Z</time>
      </trkpt>
      <trkpt lat="40.179450" lon="-5.111150">
        <ele>1412.0</ele>
        <time>2014-05-17T13:02:30Z</time>
      </trkpt>
      <trkpt lat="40.179433" lon="-5.111283">
        <ele>1411.0</ele>
        <time>2014-05-17T13:02:31Z</time>
      </trkpt>
      <trkpt lat="40.179417" lon="-5.111433">
        <ele>1409.0</ele>
        <time>2014-05-17T13:02:32Z</time>
      </trkpt>
      <trkpt lat="40.179400" lon="-5.111583">
        <ele>1407.0</ele>
        <time>2014-05-17T13:02:33Z</time>
      </trkpt>
      <trkpt lat="40.179383" lon="-5.111733">
        <ele>1406.0</ele>
        <time>2014-05-17T13:02:34Z</time>
      </trkpt>
      <trkpt lat="40.179350" lon="-5.111883">
        <ele>1405.0</ele>
        <time>2014-05-17T13:02:35Z</time>
      </trkpt>
      <trkpt lat="40.179317" lon="-5.112017">
        <ele>1403.0</ele>
        <time>2014-05-17T13:02:36Z</time>
      </trkpt>
      <trkpt lat="40.179300" lon="-5.112150">
        <ele>1401.0</ele>
        <time>2014-05-17T13:02:37Z</time>
      </trkpt>
      <trkpt lat="40.179267" lon="-5.112283">
        <ele>1398.0</ele>
        <time>2014-05-17T13:02:38Z</time>
      </trkpt>
      <trkpt lat="40.179250" lon="-5.112433">
        <ele>1394.0</ele>
        <time>2014-05-17T13:02:39Z</time>
      </trkpt>
      <trkpt lat="40.179233" lon="-5.112600">
        <ele>1390.0</ele>
        <time>2014-05-17T13:02:40Z</time>
      </trkpt>
      <trkpt lat="40.179217" lon="-5.112750">
        <ele>1386.0</ele>
        <time>2014-05-17T13:02:41Z</time>
      </trkpt>
      <trkpt lat="40.179167" lon="-5.112900">
        <ele>1383.0</ele>
        <time>2014-05-17T13:02:42Z</time>
      </trkpt>
      <trkpt lat="40.179133" lon="-5.113033">
        <ele>1381.0</ele>
        <time>2014-05-17T13:02:43Z</time>
      </trkpt>
      <trkpt lat="40.179100" lon="-5.113183">
        <ele>1378.0</ele>
        <time>2014-05-17T13:02:44Z</time>
      </trkpt>
      <trkpt lat="40.179083" lon="-5.113317">
        <ele>1376.0</ele>
        <time>2014-05-17T13:02:45Z</time>
      </trkpt>
      <trkpt lat="40.179050" lon="-5.113467">
        <ele>1373.0</ele>
        <time>2014-05-17T13:02:46Z</time>
      </trkpt>
      <trkpt lat="40.179017" lon="-5.113600">
        <ele>1371.0</ele>
        <time>2014-05-17T13:02:47Z</time>
      </trkpt>
      <trkpt lat="40.178983" lon="-5.113733">
        <ele>1369.0</ele>
        <time>2014-05-17T13:02:48Z</time>
      </trkpt>
      <trkpt lat="40.178950" lon="-5.113867">
        <ele>1367.0</ele>
        <time>2014-05-17T13:02:49Z</time>
      </trkpt>
      <trkpt lat="40.178883" lon="-5.113983">
        <ele>1365.0</ele>
        <time>2014-05-17T13:02:50Z</time>
      </trkpt>
      <trkpt lat="40.178817" lon="-5.114100">
        <ele>1363.0</ele>
        <time>2014-05-17T13:02:51Z</time>
      </trkpt>
      <trkpt lat="40.178750" lon="-5.114217">
        <ele>1360.0</ele>
        <time>2014-05-17T13:02:52Z</time>
      </trkpt>
      <trkpt lat="40.178667" lon="-5.114333">
        <ele>1358.0</ele>
        <time>2014-05-17T13:02:53Z</time>
      </trkpt>
      <trkpt lat="40.178600" lon="-5.114467">
        <ele>1356.0</ele>
        <time>2014-05-17T13:02:54Z</time>
      </trkpt>
      <trkpt lat="40.178533" lon="-5.114583">
        <ele>1355.0</ele>
        <time>2014-05-17T13:02:55Z</time>
      </trkpt>
      <trkpt lat="40.178467" lon="-5.114700">
        <ele>1353.0</ele>
        <time>2014-05-17T13:02:56Z</time>
      </trkpt>
      <trkpt lat="40.178400" lon="-5.114817">
        <ele>1351.0</ele>
        <time>2014-05-17T13:02:57Z</time>
      </trkpt>
      <trkpt lat="40.178333" lon="-5.114933">
        <ele>1348.0</ele>
        <time>2014-05-17T13:02:58Z</time>
      </trkpt>
      <trkpt lat="40.178200" lon="-5.115183">
        <ele>1344.0</ele>
        <time>2014-05-17T13:03:00Z</time>
      </trkpt>
      <trkpt lat="40.178150" lon="-5.115300">
        <ele>1341.0</ele>
        <time>2014-05-17T13:03:01Z</time>
      </trkpt>
      <trkpt lat="40.178050" lon="-5.115567">
        <ele>1337.0</ele>
        <time>2014-05-17T13:03:03Z</time>
      </trkpt>
      <trkpt lat="40.178000" lon="-5.115700">
        <ele>1335.0</ele>
        <time>2014-05-17T13:03:04Z</time>
      </trkpt>
      <trkpt lat="40.177950" lon="-5.115833">
        <ele>1332.0</ele>
        <time>2014-05-17T13:03:05Z</time>
      </trkpt>
      <trkpt lat="40.177900" lon="-5.115983">
        <ele>1329.0</ele>
        <time>2014-05-17T13:03:06Z</time>
      </trkpt>
      <trkpt lat="40.177867" lon="-5.116133">
        <ele>1327.0</ele>
        <time>2014-05-17T13:03:07Z</time>
      </trkpt>
      <trkpt lat="40.177817" lon="-5.116267">
        <ele>1324.0</ele>
        <time>2014-05-17T13:03:08Z</time>
      </trkpt>
      <trkpt lat="40.177767" lon="-5.116383">
        <ele>1323.0</ele>
        <time>2014-05-17T13:03:09Z</time>
      </trkpt>
      <trkpt lat="40.177733" lon="-5.116517">
        <ele>1321.0</ele>
        <time>2014-05-17T13:03:10Z</time>
      </trkpt>
      <trkpt lat="40.177683" lon="-5.116650">
        <ele>1318.0</ele>
        <time>2014-05-17T13:03:11Z</time>
      </trkpt>
      <trkpt lat="40.177633" lon="-5.116783">
        <ele>1315.0</ele>
        <time>2014-05-17T13:03:12Z</time>
      </trkpt>
      <trkpt lat="40.177550" lon="-5.117050">
        <ele>1309.0</ele>
        <time>2014-05-17T13:03:14Z</time>
      </trkpt>
      <trkpt lat="40.177500" lon="-5.117183">
        <ele>1307.0</ele>
        <time>2014-05-17T13:03:15Z</time>
      </trkpt>
      <trkpt lat="40.177450" lon="-5.117300">
        <ele>1304.0</ele>
        <time>2014-05-17T13:03:16Z</time>
      </trkpt>
      <trkpt lat="40.177417" lon="-5.117433">
        <ele>1301.0</ele>
        <time>2014-05-17T13:03:17Z</time>
      </trkpt>
      <trkpt lat="40.177383" lon="-5.117550">
        <ele>1298.0</ele>
        <time>2014-05-17T13:03:18Z</time>
      </trkpt>
      <trkpt lat="40.177350" lon="-5.117667">
        <ele>1296.0</ele>
        <time>2014-05-17T13:03:19Z</time>
      </trkpt>
      <trkpt lat="40.177300" lon="-5.117800">
        <ele>1293.0</ele>
        <time>2014-05-17T13:03:20Z</time>
      </trkpt>
      <trkpt lat="40.177267" lon="-5.117933">
        <ele>1289.0</ele>
        <time>2014-05-17T13:03:21Z</time>
      </trkpt>
      <trkpt lat="40.177233" lon="-5.118050">
        <ele>1286.0</ele>
        <time>2014-05-17T13:03:22Z</time>
      </trkpt>
      <trkpt lat="40.177200" lon="-5.118183">
        <ele>1284.0</ele>
        <time>2014-05-17T13:03:23Z</time>
      </trkpt>
      <trkpt lat="40.177167" lon="-5.118300">
        <ele>1280.0</ele>
        <time>2014-05-17T13:03:24Z</time>
      </trkpt>
      <trkpt lat="40.177150" lon="-5.118450">
        <ele>1276.0</ele>
        <time>2014-05-17T13:03:25Z</time>
      </trkpt>
      <trkpt lat="40.177117" lon="-5.118583">
        <ele>1272.0</ele>
        <time>2014-05-17T13:03:26Z</time>
      </trkpt>
      <trkpt lat="40.177083" lon="-5.118733">
        <ele>1269.0</ele>
        <time>2014-05-17T13:03:27Z</time>
      </trkpt>
      <trkpt lat="40.177050" lon="-5.118883">
        <ele>1266.0</ele>
        <time>2014-05-17T13:03:28Z</time>
      </trkpt>
      <trkpt lat="40.177000" lon="-5.119150">
        <ele>1260.0</ele>
        <time>2014-05-17T13:03:30Z</time>
      </trkpt>
      <trkpt lat="40.176967" lon="-5.119283">
        <ele>1258.0</ele>
        <time>2014-05-17T13:03:31Z</time>
      </trkpt>
      <trkpt lat="40.176933" lon="-5.119417">
        <ele>1254.0</ele>
        <time>2014-05-17T13:03:32Z</time>
      </trkpt>
      <trkpt lat="40.176900" lon="-5.119550">
        <ele>1250.0</ele>
        <time>2014-05-17T13:03:33Z</time>
      </trkpt>
      <trkpt lat="40.176850" lon="-5.119683">
        <ele>1247.0</ele>
        <time>2014-05-17T13:03:34Z</time>
      </trkpt>
      <trkpt lat="40.176800" lon="-5.119800">
        <ele>1244.0</ele>
        <time>2014-05-17T13:03:35Z</time>
      </trkpt>
      <trkpt lat="40.176733" lon="-5.119933">
        <ele>1241.0</ele>
        <time>2014-05-17T13:03:36Z</time>
      </trkpt>
      <trkpt lat="40.176617" lon="-5.120183">
        <ele>1235.0</ele>
        <time>2014-05-17T13:03:38Z</time>
      </trkpt>
      <trkpt lat="40.176550" lon="-5.120300">
        <ele>1232.0</ele>
        <time>2014-05-17T13:03:39Z</time>
      </trkpt>
      <trkpt lat="40.176500" lon="-5.120417">
        <ele>1229.0</ele>
        <time>2014-05-17T13:03:40Z</time>
      </trkpt>
      <trkpt lat="40.176433" lon="-5.120533">
        <ele>1226.0</ele>
        <time>2014-05-17T13:03:41Z</time>
      </trkpt>
      <trkpt lat="40.176383" lon="-5.120650">
        <ele>1223.0</ele>
        <time>2014-05-17T13:03:42Z</time>
      </trkpt>
      <trkpt lat="40.176317" lon="-5.120767">
        <ele>1219.0</ele>
        <time>2014-05-17T13:03:43Z</time>
      </trkpt>
      <trkpt lat="40.176250" lon="-5.120900">
        <ele>1215.0</ele>
        <time>2014-05-17T13:03:44Z</time>
      </trkpt>
      <trkpt lat="40.176183" lon="-5.121033">
        <ele>1211.0</ele>
        <time>2014-05-17T13:03:45Z</time>
      </trkpt>
      <trkpt lat="40.176117" lon="-5.121150">
        <ele>1208.0</ele>
        <time>2014-05-17T13:03:46Z</time>
      </trkpt>
      <trkpt lat="40.176050" lon="-5.121250">
        <ele>1205.0</ele>
        <time>2014-05-17T13:03:47Z</time>
      </trkpt>
      <trkpt lat="40.175983" lon="-5.121367">
        <ele>1202.0</ele>
        <time>2014-05-17T13:03:48Z</time>
      </trkpt>
      <trkpt lat="40.175917" lon="-5.121467">
        <ele>1199.0</ele>
        <time>2014-05-17T13:03:49Z</time>
      </trkpt>
      <trkpt lat="40.175850" lon="-5.121583">
        <ele>1195.0</ele>
        <time>2014-05-17T13:03:50Z</time>
      </trkpt>
      <trkpt lat="40.175767" lon="-5.121683">
        <ele>1192.0</ele>
        <time>2014-05-17T13:03:51Z</time>
      </trkpt>
      <trkpt lat="40.175683" lon="-5.121800">
        <ele>1189.0</ele>
        <time>2014-05-17T13:03:52Z</time>
      </trkpt>
      <trkpt lat="40.175617" lon="-5.121900">
        <ele>1186.0</ele>
        <time>2014-05-17T13:03:53Z</time>
      </trkpt>
      <trkpt lat="40.175550" lon="-5.121983">
        <ele>1184.0</ele>
        <time>2014-05-17T13:03:54Z</time>
      </trkpt>
      <trkpt lat="40.175500" lon="-5.122083">
        <ele>1181.0</ele>
        <time>2014-05-17T13:03:55Z</time>
      </trkpt>
      <trkpt lat="40.175433" lon="-5.122167">
        <ele>1178.0</ele>
        <time>2014-05-17T13:03:56Z</time>
      </trkpt>
      <trkpt lat="40.175383" lon="-5.122267">
        <ele>1175.0</ele>
        <time>2014-05-17T13:03:57Z</time>
      </trkpt>
      <trkpt lat="40.175317" lon="-5.122367">
        <ele>1171.0</ele>
        <time>2014-05-17T13:03:58Z</time>
      </trkpt>
      <trkpt lat="40.175250" lon="-5.122483">
        <ele>1168.0</ele>
        <time>2014-05-17T13:03:59Z</time>
      </trkpt>
      <trkpt lat="40.175183" lon="-5.122600">
        <ele>1165.0</ele>
        <time>2014-05-17T13:04:00Z</time>
      </trkpt>
      <trkpt lat="40.175117" lon="-5.122717">
        <ele>1162.0</ele>
        <time>2014-05-17T13:04:01Z</time>
      </trkpt>
      <trkpt lat="40.175067" lon="-5.122817">
        <ele>1160.0</ele>
        <time>2014-05-17T13:04:02Z</time>
      </trkpt>
      <trkpt lat="40.175000" lon="-5.122917">
        <ele>1158.0</ele>
        <time>2014-05-17T13:04:03Z</time>
      </trkpt>
      <trkpt lat="40.174933" lon="-5.123017">
        <ele>1155.0</ele>
        <time>2014-05-17T13:04:04Z</time>
      </trkpt>
      <trkpt lat="40.174850" lon="-5.123117">
        <ele>1152.0</ele>
        <time>2014-05-17T13:04:05Z</time>
      </trkpt>
      <trkpt lat="40.174783" lon="-5.123217">
        <ele>1150.0</ele>
        <time>2014-05-17T13:04:06Z</time>
      </trkpt>
      <trkpt lat="40.174700" lon="-5.123333">
        <ele>1148.0</ele>
        <time>2014-05-17T13:04:07Z</time>
      </trkpt>
      <trkpt lat="40.174633" lon="-5.123433">
        <ele>1147.0</ele>
        <time>2014-05-17T13:04:08Z</time>
      </trkpt>
      <trkpt lat="40.174567" lon="-5.123517">
        <ele>1145.0</ele>
        <time>2014-05-17T13:04:09Z</time>
      </trkpt>
      <trkpt lat="40.174483" lon="-5.123617">
        <ele>1144.0</ele>
        <time>2014-05-17T13:04:10Z</time>
      </trkpt>
      <trkpt lat="40.174417" lon="-5.123717">
        <ele>1142.0</ele>
        <time>2014-05-17T13:04:11Z</time>
      </trkpt>
      <trkpt lat="40.174333" lon="-5.123817">
        <ele>1140.0</ele>
        <time>2014-05-17T13:04:12Z</time>
      </trkpt>
      <trkpt lat="40.174183" lon="-5.124000">
        <ele>1136.0</ele>
        <time>2014-05-17T13:04:14Z</time>
      </trkpt>
      <trkpt lat="40.174100" lon="-5.124083">
        <ele>1134.0</ele>
        <time>2014-05-17T13:04:15Z</time>
      </trkpt>
      <trkpt lat="40.174017" lon="-5.124167">
        <ele>1132.0</ele>
        <time>2014-05-17T13:04:16Z</time>
      </trkpt>
      <trkpt lat="40.173950" lon="-5.124250">
        <ele>1130.0</ele>
        <time>2014-05-17T13:04:17Z</time>
      </trkpt>
      <trkpt lat="40.173867" lon="-5.124333">
        <ele>1128.0</ele>
        <time>2014-05-17T13:04:18Z</time>
      </trkpt>
      <trkpt lat="40.173800" lon="-5.124417">
        <ele>1126.0</ele>
        <time>2014-05-17T13:04:19Z</time>
      </trkpt>
      <trkpt lat="40.173717" lon="-5.124500">
        <ele>1124.0</ele>
        <time>2014-05-17T13:04:20Z</time>
      </trkpt>
      <trkpt lat="40.173650" lon="-5.124583">
        <ele>1121.0</ele>
        <time>2014-05-17T13:04:21Z</time>
      </trkpt>
      <trkpt lat="40.173583" lon="-5.124667">
        <ele>1119.0</ele>
        <time>2014-05-17T13:04:22Z</time>
      </trkpt>
      <trkpt lat="40.173500" lon="-5.124750">
        <ele>1118.0</ele>
        <time>2014-05-17T13:04:23Z</time>
      </trkpt>
      <trkpt lat="40.173433" lon="-5.124817">
        <ele>1115.0</ele>
        <time>2014-05-17T13:04:24Z</time>
      </trkpt>
      <trkpt lat="40.173350" lon="-5.124900">
        <ele>1113.0</ele>
        <time>2014-05-17T13:04:25Z</time>
      </trkpt>
      <trkpt lat="40.173283" lon="-5.124983">
        <ele>1110.0</ele>
        <time>2014-05-17T13:04:26Z</time>
      </trkpt>
      <trkpt lat="40.173217" lon="-5.125067">
        <ele>1108.0</ele>
        <time>2014-05-17T13:04:27Z</time>
      </trkpt>
      <trkpt lat="40.173133" lon="-5.125117">
        <ele>1105.0</ele>
        <time>2014-05-17T13:04:28Z</time>
      </trkpt>
      <trkpt lat="40.173067" lon="-5.125167">
        <ele>1103.0</ele>
        <time>2014-05-17T13:04:29Z</time>
      </trkpt>
      <trkpt lat="40.173000" lon="-5.125217">
        <ele>1101.0</ele>
        <time>2014-05-17T13:04:30Z</time>
      </trkpt>
      <trkpt lat="40.172933" lon="-5.125267">
        <ele>1098.0</ele>
        <time>2014-05-17T13:04:31Z</time>
      </trkpt>
      <trkpt lat="40.172783" lon="-5.125400">
        <ele>1094.0</ele>
        <time>2014-05-17T13:04:33Z</time>
      </trkpt>
      <trkpt lat="40.172717" lon="-5.125450">
        <ele>1091.0</ele>
        <time>2014-05-17T13:04:34Z</time>
      </trkpt>
      <trkpt lat="40.172633" lon="-5.125517">
        <ele>1089.0</ele>
        <time>2014-05-17T13:04:35Z</time>
      </trkpt>
      <trkpt lat="40.172567" lon="-5.125583">
        <ele>1087.0</ele>
        <time>2014-05-17T13:04:36Z</time>
      </trkpt>
      <trkpt lat="40.172500" lon="-5.125633">
        <ele>1086.0</ele>
        <time>2014-05-17T13:04:37Z</time>
      </trkpt>
      <trkpt lat="40.172433" lon="-5.125683">
        <ele>1084.0</ele>
        <time>2014-05-17T13:04:38Z</time>
      </trkpt>
      <trkpt lat="40.172383" lon="-5.125717">
        <ele>1082.0</ele>
        <time>2014-05-17T13:04:39Z</time>
      </trkpt>
      <trkpt lat="40.172300" lon="-5.125767">
        <ele>1080.0</ele>
        <time>2014-05-17T13:04:40Z</time>
      </trkpt>
      <trkpt lat="40.172233" lon="-5.125817">
        <ele>1077.0</ele>
        <time>2014-05-17T13:04:41Z</time>
      </trkpt>
      <trkpt lat="40.172150" lon="-5.125867">
        <ele>1074.0</ele>
        <time>2014-05-17T13:04:42Z</time>
      </trkpt>
      <trkpt lat="40.172083" lon="-5.125917">
        <ele>1072.0</ele>
        <time>2014-05-17T13:04:43Z</time>
      </trkpt>
      <trkpt lat="40.172017" lon="-5.125967">
        <ele>1071.0</ele>
        <time>2014-05-17T13:04:44Z</time>
      </trkpt>
      <trkpt lat="40.171950" lon="-5.126017">
        <ele>1070.0</ele>
        <time>2014-05-17T13:04:45Z</time>
      </trkpt>
      <trkpt lat="40.171883" lon="-5.126050">
        <ele>1068.0</ele>
        <time>2014-05-17T13:04:46Z</time>
      </trkpt>
      <trkpt lat="40.171817" lon="-5.126083">
        <ele>1066.0</ele>
        <time>2014-05-17T13:04:47Z</time>
      </trkpt>
      <trkpt lat="40.171750" lon="-5.126117">
        <ele>1063.0</ele>
        <time>2014-05-17T13:04:48Z</time>
      </trkpt>
      <trkpt lat="40.171683" lon="-5.126133">
        <ele>1061.0</ele>
        <time>2014-05-17T13:04:49Z</time>
      </trkpt>
      <trkpt lat="40.171617" lon="-5.126150">
        <ele>1060.0</ele>
        <time>2014-05-17T13:04:50Z</time>
      </trkpt>
      <trkpt lat="40.171550" lon="-5.126167">
        <ele>1058.0</ele>
        <time>2014-05-17T13:04:51Z</time>
      </trkpt>
      <trkpt lat="40.171467" lon="-5.126200">
        <ele>1056.0</ele>
        <time>2014-05-17T13:04:52Z</time>
      </trkpt>
      <trkpt lat="40.171383" lon="-5.126233">
        <ele>1054.0</ele>
        <time>2014-05-17T13:04:53Z</time>
      </trkpt>
      <trkpt lat="40.171300" lon="-5.126267">
        <ele>1052.0</ele>
        <time>2014-05-17T13:04:54Z</time>
      </trkpt>
      <trkpt lat="40.171233" lon="-5.126300">
        <ele>1050.0</ele>
        <time>2014-05-17T13:04:55Z</time>
      </trkpt>
      <trkpt lat="40.171150" lon="-5.126333">
        <ele>1049.0</ele>
        <time>2014-05-17T13:04:56Z</time>
      </trkpt>
      <trkpt lat="40.171083" lon="-5.126367">
        <ele>1048.0</ele>
        <time>2014-05-17T13:04:57Z</time>
      </trkpt>
      <trkpt lat="40.171017" lon="-5.126383">
        <ele>1047.0</ele>
        <time>2014-05-17T13:04:58Z</time>
      </trkpt>
      <trkpt lat="40.170950" lon="-5.126400">
        <ele>1045.0</ele>
        <time>2014-05-17T13:04:59Z</time>
      </trkpt>
      <trkpt lat="40.170867" lon="-5.126433">
        <ele>1044.0</ele>
        <time>2014-05-17T13:05:00Z</time>
      </trkpt>
      <trkpt lat="40.170783" lon="-5.126467">
        <ele>1043.0</ele>
        <time>2014-05-17T13:05:01Z</time>
      </trkpt>
      <trkpt lat="40.170700" lon="-5.126483">
        <ele>1041.0</ele>
        <time>2014-05-17T13:05:02Z</time>
      </trkpt>
      <trkpt lat="40.170633" lon="-5.126517">
        <ele>1041.0</ele>
        <time>2014-05-17T13:05:03Z</time>
      </trkpt>
      <trkpt lat="40.170550" lon="-5.126550">
        <ele>1039.0</ele>
        <time>2014-05-17T13:05:04Z</time>
      </trkpt>
      <trkpt lat="40.170483" lon="-5.126600">
        <ele>1038.0</ele>
        <time>2014-05-17T13:05:05Z</time>
      </trkpt>
      <trkpt lat="40.170383" lon="-5.126650">
        <ele>1037.0</ele>
        <time>2014-05-17T13:05:06Z</time>
      </trkpt>
      <trkpt lat="40.170300" lon="-5.126700">
        <ele>1036.0</ele>
        <time>2014-05-17T13:05:07Z</time>
      </trkpt>
      <trkpt lat="40.170217" lon="-5.126750">
        <ele>1035.0</ele>
        <time>2014-05-17T13:05:08Z</time>
      </trkpt>
      <trkpt lat="40.170133" lon="-5.126800">
        <ele>1034.0</ele>
        <time>2014-05-17T13:05:09Z</time>
      </trkpt>
      <trkpt lat="40.170050" lon="-5.126867">
        <ele>1033.0</ele>
        <time>2014-05-17T13:05:10Z</time>
      </trkpt>
      <trkpt lat="40.169950" lon="-5.126917">
        <ele>1033.0</ele>
        <time>2014-05-17T13:05:11Z</time>
      </trkpt>
      <trkpt lat="40.169867" lon="-5.126967">
        <ele>1032.0</ele>
        <time>2014-05-17T13:05:12Z</time>
      </trkpt>
      <trkpt lat="40.169783" lon="-5.127033">
        <ele>1031.0</ele>
        <time>2014-05-17T13:05:13Z</time>
      </trkpt>
      <trkpt lat="40.169700" lon="-5.127083">
        <ele>1030.0</ele>
        <time>2014-05-17T13:05:14Z</time>
      </trkpt>
      <trkpt lat="40.169617" lon="-5.127133">
        <ele>1029.0</ele>
        <time>2014-05-17T13:05:15Z</time>
      </trkpt>
      <trkpt lat="40.169533" lon="-5.127183">
        <ele>1027.0</ele>
        <time>2014-05-17T13:05:16Z</time>
      </trkpt>
      <trkpt lat="40.169433" lon="-5.127233">
        <ele>1024.0</ele>
        <time>2014-05-17T13:05:17Z</time>
      </trkpt>
      <trkpt lat="40.169333" lon="-5.127283">
        <ele>1022.0</ele>
        <time>2014-05-17T13:05:18Z</time>
      </trkpt>
      <trkpt lat="40.169233" lon="-5.127333">
        <ele>1020.0</ele>
        <time>2014-05-17T13:05:19Z</time>
      </trkpt>
      <trkpt lat="40.169150" lon="-5.127383">
        <ele>1018.0</ele>
        <time>2014-05-17T13:05:20Z</time>
      </trkpt>
      <trkpt lat="40.169067" lon="-5.127417">
        <ele>1017.0</ele>
        <time>2014-05-17T13:05:21Z</time>
      </trkpt>
      <trkpt lat="40.168983" lon="-5.127467">
        <ele>1015.0</ele>
        <time>2014-05-17T13:05:22Z</time>
      </trkpt>
      <trkpt lat="40.168900" lon="-5.127533">
        <ele>1012.0</ele>
        <time>2014-05-17T13:05:23Z</time>
      </trkpt>
      <trkpt lat="40.168817" lon="-5.127600">
        <ele>1010.0</ele>
        <time>2014-05-17T13:05:24Z</time>
      </trkpt>
      <trkpt lat="40.168717" lon="-5.127667">
        <ele>1008.0</ele>
        <time>2014-05-17T13:05:25Z</time>
      </trkpt>
      <trkpt lat="40.168633" lon="-5.127733">
        <ele>1006.0</ele>
        <time>2014-05-17T13:05:26Z</time>
      </trkpt>
      <trkpt lat="40.168533" lon="-5.127800">
        <ele>1004.0</ele>
        <time>2014-05-17T13:05:27Z</time>
      </trkpt>
      <trkpt lat="40.168450" lon="-5.127883">
        <ele>1002.0</ele>
        <time>2014-05-17T13:05:28Z</time>
      </trkpt>
      <trkpt lat="40.168367" lon="-5.127967">
        <ele>1000.0</ele>
        <time>2014-05-17T13:05:29Z</time>
      </trkpt>
      <trkpt lat="40.168283" lon="-5.128050">
        <ele>998.0</ele>
        <time>2014-05-17T13:05:30Z</time>
      </trkpt>
      <trkpt lat="40.168183" lon="-5.128133">
        <ele>996.0</ele>
        <time>2014-05-17T13:05:31Z</time>
      </trkpt>
      <trkpt lat="40.168100" lon="-5.128217">
        <ele>993.0</ele>
        <time>2014-05-17T13:05:32Z</time>
      </trkpt>
      <trkpt lat="40.168017" lon="-5.128300">
        <ele>991.0</ele>
        <time>2014-05-17T13:05:33Z</time>
      </trkpt>
      <trkpt lat="40.167917" lon="-5.128383">
        <ele>989.0</ele>
        <time>2014-05-17T13:05:34Z</time>
      </trkpt>
      <trkpt lat="40.167833" lon="-5.128467">
        <ele>987.0</ele>
        <time>2014-05-17T13:05:35Z</time>
      </trkpt>
      <trkpt lat="40.167667" lon="-5.128667">
        <ele>983.0</ele>
        <time>2014-05-17T13:05:37Z</time>
      </trkpt>
      <trkpt lat="40.167567" lon="-5.128750">
        <ele>980.0</ele>
        <time>2014-05-17T13:05:38Z</time>
      </trkpt>
      <trkpt lat="40.167483" lon="-5.128833">
        <ele>978.0</ele>
        <time>2014-05-17T13:05:39Z</time>
      </trkpt>
      <trkpt lat="40.167383" lon="-5.128917">
        <ele>976.0</ele>
        <time>2014-05-17T13:05:40Z</time>
      </trkpt>
      <trkpt lat="40.167233" lon="-5.129083">
        <ele>973.0</ele>
        <time>2014-05-17T13:05:42Z</time>
      </trkpt>
      <trkpt lat="40.167150" lon="-5.129167">
        <ele>971.0</ele>
        <time>2014-05-17T13:05:43Z</time>
      </trkpt>
      <trkpt lat="40.167083" lon="-5.129267">
        <ele>969.0</ele>
        <time>2014-05-17T13:05:44Z</time>
      </trkpt>
      <trkpt lat="40.167000" lon="-5.129350">
        <ele>967.0</ele>
        <time>2014-05-17T13:05:45Z</time>
      </trkpt>
      <trkpt lat="40.166917" lon="-5.129433">
        <ele>965.0</ele>
        <time>2014-05-17T13:05:46Z</time>
      </trkpt>
      <trkpt lat="40.166850" lon="-5.129517">
        <ele>963.0</ele>
        <time>2014-05-17T13:05:47Z</time>
      </trkpt>
      <trkpt lat="40.166783" lon="-5.129583">
        <ele>962.0</ele>
        <time>2014-05-17T13:05:48Z</time>
      </trkpt>
      <trkpt lat="40.166717" lon="-5.129650">
        <ele>960.0</ele>
        <time>2014-05-17T13:05:49Z</time>
      </trkpt>
      <trkpt lat="40.166633" lon="-5.129733">
        <ele>958.0</ele>
        <time>2014-05-17T13:05:50Z</time>
      </trkpt>
      <trkpt lat="40.166567" lon="-5.129817">
        <ele>956.0</ele>
        <time>2014-05-17T13:05:51Z</time>
      </trkpt>
      <trkpt lat="40.166500" lon="-5.129900">
        <ele>954.0</ele>
        <time>2014-05-17T13:05:52Z</time>
      </trkpt>
      <trkpt lat="40.166383" lon="-5.130083">
        <ele>951.0</ele>
        <time>2014-05-17T13:05:54Z</time>
      </trkpt>
      <trkpt lat="40.166317" lon="-5.130183">
        <ele>950.0</ele>
        <time>2014-05-17T13:05:55Z</time>
      </trkpt>
      <trkpt lat="40.166267" lon="-5.130300">
        <ele>948.0</ele>
        <time>2014-05-17T13:05:56Z</time>
      </trkpt>
      <trkpt lat="40.166217" lon="-5.130400">
        <ele>946.0</ele>
        <time>2014-05-17T13:05:57Z</time>
      </trkpt>
      <trkpt lat="40.166150" lon="-5.130517">
        <ele>944.0</ele>
        <time>2014-05-17T13:05:58Z</time>
      </trkpt>
      <trkpt lat="40.166100" lon="-5.130633">
        <ele>942.0</ele>
        <time>2014-05-17T13:05:59Z</time>
      </trkpt>
      <trkpt lat="40.166033" lon="-5.130733">
        <ele>940.0</ele>
        <time>2014-05-17T13:06:00Z</time>
      </trkpt>
      <trkpt lat="40.165967" lon="-5.130833">
        <ele>939.0</ele>
        <time>2014-05-17T13:06:01Z</time>
      </trkpt>
      <trkpt lat="40.165917" lon="-5.130917">
        <ele>938.0</ele>
        <time>2014-05-17T13:06:02Z</time>
      </trkpt>
      <trkpt lat="40.165850" lon="-5.131017">
        <ele>936.0</ele>
        <time>2014-05-17T13:06:03Z</time>
      </trkpt>
      <trkpt lat="40.165800" lon="-5.131117">
        <ele>934.0</ele>
        <time>2014-05-17T13:06:04Z</time>
      </trkpt>
      <trkpt lat="40.165733" lon="-5.131217">
        <ele>932.0</ele>
        <time>2014-05-17T13:06:05Z</time>
      </trkpt>
      <trkpt lat="40.165667" lon="-5.131333">
        <ele>930.0</ele>
        <time>2014-05-17T13:06:06Z</time>
      </trkpt>
      <trkpt lat="40.165600" lon="-5.131433">
        <ele>928.0</ele>
        <time>2014-05-17T13:06:07Z</time>
      </trkpt>
      <trkpt lat="40.165533" lon="-5.131517">
        <ele>926.0</ele>
        <time>2014-05-17T13:06:08Z</time>
      </trkpt>
      <trkpt lat="40.165467" lon="-5.131617">
        <ele>925.0</ele>
        <time>2014-05-17T13:06:09Z</time>
      </trkpt>
      <trkpt lat="40.165350" lon="-5.131800">
        <ele>921.0</ele>
        <time>2014-05-17T13:06:11Z</time>
      </trkpt>
      <trkpt lat="40.165283" lon="-5.131900">
        <ele>919.0</ele>
        <time>2014-05-17T13:06:12Z</time>
      </trkpt>
      <trkpt lat="40.165233" lon="-5.132000">
        <ele>918.0</ele>
        <time>2014-05-17T13:06:13Z</time>
      </trkpt>
      <trkpt lat="40.165183" lon="-5.132100">
        <ele>916.0</ele>
        <time>2014-05-17T13:06:14Z</time>
      </trkpt>
      <trkpt lat="40.165133" lon="-5.132217">
        <ele>915.0</ele>
        <time>2014-05-17T13:06:15Z</time>
      </trkpt>
      <trkpt lat="40.165067" lon="-5.132333">
        <ele>913.0</ele>
        <time>2014-05-17T13:06:16Z</time>
      </trkpt>
      <trkpt lat="40.165017" lon="-5.132450">
        <ele>913.0</ele>
        <time>2014-05-17T13:06:17Z</time>
      </trkpt>
      <trkpt lat="40.164967" lon="-5.132550">
        <ele>912.0</ele>
        <time>2014-05-17T13:06:18Z</time>
      </trkpt>
      <trkpt lat="40.164917" lon="-5.132667">
        <ele>911.0</ele>
        <time>2014-05-17T13:06:19Z</time>
      </trkpt>
      <trkpt lat="40.164867" lon="-5.132783">
        <ele>911.0</ele>
        <time>2014-05-17T13:06:20Z</time>
      </trkpt>
      <trkpt lat="40.164800" lon="-5.132917">
        <ele>910.0</ele>
        <time>2014-05-17T13:06:21Z</time>
      </trkpt>
      <trkpt lat="40.164750" lon="-5.133033">
        <ele>909.0</ele>
        <time>2014-05-17T13:06:22Z</time>
      </trkpt>
      <trkpt lat="40.164700" lon="-5.133133">
        <ele>908.0</ele>
        <time>2014-05-17T13:06:23Z</time>
      </trkpt>
      <trkpt lat="40.164633" lon="-5.133217">
        <ele>908.0</ele>
        <time>2014-05-17T13:06:24Z</time>
      </trkpt>
      <trkpt lat="40.164583" lon="-5.133317">
        <ele>908.0</ele>
        <time>2014-05-17T13:06:25Z</time>
      </trkpt>
      <trkpt lat="40.164517" lon="-5.133400">
        <ele>907.0</ele>
        <time>2014-05-17T13:06:26Z</time>
      </trkpt>
      <trkpt lat="40.164467" lon="-5.133500">
        <ele>907.0</ele>
        <time>2014-05-17T13:06:27Z</time>
      </trkpt>
      <trkpt lat="40.164400" lon="-5.133583">
        <ele>907.0</ele>
        <time>2014-05-17T13:06:28Z</time>
      </trkpt>
      <trkpt lat="40.164333" lon="-5.133650">
        <ele>908.0</ele>
        <time>2014-05-17T13:06:29Z</time>
      </trkpt>
      <trkpt lat="40.164283" lon="-5.133733">
        <ele>908.0</ele>
        <time>2014-05-17T13:06:30Z</time>
      </trkpt>
      <trkpt lat="40.164217" lon="-5.133800">
        <ele>907.0</ele>
        <time>2014-05-17T13:06:31Z</time>
      </trkpt>
      <trkpt lat="40.164150" lon="-5.133867">
        <ele>907.0</ele>
        <time>2014-05-17T13:06:32Z</time>
      </trkpt>
      <trkpt lat="40.164083" lon="-5.133933">
        <ele>906.0</ele>
        <time>2014-05-17T13:06:33Z</time>
      </trkpt>
      <trkpt lat="40.164000" lon="-5.134017">
        <ele>905.0</ele>
        <time>2014-05-17T13:06:34Z</time>
      </trkpt>
      <trkpt lat="40.163917" lon="-5.134100">
        <ele>904.0</ele>
        <time>2014-05-17T13:06:35Z</time>
      </trkpt>
      <trkpt lat="40.163850" lon="-5.134183">
        <ele>903.0</ele>
        <time>2014-05-17T13:06:36Z</time>
      </trkpt>
      <trkpt lat="40.163783" lon="-5.134283">
        <ele>902.0</ele>
        <time>2014-05-17T13:06:37Z</time>
      </trkpt>
      <trkpt lat="40.163733" lon="-5.134383">
        <ele>901.0</ele>
        <time>2014-05-17T13:06:38Z</time>
      </trkpt>
      <trkpt lat="40.163667" lon="-5.134483">
        <ele>900.0</ele>
        <time>2014-05-17T13:06:39Z</time>
      </trkpt>
      <trkpt lat="40.163617" lon="-5.134583">
        <ele>899.0</ele>
        <time>2014-05-17T13:06:40Z</time>
      </trkpt>
      <trkpt lat="40.163550" lon="-5.134683">
        <ele>897.0</ele>
        <time>2014-05-17T13:06:41Z</time>
      </trkpt>
      <trkpt lat="40.163483" lon="-5.134800">
        <ele>895.0</ele>
        <time>2014-05-17T13:06:42Z</time>
      </trkpt>
      <trkpt lat="40.163433" lon="-5.134900">
        <ele>894.0</ele>
        <time>2014-05-17T13:06:43Z</time>
      </trkpt>
      <trkpt lat="40.163367" lon="-5.135000">
        <ele>892.0</ele>
        <time>2014-05-17T13:06:44Z</time>
      </trkpt>
      <trkpt lat="40.163300" lon="-5.135117">
        <ele>890.0</ele>
        <time>2014-05-17T13:06:45Z</time>
      </trkpt>
      <trkpt lat="40.163250" lon="-5.135217">
        <ele>889.0</ele>
        <time>2014-05-17T13:06:46Z</time>
      </trkpt>
      <trkpt lat="40.163183" lon="-5.135333">
        <ele>887.0</ele>
        <time>2014-05-17T13:06:47Z</time>
      </trkpt>
      <trkpt lat="40.163117" lon="-5.135450">
        <ele>886.0</ele>
        <time>2014-05-17T13:06:48Z</time>
      </trkpt>
      <trkpt lat="40.163067" lon="-5.135567">
        <ele>884.0</ele>
        <time>2014-05-17T13:06:49Z</time>
      </trkpt>
      <trkpt lat="40.163017" lon="-5.135683">
        <ele>882.0</ele>
        <time>2014-05-17T13:06:50Z</time>
      </trkpt>
      <trkpt lat="40.162950" lon="-5.135800">
        <ele>880.0</ele>
        <time>2014-05-17T13:06:51Z</time>
      </trkpt>
      <trkpt lat="40.162883" lon="-5.135900">
        <ele>878.0</ele>
        <time>2014-05-17T13:06:52Z</time>
      </trkpt>
      <trkpt lat="40.162817" lon="-5.136000">
        <ele>876.0</ele>
        <time>2014-05-17T13:06:53Z</time>
      </trkpt>
      <trkpt lat="40.162767" lon="-5.136117">
        <ele>874.0</ele>
        <time>2014-05-17T13:06:54Z</time>
      </trkpt>
      <trkpt lat="40.162700" lon="-5.136233">
        <ele>872.0</ele>
        <time>2014-05-17T13:06:55Z</time>
      </trkpt>
      <trkpt lat="40.162650" lon="-5.136350">
        <ele>870.0</ele>
        <time>2014-05-17T13:06:56Z</time>
      </trkpt>
      <trkpt lat="40.162617" lon="-5.136467">
        <ele>868.0</ele>
        <time>2014-05-17T13:06:57Z</time>
      </trkpt>
      <trkpt lat="40.162550" lon="-5.136583">
        <ele>866.0</ele>
        <time>2014-05-17T13:06:58Z</time>
      </trkpt>
      <trkpt lat="40.162500" lon="-5.136717">
        <ele>863.0</ele>
        <time>2014-05-17T13:06:59Z</time>
      </trkpt>
      <trkpt lat="40.162450" lon="-5.136833">
        <ele>861.0</ele>
        <time>2014-05-17T13:07:00Z</time>
      </trkpt>
      <trkpt lat="40.162400" lon="-5.136967">
        <ele>859.0</ele>
        <time>2014-05-17T13:07:01Z</time>
      </trkpt>
      <trkpt lat="40.162350" lon="-5.137083">
        <ele>857.0</ele>
        <time>2014-05-17T13:07:02Z</time>
      </trkpt>
      <trkpt lat="40.162283" lon="-5.137217">
        <ele>855.0</ele>
        <time>2014-05-17T13:07:03Z</time>
      </trkpt>
      <trkpt lat="40.162233" lon="-5.137333">
        <ele>854.0</ele>
        <time>2014-05-17T13:07:04Z</time>
      </trkpt>
      <trkpt lat="40.162200" lon="-5.137467">
        <ele>852.0</ele>
        <time>2014-05-17T13:07:05Z</time>
      </trkpt>
      <trkpt lat="40.162167" lon="-5.137583">
        <ele>851.0</ele>
        <time>2014-05-17T13:07:06Z</time>
      </trkpt>
      <trkpt lat="40.162133" lon="-5.137700">
        <ele>850.0</ele>
        <time>2014-05-17T13:07:07Z</time>
      </trkpt>
      <trkpt lat="40.162100" lon="-5.137817">
        <ele>848.0</ele>
        <time>2014-05-17T13:07:08Z</time>
      </trkpt>
      <trkpt lat="40.162067" lon="-5.137950">
        <ele>845.0</ele>
        <time>2014-05-17T13:07:09Z</time>
      </trkpt>
      <trkpt lat="40.162017" lon="-5.138083">
        <ele>843.0</ele>
        <time>2014-05-17T13:07:10Z</time>
      </trkpt>
      <trkpt lat="40.161983" lon="-5.138200">
        <ele>842.0</ele>
        <time>2014-05-17T13:07:11Z</time>
      </trkpt>
      <trkpt lat="40.161950" lon="-5.138333">
        <ele>840.0</ele>
        <time>2014-05-17T13:07:12Z</time>
      </trkpt>
      <trkpt lat="40.161917" lon="-5.138483">
        <ele>839.0</ele>
        <time>2014-05-17T13:07:13Z</time>
      </trkpt>
      <trkpt lat="40.161867" lon="-5.138633">
        <ele>837.0</ele>
        <time>2014-05-17T13:07:14Z</time>
      </trkpt>
      <trkpt lat="40.161817" lon="-5.138767">
        <ele>836.0</ele>
        <time>2014-05-17T13:07:15Z</time>
      </trkpt>
      <trkpt lat="40.161767" lon="-5.138917">
        <ele>835.0</ele>
        <time>2014-05-17T13:07:16Z</time>
      </trkpt>
      <trkpt lat="40.161717" lon="-5.139033">
        <ele>836.0</ele>
        <time>2014-05-17T13:07:17Z</time>
      </trkpt>
      <trkpt lat="40.161667" lon="-5.139167">
        <ele>836.0</ele>
        <time>2014-05-17T13:07:18Z</time>
      </trkpt>
      <trkpt lat="40.161617" lon="-5.139300">
        <ele>836.0</ele>
        <time>2014-05-17T13:07:19Z</time>
      </trkpt>
      <trkpt lat="40.161600" lon="-5.139450">
        <ele>836.0</ele>
        <time>2014-05-17T13:07:20Z</time>
      </trkpt>
      <trkpt lat="40.161583" lon="-5.139600">
        <ele>836.0</ele>
        <time>2014-05-17T13:07:21Z</time>
      </trkpt>
      <trkpt lat="40.161617" lon="-5.139767">
        <ele>835.0</ele>
        <time>2014-05-17T13:07:22Z</time>
      </trkpt>
      <trkpt lat="40.161650" lon="-5.139917">
        <ele>836.0</ele>
        <time>2014-05-17T13:07:23Z</time>
      </trkpt>
      <trkpt lat="40.161683" lon="-5.140050">
        <ele>837.0</ele>
        <time>2014-05-17T13:07:24Z</time>
      </trkpt>
      <trkpt lat="40.161750" lon="-5.140167">
        <ele>839.0</ele>
        <time>2014-05-17T13:07:25Z</time>
      </trkpt>
      <trkpt lat="40.161817" lon="-5.140250">
        <ele>840.0</ele>
        <time>2014-05-17T13:07:26Z</time>
      </trkpt>
      <trkpt lat="40.161883" lon="-5.140317">
        <ele>841.0</ele>
        <time>2014-05-17T13:07:27Z</time>
      </trkpt>
      <trkpt lat="40.161967" lon="-5.140350">
        <ele>841.0</ele>
        <time>2014-05-17T13:07:28Z</time>
      </trkpt>
      <trkpt lat="40.162033" lon="-5.140367">
        <ele>842.0</ele>
        <time>2014-05-17T13:07:29Z</time>
      </trkpt>
      <trkpt lat="40.162100" lon="-5.140350">
        <ele>842.0</ele>
        <time>2014-05-17T13:07:30Z</time>
      </trkpt>
      <trkpt lat="40.162133" lon="-5.140333">
        <ele>844.0</ele>
        <time>2014-05-17T13:07:31Z</time>
      </trkpt>
      <trkpt lat="40.162167" lon="-5.140317">
        <ele>845.0</ele>
        <time>2014-05-17T13:07:32Z</time>
      </trkpt>
      <trkpt lat="40.162183" lon="-5.140283">
        <ele>846.0</ele>
        <time>2014-05-17T13:07:33Z</time>
      </trkpt>
      <trkpt lat="40.162200" lon="-5.140250">
        <ele>847.0</ele>
        <time>2014-05-17T13:07:34Z</time>
      </trkpt>
      <trkpt lat="40.162200" lon="-5.140150">
        <ele>849.0</ele>
        <time>2014-05-17T13:07:36Z</time>
      </trkpt>
      <trkpt lat="40.162183" lon="-5.140100">
        <ele>850.0</ele>
        <time>2014-05-17T13:07:37Z</time>
      </trkpt>
      <trkpt lat="40.162150" lon="-5.140050">
        <ele>850.0</ele>
        <time>2014-05-17T13:07:38Z</time>
      </trkpt>
      <trkpt lat="40.162100" lon="-5.140017">
        <ele>851.0</ele>
        <time>2014-05-17T13:07:39Z</time>
      </trkpt>
      <trkpt lat="40.162050" lon="-5.140017">
        <ele>852.0</ele>
        <time>2014-05-17T13:07:40Z</time>
      </trkpt>
      <trkpt lat="40.161983" lon="-5.140017">
        <ele>853.0</ele>
        <time>2014-05-17T13:07:41Z</time>
      </trkpt>
      <trkpt lat="40.161917" lon="-5.140050">
        <ele>853.0</ele>
        <time>2014-05-17T13:07:42Z</time>
      </trkpt>
      <trkpt lat="40.161850" lon="-5.140067">
        <ele>853.0</ele>
        <time>2014-05-17T13:07:43Z</time>
      </trkpt>
      <trkpt lat="40.161783" lon="-5.140117">
        <ele>853.0</ele>
        <time>2014-05-17T13:07:44Z</time>
      </trkpt>
      <trkpt lat="40.161717" lon="-5.140167">
        <ele>853.0</ele>
        <time>2014-05-17T13:07:45Z</time>
      </trkpt>
      <trkpt lat="40.161633" lon="-5.140200">
        <ele>852.0</ele>
        <time>2014-05-17T13:07:46Z</time>
      </trkpt>
      <trkpt lat="40.161550" lon="-5.140217">
        <ele>852.0</ele>
        <time>2014-05-17T13:07:47Z</time>
      </trkpt>
      <trkpt lat="40.161483" lon="-5.140233">
        <ele>852.0</ele>
        <time>2014-05-17T13:07:48Z</time>
      </trkpt>
      <trkpt lat="40.161417" lon="-5.140233">
        <ele>852.0</ele>
        <time>2014-05-17T13:07:49Z</time>
      </trkpt>
      <trkpt lat="40.161333" lon="-5.140233">
        <ele>852.0</ele>
        <time>2014-05-17T13:07:50Z</time>
      </trkpt>
      <trkpt lat="40.161267" lon="-5.140250">
        <ele>853.0</ele>
        <time>2014-05-17T13:07:51Z</time>
      </trkpt>
      <trkpt lat="40.161183" lon="-5.140250">
        <ele>854.0</ele>
        <time>2014-05-17T13:07:52Z</time>
      </trkpt>
      <trkpt lat="40.161117" lon="-5.140250">
        <ele>856.0</ele>
        <time>2014-05-17T13:07:53Z</time>
      </trkpt>
      <trkpt lat="40.161050" lon="-5.140233">
        <ele>856.0</ele>
        <time>2014-05-17T13:07:54Z</time>
      </trkpt>
      <trkpt lat="40.160983" lon="-5.140183">
        <ele>858.0</ele>
        <time>2014-05-17T13:07:55Z</time>
      </trkpt>
      <trkpt lat="40.160950" lon="-5.140133">
        <ele>858.0</ele>
        <time>2014-05-17T13:07:56Z</time>
      </trkpt>
      <trkpt lat="40.161167" lon="-5.139983">
        <ele>861.0</ele>
        <time>2014-05-17T13:08:01Z</time>
      </trkpt>
      <trkpt lat="40.161250" lon="-5.140017">
        <ele>860.0</ele>
        <time>2014-05-17T13:08:02Z</time>
      </trkpt>
      <trkpt lat="40.161333" lon="-5.140083">
        <ele>860.0</ele>
        <time>2014-05-17T13:08:03Z</time>
      </trkpt>
      <trkpt lat="40.161400" lon="-5.140183">
        <ele>858.0</ele>
        <time>2014-05-17T13:08:04Z</time>
      </trkpt>
      <trkpt lat="40.161450" lon="-5.140300">
        <ele>857.0</ele>
        <time>2014-05-17T13:08:05Z</time>
      </trkpt>
      <trkpt lat="40.161500" lon="-5.140450">
        <ele>855.0</ele>
        <time>2014-05-17T13:08:06Z</time>
      </trkpt>
      <trkpt lat="40.161550" lon="-5.140600">
        <ele>854.0</ele>
        <time>2014-05-17T13:08:07Z</time>
      </trkpt>
      <trkpt lat="40.161583" lon="-5.140750">
        <ele>854.0</ele>
        <time>2014-05-17T13:08:08Z</time>
      </trkpt>
      <trkpt lat="40.161600" lon="-5.140883">
        <ele>855.0</ele>
        <time>2014-05-17T13:08:09Z</time>
      </trkpt>
      <trkpt lat="40.161567" lon="-5.141033">
        <ele>855.0</ele>
        <time>2014-05-17T13:08:10Z</time>
      </trkpt>
      <trkpt lat="40.161517" lon="-5.141150">
        <ele>854.0</ele>
        <time>2014-05-17T13:08:11Z</time>
      </trkpt>
      <trkpt lat="40.161450" lon="-5.141283">
        <ele>854.0</ele>
        <time>2014-05-17T13:08:12Z</time>
      </trkpt>
      <trkpt lat="40.161383" lon="-5.141383">
        <ele>854.0</ele>
        <time>2014-05-17T13:08:13Z</time>
      </trkpt>
      <trkpt lat="40.161300" lon="-5.141450">
        <ele>855.0</ele>
        <time>2014-05-17T13:08:14Z</time>
      </trkpt>
      <trkpt lat="40.161233" lon="-5.141500">
        <ele>858.0</ele>
        <time>2014-05-17T13:08:15Z</time>
      </trkpt>
      <trkpt lat="40.161167" lon="-5.141517">
        <ele>859.0</ele>
        <time>2014-05-17T13:08:16Z</time>
      </trkpt>
      <trkpt lat="40.161083" lon="-5.141517">
        <ele>861.0</ele>
        <time>2014-05-17T13:08:17Z</time>
      </trkpt>
      <trkpt lat="40.161017" lon="-5.141517">
        <ele>863.0</ele>
        <time>2014-05-17T13:08:18Z</time>
      </trkpt>
      <trkpt lat="40.160950" lon="-5.141500">
        <ele>865.0</ele>
        <time>2014-05-17T13:08:19Z</time>
      </trkpt>
      <trkpt lat="40.160883" lon="-5.141467">
        <ele>867.0</ele>
        <time>2014-05-17T13:08:20Z</time>
      </trkpt>
      <trkpt lat="40.160817" lon="-5.141417">
        <ele>869.0</ele>
        <time>2014-05-17T13:08:21Z</time>
      </trkpt>
      <trkpt lat="40.160783" lon="-5.141350">
        <ele>870.0</ele>
        <time>2014-05-17T13:08:22Z</time>
      </trkpt>
      <trkpt lat="40.160767" lon="-5.141267">
        <ele>872.0</ele>
        <time>2014-05-17T13:08:23Z</time>
      </trkpt>
      <trkpt lat="40.160783" lon="-5.141200">
        <ele>874.0</ele>
        <time>2014-05-17T13:08:24Z</time>
      </trkpt>
      <trkpt lat="40.160833" lon="-5.141167">
        <ele>876.0</ele>
        <time>2014-05-17T13:08:25Z</time>
      </trkpt>
      <trkpt lat="40.160900" lon="-5.141167">
        <ele>879.0</ele>
        <time>2014-05-17T13:08:26Z</time>
      </trkpt>
      <trkpt lat="40.160983" lon="-5.141183">
        <ele>881.0</ele>
        <time>2014-05-17T13:08:27Z</time>
      </trkpt>
      <trkpt lat="40.161050" lon="-5.141233">
        <ele>883.0</ele>
        <time>2014-05-17T13:08:28Z</time>
      </trkpt>
      <trkpt lat="40.161133" lon="-5.141300">
        <ele>884.0</ele>
        <time>2014-05-17T13:08:29Z</time>
      </trkpt>
      <trkpt lat="40.161183" lon="-5.141400">
        <ele>885.0</ele>
        <time>2014-05-17T13:08:30Z</time>
      </trkpt>
      <trkpt lat="40.161233" lon="-5.141533">
        <ele>885.0</ele>
        <time>2014-05-17T13:08:31Z</time>
      </trkpt>
      <trkpt lat="40.161250" lon="-5.141683">
        <ele>885.0</ele>
        <time>2014-05-17T13:08:32Z</time>
      </trkpt>
      <trkpt lat="40.161250" lon="-5.141817">
        <ele>886.0</ele>
        <time>2014-05-17T13:08:33Z</time>
      </trkpt>
      <trkpt lat="40.161217" lon="-5.141933">
        <ele>887.0</ele>
        <time>2014-05-17T13:08:34Z</time>
      </trkpt>
      <trkpt lat="40.161183" lon="-5.142033">
        <ele>889.0</ele>
        <time>2014-05-17T13:08:35Z</time>
      </trkpt>
      <trkpt lat="40.161150" lon="-5.142150">
        <ele>890.0</ele>
        <time>2014-05-17T13:08:36Z</time>
      </trkpt>
      <trkpt lat="40.161117" lon="-5.142267">
        <ele>892.0</ele>
        <time>2014-05-17T13:08:37Z</time>
      </trkpt>
      <trkpt lat="40.161067" lon="-5.142383">
        <ele>893.0</ele>
        <time>2014-05-17T13:08:38Z</time>
      </trkpt>
      <trkpt lat="40.161000" lon="-5.142467">
        <ele>895.0</ele>
        <time>2014-05-17T13:08:39Z</time>
      </trkpt>
      <trkpt lat="40.160917" lon="-5.142517">
        <ele>897.0</ele>
        <time>2014-05-17T13:08:40Z</time>
      </trkpt>
      <trkpt lat="40.160850" lon="-5.142550">
        <ele>900.0</ele>
        <time>2014-05-17T13:08:41Z</time>
      </trkpt>
      <trkpt lat="40.160783" lon="-5.142550">
        <ele>903.0</ele>
        <time>2014-05-17T13:08:42Z</time>
      </trkpt>
      <trkpt lat="40.160717" lon="-5.142517">
        <ele>906.0</ele>
        <time>2014-05-17T13:08:43Z</time>
      </trkpt>
      <trkpt lat="40.160667" lon="-5.142450">
        <ele>907.0</ele>
        <time>2014-05-17T13:08:44Z</time>
      </trkpt>
      <trkpt lat="40.160633" lon="-5.142367">
        <ele>909.0</ele>
        <time>2014-05-17T13:08:45Z</time>
      </trkpt>
      <trkpt lat="40.160633" lon="-5.142283">
        <ele>912.0</ele>
        <time>2014-05-17T13:08:46Z</time>
      </trkpt>
      <trkpt lat="40.160650" lon="-5.142217">
        <ele>915.0</ele>
        <time>2014-05-17T13:08:47Z</time>
      </trkpt>
      <trkpt lat="40.160683" lon="-5.142150">
        <ele>917.0</ele>
        <time>2014-05-17T13:08:48Z</time>
      </trkpt>
      <trkpt lat="40.160733" lon="-5.142117">
        <ele>920.0</ele>
        <time>2014-05-17T13:08:49Z</time>
      </trkpt>
      <trkpt lat="40.160783" lon="-5.142100">
        <ele>923.0</ele>
        <time>2014-05-17T13:08:50Z</time>
      </trkpt>
      <trkpt lat="40.160933" lon="-5.142100">
        <ele>927.0</ele>
        <time>2014-05-17T13:08:52Z</time>
      </trkpt>
      <trkpt lat="40.161017" lon="-5.142133">
        <ele>928.0</ele>
        <time>2014-05-17T13:08:53Z</time>
      </trkpt>
      <trkpt lat="40.161083" lon="-5.142200">
        <ele>930.0</ele>
        <time>2014-05-17T13:08:54Z</time>
      </trkpt>
      <trkpt lat="40.161150" lon="-5.142283">
        <ele>931.0</ele>
        <time>2014-05-17T13:08:55Z</time>
      </trkpt>
      <trkpt lat="40.161183" lon="-5.142400">
        <ele>932.0</ele>
        <time>2014-05-17T13:08:56Z</time>
      </trkpt>
      <trkpt lat="40.161217" lon="-5.142517">
        <ele>932.0</ele>
        <time>2014-05-17T13:08:57Z</time>
      </trkpt>
      <trkpt lat="40.161233" lon="-5.142650">
        <ele>932.0</ele>
        <time>2014-05-17T13:08:58Z</time>
      </trkpt>
      <trkpt lat="40.161233" lon="-5.142933">
        <ele>933.0</ele>
        <time>2014-05-17T13:09:00Z</time>
      </trkpt>
      <trkpt lat="40.161200" lon="-5.143083">
        <ele>933.0</ele>
        <time>2014-05-17T13:09:01Z</time>
      </trkpt>
      <trkpt lat="40.161150" lon="-5.143217">
        <ele>935.0</ele>
        <time>2014-05-17T13:09:02Z</time>
      </trkpt>
      <trkpt lat="40.161083" lon="-5.143317">
        <ele>937.0</ele>
        <time>2014-05-17T13:09:03Z</time>
      </trkpt>
      <trkpt lat="40.161017" lon="-5.143400">
        <ele>939.0</ele>
        <time>2014-05-17T13:09:04Z</time>
      </trkpt>
      <trkpt lat="40.160950" lon="-5.143467">
        <ele>942.0</ele>
        <time>2014-05-17T13:09:05Z</time>
      </trkpt>
      <trkpt lat="40.160883" lon="-5.143500">
        <ele>944.0</ele>
        <time>2014-05-17T13:09:06Z</time>
      </trkpt>
      <trkpt lat="40.160817" lon="-5.143533">
        <ele>947.0</ele>
        <time>2014-05-17T13:09:07Z</time>
      </trkpt>
      <trkpt lat="40.160733" lon="-5.143550">
        <ele>949.0</ele>
        <time>2014-05-17T13:09:08Z</time>
      </trkpt>
      <trkpt lat="40.160667" lon="-5.143533">
        <ele>952.0</ele>
        <time>2014-05-17T13:09:09Z</time>
      </trkpt>
      <trkpt lat="40.160617" lon="-5.143483">
        <ele>955.0</ele>
        <time>2014-05-17T13:09:10Z</time>
      </trkpt>
      <trkpt lat="40.160600" lon="-5.143400">
        <ele>957.0</ele>
        <time>2014-05-17T13:09:11Z</time>
      </trkpt>
      <trkpt lat="40.160617" lon="-5.143317">
        <ele>960.0</ele>
        <time>2014-05-17T13:09:12Z</time>
      </trkpt>
      <trkpt lat="40.160633" lon="-5.143250">
        <ele>963.0</ele>
        <time>2014-05-17T13:09:13Z</time>
      </trkpt>
      <trkpt lat="40.160717" lon="-5.143167">
        <ele>970.0</ele>
        <time>2014-05-17T13:09:15Z</time>
      </trkpt>
      <trkpt lat="40.160783" lon="-5.143167">
        <ele>974.0</ele>
        <time>2014-05-17T13:09:16Z</time>
      </trkpt>
      <trkpt lat="40.160850" lon="-5.143167">
        <ele>976.0</ele>
        <time>2014-05-17T13:09:17Z</time>
      </trkpt>
      <trkpt lat="40.160933" lon="-5.143217">
        <ele>979.0</ele>
        <time>2014-05-17T13:09:18Z</time>
      </trkpt>
      <trkpt lat="40.161000" lon="-5.143283">
        <ele>981.0</ele>
        <time>2014-05-17T13:09:19Z</time>
      </trkpt>
      <trkpt lat="40.161067" lon="-5.143367">
        <ele>983.0</ele>
        <time>2014-05-17T13:09:20Z</time>
      </trkpt>
      <trkpt lat="40.161117" lon="-5.143483">
        <ele>984.0</ele>
        <time>2014-05-17T13:09:21Z</time>
      </trkpt>
      <trkpt lat="40.161167" lon="-5.143600">
        <ele>986.0</ele>
        <time>2014-05-17T13:09:22Z</time>
      </trkpt>
      <trkpt lat="40.161200" lon="-5.143733">
        <ele>988.0</ele>
        <time>2014-05-17T13:09:23Z</time>
      </trkpt>
      <trkpt lat="40.161200" lon="-5.143883">
        <ele>989.0</ele>
        <time>2014-05-17T13:09:24Z</time>
      </trkpt>
      <trkpt lat="40.161167" lon="-5.144017">
        <ele>991.0</ele>
        <time>2014-05-17T13:09:25Z</time>
      </trkpt>
      <trkpt lat="40.161117" lon="-5.144133">
        <ele>992.0</ele>
        <time>2014-05-17T13:09:26Z</time>
      </trkpt>
      <trkpt lat="40.161067" lon="-5.144250">
        <ele>994.0</ele>
        <time>2014-05-17T13:09:27Z</time>
      </trkpt>
      <trkpt lat="40.161000" lon="-5.144333">
        <ele>997.0</ele>
        <time>2014-05-17T13:09:28Z</time>
      </trkpt>
      <trkpt lat="40.160917" lon="-5.144383">
        <ele>999.0</ele>
        <time>2014-05-17T13:09:29Z</time>
      </trkpt>
      <trkpt lat="40.160850" lon="-5.144417">
        <ele>1002.0</ele>
        <time>2014-05-17T13:09:30Z</time>
      </trkpt>
      <trkpt lat="40.160767" lon="-5.144417">
        <ele>1004.0</ele>
        <time>2014-05-17T13:09:31Z</time>
      </trkpt>
      <trkpt lat="40.160700" lon="-5.144383">
        <ele>1007.0</ele>
        <time>2014-05-17T13:09:32Z</time>
      </trkpt>
      <trkpt lat="40.160667" lon="-5.144333">
        <ele>1010.0</ele>
        <time>2014-05-17T13:09:33Z</time>
      </trkpt>
      <trkpt lat="40.160633" lon="-5.144283">
        <ele>1013.0</ele>
        <time>2014-05-17T13:09:34Z</time>
      </trkpt>
      <trkpt lat="40.160633" lon="-5.144200">
        <ele>1016.0</ele>
        <time>2014-05-17T13:09:35Z</time>
      </trkpt>
      <trkpt lat="40.160650" lon="-5.144133">
        <ele>1019.0</ele>
        <time>2014-05-17T13:09:36Z</time>
      </trkpt>
      <trkpt lat="40.160717" lon="-5.144067">
        <ele>1022.0</ele>
        <time>2014-05-17T13:09:37Z</time>
      </trkpt>
      <trkpt lat="40.160783" lon="-5.144017">
        <ele>1025.0</ele>
        <time>2014-05-17T13:09:38Z</time>
      </trkpt>
      <trkpt lat="40.160850" lon="-5.143983">
        <ele>1029.0</ele>
        <time>2014-05-17T13:09:39Z</time>
      </trkpt>
      <trkpt lat="40.160917" lon="-5.143967">
        <ele>1032.0</ele>
        <time>2014-05-17T13:09:40Z</time>
      </trkpt>
      <trkpt lat="40.160983" lon="-5.143967">
        <ele>1036.0</ele>
        <time>2014-05-17T13:09:41Z</time>
      </trkpt>
      <trkpt lat="40.161067" lon="-5.143967">
        <ele>1039.0</ele>
        <time>2014-05-17T13:09:42Z</time>
      </trkpt>
      <trkpt lat="40.161150" lon="-5.143983">
        <ele>1040.0</ele>
        <time>2014-05-17T13:09:43Z</time>
      </trkpt>
      <trkpt lat="40.161233" lon="-5.144017">
        <ele>1041.0</ele>
        <time>2014-05-17T13:09:44Z</time>
      </trkpt>
      <trkpt lat="40.161317" lon="-5.144083">
        <ele>1043.0</ele>
        <time>2014-05-17T13:09:45Z</time>
      </trkpt>
      <trkpt lat="40.161367" lon="-5.144183">
        <ele>1044.0</ele>
        <time>2014-05-17T13:09:46Z</time>
      </trkpt>
      <trkpt lat="40.161400" lon="-5.144317">
        <ele>1044.0</ele>
        <time>2014-05-17T13:09:47Z</time>
      </trkpt>
      <trkpt lat="40.161400" lon="-5.144467">
        <ele>1044.0</ele>
        <time>2014-05-17T13:09:48Z</time>
      </trkpt>
      <trkpt lat="40.161367" lon="-5.144583">
        <ele>1045.0</ele>
        <time>2014-05-17T13:09:49Z</time>
      </trkpt>
      <trkpt lat="40.161317" lon="-5.144683">
        <ele>1046.0</ele>
        <time>2014-05-17T13:09:50Z</time>
      </trkpt>
      <trkpt lat="40.161283" lon="-5.144750">
        <ele>1048.0</ele>
        <time>2014-05-17T13:09:51Z</time>
      </trkpt>
      <trkpt lat="40.161233" lon="-5.144833">
        <ele>1050.0</ele>
        <time>2014-05-17T13:09:52Z</time>
      </trkpt>
      <trkpt lat="40.161167" lon="-5.144917">
        <ele>1052.0</ele>
        <time>2014-05-17T13:09:53Z</time>
      </trkpt>
      <trkpt lat="40.161100" lon="-5.144983">
        <ele>1053.0</ele>
        <time>2014-05-17T13:09:54Z</time>
      </trkpt>
      <trkpt lat="40.161017" lon="-5.145017">
        <ele>1054.0</ele>
        <time>2014-05-17T13:09:55Z</time>
      </trkpt>
      <trkpt lat="40.160933" lon="-5.145000">
        <ele>1056.0</ele>
        <time>2014-05-17T13:09:56Z</time>
      </trkpt>
      <trkpt lat="40.160867" lon="-5.144950">
        <ele>1057.0</ele>
        <time>2014-05-17T13:09:57Z</time>
      </trkpt>
      <trkpt lat="40.160800" lon="-5.144883">
        <ele>1058.0</ele>
        <time>2014-05-17T13:09:58Z</time>
      </trkpt>
      <trkpt lat="40.160750" lon="-5.144817">
        <ele>1060.0</ele>
        <time>2014-05-17T13:09:59Z</time>
      </trkpt>
      <trkpt lat="40.160733" lon="-5.144733">
        <ele>1062.0</ele>
        <time>2014-05-17T13:10:00Z</time>
      </trkpt>
      <trkpt lat="40.160733" lon="-5.144650">
        <ele>1064.0</ele>
        <time>2014-05-17T13:10:01Z</time>
      </trkpt>
      <trkpt lat="40.160767" lon="-5.144600">
        <ele>1065.0</ele>
        <time>2014-05-17T13:10:02Z</time>
      </trkpt>
      <trkpt lat="40.160800" lon="-5.144533">
        <ele>1067.0</ele>
        <time>2014-05-17T13:10:03Z</time>
      </trkpt>
      <trkpt lat="40.160850" lon="-5.144500">
        <ele>1068.0</ele>
        <time>2014-05-17T13:10:04Z</time>
      </trkpt>
      <trkpt lat="40.160917" lon="-5.144467">
        <ele>1066.0</ele>
        <time>2014-05-17T13:10:05Z</time>
      </trkpt>
      <trkpt lat="40.160983" lon="-5.144450">
        <ele>1066.0</ele>
        <time>2014-05-17T13:10:06Z</time>
      </trkpt>
      <trkpt lat="40.161050" lon="-5.144450">
        <ele>1065.0</ele>
        <time>2014-05-17T13:10:07Z</time>
      </trkpt>
      <trkpt lat="40.161133" lon="-5.144450">
        <ele>1063.0</ele>
        <time>2014-05-17T13:10:08Z</time>
      </trkpt>
      <trkpt lat="40.161233" lon="-5.144467">
        <ele>1060.0</ele>
        <time>2014-05-17T13:10:09Z</time>
      </trkpt>
      <trkpt lat="40.161317" lon="-5.144517">
        <ele>1056.0</ele>
        <time>2014-05-17T13:10:10Z</time>
      </trkpt>
      <trkpt lat="40.161417" lon="-5.144617">
        <ele>1052.0</ele>
        <time>2014-05-17T13:10:11Z</time>
      </trkpt>
      <trkpt lat="40.161467" lon="-5.144767">
        <ele>1047.0</ele>
        <time>2014-05-17T13:10:12Z</time>
      </trkpt>
      <trkpt lat="40.161483" lon="-5.144933">
        <ele>1042.0</ele>
        <time>2014-05-17T13:10:13Z</time>
      </trkpt>
      <trkpt lat="40.161467" lon="-5.145083">
        <ele>1038.0</ele>
        <time>2014-05-17T13:10:14Z</time>
      </trkpt>
      <trkpt lat="40.161450" lon="-5.145250">
        <ele>1035.0</ele>
        <time>2014-05-17T13:10:15Z</time>
      </trkpt>
      <trkpt lat="40.161417" lon="-5.145400">
        <ele>1034.0</ele>
        <time>2014-05-17T13:10:16Z</time>
      </trkpt>
      <trkpt lat="40.161383" lon="-5.145550">
        <ele>1034.0</ele>
        <time>2014-05-17T13:10:17Z</time>
      </trkpt>
      <trkpt lat="40.161333" lon="-5.145700">
        <ele>1033.0</ele>
        <time>2014-05-17T13:10:18Z</time>
      </trkpt>
      <trkpt lat="40.161283" lon="-5.145817">
        <ele>1035.0</ele>
        <time>2014-05-17T13:10:19Z</time>
      </trkpt>
      <trkpt lat="40.161233" lon="-5.145917">
        <ele>1037.0</ele>
        <time>2014-05-17T13:10:20Z</time>
      </trkpt>
      <trkpt lat="40.161183" lon="-5.146017">
        <ele>1039.0</ele>
        <time>2014-05-17T13:10:21Z</time>
      </trkpt>
      <trkpt lat="40.161117" lon="-5.146117">
        <ele>1040.0</ele>
        <time>2014-05-17T13:10:22Z</time>
      </trkpt>
      <trkpt lat="40.161067" lon="-5.146233">
        <ele>1040.0</ele>
        <time>2014-05-17T13:10:23Z</time>
      </trkpt>
      <trkpt lat="40.161017" lon="-5.146367">
        <ele>1041.0</ele>
        <time>2014-05-17T13:10:24Z</time>
      </trkpt>
      <trkpt lat="40.161000" lon="-5.146517">
        <ele>1042.0</ele>
        <time>2014-05-17T13:10:25Z</time>
      </trkpt>
      <trkpt lat="40.160983" lon="-5.146650">
        <ele>1043.0</ele>
        <time>2014-05-17T13:10:26Z</time>
      </trkpt>
      <trkpt lat="40.160967" lon="-5.146800">
        <ele>1045.0</ele>
        <time>2014-05-17T13:10:27Z</time>
      </trkpt>
      <trkpt lat="40.160917" lon="-5.146933">
        <ele>1047.0</ele>
        <time>2014-05-17T13:10:28Z</time>
      </trkpt>
      <trkpt lat="40.160850" lon="-5.147050">
        <ele>1047.0</ele>
        <time>2014-05-17T13:10:29Z</time>
      </trkpt>
      <trkpt lat="40.160750" lon="-5.147133">
        <ele>1048.0</ele>
        <time>2014-05-17T13:10:30Z</time>
      </trkpt>
      <trkpt lat="40.160667" lon="-5.147217">
        <ele>1049.0</ele>
        <time>2014-05-17T13:10:31Z</time>
      </trkpt>
      <trkpt lat="40.160583" lon="-5.147250">
        <ele>1051.0</ele>
        <time>2014-05-17T13:10:32Z</time>
      </trkpt>
      <trkpt lat="40.160500" lon="-5.147283">
        <ele>1055.0</ele>
        <time>2014-05-17T13:10:33Z</time>
      </trkpt>
      <trkpt lat="40.160417" lon="-5.147317">
        <ele>1058.0</ele>
        <time>2014-05-17T13:10:34Z</time>
      </trkpt>
      <trkpt lat="40.160350" lon="-5.147367">
        <ele>1060.0</ele>
        <time>2014-05-17T13:10:35Z</time>
      </trkpt>
      <trkpt lat="40.160250" lon="-5.147400">
        <ele>1062.0</ele>
        <time>2014-05-17T13:10:36Z</time>
      </trkpt>
      <trkpt lat="40.160167" lon="-5.147433">
        <ele>1063.0</ele>
        <time>2014-05-17T13:10:37Z</time>
      </trkpt>
      <trkpt lat="40.160100" lon="-5.147417">
        <ele>1065.0</ele>
        <time>2014-05-17T13:10:38Z</time>
      </trkpt>
      <trkpt lat="40.160050" lon="-5.147383">
        <ele>1068.0</ele>
        <time>2014-05-17T13:10:39Z</time>
      </trkpt>
      <trkpt lat="40.160017" lon="-5.147333">
        <ele>1070.0</ele>
        <time>2014-05-17T13:10:40Z</time>
      </trkpt>
      <trkpt lat="40.160083" lon="-5.147200">
        <ele>1081.0</ele>
        <time>2014-05-17T13:10:43Z</time>
      </trkpt>
      <trkpt lat="40.160117" lon="-5.147183">
        <ele>1084.0</ele>
        <time>2014-05-17T13:10:44Z</time>
      </trkpt>
      <trkpt lat="40.160167" lon="-5.147183">
        <ele>1088.0</ele>
        <time>2014-05-17T13:10:45Z</time>
      </trkpt>
      <trkpt lat="40.160233" lon="-5.147200">
        <ele>1090.0</ele>
        <time>2014-05-17T13:10:46Z</time>
      </trkpt>
      <trkpt lat="40.160300" lon="-5.147217">
        <ele>1091.0</ele>
        <time>2014-05-17T13:10:47Z</time>
      </trkpt>
      <trkpt lat="40.160383" lon="-5.147217">
        <ele>1091.0</ele>
        <time>2014-05-17T13:10:48Z</time>
      </trkpt>
      <trkpt lat="40.160467" lon="-5.147250">
        <ele>1093.0</ele>
        <time>2014-05-17T13:10:49Z</time>
      </trkpt>
      <trkpt lat="40.160550" lon="-5.147317">
        <ele>1095.0</ele>
        <time>2014-05-17T13:10:50Z</time>
      </trkpt>
      <trkpt lat="40.160633" lon="-5.147417">
        <ele>1096.0</ele>
        <time>2014-05-17T13:10:51Z</time>
      </trkpt>
      <trkpt lat="40.160700" lon="-5.147533">
        <ele>1098.0</ele>
        <time>2014-05-17T13:10:52Z</time>
      </trkpt>
      <trkpt lat="40.160767" lon="-5.147650">
        <ele>1100.0</ele>
        <time>2014-05-17T13:10:53Z</time>
      </trkpt>
      <trkpt lat="40.160817" lon="-5.147783">
        <ele>1101.0</ele>
        <time>2014-05-17T13:10:54Z</time>
      </trkpt>
      <trkpt lat="40.160867" lon="-5.147917">
        <ele>1102.0</ele>
        <time>2014-05-17T13:10:55Z</time>
      </trkpt>
      <trkpt lat="40.160900" lon="-5.148050">
        <ele>1104.0</ele>
        <time>2014-05-17T13:10:56Z</time>
      </trkpt>
      <trkpt lat="40.160917" lon="-5.148217">
        <ele>1106.0</ele>
        <time>2014-05-17T13:10:57Z</time>
      </trkpt>
      <trkpt lat="40.160900" lon="-5.148367">
        <ele>1107.0</ele>
        <time>2014-05-17T13:10:58Z</time>
      </trkpt>
      <trkpt lat="40.160883" lon="-5.148517">
        <ele>1108.0</ele>
        <time>2014-05-17T13:10:59Z</time>
      </trkpt>
      <trkpt lat="40.160833" lon="-5.148650">
        <ele>1109.0</ele>
        <time>2014-05-17T13:11:00Z</time>
      </trkpt>
      <trkpt lat="40.160783" lon="-5.148767">
        <ele>1110.0</ele>
        <time>2014-05-17T13:11:01Z</time>
      </trkpt>
      <trkpt lat="40.160700" lon="-5.148883">
        <ele>1110.0</ele>
        <time>2014-05-17T13:11:02Z</time>
      </trkpt>
      <trkpt lat="40.160633" lon="-5.148967">
        <ele>1111.0</ele>
        <time>2014-05-17T13:11:03Z</time>
      </trkpt>
      <trkpt lat="40.160550" lon="-5.149050">
        <ele>1112.0</ele>
        <time>2014-05-17T13:11:04Z</time>
      </trkpt>
      <trkpt lat="40.160467" lon="-5.149117">
        <ele>1113.0</ele>
        <time>2014-05-17T13:11:05Z</time>
      </trkpt>
      <trkpt lat="40.160383" lon="-5.149167">
        <ele>1114.0</ele>
        <time>2014-05-17T13:11:06Z</time>
      </trkpt>
      <trkpt lat="40.160317" lon="-5.149200">
        <ele>1115.0</ele>
        <time>2014-05-17T13:11:07Z</time>
      </trkpt>
      <trkpt lat="40.160233" lon="-5.149217">
        <ele>1116.0</ele>
        <time>2014-05-17T13:11:08Z</time>
      </trkpt>
      <trkpt lat="40.160167" lon="-5.149217">
        <ele>1116.0</ele>
        <time>2014-05-17T13:11:09Z</time>
      </trkpt>
      <trkpt lat="40.160083" lon="-5.149200">
        <ele>1116.0</ele>
        <time>2014-05-17T13:11:10Z</time>
      </trkpt>
      <trkpt lat="40.160000" lon="-5.149200">
        <ele>1118.0</ele>
        <time>2014-05-17T13:11:11Z</time>
      </trkpt>
      <trkpt lat="40.159917" lon="-5.149200">
        <ele>1122.0</ele>
        <time>2014-05-17T13:11:12Z</time>
      </trkpt>
      <trkpt lat="40.159850" lon="-5.149233">
        <ele>1128.0</ele>
        <time>2014-05-17T13:11:13Z</time>
      </trkpt>
      <trkpt lat="40.159800" lon="-5.149267">
        <ele>1133.0</ele>
        <time>2014-05-17T13:11:14Z</time>
      </trkpt>
      <trkpt lat="40.159733" lon="-5.149317">
        <ele>1137.0</ele>
        <time>2014-05-17T13:11:15Z</time>
      </trkpt>
      <trkpt lat="40.159650" lon="-5.149383">
        <ele>1140.0</ele>
        <time>2014-05-17T13:11:16Z</time>
      </trkpt>
      <trkpt lat="40.159567" lon="-5.149467">
        <ele>1143.0</ele>
        <time>2014-05-17T13:11:17Z</time>
      </trkpt>
      <trkpt lat="40.159483" lon="-5.149567">
        <ele>1147.0</ele>
        <time>2014-05-17T13:11:18Z</time>
      </trkpt>
      <trkpt lat="40.159433" lon="-5.149700">
        <ele>1151.0</ele>
        <time>2014-05-17T13:11:19Z</time>
      </trkpt>
      <trkpt lat="40.159383" lon="-5.149850">
        <ele>1154.0</ele>
        <time>2014-05-17T13:11:20Z</time>
      </trkpt>
      <trkpt lat="40.159350" lon="-5.150000">
        <ele>1157.0</ele>
        <time>2014-05-17T13:11:21Z</time>
      </trkpt>
      <trkpt lat="40.159317" lon="-5.150167">
        <ele>1161.0</ele>
        <time>2014-05-17T13:11:22Z</time>
      </trkpt>
      <trkpt lat="40.159300" lon="-5.150300">
        <ele>1165.0</ele>
        <time>2014-05-17T13:11:23Z</time>
      </trkpt>
      <trkpt lat="40.159300" lon="-5.150433">
        <ele>1169.0</ele>
        <time>2014-05-17T13:11:24Z</time>
      </trkpt>
      <trkpt lat="40.159317" lon="-5.150583">
        <ele>1172.0</ele>
        <time>2014-05-17T13:11:25Z</time>
      </trkpt>
      <trkpt lat="40.159350" lon="-5.150717">
        <ele>1174.0</ele>
        <time>2014-05-17T13:11:26Z</time>
      </trkpt>
      <trkpt lat="40.159367" lon="-5.150850">
        <ele>1175.0</ele>
        <time>2014-05-17T13:11:27Z</time>
      </trkpt>
      <trkpt lat="40.159400" lon="-5.150950">
        <ele>1177.0</ele>
        <time>2014-05-17T13:11:28Z</time>
      </trkpt>
      <trkpt lat="40.159450" lon="-5.151033">
        <ele>1178.0</ele>
        <time>2014-05-17T13:11:29Z</time>
      </trkpt>
      <trkpt lat="40.159500" lon="-5.151117">
        <ele>1179.0</ele>
        <time>2014-05-17T13:11:30Z</time>
      </trkpt>
      <trkpt lat="40.159567" lon="-5.151183">
        <ele>1180.0</ele>
        <time>2014-05-17T13:11:31Z</time>
      </trkpt>
      <trkpt lat="40.159617" lon="-5.151217">
        <ele>1181.0</ele>
        <time>2014-05-17T13:11:32Z</time>
      </trkpt>
      <trkpt lat="40.159667" lon="-5.151233">
        <ele>1182.0</ele>
        <time>2014-05-17T13:11:33Z</time>
      </trkpt>
      <trkpt lat="40.159750" lon="-5.151200">
        <ele>1184.0</ele>
        <time>2014-05-17T13:11:35Z</time>
      </trkpt>
      <trkpt lat="40.159783" lon="-5.151183">
        <ele>1185.0</ele>
        <time>2014-05-17T13:11:36Z</time>
      </trkpt>
      <trkpt lat="40.159817" lon="-5.151133">
        <ele>1185.0</ele>
        <time>2014-05-17T13:11:37Z</time>
      </trkpt>
      <trkpt lat="40.159817" lon="-5.151050">
        <ele>1187.0</ele>
        <time>2014-05-17T13:11:39Z</time>
      </trkpt>
      <trkpt lat="40.159817" lon="-5.151000">
        <ele>1187.0</ele>
        <time>2014-05-17T13:11:40Z</time>
      </trkpt>
      <trkpt lat="40.159800" lon="-5.150950">
        <ele>1189.0</ele>
        <time>2014-05-17T13:11:41Z</time>
      </trkpt>
      <trkpt lat="40.159800" lon="-5.150917">
        <ele>1191.0</ele>
        <time>2014-05-17T13:11:42Z</time>
      </trkpt>
      <trkpt lat="40.159800" lon="-5.150900">
        <ele>1193.0</ele>
        <time>2014-05-17T13:11:43Z</time>
      </trkpt>
      <trkpt lat="40.159783" lon="-5.150867">
        <ele>1195.0</ele>
        <time>2014-05-17T13:11:44Z</time>
      </trkpt>
      <trkpt lat="40.159767" lon="-5.150817">
        <ele>1197.0</ele>
        <time>2014-05-17T13:11:45Z</time>
      </trkpt>
      <trkpt lat="40.159750" lon="-5.150750">
        <ele>1199.0</ele>
        <time>2014-05-17T13:11:46Z</time>
      </trkpt>
      <trkpt lat="40.159733" lon="-5.150700">
        <ele>1202.0</ele>
        <time>2014-05-17T13:11:47Z</time>
      </trkpt>
      <trkpt lat="40.159733" lon="-5.150667">
        <ele>1206.0</ele>
        <time>2014-05-17T13:11:48Z</time>
      </trkpt>
      <trkpt lat="40.159717" lon="-5.150650">
        <ele>1211.0</ele>
        <time>2014-05-17T13:11:49Z</time>
      </trkpt>
      <trkpt lat="40.159717" lon="-5.150650">
        <ele>1215.0</ele>
        <time>2014-05-17T13:11:50Z</time>
      </trkpt>
      <trkpt lat="40.159700" lon="-5.150617">
        <ele>1217.0</ele>
        <time>2014-05-17T13:11:51Z</time>
      </trkpt>
      <trkpt lat="40.159683" lon="-5.150567">
        <ele>1219.0</ele>
        <time>2014-05-17T13:11:52Z</time>
      </trkpt>
      <trkpt lat="40.159717" lon="-5.150500">
        <ele>1222.0</ele>
        <time>2014-05-17T13:11:53Z</time>
      </trkpt>
      <trkpt lat="40.159783" lon="-5.150483">
        <ele>1225.0</ele>
        <time>2014-05-17T13:11:54Z</time>
      </trkpt>
      <trkpt lat="40.159850" lon="-5.150517">
        <ele>1229.0</ele>
        <time>2014-05-17T13:11:55Z</time>
      </trkpt>
      <trkpt lat="40.159933" lon="-5.150567">
        <ele>1232.0</ele>
        <time>2014-05-17T13:11:56Z</time>
      </trkpt>
      <trkpt lat="40.160017" lon="-5.150633">
        <ele>1236.0</ele>
        <time>2014-05-17T13:11:57Z</time>
      </trkpt>
      <trkpt lat="40.160083" lon="-5.150717">
        <ele>1239.0</ele>
        <time>2014-05-17T13:11:58Z</time>
      </trkpt>
      <trkpt lat="40.160150" lon="-5.150800">
        <ele>1242.0</ele>
        <time>2014-05-17T13:11:59Z</time>
      </trkpt>
      <trkpt lat="40.160217" lon="-5.150900">
        <ele>1245.0</ele>
        <time>2014-05-17T13:12:00Z</time>
      </trkpt>
      <trkpt lat="40.160267" lon="-5.151033">
        <ele>1246.0</ele>
        <time>2014-05-17T13:12:01Z</time>
      </trkpt>
      <trkpt lat="40.160300" lon="-5.151183">
        <ele>1247.0</ele>
        <time>2014-05-17T13:12:02Z</time>
      </trkpt>
      <trkpt lat="40.160317" lon="-5.151333">
        <ele>1247.0</ele>
        <time>2014-05-17T13:12:03Z</time>
      </trkpt>
      <trkpt lat="40.160300" lon="-5.151483">
        <ele>1247.0</ele>
        <time>2014-05-17T13:12:04Z</time>
      </trkpt>
      <trkpt lat="40.160283" lon="-5.151617">
        <ele>1247.0</ele>
        <time>2014-05-17T13:12:05Z</time>
      </trkpt>
      <trkpt lat="40.160267" lon="-5.151767">
        <ele>1247.0</ele>
        <time>2014-05-17T13:12:06Z</time>
      </trkpt>
      <trkpt lat="40.160233" lon="-5.151900">
        <ele>1247.0</ele>
        <time>2014-05-17T13:12:07Z</time>
      </trkpt>
      <trkpt lat="40.160167" lon="-5.152050">
        <ele>1247.0</ele>
        <time>2014-05-17T13:12:08Z</time>
      </trkpt>
      <trkpt lat="40.160100" lon="-5.152183">
        <ele>1246.0</ele>
        <time>2014-05-17T13:12:09Z</time>
      </trkpt>
      <trkpt lat="40.160000" lon="-5.152300">
        <ele>1245.0</ele>
        <time>2014-05-17T13:12:10Z</time>
      </trkpt>
      <trkpt lat="40.159917" lon="-5.152417">
        <ele>1246.0</ele>
        <time>2014-05-17T13:12:11Z</time>
      </trkpt>
      <trkpt lat="40.159833" lon="-5.152483">
        <ele>1247.0</ele>
        <time>2014-05-17T13:12:12Z</time>
      </trkpt>
      <trkpt lat="40.159750" lon="-5.152567">
        <ele>1247.0</ele>
        <time>2014-05-17T13:12:13Z</time>
      </trkpt>
      <trkpt lat="40.159650" lon="-5.152633">
        <ele>1247.0</ele>
        <time>2014-05-17T13:12:14Z</time>
      </trkpt>
      <trkpt lat="40.159567" lon="-5.152717">
        <ele>1247.0</ele>
        <time>2014-05-17T13:12:15Z</time>
      </trkpt>
      <trkpt lat="40.159450" lon="-5.152767">
        <ele>1247.0</ele>
        <time>2014-05-17T13:12:16Z</time>
      </trkpt>
      <trkpt lat="40.159350" lon="-5.152817">
        <ele>1247.0</ele>
        <time>2014-05-17T13:12:17Z</time>
      </trkpt>
      <trkpt lat="40.159250" lon="-5.152833">
        <ele>1249.0</ele>
        <time>2014-05-17T13:12:18Z</time>
      </trkpt>
      <trkpt lat="40.159167" lon="-5.152850">
        <ele>1251.0</ele>
        <time>2014-05-17T13:12:19Z</time>
      </trkpt>
      <trkpt lat="40.159083" lon="-5.152833">
        <ele>1254.0</ele>
        <time>2014-05-17T13:12:20Z</time>
      </trkpt>
      <trkpt lat="40.159000" lon="-5.152817">
        <ele>1257.0</ele>
        <time>2014-05-17T13:12:21Z</time>
      </trkpt>
      <trkpt lat="40.158917" lon="-5.152783">
        <ele>1259.0</ele>
        <time>2014-05-17T13:12:22Z</time>
      </trkpt>
      <trkpt lat="40.158850" lon="-5.152750">
        <ele>1261.0</ele>
        <time>2014-05-17T13:12:23Z</time>
      </trkpt>
      <trkpt lat="40.158783" lon="-5.152700">
        <ele>1263.0</ele>
        <time>2014-05-17T13:12:24Z</time>
      </trkpt>
      <trkpt lat="40.158717" lon="-5.152667">
        <ele>1266.0</ele>
        <time>2014-05-17T13:12:25Z</time>
      </trkpt>
      <trkpt lat="40.158683" lon="-5.152617">
        <ele>1268.0</ele>
        <time>2014-05-17T13:12:26Z</time>
      </trkpt>
      <trkpt lat="40.158650" lon="-5.152550">
        <ele>1270.0</ele>
        <time>2014-05-17T13:12:27Z</time>
      </trkpt>
      <trkpt lat="40.158633" lon="-5.152500">
        <ele>1272.0</ele>
        <time>2014-05-17T13:12:28Z</time>
      </trkpt>
      <trkpt lat="40.158633" lon="-5.152450">
        <ele>1274.0</ele>
        <time>2014-05-17T13:12:29Z</time>
      </trkpt>
      <trkpt lat="40.158617" lon="-5.152400">
        <ele>1275.0</ele>
        <time>2014-05-17T13:12:30Z</time>
      </trkpt>
      <trkpt lat="40.158617" lon="-5.152367">
        <ele>1276.0</ele>
        <time>2014-05-17T13:12:31Z</time>
      </trkpt>
      <trkpt lat="40.158617" lon="-5.152317">
        <ele>1276.0</ele>
        <time>2014-05-17T13:12:32Z</time>
      </trkpt>
      <trkpt lat="40.158617" lon="-5.152267">
        <ele>1276.0</ele>
        <time>2014-05-17T13:12:33Z</time>
      </trkpt>
      <trkpt lat="40.158650" lon="-5.152217">
        <ele>1277.0</ele>
        <time>2014-05-17T13:12:34Z</time>
      </trkpt>
      <trkpt lat="40.158700" lon="-5.152183">
        <ele>1277.0</ele>
        <time>2014-05-17T13:12:35Z</time>
      </trkpt>
      <trkpt lat="40.158733" lon="-5.152150">
        <ele>1277.0</ele>
        <time>2014-05-17T13:12:36Z</time>
      </trkpt>
      <trkpt lat="40.158800" lon="-5.152117">
        <ele>1277.0</ele>
        <time>2014-05-17T13:12:37Z</time>
      </trkpt>
      <trkpt lat="40.158850" lon="-5.152083">
        <ele>1276.0</ele>
        <time>2014-05-17T13:12:38Z</time>
      </trkpt>
      <trkpt lat="40.158917" lon="-5.152067">
        <ele>1276.0</ele>
        <time>2014-05-17T13:12:39Z</time>
      </trkpt>
      <trkpt lat="40.159000" lon="-5.152067">
        <ele>1275.0</ele>
        <time>2014-05-17T13:12:40Z</time>
      </trkpt>
      <trkpt lat="40.159067" lon="-5.152083">
        <ele>1275.0</ele>
        <time>2014-05-17T13:12:41Z</time>
      </trkpt>
      <trkpt lat="40.159150" lon="-5.152100">
        <ele>1274.0</ele>
        <time>2014-05-17T13:12:42Z</time>
      </trkpt>
      <trkpt lat="40.159217" lon="-5.152133">
        <ele>1273.0</ele>
        <time>2014-05-17T13:12:43Z</time>
      </trkpt>
      <trkpt lat="40.159300" lon="-5.152183">
        <ele>1273.0</ele>
        <time>2014-05-17T13:12:44Z</time>
      </trkpt>
      <trkpt lat="40.159367" lon="-5.152233">
        <ele>1272.0</ele>
        <time>2014-05-17T13:12:45Z</time>
      </trkpt>
      <trkpt lat="40.159433" lon="-5.152300">
        <ele>1272.0</ele>
        <time>2014-05-17T13:12:46Z</time>
      </trkpt>
      <trkpt lat="40.159500" lon="-5.152367">
        <ele>1271.0</ele>
        <time>2014-05-17T13:12:47Z</time>
      </trkpt>
      <trkpt lat="40.159567" lon="-5.152433">
        <ele>1270.0</ele>
        <time>2014-05-17T13:12:48Z</time>
      </trkpt>
      <trkpt lat="40.159650" lon="-5.152517">
        <ele>1269.0</ele>
        <time>2014-05-17T13:12:49Z</time>
      </trkpt>
      <trkpt lat="40.159750" lon="-5.152583">
        <ele>1268.0</ele>
        <time>2014-05-17T13:12:50Z</time>
      </trkpt>
      <trkpt lat="40.159833" lon="-5.152667">
        <ele>1268.0</ele>
        <time>2014-05-17T13:12:51Z</time>
      </trkpt>
      <trkpt lat="40.159900" lon="-5.152733">
        <ele>1270.0</ele>
        <time>2014-05-17T13:12:52Z</time>
      </trkpt>
      <trkpt lat="40.159950" lon="-5.152817">
        <ele>1272.0</ele>
        <time>2014-05-17T13:12:53Z</time>
      </trkpt>
      <trkpt lat="40.160017" lon="-5.152900">
        <ele>1273.0</ele>
        <time>2014-05-17T13:12:54Z</time>
      </trkpt>
      <trkpt lat="40.160083" lon="-5.152983">
        <ele>1274.0</ele>
        <time>2014-05-17T13:12:55Z</time>
      </trkpt>
      <trkpt lat="40.160250" lon="-5.153150">
        <ele>1273.0</ele>
        <time>2014-05-17T13:12:57Z</time>
      </trkpt>
      <trkpt lat="40.160317" lon="-5.153267">
        <ele>1273.0</ele>
        <time>2014-05-17T13:12:58Z</time>
      </trkpt>
      <trkpt lat="40.160367" lon="-5.153383">
        <ele>1273.0</ele>
        <time>2014-05-17T13:12:59Z</time>
      </trkpt>
      <trkpt lat="40.160400" lon="-5.153517">
        <ele>1276.0</ele>
        <time>2014-05-17T13:13:00Z</time>
      </trkpt>
      <trkpt lat="40.160433" lon="-5.153800">
        <ele>1278.0</ele>
        <time>2014-05-17T13:13:02Z</time>
      </trkpt>
      <trkpt lat="40.160433" lon="-5.153950">
        <ele>1278.0</ele>
        <time>2014-05-17T13:13:03Z</time>
      </trkpt>
      <trkpt lat="40.160433" lon="-5.154100">
        <ele>1278.0</ele>
        <time>2014-05-17T13:13:04Z</time>
      </trkpt>
      <trkpt lat="40.160400" lon="-5.154250">
        <ele>1279.0</ele>
        <time>2014-05-17T13:13:05Z</time>
      </trkpt>
      <trkpt lat="40.160383" lon="-5.154400">
        <ele>1280.0</ele>
        <time>2014-05-17T13:13:06Z</time>
      </trkpt>
      <trkpt lat="40.160333" lon="-5.154550">
        <ele>1282.0</ele>
        <time>2014-05-17T13:13:07Z</time>
      </trkpt>
      <trkpt lat="40.160283" lon="-5.154667">
        <ele>1283.0</ele>
        <time>2014-05-17T13:13:08Z</time>
      </trkpt>
      <trkpt lat="40.160217" lon="-5.154783">
        <ele>1284.0</ele>
        <time>2014-05-17T13:13:09Z</time>
      </trkpt>
      <trkpt lat="40.160150" lon="-5.154917">
        <ele>1284.0</ele>
        <time>2014-05-17T13:13:10Z</time>
      </trkpt>
      <trkpt lat="40.160083" lon="-5.155033">
        <ele>1285.0</ele>
        <time>2014-05-17T13:13:11Z</time>
      </trkpt>
      <trkpt lat="40.160017" lon="-5.155150">
        <ele>1286.0</ele>
        <time>2014-05-17T13:13:12Z</time>
      </trkpt>
      <trkpt lat="40.159933" lon="-5.155250">
        <ele>1288.0</ele>
        <time>2014-05-17T13:13:13Z</time>
      </trkpt>
      <trkpt lat="40.159867" lon="-5.155350">
        <ele>1289.0</ele>
        <time>2014-05-17T13:13:14Z</time>
      </trkpt>
      <trkpt lat="40.159800" lon="-5.155450">
        <ele>1291.0</ele>
        <time>2014-05-17T13:13:15Z</time>
      </trkpt>
      <trkpt lat="40.159733" lon="-5.155550">
        <ele>1292.0</ele>
        <time>2014-05-17T13:13:16Z</time>
      </trkpt>
      <trkpt lat="40.159667" lon="-5.155633">
        <ele>1293.0</ele>
        <time>2014-05-17T13:13:17Z</time>
      </trkpt>
      <trkpt lat="40.159567" lon="-5.155733">
        <ele>1294.0</ele>
        <time>2014-05-17T13:13:18Z</time>
      </trkpt>
      <trkpt lat="40.159483" lon="-5.155817">
        <ele>1294.0</ele>
        <time>2014-05-17T13:13:19Z</time>
      </trkpt>
      <trkpt lat="40.159383" lon="-5.155900">
        <ele>1294.0</ele>
        <time>2014-05-17T13:13:20Z</time>
      </trkpt>
      <trkpt lat="40.159300" lon="-5.155983">
        <ele>1296.0</ele>
        <time>2014-05-17T13:13:21Z</time>
      </trkpt>
      <trkpt lat="40.159217" lon="-5.156050">
        <ele>1296.0</ele>
        <time>2014-05-17T13:13:22Z</time>
      </trkpt>
      <trkpt lat="40.159133" lon="-5.156100">
        <ele>1297.0</ele>
        <time>2014-05-17T13:13:23Z</time>
      </trkpt>
      <trkpt lat="40.159050" lon="-5.156150">
        <ele>1299.0</ele>
        <time>2014-05-17T13:13:24Z</time>
      </trkpt>
      <trkpt lat="40.158967" lon="-5.156200">
        <ele>1300.0</ele>
        <time>2014-05-17T13:13:25Z</time>
      </trkpt>
      <trkpt lat="40.158867" lon="-5.156233">
        <ele>1301.0</ele>
        <time>2014-05-17T13:13:26Z</time>
      </trkpt>
      <trkpt lat="40.158783" lon="-5.156267">
        <ele>1301.0</ele>
        <time>2014-05-17T13:13:27Z</time>
      </trkpt>
      <trkpt lat="40.158683" lon="-5.156300">
        <ele>1303.0</ele>
        <time>2014-05-17T13:13:28Z</time>
      </trkpt>
      <trkpt lat="40.158617" lon="-5.156317">
        <ele>1305.0</ele>
        <time>2014-05-17T13:13:29Z</time>
      </trkpt>
      <trkpt lat="40.158550" lon="-5.156317">
        <ele>1306.0</ele>
        <time>2014-05-17T13:13:30Z</time>
      </trkpt>
      <trkpt lat="40.158467" lon="-5.156300">
        <ele>1307.0</ele>
        <time>2014-05-17T13:13:31Z</time>
      </trkpt>
      <trkpt lat="40.158400" lon="-5.156283">
        <ele>1308.0</ele>
        <time>2014-05-17T13:13:32Z</time>
      </trkpt>
      <trkpt lat="40.158333" lon="-5.156267">
        <ele>1310.0</ele>
        <time>2014-05-17T13:13:33Z</time>
      </trkpt>
      <trkpt lat="40.158283" lon="-5.156250">
        <ele>1313.0</ele>
        <time>2014-05-17T13:13:34Z</time>
      </trkpt>
      <trkpt lat="40.158233" lon="-5.156233">
        <ele>1315.0</ele>
        <time>2014-05-17T13:13:35Z</time>
      </trkpt>
      <trkpt lat="40.158217" lon="-5.156183">
        <ele>1316.0</ele>
        <time>2014-05-17T13:13:36Z</time>
      </trkpt>
      <trkpt lat="40.158200" lon="-5.156150">
        <ele>1315.0</ele>
        <time>2014-05-17T13:13:37Z</time>
      </trkpt>
      <trkpt lat="40.158167" lon="-5.156100">
        <ele>1312.0</ele>
        <time>2014-05-17T13:13:38Z</time>
      </trkpt>
      <trkpt lat="40.158133" lon="-5.156050">
        <ele>1310.0</ele>
        <time>2014-05-17T13:13:39Z</time>
      </trkpt>
      <trkpt lat="40.158133" lon="-5.155983">
        <ele>1309.0</ele>
        <time>2014-05-17T13:13:40Z</time>
      </trkpt>
      <trkpt lat="40.158167" lon="-5.155867">
        <ele>1306.0</ele>
        <time>2014-05-17T13:13:42Z</time>
      </trkpt>
      <trkpt lat="40.158200" lon="-5.155817">
        <ele>1305.0</ele>
        <time>2014-05-17T13:13:43Z</time>
      </trkpt>
      <trkpt lat="40.158233" lon="-5.155767">
        <ele>1303.0</ele>
        <time>2014-05-17T13:13:44Z</time>
      </trkpt>
      <trkpt lat="40.158283" lon="-5.155733">
        <ele>1301.0</ele>
        <time>2014-05-17T13:13:45Z</time>
      </trkpt>
      <trkpt lat="40.158333" lon="-5.155700">
        <ele>1299.0</ele>
        <time>2014-05-17T13:13:46Z</time>
      </trkpt>
      <trkpt lat="40.158383" lon="-5.155667">
        <ele>1297.0</ele>
        <time>2014-05-17T13:13:47Z</time>
      </trkpt>
      <trkpt lat="40.158467" lon="-5.155617">
        <ele>1294.0</ele>
        <time>2014-05-17T13:13:48Z</time>
      </trkpt>
      <trkpt lat="40.158533" lon="-5.155567">
        <ele>1290.0</ele>
        <time>2014-05-17T13:13:49Z</time>
      </trkpt>
      <trkpt lat="40.158600" lon="-5.155533">
        <ele>1288.0</ele>
        <time>2014-05-17T13:13:50Z</time>
      </trkpt>
      <trkpt lat="40.158650" lon="-5.155500">
        <ele>1286.0</ele>
        <time>2014-05-17T13:13:51Z</time>
      </trkpt>
      <trkpt lat="40.158717" lon="-5.155467">
        <ele>1284.0</ele>
        <time>2014-05-17T13:13:52Z</time>
      </trkpt>
      <trkpt lat="40.158800" lon="-5.155433">
        <ele>1282.0</ele>
        <time>2014-05-17T13:13:53Z</time>
      </trkpt>
      <trkpt lat="40.158867" lon="-5.155400">
        <ele>1280.0</ele>
        <time>2014-05-17T13:13:54Z</time>
      </trkpt>
      <trkpt lat="40.159000" lon="-5.155383">
        <ele>1279.0</ele>
        <time>2014-05-17T13:13:56Z</time>
      </trkpt>
      <trkpt lat="40.159067" lon="-5.155383">
        <ele>1279.0</ele>
        <time>2014-05-17T13:13:57Z</time>
      </trkpt>
      <trkpt lat="40.159133" lon="-5.155383">
        <ele>1278.0</ele>
        <time>2014-05-17T13:13:58Z</time>
      </trkpt>
      <trkpt lat="40.159217" lon="-5.155383">
        <ele>1277.0</ele>
        <time>2014-05-17T13:13:59Z</time>
      </trkpt>
      <trkpt lat="40.159300" lon="-5.155400">
        <ele>1276.0</ele>
        <time>2014-05-17T13:14:00Z</time>
      </trkpt>
      <trkpt lat="40.159383" lon="-5.155400">
        <ele>1275.0</ele>
        <time>2014-05-17T13:14:01Z</time>
      </trkpt>
      <trkpt lat="40.159450" lon="-5.155417">
        <ele>1274.0</ele>
        <time>2014-05-17T13:14:02Z</time>
      </trkpt>
      <trkpt lat="40.159583" lon="-5.155417">
        <ele>1273.0</ele>
        <time>2014-05-17T13:14:04Z</time>
      </trkpt>
      <trkpt lat="40.159650" lon="-5.155417">
        <ele>1272.0</ele>
        <time>2014-05-17T13:14:05Z</time>
      </trkpt>
      <trkpt lat="40.159717" lon="-5.155417">
        <ele>1272.0</ele>
        <time>2014-05-17T13:14:06Z</time>
      </trkpt>
      <trkpt lat="40.159800" lon="-5.155400">
        <ele>1270.0</ele>
        <time>2014-05-17T13:14:07Z</time>
      </trkpt>
      <trkpt lat="40.159883" lon="-5.155383">
        <ele>1269.0</ele>
        <time>2014-05-17T13:14:08Z</time>
      </trkpt>
      <trkpt lat="40.159950" lon="-5.155367">
        <ele>1268.0</ele>
        <time>2014-05-17T13:14:09Z</time>
      </trkpt>
      <trkpt lat="40.160033" lon="-5.155317">
        <ele>1266.0</ele>
        <time>2014-05-17T13:14:11Z</time>
      </trkpt>
      <trkpt lat="40.160050" lon="-5.155283">
        <ele>1263.0</ele>
        <time>2014-05-17T13:14:12Z</time>
      </trkpt>
      <trkpt lat="40.160083" lon="-5.155233">
        <ele>1259.0</ele>
        <time>2014-05-17T13:14:13Z</time>
      </trkpt>
      <trkpt lat="40.160117" lon="-5.155167">
        <ele>1256.0</ele>
        <time>2014-05-17T13:14:14Z</time>
      </trkpt>
      <trkpt lat="40.160133" lon="-5.155117">
        <ele>1252.0</ele>
        <time>2014-05-17T13:14:15Z</time>
      </trkpt>
      <trkpt lat="40.160133" lon="-5.155050">
        <ele>1249.0</ele>
        <time>2014-05-17T13:14:16Z</time>
      </trkpt>
      <trkpt lat="40.160117" lon="-5.154983">
        <ele>1246.0</ele>
        <time>2014-05-17T13:14:17Z</time>
      </trkpt>
      <trkpt lat="40.160100" lon="-5.154933">
        <ele>1243.0</ele>
        <time>2014-05-17T13:14:18Z</time>
      </trkpt>
      <trkpt lat="40.160067" lon="-5.154867">
        <ele>1240.0</ele>
        <time>2014-05-17T13:14:19Z</time>
      </trkpt>
      <trkpt lat="40.160050" lon="-5.154800">
        <ele>1237.0</ele>
        <time>2014-05-17T13:14:20Z</time>
      </trkpt>
      <trkpt lat="40.160017" lon="-5.154733">
        <ele>1234.0</ele>
        <time>2014-05-17T13:14:21Z</time>
      </trkpt>
      <trkpt lat="40.159967" lon="-5.154683">
        <ele>1231.0</ele>
        <time>2014-05-17T13:14:22Z</time>
      </trkpt>
      <trkpt lat="40.159917" lon="-5.154633">
        <ele>1228.0</ele>
        <time>2014-05-17T13:14:23Z</time>
      </trkpt>
      <trkpt lat="40.159867" lon="-5.154600">
        <ele>1225.0</ele>
        <time>2014-05-17T13:14:24Z</time>
      </trkpt>
      <trkpt lat="40.159817" lon="-5.154567">
        <ele>1222.0</ele>
        <time>2014-05-17T13:14:25Z</time>
      </trkpt>
      <trkpt lat="40.159750" lon="-5.154517">
        <ele>1219.0</ele>
        <time>2014-05-17T13:14:26Z</time>
      </trkpt>
      <trkpt lat="40.159667" lon="-5.154483">
        <ele>1215.0</ele>
        <time>2014-05-17T13:14:27Z</time>
      </trkpt>
      <trkpt lat="40.159583" lon="-5.154467">
        <ele>1211.0</ele>
        <time>2014-05-17T13:14:28Z</time>
      </trkpt>
      <trkpt lat="40.159500" lon="-5.154433">
        <ele>1209.0</ele>
        <time>2014-05-17T13:14:29Z</time>
      </trkpt>
      <trkpt lat="40.159417" lon="-5.154417">
        <ele>1206.0</ele>
        <time>2014-05-17T13:14:30Z</time>
      </trkpt>
      <trkpt lat="40.159333" lon="-5.154417">
        <ele>1204.0</ele>
        <time>2014-05-17T13:14:31Z</time>
      </trkpt>
      <trkpt lat="40.159233" lon="-5.154417">
        <ele>1201.0</ele>
        <time>2014-05-17T13:14:32Z</time>
      </trkpt>
      <trkpt lat="40.159150" lon="-5.154417">
        <ele>1199.0</ele>
        <time>2014-05-17T13:14:33Z</time>
      </trkpt>
      <trkpt lat="40.159067" lon="-5.154417">
        <ele>1196.0</ele>
        <time>2014-05-17T13:14:34Z</time>
      </trkpt>
      <trkpt lat="40.158967" lon="-5.154417">
        <ele>1193.0</ele>
        <time>2014-05-17T13:14:35Z</time>
      </trkpt>
      <trkpt lat="40.158883" lon="-5.154433">
        <ele>1191.0</ele>
        <time>2014-05-17T13:14:36Z</time>
      </trkpt>
      <trkpt lat="40.158783" lon="-5.154467">
        <ele>1187.0</ele>
        <time>2014-05-17T13:14:37Z</time>
      </trkpt>
      <trkpt lat="40.158683" lon="-5.154533">
        <ele>1183.0</ele>
        <time>2014-05-17T13:14:38Z</time>
      </trkpt>
      <trkpt lat="40.158600" lon="-5.154617">
        <ele>1179.0</ele>
        <time>2014-05-17T13:14:39Z</time>
      </trkpt>
      <trkpt lat="40.158500" lon="-5.154700">
        <ele>1176.0</ele>
        <time>2014-05-17T13:14:40Z</time>
      </trkpt>
      <trkpt lat="40.158433" lon="-5.154783">
        <ele>1173.0</ele>
        <time>2014-05-17T13:14:41Z</time>
      </trkpt>
      <trkpt lat="40.158350" lon="-5.154867">
        <ele>1171.0</ele>
        <time>2014-05-17T13:14:42Z</time>
      </trkpt>
      <trkpt lat="40.158283" lon="-5.154967">
        <ele>1169.0</ele>
        <time>2014-05-17T13:14:43Z</time>
      </trkpt>
      <trkpt lat="40.158200" lon="-5.155083">
        <ele>1166.0</ele>
        <time>2014-05-17T13:14:44Z</time>
      </trkpt>
      <trkpt lat="40.158133" lon="-5.155217">
        <ele>1164.0</ele>
        <time>2014-05-17T13:14:45Z</time>
      </trkpt>
      <trkpt lat="40.158067" lon="-5.155333">
        <ele>1163.0</ele>
        <time>2014-05-17T13:14:46Z</time>
      </trkpt>
      <trkpt lat="40.158000" lon="-5.155433">
        <ele>1165.0</ele>
        <time>2014-05-17T13:14:47Z</time>
      </trkpt>
      <trkpt lat="40.157950" lon="-5.155550">
        <ele>1165.0</ele>
        <time>2014-05-17T13:14:48Z</time>
      </trkpt>
      <trkpt lat="40.157883" lon="-5.155667">
        <ele>1164.0</ele>
        <time>2014-05-17T13:14:49Z</time>
      </trkpt>
      <trkpt lat="40.157817" lon="-5.155783">
        <ele>1163.0</ele>
        <time>2014-05-17T13:14:50Z</time>
      </trkpt>
      <trkpt lat="40.157767" lon="-5.155900">
        <ele>1162.0</ele>
        <time>2014-05-17T13:14:51Z</time>
      </trkpt>
      <trkpt lat="40.157717" lon="-5.156033">
        <ele>1162.0</ele>
        <time>2014-05-17T13:14:52Z</time>
      </trkpt>
      <trkpt lat="40.157667" lon="-5.156183">
        <ele>1161.0</ele>
        <time>2014-05-17T13:14:53Z</time>
      </trkpt>
      <trkpt lat="40.157617" lon="-5.156333">
        <ele>1160.0</ele>
        <time>2014-05-17T13:14:54Z</time>
      </trkpt>
      <trkpt lat="40.157567" lon="-5.156483">
        <ele>1159.0</ele>
        <time>2014-05-17T13:14:55Z</time>
      </trkpt>
      <trkpt lat="40.157517" lon="-5.156633">
        <ele>1158.0</ele>
        <time>2014-05-17T13:14:56Z</time>
      </trkpt>
      <trkpt lat="40.157467" lon="-5.156783">
        <ele>1158.0</ele>
        <time>2014-05-17T13:14:57Z</time>
      </trkpt>
      <trkpt lat="40.157417" lon="-5.156933">
        <ele>1157.0</ele>
        <time>2014-05-17T13:14:58Z</time>
      </trkpt>
      <trkpt lat="40.157383" lon="-5.157083">
        <ele>1156.0</ele>
        <time>2014-05-17T13:14:59Z</time>
      </trkpt>
      <trkpt lat="40.157350" lon="-5.157250">
        <ele>1155.0</ele>
        <time>2014-05-17T13:15:00Z</time>
      </trkpt>
      <trkpt lat="40.157317" lon="-5.157400">
        <ele>1153.0</ele>
        <time>2014-05-17T13:15:01Z</time>
      </trkpt>
      <trkpt lat="40.157267" lon="-5.157550">
        <ele>1152.0</ele>
        <time>2014-05-17T13:15:02Z</time>
      </trkpt>
      <trkpt lat="40.157233" lon="-5.157700">
        <ele>1151.0</ele>
        <time>2014-05-17T13:15:03Z</time>
      </trkpt>
      <trkpt lat="40.157183" lon="-5.157867">
        <ele>1149.0</ele>
        <time>2014-05-17T13:15:04Z</time>
      </trkpt>
      <trkpt lat="40.157150" lon="-5.158017">
        <ele>1148.0</ele>
        <time>2014-05-17T13:15:05Z</time>
      </trkpt>
      <trkpt lat="40.157117" lon="-5.158167">
        <ele>1147.0</ele>
        <time>2014-05-17T13:15:06Z</time>
      </trkpt>
      <trkpt lat="40.157100" lon="-5.158333">
        <ele>1146.0</ele>
        <time>2014-05-17T13:15:07Z</time>
      </trkpt>
      <trkpt lat="40.157067" lon="-5.158500">
        <ele>1145.0</ele>
        <time>2014-05-17T13:15:08Z</time>
      </trkpt>
      <trkpt lat="40.157033" lon="-5.158667">
        <ele>1143.0</ele>
        <time>2014-05-17T13:15:09Z</time>
      </trkpt>
      <trkpt lat="40.157017" lon="-5.158833">
        <ele>1141.0</ele>
        <time>2014-05-17T13:15:10Z</time>
      </trkpt>
      <trkpt lat="40.157000" lon="-5.159017">
        <ele>1140.0</ele>
        <time>2014-05-17T13:15:11Z</time>
      </trkpt>
      <trkpt lat="40.157000" lon="-5.159183">
        <ele>1139.0</ele>
        <time>2014-05-17T13:15:12Z</time>
      </trkpt>
      <trkpt lat="40.156983" lon="-5.159350">
        <ele>1138.0</ele>
        <time>2014-05-17T13:15:13Z</time>
      </trkpt>
      <trkpt lat="40.156967" lon="-5.159533">
        <ele>1137.0</ele>
        <time>2014-05-17T13:15:14Z</time>
      </trkpt>
      <trkpt lat="40.156950" lon="-5.159717">
        <ele>1135.0</ele>
        <time>2014-05-17T13:15:15Z</time>
      </trkpt>
      <trkpt lat="40.156950" lon="-5.159900">
        <ele>1134.0</ele>
        <time>2014-05-17T13:15:16Z</time>
      </trkpt>
      <trkpt lat="40.156950" lon="-5.160083">
        <ele>1134.0</ele>
        <time>2014-05-17T13:15:17Z</time>
      </trkpt>
      <trkpt lat="40.156950" lon="-5.160233">
        <ele>1135.0</ele>
        <time>2014-05-17T13:15:18Z</time>
      </trkpt>
      <trkpt lat="40.156950" lon="-5.160400">
        <ele>1135.0</ele>
        <time>2014-05-17T13:15:19Z</time>
      </trkpt>
      <trkpt lat="40.156967" lon="-5.160550">
        <ele>1134.0</ele>
        <time>2014-05-17T13:15:20Z</time>
      </trkpt>
      <trkpt lat="40.156967" lon="-5.160717">
        <ele>1132.0</ele>
        <time>2014-05-17T13:15:21Z</time>
      </trkpt>
      <trkpt lat="40.156983" lon="-5.160900">
        <ele>1129.0</ele>
        <time>2014-05-17T13:15:22Z</time>
      </trkpt>
      <trkpt lat="40.157000" lon="-5.161083">
        <ele>1127.0</ele>
        <time>2014-05-17T13:15:23Z</time>
      </trkpt>
      <trkpt lat="40.157033" lon="-5.161267">
        <ele>1125.0</ele>
        <time>2014-05-17T13:15:24Z</time>
      </trkpt>
      <trkpt lat="40.157050" lon="-5.161450">
        <ele>1124.0</ele>
        <time>2014-05-17T13:15:25Z</time>
      </trkpt>
      <trkpt lat="40.157083" lon="-5.161617">
        <ele>1123.0</ele>
        <time>2014-05-17T13:15:26Z</time>
      </trkpt>
      <trkpt lat="40.157117" lon="-5.161783">
        <ele>1122.0</ele>
        <time>2014-05-17T13:15:27Z</time>
      </trkpt>
      <trkpt lat="40.157150" lon="-5.161950">
        <ele>1120.0</ele>
        <time>2014-05-17T13:15:28Z</time>
      </trkpt>
      <trkpt lat="40.157167" lon="-5.162117">
        <ele>1119.0</ele>
        <time>2014-05-17T13:15:29Z</time>
      </trkpt>
      <trkpt lat="40.157167" lon="-5.162267">
        <ele>1119.0</ele>
        <time>2014-05-17T13:15:30Z</time>
      </trkpt>
      <trkpt lat="40.157183" lon="-5.162400">
        <ele>1119.0</ele>
        <time>2014-05-17T13:15:31Z</time>
      </trkpt>
      <trkpt lat="40.157183" lon="-5.162517">
        <ele>1117.0</ele>
        <time>2014-05-17T13:15:32Z</time>
      </trkpt>
      <trkpt lat="40.157200" lon="-5.162667">
        <ele>1115.0</ele>
        <time>2014-05-17T13:15:33Z</time>
      </trkpt>
      <trkpt lat="40.157233" lon="-5.162833">
        <ele>1112.0</ele>
        <time>2014-05-17T13:15:34Z</time>
      </trkpt>
      <trkpt lat="40.157250" lon="-5.163000">
        <ele>1110.0</ele>
        <time>2014-05-17T13:15:35Z</time>
      </trkpt>
      <trkpt lat="40.157267" lon="-5.163150">
        <ele>1110.0</ele>
        <time>2014-05-17T13:15:36Z</time>
      </trkpt>
      <trkpt lat="40.157283" lon="-5.163300">
        <ele>1110.0</ele>
        <time>2014-05-17T13:15:37Z</time>
      </trkpt>
      <trkpt lat="40.157300" lon="-5.163433">
        <ele>1111.0</ele>
        <time>2014-05-17T13:15:38Z</time>
      </trkpt>
      <trkpt lat="40.157317" lon="-5.163567">
        <ele>1112.0</ele>
        <time>2014-05-17T13:15:39Z</time>
      </trkpt>
      <trkpt lat="40.157317" lon="-5.163700">
        <ele>1112.0</ele>
        <time>2014-05-17T13:15:40Z</time>
      </trkpt>
      <trkpt lat="40.157333" lon="-5.163850">
        <ele>1112.0</ele>
        <time>2014-05-17T13:15:41Z</time>
      </trkpt>
      <trkpt lat="40.157350" lon="-5.164000">
        <ele>1112.0</ele>
        <time>2014-05-17T13:15:42Z</time>
      </trkpt>
      <trkpt lat="40.157367" lon="-5.164150">
        <ele>1113.0</ele>
        <time>2014-05-17T13:15:43Z</time>
      </trkpt>
      <trkpt lat="40.157367" lon="-5.164300">
        <ele>1114.0</ele>
        <time>2014-05-17T13:15:44Z</time>
      </trkpt>
      <trkpt lat="40.157383" lon="-5.164433">
        <ele>1115.0</ele>
        <time>2014-05-17T13:15:45Z</time>
      </trkpt>
      <trkpt lat="40.157400" lon="-5.164583">
        <ele>1115.0</ele>
        <time>2014-05-17T13:15:46Z</time>
      </trkpt>
      <trkpt lat="40.157417" lon="-5.164733">
        <ele>1115.0</ele>
        <time>2014-05-17T13:15:47Z</time>
      </trkpt>
      <trkpt lat="40.157433" lon="-5.164883">
        <ele>1115.0</ele>
        <time>2014-05-17T13:15:48Z</time>
      </trkpt>
      <trkpt lat="40.157450" lon="-5.165033">
        <ele>1116.0</ele>
        <time>2014-05-17T13:15:49Z</time>
      </trkpt>
      <trkpt lat="40.157483" lon="-5.165183">
        <ele>1116.0</ele>
        <time>2014-05-17T13:15:50Z</time>
      </trkpt>
      <trkpt lat="40.157500" lon="-5.165333">
        <ele>1116.0</ele>
        <time>2014-05-17T13:15:51Z</time>
      </trkpt>
      <trkpt lat="40.157517" lon="-5.165483">
        <ele>1117.0</ele>
        <time>2014-05-17T13:15:52Z</time>
      </trkpt>
      <trkpt lat="40.157533" lon="-5.165633">
        <ele>1117.0</ele>
        <time>2014-05-17T13:15:53Z</time>
      </trkpt>
      <trkpt lat="40.157550" lon="-5.165800">
        <ele>1117.0</ele>
        <time>2014-05-17T13:15:54Z</time>
      </trkpt>
      <trkpt lat="40.157567" lon="-5.165967">
        <ele>1117.0</ele>
        <time>2014-05-17T13:15:55Z</time>
      </trkpt>
      <trkpt lat="40.157583" lon="-5.166117">
        <ele>1117.0</ele>
        <time>2014-05-17T13:15:56Z</time>
      </trkpt>
      <trkpt lat="40.157600" lon="-5.166267">
        <ele>1118.0</ele>
        <time>2014-05-17T13:15:57Z</time>
      </trkpt>
      <trkpt lat="40.157617" lon="-5.166400">
        <ele>1118.0</ele>
        <time>2014-05-17T13:15:58Z</time>
      </trkpt>
      <trkpt lat="40.157650" lon="-5.166550">
        <ele>1118.0</ele>
        <time>2014-05-17T13:15:59Z</time>
      </trkpt>
      <trkpt lat="40.157683" lon="-5.166683">
        <ele>1118.0</ele>
        <time>2014-05-17T13:16:00Z</time>
      </trkpt>
      <trkpt lat="40.157717" lon="-5.166817">
        <ele>1118.0</ele>
        <time>2014-05-17T13:16:01Z</time>
      </trkpt>
      <trkpt lat="40.157750" lon="-5.166950">
        <ele>1118.0</ele>
        <time>2014-05-17T13:16:02Z</time>
      </trkpt>
      <trkpt lat="40.157783" lon="-5.167067">
        <ele>1118.0</ele>
        <time>2014-05-17T13:16:03Z</time>
      </trkpt>
      <trkpt lat="40.157817" lon="-5.167183">
        <ele>1117.0</ele>
        <time>2014-05-17T13:16:04Z</time>
      </trkpt>
      <trkpt lat="40.157867" lon="-5.167317">
        <ele>1116.0</ele>
        <time>2014-05-17T13:16:05Z</time>
      </trkpt>
      <trkpt lat="40.157933" lon="-5.167433">
        <ele>1115.0</ele>
        <time>2014-05-17T13:16:06Z</time>
      </trkpt>
      <trkpt lat="40.158000" lon="-5.167550">
        <ele>1114.0</ele>
        <time>2014-05-17T13:16:07Z</time>
      </trkpt>
      <trkpt lat="40.158050" lon="-5.167650">
        <ele>1114.0</ele>
        <time>2014-05-17T13:16:08Z</time>
      </trkpt>
      <trkpt lat="40.158100" lon="-5.167767">
        <ele>1113.0</ele>
        <time>2014-05-17T13:16:09Z</time>
      </trkpt>
      <trkpt lat="40.158150" lon="-5.167867">
        <ele>1113.0</ele>
        <time>2014-05-17T13:16:10Z</time>
      </trkpt>
      <trkpt lat="40.158200" lon="-5.167967">
        <ele>1110.0</ele>
        <time>2014-05-17T13:16:11Z</time>
      </trkpt>
      <trkpt lat="40.158250" lon="-5.168083">
        <ele>1107.0</ele>
        <time>2014-05-17T13:16:12Z</time>
      </trkpt>
      <trkpt lat="40.158317" lon="-5.168217">
        <ele>1104.0</ele>
        <time>2014-05-17T13:16:13Z</time>
      </trkpt>
      <trkpt lat="40.158367" lon="-5.168350">
        <ele>1102.0</ele>
        <time>2014-05-17T13:16:14Z</time>
      </trkpt>
      <trkpt lat="40.158367" lon="-5.168667">
        <ele>1098.0</ele>
        <time>2014-05-17T13:16:16Z</time>
      </trkpt>
      <trkpt lat="40.158333" lon="-5.168800">
        <ele>1096.0</ele>
        <time>2014-05-17T13:16:17Z</time>
      </trkpt>
      <trkpt lat="40.158300" lon="-5.168933">
        <ele>1094.0</ele>
        <time>2014-05-17T13:16:18Z</time>
      </trkpt>
      <trkpt lat="40.158200" lon="-5.169150">
        <ele>1090.0</ele>
        <time>2014-05-17T13:16:20Z</time>
      </trkpt>
      <trkpt lat="40.158033" lon="-5.169300">
        <ele>1085.0</ele>
        <time>2014-05-17T13:16:22Z</time>
      </trkpt>
      <trkpt lat="40.157950" lon="-5.169350">
        <ele>1083.0</ele>
        <time>2014-05-17T13:16:23Z</time>
      </trkpt>
      <trkpt lat="40.157883" lon="-5.169383">
        <ele>1082.0</ele>
        <time>2014-05-17T13:16:24Z</time>
      </trkpt>
      <trkpt lat="40.157800" lon="-5.169417">
        <ele>1082.0</ele>
        <time>2014-05-17T13:16:25Z</time>
      </trkpt>
      <trkpt lat="40.157650" lon="-5.169483">
        <ele>1080.0</ele>
        <time>2014-05-17T13:16:27Z</time>
      </trkpt>
      <trkpt lat="40.157583" lon="-5.169500">
        <ele>1082.0</ele>
        <time>2014-05-17T13:16:28Z</time>
      </trkpt>
      <trkpt lat="40.157450" lon="-5.169483">
        <ele>1081.0</ele>
        <time>2014-05-17T13:16:30Z</time>
      </trkpt>
      <trkpt lat="40.157383" lon="-5.169483">
        <ele>1080.0</ele>
        <time>2014-05-17T13:16:31Z</time>
      </trkpt>
      <trkpt lat="40.157333" lon="-5.169467">
        <ele>1079.0</ele>
        <time>2014-05-17T13:16:32Z</time>
      </trkpt>
      <trkpt lat="40.157267" lon="-5.169450">
        <ele>1078.0</ele>
        <time>2014-05-17T13:16:33Z</time>
      </trkpt>
      <trkpt lat="40.157217" lon="-5.169433">
        <ele>1077.0</ele>
        <time>2014-05-17T13:16:34Z</time>
      </trkpt>
      <trkpt lat="40.157167" lon="-5.169400">
        <ele>1077.0</ele>
        <time>2014-05-17T13:16:35Z</time>
      </trkpt>
      <trkpt lat="40.157117" lon="-5.169383">
        <ele>1076.0</ele>
        <time>2014-05-17T13:16:36Z</time>
      </trkpt>
      <trkpt lat="40.157067" lon="-5.169350">
        <ele>1075.0</ele>
        <time>2014-05-17T13:16:37Z</time>
      </trkpt>
      <trkpt lat="40.157017" lon="-5.169333">
        <ele>1075.0</ele>
        <time>2014-05-17T13:16:38Z</time>
      </trkpt>
      <trkpt lat="40.156967" lon="-5.169317">
        <ele>1074.0</ele>
        <time>2014-05-17T13:16:39Z</time>
      </trkpt>
      <trkpt lat="40.156900" lon="-5.169300">
        <ele>1074.0</ele>
        <time>2014-05-17T13:16:40Z</time>
      </trkpt>
      <trkpt lat="40.156850" lon="-5.169300">
        <ele>1073.0</ele>
        <time>2014-05-17T13:16:41Z</time>
      </trkpt>
      <trkpt lat="40.156783" lon="-5.169283">
        <ele>1073.0</ele>
        <time>2014-05-17T13:16:42Z</time>
      </trkpt>
      <trkpt lat="40.156733" lon="-5.169300">
        <ele>1072.0</ele>
        <time>2014-05-17T13:16:43Z</time>
      </trkpt>
      <trkpt lat="40.156667" lon="-5.169317">
        <ele>1071.0</ele>
        <time>2014-05-17T13:16:44Z</time>
      </trkpt>
      <trkpt lat="40.156600" lon="-5.169333">
        <ele>1069.0</ele>
        <time>2014-05-17T13:16:45Z</time>
      </trkpt>
      <trkpt lat="40.156517" lon="-5.169367">
        <ele>1067.0</ele>
        <time>2014-05-17T13:16:46Z</time>
      </trkpt>
      <trkpt lat="40.156417" lon="-5.169383">
        <ele>1065.0</ele>
        <time>2014-05-17T13:16:47Z</time>
      </trkpt>
      <trkpt lat="40.156333" lon="-5.169417">
        <ele>1063.0</ele>
        <time>2014-05-17T13:16:48Z</time>
      </trkpt>
      <trkpt lat="40.156250" lon="-5.169450">
        <ele>1061.0</ele>
        <time>2014-05-17T13:16:49Z</time>
      </trkpt>
      <trkpt lat="40.156167" lon="-5.169483">
        <ele>1060.0</ele>
        <time>2014-05-17T13:16:50Z</time>
      </trkpt>
      <trkpt lat="40.156100" lon="-5.169567">
        <ele>1057.0</ele>
        <time>2014-05-17T13:16:51Z</time>
      </trkpt>
      <trkpt lat="40.156017" lon="-5.169650">
        <ele>1055.0</ele>
        <time>2014-05-17T13:16:52Z</time>
      </trkpt>
      <trkpt lat="40.155917" lon="-5.169733">
        <ele>1053.0</ele>
        <time>2014-05-17T13:16:53Z</time>
      </trkpt>
      <trkpt lat="40.155833" lon="-5.169800">
        <ele>1051.0</ele>
        <time>2014-05-17T13:16:54Z</time>
      </trkpt>
      <trkpt lat="40.155783" lon="-5.169883">
        <ele>1050.0</ele>
        <time>2014-05-17T13:16:55Z</time>
      </trkpt>
      <trkpt lat="40.155733" lon="-5.169983">
        <ele>1049.0</ele>
        <time>2014-05-17T13:16:56Z</time>
      </trkpt>
      <trkpt lat="40.155633" lon="-5.170200">
        <ele>1042.0</ele>
        <time>2014-05-17T13:16:58Z</time>
      </trkpt>
      <trkpt lat="40.155583" lon="-5.170317">
        <ele>1037.0</ele>
        <time>2014-05-17T13:16:59Z</time>
      </trkpt>
      <trkpt lat="40.155517" lon="-5.170433">
        <ele>1034.0</ele>
        <time>2014-05-17T13:17:00Z</time>
      </trkpt>
      <trkpt lat="40.155467" lon="-5.170567">
        <ele>1031.0</ele>
        <time>2014-05-17T13:17:01Z</time>
      </trkpt>
      <trkpt lat="40.155417" lon="-5.170683">
        <ele>1029.0</ele>
        <time>2014-05-17T13:17:02Z</time>
      </trkpt>
      <trkpt lat="40.155383" lon="-5.170817">
        <ele>1026.0</ele>
        <time>2014-05-17T13:17:03Z</time>
      </trkpt>
      <trkpt lat="40.155333" lon="-5.170933">
        <ele>1023.0</ele>
        <time>2014-05-17T13:17:04Z</time>
      </trkpt>
      <trkpt lat="40.155300" lon="-5.171067">
        <ele>1019.0</ele>
        <time>2014-05-17T13:17:05Z</time>
      </trkpt>
      <trkpt lat="40.155250" lon="-5.171200">
        <ele>1015.0</ele>
        <time>2014-05-17T13:17:06Z</time>
      </trkpt>
      <trkpt lat="40.155200" lon="-5.171333">
        <ele>1011.0</ele>
        <time>2014-05-17T13:17:07Z</time>
      </trkpt>
      <trkpt lat="40.155150" lon="-5.171483">
        <ele>1007.0</ele>
        <time>2014-05-17T13:17:08Z</time>
      </trkpt>
      <trkpt lat="40.155100" lon="-5.171617">
        <ele>1005.0</ele>
        <time>2014-05-17T13:17:09Z</time>
      </trkpt>
      <trkpt lat="40.155067" lon="-5.171733">
        <ele>1002.0</ele>
        <time>2014-05-17T13:17:10Z</time>
      </trkpt>
      <trkpt lat="40.155017" lon="-5.171867">
        <ele>998.0</ele>
        <time>2014-05-17T13:17:11Z</time>
      </trkpt>
      <trkpt lat="40.154983" lon="-5.171983">
        <ele>993.0</ele>
        <time>2014-05-17T13:17:12Z</time>
      </trkpt>
      <trkpt lat="40.154933" lon="-5.172117">
        <ele>989.0</ele>
        <time>2014-05-17T13:17:13Z</time>
      </trkpt>
      <trkpt lat="40.154833" lon="-5.172383">
        <ele>981.0</ele>
        <time>2014-05-17T13:17:15Z</time>
      </trkpt>
      <trkpt lat="40.154783" lon="-5.172483">
        <ele>977.0</ele>
        <time>2014-05-17T13:17:16Z</time>
      </trkpt>
      <trkpt lat="40.154750" lon="-5.172600">
        <ele>973.0</ele>
        <time>2014-05-17T13:17:17Z</time>
      </trkpt>
      <trkpt lat="40.154733" lon="-5.172717">
        <ele>971.0</ele>
        <time>2014-05-17T13:17:18Z</time>
      </trkpt>
      <trkpt lat="40.154700" lon="-5.172850">
        <ele>967.0</ele>
        <time>2014-05-17T13:17:19Z</time>
      </trkpt>
      <trkpt lat="40.154700" lon="-5.173000">
        <ele>963.0</ele>
        <time>2014-05-17T13:17:20Z</time>
      </trkpt>
      <trkpt lat="40.154683" lon="-5.173150">
        <ele>959.0</ele>
        <time>2014-05-17T13:17:21Z</time>
      </trkpt>
      <trkpt lat="40.154683" lon="-5.173283">
        <ele>955.0</ele>
        <time>2014-05-17T13:17:22Z</time>
      </trkpt>
      <trkpt lat="40.154700" lon="-5.173417">
        <ele>953.0</ele>
        <time>2014-05-17T13:17:23Z</time>
      </trkpt>
      <trkpt lat="40.154700" lon="-5.173550">
        <ele>950.0</ele>
        <time>2014-05-17T13:17:24Z</time>
      </trkpt>
      <trkpt lat="40.154717" lon="-5.173683">
        <ele>946.0</ele>
        <time>2014-05-17T13:17:25Z</time>
      </trkpt>
      <trkpt lat="40.154733" lon="-5.173833">
        <ele>942.0</ele>
        <time>2014-05-17T13:17:26Z</time>
      </trkpt>
      <trkpt lat="40.154767" lon="-5.173983">
        <ele>939.0</ele>
        <time>2014-05-17T13:17:27Z</time>
      </trkpt>
      <trkpt lat="40.154783" lon="-5.174133">
        <ele>936.0</ele>
        <time>2014-05-17T13:17:28Z</time>
      </trkpt>
      <trkpt lat="40.154800" lon="-5.174267">
        <ele>934.0</ele>
        <time>2014-05-17T13:17:29Z</time>
      </trkpt>
      <trkpt lat="40.154817" lon="-5.174383">
        <ele>933.0</ele>
        <time>2014-05-17T13:17:30Z</time>
      </trkpt>
      <trkpt lat="40.154850" lon="-5.174517">
        <ele>931.0</ele>
        <time>2014-05-17T13:17:31Z</time>
      </trkpt>
      <trkpt lat="40.154883" lon="-5.174650">
        <ele>929.0</ele>
        <time>2014-05-17T13:17:32Z</time>
      </trkpt>
      <trkpt lat="40.154917" lon="-5.174767">
        <ele>926.0</ele>
        <time>2014-05-17T13:17:33Z</time>
      </trkpt>
      <trkpt lat="40.154950" lon="-5.174900">
        <ele>924.0</ele>
        <time>2014-05-17T13:17:34Z</time>
      </trkpt>
      <trkpt lat="40.154967" lon="-5.175050">
        <ele>921.0</ele>
        <time>2014-05-17T13:17:35Z</time>
      </trkpt>
      <trkpt lat="40.155000" lon="-5.175183">
        <ele>919.0</ele>
        <time>2014-05-17T13:17:36Z</time>
      </trkpt>
      <trkpt lat="40.155033" lon="-5.175317">
        <ele>917.0</ele>
        <time>2014-05-17T13:17:37Z</time>
      </trkpt>
      <trkpt lat="40.155067" lon="-5.175450">
        <ele>915.0</ele>
        <time>2014-05-17T13:17:38Z</time>
      </trkpt>
      <trkpt lat="40.155100" lon="-5.175583">
        <ele>914.0</ele>
        <time>2014-05-17T13:17:39Z</time>
      </trkpt>
      <trkpt lat="40.155183" lon="-5.175833">
        <ele>910.0</ele>
        <time>2014-05-17T13:17:41Z</time>
      </trkpt>
      <trkpt lat="40.155217" lon="-5.175967">
        <ele>908.0</ele>
        <time>2014-05-17T13:17:42Z</time>
      </trkpt>
      <trkpt lat="40.155250" lon="-5.176100">
        <ele>906.0</ele>
        <time>2014-05-17T13:17:43Z</time>
      </trkpt>
      <trkpt lat="40.155283" lon="-5.176233">
        <ele>905.0</ele>
        <time>2014-05-17T13:17:44Z</time>
      </trkpt>
      <trkpt lat="40.155317" lon="-5.176383">
        <ele>903.0</ele>
        <time>2014-05-17T13:17:45Z</time>
      </trkpt>
      <trkpt lat="40.155333" lon="-5.176517">
        <ele>901.0</ele>
        <time>2014-05-17T13:17:46Z</time>
      </trkpt>
      <trkpt lat="40.155350" lon="-5.176650">
        <ele>898.0</ele>
        <time>2014-05-17T13:17:47Z</time>
      </trkpt>
      <trkpt lat="40.155367" lon="-5.176800">
        <ele>895.0</ele>
        <time>2014-05-17T13:17:48Z</time>
      </trkpt>
      <trkpt lat="40.155400" lon="-5.176950">
        <ele>891.0</ele>
        <time>2014-05-17T13:17:49Z</time>
      </trkpt>
      <trkpt lat="40.155400" lon="-5.177100">
        <ele>888.0</ele>
        <time>2014-05-17T13:17:50Z</time>
      </trkpt>
      <trkpt lat="40.155417" lon="-5.177250">
        <ele>886.0</ele>
        <time>2014-05-17T13:17:51Z</time>
      </trkpt>
      <trkpt lat="40.155417" lon="-5.177383">
        <ele>884.0</ele>
        <time>2014-05-17T13:17:52Z</time>
      </trkpt>
      <trkpt lat="40.155417" lon="-5.177533">
        <ele>882.0</ele>
        <time>2014-05-17T13:17:53Z</time>
      </trkpt>
      <trkpt lat="40.155417" lon="-5.177683">
        <ele>879.0</ele>
        <time>2014-05-17T13:17:54Z</time>
      </trkpt>
      <trkpt lat="40.155400" lon="-5.177833">
        <ele>877.0</ele>
        <time>2014-05-17T13:17:55Z</time>
      </trkpt>
      <trkpt lat="40.155383" lon="-5.177983">
        <ele>875.0</ele>
        <time>2014-05-17T13:17:56Z</time>
      </trkpt>
      <trkpt lat="40.155367" lon="-5.178117">
        <ele>873.0</ele>
        <time>2014-05-17T13:17:57Z</time>
      </trkpt>
      <trkpt lat="40.155333" lon="-5.178267">
        <ele>872.0</ele>
        <time>2014-05-17T13:17:58Z</time>
      </trkpt>
      <trkpt lat="40.155317" lon="-5.178400">
        <ele>870.0</ele>
        <time>2014-05-17T13:17:59Z</time>
      </trkpt>
      <trkpt lat="40.155283" lon="-5.178533">
        <ele>868.0</ele>
        <time>2014-05-17T13:18:00Z</time>
      </trkpt>
      <trkpt lat="40.155250" lon="-5.178667">
        <ele>866.0</ele>
        <time>2014-05-17T13:18:01Z</time>
      </trkpt>
      <trkpt lat="40.155217" lon="-5.178800">
        <ele>863.0</ele>
        <time>2014-05-17T13:18:02Z</time>
      </trkpt>
      <trkpt lat="40.155167" lon="-5.178950">
        <ele>861.0</ele>
        <time>2014-05-17T13:18:03Z</time>
      </trkpt>
      <trkpt lat="40.155117" lon="-5.179067">
        <ele>859.0</ele>
        <time>2014-05-17T13:18:04Z</time>
      </trkpt>
      <trkpt lat="40.155083" lon="-5.179200">
        <ele>856.0</ele>
        <time>2014-05-17T13:18:05Z</time>
      </trkpt>
      <trkpt lat="40.155033" lon="-5.179333">
        <ele>852.0</ele>
        <time>2014-05-17T13:18:06Z</time>
      </trkpt>
      <trkpt lat="40.154983" lon="-5.179467">
        <ele>848.0</ele>
        <time>2014-05-17T13:18:07Z</time>
      </trkpt>
      <trkpt lat="40.154933" lon="-5.179617">
        <ele>845.0</ele>
        <time>2014-05-17T13:18:08Z</time>
      </trkpt>
      <trkpt lat="40.154900" lon="-5.179750">
        <ele>843.0</ele>
        <time>2014-05-17T13:18:09Z</time>
      </trkpt>
      <trkpt lat="40.154867" lon="-5.179883">
        <ele>841.0</ele>
        <time>2014-05-17T13:18:10Z</time>
      </trkpt>
      <trkpt lat="40.154833" lon="-5.180000">
        <ele>839.0</ele>
        <time>2014-05-17T13:18:11Z</time>
      </trkpt>
      <trkpt lat="40.154783" lon="-5.180117">
        <ele>836.0</ele>
        <time>2014-05-17T13:18:12Z</time>
      </trkpt>
      <trkpt lat="40.154683" lon="-5.180383">
        <ele>829.0</ele>
        <time>2014-05-17T13:18:14Z</time>
      </trkpt>
      <trkpt lat="40.154633" lon="-5.180517">
        <ele>826.0</ele>
        <time>2014-05-17T13:18:15Z</time>
      </trkpt>
      <trkpt lat="40.154567" lon="-5.180633">
        <ele>823.0</ele>
        <time>2014-05-17T13:18:16Z</time>
      </trkpt>
      <trkpt lat="40.154500" lon="-5.180733">
        <ele>821.0</ele>
        <time>2014-05-17T13:18:17Z</time>
      </trkpt>
      <trkpt lat="40.154367" lon="-5.180900">
        <ele>816.0</ele>
        <time>2014-05-17T13:18:19Z</time>
      </trkpt>
      <trkpt lat="40.154283" lon="-5.181000">
        <ele>813.0</ele>
        <time>2014-05-17T13:18:20Z</time>
      </trkpt>
      <trkpt lat="40.154217" lon="-5.181083">
        <ele>810.0</ele>
        <time>2014-05-17T13:18:21Z</time>
      </trkpt>
      <trkpt lat="40.154133" lon="-5.181167">
        <ele>808.0</ele>
        <time>2014-05-17T13:18:22Z</time>
      </trkpt>
      <trkpt lat="40.154067" lon="-5.181250">
        <ele>805.0</ele>
        <time>2014-05-17T13:18:23Z</time>
      </trkpt>
      <trkpt lat="40.154000" lon="-5.181333">
        <ele>802.0</ele>
        <time>2014-05-17T13:18:24Z</time>
      </trkpt>
      <trkpt lat="40.153933" lon="-5.181417">
        <ele>799.0</ele>
        <time>2014-05-17T13:18:25Z</time>
      </trkpt>
      <trkpt lat="40.153850" lon="-5.181500">
        <ele>796.0</ele>
        <time>2014-05-17T13:18:26Z</time>
      </trkpt>
      <trkpt lat="40.153717" lon="-5.181667">
        <ele>791.0</ele>
        <time>2014-05-17T13:18:28Z</time>
      </trkpt>
      <trkpt lat="40.153667" lon="-5.181750">
        <ele>789.0</ele>
        <time>2014-05-17T13:18:29Z</time>
      </trkpt>
      <trkpt lat="40.153617" lon="-5.181833">
        <ele>788.0</ele>
        <time>2014-05-17T13:18:30Z</time>
      </trkpt>
      <trkpt lat="40.153583" lon="-5.181933">
        <ele>785.0</ele>
        <time>2014-05-17T13:18:31Z</time>
      </trkpt>
      <trkpt lat="40.153533" lon="-5.182033">
        <ele>782.0</ele>
        <time>2014-05-17T13:18:32Z</time>
      </trkpt>
      <trkpt lat="40.153467" lon="-5.182133">
        <ele>778.0</ele>
        <time>2014-05-17T13:18:33Z</time>
      </trkpt>
      <trkpt lat="40.153400" lon="-5.182233">
        <ele>775.0</ele>
        <time>2014-05-17T13:18:34Z</time>
      </trkpt>
      <trkpt lat="40.153350" lon="-5.182333">
        <ele>771.0</ele>
        <time>2014-05-17T13:18:35Z</time>
      </trkpt>
      <trkpt lat="40.153283" lon="-5.182433">
        <ele>767.0</ele>
        <time>2014-05-17T13:18:36Z</time>
      </trkpt>
      <trkpt lat="40.153117" lon="-5.182783">
        <ele>757.0</ele>
        <time>2014-05-17T13:18:39Z</time>
      </trkpt>
      <trkpt lat="40.153050" lon="-5.182900">
        <ele>754.0</ele>
        <time>2014-05-17T13:18:40Z</time>
      </trkpt>
      <trkpt lat="40.152950" lon="-5.183133">
        <ele>749.0</ele>
        <time>2014-05-17T13:18:42Z</time>
      </trkpt>
      <trkpt lat="40.152900" lon="-5.183250">
        <ele>747.0</ele>
        <time>2014-05-17T13:18:43Z</time>
      </trkpt>
      <trkpt lat="40.152800" lon="-5.183500">
        <ele>741.0</ele>
        <time>2014-05-17T13:18:45Z</time>
      </trkpt>
      <trkpt lat="40.152750" lon="-5.183633">
        <ele>737.0</ele>
        <time>2014-05-17T13:18:46Z</time>
      </trkpt>
      <trkpt lat="40.152700" lon="-5.183767">
        <ele>733.0</ele>
        <time>2014-05-17T13:18:47Z</time>
      </trkpt>
      <trkpt lat="40.152633" lon="-5.183900">
        <ele>729.0</ele>
        <time>2014-05-17T13:18:48Z</time>
      </trkpt>
      <trkpt lat="40.152583" lon="-5.184017">
        <ele>726.0</ele>
        <time>2014-05-17T13:18:49Z</time>
      </trkpt>
      <trkpt lat="40.152550" lon="-5.184133">
        <ele>723.0</ele>
        <time>2014-05-17T13:18:50Z</time>
      </trkpt>
      <trkpt lat="40.152500" lon="-5.184250">
        <ele>720.0</ele>
        <time>2014-05-17T13:18:51Z</time>
      </trkpt>
      <trkpt lat="40.152467" lon="-5.184383">
        <ele>716.0</ele>
        <time>2014-05-17T13:18:52Z</time>
      </trkpt>
      <trkpt lat="40.152433" lon="-5.184517">
        <ele>712.0</ele>
        <time>2014-05-17T13:18:53Z</time>
      </trkpt>
      <trkpt lat="40.152417" lon="-5.184650">
        <ele>708.0</ele>
        <time>2014-05-17T13:18:54Z</time>
      </trkpt>
      <trkpt lat="40.152383" lon="-5.184800">
        <ele>704.0</ele>
        <time>2014-05-17T13:18:55Z</time>
      </trkpt>
      <trkpt lat="40.152333" lon="-5.185067">
        <ele>696.0</ele>
        <time>2014-05-17T13:18:57Z</time>
      </trkpt>
      <trkpt lat="40.152283" lon="-5.185200">
        <ele>692.0</ele>
        <time>2014-05-17T13:18:58Z</time>
      </trkpt>
      <trkpt lat="40.152233" lon="-5.185317">
        <ele>688.0</ele>
        <time>2014-05-17T13:18:59Z</time>
      </trkpt>
      <trkpt lat="40.152167" lon="-5.185450">
        <ele>684.0</ele>
        <time>2014-05-17T13:19:00Z</time>
      </trkpt>
      <trkpt lat="40.152100" lon="-5.185567">
        <ele>679.0</ele>
        <time>2014-05-17T13:19:01Z</time>
      </trkpt>
      <trkpt lat="40.152033" lon="-5.185683">
        <ele>676.0</ele>
        <time>2014-05-17T13:19:02Z</time>
      </trkpt>
      <trkpt lat="40.151983" lon="-5.185783">
        <ele>672.0</ele>
        <time>2014-05-17T13:19:03Z</time>
      </trkpt>
      <trkpt lat="40.151933" lon="-5.185900">
        <ele>669.0</ele>
        <time>2014-05-17T13:19:04Z</time>
      </trkpt>
      <trkpt lat="40.151867" lon="-5.186017">
        <ele>665.0</ele>
        <time>2014-05-17T13:19:05Z</time>
      </trkpt>
      <trkpt lat="40.151817" lon="-5.186133">
        <ele>661.0</ele>
        <time>2014-05-17T13:19:06Z</time>
      </trkpt>
      <trkpt lat="40.151767" lon="-5.186267">
        <ele>657.0</ele>
        <time>2014-05-17T13:19:07Z</time>
      </trkpt>
      <trkpt lat="40.151733" lon="-5.186383">
        <ele>653.0</ele>
        <time>2014-05-17T13:19:08Z</time>
      </trkpt>
      <trkpt lat="40.151683" lon="-5.186500">
        <ele>650.0</ele>
        <time>2014-05-17T13:19:09Z</time>
      </trkpt>
      <trkpt lat="40.151633" lon="-5.186600">
        <ele>647.0</ele>
        <time>2014-05-17T13:19:10Z</time>
      </trkpt>
      <trkpt lat="40.151583" lon="-5.186700">
        <ele>644.0</ele>
        <time>2014-05-17T13:19:11Z</time>
      </trkpt>
      <trkpt lat="40.151533" lon="-5.186817">
        <ele>640.0</ele>
        <time>2014-05-17T13:19:12Z</time>
      </trkpt>
      <trkpt lat="40.151417" lon="-5.187033">
        <ele>633.0</ele>
        <time>2014-05-17T13:19:14Z</time>
      </trkpt>
      <trkpt lat="40.151350" lon="-5.187133">
        <ele>630.0</ele>
        <time>2014-05-17T13:19:15Z</time>
      </trkpt>
      <trkpt lat="40.151300" lon="-5.187250">
        <ele>627.0</ele>
        <time>2014-05-17T13:19:16Z</time>
      </trkpt>
      <trkpt lat="40.151233" lon="-5.187367">
        <ele>623.0</ele>
        <time>2014-05-17T13:19:17Z</time>
      </trkpt>
      <trkpt lat="40.151117" lon="-5.187600">
        <ele>616.0</ele>
        <time>2014-05-17T13:19:19Z</time>
      </trkpt>
      <trkpt lat="40.151067" lon="-5.187717">
        <ele>613.0</ele>
        <time>2014-05-17T13:19:20Z</time>
      </trkpt>
      <trkpt lat="40.151017" lon="-5.187833">
        <ele>612.0</ele>
        <time>2014-05-17T13:19:21Z</time>
      </trkpt>
      <trkpt lat="40.150983" lon="-5.187917">
        <ele>611.0</ele>
        <time>2014-05-17T13:19:22Z</time>
      </trkpt>
      <trkpt lat="40.150933" lon="-5.188017">
        <ele>609.0</ele>
        <time>2014-05-17T13:19:23Z</time>
      </trkpt>
      <trkpt lat="40.150883" lon="-5.188117">
        <ele>607.0</ele>
        <time>2014-05-17T13:19:24Z</time>
      </trkpt>
      <trkpt lat="40.150833" lon="-5.188233">
        <ele>604.0</ele>
        <time>2014-05-17T13:19:25Z</time>
      </trkpt>
      <trkpt lat="40.150767" lon="-5.188350">
        <ele>600.0</ele>
        <time>2014-05-17T13:19:26Z</time>
      </trkpt>
      <trkpt lat="40.150717" lon="-5.188450">
        <ele>598.0</ele>
        <time>2014-05-17T13:19:27Z</time>
      </trkpt>
      <trkpt lat="40.150667" lon="-5.188550">
        <ele>596.0</ele>
        <time>2014-05-17T13:19:28Z</time>
      </trkpt>
      <trkpt lat="40.150617" lon="-5.188633">
        <ele>594.0</ele>
        <time>2014-05-17T13:19:29Z</time>
      </trkpt>
      <trkpt lat="40.150567" lon="-5.188733">
        <ele>592.0</ele>
        <time>2014-05-17T13:19:30Z</time>
      </trkpt>
      <trkpt lat="40.150500" lon="-5.188833">
        <ele>590.0</ele>
        <time>2014-05-17T13:19:31Z</time>
      </trkpt>
      <trkpt lat="40.150433" lon="-5.188933">
        <ele>588.0</ele>
        <time>2014-05-17T13:19:32Z</time>
      </trkpt>
      <trkpt lat="40.150383" lon="-5.189050">
        <ele>586.0</ele>
        <time>2014-05-17T13:19:33Z</time>
      </trkpt>
      <trkpt lat="40.150317" lon="-5.189150">
        <ele>585.0</ele>
        <time>2014-05-17T13:19:34Z</time>
      </trkpt>
      <trkpt lat="40.150267" lon="-5.189267">
        <ele>585.0</ele>
        <time>2014-05-17T13:19:35Z</time>
      </trkpt>
      <trkpt lat="40.150217" lon="-5.189383">
        <ele>584.0</ele>
        <time>2014-05-17T13:19:36Z</time>
      </trkpt>
      <trkpt lat="40.150167" lon="-5.189500">
        <ele>582.0</ele>
        <time>2014-05-17T13:19:37Z</time>
      </trkpt>
      <trkpt lat="40.150100" lon="-5.189617">
        <ele>581.0</ele>
        <time>2014-05-17T13:19:38Z</time>
      </trkpt>
      <trkpt lat="40.150050" lon="-5.189750">
        <ele>581.0</ele>
        <time>2014-05-17T13:19:39Z</time>
      </trkpt>
      <trkpt lat="40.149983" lon="-5.189883">
        <ele>581.0</ele>
        <time>2014-05-17T13:19:40Z</time>
      </trkpt>
      <trkpt lat="40.149933" lon="-5.190000">
        <ele>583.0</ele>
        <time>2014-05-17T13:19:41Z</time>
      </trkpt>
      <trkpt lat="40.149883" lon="-5.190100">
        <ele>584.0</ele>
        <time>2014-05-17T13:19:42Z</time>
      </trkpt>
      <trkpt lat="40.149833" lon="-5.190200">
        <ele>585.0</ele>
        <time>2014-05-17T13:19:43Z</time>
      </trkpt>
      <trkpt lat="40.149800" lon="-5.190300">
        <ele>584.0</ele>
        <time>2014-05-17T13:19:44Z</time>
      </trkpt>
      <trkpt lat="40.149767" lon="-5.190417">
        <ele>583.0</ele>
        <time>2014-05-17T13:19:45Z</time>
      </trkpt>
      <trkpt lat="40.149633" lon="-5.190667">
        <ele>579.0</ele>
        <time>2014-05-17T13:19:47Z</time>
      </trkpt>
      <trkpt lat="40.149567" lon="-5.190800">
        <ele>577.0</ele>
        <time>2014-05-17T13:19:48Z</time>
      </trkpt>
      <trkpt lat="40.149500" lon="-5.190900">
        <ele>575.0</ele>
        <time>2014-05-17T13:19:49Z</time>
      </trkpt>
      <trkpt lat="40.149450" lon="-5.191000">
        <ele>573.0</ele>
        <time>2014-05-17T13:19:50Z</time>
      </trkpt>
      <trkpt lat="40.149383" lon="-5.191117">
        <ele>570.0</ele>
        <time>2014-05-17T13:19:51Z</time>
      </trkpt>
      <trkpt lat="40.149333" lon="-5.191233">
        <ele>567.0</ele>
        <time>2014-05-17T13:19:52Z</time>
      </trkpt>
      <trkpt lat="40.149250" lon="-5.191367">
        <ele>563.0</ele>
        <time>2014-05-17T13:19:53Z</time>
      </trkpt>
      <trkpt lat="40.149183" lon="-5.191483">
        <ele>560.0</ele>
        <time>2014-05-17T13:19:54Z</time>
      </trkpt>
      <trkpt lat="40.149100" lon="-5.191600">
        <ele>557.0</ele>
        <time>2014-05-17T13:19:55Z</time>
      </trkpt>
      <trkpt lat="40.149033" lon="-5.191700">
        <ele>554.0</ele>
        <time>2014-05-17T13:19:56Z</time>
      </trkpt>
      <trkpt lat="40.148967" lon="-5.191800">
        <ele>552.0</ele>
        <time>2014-05-17T13:19:57Z</time>
      </trkpt>
      <trkpt lat="40.148883" lon="-5.191900">
        <ele>548.0</ele>
        <time>2014-05-17T13:19:58Z</time>
      </trkpt>
      <trkpt lat="40.148800" lon="-5.192017">
        <ele>545.0</ele>
        <time>2014-05-17T13:19:59Z</time>
      </trkpt>
      <trkpt lat="40.148717" lon="-5.192133">
        <ele>541.0</ele>
        <time>2014-05-17T13:20:00Z</time>
      </trkpt>
      <trkpt lat="40.148650" lon="-5.192250">
        <ele>538.0</ele>
        <time>2014-05-17T13:20:01Z</time>
      </trkpt>
      <trkpt lat="40.148567" lon="-5.192350">
        <ele>536.0</ele>
        <time>2014-05-17T13:20:02Z</time>
      </trkpt>
      <trkpt lat="40.148483" lon="-5.192450">
        <ele>535.0</ele>
        <time>2014-05-17T13:20:03Z</time>
      </trkpt>
      <trkpt lat="40.148400" lon="-5.192550">
        <ele>533.0</ele>
        <time>2014-05-17T13:20:04Z</time>
      </trkpt>
      <trkpt lat="40.148317" lon="-5.192650">
        <ele>531.0</ele>
        <time>2014-05-17T13:20:05Z</time>
      </trkpt>
      <trkpt lat="40.148233" lon="-5.192733">
        <ele>531.0</ele>
        <time>2014-05-17T13:20:06Z</time>
      </trkpt>
      <trkpt lat="40.148150" lon="-5.192817">
        <ele>530.0</ele>
        <time>2014-05-17T13:20:07Z</time>
      </trkpt>
      <trkpt lat="40.148050" lon="-5.192900">
        <ele>530.0</ele>
        <time>2014-05-17T13:20:08Z</time>
      </trkpt>
      <trkpt lat="40.147967" lon="-5.192967">
        <ele>530.0</ele>
        <time>2014-05-17T13:20:09Z</time>
      </trkpt>
      <trkpt lat="40.147883" lon="-5.193067">
        <ele>528.0</ele>
        <time>2014-05-17T13:20:10Z</time>
      </trkpt>
      <trkpt lat="40.147800" lon="-5.193167">
        <ele>527.0</ele>
        <time>2014-05-17T13:20:11Z</time>
      </trkpt>
      <trkpt lat="40.147717" lon="-5.193267">
        <ele>526.0</ele>
        <time>2014-05-17T13:20:12Z</time>
      </trkpt>
      <trkpt lat="40.147650" lon="-5.193383">
        <ele>526.0</ele>
        <time>2014-05-17T13:20:13Z</time>
      </trkpt>
      <trkpt lat="40.147600" lon="-5.193483">
        <ele>527.0</ele>
        <time>2014-05-17T13:20:14Z</time>
      </trkpt>
      <trkpt lat="40.147533" lon="-5.193583">
        <ele>527.0</ele>
        <time>2014-05-17T13:20:15Z</time>
      </trkpt>
      <trkpt lat="40.147483" lon="-5.193683">
        <ele>527.0</ele>
        <time>2014-05-17T13:20:16Z</time>
      </trkpt>
      <trkpt lat="40.147417" lon="-5.193817">
        <ele>526.0</ele>
        <time>2014-05-17T13:20:17Z</time>
      </trkpt>
      <trkpt lat="40.147367" lon="-5.193933">
        <ele>525.0</ele>
        <time>2014-05-17T13:20:18Z</time>
      </trkpt>
      <trkpt lat="40.147300" lon="-5.194050">
        <ele>524.0</ele>
        <time>2014-05-17T13:20:19Z</time>
      </trkpt>
      <trkpt lat="40.147233" lon="-5.194167">
        <ele>524.0</ele>
        <time>2014-05-17T13:20:20Z</time>
      </trkpt>
      <trkpt lat="40.147183" lon="-5.194267">
        <ele>525.0</ele>
        <time>2014-05-17T13:20:21Z</time>
      </trkpt>
      <trkpt lat="40.147133" lon="-5.194367">
        <ele>526.0</ele>
        <time>2014-05-17T13:20:22Z</time>
      </trkpt>
      <trkpt lat="40.147100" lon="-5.194500">
        <ele>527.0</ele>
        <time>2014-05-17T13:20:23Z</time>
      </trkpt>
      <trkpt lat="40.147100" lon="-5.194617">
        <ele>527.0</ele>
        <time>2014-05-17T13:20:24Z</time>
      </trkpt>
      <trkpt lat="40.147100" lon="-5.194733">
        <ele>527.0</ele>
        <time>2014-05-17T13:20:25Z</time>
      </trkpt>
      <trkpt lat="40.147083" lon="-5.194850">
        <ele>528.0</ele>
        <time>2014-05-17T13:20:26Z</time>
      </trkpt>
      <trkpt lat="40.147100" lon="-5.194950">
        <ele>530.0</ele>
        <time>2014-05-17T13:20:27Z</time>
      </trkpt>
      <trkpt lat="40.147100" lon="-5.195050">
        <ele>531.0</ele>
        <time>2014-05-17T13:20:28Z</time>
      </trkpt>
      <trkpt lat="40.147117" lon="-5.195150">
        <ele>530.0</ele>
        <time>2014-05-17T13:20:29Z</time>
      </trkpt>
      <trkpt lat="40.147133" lon="-5.195250">
        <ele>528.0</ele>
        <time>2014-05-17T13:20:30Z</time>
      </trkpt>
      <trkpt lat="40.147183" lon="-5.195367">
        <ele>526.0</ele>
        <time>2014-05-17T13:20:31Z</time>
      </trkpt>
      <trkpt lat="40.147233" lon="-5.195467">
        <ele>523.0</ele>
        <time>2014-05-17T13:20:32Z</time>
      </trkpt>
      <trkpt lat="40.147300" lon="-5.195583">
        <ele>520.0</ele>
        <time>2014-05-17T13:20:33Z</time>
      </trkpt>
      <trkpt lat="40.147367" lon="-5.195667">
        <ele>517.0</ele>
        <time>2014-05-17T13:20:34Z</time>
      </trkpt>
      <trkpt lat="40.147450" lon="-5.195750">
        <ele>516.0</ele>
        <time>2014-05-17T13:20:35Z</time>
      </trkpt>
      <trkpt lat="40.147533" lon="-5.195800">
        <ele>514.0</ele>
        <time>2014-05-17T13:20:36Z</time>
      </trkpt>
      <trkpt lat="40.147600" lon="-5.195833">
        <ele>514.0</ele>
        <time>2014-05-17T13:20:37Z</time>
      </trkpt>
      <trkpt lat="40.147667" lon="-5.195850">
        <ele>515.0</ele>
        <time>2014-05-17T13:20:38Z</time>
      </trkpt>
      <trkpt lat="40.147817" lon="-5.195833">
        <ele>516.0</ele>
        <time>2014-05-17T13:20:40Z</time>
      </trkpt>
      <trkpt lat="40.147983" lon="-5.195667">
        <ele>521.0</ele>
        <time>2014-05-17T13:20:44Z</time>
      </trkpt>
      <trkpt lat="40.148033" lon="-5.195600">
        <ele>519.0</ele>
        <time>2014-05-17T13:20:45Z</time>
      </trkpt>
      <trkpt lat="40.148083" lon="-5.195517">
        <ele>519.0</ele>
        <time>2014-05-17T13:20:46Z</time>
      </trkpt>
      <trkpt lat="40.148100" lon="-5.195433">
        <ele>519.0</ele>
        <time>2014-05-17T13:20:47Z</time>
      </trkpt>
      <trkpt lat="40.148117" lon="-5.195367">
        <ele>520.0</ele>
        <time>2014-05-17T13:20:48Z</time>
      </trkpt>
      <trkpt lat="40.148100" lon="-5.195300">
        <ele>520.0</ele>
        <time>2014-05-17T13:20:49Z</time>
      </trkpt>
      <trkpt lat="40.148083" lon="-5.195200">
        <ele>520.0</ele>
        <time>2014-05-17T13:20:50Z</time>
      </trkpt>
      <trkpt lat="40.148050" lon="-5.195100">
        <ele>519.0</ele>
        <time>2014-05-17T13:20:51Z</time>
      </trkpt>
      <trkpt lat="40.148017" lon="-5.195017">
        <ele>519.0</ele>
        <time>2014-05-17T13:20:52Z</time>
      </trkpt>
      <trkpt lat="40.147967" lon="-5.194933">
        <ele>520.0</ele>
        <time>2014-05-17T13:20:53Z</time>
      </trkpt>
      <trkpt lat="40.147917" lon="-5.194883">
        <ele>521.0</ele>
        <time>2014-05-17T13:20:54Z</time>
      </trkpt>
      <trkpt lat="40.147833" lon="-5.194867">
        <ele>520.0</ele>
        <time>2014-05-17T13:20:55Z</time>
      </trkpt>
      <trkpt lat="40.147750" lon="-5.194850">
        <ele>519.0</ele>
        <time>2014-05-17T13:20:56Z</time>
      </trkpt>
      <trkpt lat="40.147633" lon="-5.194833">
        <ele>518.0</ele>
        <time>2014-05-17T13:20:57Z</time>
      </trkpt>
      <trkpt lat="40.147533" lon="-5.194817">
        <ele>518.0</ele>
        <time>2014-05-17T13:20:58Z</time>
      </trkpt>
      <trkpt lat="40.147433" lon="-5.194833">
        <ele>520.0</ele>
        <time>2014-05-17T13:20:59Z</time>
      </trkpt>
      <trkpt lat="40.147350" lon="-5.194850">
        <ele>521.0</ele>
        <time>2014-05-17T13:21:00Z</time>
      </trkpt>
      <trkpt lat="40.147267" lon="-5.194883">
        <ele>521.0</ele>
        <time>2014-05-17T13:21:01Z</time>
      </trkpt>
      <trkpt lat="40.147183" lon="-5.194933">
        <ele>519.0</ele>
        <time>2014-05-17T13:21:02Z</time>
      </trkpt>
      <trkpt lat="40.147083" lon="-5.195000">
        <ele>518.0</ele>
        <time>2014-05-17T13:21:03Z</time>
      </trkpt>
      <trkpt lat="40.146967" lon="-5.195067">
        <ele>518.0</ele>
        <time>2014-05-17T13:21:04Z</time>
      </trkpt>
      <trkpt lat="40.146900" lon="-5.195167">
        <ele>518.0</ele>
        <time>2014-05-17T13:21:05Z</time>
      </trkpt>
      <trkpt lat="40.146833" lon="-5.195250">
        <ele>519.0</ele>
        <time>2014-05-17T13:21:06Z</time>
      </trkpt>
      <trkpt lat="40.146767" lon="-5.195350">
        <ele>520.0</ele>
        <time>2014-05-17T13:21:07Z</time>
      </trkpt>
      <trkpt lat="40.146717" lon="-5.195467">
        <ele>520.0</ele>
        <time>2014-05-17T13:21:08Z</time>
      </trkpt>
      <trkpt lat="40.146650" lon="-5.195583">
        <ele>520.0</ele>
        <time>2014-05-17T13:21:09Z</time>
      </trkpt>
      <trkpt lat="40.146600" lon="-5.195733">
        <ele>520.0</ele>
        <time>2014-05-17T13:21:10Z</time>
      </trkpt>
      <trkpt lat="40.146550" lon="-5.195867">
        <ele>520.0</ele>
        <time>2014-05-17T13:21:11Z</time>
      </trkpt>
      <trkpt lat="40.146500" lon="-5.195983">
        <ele>521.0</ele>
        <time>2014-05-17T13:21:12Z</time>
      </trkpt>
      <trkpt lat="40.146467" lon="-5.196117">
        <ele>521.0</ele>
        <time>2014-05-17T13:21:13Z</time>
      </trkpt>
      <trkpt lat="40.146417" lon="-5.196267">
        <ele>522.0</ele>
        <time>2014-05-17T13:21:14Z</time>
      </trkpt>
      <trkpt lat="40.146400" lon="-5.196417">
        <ele>522.0</ele>
        <time>2014-05-17T13:21:15Z</time>
      </trkpt>
      <trkpt lat="40.146383" lon="-5.196583">
        <ele>523.0</ele>
        <time>2014-05-17T13:21:16Z</time>
      </trkpt>
      <trkpt lat="40.146383" lon="-5.196733">
        <ele>525.0</ele>
        <time>2014-05-17T13:21:17Z</time>
      </trkpt>
      <trkpt lat="40.146383" lon="-5.196883">
        <ele>527.0</ele>
        <time>2014-05-17T13:21:18Z</time>
      </trkpt>
      <trkpt lat="40.146383" lon="-5.197033">
        <ele>529.0</ele>
        <time>2014-05-17T13:21:19Z</time>
      </trkpt>
      <trkpt lat="40.146383" lon="-5.197167">
        <ele>530.0</ele>
        <time>2014-05-17T13:21:20Z</time>
      </trkpt>
      <trkpt lat="40.146400" lon="-5.197333">
        <ele>531.0</ele>
        <time>2014-05-17T13:21:21Z</time>
      </trkpt>
      <trkpt lat="40.146433" lon="-5.197467">
        <ele>533.0</ele>
        <time>2014-05-17T13:21:22Z</time>
      </trkpt>
      <trkpt lat="40.146450" lon="-5.197600">
        <ele>535.0</ele>
        <time>2014-05-17T13:21:23Z</time>
      </trkpt>
      <trkpt lat="40.146483" lon="-5.197733">
        <ele>537.0</ele>
        <time>2014-05-17T13:21:24Z</time>
      </trkpt>
      <trkpt lat="40.146517" lon="-5.197850">
        <ele>539.0</ele>
        <time>2014-05-17T13:21:25Z</time>
      </trkpt>
      <trkpt lat="40.146550" lon="-5.197983">
        <ele>539.0</ele>
        <time>2014-05-17T13:21:26Z</time>
      </trkpt>
      <trkpt lat="40.146617" lon="-5.198100">
        <ele>539.0</ele>
        <time>2014-05-17T13:21:27Z</time>
      </trkpt>
      <trkpt lat="40.146683" lon="-5.198217">
        <ele>540.0</ele>
        <time>2014-05-17T13:21:28Z</time>
      </trkpt>
      <trkpt lat="40.146750" lon="-5.198300">
        <ele>542.0</ele>
        <time>2014-05-17T13:21:29Z</time>
      </trkpt>
      <trkpt lat="40.146817" lon="-5.198367">
        <ele>544.0</ele>
        <time>2014-05-17T13:21:30Z</time>
      </trkpt>
      <trkpt lat="40.146883" lon="-5.198433">
        <ele>545.0</ele>
        <time>2014-05-17T13:21:31Z</time>
      </trkpt>
      <trkpt lat="40.146967" lon="-5.198467">
        <ele>547.0</ele>
        <time>2014-05-17T13:21:32Z</time>
      </trkpt>
      <trkpt lat="40.147050" lon="-5.198483">
        <ele>548.0</ele>
        <time>2014-05-17T13:21:33Z</time>
      </trkpt>
      <trkpt lat="40.147133" lon="-5.198500">
        <ele>550.0</ele>
        <time>2014-05-17T13:21:34Z</time>
      </trkpt>
      <trkpt lat="40.147183" lon="-5.198483">
        <ele>553.0</ele>
        <time>2014-05-17T13:21:35Z</time>
      </trkpt>
      <trkpt lat="40.147250" lon="-5.198450">
        <ele>555.0</ele>
        <time>2014-05-17T13:21:36Z</time>
      </trkpt>
      <trkpt lat="40.147300" lon="-5.198417">
        <ele>556.0</ele>
        <time>2014-05-17T13:21:37Z</time>
      </trkpt>
      <trkpt lat="40.147367" lon="-5.198350">
        <ele>557.0</ele>
        <time>2014-05-17T13:21:38Z</time>
      </trkpt>
      <trkpt lat="40.147433" lon="-5.198300">
        <ele>557.0</ele>
        <time>2014-05-17T13:21:39Z</time>
      </trkpt>
      <trkpt lat="40.147500" lon="-5.198233">
        <ele>556.0</ele>
        <time>2014-05-17T13:21:40Z</time>
      </trkpt>
      <trkpt lat="40.147567" lon="-5.198167">
        <ele>557.0</ele>
        <time>2014-05-17T13:21:41Z</time>
      </trkpt>
      <trkpt lat="40.147617" lon="-5.197983">
        <ele>558.0</ele>
        <time>2014-05-17T13:21:43Z</time>
      </trkpt>
      <trkpt lat="40.147617" lon="-5.197900">
        <ele>560.0</ele>
        <time>2014-05-17T13:21:44Z</time>
      </trkpt>
      <trkpt lat="40.147617" lon="-5.197817">
        <ele>561.0</ele>
        <time>2014-05-17T13:21:45Z</time>
      </trkpt>
      <trkpt lat="40.147583" lon="-5.197733">
        <ele>562.0</ele>
        <time>2014-05-17T13:21:46Z</time>
      </trkpt>
      <trkpt lat="40.147533" lon="-5.197633">
        <ele>560.0</ele>
        <time>2014-05-17T13:21:47Z</time>
      </trkpt>
      <trkpt lat="40.147467" lon="-5.197533">
        <ele>559.0</ele>
        <time>2014-05-17T13:21:48Z</time>
      </trkpt>
      <trkpt lat="40.147383" lon="-5.197467">
        <ele>559.0</ele>
        <time>2014-05-17T13:21:49Z</time>
      </trkpt>
      <trkpt lat="40.147300" lon="-5.197417">
        <ele>560.0</ele>
        <time>2014-05-17T13:21:50Z</time>
      </trkpt>
      <trkpt lat="40.147200" lon="-5.197400">
        <ele>561.0</ele>
        <time>2014-05-17T13:21:51Z</time>
      </trkpt>
      <trkpt lat="40.147100" lon="-5.197383">
        <ele>562.0</ele>
        <time>2014-05-17T13:21:52Z</time>
      </trkpt>
      <trkpt lat="40.147000" lon="-5.197383">
        <ele>562.0</ele>
        <time>2014-05-17T13:21:53Z</time>
      </trkpt>
      <trkpt lat="40.146900" lon="-5.197383">
        <ele>562.0</ele>
        <time>2014-05-17T13:21:54Z</time>
      </trkpt>
      <trkpt lat="40.146783" lon="-5.197417">
        <ele>562.0</ele>
        <time>2014-05-17T13:21:55Z</time>
      </trkpt>
      <trkpt lat="40.146700" lon="-5.197467">
        <ele>563.0</ele>
        <time>2014-05-17T13:21:56Z</time>
      </trkpt>
      <trkpt lat="40.146617" lon="-5.197517">
        <ele>564.0</ele>
        <time>2014-05-17T13:21:57Z</time>
      </trkpt>
      <trkpt lat="40.146550" lon="-5.197583">
        <ele>564.0</ele>
        <time>2014-05-17T13:21:58Z</time>
      </trkpt>
      <trkpt lat="40.146483" lon="-5.197650">
        <ele>564.0</ele>
        <time>2014-05-17T13:21:59Z</time>
      </trkpt>
      <trkpt lat="40.146400" lon="-5.197733">
        <ele>563.0</ele>
        <time>2014-05-17T13:22:00Z</time>
      </trkpt>
      <trkpt lat="40.146333" lon="-5.197833">
        <ele>564.0</ele>
        <time>2014-05-17T13:22:01Z</time>
      </trkpt>
      <trkpt lat="40.146283" lon="-5.197917">
        <ele>564.0</ele>
        <time>2014-05-17T13:22:02Z</time>
      </trkpt>
      <trkpt lat="40.146217" lon="-5.198000">
        <ele>565.0</ele>
        <time>2014-05-17T13:22:03Z</time>
      </trkpt>
      <trkpt lat="40.146167" lon="-5.198100">
        <ele>565.0</ele>
        <time>2014-05-17T13:22:04Z</time>
      </trkpt>
      <trkpt lat="40.146083" lon="-5.198233">
        <ele>565.0</ele>
        <time>2014-05-17T13:22:05Z</time>
      </trkpt>
      <trkpt lat="40.146017" lon="-5.198383">
        <ele>565.0</ele>
        <time>2014-05-17T13:22:06Z</time>
      </trkpt>
      <trkpt lat="40.145983" lon="-5.198517">
        <ele>566.0</ele>
        <time>2014-05-17T13:22:07Z</time>
      </trkpt>
      <trkpt lat="40.145967" lon="-5.198667">
        <ele>568.0</ele>
        <time>2014-05-17T13:22:08Z</time>
      </trkpt>
      <trkpt lat="40.145950" lon="-5.198783">
        <ele>569.0</ele>
        <time>2014-05-17T13:22:09Z</time>
      </trkpt>
      <trkpt lat="40.145950" lon="-5.198933">
        <ele>570.0</ele>
        <time>2014-05-17T13:22:10Z</time>
      </trkpt>
      <trkpt lat="40.145950" lon="-5.199100">
        <ele>571.0</ele>
        <time>2014-05-17T13:22:11Z</time>
      </trkpt>
      <trkpt lat="40.145950" lon="-5.199283">
        <ele>572.0</ele>
        <time>2014-05-17T13:22:12Z</time>
      </trkpt>
      <trkpt lat="40.145967" lon="-5.199433">
        <ele>573.0</ele>
        <time>2014-05-17T13:22:13Z</time>
      </trkpt>
      <trkpt lat="40.146017" lon="-5.199567">
        <ele>576.0</ele>
        <time>2014-05-17T13:22:14Z</time>
      </trkpt>
      <trkpt lat="40.146083" lon="-5.199667">
        <ele>577.0</ele>
        <time>2014-05-17T13:22:15Z</time>
      </trkpt>
      <trkpt lat="40.146150" lon="-5.199767">
        <ele>577.0</ele>
        <time>2014-05-17T13:22:16Z</time>
      </trkpt>
      <trkpt lat="40.146200" lon="-5.199883">
        <ele>577.0</ele>
        <time>2014-05-17T13:22:17Z</time>
      </trkpt>
      <trkpt lat="40.146267" lon="-5.200000">
        <ele>577.0</ele>
        <time>2014-05-17T13:22:18Z</time>
      </trkpt>
      <trkpt lat="40.146350" lon="-5.200083">
        <ele>577.0</ele>
        <time>2014-05-17T13:22:19Z</time>
      </trkpt>
      <trkpt lat="40.146433" lon="-5.200117">
        <ele>578.0</ele>
        <time>2014-05-17T13:22:20Z</time>
      </trkpt>
      <trkpt lat="40.146517" lon="-5.200133">
        <ele>579.0</ele>
        <time>2014-05-17T13:22:21Z</time>
      </trkpt>
      <trkpt lat="40.146583" lon="-5.200117">
        <ele>580.0</ele>
        <time>2014-05-17T13:22:22Z</time>
      </trkpt>
      <trkpt lat="40.146650" lon="-5.200100">
        <ele>581.0</ele>
        <time>2014-05-17T13:22:23Z</time>
      </trkpt>
      <trkpt lat="40.146717" lon="-5.200083">
        <ele>582.0</ele>
        <time>2014-05-17T13:22:24Z</time>
      </trkpt>
      <trkpt lat="40.146783" lon="-5.200050">
        <ele>583.0</ele>
        <time>2014-05-17T13:22:25Z</time>
      </trkpt>
      <trkpt lat="40.146833" lon="-5.200017">
        <ele>584.0</ele>
        <time>2014-05-17T13:22:26Z</time>
      </trkpt>
      <trkpt lat="40.146917" lon="-5.199917">
        <ele>587.0</ele>
        <time>2014-05-17T13:22:28Z</time>
      </trkpt>
      <trkpt lat="40.146950" lon="-5.199867">
        <ele>589.0</ele>
        <time>2014-05-17T13:22:29Z</time>
      </trkpt>
      <trkpt lat="40.146983" lon="-5.199800">
        <ele>590.0</ele>
        <time>2014-05-17T13:22:30Z</time>
      </trkpt>
      <trkpt lat="40.147050" lon="-5.199583">
        <ele>591.0</ele>
        <time>2014-05-17T13:22:33Z</time>
      </trkpt>
      <trkpt lat="40.147083" lon="-5.199533">
        <ele>592.0</ele>
        <time>2014-05-17T13:22:34Z</time>
      </trkpt>
      <trkpt lat="40.147100" lon="-5.199467">
        <ele>594.0</ele>
        <time>2014-05-17T13:22:35Z</time>
      </trkpt>
      <trkpt lat="40.147100" lon="-5.199417">
        <ele>595.0</ele>
        <time>2014-05-17T13:22:36Z</time>
      </trkpt>
      <trkpt lat="40.147100" lon="-5.199333">
        <ele>596.0</ele>
        <time>2014-05-17T13:22:37Z</time>
      </trkpt>
      <trkpt lat="40.147083" lon="-5.199250">
        <ele>596.0</ele>
        <time>2014-05-17T13:22:38Z</time>
      </trkpt>
      <trkpt lat="40.147067" lon="-5.199183">
        <ele>597.0</ele>
        <time>2014-05-17T13:22:39Z</time>
      </trkpt>
      <trkpt lat="40.147050" lon="-5.199117">
        <ele>598.0</ele>
        <time>2014-05-17T13:22:40Z</time>
      </trkpt>
      <trkpt lat="40.147000" lon="-5.199083">
        <ele>599.0</ele>
        <time>2014-05-17T13:22:41Z</time>
      </trkpt>
      <trkpt lat="40.146967" lon="-5.199033">
        <ele>599.0</ele>
        <time>2014-05-17T13:22:42Z</time>
      </trkpt>
      <trkpt lat="40.146917" lon="-5.199000">
        <ele>600.0</ele>
        <time>2014-05-17T13:22:43Z</time>
      </trkpt>
      <trkpt lat="40.146850" lon="-5.198967">
        <ele>602.0</ele>
        <time>2014-05-17T13:22:44Z</time>
      </trkpt>
      <trkpt lat="40.146800" lon="-5.198950">
        <ele>603.0</ele>
        <time>2014-05-17T13:22:45Z</time>
      </trkpt>
      <trkpt lat="40.146733" lon="-5.198950">
        <ele>605.0</ele>
        <time>2014-05-17T13:22:46Z</time>
      </trkpt>
      <trkpt lat="40.146650" lon="-5.198967">
        <ele>607.0</ele>
        <time>2014-05-17T13:22:47Z</time>
      </trkpt>
      <trkpt lat="40.146583" lon="-5.199017">
        <ele>608.0</ele>
        <time>2014-05-17T13:22:48Z</time>
      </trkpt>
      <trkpt lat="40.146517" lon="-5.199067">
        <ele>610.0</ele>
        <time>2014-05-17T13:22:49Z</time>
      </trkpt>
      <trkpt lat="40.146467" lon="-5.199133">
        <ele>612.0</ele>
        <time>2014-05-17T13:22:50Z</time>
      </trkpt>
      <trkpt lat="40.146417" lon="-5.199233">
        <ele>614.0</ele>
        <time>2014-05-17T13:22:51Z</time>
      </trkpt>
      <trkpt lat="40.146383" lon="-5.199350">
        <ele>616.0</ele>
        <time>2014-05-17T13:22:52Z</time>
      </trkpt>
      <trkpt lat="40.146367" lon="-5.199450">
        <ele>618.0</ele>
        <time>2014-05-17T13:22:53Z</time>
      </trkpt>
      <trkpt lat="40.146350" lon="-5.199550">
        <ele>621.0</ele>
        <time>2014-05-17T13:22:54Z</time>
      </trkpt>
      <trkpt lat="40.146350" lon="-5.199650">
        <ele>624.0</ele>
        <time>2014-05-17T13:22:55Z</time>
      </trkpt>
      <trkpt lat="40.146367" lon="-5.199750">
        <ele>626.0</ele>
        <time>2014-05-17T13:22:56Z</time>
      </trkpt>
      <trkpt lat="40.146383" lon="-5.199850">
        <ele>628.0</ele>
        <time>2014-05-17T13:22:57Z</time>
      </trkpt>
      <trkpt lat="40.146400" lon="-5.199967">
        <ele>630.0</ele>
        <time>2014-05-17T13:22:58Z</time>
      </trkpt>
      <trkpt lat="40.146433" lon="-5.200067">
        <ele>633.0</ele>
        <time>2014-05-17T13:22:59Z</time>
      </trkpt>
      <trkpt lat="40.146467" lon="-5.200150">
        <ele>636.0</ele>
        <time>2014-05-17T13:23:00Z</time>
      </trkpt>
      <trkpt lat="40.146517" lon="-5.200217">
        <ele>640.0</ele>
        <time>2014-05-17T13:23:01Z</time>
      </trkpt>
      <trkpt lat="40.146583" lon="-5.200267">
        <ele>642.0</ele>
        <time>2014-05-17T13:23:02Z</time>
      </trkpt>
      <trkpt lat="40.146650" lon="-5.200283">
        <ele>645.0</ele>
        <time>2014-05-17T13:23:03Z</time>
      </trkpt>
      <trkpt lat="40.146700" lon="-5.200283">
        <ele>646.0</ele>
        <time>2014-05-17T13:23:04Z</time>
      </trkpt>
      <trkpt lat="40.146817" lon="-5.200250">
        <ele>646.0</ele>
        <time>2014-05-17T13:23:06Z</time>
      </trkpt>
      <trkpt lat="40.146883" lon="-5.200217">
        <ele>646.0</ele>
        <time>2014-05-17T13:23:07Z</time>
      </trkpt>
      <trkpt lat="40.146933" lon="-5.200167">
        <ele>646.0</ele>
        <time>2014-05-17T13:23:08Z</time>
      </trkpt>
      <trkpt lat="40.146983" lon="-5.200100">
        <ele>646.0</ele>
        <time>2014-05-17T13:23:09Z</time>
      </trkpt>
      <trkpt lat="40.147000" lon="-5.200017">
        <ele>648.0</ele>
        <time>2014-05-17T13:23:10Z</time>
      </trkpt>
      <trkpt lat="40.147017" lon="-5.199967">
        <ele>649.0</ele>
        <time>2014-05-17T13:23:11Z</time>
      </trkpt>
      <trkpt lat="40.147017" lon="-5.199900">
        <ele>650.0</ele>
        <time>2014-05-17T13:23:12Z</time>
      </trkpt>
      <trkpt lat="40.147017" lon="-5.199817">
        <ele>651.0</ele>
        <time>2014-05-17T13:23:13Z</time>
      </trkpt>
      <trkpt lat="40.147033" lon="-5.199733">
        <ele>652.0</ele>
        <time>2014-05-17T13:23:14Z</time>
      </trkpt>
      <trkpt lat="40.147033" lon="-5.199633">
        <ele>652.0</ele>
        <time>2014-05-17T13:23:15Z</time>
      </trkpt>
      <trkpt lat="40.147050" lon="-5.199550">
        <ele>653.0</ele>
        <time>2014-05-17T13:23:16Z</time>
      </trkpt>
      <trkpt lat="40.147033" lon="-5.199467">
        <ele>655.0</ele>
        <time>2014-05-17T13:23:17Z</time>
      </trkpt>
      <trkpt lat="40.147000" lon="-5.199417">
        <ele>658.0</ele>
        <time>2014-05-17T13:23:18Z</time>
      </trkpt>
      <trkpt lat="40.146950" lon="-5.199350">
        <ele>660.0</ele>
        <time>2014-05-17T13:23:19Z</time>
      </trkpt>
      <trkpt lat="40.146883" lon="-5.199283">
        <ele>661.0</ele>
        <time>2014-05-17T13:23:20Z</time>
      </trkpt>
      <trkpt lat="40.146817" lon="-5.199250">
        <ele>663.0</ele>
        <time>2014-05-17T13:23:21Z</time>
      </trkpt>
      <trkpt lat="40.146717" lon="-5.199200">
        <ele>664.0</ele>
        <time>2014-05-17T13:23:22Z</time>
      </trkpt>
      <trkpt lat="40.146633" lon="-5.199183">
        <ele>666.0</ele>
        <time>2014-05-17T13:23:23Z</time>
      </trkpt>
      <trkpt lat="40.146533" lon="-5.199183">
        <ele>669.0</ele>
        <time>2014-05-17T13:23:24Z</time>
      </trkpt>
      <trkpt lat="40.146450" lon="-5.199200">
        <ele>672.0</ele>
        <time>2014-05-17T13:23:25Z</time>
      </trkpt>
      <trkpt lat="40.146367" lon="-5.199233">
        <ele>674.0</ele>
        <time>2014-05-17T13:23:26Z</time>
      </trkpt>
      <trkpt lat="40.146283" lon="-5.199283">
        <ele>677.0</ele>
        <time>2014-05-17T13:23:27Z</time>
      </trkpt>
      <trkpt lat="40.146200" lon="-5.199317">
        <ele>678.0</ele>
        <time>2014-05-17T13:23:28Z</time>
      </trkpt>
      <trkpt lat="40.146117" lon="-5.199367">
        <ele>680.0</ele>
        <time>2014-05-17T13:23:29Z</time>
      </trkpt>
      <trkpt lat="40.146050" lon="-5.199433">
        <ele>681.0</ele>
        <time>2014-05-17T13:23:30Z</time>
      </trkpt>
      <trkpt lat="40.146000" lon="-5.199517">
        <ele>682.0</ele>
        <time>2014-05-17T13:23:31Z</time>
      </trkpt>
      <trkpt lat="40.145950" lon="-5.199617">
        <ele>682.0</ele>
        <time>2014-05-17T13:23:32Z</time>
      </trkpt>
      <trkpt lat="40.145933" lon="-5.199733">
        <ele>683.0</ele>
        <time>2014-05-17T13:23:33Z</time>
      </trkpt>
      <trkpt lat="40.145933" lon="-5.199850">
        <ele>684.0</ele>
        <time>2014-05-17T13:23:34Z</time>
      </trkpt>
      <trkpt lat="40.145933" lon="-5.199950">
        <ele>685.0</ele>
        <time>2014-05-17T13:23:35Z</time>
      </trkpt>
      <trkpt lat="40.145967" lon="-5.200050">
        <ele>686.0</ele>
        <time>2014-05-17T13:23:36Z</time>
      </trkpt>
      <trkpt lat="40.146017" lon="-5.200133">
        <ele>688.0</ele>
        <time>2014-05-17T13:23:37Z</time>
      </trkpt>
      <trkpt lat="40.146067" lon="-5.200217">
        <ele>689.0</ele>
        <time>2014-05-17T13:23:38Z</time>
      </trkpt>
      <trkpt lat="40.146100" lon="-5.200283">
        <ele>691.0</ele>
        <time>2014-05-17T13:23:39Z</time>
      </trkpt>
      <trkpt lat="40.146150" lon="-5.200333">
        <ele>694.0</ele>
        <time>2014-05-17T13:23:40Z</time>
      </trkpt>
      <trkpt lat="40.146217" lon="-5.200350">
        <ele>696.0</ele>
        <time>2014-05-17T13:23:41Z</time>
      </trkpt>
      <trkpt lat="40.146267" lon="-5.200367">
        <ele>698.0</ele>
        <time>2014-05-17T13:23:42Z</time>
      </trkpt>
      <trkpt lat="40.146333" lon="-5.200350">
        <ele>698.0</ele>
        <time>2014-05-17T13:23:43Z</time>
      </trkpt>
      <trkpt lat="40.146550" lon="-5.200233">
        <ele>701.0</ele>
        <time>2014-05-17T13:23:47Z</time>
      </trkpt>
      <trkpt lat="40.146583" lon="-5.200183">
        <ele>704.0</ele>
        <time>2014-05-17T13:23:48Z</time>
      </trkpt>
      <trkpt lat="40.146583" lon="-5.200117">
        <ele>708.0</ele>
        <time>2014-05-17T13:23:49Z</time>
      </trkpt>
      <trkpt lat="40.146583" lon="-5.200050">
        <ele>711.0</ele>
        <time>2014-05-17T13:23:50Z</time>
      </trkpt>
      <trkpt lat="40.146567" lon="-5.199967">
        <ele>713.0</ele>
        <time>2014-05-17T13:23:51Z</time>
      </trkpt>
      <trkpt lat="40.146550" lon="-5.199883">
        <ele>715.0</ele>
        <time>2014-05-17T13:23:52Z</time>
      </trkpt>
      <trkpt lat="40.146517" lon="-5.199800">
        <ele>716.0</ele>
        <time>2014-05-17T13:23:53Z</time>
      </trkpt>
      <trkpt lat="40.146483" lon="-5.199733">
        <ele>717.0</ele>
        <time>2014-05-17T13:23:54Z</time>
      </trkpt>
      <trkpt lat="40.146417" lon="-5.199650">
        <ele>718.0</ele>
        <time>2014-05-17T13:23:55Z</time>
      </trkpt>
      <trkpt lat="40.146350" lon="-5.199567">
        <ele>719.0</ele>
        <time>2014-05-17T13:23:56Z</time>
      </trkpt>
      <trkpt lat="40.146267" lon="-5.199483">
        <ele>721.0</ele>
        <time>2014-05-17T13:23:57Z</time>
      </trkpt>
      <trkpt lat="40.146183" lon="-5.199417">
        <ele>724.0</ele>
        <time>2014-05-17T13:23:58Z</time>
      </trkpt>
      <trkpt lat="40.146083" lon="-5.199400">
        <ele>726.0</ele>
        <time>2014-05-17T13:23:59Z</time>
      </trkpt>
      <trkpt lat="40.146000" lon="-5.199400">
        <ele>728.0</ele>
        <time>2014-05-17T13:24:00Z</time>
      </trkpt>
      <trkpt lat="40.145900" lon="-5.199450">
        <ele>730.0</ele>
        <time>2014-05-17T13:24:01Z</time>
      </trkpt>
      <trkpt lat="40.145800" lon="-5.199517">
        <ele>731.0</ele>
        <time>2014-05-17T13:24:02Z</time>
      </trkpt>
      <trkpt lat="40.145700" lon="-5.199600">
        <ele>732.0</ele>
        <time>2014-05-17T13:24:03Z</time>
      </trkpt>
      <trkpt lat="40.145633" lon="-5.199667">
        <ele>733.0</ele>
        <time>2014-05-17T13:24:04Z</time>
      </trkpt>
      <trkpt lat="40.145567" lon="-5.199750">
        <ele>736.0</ele>
        <time>2014-05-17T13:24:05Z</time>
      </trkpt>
      <trkpt lat="40.145517" lon="-5.199833">
        <ele>739.0</ele>
        <time>2014-05-17T13:24:06Z</time>
      </trkpt>
      <trkpt lat="40.145467" lon="-5.199950">
        <ele>740.0</ele>
        <time>2014-05-17T13:24:07Z</time>
      </trkpt>
      <trkpt lat="40.145417" lon="-5.200050">
        <ele>741.0</ele>
        <time>2014-05-17T13:24:08Z</time>
      </trkpt>
      <trkpt lat="40.145367" lon="-5.200167">
        <ele>741.0</ele>
        <time>2014-05-17T13:24:09Z</time>
      </trkpt>
      <trkpt lat="40.145333" lon="-5.200300">
        <ele>742.0</ele>
        <time>2014-05-17T13:24:10Z</time>
      </trkpt>
      <trkpt lat="40.145317" lon="-5.200417">
        <ele>743.0</ele>
        <time>2014-05-17T13:24:11Z</time>
      </trkpt>
      <trkpt lat="40.145317" lon="-5.200550">
        <ele>744.0</ele>
        <time>2014-05-17T13:24:12Z</time>
      </trkpt>
      <trkpt lat="40.145333" lon="-5.200683">
        <ele>745.0</ele>
        <time>2014-05-17T13:24:13Z</time>
      </trkpt>
      <trkpt lat="40.145350" lon="-5.200783">
        <ele>748.0</ele>
        <time>2014-05-17T13:24:14Z</time>
      </trkpt>
      <trkpt lat="40.145367" lon="-5.200883">
        <ele>750.0</ele>
        <time>2014-05-17T13:24:15Z</time>
      </trkpt>
      <trkpt lat="40.145367" lon="-5.200950">
        <ele>751.0</ele>
        <time>2014-05-17T13:24:16Z</time>
      </trkpt>
      <trkpt lat="40.145400" lon="-5.201033">
        <ele>751.0</ele>
        <time>2014-05-17T13:24:17Z</time>
      </trkpt>
      <trkpt lat="40.145433" lon="-5.201100">
        <ele>750.0</ele>
        <time>2014-05-17T13:24:18Z</time>
      </trkpt>
      <trkpt lat="40.145500" lon="-5.201150">
        <ele>750.0</ele>
        <time>2014-05-17T13:24:19Z</time>
      </trkpt>
      <trkpt lat="40.145550" lon="-5.201200">
        <ele>750.0</ele>
        <time>2014-05-17T13:24:20Z</time>
      </trkpt>
      <trkpt lat="40.145600" lon="-5.201233">
        <ele>751.0</ele>
        <time>2014-05-17T13:24:21Z</time>
      </trkpt>
      <trkpt lat="40.145667" lon="-5.201233">
        <ele>752.0</ele>
        <time>2014-05-17T13:24:22Z</time>
      </trkpt>
      <trkpt lat="40.145733" lon="-5.201233">
        <ele>753.0</ele>
        <time>2014-05-17T13:24:23Z</time>
      </trkpt>
      <trkpt lat="40.145783" lon="-5.201200">
        <ele>754.0</ele>
        <time>2014-05-17T13:24:24Z</time>
      </trkpt>
      <trkpt lat="40.145850" lon="-5.201150">
        <ele>754.0</ele>
        <time>2014-05-17T13:24:25Z</time>
      </trkpt>
      <trkpt lat="40.145917" lon="-5.201083">
        <ele>755.0</ele>
        <time>2014-05-17T13:24:26Z</time>
      </trkpt>
      <trkpt lat="40.145967" lon="-5.201033">
        <ele>756.0</ele>
        <time>2014-05-17T13:24:27Z</time>
      </trkpt>
      <trkpt lat="40.146033" lon="-5.200967">
        <ele>756.0</ele>
        <time>2014-05-17T13:24:28Z</time>
      </trkpt>
      <trkpt lat="40.146083" lon="-5.200900">
        <ele>757.0</ele>
        <time>2014-05-17T13:24:29Z</time>
      </trkpt>
      <trkpt lat="40.146133" lon="-5.200833">
        <ele>758.0</ele>
        <time>2014-05-17T13:24:30Z</time>
      </trkpt>
      <trkpt lat="40.146167" lon="-5.200767">
        <ele>759.0</ele>
        <time>2014-05-17T13:24:31Z</time>
      </trkpt>
      <trkpt lat="40.146183" lon="-5.200700">
        <ele>761.0</ele>
        <time>2014-05-17T13:24:32Z</time>
      </trkpt>
      <trkpt lat="40.146183" lon="-5.200617">
        <ele>763.0</ele>
        <time>2014-05-17T13:24:33Z</time>
      </trkpt>
      <trkpt lat="40.146167" lon="-5.200533">
        <ele>764.0</ele>
        <time>2014-05-17T13:24:34Z</time>
      </trkpt>
      <trkpt lat="40.146167" lon="-5.200450">
        <ele>766.0</ele>
        <time>2014-05-17T13:24:35Z</time>
      </trkpt>
      <trkpt lat="40.146133" lon="-5.200383">
        <ele>768.0</ele>
        <time>2014-05-17T13:24:36Z</time>
      </trkpt>
      <trkpt lat="40.146100" lon="-5.200317">
        <ele>765.0</ele>
        <time>2014-05-17T13:24:37Z</time>
      </trkpt>
      <trkpt lat="40.146033" lon="-5.200233">
        <ele>766.0</ele>
        <time>2014-05-17T13:24:38Z</time>
      </trkpt>
      <trkpt lat="40.145967" lon="-5.200167">
        <ele>767.0</ele>
        <time>2014-05-17T13:24:39Z</time>
      </trkpt>
      <trkpt lat="40.145883" lon="-5.200100">
        <ele>768.0</ele>
        <time>2014-05-17T13:24:40Z</time>
      </trkpt>
      <trkpt lat="40.145783" lon="-5.200067">
        <ele>769.0</ele>
        <time>2014-05-17T13:24:41Z</time>
      </trkpt>
      <trkpt lat="40.145683" lon="-5.200050">
        <ele>771.0</ele>
        <time>2014-05-17T13:24:42Z</time>
      </trkpt>
      <trkpt lat="40.145583" lon="-5.200083">
        <ele>773.0</ele>
        <time>2014-05-17T13:24:43Z</time>
      </trkpt>
      <trkpt lat="40.145483" lon="-5.200150">
        <ele>774.0</ele>
        <time>2014-05-17T13:24:44Z</time>
      </trkpt>
      <trkpt lat="40.145400" lon="-5.200233">
        <ele>775.0</ele>
        <time>2014-05-17T13:24:45Z</time>
      </trkpt>
      <trkpt lat="40.145333" lon="-5.200350">
        <ele>776.0</ele>
        <time>2014-05-17T13:24:46Z</time>
      </trkpt>
      <trkpt lat="40.145267" lon="-5.200483">
        <ele>777.0</ele>
        <time>2014-05-17T13:24:47Z</time>
      </trkpt>
      <trkpt lat="40.145233" lon="-5.200600">
        <ele>779.0</ele>
        <time>2014-05-17T13:24:48Z</time>
      </trkpt>
      <trkpt lat="40.145217" lon="-5.200717">
        <ele>782.0</ele>
        <time>2014-05-17T13:24:49Z</time>
      </trkpt>
      <trkpt lat="40.145217" lon="-5.200850">
        <ele>784.0</ele>
        <time>2014-05-17T13:24:50Z</time>
      </trkpt>
      <trkpt lat="40.145233" lon="-5.200967">
        <ele>786.0</ele>
        <time>2014-05-17T13:24:51Z</time>
      </trkpt>
      <trkpt lat="40.145267" lon="-5.201083">
        <ele>789.0</ele>
        <time>2014-05-17T13:24:52Z</time>
      </trkpt>
      <trkpt lat="40.145317" lon="-5.201167">
        <ele>790.0</ele>
        <time>2014-05-17T13:24:53Z</time>
      </trkpt>
      <trkpt lat="40.145367" lon="-5.201250">
        <ele>792.0</ele>
        <time>2014-05-17T13:24:54Z</time>
      </trkpt>
      <trkpt lat="40.145433" lon="-5.201300">
        <ele>793.0</ele>
        <time>2014-05-17T13:24:55Z</time>
      </trkpt>
      <trkpt lat="40.145517" lon="-5.201317">
        <ele>793.0</ele>
        <time>2014-05-17T13:24:56Z</time>
      </trkpt>
      <trkpt lat="40.145667" lon="-5.201300">
        <ele>796.0</ele>
        <time>2014-05-17T13:24:58Z</time>
      </trkpt>
      <trkpt lat="40.145717" lon="-5.201267">
        <ele>798.0</ele>
        <time>2014-05-17T13:24:59Z</time>
      </trkpt>
      <trkpt lat="40.145767" lon="-5.201233">
        <ele>799.0</ele>
        <time>2014-05-17T13:25:00Z</time>
      </trkpt>
      <trkpt lat="40.145817" lon="-5.201183">
        <ele>800.0</ele>
        <time>2014-05-17T13:25:01Z</time>
      </trkpt>
      <trkpt lat="40.145883" lon="-5.201117">
        <ele>801.0</ele>
        <time>2014-05-17T13:25:02Z</time>
      </trkpt>
      <trkpt lat="40.145933" lon="-5.201033">
        <ele>801.0</ele>
        <time>2014-05-17T13:25:03Z</time>
      </trkpt>
      <trkpt lat="40.145950" lon="-5.200933">
        <ele>802.0</ele>
        <time>2014-05-17T13:25:04Z</time>
      </trkpt>
      <trkpt lat="40.145967" lon="-5.200850">
        <ele>804.0</ele>
        <time>2014-05-17T13:25:05Z</time>
      </trkpt>
      <trkpt lat="40.145950" lon="-5.200767">
        <ele>806.0</ele>
        <time>2014-05-17T13:25:06Z</time>
      </trkpt>
      <trkpt lat="40.145917" lon="-5.200683">
        <ele>808.0</ele>
        <time>2014-05-17T13:25:07Z</time>
      </trkpt>
      <trkpt lat="40.145867" lon="-5.200617">
        <ele>809.0</ele>
        <time>2014-05-17T13:25:08Z</time>
      </trkpt>
      <trkpt lat="40.145817" lon="-5.200550">
        <ele>811.0</ele>
        <time>2014-05-17T13:25:09Z</time>
      </trkpt>
      <trkpt lat="40.145767" lon="-5.200483">
        <ele>812.0</ele>
        <time>2014-05-17T13:25:10Z</time>
      </trkpt>
      <trkpt lat="40.145683" lon="-5.200450">
        <ele>814.0</ele>
        <time>2014-05-17T13:25:11Z</time>
      </trkpt>
      <trkpt lat="40.145600" lon="-5.200417">
        <ele>814.0</ele>
        <time>2014-05-17T13:25:12Z</time>
      </trkpt>
      <trkpt lat="40.145500" lon="-5.200433">
        <ele>814.0</ele>
        <time>2014-05-17T13:25:13Z</time>
      </trkpt>
      <trkpt lat="40.145417" lon="-5.200450">
        <ele>817.0</ele>
        <time>2014-05-17T13:25:14Z</time>
      </trkpt>
      <trkpt lat="40.145333" lon="-5.200500">
        <ele>821.0</ele>
        <time>2014-05-17T13:25:15Z</time>
      </trkpt>
      <trkpt lat="40.145267" lon="-5.200567">
        <ele>824.0</ele>
        <time>2014-05-17T13:25:16Z</time>
      </trkpt>
      <trkpt lat="40.145217" lon="-5.200650">
        <ele>827.0</ele>
        <time>2014-05-17T13:25:17Z</time>
      </trkpt>
      <trkpt lat="40.145150" lon="-5.200767">
        <ele>829.0</ele>
        <time>2014-05-17T13:25:18Z</time>
      </trkpt>
      <trkpt lat="40.145100" lon="-5.200883">
        <ele>831.0</ele>
        <time>2014-05-17T13:25:19Z</time>
      </trkpt>
      <trkpt lat="40.145067" lon="-5.201000">
        <ele>833.0</ele>
        <time>2014-05-17T13:25:20Z</time>
      </trkpt>
      <trkpt lat="40.145067" lon="-5.201133">
        <ele>837.0</ele>
        <time>2014-05-17T13:25:21Z</time>
      </trkpt>
      <trkpt lat="40.145067" lon="-5.201217">
        <ele>840.0</ele>
        <time>2014-05-17T13:25:22Z</time>
      </trkpt>
      <trkpt lat="40.145083" lon="-5.201317">
        <ele>843.0</ele>
        <time>2014-05-17T13:25:23Z</time>
      </trkpt>
      <trkpt lat="40.145117" lon="-5.201400">
        <ele>845.0</ele>
        <time>2014-05-17T13:25:24Z</time>
      </trkpt>
      <trkpt lat="40.145150" lon="-5.201483">
        <ele>847.0</ele>
        <time>2014-05-17T13:25:25Z</time>
      </trkpt>
      <trkpt lat="40.145183" lon="-5.201550">
        <ele>849.0</ele>
        <time>2014-05-17T13:25:26Z</time>
      </trkpt>
      <trkpt lat="40.145233" lon="-5.201617">
        <ele>851.0</ele>
        <time>2014-05-17T13:25:27Z</time>
      </trkpt>
      <trkpt lat="40.145300" lon="-5.201683">
        <ele>852.0</ele>
        <time>2014-05-17T13:25:28Z</time>
      </trkpt>
      <trkpt lat="40.145367" lon="-5.201733">
        <ele>853.0</ele>
        <time>2014-05-17T13:25:29Z</time>
      </trkpt>
      <trkpt lat="40.145433" lon="-5.201783">
        <ele>855.0</ele>
        <time>2014-05-17T13:25:30Z</time>
      </trkpt>
      <trkpt lat="40.145500" lon="-5.201817">
        <ele>856.0</ele>
        <time>2014-05-17T13:25:31Z</time>
      </trkpt>
      <trkpt lat="40.145567" lon="-5.201817">
        <ele>857.0</ele>
        <time>2014-05-17T13:25:32Z</time>
      </trkpt>
      <trkpt lat="40.145733" lon="-5.201783">
        <ele>858.0</ele>
        <time>2014-05-17T13:25:34Z</time>
      </trkpt>
      <trkpt lat="40.145817" lon="-5.201750">
        <ele>858.0</ele>
        <time>2014-05-17T13:25:35Z</time>
      </trkpt>
      <trkpt lat="40.145883" lon="-5.201717">
        <ele>860.0</ele>
        <time>2014-05-17T13:25:36Z</time>
      </trkpt>
      <trkpt lat="40.145933" lon="-5.201667">
        <ele>862.0</ele>
        <time>2014-05-17T13:25:37Z</time>
      </trkpt>
      <trkpt lat="40.145983" lon="-5.201600">
        <ele>863.0</ele>
        <time>2014-05-17T13:25:38Z</time>
      </trkpt>
      <trkpt lat="40.146017" lon="-5.201500">
        <ele>864.0</ele>
        <time>2014-05-17T13:25:39Z</time>
      </trkpt>
      <trkpt lat="40.146050" lon="-5.201400">
        <ele>866.0</ele>
        <time>2014-05-17T13:25:40Z</time>
      </trkpt>
      <trkpt lat="40.146067" lon="-5.201300">
        <ele>871.0</ele>
        <time>2014-05-17T13:25:41Z</time>
      </trkpt>
      <trkpt lat="40.146083" lon="-5.201233">
        <ele>875.0</ele>
        <time>2014-05-17T13:25:42Z</time>
      </trkpt>
      <trkpt lat="40.146067" lon="-5.201150">
        <ele>879.0</ele>
        <time>2014-05-17T13:25:43Z</time>
      </trkpt>
      <trkpt lat="40.146067" lon="-5.201050">
        <ele>881.0</ele>
        <time>2014-05-17T13:25:44Z</time>
      </trkpt>
      <trkpt lat="40.146033" lon="-5.200917">
        <ele>883.0</ele>
        <time>2014-05-17T13:25:45Z</time>
      </trkpt>
      <trkpt lat="40.146000" lon="-5.200817">
        <ele>886.0</ele>
        <time>2014-05-17T13:25:46Z</time>
      </trkpt>
      <trkpt lat="40.145950" lon="-5.200733">
        <ele>892.0</ele>
        <time>2014-05-17T13:25:47Z</time>
      </trkpt>
      <trkpt lat="40.145900" lon="-5.200700">
        <ele>897.0</ele>
        <time>2014-05-17T13:25:48Z</time>
      </trkpt>
      <trkpt lat="40.145833" lon="-5.200667">
        <ele>901.0</ele>
        <time>2014-05-17T13:25:49Z</time>
      </trkpt>
      <trkpt lat="40.145767" lon="-5.200650">
        <ele>904.0</ele>
        <time>2014-05-17T13:25:50Z</time>
      </trkpt>
      <trkpt lat="40.145683" lon="-5.200617">
        <ele>906.0</ele>
        <time>2014-05-17T13:25:51Z</time>
      </trkpt>
      <trkpt lat="40.145600" lon="-5.200617">
        <ele>908.0</ele>
        <time>2014-05-17T13:25:52Z</time>
      </trkpt>
      <trkpt lat="40.145517" lon="-5.200633">
        <ele>910.0</ele>
        <time>2014-05-17T13:25:53Z</time>
      </trkpt>
      <trkpt lat="40.145433" lon="-5.200683">
        <ele>912.0</ele>
        <time>2014-05-17T13:25:54Z</time>
      </trkpt>
      <trkpt lat="40.145367" lon="-5.200767">
        <ele>914.0</ele>
        <time>2014-05-17T13:25:55Z</time>
      </trkpt>
      <trkpt lat="40.145317" lon="-5.200833">
        <ele>916.0</ele>
        <time>2014-05-17T13:25:56Z</time>
      </trkpt>
      <trkpt lat="40.145267" lon="-5.200933">
        <ele>917.0</ele>
        <time>2014-05-17T13:25:57Z</time>
      </trkpt>
      <trkpt lat="40.145233" lon="-5.201033">
        <ele>918.0</ele>
        <time>2014-05-17T13:25:58Z</time>
      </trkpt>
      <trkpt lat="40.145217" lon="-5.201150">
        <ele>920.0</ele>
        <time>2014-05-17T13:25:59Z</time>
      </trkpt>
      <trkpt lat="40.145217" lon="-5.201250">
        <ele>923.0</ele>
        <time>2014-05-17T13:26:00Z</time>
      </trkpt>
      <trkpt lat="40.145217" lon="-5.201350">
        <ele>926.0</ele>
        <time>2014-05-17T13:26:01Z</time>
      </trkpt>
      <trkpt lat="40.145233" lon="-5.201433">
        <ele>930.0</ele>
        <time>2014-05-17T13:26:02Z</time>
      </trkpt>
      <trkpt lat="40.145233" lon="-5.201517">
        <ele>933.0</ele>
        <time>2014-05-17T13:26:03Z</time>
      </trkpt>
      <trkpt lat="40.145250" lon="-5.201600">
        <ele>936.0</ele>
        <time>2014-05-17T13:26:04Z</time>
      </trkpt>
      <trkpt lat="40.145283" lon="-5.201683">
        <ele>939.0</ele>
        <time>2014-05-17T13:26:05Z</time>
      </trkpt>
      <trkpt lat="40.145333" lon="-5.201783">
        <ele>940.0</ele>
        <time>2014-05-17T13:26:06Z</time>
      </trkpt>
      <trkpt lat="40.145417" lon="-5.201850">
        <ele>941.0</ele>
        <time>2014-05-17T13:26:07Z</time>
      </trkpt>
      <trkpt lat="40.145500" lon="-5.201867">
        <ele>944.0</ele>
        <time>2014-05-17T13:26:08Z</time>
      </trkpt>
      <trkpt lat="40.145583" lon="-5.201850">
        <ele>946.0</ele>
        <time>2014-05-17T13:26:09Z</time>
      </trkpt>
      <trkpt lat="40.145650" lon="-5.201817">
        <ele>950.0</ele>
        <time>2014-05-17T13:26:10Z</time>
      </trkpt>
      <trkpt lat="40.145700" lon="-5.201783">
        <ele>953.0</ele>
        <time>2014-05-17T13:26:11Z</time>
      </trkpt>
      <trkpt lat="40.145767" lon="-5.201750">
        <ele>955.0</ele>
        <time>2014-05-17T13:26:12Z</time>
      </trkpt>
      <trkpt lat="40.145850" lon="-5.201683">
        <ele>957.0</ele>
        <time>2014-05-17T13:26:13Z</time>
      </trkpt>
      <trkpt lat="40.145900" lon="-5.201617">
        <ele>960.0</ele>
        <time>2014-05-17T13:26:14Z</time>
      </trkpt>
      <trkpt lat="40.145933" lon="-5.201533">
        <ele>963.0</ele>
        <time>2014-05-17T13:26:15Z</time>
      </trkpt>
      <trkpt lat="40.145967" lon="-5.201450">
        <ele>966.0</ele>
        <time>2014-05-17T13:26:16Z</time>
      </trkpt>
      <trkpt lat="40.145967" lon="-5.201350">
        <ele>970.0</ele>
        <time>2014-05-17T13:26:17Z</time>
      </trkpt>
      <trkpt lat="40.145967" lon="-5.201250">
        <ele>973.0</ele>
        <time>2014-05-17T13:26:18Z</time>
      </trkpt>
      <trkpt lat="40.145967" lon="-5.201150">
        <ele>977.0</ele>
        <time>2014-05-17T13:26:19Z</time>
      </trkpt>
      <trkpt lat="40.145950" lon="-5.201067">
        <ele>980.0</ele>
        <time>2014-05-17T13:26:20Z</time>
      </trkpt>
      <trkpt lat="40.145933" lon="-5.201000">
        <ele>984.0</ele>
        <time>2014-05-17T13:26:21Z</time>
      </trkpt>
      <trkpt lat="40.145900" lon="-5.200933">
        <ele>987.0</ele>
        <time>2014-05-17T13:26:22Z</time>
      </trkpt>
      <trkpt lat="40.145833" lon="-5.200883">
        <ele>990.0</ele>
        <time>2014-05-17T13:26:23Z</time>
      </trkpt>
      <trkpt lat="40.145767" lon="-5.200833">
        <ele>988.0</ele>
        <time>2014-05-17T13:26:24Z</time>
      </trkpt>
      <trkpt lat="40.145700" lon="-5.200783">
        <ele>989.0</ele>
        <time>2014-05-17T13:26:25Z</time>
      </trkpt>
      <trkpt lat="40.145617" lon="-5.200767">
        <ele>991.0</ele>
        <time>2014-05-17T13:26:26Z</time>
      </trkpt>
      <trkpt lat="40.145550" lon="-5.200767">
        <ele>993.0</ele>
        <time>2014-05-17T13:26:27Z</time>
      </trkpt>
      <trkpt lat="40.145483" lon="-5.200800">
        <ele>996.0</ele>
        <time>2014-05-17T13:26:28Z</time>
      </trkpt>
      <trkpt lat="40.145417" lon="-5.200833">
        <ele>998.0</ele>
        <time>2014-05-17T13:26:29Z</time>
      </trkpt>
      <trkpt lat="40.145350" lon="-5.200883">
        <ele>999.0</ele>
        <time>2014-05-17T13:26:30Z</time>
      </trkpt>
      <trkpt lat="40.145283" lon="-5.200950">
        <ele>1001.0</ele>
        <time>2014-05-17T13:26:31Z</time>
      </trkpt>
      <trkpt lat="40.145233" lon="-5.201050">
        <ele>1002.0</ele>
        <time>2014-05-17T13:26:32Z</time>
      </trkpt>
      <trkpt lat="40.145183" lon="-5.201133">
        <ele>1003.0</ele>
        <time>2014-05-17T13:26:33Z</time>
      </trkpt>
      <trkpt lat="40.145150" lon="-5.201250">
        <ele>1005.0</ele>
        <time>2014-05-17T13:26:34Z</time>
      </trkpt>
      <trkpt lat="40.145117" lon="-5.201367">
        <ele>1006.0</ele>
        <time>2014-05-17T13:26:35Z</time>
      </trkpt>
      <trkpt lat="40.145100" lon="-5.201500">
        <ele>1007.0</ele>
        <time>2014-05-17T13:26:36Z</time>
      </trkpt>
      <trkpt lat="40.145100" lon="-5.201650">
        <ele>1008.0</ele>
        <time>2014-05-17T13:26:37Z</time>
      </trkpt>
      <trkpt lat="40.145117" lon="-5.201800">
        <ele>1009.0</ele>
        <time>2014-05-17T13:26:38Z</time>
      </trkpt>
      <trkpt lat="40.145133" lon="-5.201933">
        <ele>1011.0</ele>
        <time>2014-05-17T13:26:39Z</time>
      </trkpt>
      <trkpt lat="40.145167" lon="-5.202083">
        <ele>1013.0</ele>
        <time>2014-05-17T13:26:40Z</time>
      </trkpt>
      <trkpt lat="40.145200" lon="-5.202200">
        <ele>1016.0</ele>
        <time>2014-05-17T13:26:41Z</time>
      </trkpt>
      <trkpt lat="40.145267" lon="-5.202317">
        <ele>1020.0</ele>
        <time>2014-05-17T13:26:42Z</time>
      </trkpt>
      <trkpt lat="40.145333" lon="-5.202400">
        <ele>1023.0</ele>
        <time>2014-05-17T13:26:43Z</time>
      </trkpt>
      <trkpt lat="40.145400" lon="-5.202467">
        <ele>1027.0</ele>
        <time>2014-05-17T13:26:44Z</time>
      </trkpt>
      <trkpt lat="40.145467" lon="-5.202517">
        <ele>1031.0</ele>
        <time>2014-05-17T13:26:45Z</time>
      </trkpt>
      <trkpt lat="40.145533" lon="-5.202567">
        <ele>1035.0</ele>
        <time>2014-05-17T13:26:46Z</time>
      </trkpt>
      <trkpt lat="40.145600" lon="-5.202600">
        <ele>1039.0</ele>
        <time>2014-05-17T13:26:47Z</time>
      </trkpt>
      <trkpt lat="40.145683" lon="-5.202600">
        <ele>1044.0</ele>
        <time>2014-05-17T13:26:48Z</time>
      </trkpt>
      <trkpt lat="40.145750" lon="-5.202567">
        <ele>1048.0</ele>
        <time>2014-05-17T13:26:49Z</time>
      </trkpt>
      <trkpt lat="40.145800" lon="-5.202517">
        <ele>1052.0</ele>
        <time>2014-05-17T13:26:50Z</time>
      </trkpt>
      <trkpt lat="40.145867" lon="-5.202467">
        <ele>1056.0</ele>
        <time>2014-05-17T13:26:51Z</time>
      </trkpt>
      <trkpt lat="40.145933" lon="-5.202400">
        <ele>1060.0</ele>
        <time>2014-05-17T13:26:52Z</time>
      </trkpt>
      <trkpt lat="40.146000" lon="-5.202317">
        <ele>1065.0</ele>
        <time>2014-05-17T13:26:53Z</time>
      </trkpt>
      <trkpt lat="40.146050" lon="-5.202233">
        <ele>1068.0</ele>
        <time>2014-05-17T13:26:54Z</time>
      </trkpt>
      <trkpt lat="40.146083" lon="-5.202167">
        <ele>1071.0</ele>
        <time>2014-05-17T13:26:55Z</time>
      </trkpt>
      <trkpt lat="40.146100" lon="-5.202083">
        <ele>1068.0</ele>
        <time>2014-05-17T13:26:56Z</time>
      </trkpt>
      <trkpt lat="40.146117" lon="-5.202017">
        <ele>1070.0</ele>
        <time>2014-05-17T13:26:57Z</time>
      </trkpt>
      <trkpt lat="40.146167" lon="-5.201967">
        <ele>1069.0</ele>
        <time>2014-05-17T13:26:58Z</time>
      </trkpt>
      <trkpt lat="40.146200" lon="-5.201900">
        <ele>1070.0</ele>
        <time>2014-05-17T13:26:59Z</time>
      </trkpt>
      <trkpt lat="40.146250" lon="-5.201817">
        <ele>1072.0</ele>
        <time>2014-05-17T13:27:00Z</time>
      </trkpt>
      <trkpt lat="40.146300" lon="-5.201733">
        <ele>1074.0</ele>
        <time>2014-05-17T13:27:01Z</time>
      </trkpt>
      <trkpt lat="40.146317" lon="-5.201567">
        <ele>1078.0</ele>
        <time>2014-05-17T13:27:03Z</time>
      </trkpt>
      <trkpt lat="40.146300" lon="-5.201500">
        <ele>1082.0</ele>
        <time>2014-05-17T13:27:04Z</time>
      </trkpt>
      <trkpt lat="40.146283" lon="-5.201433">
        <ele>1085.0</ele>
        <time>2014-05-17T13:27:05Z</time>
      </trkpt>
      <trkpt lat="40.146233" lon="-5.201383">
        <ele>1088.0</ele>
        <time>2014-05-17T13:27:06Z</time>
      </trkpt>
      <trkpt lat="40.146167" lon="-5.201333">
        <ele>1091.0</ele>
        <time>2014-05-17T13:27:07Z</time>
      </trkpt>
      <trkpt lat="40.146100" lon="-5.201300">
        <ele>1093.0</ele>
        <time>2014-05-17T13:27:08Z</time>
      </trkpt>
      <trkpt lat="40.146017" lon="-5.201283">
        <ele>1096.0</ele>
        <time>2014-05-17T13:27:09Z</time>
      </trkpt>
      <trkpt lat="40.145950" lon="-5.201283">
        <ele>1099.0</ele>
        <time>2014-05-17T13:27:10Z</time>
      </trkpt>
      <trkpt lat="40.145900" lon="-5.201283">
        <ele>1101.0</ele>
        <time>2014-05-17T13:27:11Z</time>
      </trkpt>
      <trkpt lat="40.145833" lon="-5.201317">
        <ele>1103.0</ele>
        <time>2014-05-17T13:27:12Z</time>
      </trkpt>
      <trkpt lat="40.145767" lon="-5.201367">
        <ele>1104.0</ele>
        <time>2014-05-17T13:27:13Z</time>
      </trkpt>
      <trkpt lat="40.145700" lon="-5.201450">
        <ele>1104.0</ele>
        <time>2014-05-17T13:27:14Z</time>
      </trkpt>
      <trkpt lat="40.145650" lon="-5.201533">
        <ele>1105.0</ele>
        <time>2014-05-17T13:27:15Z</time>
      </trkpt>
      <trkpt lat="40.145600" lon="-5.201633">
        <ele>1107.0</ele>
        <time>2014-05-17T13:27:16Z</time>
      </trkpt>
      <trkpt lat="40.145567" lon="-5.201733">
        <ele>1108.0</ele>
        <time>2014-05-17T13:27:17Z</time>
      </trkpt>
      <trkpt lat="40.145550" lon="-5.201833">
        <ele>1110.0</ele>
        <time>2014-05-17T13:27:18Z</time>
      </trkpt>
      <trkpt lat="40.145533" lon="-5.201967">
        <ele>1111.0</ele>
        <time>2014-05-17T13:27:19Z</time>
      </trkpt>
      <trkpt lat="40.145533" lon="-5.202100">
        <ele>1112.0</ele>
        <time>2014-05-17T13:27:20Z</time>
      </trkpt>
      <trkpt lat="40.145550" lon="-5.202233">
        <ele>1113.0</ele>
        <time>2014-05-17T13:27:21Z</time>
      </trkpt>
      <trkpt lat="40.145583" lon="-5.202367">
        <ele>1116.0</ele>
        <time>2014-05-17T13:27:22Z</time>
      </trkpt>
      <trkpt lat="40.145617" lon="-5.202483">
        <ele>1118.0</ele>
        <time>2014-05-17T13:27:23Z</time>
      </trkpt>
      <trkpt lat="40.145667" lon="-5.202583">
        <ele>1121.0</ele>
        <time>2014-05-17T13:27:24Z</time>
      </trkpt>
      <trkpt lat="40.145733" lon="-5.202683">
        <ele>1124.0</ele>
        <time>2014-05-17T13:27:25Z</time>
      </trkpt>
      <trkpt lat="40.145817" lon="-5.202733">
        <ele>1126.0</ele>
        <time>2014-05-17T13:27:26Z</time>
      </trkpt>
      <trkpt lat="40.145900" lon="-5.202750">
        <ele>1129.0</ele>
        <time>2014-05-17T13:27:27Z</time>
      </trkpt>
      <trkpt lat="40.145983" lon="-5.202733">
        <ele>1132.0</ele>
        <time>2014-05-17T13:27:28Z</time>
      </trkpt>
      <trkpt lat="40.146050" lon="-5.202700">
        <ele>1135.0</ele>
        <time>2014-05-17T13:27:29Z</time>
      </trkpt>
      <trkpt lat="40.146117" lon="-5.202667">
        <ele>1138.0</ele>
        <time>2014-05-17T13:27:30Z</time>
      </trkpt>
      <trkpt lat="40.146233" lon="-5.202550">
        <ele>1143.0</ele>
        <time>2014-05-17T13:27:32Z</time>
      </trkpt>
      <trkpt lat="40.146283" lon="-5.202483">
        <ele>1145.0</ele>
        <time>2014-05-17T13:27:33Z</time>
      </trkpt>
      <trkpt lat="40.146350" lon="-5.202417">
        <ele>1148.0</ele>
        <time>2014-05-17T13:27:34Z</time>
      </trkpt>
      <trkpt lat="40.146417" lon="-5.202350">
        <ele>1150.0</ele>
        <time>2014-05-17T13:27:35Z</time>
      </trkpt>
      <trkpt lat="40.146483" lon="-5.202267">
        <ele>1153.0</ele>
        <time>2014-05-17T13:27:36Z</time>
      </trkpt>
      <trkpt lat="40.146550" lon="-5.202200">
        <ele>1155.0</ele>
        <time>2014-05-17T13:27:37Z</time>
      </trkpt>
      <trkpt lat="40.146600" lon="-5.202117">
        <ele>1159.0</ele>
        <time>2014-05-17T13:27:38Z</time>
      </trkpt>
      <trkpt lat="40.146650" lon="-5.202050">
        <ele>1162.0</ele>
        <time>2014-05-17T13:27:39Z</time>
      </trkpt>
      <trkpt lat="40.146683" lon="-5.201983">
        <ele>1164.0</ele>
        <time>2014-05-17T13:27:40Z</time>
      </trkpt>
      <trkpt lat="40.146700" lon="-5.201917">
        <ele>1167.0</ele>
        <time>2014-05-17T13:27:41Z</time>
      </trkpt>
      <trkpt lat="40.146700" lon="-5.201833">
        <ele>1168.0</ele>
        <time>2014-05-17T13:27:42Z</time>
      </trkpt>
      <trkpt lat="40.146700" lon="-5.201767">
        <ele>1169.0</ele>
        <time>2014-05-17T13:27:43Z</time>
      </trkpt>
      <trkpt lat="40.146683" lon="-5.201700">
        <ele>1170.0</ele>
        <time>2014-05-17T13:27:44Z</time>
      </trkpt>
      <trkpt lat="40.146667" lon="-5.201633">
        <ele>1167.0</ele>
        <time>2014-05-17T13:27:45Z</time>
      </trkpt>
      <trkpt lat="40.146633" lon="-5.201583">
        <ele>1167.0</ele>
        <time>2014-05-17T13:27:46Z</time>
      </trkpt>
      <trkpt lat="40.146600" lon="-5.201533">
        <ele>1167.0</ele>
        <time>2014-05-17T13:27:47Z</time>
      </trkpt>
      <trkpt lat="40.146517" lon="-5.201517">
        <ele>1167.0</ele>
        <time>2014-05-17T13:27:48Z</time>
      </trkpt>
      <trkpt lat="40.146433" lon="-5.201500">
        <ele>1166.0</ele>
        <time>2014-05-17T13:27:49Z</time>
      </trkpt>
      <trkpt lat="40.146350" lon="-5.201500">
        <ele>1164.0</ele>
        <time>2014-05-17T13:27:50Z</time>
      </trkpt>
      <trkpt lat="40.146283" lon="-5.201517">
        <ele>1164.0</ele>
        <time>2014-05-17T13:27:51Z</time>
      </trkpt>
      <trkpt lat="40.146217" lon="-5.201517">
        <ele>1163.0</ele>
        <time>2014-05-17T13:27:52Z</time>
      </trkpt>
      <trkpt lat="40.146150" lon="-5.201533">
        <ele>1161.0</ele>
        <time>2014-05-17T13:27:53Z</time>
      </trkpt>
      <trkpt lat="40.146067" lon="-5.201567">
        <ele>1159.0</ele>
        <time>2014-05-17T13:27:54Z</time>
      </trkpt>
      <trkpt lat="40.145983" lon="-5.201633">
        <ele>1156.0</ele>
        <time>2014-05-17T13:27:55Z</time>
      </trkpt>
      <trkpt lat="40.145900" lon="-5.201717">
        <ele>1154.0</ele>
        <time>2014-05-17T13:27:56Z</time>
      </trkpt>
      <trkpt lat="40.145850" lon="-5.201817">
        <ele>1153.0</ele>
        <time>2014-05-17T13:27:57Z</time>
      </trkpt>
      <trkpt lat="40.145800" lon="-5.201900">
        <ele>1151.0</ele>
        <time>2014-05-17T13:27:58Z</time>
      </trkpt>
      <trkpt lat="40.145767" lon="-5.202000">
        <ele>1150.0</ele>
        <time>2014-05-17T13:27:59Z</time>
      </trkpt>
      <trkpt lat="40.145750" lon="-5.202117">
        <ele>1148.0</ele>
        <time>2014-05-17T13:28:00Z</time>
      </trkpt>
      <trkpt lat="40.145717" lon="-5.202250">
        <ele>1146.0</ele>
        <time>2014-05-17T13:28:01Z</time>
      </trkpt>
      <trkpt lat="40.145700" lon="-5.202400">
        <ele>1144.0</ele>
        <time>2014-05-17T13:28:02Z</time>
      </trkpt>
      <trkpt lat="40.145683" lon="-5.202550">
        <ele>1142.0</ele>
        <time>2014-05-17T13:28:03Z</time>
      </trkpt>
      <trkpt lat="40.145667" lon="-5.202683">
        <ele>1141.0</ele>
        <time>2014-05-17T13:28:04Z</time>
      </trkpt>
      <trkpt lat="40.145650" lon="-5.202817">
        <ele>1140.0</ele>
        <time>2014-05-17T13:28:05Z</time>
      </trkpt>
      <trkpt lat="40.145633" lon="-5.202950">
        <ele>1139.0</ele>
        <time>2014-05-17T13:28:06Z</time>
      </trkpt>
      <trkpt lat="40.145617" lon="-5.203083">
        <ele>1138.0</ele>
        <time>2014-05-17T13:28:07Z</time>
      </trkpt>
      <trkpt lat="40.145617" lon="-5.203200">
        <ele>1138.0</ele>
        <time>2014-05-17T13:28:08Z</time>
      </trkpt>
      <trkpt lat="40.145600" lon="-5.203333">
        <ele>1138.0</ele>
        <time>2014-05-17T13:28:09Z</time>
      </trkpt>
      <trkpt lat="40.145583" lon="-5.203450">
        <ele>1139.0</ele>
        <time>2014-05-17T13:28:10Z</time>
      </trkpt>
      <trkpt lat="40.145583" lon="-5.203583">
        <ele>1139.0</ele>
        <time>2014-05-17T13:28:11Z</time>
      </trkpt>
      <trkpt lat="40.145583" lon="-5.203717">
        <ele>1140.0</ele>
        <time>2014-05-17T13:28:12Z</time>
      </trkpt>
      <trkpt lat="40.145617" lon="-5.203850">
        <ele>1140.0</ele>
        <time>2014-05-17T13:28:13Z</time>
      </trkpt>
      <trkpt lat="40.145650" lon="-5.203983">
        <ele>1142.0</ele>
        <time>2014-05-17T13:28:14Z</time>
      </trkpt>
      <trkpt lat="40.145700" lon="-5.204083">
        <ele>1145.0</ele>
        <time>2014-05-17T13:28:15Z</time>
      </trkpt>
      <trkpt lat="40.145750" lon="-5.204183">
        <ele>1148.0</ele>
        <time>2014-05-17T13:28:16Z</time>
      </trkpt>
      <trkpt lat="40.145800" lon="-5.204250">
        <ele>1150.0</ele>
        <time>2014-05-17T13:28:17Z</time>
      </trkpt>
      <trkpt lat="40.145867" lon="-5.204317">
        <ele>1151.0</ele>
        <time>2014-05-17T13:28:18Z</time>
      </trkpt>
      <trkpt lat="40.145917" lon="-5.204400">
        <ele>1151.0</ele>
        <time>2014-05-17T13:28:19Z</time>
      </trkpt>
      <trkpt lat="40.145983" lon="-5.204517">
        <ele>1150.0</ele>
        <time>2014-05-17T13:28:20Z</time>
      </trkpt>
      <trkpt lat="40.146050" lon="-5.204633">
        <ele>1151.0</ele>
        <time>2014-05-17T13:28:21Z</time>
      </trkpt>
      <trkpt lat="40.146100" lon="-5.204733">
        <ele>1153.0</ele>
        <time>2014-05-17T13:28:22Z</time>
      </trkpt>
      <trkpt lat="40.146150" lon="-5.204817">
        <ele>1155.0</ele>
        <time>2014-05-17T13:28:23Z</time>
      </trkpt>
      <trkpt lat="40.146233" lon="-5.204883">
        <ele>1157.0</ele>
        <time>2014-05-17T13:28:24Z</time>
      </trkpt>
      <trkpt lat="40.146317" lon="-5.204917">
        <ele>1157.0</ele>
        <time>2014-05-17T13:28:25Z</time>
      </trkpt>
      <trkpt lat="40.146417" lon="-5.204933">
        <ele>1158.0</ele>
        <time>2014-05-17T13:28:26Z</time>
      </trkpt>
      <trkpt lat="40.146550" lon="-5.204900">
        <ele>1160.0</ele>
        <time>2014-05-17T13:28:28Z</time>
      </trkpt>
      <trkpt lat="40.146600" lon="-5.204867">
        <ele>1160.0</ele>
        <time>2014-05-17T13:28:29Z</time>
      </trkpt>
      <trkpt lat="40.146650" lon="-5.204800">
        <ele>1161.0</ele>
        <time>2014-05-17T13:28:30Z</time>
      </trkpt>
      <trkpt lat="40.146700" lon="-5.204750">
        <ele>1161.0</ele>
        <time>2014-05-17T13:28:31Z</time>
      </trkpt>
      <trkpt lat="40.146750" lon="-5.204667">
        <ele>1162.0</ele>
        <time>2014-05-17T13:28:32Z</time>
      </trkpt>
      <trkpt lat="40.146783" lon="-5.204600">
        <ele>1162.0</ele>
        <time>2014-05-17T13:28:33Z</time>
      </trkpt>
      <trkpt lat="40.146800" lon="-5.204533">
        <ele>1164.0</ele>
        <time>2014-05-17T13:28:34Z</time>
      </trkpt>
      <trkpt lat="40.146817" lon="-5.204450">
        <ele>1165.0</ele>
        <time>2014-05-17T13:28:35Z</time>
      </trkpt>
      <trkpt lat="40.146800" lon="-5.204383">
        <ele>1165.0</ele>
        <time>2014-05-17T13:28:36Z</time>
      </trkpt>
      <trkpt lat="40.146783" lon="-5.204317">
        <ele>1166.0</ele>
        <time>2014-05-17T13:28:37Z</time>
      </trkpt>
      <trkpt lat="40.146750" lon="-5.204233">
        <ele>1166.0</ele>
        <time>2014-05-17T13:28:38Z</time>
      </trkpt>
      <trkpt lat="40.146717" lon="-5.204183">
        <ele>1166.0</ele>
        <time>2014-05-17T13:28:39Z</time>
      </trkpt>
      <trkpt lat="40.146683" lon="-5.204133">
        <ele>1166.0</ele>
        <time>2014-05-17T13:28:40Z</time>
      </trkpt>
      <trkpt lat="40.146633" lon="-5.204117">
        <ele>1167.0</ele>
        <time>2014-05-17T13:28:41Z</time>
      </trkpt>
      <trkpt lat="40.146583" lon="-5.204117">
        <ele>1167.0</ele>
        <time>2014-05-17T13:28:42Z</time>
      </trkpt>
      <trkpt lat="40.146533" lon="-5.204133">
        <ele>1167.0</ele>
        <time>2014-05-17T13:28:43Z</time>
      </trkpt>
      <trkpt lat="40.146483" lon="-5.204150">
        <ele>1168.0</ele>
        <time>2014-05-17T13:28:44Z</time>
      </trkpt>
      <trkpt lat="40.146450" lon="-5.204167">
        <ele>1168.0</ele>
        <time>2014-05-17T13:28:45Z</time>
      </trkpt>
      <trkpt lat="40.146400" lon="-5.204217">
        <ele>1168.0</ele>
        <time>2014-05-17T13:28:46Z</time>
      </trkpt>
      <trkpt lat="40.146367" lon="-5.204300">
        <ele>1168.0</ele>
        <time>2014-05-17T13:28:47Z</time>
      </trkpt>
      <trkpt lat="40.146333" lon="-5.204383">
        <ele>1167.0</ele>
        <time>2014-05-17T13:28:48Z</time>
      </trkpt>
      <trkpt lat="40.146300" lon="-5.204500">
        <ele>1167.0</ele>
        <time>2014-05-17T13:28:49Z</time>
      </trkpt>
      <trkpt lat="40.146283" lon="-5.204617">
        <ele>1166.0</ele>
        <time>2014-05-17T13:28:50Z</time>
      </trkpt>
      <trkpt lat="40.146267" lon="-5.204717">
        <ele>1167.0</ele>
        <time>2014-05-17T13:28:51Z</time>
      </trkpt>
      <trkpt lat="40.146250" lon="-5.204833">
        <ele>1168.0</ele>
        <time>2014-05-17T13:28:52Z</time>
      </trkpt>
      <trkpt lat="40.146250" lon="-5.204967">
        <ele>1169.0</ele>
        <time>2014-05-17T13:28:53Z</time>
      </trkpt>
      <trkpt lat="40.146267" lon="-5.205083">
        <ele>1170.0</ele>
        <time>2014-05-17T13:28:54Z</time>
      </trkpt>
      <trkpt lat="40.146317" lon="-5.205200">
        <ele>1171.0</ele>
        <time>2014-05-17T13:28:55Z</time>
      </trkpt>
      <trkpt lat="40.146367" lon="-5.205317">
        <ele>1171.0</ele>
        <time>2014-05-17T13:28:56Z</time>
      </trkpt>
      <trkpt lat="40.146433" lon="-5.205417">
        <ele>1172.0</ele>
        <time>2014-05-17T13:28:57Z</time>
      </trkpt>
      <trkpt lat="40.146517" lon="-5.205483">
        <ele>1175.0</ele>
        <time>2014-05-17T13:28:58Z</time>
      </trkpt>
      <trkpt lat="40.146583" lon="-5.205567">
        <ele>1177.0</ele>
        <time>2014-05-17T13:28:59Z</time>
      </trkpt>
      <trkpt lat="40.146650" lon="-5.205617">
        <ele>1178.0</ele>
        <time>2014-05-17T13:29:00Z</time>
      </trkpt>
      <trkpt lat="40.146750" lon="-5.205667">
        <ele>1179.0</ele>
        <time>2014-05-17T13:29:01Z</time>
      </trkpt>
      <trkpt lat="40.146833" lon="-5.205700">
        <ele>1179.0</ele>
        <time>2014-05-17T13:29:02Z</time>
      </trkpt>
      <trkpt lat="40.146917" lon="-5.205683">
        <ele>1179.0</ele>
        <time>2014-05-17T13:29:03Z</time>
      </trkpt>
      <trkpt lat="40.147000" lon="-5.205650">
        <ele>1180.0</ele>
        <time>2014-05-17T13:29:04Z</time>
      </trkpt>
      <trkpt lat="40.147067" lon="-5.205617">
        <ele>1181.0</ele>
        <time>2014-05-17T13:29:05Z</time>
      </trkpt>
      <trkpt lat="40.147117" lon="-5.205567">
        <ele>1182.0</ele>
        <time>2014-05-17T13:29:06Z</time>
      </trkpt>
      <trkpt lat="40.147150" lon="-5.205533">
        <ele>1183.0</ele>
        <time>2014-05-17T13:29:07Z</time>
      </trkpt>
      <trkpt lat="40.147183" lon="-5.205483">
        <ele>1183.0</ele>
        <time>2014-05-17T13:29:08Z</time>
      </trkpt>
      <trkpt lat="40.147217" lon="-5.205417">
        <ele>1183.0</ele>
        <time>2014-05-17T13:29:09Z</time>
      </trkpt>
      <trkpt lat="40.147233" lon="-5.205333">
        <ele>1182.0</ele>
        <time>2014-05-17T13:29:10Z</time>
      </trkpt>
      <trkpt lat="40.147250" lon="-5.205250">
        <ele>1181.0</ele>
        <time>2014-05-17T13:29:11Z</time>
      </trkpt>
      <trkpt lat="40.147267" lon="-5.205183">
        <ele>1181.0</ele>
        <time>2014-05-17T13:29:12Z</time>
      </trkpt>
      <trkpt lat="40.147267" lon="-5.205133">
        <ele>1182.0</ele>
        <time>2014-05-17T13:29:13Z</time>
      </trkpt>
      <trkpt lat="40.147267" lon="-5.205083">
        <ele>1182.0</ele>
        <time>2014-05-17T13:29:14Z</time>
      </trkpt>
      <trkpt lat="40.147200" lon="-5.205000">
        <ele>1181.0</ele>
        <time>2014-05-17T13:29:16Z</time>
      </trkpt>
      <trkpt lat="40.147183" lon="-5.204950">
        <ele>1179.0</ele>
        <time>2014-05-17T13:29:17Z</time>
      </trkpt>
      <trkpt lat="40.147150" lon="-5.204900">
        <ele>1179.0</ele>
        <time>2014-05-17T13:29:18Z</time>
      </trkpt>
      <trkpt lat="40.147133" lon="-5.204867">
        <ele>1179.0</ele>
        <time>2014-05-17T13:29:19Z</time>
      </trkpt>
      <trkpt lat="40.147117" lon="-5.204850">
        <ele>1179.0</ele>
        <time>2014-05-17T13:29:20Z</time>
      </trkpt>
      <trkpt lat="40.147050" lon="-5.204850">
        <ele>1178.0</ele>
        <time>2014-05-17T13:29:21Z</time>
      </trkpt>
      <trkpt lat="40.146983" lon="-5.204867">
        <ele>1177.0</ele>
        <time>2014-05-17T13:29:22Z</time>
      </trkpt>
      <trkpt lat="40.146900" lon="-5.204900">
        <ele>1176.0</ele>
        <time>2014-05-17T13:29:23Z</time>
      </trkpt>
      <trkpt lat="40.146833" lon="-5.204933">
        <ele>1175.0</ele>
        <time>2014-05-17T13:29:24Z</time>
      </trkpt>
      <trkpt lat="40.146783" lon="-5.204967">
        <ele>1175.0</ele>
        <time>2014-05-17T13:29:25Z</time>
      </trkpt>
      <trkpt lat="40.146733" lon="-5.205017">
        <ele>1176.0</ele>
        <time>2014-05-17T13:29:26Z</time>
      </trkpt>
      <trkpt lat="40.146683" lon="-5.205083">
        <ele>1176.0</ele>
        <time>2014-05-17T13:29:27Z</time>
      </trkpt>
      <trkpt lat="40.146633" lon="-5.205167">
        <ele>1175.0</ele>
        <time>2014-05-17T13:29:28Z</time>
      </trkpt>
      <trkpt lat="40.146583" lon="-5.205283">
        <ele>1173.0</ele>
        <time>2014-05-17T13:29:29Z</time>
      </trkpt>
      <trkpt lat="40.146550" lon="-5.205383">
        <ele>1172.0</ele>
        <time>2014-05-17T13:29:30Z</time>
      </trkpt>
      <trkpt lat="40.146500" lon="-5.205450">
        <ele>1171.0</ele>
        <time>2014-05-17T13:29:31Z</time>
      </trkpt>
      <trkpt lat="40.146450" lon="-5.205517">
        <ele>1171.0</ele>
        <time>2014-05-17T13:29:32Z</time>
      </trkpt>
      <trkpt lat="40.146400" lon="-5.205567">
        <ele>1170.0</ele>
        <time>2014-05-17T13:29:33Z</time>
      </trkpt>
      <trkpt lat="40.146333" lon="-5.205600">
        <ele>1169.0</ele>
        <time>2014-05-17T13:29:34Z</time>
      </trkpt>
      <trkpt lat="40.146267" lon="-5.205633">
        <ele>1168.0</ele>
        <time>2014-05-17T13:29:35Z</time>
      </trkpt>
      <trkpt lat="40.146200" lon="-5.205667">
        <ele>1168.0</ele>
        <time>2014-05-17T13:29:36Z</time>
      </trkpt>
      <trkpt lat="40.146150" lon="-5.205700">
        <ele>1169.0</ele>
        <time>2014-05-17T13:29:37Z</time>
      </trkpt>
      <trkpt lat="40.146100" lon="-5.205767">
        <ele>1170.0</ele>
        <time>2014-05-17T13:29:38Z</time>
      </trkpt>
      <trkpt lat="40.146050" lon="-5.205850">
        <ele>1170.0</ele>
        <time>2014-05-17T13:29:39Z</time>
      </trkpt>
      <trkpt lat="40.146000" lon="-5.205950">
        <ele>1169.0</ele>
        <time>2014-05-17T13:29:40Z</time>
      </trkpt>
      <trkpt lat="40.145983" lon="-5.206067">
        <ele>1169.0</ele>
        <time>2014-05-17T13:29:41Z</time>
      </trkpt>
      <trkpt lat="40.145967" lon="-5.206183">
        <ele>1169.0</ele>
        <time>2014-05-17T13:29:42Z</time>
      </trkpt>
      <trkpt lat="40.145967" lon="-5.206300">
        <ele>1169.0</ele>
        <time>2014-05-17T13:29:43Z</time>
      </trkpt>
      <trkpt lat="40.145983" lon="-5.206433">
        <ele>1169.0</ele>
        <time>2014-05-17T13:29:44Z</time>
      </trkpt>
      <trkpt lat="40.146000" lon="-5.206567">
        <ele>1169.0</ele>
        <time>2014-05-17T13:29:45Z</time>
      </trkpt>
      <trkpt lat="40.146033" lon="-5.206700">
        <ele>1169.0</ele>
        <time>2014-05-17T13:29:46Z</time>
      </trkpt>
      <trkpt lat="40.146067" lon="-5.206833">
        <ele>1169.0</ele>
        <time>2014-05-17T13:29:47Z</time>
      </trkpt>
      <trkpt lat="40.146100" lon="-5.206950">
        <ele>1169.0</ele>
        <time>2014-05-17T13:29:48Z</time>
      </trkpt>
      <trkpt lat="40.146133" lon="-5.207067">
        <ele>1169.0</ele>
        <time>2014-05-17T13:29:49Z</time>
      </trkpt>
      <trkpt lat="40.146200" lon="-5.207183">
        <ele>1169.0</ele>
        <time>2014-05-17T13:29:50Z</time>
      </trkpt>
      <trkpt lat="40.146250" lon="-5.207283">
        <ele>1169.0</ele>
        <time>2014-05-17T13:29:51Z</time>
      </trkpt>
      <trkpt lat="40.146333" lon="-5.207367">
        <ele>1170.0</ele>
        <time>2014-05-17T13:29:52Z</time>
      </trkpt>
      <trkpt lat="40.146417" lon="-5.207417">
        <ele>1170.0</ele>
        <time>2014-05-17T13:29:53Z</time>
      </trkpt>
      <trkpt lat="40.146500" lon="-5.207467">
        <ele>1171.0</ele>
        <time>2014-05-17T13:29:54Z</time>
      </trkpt>
      <trkpt lat="40.146567" lon="-5.207500">
        <ele>1172.0</ele>
        <time>2014-05-17T13:29:55Z</time>
      </trkpt>
      <trkpt lat="40.146650" lon="-5.207533">
        <ele>1173.0</ele>
        <time>2014-05-17T13:29:56Z</time>
      </trkpt>
      <trkpt lat="40.146733" lon="-5.207550">
        <ele>1174.0</ele>
        <time>2014-05-17T13:29:57Z</time>
      </trkpt>
      <trkpt lat="40.146817" lon="-5.207550">
        <ele>1174.0</ele>
        <time>2014-05-17T13:29:58Z</time>
      </trkpt>
      <trkpt lat="40.146900" lon="-5.207517">
        <ele>1174.0</ele>
        <time>2014-05-17T13:29:59Z</time>
      </trkpt>
      <trkpt lat="40.146967" lon="-5.207483">
        <ele>1174.0</ele>
        <time>2014-05-17T13:30:00Z</time>
      </trkpt>
      <trkpt lat="40.147017" lon="-5.207417">
        <ele>1175.0</ele>
        <time>2014-05-17T13:30:01Z</time>
      </trkpt>
      <trkpt lat="40.147067" lon="-5.207367">
        <ele>1175.0</ele>
        <time>2014-05-17T13:30:02Z</time>
      </trkpt>
      <trkpt lat="40.147117" lon="-5.207183">
        <ele>1178.0</ele>
        <time>2014-05-17T13:30:05Z</time>
      </trkpt>
      <trkpt lat="40.147083" lon="-5.207117">
        <ele>1176.0</ele>
        <time>2014-05-17T13:30:06Z</time>
      </trkpt>
      <trkpt lat="40.147050" lon="-5.207050">
        <ele>1174.0</ele>
        <time>2014-05-17T13:30:07Z</time>
      </trkpt>
      <trkpt lat="40.147033" lon="-5.207000">
        <ele>1173.0</ele>
        <time>2014-05-17T13:30:08Z</time>
      </trkpt>
      <trkpt lat="40.147000" lon="-5.206967">
        <ele>1173.0</ele>
        <time>2014-05-17T13:30:09Z</time>
      </trkpt>
      <trkpt lat="40.146983" lon="-5.206933">
        <ele>1173.0</ele>
        <time>2014-05-17T13:30:10Z</time>
      </trkpt>
      <trkpt lat="40.146950" lon="-5.206917">
        <ele>1173.0</ele>
        <time>2014-05-17T13:30:11Z</time>
      </trkpt>
      <trkpt lat="40.146883" lon="-5.206917">
        <ele>1172.0</ele>
        <time>2014-05-17T13:30:12Z</time>
      </trkpt>
      <trkpt lat="40.146833" lon="-5.206933">
        <ele>1171.0</ele>
        <time>2014-05-17T13:30:13Z</time>
      </trkpt>
      <trkpt lat="40.146767" lon="-5.206983">
        <ele>1171.0</ele>
        <time>2014-05-17T13:30:14Z</time>
      </trkpt>
      <trkpt lat="40.146717" lon="-5.207067">
        <ele>1171.0</ele>
        <time>2014-05-17T13:30:15Z</time>
      </trkpt>
      <trkpt lat="40.146667" lon="-5.207167">
        <ele>1170.0</ele>
        <time>2014-05-17T13:30:16Z</time>
      </trkpt>
      <trkpt lat="40.146633" lon="-5.207300">
        <ele>1170.0</ele>
        <time>2014-05-17T13:30:17Z</time>
      </trkpt>
      <trkpt lat="40.146600" lon="-5.207450">
        <ele>1170.0</ele>
        <time>2014-05-17T13:30:18Z</time>
      </trkpt>
      <trkpt lat="40.146583" lon="-5.207600">
        <ele>1170.0</ele>
        <time>2014-05-17T13:30:19Z</time>
      </trkpt>
      <trkpt lat="40.146600" lon="-5.207750">
        <ele>1171.0</ele>
        <time>2014-05-17T13:30:20Z</time>
      </trkpt>
      <trkpt lat="40.146617" lon="-5.207883">
        <ele>1172.0</ele>
        <time>2014-05-17T13:30:21Z</time>
      </trkpt>
      <trkpt lat="40.146667" lon="-5.208017">
        <ele>1172.0</ele>
        <time>2014-05-17T13:30:22Z</time>
      </trkpt>
      <trkpt lat="40.146750" lon="-5.208150">
        <ele>1172.0</ele>
        <time>2014-05-17T13:30:23Z</time>
      </trkpt>
      <trkpt lat="40.146817" lon="-5.208250">
        <ele>1172.0</ele>
        <time>2014-05-17T13:30:24Z</time>
      </trkpt>
      <trkpt lat="40.146900" lon="-5.208333">
        <ele>1173.0</ele>
        <time>2014-05-17T13:30:25Z</time>
      </trkpt>
      <trkpt lat="40.146983" lon="-5.208383">
        <ele>1174.0</ele>
        <time>2014-05-17T13:30:26Z</time>
      </trkpt>
      <trkpt lat="40.147067" lon="-5.208417">
        <ele>1175.0</ele>
        <time>2014-05-17T13:30:27Z</time>
      </trkpt>
      <trkpt lat="40.147150" lon="-5.208433">
        <ele>1175.0</ele>
        <time>2014-05-17T13:30:28Z</time>
      </trkpt>
      <trkpt lat="40.147250" lon="-5.208417">
        <ele>1175.0</ele>
        <time>2014-05-17T13:30:29Z</time>
      </trkpt>
      <trkpt lat="40.147400" lon="-5.208317">
        <ele>1176.0</ele>
        <time>2014-05-17T13:30:31Z</time>
      </trkpt>
      <trkpt lat="40.147450" lon="-5.208267">
        <ele>1177.0</ele>
        <time>2014-05-17T13:30:32Z</time>
      </trkpt>
      <trkpt lat="40.147517" lon="-5.208217">
        <ele>1178.0</ele>
        <time>2014-05-17T13:30:33Z</time>
      </trkpt>
      <trkpt lat="40.147550" lon="-5.208167">
        <ele>1179.0</ele>
        <time>2014-05-17T13:30:34Z</time>
      </trkpt>
      <trkpt lat="40.147567" lon="-5.208100">
        <ele>1179.0</ele>
        <time>2014-05-17T13:30:35Z</time>
      </trkpt>
      <trkpt lat="40.147583" lon="-5.208033">
        <ele>1177.0</ele>
        <time>2014-05-17T13:30:36Z</time>
      </trkpt>
      <trkpt lat="40.147583" lon="-5.207967">
        <ele>1176.0</ele>
        <time>2014-05-17T13:30:37Z</time>
      </trkpt>
      <trkpt lat="40.147583" lon="-5.207900">
        <ele>1176.0</ele>
        <time>2014-05-17T13:30:38Z</time>
      </trkpt>
      <trkpt lat="40.147600" lon="-5.207833">
        <ele>1176.0</ele>
        <time>2014-05-17T13:30:39Z</time>
      </trkpt>
      <trkpt lat="40.147617" lon="-5.207783">
        <ele>1175.0</ele>
        <time>2014-05-17T13:30:40Z</time>
      </trkpt>
      <trkpt lat="40.147617" lon="-5.207717">
        <ele>1175.0</ele>
        <time>2014-05-17T13:30:41Z</time>
      </trkpt>
      <trkpt lat="40.147600" lon="-5.207683">
        <ele>1174.0</ele>
        <time>2014-05-17T13:30:42Z</time>
      </trkpt>
      <trkpt lat="40.147567" lon="-5.207650">
        <ele>1173.0</ele>
        <time>2014-05-17T13:30:43Z</time>
      </trkpt>
      <trkpt lat="40.147517" lon="-5.207633">
        <ele>1174.0</ele>
        <time>2014-05-17T13:30:44Z</time>
      </trkpt>
      <trkpt lat="40.147467" lon="-5.207617">
        <ele>1172.0</ele>
        <time>2014-05-17T13:30:45Z</time>
      </trkpt>
      <trkpt lat="40.147400" lon="-5.207617">
        <ele>1171.0</ele>
        <time>2014-05-17T13:30:46Z</time>
      </trkpt>
      <trkpt lat="40.147350" lon="-5.207600">
        <ele>1169.0</ele>
        <time>2014-05-17T13:30:47Z</time>
      </trkpt>
      <trkpt lat="40.147283" lon="-5.207600">
        <ele>1168.0</ele>
        <time>2014-05-17T13:30:48Z</time>
      </trkpt>
      <trkpt lat="40.147233" lon="-5.207583">
        <ele>1166.0</ele>
        <time>2014-05-17T13:30:49Z</time>
      </trkpt>
      <trkpt lat="40.147167" lon="-5.207567">
        <ele>1165.0</ele>
        <time>2014-05-17T13:30:50Z</time>
      </trkpt>
      <trkpt lat="40.147117" lon="-5.207567">
        <ele>1164.0</ele>
        <time>2014-05-17T13:30:51Z</time>
      </trkpt>
      <trkpt lat="40.147050" lon="-5.207533">
        <ele>1164.0</ele>
        <time>2014-05-17T13:30:52Z</time>
      </trkpt>
      <trkpt lat="40.147000" lon="-5.207517">
        <ele>1164.0</ele>
        <time>2014-05-17T13:30:53Z</time>
      </trkpt>
      <trkpt lat="40.146950" lon="-5.207500">
        <ele>1164.0</ele>
        <time>2014-05-17T13:30:54Z</time>
      </trkpt>
      <trkpt lat="40.146900" lon="-5.207483">
        <ele>1164.0</ele>
        <time>2014-05-17T13:30:55Z</time>
      </trkpt>
      <trkpt lat="40.146833" lon="-5.207483">
        <ele>1163.0</ele>
        <time>2014-05-17T13:30:56Z</time>
      </trkpt>
      <trkpt lat="40.146783" lon="-5.207467">
        <ele>1162.0</ele>
        <time>2014-05-17T13:30:57Z</time>
      </trkpt>
      <trkpt lat="40.146717" lon="-5.207450">
        <ele>1163.0</ele>
        <time>2014-05-17T13:30:58Z</time>
      </trkpt>
      <trkpt lat="40.146683" lon="-5.207417">
        <ele>1163.0</ele>
        <time>2014-05-17T13:30:59Z</time>
      </trkpt>
      <trkpt lat="40.146667" lon="-5.207350">
        <ele>1164.0</ele>
        <time>2014-05-17T13:31:00Z</time>
      </trkpt>
      <trkpt lat="40.146650" lon="-5.207283">
        <ele>1165.0</ele>
        <time>2014-05-17T13:31:01Z</time>
      </trkpt>
      <trkpt lat="40.146650" lon="-5.207233">
        <ele>1166.0</ele>
        <time>2014-05-17T13:31:02Z</time>
      </trkpt>
      <trkpt lat="40.146650" lon="-5.207167">
        <ele>1167.0</ele>
        <time>2014-05-17T13:31:03Z</time>
      </trkpt>
      <trkpt lat="40.146683" lon="-5.207033">
        <ele>1169.0</ele>
        <time>2014-05-17T13:31:05Z</time>
      </trkpt>
      <trkpt lat="40.146700" lon="-5.206967">
        <ele>1169.0</ele>
        <time>2014-05-17T13:31:06Z</time>
      </trkpt>
      <trkpt lat="40.146717" lon="-5.206900">
        <ele>1169.0</ele>
        <time>2014-05-17T13:31:07Z</time>
      </trkpt>
      <trkpt lat="40.146717" lon="-5.206833">
        <ele>1168.0</ele>
        <time>2014-05-17T13:31:08Z</time>
      </trkpt>
      <trkpt lat="40.146700" lon="-5.206750">
        <ele>1165.0</ele>
        <time>2014-05-17T13:31:09Z</time>
      </trkpt>
      <trkpt lat="40.146700" lon="-5.206667">
        <ele>1163.0</ele>
        <time>2014-05-17T13:31:10Z</time>
      </trkpt>
      <trkpt lat="40.146717" lon="-5.206600">
        <ele>1162.0</ele>
        <time>2014-05-17T13:31:11Z</time>
      </trkpt>
      <trkpt lat="40.146750" lon="-5.206533">
        <ele>1161.0</ele>
        <time>2014-05-17T13:31:12Z</time>
      </trkpt>
      <trkpt lat="40.146783" lon="-5.206500">
        <ele>1160.0</ele>
        <time>2014-05-17T13:31:13Z</time>
      </trkpt>
      <trkpt lat="40.146800" lon="-5.206433">
        <ele>1158.0</ele>
        <time>2014-05-17T13:31:14Z</time>
      </trkpt>
      <trkpt lat="40.146817" lon="-5.206350">
        <ele>1156.0</ele>
        <time>2014-05-17T13:31:15Z</time>
      </trkpt>
      <trkpt lat="40.146833" lon="-5.206267">
        <ele>1155.0</ele>
        <time>2014-05-17T13:31:16Z</time>
      </trkpt>
      <trkpt lat="40.146817" lon="-5.206200">
        <ele>1155.0</ele>
        <time>2014-05-17T13:31:17Z</time>
      </trkpt>
      <trkpt lat="40.146783" lon="-5.206150">
        <ele>1156.0</ele>
        <time>2014-05-17T13:31:18Z</time>
      </trkpt>
      <trkpt lat="40.146750" lon="-5.206117">
        <ele>1156.0</ele>
        <time>2014-05-17T13:31:19Z</time>
      </trkpt>
      <trkpt lat="40.146700" lon="-5.206100">
        <ele>1156.0</ele>
        <time>2014-05-17T13:31:20Z</time>
      </trkpt>
      <trkpt lat="40.146633" lon="-5.206100">
        <ele>1157.0</ele>
        <time>2014-05-17T13:31:21Z</time>
      </trkpt>
      <trkpt lat="40.146567" lon="-5.206100">
        <ele>1157.0</ele>
        <time>2014-05-17T13:31:22Z</time>
      </trkpt>
      <trkpt lat="40.146500" lon="-5.206133">
        <ele>1157.0</ele>
        <time>2014-05-17T13:31:23Z</time>
      </trkpt>
      <trkpt lat="40.146450" lon="-5.206200">
        <ele>1157.0</ele>
        <time>2014-05-17T13:31:24Z</time>
      </trkpt>
      <trkpt lat="40.146383" lon="-5.206267">
        <ele>1157.0</ele>
        <time>2014-05-17T13:31:25Z</time>
      </trkpt>
      <trkpt lat="40.146333" lon="-5.206367">
        <ele>1157.0</ele>
        <time>2014-05-17T13:31:26Z</time>
      </trkpt>
      <trkpt lat="40.146283" lon="-5.206483">
        <ele>1157.0</ele>
        <time>2014-05-17T13:31:27Z</time>
      </trkpt>
      <trkpt lat="40.146250" lon="-5.206600">
        <ele>1156.0</ele>
        <time>2014-05-17T13:31:28Z</time>
      </trkpt>
      <trkpt lat="40.146233" lon="-5.206733">
        <ele>1155.0</ele>
        <time>2014-05-17T13:31:29Z</time>
      </trkpt>
      <trkpt lat="40.146217" lon="-5.206867">
        <ele>1154.0</ele>
        <time>2014-05-17T13:31:30Z</time>
      </trkpt>
      <trkpt lat="40.146200" lon="-5.206983">
        <ele>1153.0</ele>
        <time>2014-05-17T13:31:31Z</time>
      </trkpt>
      <trkpt lat="40.146183" lon="-5.207133">
        <ele>1152.0</ele>
        <time>2014-05-17T13:31:32Z</time>
      </trkpt>
      <trkpt lat="40.146167" lon="-5.207267">
        <ele>1150.0</ele>
        <time>2014-05-17T13:31:33Z</time>
      </trkpt>
      <trkpt lat="40.146150" lon="-5.207417">
        <ele>1149.0</ele>
        <time>2014-05-17T13:31:34Z</time>
      </trkpt>
      <trkpt lat="40.146133" lon="-5.207550">
        <ele>1147.0</ele>
        <time>2014-05-17T13:31:35Z</time>
      </trkpt>
      <trkpt lat="40.146117" lon="-5.207700">
        <ele>1146.0</ele>
        <time>2014-05-17T13:31:36Z</time>
      </trkpt>
      <trkpt lat="40.146100" lon="-5.207833">
        <ele>1145.0</ele>
        <time>2014-05-17T13:31:37Z</time>
      </trkpt>
      <trkpt lat="40.146067" lon="-5.207967">
        <ele>1144.0</ele>
        <time>2014-05-17T13:31:38Z</time>
      </trkpt>
      <trkpt lat="40.146017" lon="-5.208100">
        <ele>1144.0</ele>
        <time>2014-05-17T13:31:39Z</time>
      </trkpt>
      <trkpt lat="40.145967" lon="-5.208233">
        <ele>1143.0</ele>
        <time>2014-05-17T13:31:40Z</time>
      </trkpt>
      <trkpt lat="40.145917" lon="-5.208367">
        <ele>1142.0</ele>
        <time>2014-05-17T13:31:41Z</time>
      </trkpt>
      <trkpt lat="40.145883" lon="-5.208483">
        <ele>1144.0</ele>
        <time>2014-05-17T13:31:42Z</time>
      </trkpt>
      <trkpt lat="40.145850" lon="-5.208600">
        <ele>1146.0</ele>
        <time>2014-05-17T13:31:43Z</time>
      </trkpt>
      <trkpt lat="40.145817" lon="-5.208717">
        <ele>1146.0</ele>
        <time>2014-05-17T13:31:44Z</time>
      </trkpt>
      <trkpt lat="40.145783" lon="-5.208833">
        <ele>1146.0</ele>
        <time>2014-05-17T13:31:45Z</time>
      </trkpt>
      <trkpt lat="40.145750" lon="-5.208950">
        <ele>1146.0</ele>
        <time>2014-05-17T13:31:46Z</time>
      </trkpt>
      <trkpt lat="40.145700" lon="-5.209083">
        <ele>1145.0</ele>
        <time>2014-05-17T13:31:47Z</time>
      </trkpt>
      <trkpt lat="40.145650" lon="-5.209200">
        <ele>1145.0</ele>
        <time>2014-05-17T13:31:48Z</time>
      </trkpt>
      <trkpt lat="40.145600" lon="-5.209317">
        <ele>1143.0</ele>
        <time>2014-05-17T13:31:49Z</time>
      </trkpt>
      <trkpt lat="40.145533" lon="-5.209450">
        <ele>1143.0</ele>
        <time>2014-05-17T13:31:50Z</time>
      </trkpt>
      <trkpt lat="40.145483" lon="-5.209567">
        <ele>1142.0</ele>
        <time>2014-05-17T13:31:51Z</time>
      </trkpt>
      <trkpt lat="40.145433" lon="-5.209683">
        <ele>1141.0</ele>
        <time>2014-05-17T13:31:52Z</time>
      </trkpt>
      <trkpt lat="40.145367" lon="-5.209800">
        <ele>1141.0</ele>
        <time>2014-05-17T13:31:53Z</time>
      </trkpt>
      <trkpt lat="40.145300" lon="-5.209900">
        <ele>1141.0</ele>
        <time>2014-05-17T13:31:54Z</time>
      </trkpt>
      <trkpt lat="40.145250" lon="-5.210017">
        <ele>1141.0</ele>
        <time>2014-05-17T13:31:55Z</time>
      </trkpt>
      <trkpt lat="40.145183" lon="-5.210150">
        <ele>1140.0</ele>
        <time>2014-05-17T13:31:56Z</time>
      </trkpt>
      <trkpt lat="40.145117" lon="-5.210267">
        <ele>1140.0</ele>
        <time>2014-05-17T13:31:57Z</time>
      </trkpt>
      <trkpt lat="40.145050" lon="-5.210383">
        <ele>1140.0</ele>
        <time>2014-05-17T13:31:58Z</time>
      </trkpt>
      <trkpt lat="40.144967" lon="-5.210450">
        <ele>1140.0</ele>
        <time>2014-05-17T13:31:59Z</time>
      </trkpt>
      <trkpt lat="40.144900" lon="-5.210517">
        <ele>1140.0</ele>
        <time>2014-05-17T13:32:00Z</time>
      </trkpt>
      <trkpt lat="40.144817" lon="-5.210550">
        <ele>1140.0</ele>
        <time>2014-05-17T13:32:01Z</time>
      </trkpt>
      <trkpt lat="40.144733" lon="-5.210600">
        <ele>1139.0</ele>
        <time>2014-05-17T13:32:02Z</time>
      </trkpt>
      <trkpt lat="40.144650" lon="-5.210633">
        <ele>1139.0</ele>
        <time>2014-05-17T13:32:03Z</time>
      </trkpt>
      <trkpt lat="40.144567" lon="-5.210667">
        <ele>1139.0</ele>
        <time>2014-05-17T13:32:04Z</time>
      </trkpt>
      <trkpt lat="40.144483" lon="-5.210700">
        <ele>1140.0</ele>
        <time>2014-05-17T13:32:05Z</time>
      </trkpt>
      <trkpt lat="40.144417" lon="-5.210733">
        <ele>1140.0</ele>
        <time>2014-05-17T13:32:06Z</time>
      </trkpt>
      <trkpt lat="40.144333" lon="-5.210800">
        <ele>1141.0</ele>
        <time>2014-05-17T13:32:07Z</time>
      </trkpt>
      <trkpt lat="40.144267" lon="-5.210850">
        <ele>1141.0</ele>
        <time>2014-05-17T13:32:08Z</time>
      </trkpt>
      <trkpt lat="40.144183" lon="-5.210933">
        <ele>1141.0</ele>
        <time>2014-05-17T13:32:09Z</time>
      </trkpt>
      <trkpt lat="40.144100" lon="-5.211017">
        <ele>1142.0</ele>
        <time>2014-05-17T13:32:10Z</time>
      </trkpt>
      <trkpt lat="40.144033" lon="-5.211117">
        <ele>1142.0</ele>
        <time>2014-05-17T13:32:11Z</time>
      </trkpt>
      <trkpt lat="40.143983" lon="-5.211233">
        <ele>1143.0</ele>
        <time>2014-05-17T13:32:12Z</time>
      </trkpt>
      <trkpt lat="40.143933" lon="-5.211367">
        <ele>1143.0</ele>
        <time>2014-05-17T13:32:13Z</time>
      </trkpt>
      <trkpt lat="40.143900" lon="-5.211517">
        <ele>1143.0</ele>
        <time>2014-05-17T13:32:14Z</time>
      </trkpt>
      <trkpt lat="40.143883" lon="-5.211667">
        <ele>1143.0</ele>
        <time>2014-05-17T13:32:15Z</time>
      </trkpt>
      <trkpt lat="40.143883" lon="-5.211817">
        <ele>1143.0</ele>
        <time>2014-05-17T13:32:16Z</time>
      </trkpt>
      <trkpt lat="40.143883" lon="-5.211950">
        <ele>1144.0</ele>
        <time>2014-05-17T13:32:17Z</time>
      </trkpt>
      <trkpt lat="40.143917" lon="-5.212083">
        <ele>1145.0</ele>
        <time>2014-05-17T13:32:18Z</time>
      </trkpt>
      <trkpt lat="40.143950" lon="-5.212200">
        <ele>1147.0</ele>
        <time>2014-05-17T13:32:19Z</time>
      </trkpt>
      <trkpt lat="40.144000" lon="-5.212317">
        <ele>1148.0</ele>
        <time>2014-05-17T13:32:20Z</time>
      </trkpt>
      <trkpt lat="40.144067" lon="-5.212417">
        <ele>1150.0</ele>
        <time>2014-05-17T13:32:21Z</time>
      </trkpt>
      <trkpt lat="40.144133" lon="-5.212517">
        <ele>1151.0</ele>
        <time>2014-05-17T13:32:22Z</time>
      </trkpt>
      <trkpt lat="40.144200" lon="-5.212617">
        <ele>1153.0</ele>
        <time>2014-05-17T13:32:23Z</time>
      </trkpt>
      <trkpt lat="40.144283" lon="-5.212683">
        <ele>1155.0</ele>
        <time>2014-05-17T13:32:24Z</time>
      </trkpt>
      <trkpt lat="40.144367" lon="-5.212733">
        <ele>1156.0</ele>
        <time>2014-05-17T13:32:25Z</time>
      </trkpt>
      <trkpt lat="40.144433" lon="-5.212750">
        <ele>1158.0</ele>
        <time>2014-05-17T13:32:26Z</time>
      </trkpt>
      <trkpt lat="40.144500" lon="-5.212733">
        <ele>1160.0</ele>
        <time>2014-05-17T13:32:27Z</time>
      </trkpt>
      <trkpt lat="40.144550" lon="-5.212717">
        <ele>1162.0</ele>
        <time>2014-05-17T13:32:28Z</time>
      </trkpt>
      <trkpt lat="40.144583" lon="-5.212683">
        <ele>1163.0</ele>
        <time>2014-05-17T13:32:29Z</time>
      </trkpt>
      <trkpt lat="40.144617" lon="-5.212650">
        <ele>1165.0</ele>
        <time>2014-05-17T13:32:30Z</time>
      </trkpt>
      <trkpt lat="40.144617" lon="-5.212617">
        <ele>1167.0</ele>
        <time>2014-05-17T13:32:31Z</time>
      </trkpt>
      <trkpt lat="40.144600" lon="-5.212583">
        <ele>1168.0</ele>
        <time>2014-05-17T13:32:32Z</time>
      </trkpt>
      <trkpt lat="40.144567" lon="-5.212533">
        <ele>1169.0</ele>
        <time>2014-05-17T13:32:33Z</time>
      </trkpt>
      <trkpt lat="40.144517" lon="-5.212500">
        <ele>1170.0</ele>
        <time>2014-05-17T13:32:34Z</time>
      </trkpt>
      <trkpt lat="40.144450" lon="-5.212467">
        <ele>1171.0</ele>
        <time>2014-05-17T13:32:35Z</time>
      </trkpt>
      <trkpt lat="40.144367" lon="-5.212467">
        <ele>1173.0</ele>
        <time>2014-05-17T13:32:36Z</time>
      </trkpt>
      <trkpt lat="40.144300" lon="-5.212483">
        <ele>1176.0</ele>
        <time>2014-05-17T13:32:37Z</time>
      </trkpt>
      <trkpt lat="40.144233" lon="-5.212517">
        <ele>1178.0</ele>
        <time>2014-05-17T13:32:38Z</time>
      </trkpt>
      <trkpt lat="40.144150" lon="-5.212583">
        <ele>1180.0</ele>
        <time>2014-05-17T13:32:39Z</time>
      </trkpt>
      <trkpt lat="40.144067" lon="-5.212633">
        <ele>1180.0</ele>
        <time>2014-05-17T13:32:40Z</time>
      </trkpt>
      <trkpt lat="40.143967" lon="-5.212717">
        <ele>1180.0</ele>
        <time>2014-05-17T13:32:41Z</time>
      </trkpt>
      <trkpt lat="40.143900" lon="-5.212800">
        <ele>1180.0</ele>
        <time>2014-05-17T13:32:42Z</time>
      </trkpt>
      <trkpt lat="40.143833" lon="-5.212900">
        <ele>1180.0</ele>
        <time>2014-05-17T13:32:43Z</time>
      </trkpt>
      <trkpt lat="40.143783" lon="-5.213017">
        <ele>1180.0</ele>
        <time>2014-05-17T13:32:44Z</time>
      </trkpt>
      <trkpt lat="40.143733" lon="-5.213150">
        <ele>1179.0</ele>
        <time>2014-05-17T13:32:45Z</time>
      </trkpt>
      <trkpt lat="40.143683" lon="-5.213283">
        <ele>1177.0</ele>
        <time>2014-05-17T13:32:46Z</time>
      </trkpt>
      <trkpt lat="40.143650" lon="-5.213433">
        <ele>1177.0</ele>
        <time>2014-05-17T13:32:47Z</time>
      </trkpt>
      <trkpt lat="40.143650" lon="-5.213567">
        <ele>1178.0</ele>
        <time>2014-05-17T13:32:48Z</time>
      </trkpt>
      <trkpt lat="40.143650" lon="-5.213700">
        <ele>1179.0</ele>
        <time>2014-05-17T13:32:49Z</time>
      </trkpt>
      <trkpt lat="40.143683" lon="-5.213817">
        <ele>1179.0</ele>
        <time>2014-05-17T13:32:50Z</time>
      </trkpt>
      <trkpt lat="40.143733" lon="-5.213950">
        <ele>1179.0</ele>
        <time>2014-05-17T13:32:51Z</time>
      </trkpt>
      <trkpt lat="40.143783" lon="-5.214067">
        <ele>1179.0</ele>
        <time>2014-05-17T13:32:52Z</time>
      </trkpt>
      <trkpt lat="40.143850" lon="-5.214183">
        <ele>1180.0</ele>
        <time>2014-05-17T13:32:53Z</time>
      </trkpt>
      <trkpt lat="40.143917" lon="-5.214267">
        <ele>1183.0</ele>
        <time>2014-05-17T13:32:54Z</time>
      </trkpt>
      <trkpt lat="40.143967" lon="-5.214367">
        <ele>1185.0</ele>
        <time>2014-05-17T13:32:55Z</time>
      </trkpt>
      <trkpt lat="40.144017" lon="-5.214467">
        <ele>1188.0</ele>
        <time>2014-05-17T13:32:56Z</time>
      </trkpt>
      <trkpt lat="40.144083" lon="-5.214550">
        <ele>1190.0</ele>
        <time>2014-05-17T13:32:57Z</time>
      </trkpt>
      <trkpt lat="40.144150" lon="-5.214617">
        <ele>1191.0</ele>
        <time>2014-05-17T13:32:58Z</time>
      </trkpt>
      <trkpt lat="40.144217" lon="-5.214683">
        <ele>1192.0</ele>
        <time>2014-05-17T13:32:59Z</time>
      </trkpt>
      <trkpt lat="40.144300" lon="-5.214717">
        <ele>1193.0</ele>
        <time>2014-05-17T13:33:00Z</time>
      </trkpt>
      <trkpt lat="40.144367" lon="-5.214750">
        <ele>1193.0</ele>
        <time>2014-05-17T13:33:01Z</time>
      </trkpt>
      <trkpt lat="40.144450" lon="-5.214767">
        <ele>1193.0</ele>
        <time>2014-05-17T13:33:02Z</time>
      </trkpt>
      <trkpt lat="40.144533" lon="-5.214800">
        <ele>1194.0</ele>
        <time>2014-05-17T13:33:03Z</time>
      </trkpt>
      <trkpt lat="40.144617" lon="-5.214800">
        <ele>1194.0</ele>
        <time>2014-05-17T13:33:04Z</time>
      </trkpt>
      <trkpt lat="40.144700" lon="-5.214783">
        <ele>1194.0</ele>
        <time>2014-05-17T13:33:05Z</time>
      </trkpt>
      <trkpt lat="40.144750" lon="-5.214733">
        <ele>1194.0</ele>
        <time>2014-05-17T13:33:06Z</time>
      </trkpt>
      <trkpt lat="40.144800" lon="-5.214700">
        <ele>1195.0</ele>
        <time>2014-05-17T13:33:07Z</time>
      </trkpt>
      <trkpt lat="40.144833" lon="-5.214650">
        <ele>1195.0</ele>
        <time>2014-05-17T13:33:08Z</time>
      </trkpt>
      <trkpt lat="40.144867" lon="-5.214583">
        <ele>1195.0</ele>
        <time>2014-05-17T13:33:09Z</time>
      </trkpt>
      <trkpt lat="40.144883" lon="-5.214517">
        <ele>1195.0</ele>
        <time>2014-05-17T13:33:10Z</time>
      </trkpt>
      <trkpt lat="40.144883" lon="-5.214433">
        <ele>1196.0</ele>
        <time>2014-05-17T13:33:11Z</time>
      </trkpt>
      <trkpt lat="40.144867" lon="-5.214383">
        <ele>1197.0</ele>
        <time>2014-05-17T13:33:12Z</time>
      </trkpt>
      <trkpt lat="40.144833" lon="-5.214333">
        <ele>1198.0</ele>
        <time>2014-05-17T13:33:13Z</time>
      </trkpt>
      <trkpt lat="40.144783" lon="-5.214283">
        <ele>1199.0</ele>
        <time>2014-05-17T13:33:14Z</time>
      </trkpt>
      <trkpt lat="40.144733" lon="-5.214233">
        <ele>1200.0</ele>
        <time>2014-05-17T13:33:15Z</time>
      </trkpt>
      <trkpt lat="40.144667" lon="-5.214200">
        <ele>1200.0</ele>
        <time>2014-05-17T13:33:16Z</time>
      </trkpt>
      <trkpt lat="40.144583" lon="-5.214183">
        <ele>1202.0</ele>
        <time>2014-05-17T13:33:17Z</time>
      </trkpt>
      <trkpt lat="40.144517" lon="-5.214167">
        <ele>1206.0</ele>
        <time>2014-05-17T13:33:18Z</time>
      </trkpt>
      <trkpt lat="40.144450" lon="-5.214167">
        <ele>1210.0</ele>
        <time>2014-05-17T13:33:19Z</time>
      </trkpt>
      <trkpt lat="40.144383" lon="-5.214183">
        <ele>1212.0</ele>
        <time>2014-05-17T13:33:20Z</time>
      </trkpt>
      <trkpt lat="40.144300" lon="-5.214200">
        <ele>1213.0</ele>
        <time>2014-05-17T13:33:21Z</time>
      </trkpt>
      <trkpt lat="40.144217" lon="-5.214233">
        <ele>1214.0</ele>
        <time>2014-05-17T13:33:22Z</time>
      </trkpt>
      <trkpt lat="40.144117" lon="-5.214300">
        <ele>1215.0</ele>
        <time>2014-05-17T13:33:23Z</time>
      </trkpt>
      <trkpt lat="40.144033" lon="-5.214383">
        <ele>1215.0</ele>
        <time>2014-05-17T13:33:24Z</time>
      </trkpt>
      <trkpt lat="40.143967" lon="-5.214483">
        <ele>1215.0</ele>
        <time>2014-05-17T13:33:25Z</time>
      </trkpt>
      <trkpt lat="40.143900" lon="-5.214583">
        <ele>1215.0</ele>
        <time>2014-05-17T13:33:26Z</time>
      </trkpt>
      <trkpt lat="40.143833" lon="-5.214717">
        <ele>1215.0</ele>
        <time>2014-05-17T13:33:27Z</time>
      </trkpt>
      <trkpt lat="40.143783" lon="-5.214833">
        <ele>1214.0</ele>
        <time>2014-05-17T13:33:28Z</time>
      </trkpt>
      <trkpt lat="40.143750" lon="-5.214983">
        <ele>1213.0</ele>
        <time>2014-05-17T13:33:29Z</time>
      </trkpt>
      <trkpt lat="40.143717" lon="-5.215117">
        <ele>1212.0</ele>
        <time>2014-05-17T13:33:30Z</time>
      </trkpt>
      <trkpt lat="40.143717" lon="-5.215283">
        <ele>1211.0</ele>
        <time>2014-05-17T13:33:31Z</time>
      </trkpt>
      <trkpt lat="40.143750" lon="-5.215433">
        <ele>1209.0</ele>
        <time>2014-05-17T13:33:32Z</time>
      </trkpt>
      <trkpt lat="40.143800" lon="-5.215567">
        <ele>1208.0</ele>
        <time>2014-05-17T13:33:33Z</time>
      </trkpt>
      <trkpt lat="40.143867" lon="-5.215683">
        <ele>1208.0</ele>
        <time>2014-05-17T13:33:34Z</time>
      </trkpt>
      <trkpt lat="40.143933" lon="-5.215800">
        <ele>1208.0</ele>
        <time>2014-05-17T13:33:35Z</time>
      </trkpt>
      <trkpt lat="40.144000" lon="-5.215900">
        <ele>1208.0</ele>
        <time>2014-05-17T13:33:36Z</time>
      </trkpt>
      <trkpt lat="40.144067" lon="-5.216000">
        <ele>1207.0</ele>
        <time>2014-05-17T13:33:37Z</time>
      </trkpt>
      <trkpt lat="40.144150" lon="-5.216100">
        <ele>1207.0</ele>
        <time>2014-05-17T13:33:38Z</time>
      </trkpt>
      <trkpt lat="40.144217" lon="-5.216183">
        <ele>1208.0</ele>
        <time>2014-05-17T13:33:39Z</time>
      </trkpt>
      <trkpt lat="40.144283" lon="-5.216267">
        <ele>1210.0</ele>
        <time>2014-05-17T13:33:40Z</time>
      </trkpt>
      <trkpt lat="40.144350" lon="-5.216350">
        <ele>1211.0</ele>
        <time>2014-05-17T13:33:41Z</time>
      </trkpt>
      <trkpt lat="40.144417" lon="-5.216433">
        <ele>1212.0</ele>
        <time>2014-05-17T13:33:42Z</time>
      </trkpt>
      <trkpt lat="40.144500" lon="-5.216500">
        <ele>1212.0</ele>
        <time>2014-05-17T13:33:43Z</time>
      </trkpt>
      <trkpt lat="40.144583" lon="-5.216567">
        <ele>1212.0</ele>
        <time>2014-05-17T13:33:44Z</time>
      </trkpt>
      <trkpt lat="40.144667" lon="-5.216650">
        <ele>1213.0</ele>
        <time>2014-05-17T13:33:45Z</time>
      </trkpt>
      <trkpt lat="40.144733" lon="-5.216700">
        <ele>1214.0</ele>
        <time>2014-05-17T13:33:46Z</time>
      </trkpt>
      <trkpt lat="40.144817" lon="-5.216750">
        <ele>1216.0</ele>
        <time>2014-05-17T13:33:47Z</time>
      </trkpt>
      <trkpt lat="40.144900" lon="-5.216767">
        <ele>1216.0</ele>
        <time>2014-05-17T13:33:48Z</time>
      </trkpt>
      <trkpt lat="40.145000" lon="-5.216767">
        <ele>1216.0</ele>
        <time>2014-05-17T13:33:49Z</time>
      </trkpt>
      <trkpt lat="40.145183" lon="-5.216767">
        <ele>1217.0</ele>
        <time>2014-05-17T13:33:51Z</time>
      </trkpt>
      <trkpt lat="40.145267" lon="-5.216783">
        <ele>1219.0</ele>
        <time>2014-05-17T13:33:52Z</time>
      </trkpt>
      <trkpt lat="40.145350" lon="-5.216800">
        <ele>1220.0</ele>
        <time>2014-05-17T13:33:53Z</time>
      </trkpt>
      <trkpt lat="40.145400" lon="-5.216817">
        <ele>1220.0</ele>
        <time>2014-05-17T13:33:54Z</time>
      </trkpt>
      <trkpt lat="40.145467" lon="-5.216817">
        <ele>1219.0</ele>
        <time>2014-05-17T13:33:55Z</time>
      </trkpt>
      <trkpt lat="40.145533" lon="-5.216783">
        <ele>1219.0</ele>
        <time>2014-05-17T13:33:56Z</time>
      </trkpt>
      <trkpt lat="40.145600" lon="-5.216750">
        <ele>1217.0</ele>
        <time>2014-05-17T13:33:57Z</time>
      </trkpt>
      <trkpt lat="40.145667" lon="-5.216717">
        <ele>1216.0</ele>
        <time>2014-05-17T13:33:58Z</time>
      </trkpt>
      <trkpt lat="40.145733" lon="-5.216683">
        <ele>1215.0</ele>
        <time>2014-05-17T13:33:59Z</time>
      </trkpt>
      <trkpt lat="40.145783" lon="-5.216667">
        <ele>1215.0</ele>
        <time>2014-05-17T13:34:00Z</time>
      </trkpt>
      <trkpt lat="40.145833" lon="-5.216617">
        <ele>1215.0</ele>
        <time>2014-05-17T13:34:01Z</time>
      </trkpt>
      <trkpt lat="40.145867" lon="-5.216567">
        <ele>1214.0</ele>
        <time>2014-05-17T13:34:02Z</time>
      </trkpt>
      <trkpt lat="40.145883" lon="-5.216517">
        <ele>1212.0</ele>
        <time>2014-05-17T13:34:03Z</time>
      </trkpt>
      <trkpt lat="40.145900" lon="-5.216450">
        <ele>1211.0</ele>
        <time>2014-05-17T13:34:04Z</time>
      </trkpt>
      <trkpt lat="40.145917" lon="-5.216317">
        <ele>1209.0</ele>
        <time>2014-05-17T13:34:06Z</time>
      </trkpt>
      <trkpt lat="40.145933" lon="-5.216250">
        <ele>1208.0</ele>
        <time>2014-05-17T13:34:07Z</time>
      </trkpt>
      <trkpt lat="40.145933" lon="-5.216183">
        <ele>1207.0</ele>
        <time>2014-05-17T13:34:08Z</time>
      </trkpt>
      <trkpt lat="40.145950" lon="-5.216017">
        <ele>1206.0</ele>
        <time>2014-05-17T13:34:10Z</time>
      </trkpt>
      <trkpt lat="40.145967" lon="-5.215917">
        <ele>1208.0</ele>
        <time>2014-05-17T13:34:12Z</time>
      </trkpt>
      <trkpt lat="40.145967" lon="-5.215867">
        <ele>1209.0</ele>
        <time>2014-05-17T13:34:13Z</time>
      </trkpt>
      <trkpt lat="40.145967" lon="-5.215767">
        <ele>1210.0</ele>
        <time>2014-05-17T13:34:15Z</time>
      </trkpt>
      <trkpt lat="40.145950" lon="-5.215717">
        <ele>1211.0</ele>
        <time>2014-05-17T13:34:16Z</time>
      </trkpt>
      <trkpt lat="40.145933" lon="-5.215650">
        <ele>1213.0</ele>
        <time>2014-05-17T13:34:17Z</time>
      </trkpt>
      <trkpt lat="40.145917" lon="-5.215617">
        <ele>1214.0</ele>
        <time>2014-05-17T13:34:18Z</time>
      </trkpt>
      <trkpt lat="40.145883" lon="-5.215567">
        <ele>1215.0</ele>
        <time>2014-05-17T13:34:19Z</time>
      </trkpt>
      <trkpt lat="40.145850" lon="-5.215533">
        <ele>1216.0</ele>
        <time>2014-05-17T13:34:20Z</time>
      </trkpt>
      <trkpt lat="40.145800" lon="-5.215517">
        <ele>1216.0</ele>
        <time>2014-05-17T13:34:21Z</time>
      </trkpt>
      <trkpt lat="40.145733" lon="-5.215517">
        <ele>1215.0</ele>
        <time>2014-05-17T13:34:22Z</time>
      </trkpt>
      <trkpt lat="40.145667" lon="-5.215550">
        <ele>1215.0</ele>
        <time>2014-05-17T13:34:23Z</time>
      </trkpt>
      <trkpt lat="40.145600" lon="-5.215600">
        <ele>1216.0</ele>
        <time>2014-05-17T13:34:24Z</time>
      </trkpt>
      <trkpt lat="40.145533" lon="-5.215683">
        <ele>1217.0</ele>
        <time>2014-05-17T13:34:25Z</time>
      </trkpt>
      <trkpt lat="40.145483" lon="-5.215767">
        <ele>1217.0</ele>
        <time>2014-05-17T13:34:26Z</time>
      </trkpt>
      <trkpt lat="40.145417" lon="-5.215850">
        <ele>1218.0</ele>
        <time>2014-05-17T13:34:27Z</time>
      </trkpt>
      <trkpt lat="40.145367" lon="-5.215967">
        <ele>1218.0</ele>
        <time>2014-05-17T13:34:28Z</time>
      </trkpt>
      <trkpt lat="40.145317" lon="-5.216100">
        <ele>1219.0</ele>
        <time>2014-05-17T13:34:29Z</time>
      </trkpt>
      <trkpt lat="40.145300" lon="-5.216250">
        <ele>1220.0</ele>
        <time>2014-05-17T13:34:30Z</time>
      </trkpt>
      <trkpt lat="40.145300" lon="-5.216383">
        <ele>1221.0</ele>
        <time>2014-05-17T13:34:31Z</time>
      </trkpt>
      <trkpt lat="40.145333" lon="-5.216500">
        <ele>1222.0</ele>
        <time>2014-05-17T13:34:32Z</time>
      </trkpt>
      <trkpt lat="40.145383" lon="-5.216633">
        <ele>1222.0</ele>
        <time>2014-05-17T13:34:33Z</time>
      </trkpt>
      <trkpt lat="40.145433" lon="-5.216750">
        <ele>1222.0</ele>
        <time>2014-05-17T13:34:34Z</time>
      </trkpt>
      <trkpt lat="40.145483" lon="-5.216883">
        <ele>1221.0</ele>
        <time>2014-05-17T13:34:35Z</time>
      </trkpt>
      <trkpt lat="40.145550" lon="-5.216983">
        <ele>1222.0</ele>
        <time>2014-05-17T13:34:36Z</time>
      </trkpt>
      <trkpt lat="40.145633" lon="-5.217050">
        <ele>1222.0</ele>
        <time>2014-05-17T13:34:37Z</time>
      </trkpt>
      <trkpt lat="40.145717" lon="-5.217083">
        <ele>1222.0</ele>
        <time>2014-05-17T13:34:38Z</time>
      </trkpt>
      <trkpt lat="40.145800" lon="-5.217100">
        <ele>1223.0</ele>
        <time>2014-05-17T13:34:39Z</time>
      </trkpt>
      <trkpt lat="40.145867" lon="-5.217083">
        <ele>1223.0</ele>
        <time>2014-05-17T13:34:40Z</time>
      </trkpt>
      <trkpt lat="40.146067" lon="-5.216967">
        <ele>1223.0</ele>
        <time>2014-05-17T13:34:43Z</time>
      </trkpt>
      <trkpt lat="40.146117" lon="-5.216917">
        <ele>1224.0</ele>
        <time>2014-05-17T13:34:44Z</time>
      </trkpt>
      <trkpt lat="40.146167" lon="-5.216883">
        <ele>1225.0</ele>
        <time>2014-05-17T13:34:45Z</time>
      </trkpt>
      <trkpt lat="40.146183" lon="-5.216833">
        <ele>1227.0</ele>
        <time>2014-05-17T13:34:46Z</time>
      </trkpt>
      <trkpt lat="40.146217" lon="-5.216783">
        <ele>1228.0</ele>
        <time>2014-05-17T13:34:47Z</time>
      </trkpt>
      <trkpt lat="40.146233" lon="-5.216700">
        <ele>1228.0</ele>
        <time>2014-05-17T13:34:48Z</time>
      </trkpt>
      <trkpt lat="40.146233" lon="-5.216633">
        <ele>1229.0</ele>
        <time>2014-05-17T13:34:49Z</time>
      </trkpt>
      <trkpt lat="40.146217" lon="-5.216567">
        <ele>1230.0</ele>
        <time>2014-05-17T13:34:50Z</time>
      </trkpt>
      <trkpt lat="40.146217" lon="-5.216533">
        <ele>1232.0</ele>
        <time>2014-05-17T13:34:51Z</time>
      </trkpt>
      <trkpt lat="40.146200" lon="-5.216500">
        <ele>1233.0</ele>
        <time>2014-05-17T13:34:52Z</time>
      </trkpt>
      <trkpt lat="40.146167" lon="-5.216467">
        <ele>1234.0</ele>
        <time>2014-05-17T13:34:53Z</time>
      </trkpt>
      <trkpt lat="40.146133" lon="-5.216433">
        <ele>1234.0</ele>
        <time>2014-05-17T13:34:54Z</time>
      </trkpt>
      <trkpt lat="40.146083" lon="-5.216400">
        <ele>1234.0</ele>
        <time>2014-05-17T13:34:55Z</time>
      </trkpt>
      <trkpt lat="40.146017" lon="-5.216383">
        <ele>1234.0</ele>
        <time>2014-05-17T13:34:56Z</time>
      </trkpt>
      <trkpt lat="40.145933" lon="-5.216400">
        <ele>1234.0</ele>
        <time>2014-05-17T13:34:57Z</time>
      </trkpt>
      <trkpt lat="40.145867" lon="-5.216433">
        <ele>1234.0</ele>
        <time>2014-05-17T13:34:58Z</time>
      </trkpt>
      <trkpt lat="40.145800" lon="-5.216483">
        <ele>1235.0</ele>
        <time>2014-05-17T13:34:59Z</time>
      </trkpt>
      <trkpt lat="40.145733" lon="-5.216567">
        <ele>1235.0</ele>
        <time>2014-05-17T13:35:00Z</time>
      </trkpt>
      <trkpt lat="40.145683" lon="-5.216667">
        <ele>1235.0</ele>
        <time>2014-05-17T13:35:01Z</time>
      </trkpt>
      <trkpt lat="40.145633" lon="-5.216783">
        <ele>1236.0</ele>
        <time>2014-05-17T13:35:02Z</time>
      </trkpt>
      <trkpt lat="40.145617" lon="-5.216900">
        <ele>1237.0</ele>
        <time>2014-05-17T13:35:03Z</time>
      </trkpt>
      <trkpt lat="40.145600" lon="-5.217050">
        <ele>1237.0</ele>
        <time>2014-05-17T13:35:04Z</time>
      </trkpt>
      <trkpt lat="40.145600" lon="-5.217183">
        <ele>1238.0</ele>
        <time>2014-05-17T13:35:05Z</time>
      </trkpt>
      <trkpt lat="40.145633" lon="-5.217317">
        <ele>1238.0</ele>
        <time>2014-05-17T13:35:06Z</time>
      </trkpt>
      <trkpt lat="40.145667" lon="-5.217450">
        <ele>1239.0</ele>
        <time>2014-05-17T13:35:07Z</time>
      </trkpt>
      <trkpt lat="40.145717" lon="-5.217567">
        <ele>1240.0</ele>
        <time>2014-05-17T13:35:08Z</time>
      </trkpt>
      <trkpt lat="40.145783" lon="-5.217667">
        <ele>1240.0</ele>
        <time>2014-05-17T13:35:09Z</time>
      </trkpt>
      <trkpt lat="40.145850" lon="-5.217767">
        <ele>1239.0</ele>
        <time>2014-05-17T13:35:10Z</time>
      </trkpt>
      <trkpt lat="40.145933" lon="-5.217850">
        <ele>1240.0</ele>
        <time>2014-05-17T13:35:11Z</time>
      </trkpt>
      <trkpt lat="40.146017" lon="-5.217917">
        <ele>1240.0</ele>
        <time>2014-05-17T13:35:12Z</time>
      </trkpt>
      <trkpt lat="40.146100" lon="-5.217967">
        <ele>1241.0</ele>
        <time>2014-05-17T13:35:13Z</time>
      </trkpt>
      <trkpt lat="40.146167" lon="-5.218017">
        <ele>1242.0</ele>
        <time>2014-05-17T13:35:14Z</time>
      </trkpt>
      <trkpt lat="40.146250" lon="-5.218033">
        <ele>1241.0</ele>
        <time>2014-05-17T13:35:15Z</time>
      </trkpt>
      <trkpt lat="40.146333" lon="-5.218017">
        <ele>1241.0</ele>
        <time>2014-05-17T13:35:16Z</time>
      </trkpt>
      <trkpt lat="40.146417" lon="-5.217983">
        <ele>1241.0</ele>
        <time>2014-05-17T13:35:17Z</time>
      </trkpt>
      <trkpt lat="40.146467" lon="-5.217933">
        <ele>1240.0</ele>
        <time>2014-05-17T13:35:18Z</time>
      </trkpt>
      <trkpt lat="40.146500" lon="-5.217867">
        <ele>1241.0</ele>
        <time>2014-05-17T13:35:19Z</time>
      </trkpt>
      <trkpt lat="40.146517" lon="-5.217817">
        <ele>1241.0</ele>
        <time>2014-05-17T13:35:20Z</time>
      </trkpt>
      <trkpt lat="40.146533" lon="-5.217767">
        <ele>1242.0</ele>
        <time>2014-05-17T13:35:21Z</time>
      </trkpt>
      <trkpt lat="40.146533" lon="-5.217700">
        <ele>1243.0</ele>
        <time>2014-05-17T13:35:22Z</time>
      </trkpt>
      <trkpt lat="40.146550" lon="-5.217633">
        <ele>1243.0</ele>
        <time>2014-05-17T13:35:23Z</time>
      </trkpt>
      <trkpt lat="40.146550" lon="-5.217583">
        <ele>1243.0</ele>
        <time>2014-05-17T13:35:24Z</time>
      </trkpt>
      <trkpt lat="40.146533" lon="-5.217517">
        <ele>1244.0</ele>
        <time>2014-05-17T13:35:25Z</time>
      </trkpt>
      <trkpt lat="40.146533" lon="-5.217483">
        <ele>1244.0</ele>
        <time>2014-05-17T13:35:26Z</time>
      </trkpt>
      <trkpt lat="40.146517" lon="-5.217433">
        <ele>1243.0</ele>
        <time>2014-05-17T13:35:27Z</time>
      </trkpt>
      <trkpt lat="40.146483" lon="-5.217383">
        <ele>1243.0</ele>
        <time>2014-05-17T13:35:28Z</time>
      </trkpt>
      <trkpt lat="40.146450" lon="-5.217333">
        <ele>1242.0</ele>
        <time>2014-05-17T13:35:29Z</time>
      </trkpt>
      <trkpt lat="40.146433" lon="-5.217283">
        <ele>1242.0</ele>
        <time>2014-05-17T13:35:30Z</time>
      </trkpt>
      <trkpt lat="40.146400" lon="-5.217233">
        <ele>1242.0</ele>
        <time>2014-05-17T13:35:31Z</time>
      </trkpt>
      <trkpt lat="40.146350" lon="-5.217200">
        <ele>1242.0</ele>
        <time>2014-05-17T13:35:32Z</time>
      </trkpt>
      <trkpt lat="40.146300" lon="-5.217183">
        <ele>1241.0</ele>
        <time>2014-05-17T13:35:33Z</time>
      </trkpt>
      <trkpt lat="40.146233" lon="-5.217167">
        <ele>1241.0</ele>
        <time>2014-05-17T13:35:34Z</time>
      </trkpt>
      <trkpt lat="40.146183" lon="-5.217183">
        <ele>1240.0</ele>
        <time>2014-05-17T13:35:35Z</time>
      </trkpt>
      <trkpt lat="40.146117" lon="-5.217200">
        <ele>1240.0</ele>
        <time>2014-05-17T13:35:36Z</time>
      </trkpt>
      <trkpt lat="40.146067" lon="-5.217250">
        <ele>1241.0</ele>
        <time>2014-05-17T13:35:37Z</time>
      </trkpt>
      <trkpt lat="40.145983" lon="-5.217283">
        <ele>1240.0</ele>
        <time>2014-05-17T13:35:38Z</time>
      </trkpt>
      <trkpt lat="40.145917" lon="-5.217333">
        <ele>1240.0</ele>
        <time>2014-05-17T13:35:39Z</time>
      </trkpt>
      <trkpt lat="40.145833" lon="-5.217400">
        <ele>1240.0</ele>
        <time>2014-05-17T13:35:40Z</time>
      </trkpt>
      <trkpt lat="40.145750" lon="-5.217450">
        <ele>1240.0</ele>
        <time>2014-05-17T13:35:41Z</time>
      </trkpt>
      <trkpt lat="40.145683" lon="-5.217483">
        <ele>1240.0</ele>
        <time>2014-05-17T13:35:42Z</time>
      </trkpt>
      <trkpt lat="40.145617" lon="-5.217533">
        <ele>1241.0</ele>
        <time>2014-05-17T13:35:43Z</time>
      </trkpt>
      <trkpt lat="40.145550" lon="-5.217600">
        <ele>1241.0</ele>
        <time>2014-05-17T13:35:44Z</time>
      </trkpt>
      <trkpt lat="40.145483" lon="-5.217650">
        <ele>1242.0</ele>
        <time>2014-05-17T13:35:45Z</time>
      </trkpt>
      <trkpt lat="40.145417" lon="-5.217717">
        <ele>1242.0</ele>
        <time>2014-05-17T13:35:46Z</time>
      </trkpt>
      <trkpt lat="40.145367" lon="-5.217783">
        <ele>1243.0</ele>
        <time>2014-05-17T13:35:47Z</time>
      </trkpt>
      <trkpt lat="40.145317" lon="-5.217883">
        <ele>1242.0</ele>
        <time>2014-05-17T13:35:48Z</time>
      </trkpt>
      <trkpt lat="40.145267" lon="-5.218000">
        <ele>1241.0</ele>
        <time>2014-05-17T13:35:49Z</time>
      </trkpt>
      <trkpt lat="40.145217" lon="-5.218100">
        <ele>1240.0</ele>
        <time>2014-05-17T13:35:50Z</time>
      </trkpt>
      <trkpt lat="40.145167" lon="-5.218217">
        <ele>1240.0</ele>
        <time>2014-05-17T13:35:51Z</time>
      </trkpt>
      <trkpt lat="40.145100" lon="-5.218333">
        <ele>1240.0</ele>
        <time>2014-05-17T13:35:52Z</time>
      </trkpt>
      <trkpt lat="40.145033" lon="-5.218433">
        <ele>1240.0</ele>
        <time>2014-05-17T13:35:53Z</time>
      </trkpt>
      <trkpt lat="40.144983" lon="-5.218533">
        <ele>1240.0</ele>
        <time>2014-05-17T13:35:54Z</time>
      </trkpt>
      <trkpt lat="40.144933" lon="-5.218633">
        <ele>1240.0</ele>
        <time>2014-05-17T13:35:55Z</time>
      </trkpt>
      <trkpt lat="40.144883" lon="-5.218733">
        <ele>1240.0</ele>
        <time>2014-05-17T13:35:56Z</time>
      </trkpt>
      <trkpt lat="40.144833" lon="-5.218833">
        <ele>1240.0</ele>
        <time>2014-05-17T13:35:57Z</time>
      </trkpt>
      <trkpt lat="40.144783" lon="-5.218933">
        <ele>1239.0</ele>
        <time>2014-05-17T13:35:58Z</time>
      </trkpt>
      <trkpt lat="40.144717" lon="-5.219017">
        <ele>1239.0</ele>
        <time>2014-05-17T13:35:59Z</time>
      </trkpt>
      <trkpt lat="40.144633" lon="-5.219100">
        <ele>1238.0</ele>
        <time>2014-05-17T13:36:00Z</time>
      </trkpt>
      <trkpt lat="40.144550" lon="-5.219183">
        <ele>1237.0</ele>
        <time>2014-05-17T13:36:01Z</time>
      </trkpt>
      <trkpt lat="40.144483" lon="-5.219267">
        <ele>1237.0</ele>
        <time>2014-05-17T13:36:02Z</time>
      </trkpt>
      <trkpt lat="40.144417" lon="-5.219367">
        <ele>1237.0</ele>
        <time>2014-05-17T13:36:03Z</time>
      </trkpt>
      <trkpt lat="40.144367" lon="-5.219483">
        <ele>1237.0</ele>
        <time>2014-05-17T13:36:04Z</time>
      </trkpt>
      <trkpt lat="40.144317" lon="-5.219600">
        <ele>1237.0</ele>
        <time>2014-05-17T13:36:05Z</time>
      </trkpt>
      <trkpt lat="40.144267" lon="-5.219733">
        <ele>1237.0</ele>
        <time>2014-05-17T13:36:06Z</time>
      </trkpt>
      <trkpt lat="40.144217" lon="-5.219867">
        <ele>1236.0</ele>
        <time>2014-05-17T13:36:07Z</time>
      </trkpt>
      <trkpt lat="40.144167" lon="-5.220000">
        <ele>1236.0</ele>
        <time>2014-05-17T13:36:08Z</time>
      </trkpt>
      <trkpt lat="40.144133" lon="-5.220133">
        <ele>1236.0</ele>
        <time>2014-05-17T13:36:09Z</time>
      </trkpt>
      <trkpt lat="40.144100" lon="-5.220283">
        <ele>1235.0</ele>
        <time>2014-05-17T13:36:10Z</time>
      </trkpt>
      <trkpt lat="40.144067" lon="-5.220433">
        <ele>1235.0</ele>
        <time>2014-05-17T13:36:11Z</time>
      </trkpt>
      <trkpt lat="40.144033" lon="-5.220583">
        <ele>1234.0</ele>
        <time>2014-05-17T13:36:12Z</time>
      </trkpt>
      <trkpt lat="40.144000" lon="-5.220733">
        <ele>1233.0</ele>
        <time>2014-05-17T13:36:13Z</time>
      </trkpt>
      <trkpt lat="40.143967" lon="-5.220883">
        <ele>1232.0</ele>
        <time>2014-05-17T13:36:14Z</time>
      </trkpt>
      <trkpt lat="40.143950" lon="-5.221033">
        <ele>1231.0</ele>
        <time>2014-05-17T13:36:15Z</time>
      </trkpt>
      <trkpt lat="40.143933" lon="-5.221183">
        <ele>1231.0</ele>
        <time>2014-05-17T13:36:16Z</time>
      </trkpt>
      <trkpt lat="40.143917" lon="-5.221317">
        <ele>1232.0</ele>
        <time>2014-05-17T13:36:17Z</time>
      </trkpt>
      <trkpt lat="40.143900" lon="-5.221433">
        <ele>1232.0</ele>
        <time>2014-05-17T13:36:18Z</time>
      </trkpt>
      <trkpt lat="40.143883" lon="-5.221567">
        <ele>1232.0</ele>
        <time>2014-05-17T13:36:19Z</time>
      </trkpt>
      <trkpt lat="40.143867" lon="-5.221700">
        <ele>1232.0</ele>
        <time>2014-05-17T13:36:20Z</time>
      </trkpt>
      <trkpt lat="40.143850" lon="-5.221850">
        <ele>1231.0</ele>
        <time>2014-05-17T13:36:21Z</time>
      </trkpt>
      <trkpt lat="40.143817" lon="-5.222000">
        <ele>1231.0</ele>
        <time>2014-05-17T13:36:22Z</time>
      </trkpt>
      <trkpt lat="40.143783" lon="-5.222150">
        <ele>1231.0</ele>
        <time>2014-05-17T13:36:23Z</time>
      </trkpt>
      <trkpt lat="40.143767" lon="-5.222283">
        <ele>1231.0</ele>
        <time>2014-05-17T13:36:24Z</time>
      </trkpt>
      <trkpt lat="40.143733" lon="-5.222400">
        <ele>1232.0</ele>
        <time>2014-05-17T13:36:25Z</time>
      </trkpt>
      <trkpt lat="40.143717" lon="-5.222533">
        <ele>1232.0</ele>
        <time>2014-05-17T13:36:26Z</time>
      </trkpt>
      <trkpt lat="40.143700" lon="-5.222667">
        <ele>1230.0</ele>
        <time>2014-05-17T13:36:27Z</time>
      </trkpt>
      <trkpt lat="40.143667" lon="-5.222817">
        <ele>1228.0</ele>
        <time>2014-05-17T13:36:28Z</time>
      </trkpt>
      <trkpt lat="40.143650" lon="-5.222950">
        <ele>1227.0</ele>
        <time>2014-05-17T13:36:29Z</time>
      </trkpt>
      <trkpt lat="40.143633" lon="-5.223083">
        <ele>1226.0</ele>
        <time>2014-05-17T13:36:30Z</time>
      </trkpt>
      <trkpt lat="40.143600" lon="-5.223217">
        <ele>1225.0</ele>
        <time>2014-05-17T13:36:31Z</time>
      </trkpt>
      <trkpt lat="40.143583" lon="-5.223350">
        <ele>1224.0</ele>
        <time>2014-05-17T13:36:32Z</time>
      </trkpt>
      <trkpt lat="40.143550" lon="-5.223500">
        <ele>1223.0</ele>
        <time>2014-05-17T13:36:33Z</time>
      </trkpt>
      <trkpt lat="40.143517" lon="-5.223633">
        <ele>1221.0</ele>
        <time>2014-05-17T13:36:34Z</time>
      </trkpt>
      <trkpt lat="40.143483" lon="-5.223783">
        <ele>1221.0</ele>
        <time>2014-05-17T13:36:35Z</time>
      </trkpt>
      <trkpt lat="40.143450" lon="-5.223917">
        <ele>1221.0</ele>
        <time>2014-05-17T13:36:36Z</time>
      </trkpt>
      <trkpt lat="40.143417" lon="-5.224050">
        <ele>1220.0</ele>
        <time>2014-05-17T13:36:37Z</time>
      </trkpt>
      <trkpt lat="40.143383" lon="-5.224167">
        <ele>1221.0</ele>
        <time>2014-05-17T13:36:38Z</time>
      </trkpt>
      <trkpt lat="40.143350" lon="-5.224300">
        <ele>1220.0</ele>
        <time>2014-05-17T13:36:39Z</time>
      </trkpt>
      <trkpt lat="40.143317" lon="-5.224433">
        <ele>1219.0</ele>
        <time>2014-05-17T13:36:40Z</time>
      </trkpt>
      <trkpt lat="40.143267" lon="-5.224583">
        <ele>1219.0</ele>
        <time>2014-05-17T13:36:41Z</time>
      </trkpt>
      <trkpt lat="40.143217" lon="-5.224717">
        <ele>1218.0</ele>
        <time>2014-05-17T13:36:42Z</time>
      </trkpt>
      <trkpt lat="40.143183" lon="-5.224850">
        <ele>1218.0</ele>
        <time>2014-05-17T13:36:43Z</time>
      </trkpt>
      <trkpt lat="40.143133" lon="-5.224983">
        <ele>1218.0</ele>
        <time>2014-05-17T13:36:44Z</time>
      </trkpt>
      <trkpt lat="40.143100" lon="-5.225100">
        <ele>1218.0</ele>
        <time>2014-05-17T13:36:45Z</time>
      </trkpt>
      <trkpt lat="40.143050" lon="-5.225217">
        <ele>1218.0</ele>
        <time>2014-05-17T13:36:46Z</time>
      </trkpt>
      <trkpt lat="40.143017" lon="-5.225350">
        <ele>1216.0</ele>
        <time>2014-05-17T13:36:47Z</time>
      </trkpt>
      <trkpt lat="40.142983" lon="-5.225483">
        <ele>1215.0</ele>
        <time>2014-05-17T13:36:48Z</time>
      </trkpt>
      <trkpt lat="40.142950" lon="-5.225633">
        <ele>1213.0</ele>
        <time>2014-05-17T13:36:49Z</time>
      </trkpt>
      <trkpt lat="40.142933" lon="-5.225767">
        <ele>1212.0</ele>
        <time>2014-05-17T13:36:50Z</time>
      </trkpt>
      <trkpt lat="40.142883" lon="-5.225917">
        <ele>1211.0</ele>
        <time>2014-05-17T13:36:51Z</time>
      </trkpt>
      <trkpt lat="40.142850" lon="-5.226050">
        <ele>1212.0</ele>
        <time>2014-05-17T13:36:52Z</time>
      </trkpt>
      <trkpt lat="40.142817" lon="-5.226183">
        <ele>1213.0</ele>
        <time>2014-05-17T13:36:53Z</time>
      </trkpt>
      <trkpt lat="40.142800" lon="-5.226300">
        <ele>1215.0</ele>
        <time>2014-05-17T13:36:54Z</time>
      </trkpt>
      <trkpt lat="40.142783" lon="-5.226433">
        <ele>1218.0</ele>
        <time>2014-05-17T13:36:55Z</time>
      </trkpt>
      <trkpt lat="40.142800" lon="-5.226550">
        <ele>1221.0</ele>
        <time>2014-05-17T13:36:56Z</time>
      </trkpt>
      <trkpt lat="40.142817" lon="-5.226667">
        <ele>1223.0</ele>
        <time>2014-05-17T13:36:57Z</time>
      </trkpt>
      <trkpt lat="40.142850" lon="-5.226767">
        <ele>1224.0</ele>
        <time>2014-05-17T13:36:58Z</time>
      </trkpt>
      <trkpt lat="40.142900" lon="-5.226883">
        <ele>1224.0</ele>
        <time>2014-05-17T13:36:59Z</time>
      </trkpt>
      <trkpt lat="40.142967" lon="-5.226983">
        <ele>1224.0</ele>
        <time>2014-05-17T13:37:00Z</time>
      </trkpt>
      <trkpt lat="40.143050" lon="-5.227050">
        <ele>1225.0</ele>
        <time>2014-05-17T13:37:01Z</time>
      </trkpt>
      <trkpt lat="40.143133" lon="-5.227100">
        <ele>1227.0</ele>
        <time>2014-05-17T13:37:02Z</time>
      </trkpt>
      <trkpt lat="40.143200" lon="-5.227117">
        <ele>1229.0</ele>
        <time>2014-05-17T13:37:03Z</time>
      </trkpt>
      <trkpt lat="40.143283" lon="-5.227133">
        <ele>1231.0</ele>
        <time>2014-05-17T13:37:04Z</time>
      </trkpt>
      <trkpt lat="40.143367" lon="-5.227133">
        <ele>1232.0</ele>
        <time>2014-05-17T13:37:05Z</time>
      </trkpt>
      <trkpt lat="40.143450" lon="-5.227100">
        <ele>1232.0</ele>
        <time>2014-05-17T13:37:06Z</time>
      </trkpt>
      <trkpt lat="40.143533" lon="-5.227067">
        <ele>1232.0</ele>
        <time>2014-05-17T13:37:07Z</time>
      </trkpt>
      <trkpt lat="40.143583" lon="-5.227017">
        <ele>1232.0</ele>
        <time>2014-05-17T13:37:08Z</time>
      </trkpt>
      <trkpt lat="40.143633" lon="-5.226950">
        <ele>1232.0</ele>
        <time>2014-05-17T13:37:09Z</time>
      </trkpt>
      <trkpt lat="40.143650" lon="-5.226883">
        <ele>1232.0</ele>
        <time>2014-05-17T13:37:10Z</time>
      </trkpt>
      <trkpt lat="40.143667" lon="-5.226800">
        <ele>1231.0</ele>
        <time>2014-05-17T13:37:11Z</time>
      </trkpt>
      <trkpt lat="40.143683" lon="-5.226733">
        <ele>1231.0</ele>
        <time>2014-05-17T13:37:12Z</time>
      </trkpt>
      <trkpt lat="40.143683" lon="-5.226667">
        <ele>1231.0</ele>
        <time>2014-05-17T13:37:13Z</time>
      </trkpt>
      <trkpt lat="40.143667" lon="-5.226600">
        <ele>1231.0</ele>
        <time>2014-05-17T13:37:14Z</time>
      </trkpt>
      <trkpt lat="40.143650" lon="-5.226550">
        <ele>1231.0</ele>
        <time>2014-05-17T13:37:15Z</time>
      </trkpt>
      <trkpt lat="40.143600" lon="-5.226483">
        <ele>1230.0</ele>
        <time>2014-05-17T13:37:16Z</time>
      </trkpt>
      <trkpt lat="40.143533" lon="-5.226450">
        <ele>1229.0</ele>
        <time>2014-05-17T13:37:17Z</time>
      </trkpt>
      <trkpt lat="40.143483" lon="-5.226417">
        <ele>1229.0</ele>
        <time>2014-05-17T13:37:18Z</time>
      </trkpt>
      <trkpt lat="40.143417" lon="-5.226417">
        <ele>1230.0</ele>
        <time>2014-05-17T13:37:19Z</time>
      </trkpt>
      <trkpt lat="40.143333" lon="-5.226417">
        <ele>1231.0</ele>
        <time>2014-05-17T13:37:20Z</time>
      </trkpt>
      <trkpt lat="40.143267" lon="-5.226433">
        <ele>1231.0</ele>
        <time>2014-05-17T13:37:21Z</time>
      </trkpt>
      <trkpt lat="40.143183" lon="-5.226450">
        <ele>1231.0</ele>
        <time>2014-05-17T13:37:22Z</time>
      </trkpt>
      <trkpt lat="40.143117" lon="-5.226483">
        <ele>1231.0</ele>
        <time>2014-05-17T13:37:23Z</time>
      </trkpt>
      <trkpt lat="40.143033" lon="-5.226500">
        <ele>1232.0</ele>
        <time>2014-05-17T13:37:24Z</time>
      </trkpt>
      <trkpt lat="40.142983" lon="-5.226517">
        <ele>1233.0</ele>
        <time>2014-05-17T13:37:25Z</time>
      </trkpt>
      <trkpt lat="40.142900" lon="-5.226567">
        <ele>1233.0</ele>
        <time>2014-05-17T13:37:26Z</time>
      </trkpt>
      <trkpt lat="40.142817" lon="-5.226600">
        <ele>1232.0</ele>
        <time>2014-05-17T13:37:27Z</time>
      </trkpt>
      <trkpt lat="40.142733" lon="-5.226650">
        <ele>1231.0</ele>
        <time>2014-05-17T13:37:28Z</time>
      </trkpt>
      <trkpt lat="40.142633" lon="-5.226683">
        <ele>1230.0</ele>
        <time>2014-05-17T13:37:29Z</time>
      </trkpt>
      <trkpt lat="40.142567" lon="-5.226733">
        <ele>1231.0</ele>
        <time>2014-05-17T13:37:30Z</time>
      </trkpt>
      <trkpt lat="40.142500" lon="-5.226817">
        <ele>1233.0</ele>
        <time>2014-05-17T13:37:31Z</time>
      </trkpt>
      <trkpt lat="40.142433" lon="-5.226917">
        <ele>1233.0</ele>
        <time>2014-05-17T13:37:32Z</time>
      </trkpt>
      <trkpt lat="40.142383" lon="-5.227033">
        <ele>1234.0</ele>
        <time>2014-05-17T13:37:33Z</time>
      </trkpt>
      <trkpt lat="40.142367" lon="-5.227167">
        <ele>1234.0</ele>
        <time>2014-05-17T13:37:34Z</time>
      </trkpt>
      <trkpt lat="40.142350" lon="-5.227283">
        <ele>1236.0</ele>
        <time>2014-05-17T13:37:35Z</time>
      </trkpt>
      <trkpt lat="40.142367" lon="-5.227400">
        <ele>1238.0</ele>
        <time>2014-05-17T13:37:36Z</time>
      </trkpt>
      <trkpt lat="40.142400" lon="-5.227517">
        <ele>1239.0</ele>
        <time>2014-05-17T13:37:37Z</time>
      </trkpt>
      <trkpt lat="40.142467" lon="-5.227617">
        <ele>1240.0</ele>
        <time>2014-05-17T13:37:38Z</time>
      </trkpt>
      <trkpt lat="40.142533" lon="-5.227717">
        <ele>1241.0</ele>
        <time>2014-05-17T13:37:39Z</time>
      </trkpt>
      <trkpt lat="40.142600" lon="-5.227783">
        <ele>1243.0</ele>
        <time>2014-05-17T13:37:40Z</time>
      </trkpt>
      <trkpt lat="40.142683" lon="-5.227833">
        <ele>1245.0</ele>
        <time>2014-05-17T13:37:41Z</time>
      </trkpt>
      <trkpt lat="40.142767" lon="-5.227867">
        <ele>1247.0</ele>
        <time>2014-05-17T13:37:42Z</time>
      </trkpt>
      <trkpt lat="40.142850" lon="-5.227883">
        <ele>1248.0</ele>
        <time>2014-05-17T13:37:43Z</time>
      </trkpt>
      <trkpt lat="40.142933" lon="-5.227883">
        <ele>1249.0</ele>
        <time>2014-05-17T13:37:44Z</time>
      </trkpt>
      <trkpt lat="40.143000" lon="-5.227850">
        <ele>1250.0</ele>
        <time>2014-05-17T13:37:45Z</time>
      </trkpt>
      <trkpt lat="40.143050" lon="-5.227800">
        <ele>1251.0</ele>
        <time>2014-05-17T13:37:46Z</time>
      </trkpt>
      <trkpt lat="40.143100" lon="-5.227733">
        <ele>1253.0</ele>
        <time>2014-05-17T13:37:47Z</time>
      </trkpt>
      <trkpt lat="40.143133" lon="-5.227650">
        <ele>1253.0</ele>
        <time>2014-05-17T13:37:48Z</time>
      </trkpt>
      <trkpt lat="40.143150" lon="-5.227567">
        <ele>1255.0</ele>
        <time>2014-05-17T13:37:49Z</time>
      </trkpt>
      <trkpt lat="40.143133" lon="-5.227500">
        <ele>1256.0</ele>
        <time>2014-05-17T13:37:50Z</time>
      </trkpt>
      <trkpt lat="40.143133" lon="-5.227433">
        <ele>1254.0</ele>
        <time>2014-05-17T13:37:51Z</time>
      </trkpt>
      <trkpt lat="40.143117" lon="-5.227383">
        <ele>1254.0</ele>
        <time>2014-05-17T13:37:52Z</time>
      </trkpt>
      <trkpt lat="40.143083" lon="-5.227333">
        <ele>1254.0</ele>
        <time>2014-05-17T13:37:53Z</time>
      </trkpt>
      <trkpt lat="40.143033" lon="-5.227283">
        <ele>1254.0</ele>
        <time>2014-05-17T13:37:54Z</time>
      </trkpt>
      <trkpt lat="40.142983" lon="-5.227233">
        <ele>1253.0</ele>
        <time>2014-05-17T13:37:55Z</time>
      </trkpt>
      <trkpt lat="40.142917" lon="-5.227200">
        <ele>1253.0</ele>
        <time>2014-05-17T13:37:56Z</time>
      </trkpt>
      <trkpt lat="40.142850" lon="-5.227183">
        <ele>1253.0</ele>
        <time>2014-05-17T13:37:57Z</time>
      </trkpt>
      <trkpt lat="40.142783" lon="-5.227167">
        <ele>1253.0</ele>
        <time>2014-05-17T13:37:58Z</time>
      </trkpt>
      <trkpt lat="40.142717" lon="-5.227167">
        <ele>1253.0</ele>
        <time>2014-05-17T13:37:59Z</time>
      </trkpt>
      <trkpt lat="40.142617" lon="-5.227167">
        <ele>1251.0</ele>
        <time>2014-05-17T13:38:00Z</time>
      </trkpt>
      <trkpt lat="40.142533" lon="-5.227200">
        <ele>1250.0</ele>
        <time>2014-05-17T13:38:01Z</time>
      </trkpt>
      <trkpt lat="40.142450" lon="-5.227233">
        <ele>1249.0</ele>
        <time>2014-05-17T13:38:02Z</time>
      </trkpt>
      <trkpt lat="40.142367" lon="-5.227283">
        <ele>1249.0</ele>
        <time>2014-05-17T13:38:03Z</time>
      </trkpt>
      <trkpt lat="40.142300" lon="-5.227333">
        <ele>1249.0</ele>
        <time>2014-05-17T13:38:04Z</time>
      </trkpt>
      <trkpt lat="40.142217" lon="-5.227400">
        <ele>1249.0</ele>
        <time>2014-05-17T13:38:05Z</time>
      </trkpt>
      <trkpt lat="40.142133" lon="-5.227500">
        <ele>1247.0</ele>
        <time>2014-05-17T13:38:06Z</time>
      </trkpt>
      <trkpt lat="40.142067" lon="-5.227600">
        <ele>1246.0</ele>
        <time>2014-05-17T13:38:07Z</time>
      </trkpt>
      <trkpt lat="40.142000" lon="-5.227700">
        <ele>1246.0</ele>
        <time>2014-05-17T13:38:08Z</time>
      </trkpt>
      <trkpt lat="40.141933" lon="-5.227783">
        <ele>1246.0</ele>
        <time>2014-05-17T13:38:09Z</time>
      </trkpt>
      <trkpt lat="40.141883" lon="-5.227867">
        <ele>1247.0</ele>
        <time>2014-05-17T13:38:10Z</time>
      </trkpt>
      <trkpt lat="40.141817" lon="-5.227967">
        <ele>1248.0</ele>
        <time>2014-05-17T13:38:11Z</time>
      </trkpt>
      <trkpt lat="40.141767" lon="-5.228083">
        <ele>1248.0</ele>
        <time>2014-05-17T13:38:12Z</time>
      </trkpt>
      <trkpt lat="40.141733" lon="-5.228200">
        <ele>1248.0</ele>
        <time>2014-05-17T13:38:13Z</time>
      </trkpt>
      <trkpt lat="40.141683" lon="-5.228317">
        <ele>1249.0</ele>
        <time>2014-05-17T13:38:14Z</time>
      </trkpt>
      <trkpt lat="40.141650" lon="-5.228417">
        <ele>1251.0</ele>
        <time>2014-05-17T13:38:15Z</time>
      </trkpt>
      <trkpt lat="40.141617" lon="-5.228533">
        <ele>1253.0</ele>
        <time>2014-05-17T13:38:16Z</time>
      </trkpt>
      <trkpt lat="40.141600" lon="-5.228667">
        <ele>1254.0</ele>
        <time>2014-05-17T13:38:17Z</time>
      </trkpt>
      <trkpt lat="40.141617" lon="-5.228800">
        <ele>1254.0</ele>
        <time>2014-05-17T13:38:18Z</time>
      </trkpt>
      <trkpt lat="40.141650" lon="-5.228917">
        <ele>1255.0</ele>
        <time>2014-05-17T13:38:19Z</time>
      </trkpt>
      <trkpt lat="40.141700" lon="-5.229033">
        <ele>1258.0</ele>
        <time>2014-05-17T13:38:20Z</time>
      </trkpt>
      <trkpt lat="40.141750" lon="-5.229133">
        <ele>1261.0</ele>
        <time>2014-05-17T13:38:21Z</time>
      </trkpt>
      <trkpt lat="40.141817" lon="-5.229183">
        <ele>1264.0</ele>
        <time>2014-05-17T13:38:22Z</time>
      </trkpt>
      <trkpt lat="40.141900" lon="-5.229233">
        <ele>1268.0</ele>
        <time>2014-05-17T13:38:23Z</time>
      </trkpt>
      <trkpt lat="40.141967" lon="-5.229250">
        <ele>1270.0</ele>
        <time>2014-05-17T13:38:24Z</time>
      </trkpt>
      <trkpt lat="40.142183" lon="-5.229217">
        <ele>1273.0</ele>
        <time>2014-05-17T13:38:27Z</time>
      </trkpt>
      <trkpt lat="40.142250" lon="-5.229150">
        <ele>1274.0</ele>
        <time>2014-05-17T13:38:28Z</time>
      </trkpt>
      <trkpt lat="40.142300" lon="-5.228967">
        <ele>1275.0</ele>
        <time>2014-05-17T13:38:30Z</time>
      </trkpt>
      <trkpt lat="40.142283" lon="-5.228800">
        <ele>1277.0</ele>
        <time>2014-05-17T13:38:32Z</time>
      </trkpt>
      <trkpt lat="40.142250" lon="-5.228717">
        <ele>1279.0</ele>
        <time>2014-05-17T13:38:33Z</time>
      </trkpt>
      <trkpt lat="40.142183" lon="-5.228650">
        <ele>1279.0</ele>
        <time>2014-05-17T13:38:34Z</time>
      </trkpt>
      <trkpt lat="40.142117" lon="-5.228617">
        <ele>1279.0</ele>
        <time>2014-05-17T13:38:35Z</time>
      </trkpt>
      <trkpt lat="40.142050" lon="-5.228583">
        <ele>1280.0</ele>
        <time>2014-05-17T13:38:36Z</time>
      </trkpt>
      <trkpt lat="40.141967" lon="-5.228583">
        <ele>1280.0</ele>
        <time>2014-05-17T13:38:37Z</time>
      </trkpt>
      <trkpt lat="40.141883" lon="-5.228617">
        <ele>1281.0</ele>
        <time>2014-05-17T13:38:38Z</time>
      </trkpt>
      <trkpt lat="40.141800" lon="-5.228667">
        <ele>1282.0</ele>
        <time>2014-05-17T13:38:39Z</time>
      </trkpt>
      <trkpt lat="40.141717" lon="-5.228733">
        <ele>1282.0</ele>
        <time>2014-05-17T13:38:40Z</time>
      </trkpt>
      <trkpt lat="40.141650" lon="-5.228833">
        <ele>1282.0</ele>
        <time>2014-05-17T13:38:41Z</time>
      </trkpt>
      <trkpt lat="40.141583" lon="-5.228933">
        <ele>1283.0</ele>
        <time>2014-05-17T13:38:42Z</time>
      </trkpt>
      <trkpt lat="40.141533" lon="-5.229033">
        <ele>1284.0</ele>
        <time>2014-05-17T13:38:43Z</time>
      </trkpt>
      <trkpt lat="40.141500" lon="-5.229150">
        <ele>1285.0</ele>
        <time>2014-05-17T13:38:44Z</time>
      </trkpt>
      <trkpt lat="40.141500" lon="-5.229267">
        <ele>1286.0</ele>
        <time>2014-05-17T13:38:45Z</time>
      </trkpt>
      <trkpt lat="40.141500" lon="-5.229400">
        <ele>1287.0</ele>
        <time>2014-05-17T13:38:46Z</time>
      </trkpt>
      <trkpt lat="40.141533" lon="-5.229517">
        <ele>1288.0</ele>
        <time>2014-05-17T13:38:47Z</time>
      </trkpt>
      <trkpt lat="40.141583" lon="-5.229633">
        <ele>1289.0</ele>
        <time>2014-05-17T13:38:48Z</time>
      </trkpt>
      <trkpt lat="40.141650" lon="-5.229717">
        <ele>1293.0</ele>
        <time>2014-05-17T13:38:49Z</time>
      </trkpt>
      <trkpt lat="40.141733" lon="-5.229783">
        <ele>1296.0</ele>
        <time>2014-05-17T13:38:50Z</time>
      </trkpt>
      <trkpt lat="40.141817" lon="-5.229817">
        <ele>1298.0</ele>
        <time>2014-05-17T13:38:51Z</time>
      </trkpt>
      <trkpt lat="40.141900" lon="-5.229850">
        <ele>1299.0</ele>
        <time>2014-05-17T13:38:52Z</time>
      </trkpt>
      <trkpt lat="40.142000" lon="-5.229883">
        <ele>1301.0</ele>
        <time>2014-05-17T13:38:53Z</time>
      </trkpt>
      <trkpt lat="40.142167" lon="-5.229867">
        <ele>1306.0</ele>
        <time>2014-05-17T13:38:55Z</time>
      </trkpt>
      <trkpt lat="40.142233" lon="-5.229817">
        <ele>1308.0</ele>
        <time>2014-05-17T13:38:56Z</time>
      </trkpt>
      <trkpt lat="40.142283" lon="-5.229750">
        <ele>1310.0</ele>
        <time>2014-05-17T13:38:57Z</time>
      </trkpt>
      <trkpt lat="40.142317" lon="-5.229683">
        <ele>1310.0</ele>
        <time>2014-05-17T13:38:58Z</time>
      </trkpt>
      <trkpt lat="40.142350" lon="-5.229600">
        <ele>1311.0</ele>
        <time>2014-05-17T13:38:59Z</time>
      </trkpt>
      <trkpt lat="40.142367" lon="-5.229517">
        <ele>1312.0</ele>
        <time>2014-05-17T13:39:00Z</time>
      </trkpt>
      <trkpt lat="40.142400" lon="-5.229417">
        <ele>1312.0</ele>
        <time>2014-05-17T13:39:01Z</time>
      </trkpt>
      <trkpt lat="40.142400" lon="-5.229317">
        <ele>1312.0</ele>
        <time>2014-05-17T13:39:02Z</time>
      </trkpt>
      <trkpt lat="40.142367" lon="-5.229150">
        <ele>1312.0</ele>
        <time>2014-05-17T13:39:04Z</time>
      </trkpt>
      <trkpt lat="40.142317" lon="-5.229067">
        <ele>1312.0</ele>
        <time>2014-05-17T13:39:05Z</time>
      </trkpt>
      <trkpt lat="40.142267" lon="-5.229017">
        <ele>1313.0</ele>
        <time>2014-05-17T13:39:06Z</time>
      </trkpt>
      <trkpt lat="40.142200" lon="-5.228967">
        <ele>1313.0</ele>
        <time>2014-05-17T13:39:07Z</time>
      </trkpt>
      <trkpt lat="40.142133" lon="-5.228933">
        <ele>1313.0</ele>
        <time>2014-05-17T13:39:08Z</time>
      </trkpt>
      <trkpt lat="40.142050" lon="-5.228917">
        <ele>1313.0</ele>
        <time>2014-05-17T13:39:09Z</time>
      </trkpt>
      <trkpt lat="40.141950" lon="-5.228900">
        <ele>1313.0</ele>
        <time>2014-05-17T13:39:10Z</time>
      </trkpt>
      <trkpt lat="40.141867" lon="-5.228900">
        <ele>1313.0</ele>
        <time>2014-05-17T13:39:11Z</time>
      </trkpt>
      <trkpt lat="40.141767" lon="-5.228917">
        <ele>1312.0</ele>
        <time>2014-05-17T13:39:12Z</time>
      </trkpt>
      <trkpt lat="40.141667" lon="-5.228967">
        <ele>1312.0</ele>
        <time>2014-05-17T13:39:13Z</time>
      </trkpt>
      <trkpt lat="40.141600" lon="-5.229033">
        <ele>1312.0</ele>
        <time>2014-05-17T13:39:14Z</time>
      </trkpt>
      <trkpt lat="40.141517" lon="-5.229117">
        <ele>1313.0</ele>
        <time>2014-05-17T13:39:15Z</time>
      </trkpt>
      <trkpt lat="40.141467" lon="-5.229217">
        <ele>1312.0</ele>
        <time>2014-05-17T13:39:16Z</time>
      </trkpt>
      <trkpt lat="40.141417" lon="-5.229333">
        <ele>1312.0</ele>
        <time>2014-05-17T13:39:17Z</time>
      </trkpt>
      <trkpt lat="40.141383" lon="-5.229467">
        <ele>1312.0</ele>
        <time>2014-05-17T13:39:18Z</time>
      </trkpt>
      <trkpt lat="40.141367" lon="-5.229600">
        <ele>1312.0</ele>
        <time>2014-05-17T13:39:19Z</time>
      </trkpt>
      <trkpt lat="40.141367" lon="-5.229733">
        <ele>1311.0</ele>
        <time>2014-05-17T13:39:20Z</time>
      </trkpt>
      <trkpt lat="40.141383" lon="-5.229867">
        <ele>1312.0</ele>
        <time>2014-05-17T13:39:21Z</time>
      </trkpt>
      <trkpt lat="40.141400" lon="-5.229983">
        <ele>1313.0</ele>
        <time>2014-05-17T13:39:22Z</time>
      </trkpt>
      <trkpt lat="40.141417" lon="-5.230100">
        <ele>1314.0</ele>
        <time>2014-05-17T13:39:23Z</time>
      </trkpt>
      <trkpt lat="40.141433" lon="-5.230217">
        <ele>1316.0</ele>
        <time>2014-05-17T13:39:24Z</time>
      </trkpt>
      <trkpt lat="40.141483" lon="-5.230350">
        <ele>1317.0</ele>
        <time>2014-05-17T13:39:25Z</time>
      </trkpt>
      <trkpt lat="40.141533" lon="-5.230467">
        <ele>1319.0</ele>
        <time>2014-05-17T13:39:26Z</time>
      </trkpt>
      <trkpt lat="40.141583" lon="-5.230567">
        <ele>1321.0</ele>
        <time>2014-05-17T13:39:27Z</time>
      </trkpt>
      <trkpt lat="40.141650" lon="-5.230633">
        <ele>1324.0</ele>
        <time>2014-05-17T13:39:28Z</time>
      </trkpt>
      <trkpt lat="40.141733" lon="-5.230683">
        <ele>1327.0</ele>
        <time>2014-05-17T13:39:29Z</time>
      </trkpt>
      <trkpt lat="40.141817" lon="-5.230700">
        <ele>1329.0</ele>
        <time>2014-05-17T13:39:30Z</time>
      </trkpt>
      <trkpt lat="40.141900" lon="-5.230717">
        <ele>1331.0</ele>
        <time>2014-05-17T13:39:31Z</time>
      </trkpt>
      <trkpt lat="40.142050" lon="-5.230683">
        <ele>1336.0</ele>
        <time>2014-05-17T13:39:33Z</time>
      </trkpt>
      <trkpt lat="40.142117" lon="-5.230633">
        <ele>1339.0</ele>
        <time>2014-05-17T13:39:34Z</time>
      </trkpt>
      <trkpt lat="40.142167" lon="-5.230567">
        <ele>1341.0</ele>
        <time>2014-05-17T13:39:35Z</time>
      </trkpt>
      <trkpt lat="40.142200" lon="-5.230500">
        <ele>1344.0</ele>
        <time>2014-05-17T13:39:36Z</time>
      </trkpt>
      <trkpt lat="40.142233" lon="-5.230433">
        <ele>1346.0</ele>
        <time>2014-05-17T13:39:37Z</time>
      </trkpt>
      <trkpt lat="40.142267" lon="-5.230367">
        <ele>1349.0</ele>
        <time>2014-05-17T13:39:38Z</time>
      </trkpt>
      <trkpt lat="40.142267" lon="-5.230283">
        <ele>1350.0</ele>
        <time>2014-05-17T13:39:39Z</time>
      </trkpt>
      <trkpt lat="40.142267" lon="-5.230200">
        <ele>1352.0</ele>
        <time>2014-05-17T13:39:40Z</time>
      </trkpt>
      <trkpt lat="40.142233" lon="-5.230133">
        <ele>1353.0</ele>
        <time>2014-05-17T13:39:41Z</time>
      </trkpt>
      <trkpt lat="40.142183" lon="-5.230067">
        <ele>1355.0</ele>
        <time>2014-05-17T13:39:42Z</time>
      </trkpt>
      <trkpt lat="40.142117" lon="-5.230033">
        <ele>1356.0</ele>
        <time>2014-05-17T13:39:43Z</time>
      </trkpt>
      <trkpt lat="40.142050" lon="-5.230000">
        <ele>1359.0</ele>
        <time>2014-05-17T13:39:44Z</time>
      </trkpt>
      <trkpt lat="40.141983" lon="-5.230017">
        <ele>1362.0</ele>
        <time>2014-05-17T13:39:45Z</time>
      </trkpt>
      <trkpt lat="40.141917" lon="-5.230033">
        <ele>1364.0</ele>
        <time>2014-05-17T13:39:46Z</time>
      </trkpt>
      <trkpt lat="40.141833" lon="-5.230083">
        <ele>1365.0</ele>
        <time>2014-05-17T13:39:47Z</time>
      </trkpt>
      <trkpt lat="40.141750" lon="-5.230150">
        <ele>1367.0</ele>
        <time>2014-05-17T13:39:48Z</time>
      </trkpt>
      <trkpt lat="40.141683" lon="-5.230233">
        <ele>1369.0</ele>
        <time>2014-05-17T13:39:49Z</time>
      </trkpt>
      <trkpt lat="40.141633" lon="-5.230333">
        <ele>1372.0</ele>
        <time>2014-05-17T13:39:50Z</time>
      </trkpt>
      <trkpt lat="40.141617" lon="-5.230433">
        <ele>1374.0</ele>
        <time>2014-05-17T13:39:51Z</time>
      </trkpt>
      <trkpt lat="40.141617" lon="-5.230567">
        <ele>1375.0</ele>
        <time>2014-05-17T13:39:52Z</time>
      </trkpt>
      <trkpt lat="40.141617" lon="-5.230700">
        <ele>1376.0</ele>
        <time>2014-05-17T13:39:53Z</time>
      </trkpt>
      <trkpt lat="40.141633" lon="-5.230817">
        <ele>1377.0</ele>
        <time>2014-05-17T13:39:54Z</time>
      </trkpt>
      <trkpt lat="40.141650" lon="-5.230933">
        <ele>1380.0</ele>
        <time>2014-05-17T13:39:55Z</time>
      </trkpt>
      <trkpt lat="40.141683" lon="-5.231017">
        <ele>1383.0</ele>
        <time>2014-05-17T13:39:56Z</time>
      </trkpt>
      <trkpt lat="40.141800" lon="-5.231183">
        <ele>1387.0</ele>
        <time>2014-05-17T13:39:58Z</time>
      </trkpt>
      <trkpt lat="40.141867" lon="-5.231267">
        <ele>1388.0</ele>
        <time>2014-05-17T13:39:59Z</time>
      </trkpt>
      <trkpt lat="40.141950" lon="-5.231333">
        <ele>1390.0</ele>
        <time>2014-05-17T13:40:00Z</time>
      </trkpt>
      <trkpt lat="40.142033" lon="-5.231383">
        <ele>1394.0</ele>
        <time>2014-05-17T13:40:01Z</time>
      </trkpt>
      <trkpt lat="40.142117" lon="-5.231383">
        <ele>1397.0</ele>
        <time>2014-05-17T13:40:02Z</time>
      </trkpt>
      <trkpt lat="40.142183" lon="-5.231367">
        <ele>1400.0</ele>
        <time>2014-05-17T13:40:03Z</time>
      </trkpt>
      <trkpt lat="40.142250" lon="-5.231333">
        <ele>1402.0</ele>
        <time>2014-05-17T13:40:04Z</time>
      </trkpt>
      <trkpt lat="40.142317" lon="-5.231283">
        <ele>1404.0</ele>
        <time>2014-05-17T13:40:05Z</time>
      </trkpt>
      <trkpt lat="40.142367" lon="-5.231233">
        <ele>1406.0</ele>
        <time>2014-05-17T13:40:06Z</time>
      </trkpt>
      <trkpt lat="40.142400" lon="-5.231167">
        <ele>1407.0</ele>
        <time>2014-05-17T13:40:07Z</time>
      </trkpt>
      <trkpt lat="40.142417" lon="-5.231100">
        <ele>1409.0</ele>
        <time>2014-05-17T13:40:08Z</time>
      </trkpt>
      <trkpt lat="40.142433" lon="-5.231017">
        <ele>1410.0</ele>
        <time>2014-05-17T13:40:09Z</time>
      </trkpt>
      <trkpt lat="40.142417" lon="-5.230933">
        <ele>1411.0</ele>
        <time>2014-05-17T13:40:10Z</time>
      </trkpt>
      <trkpt lat="40.142400" lon="-5.230850">
        <ele>1408.0</ele>
        <time>2014-05-17T13:40:11Z</time>
      </trkpt>
      <trkpt lat="40.142367" lon="-5.230767">
        <ele>1408.0</ele>
        <time>2014-05-17T13:40:12Z</time>
      </trkpt>
      <trkpt lat="40.142333" lon="-5.230683">
        <ele>1409.0</ele>
        <time>2014-05-17T13:40:13Z</time>
      </trkpt>
      <trkpt lat="40.142283" lon="-5.230617">
        <ele>1409.0</ele>
        <time>2014-05-17T13:40:14Z</time>
      </trkpt>
      <trkpt lat="40.142217" lon="-5.230567">
        <ele>1409.0</ele>
        <time>2014-05-17T13:40:15Z</time>
      </trkpt>
      <trkpt lat="40.142133" lon="-5.230533">
        <ele>1410.0</ele>
        <time>2014-05-17T13:40:16Z</time>
      </trkpt>
      <trkpt lat="40.142050" lon="-5.230517">
        <ele>1411.0</ele>
        <time>2014-05-17T13:40:17Z</time>
      </trkpt>
      <trkpt lat="40.142000" lon="-5.230517">
        <ele>1412.0</ele>
        <time>2014-05-17T13:40:18Z</time>
      </trkpt>
      <trkpt lat="40.141917" lon="-5.230533">
        <ele>1412.0</ele>
        <time>2014-05-17T13:40:19Z</time>
      </trkpt>
      <trkpt lat="40.141833" lon="-5.230567">
        <ele>1413.0</ele>
        <time>2014-05-17T13:40:20Z</time>
      </trkpt>
      <trkpt lat="40.141733" lon="-5.230583">
        <ele>1414.0</ele>
        <time>2014-05-17T13:40:21Z</time>
      </trkpt>
      <trkpt lat="40.141667" lon="-5.230617">
        <ele>1415.0</ele>
        <time>2014-05-17T13:40:22Z</time>
      </trkpt>
      <trkpt lat="40.141583" lon="-5.230633">
        <ele>1418.0</ele>
        <time>2014-05-17T13:40:23Z</time>
      </trkpt>
      <trkpt lat="40.141517" lon="-5.230667">
        <ele>1420.0</ele>
        <time>2014-05-17T13:40:24Z</time>
      </trkpt>
      <trkpt lat="40.141433" lon="-5.230700">
        <ele>1421.0</ele>
        <time>2014-05-17T13:40:25Z</time>
      </trkpt>
      <trkpt lat="40.141333" lon="-5.230767">
        <ele>1423.0</ele>
        <time>2014-05-17T13:40:26Z</time>
      </trkpt>
      <trkpt lat="40.141267" lon="-5.230867">
        <ele>1424.0</ele>
        <time>2014-05-17T13:40:27Z</time>
      </trkpt>
      <trkpt lat="40.141217" lon="-5.230983">
        <ele>1426.0</ele>
        <time>2014-05-17T13:40:28Z</time>
      </trkpt>
      <trkpt lat="40.141183" lon="-5.231100">
        <ele>1429.0</ele>
        <time>2014-05-17T13:40:29Z</time>
      </trkpt>
      <trkpt lat="40.141183" lon="-5.231217">
        <ele>1430.0</ele>
        <time>2014-05-17T13:40:30Z</time>
      </trkpt>
      <trkpt lat="40.141167" lon="-5.231333">
        <ele>1431.0</ele>
        <time>2014-05-17T13:40:31Z</time>
      </trkpt>
      <trkpt lat="40.141167" lon="-5.231467">
        <ele>1433.0</ele>
        <time>2014-05-17T13:40:32Z</time>
      </trkpt>
      <trkpt lat="40.141183" lon="-5.231600">
        <ele>1435.0</ele>
        <time>2014-05-17T13:40:33Z</time>
      </trkpt>
      <trkpt lat="40.141183" lon="-5.231717">
        <ele>1436.0</ele>
        <time>2014-05-17T13:40:34Z</time>
      </trkpt>
      <trkpt lat="40.141233" lon="-5.231833">
        <ele>1437.0</ele>
        <time>2014-05-17T13:40:35Z</time>
      </trkpt>
      <trkpt lat="40.141283" lon="-5.231950">
        <ele>1439.0</ele>
        <time>2014-05-17T13:40:36Z</time>
      </trkpt>
      <trkpt lat="40.141350" lon="-5.232017">
        <ele>1440.0</ele>
        <time>2014-05-17T13:40:37Z</time>
      </trkpt>
      <trkpt lat="40.141433" lon="-5.232067">
        <ele>1442.0</ele>
        <time>2014-05-17T13:40:38Z</time>
      </trkpt>
      <trkpt lat="40.141500" lon="-5.232067">
        <ele>1445.0</ele>
        <time>2014-05-17T13:40:39Z</time>
      </trkpt>
      <trkpt lat="40.141567" lon="-5.232067">
        <ele>1448.0</ele>
        <time>2014-05-17T13:40:40Z</time>
      </trkpt>
      <trkpt lat="40.141633" lon="-5.232033">
        <ele>1451.0</ele>
        <time>2014-05-17T13:40:41Z</time>
      </trkpt>
      <trkpt lat="40.141683" lon="-5.231983">
        <ele>1454.0</ele>
        <time>2014-05-17T13:40:42Z</time>
      </trkpt>
      <trkpt lat="40.141733" lon="-5.231933">
        <ele>1457.0</ele>
        <time>2014-05-17T13:40:43Z</time>
      </trkpt>
      <trkpt lat="40.141767" lon="-5.231850">
        <ele>1460.0</ele>
        <time>2014-05-17T13:40:44Z</time>
      </trkpt>
      <trkpt lat="40.141767" lon="-5.231783">
        <ele>1462.0</ele>
        <time>2014-05-17T13:40:45Z</time>
      </trkpt>
      <trkpt lat="40.141767" lon="-5.231717">
        <ele>1465.0</ele>
        <time>2014-05-17T13:40:46Z</time>
      </trkpt>
      <trkpt lat="40.141750" lon="-5.231650">
        <ele>1467.0</ele>
        <time>2014-05-17T13:40:47Z</time>
      </trkpt>
      <trkpt lat="40.141700" lon="-5.231583">
        <ele>1469.0</ele>
        <time>2014-05-17T13:40:48Z</time>
      </trkpt>
      <trkpt lat="40.141650" lon="-5.231517">
        <ele>1470.0</ele>
        <time>2014-05-17T13:40:49Z</time>
      </trkpt>
      <trkpt lat="40.141600" lon="-5.231450">
        <ele>1471.0</ele>
        <time>2014-05-17T13:40:50Z</time>
      </trkpt>
      <trkpt lat="40.141517" lon="-5.231383">
        <ele>1472.0</ele>
        <time>2014-05-17T13:40:51Z</time>
      </trkpt>
      <trkpt lat="40.141450" lon="-5.231333">
        <ele>1475.0</ele>
        <time>2014-05-17T13:40:52Z</time>
      </trkpt>
      <trkpt lat="40.141367" lon="-5.231317">
        <ele>1478.0</ele>
        <time>2014-05-17T13:40:53Z</time>
      </trkpt>
      <trkpt lat="40.141283" lon="-5.231333">
        <ele>1480.0</ele>
        <time>2014-05-17T13:40:54Z</time>
      </trkpt>
      <trkpt lat="40.141200" lon="-5.231383">
        <ele>1482.0</ele>
        <time>2014-05-17T13:40:55Z</time>
      </trkpt>
      <trkpt lat="40.141100" lon="-5.231450">
        <ele>1484.0</ele>
        <time>2014-05-17T13:40:56Z</time>
      </trkpt>
      <trkpt lat="40.141017" lon="-5.231533">
        <ele>1487.0</ele>
        <time>2014-05-17T13:40:57Z</time>
      </trkpt>
      <trkpt lat="40.140950" lon="-5.231633">
        <ele>1489.0</ele>
        <time>2014-05-17T13:40:58Z</time>
      </trkpt>
      <trkpt lat="40.140900" lon="-5.231733">
        <ele>1492.0</ele>
        <time>2014-05-17T13:40:59Z</time>
      </trkpt>
      <trkpt lat="40.140867" lon="-5.231850">
        <ele>1493.0</ele>
        <time>2014-05-17T13:41:00Z</time>
      </trkpt>
      <trkpt lat="40.140850" lon="-5.231983">
        <ele>1494.0</ele>
        <time>2014-05-17T13:41:01Z</time>
      </trkpt>
      <trkpt lat="40.140833" lon="-5.232117">
        <ele>1494.0</ele>
        <time>2014-05-17T13:41:02Z</time>
      </trkpt>
      <trkpt lat="40.140817" lon="-5.232250">
        <ele>1495.0</ele>
        <time>2014-05-17T13:41:03Z</time>
      </trkpt>
      <trkpt lat="40.140817" lon="-5.232367">
        <ele>1498.0</ele>
        <time>2014-05-17T13:41:04Z</time>
      </trkpt>
      <trkpt lat="40.140850" lon="-5.232467">
        <ele>1501.0</ele>
        <time>2014-05-17T13:41:05Z</time>
      </trkpt>
      <trkpt lat="40.140900" lon="-5.232550">
        <ele>1503.0</ele>
        <time>2014-05-17T13:41:06Z</time>
      </trkpt>
      <trkpt lat="40.140950" lon="-5.232633">
        <ele>1505.0</ele>
        <time>2014-05-17T13:41:07Z</time>
      </trkpt>
      <trkpt lat="40.141000" lon="-5.232733">
        <ele>1506.0</ele>
        <time>2014-05-17T13:41:08Z</time>
      </trkpt>
      <trkpt lat="40.141050" lon="-5.232817">
        <ele>1507.0</ele>
        <time>2014-05-17T13:41:09Z</time>
      </trkpt>
      <trkpt lat="40.141117" lon="-5.232917">
        <ele>1509.0</ele>
        <time>2014-05-17T13:41:10Z</time>
      </trkpt>
      <trkpt lat="40.141183" lon="-5.232967">
        <ele>1511.0</ele>
        <time>2014-05-17T13:41:11Z</time>
      </trkpt>
      <trkpt lat="40.141267" lon="-5.233000">
        <ele>1513.0</ele>
        <time>2014-05-17T13:41:12Z</time>
      </trkpt>
      <trkpt lat="40.141350" lon="-5.233000">
        <ele>1515.0</ele>
        <time>2014-05-17T13:41:13Z</time>
      </trkpt>
      <trkpt lat="40.141400" lon="-5.232967">
        <ele>1517.0</ele>
        <time>2014-05-17T13:41:14Z</time>
      </trkpt>
      <trkpt lat="40.141467" lon="-5.232917">
        <ele>1520.0</ele>
        <time>2014-05-17T13:41:15Z</time>
      </trkpt>
      <trkpt lat="40.141500" lon="-5.232850">
        <ele>1523.0</ele>
        <time>2014-05-17T13:41:16Z</time>
      </trkpt>
      <trkpt lat="40.141517" lon="-5.232783">
        <ele>1527.0</ele>
        <time>2014-05-17T13:41:17Z</time>
      </trkpt>
      <trkpt lat="40.141533" lon="-5.232700">
        <ele>1530.0</ele>
        <time>2014-05-17T13:41:18Z</time>
      </trkpt>
      <trkpt lat="40.141533" lon="-5.232617">
        <ele>1533.0</ele>
        <time>2014-05-17T13:41:19Z</time>
      </trkpt>
      <trkpt lat="40.141517" lon="-5.232533">
        <ele>1537.0</ele>
        <time>2014-05-17T13:41:20Z</time>
      </trkpt>
      <trkpt lat="40.141483" lon="-5.232467">
        <ele>1540.0</ele>
        <time>2014-05-17T13:41:21Z</time>
      </trkpt>
      <trkpt lat="40.141450" lon="-5.232400">
        <ele>1543.0</ele>
        <time>2014-05-17T13:41:22Z</time>
      </trkpt>
      <trkpt lat="40.141400" lon="-5.232317">
        <ele>1546.0</ele>
        <time>2014-05-17T13:41:23Z</time>
      </trkpt>
      <trkpt lat="40.141350" lon="-5.232250">
        <ele>1548.0</ele>
        <time>2014-05-17T13:41:24Z</time>
      </trkpt>
      <trkpt lat="40.141283" lon="-5.232167">
        <ele>1549.0</ele>
        <time>2014-05-17T13:41:25Z</time>
      </trkpt>
      <trkpt lat="40.141217" lon="-5.232117">
        <ele>1552.0</ele>
        <time>2014-05-17T13:41:26Z</time>
      </trkpt>
      <trkpt lat="40.141150" lon="-5.232083">
        <ele>1556.0</ele>
        <time>2014-05-17T13:41:27Z</time>
      </trkpt>
      <trkpt lat="40.141083" lon="-5.232083">
        <ele>1560.0</ele>
        <time>2014-05-17T13:41:28Z</time>
      </trkpt>
      <trkpt lat="40.141000" lon="-5.232083">
        <ele>1562.0</ele>
        <time>2014-05-17T13:41:29Z</time>
      </trkpt>
      <trkpt lat="40.140900" lon="-5.232100">
        <ele>1564.0</ele>
        <time>2014-05-17T13:41:30Z</time>
      </trkpt>
      <trkpt lat="40.140800" lon="-5.232133">
        <ele>1566.0</ele>
        <time>2014-05-17T13:41:31Z</time>
      </trkpt>
      <trkpt lat="40.140683" lon="-5.232183">
        <ele>1567.0</ele>
        <time>2014-05-17T13:41:32Z</time>
      </trkpt>
      <trkpt lat="40.140600" lon="-5.232250">
        <ele>1568.0</ele>
        <time>2014-05-17T13:41:33Z</time>
      </trkpt>
      <trkpt lat="40.140517" lon="-5.232350">
        <ele>1569.0</ele>
        <time>2014-05-17T13:41:34Z</time>
      </trkpt>
      <trkpt lat="40.140450" lon="-5.232450">
        <ele>1570.0</ele>
        <time>2014-05-17T13:41:35Z</time>
      </trkpt>
      <trkpt lat="40.140383" lon="-5.232567">
        <ele>1571.0</ele>
        <time>2014-05-17T13:41:36Z</time>
      </trkpt>
      <trkpt lat="40.140350" lon="-5.232700">
        <ele>1572.0</ele>
        <time>2014-05-17T13:41:37Z</time>
      </trkpt>
      <trkpt lat="40.140317" lon="-5.232817">
        <ele>1574.0</ele>
        <time>2014-05-17T13:41:38Z</time>
      </trkpt>
      <trkpt lat="40.140300" lon="-5.232933">
        <ele>1575.0</ele>
        <time>2014-05-17T13:41:39Z</time>
      </trkpt>
      <trkpt lat="40.140300" lon="-5.233050">
        <ele>1575.0</ele>
        <time>2014-05-17T13:41:40Z</time>
      </trkpt>
      <trkpt lat="40.140317" lon="-5.233167">
        <ele>1575.0</ele>
        <time>2014-05-17T13:41:41Z</time>
      </trkpt>
      <trkpt lat="40.140333" lon="-5.233283">
        <ele>1574.0</ele>
        <time>2014-05-17T13:41:42Z</time>
      </trkpt>
      <trkpt lat="40.140367" lon="-5.233417">
        <ele>1575.0</ele>
        <time>2014-05-17T13:41:43Z</time>
      </trkpt>
      <trkpt lat="40.140400" lon="-5.233550">
        <ele>1575.0</ele>
        <time>2014-05-17T13:41:44Z</time>
      </trkpt>
      <trkpt lat="40.140433" lon="-5.233700">
        <ele>1577.0</ele>
        <time>2014-05-17T13:41:45Z</time>
      </trkpt>
      <trkpt lat="40.140450" lon="-5.233833">
        <ele>1579.0</ele>
        <time>2014-05-17T13:41:46Z</time>
      </trkpt>
      <trkpt lat="40.140467" lon="-5.233933">
        <ele>1584.0</ele>
        <time>2014-05-17T13:41:47Z</time>
      </trkpt>
      <trkpt lat="40.140483" lon="-5.234017">
        <ele>1587.0</ele>
        <time>2014-05-17T13:41:48Z</time>
      </trkpt>
      <trkpt lat="40.140517" lon="-5.234100">
        <ele>1589.0</ele>
        <time>2014-05-17T13:41:49Z</time>
      </trkpt>
      <trkpt lat="40.140550" lon="-5.234200">
        <ele>1589.0</ele>
        <time>2014-05-17T13:41:50Z</time>
      </trkpt>
      <trkpt lat="40.140617" lon="-5.234283">
        <ele>1589.0</ele>
        <time>2014-05-17T13:41:51Z</time>
      </trkpt>
      <trkpt lat="40.140683" lon="-5.234367">
        <ele>1589.0</ele>
        <time>2014-05-17T13:41:52Z</time>
      </trkpt>
      <trkpt lat="40.140767" lon="-5.234417">
        <ele>1590.0</ele>
        <time>2014-05-17T13:41:53Z</time>
      </trkpt>
      <trkpt lat="40.140833" lon="-5.234450">
        <ele>1590.0</ele>
        <time>2014-05-17T13:41:54Z</time>
      </trkpt>
      <trkpt lat="40.140900" lon="-5.234450">
        <ele>1591.0</ele>
        <time>2014-05-17T13:41:55Z</time>
      </trkpt>
      <trkpt lat="40.140967" lon="-5.234433">
        <ele>1593.0</ele>
        <time>2014-05-17T13:41:56Z</time>
      </trkpt>
      <trkpt lat="40.141017" lon="-5.234400">
        <ele>1594.0</ele>
        <time>2014-05-17T13:41:57Z</time>
      </trkpt>
      <trkpt lat="40.141100" lon="-5.234267">
        <ele>1596.0</ele>
        <time>2014-05-17T13:41:59Z</time>
      </trkpt>
      <trkpt lat="40.141117" lon="-5.234183">
        <ele>1598.0</ele>
        <time>2014-05-17T13:42:00Z</time>
      </trkpt>
      <trkpt lat="40.141100" lon="-5.234100">
        <ele>1600.0</ele>
        <time>2014-05-17T13:42:01Z</time>
      </trkpt>
      <trkpt lat="40.141067" lon="-5.234033">
        <ele>1602.0</ele>
        <time>2014-05-17T13:42:02Z</time>
      </trkpt>
      <trkpt lat="40.141033" lon="-5.233967">
        <ele>1605.0</ele>
        <time>2014-05-17T13:42:03Z</time>
      </trkpt>
      <trkpt lat="40.140983" lon="-5.233900">
        <ele>1608.0</ele>
        <time>2014-05-17T13:42:04Z</time>
      </trkpt>
      <trkpt lat="40.140950" lon="-5.233850">
        <ele>1612.0</ele>
        <time>2014-05-17T13:42:05Z</time>
      </trkpt>
      <trkpt lat="40.140883" lon="-5.233833">
        <ele>1615.0</ele>
        <time>2014-05-17T13:42:06Z</time>
      </trkpt>
      <trkpt lat="40.140817" lon="-5.233800">
        <ele>1618.0</ele>
        <time>2014-05-17T13:42:07Z</time>
      </trkpt>
      <trkpt lat="40.140750" lon="-5.233767">
        <ele>1620.0</ele>
        <time>2014-05-17T13:42:08Z</time>
      </trkpt>
      <trkpt lat="40.140667" lon="-5.233733">
        <ele>1622.0</ele>
        <time>2014-05-17T13:42:09Z</time>
      </trkpt>
      <trkpt lat="40.140583" lon="-5.233717">
        <ele>1624.0</ele>
        <time>2014-05-17T13:42:10Z</time>
      </trkpt>
      <trkpt lat="40.140500" lon="-5.233717">
        <ele>1627.0</ele>
        <time>2014-05-17T13:42:11Z</time>
      </trkpt>
      <trkpt lat="40.140417" lon="-5.233733">
        <ele>1629.0</ele>
        <time>2014-05-17T13:42:12Z</time>
      </trkpt>
      <trkpt lat="40.140333" lon="-5.233783">
        <ele>1631.0</ele>
        <time>2014-05-17T13:42:13Z</time>
      </trkpt>
      <trkpt lat="40.140233" lon="-5.233833">
        <ele>1632.0</ele>
        <time>2014-05-17T13:42:14Z</time>
      </trkpt>
      <trkpt lat="40.140133" lon="-5.233917">
        <ele>1634.0</ele>
        <time>2014-05-17T13:42:15Z</time>
      </trkpt>
      <trkpt lat="40.140050" lon="-5.234017">
        <ele>1635.0</ele>
        <time>2014-05-17T13:42:16Z</time>
      </trkpt>
      <trkpt lat="40.139967" lon="-5.234117">
        <ele>1635.0</ele>
        <time>2014-05-17T13:42:17Z</time>
      </trkpt>
      <trkpt lat="40.139900" lon="-5.234233">
        <ele>1637.0</ele>
        <time>2014-05-17T13:42:18Z</time>
      </trkpt>
      <trkpt lat="40.139850" lon="-5.234367">
        <ele>1638.0</ele>
        <time>2014-05-17T13:42:19Z</time>
      </trkpt>
      <trkpt lat="40.139817" lon="-5.234500">
        <ele>1639.0</ele>
        <time>2014-05-17T13:42:20Z</time>
      </trkpt>
      <trkpt lat="40.139800" lon="-5.234633">
        <ele>1640.0</ele>
        <time>2014-05-17T13:42:21Z</time>
      </trkpt>
      <trkpt lat="40.139817" lon="-5.234750">
        <ele>1641.0</ele>
        <time>2014-05-17T13:42:22Z</time>
      </trkpt>
      <trkpt lat="40.139850" lon="-5.234883">
        <ele>1642.0</ele>
        <time>2014-05-17T13:42:23Z</time>
      </trkpt>
      <trkpt lat="40.139883" lon="-5.235000">
        <ele>1643.0</ele>
        <time>2014-05-17T13:42:24Z</time>
      </trkpt>
      <trkpt lat="40.139917" lon="-5.235100">
        <ele>1645.0</ele>
        <time>2014-05-17T13:42:25Z</time>
      </trkpt>
      <trkpt lat="40.139967" lon="-5.235200">
        <ele>1646.0</ele>
        <time>2014-05-17T13:42:26Z</time>
      </trkpt>
      <trkpt lat="40.140017" lon="-5.235300">
        <ele>1647.0</ele>
        <time>2014-05-17T13:42:27Z</time>
      </trkpt>
      <trkpt lat="40.140067" lon="-5.235367">
        <ele>1648.0</ele>
        <time>2014-05-17T13:42:28Z</time>
      </trkpt>
      <trkpt lat="40.140117" lon="-5.235433">
        <ele>1649.0</ele>
        <time>2014-05-17T13:42:29Z</time>
      </trkpt>
      <trkpt lat="40.140167" lon="-5.235483">
        <ele>1650.0</ele>
        <time>2014-05-17T13:42:30Z</time>
      </trkpt>
      <trkpt lat="40.140200" lon="-5.235567">
        <ele>1651.0</ele>
        <time>2014-05-17T13:42:31Z</time>
      </trkpt>
      <trkpt lat="40.140250" lon="-5.235650">
        <ele>1651.0</ele>
        <time>2014-05-17T13:42:32Z</time>
      </trkpt>
      <trkpt lat="40.140317" lon="-5.235717">
        <ele>1651.0</ele>
        <time>2014-05-17T13:42:33Z</time>
      </trkpt>
      <trkpt lat="40.140367" lon="-5.235800">
        <ele>1651.0</ele>
        <time>2014-05-17T13:42:34Z</time>
      </trkpt>
      <trkpt lat="40.140417" lon="-5.235867">
        <ele>1651.0</ele>
        <time>2014-05-17T13:42:35Z</time>
      </trkpt>
      <trkpt lat="40.140483" lon="-5.235900">
        <ele>1650.0</ele>
        <time>2014-05-17T13:42:36Z</time>
      </trkpt>
      <trkpt lat="40.140567" lon="-5.235933">
        <ele>1649.0</ele>
        <time>2014-05-17T13:42:37Z</time>
      </trkpt>
      <trkpt lat="40.140633" lon="-5.235950">
        <ele>1647.0</ele>
        <time>2014-05-17T13:42:38Z</time>
      </trkpt>
      <trkpt lat="40.140717" lon="-5.235983">
        <ele>1647.0</ele>
        <time>2014-05-17T13:42:39Z</time>
      </trkpt>
      <trkpt lat="40.140783" lon="-5.236033">
        <ele>1646.0</ele>
        <time>2014-05-17T13:42:40Z</time>
      </trkpt>
      <trkpt lat="40.140833" lon="-5.236117">
        <ele>1644.0</ele>
        <time>2014-05-17T13:42:41Z</time>
      </trkpt>
      <trkpt lat="40.140883" lon="-5.236200">
        <ele>1643.0</ele>
        <time>2014-05-17T13:42:42Z</time>
      </trkpt>
      <trkpt lat="40.140933" lon="-5.236300">
        <ele>1642.0</ele>
        <time>2014-05-17T13:42:43Z</time>
      </trkpt>
      <trkpt lat="40.140983" lon="-5.236400">
        <ele>1641.0</ele>
        <time>2014-05-17T13:42:44Z</time>
      </trkpt>
      <trkpt lat="40.141033" lon="-5.236483">
        <ele>1642.0</ele>
        <time>2014-05-17T13:42:45Z</time>
      </trkpt>
      <trkpt lat="40.141083" lon="-5.236567">
        <ele>1643.0</ele>
        <time>2014-05-17T13:42:46Z</time>
      </trkpt>
      <trkpt lat="40.141100" lon="-5.236650">
        <ele>1643.0</ele>
        <time>2014-05-17T13:42:47Z</time>
      </trkpt>
      <trkpt lat="40.141133" lon="-5.236733">
        <ele>1643.0</ele>
        <time>2014-05-17T13:42:48Z</time>
      </trkpt>
      <trkpt lat="40.141167" lon="-5.236850">
        <ele>1642.0</ele>
        <time>2014-05-17T13:42:49Z</time>
      </trkpt>
      <trkpt lat="40.141200" lon="-5.236967">
        <ele>1641.0</ele>
        <time>2014-05-17T13:42:50Z</time>
      </trkpt>
      <trkpt lat="40.141233" lon="-5.237067">
        <ele>1640.0</ele>
        <time>2014-05-17T13:42:51Z</time>
      </trkpt>
      <trkpt lat="40.141267" lon="-5.237167">
        <ele>1640.0</ele>
        <time>2014-05-17T13:42:52Z</time>
      </trkpt>
      <trkpt lat="40.141283" lon="-5.237250">
        <ele>1641.0</ele>
        <time>2014-05-17T13:42:53Z</time>
      </trkpt>
      <trkpt lat="40.141300" lon="-5.237333">
        <ele>1641.0</ele>
        <time>2014-05-17T13:42:54Z</time>
      </trkpt>
      <trkpt lat="40.141317" lon="-5.237450">
        <ele>1640.0</ele>
        <time>2014-05-17T13:42:55Z</time>
      </trkpt>
      <trkpt lat="40.141333" lon="-5.237567">
        <ele>1638.0</ele>
        <time>2014-05-17T13:42:56Z</time>
      </trkpt>
      <trkpt lat="40.141350" lon="-5.237717">
        <ele>1638.0</ele>
        <time>2014-05-17T13:42:57Z</time>
      </trkpt>
      <trkpt lat="40.141350" lon="-5.237833">
        <ele>1639.0</ele>
        <time>2014-05-17T13:42:58Z</time>
      </trkpt>
      <trkpt lat="40.141350" lon="-5.237950">
        <ele>1641.0</ele>
        <time>2014-05-17T13:42:59Z</time>
      </trkpt>
      <trkpt lat="40.141367" lon="-5.238050">
        <ele>1643.0</ele>
        <time>2014-05-17T13:43:00Z</time>
      </trkpt>
      <trkpt lat="40.141367" lon="-5.238133">
        <ele>1643.0</ele>
        <time>2014-05-17T13:43:01Z</time>
      </trkpt>
      <trkpt lat="40.141367" lon="-5.238250">
        <ele>1642.0</ele>
        <time>2014-05-17T13:43:02Z</time>
      </trkpt>
      <trkpt lat="40.141367" lon="-5.238367">
        <ele>1641.0</ele>
        <time>2014-05-17T13:43:03Z</time>
      </trkpt>
      <trkpt lat="40.141367" lon="-5.238500">
        <ele>1638.0</ele>
        <time>2014-05-17T13:43:04Z</time>
      </trkpt>
      <trkpt lat="40.141367" lon="-5.238650">
        <ele>1636.0</ele>
        <time>2014-05-17T13:43:05Z</time>
      </trkpt>
      <trkpt lat="40.141350" lon="-5.238783">
        <ele>1635.0</ele>
        <time>2014-05-17T13:43:06Z</time>
      </trkpt>
      <trkpt lat="40.141350" lon="-5.238900">
        <ele>1635.0</ele>
        <time>2014-05-17T13:43:07Z</time>
      </trkpt>
      <trkpt lat="40.141350" lon="-5.239000">
        <ele>1635.0</ele>
        <time>2014-05-17T13:43:08Z</time>
      </trkpt>
      <trkpt lat="40.141367" lon="-5.239083">
        <ele>1634.0</ele>
        <time>2014-05-17T13:43:09Z</time>
      </trkpt>
      <trkpt lat="40.141383" lon="-5.239200">
        <ele>1633.0</ele>
        <time>2014-05-17T13:43:10Z</time>
      </trkpt>
      <trkpt lat="40.141383" lon="-5.239333">
        <ele>1630.0</ele>
        <time>2014-05-17T13:43:11Z</time>
      </trkpt>
      <trkpt lat="40.141400" lon="-5.239467">
        <ele>1628.0</ele>
        <time>2014-05-17T13:43:12Z</time>
      </trkpt>
      <trkpt lat="40.141417" lon="-5.239583">
        <ele>1626.0</ele>
        <time>2014-05-17T13:43:13Z</time>
      </trkpt>
      <trkpt lat="40.141433" lon="-5.239700">
        <ele>1626.0</ele>
        <time>2014-05-17T13:43:14Z</time>
      </trkpt>
      <trkpt lat="40.141433" lon="-5.239817">
        <ele>1626.0</ele>
        <time>2014-05-17T13:43:15Z</time>
      </trkpt>
      <trkpt lat="40.141417" lon="-5.239917">
        <ele>1626.0</ele>
        <time>2014-05-17T13:43:16Z</time>
      </trkpt>
      <trkpt lat="40.141417" lon="-5.240033">
        <ele>1626.0</ele>
        <time>2014-05-17T13:43:17Z</time>
      </trkpt>
      <trkpt lat="40.141400" lon="-5.240150">
        <ele>1627.0</ele>
        <time>2014-05-17T13:43:18Z</time>
      </trkpt>
      <trkpt lat="40.141400" lon="-5.240267">
        <ele>1627.0</ele>
        <time>2014-05-17T13:43:19Z</time>
      </trkpt>
      <trkpt lat="40.141383" lon="-5.240383">
        <ele>1629.0</ele>
        <time>2014-05-17T13:43:20Z</time>
      </trkpt>
      <trkpt lat="40.141383" lon="-5.240500">
        <ele>1630.0</ele>
        <time>2014-05-17T13:43:21Z</time>
      </trkpt>
      <trkpt lat="40.141367" lon="-5.240617">
        <ele>1630.0</ele>
        <time>2014-05-17T13:43:22Z</time>
      </trkpt>
      <trkpt lat="40.141333" lon="-5.240733">
        <ele>1631.0</ele>
        <time>2014-05-17T13:43:23Z</time>
      </trkpt>
      <trkpt lat="40.141317" lon="-5.240850">
        <ele>1632.0</ele>
        <time>2014-05-17T13:43:24Z</time>
      </trkpt>
      <trkpt lat="40.141300" lon="-5.240983">
        <ele>1632.0</ele>
        <time>2014-05-17T13:43:25Z</time>
      </trkpt>
      <trkpt lat="40.141283" lon="-5.241100">
        <ele>1632.0</ele>
        <time>2014-05-17T13:43:26Z</time>
      </trkpt>
      <trkpt lat="40.141283" lon="-5.241217">
        <ele>1633.0</ele>
        <time>2014-05-17T13:43:27Z</time>
      </trkpt>
      <trkpt lat="40.141267" lon="-5.241350">
        <ele>1634.0</ele>
        <time>2014-05-17T13:43:28Z</time>
      </trkpt>
      <trkpt lat="40.141250" lon="-5.241467">
        <ele>1636.0</ele>
        <time>2014-05-17T13:43:29Z</time>
      </trkpt>
      <trkpt lat="40.141250" lon="-5.241583">
        <ele>1638.0</ele>
        <time>2014-05-17T13:43:30Z</time>
      </trkpt>
      <trkpt lat="40.141233" lon="-5.241700">
        <ele>1640.0</ele>
        <time>2014-05-17T13:43:31Z</time>
      </trkpt>
      <trkpt lat="40.141233" lon="-5.241783">
        <ele>1644.0</ele>
        <time>2014-05-17T13:43:32Z</time>
      </trkpt>
      <trkpt lat="40.141233" lon="-5.241867">
        <ele>1648.0</ele>
        <time>2014-05-17T13:43:33Z</time>
      </trkpt>
      <trkpt lat="40.141250" lon="-5.241967">
        <ele>1650.0</ele>
        <time>2014-05-17T13:43:34Z</time>
      </trkpt>
      <trkpt lat="40.141283" lon="-5.242067">
        <ele>1650.0</ele>
        <time>2014-05-17T13:43:35Z</time>
      </trkpt>
      <trkpt lat="40.141300" lon="-5.242167">
        <ele>1649.0</ele>
        <time>2014-05-17T13:43:36Z</time>
      </trkpt>
      <trkpt lat="40.141333" lon="-5.242283">
        <ele>1649.0</ele>
        <time>2014-05-17T13:43:37Z</time>
      </trkpt>
      <trkpt lat="40.141367" lon="-5.242383">
        <ele>1650.0</ele>
        <time>2014-05-17T13:43:38Z</time>
      </trkpt>
      <trkpt lat="40.141400" lon="-5.242483">
        <ele>1651.0</ele>
        <time>2014-05-17T13:43:39Z</time>
      </trkpt>
      <trkpt lat="40.141433" lon="-5.242583">
        <ele>1653.0</ele>
        <time>2014-05-17T13:43:40Z</time>
      </trkpt>
      <trkpt lat="40.141467" lon="-5.242683">
        <ele>1653.0</ele>
        <time>2014-05-17T13:43:41Z</time>
      </trkpt>
      <trkpt lat="40.141500" lon="-5.242783">
        <ele>1653.0</ele>
        <time>2014-05-17T13:43:42Z</time>
      </trkpt>
      <trkpt lat="40.141533" lon="-5.242883">
        <ele>1653.0</ele>
        <time>2014-05-17T13:43:43Z</time>
      </trkpt>
      <trkpt lat="40.141550" lon="-5.243000">
        <ele>1653.0</ele>
        <time>2014-05-17T13:43:44Z</time>
      </trkpt>
      <trkpt lat="40.141583" lon="-5.243117">
        <ele>1653.0</ele>
        <time>2014-05-17T13:43:45Z</time>
      </trkpt>
      <trkpt lat="40.141617" lon="-5.243250">
        <ele>1652.0</ele>
        <time>2014-05-17T13:43:46Z</time>
      </trkpt>
      <trkpt lat="40.141633" lon="-5.243383">
        <ele>1652.0</ele>
        <time>2014-05-17T13:43:47Z</time>
      </trkpt>
      <trkpt lat="40.141633" lon="-5.243517">
        <ele>1653.0</ele>
        <time>2014-05-17T13:43:48Z</time>
      </trkpt>
      <trkpt lat="40.141633" lon="-5.243633">
        <ele>1655.0</ele>
        <time>2014-05-17T13:43:49Z</time>
      </trkpt>
      <trkpt lat="40.141633" lon="-5.243750">
        <ele>1657.0</ele>
        <time>2014-05-17T13:43:50Z</time>
      </trkpt>
      <trkpt lat="40.141633" lon="-5.243867">
        <ele>1659.0</ele>
        <time>2014-05-17T13:43:51Z</time>
      </trkpt>
      <trkpt lat="40.141633" lon="-5.243983">
        <ele>1660.0</ele>
        <time>2014-05-17T13:43:52Z</time>
      </trkpt>
      <trkpt lat="40.141650" lon="-5.244100">
        <ele>1661.0</ele>
        <time>2014-05-17T13:43:53Z</time>
      </trkpt>
      <trkpt lat="40.141667" lon="-5.244217">
        <ele>1662.0</ele>
        <time>2014-05-17T13:43:54Z</time>
      </trkpt>
      <trkpt lat="40.141683" lon="-5.244333">
        <ele>1663.0</ele>
        <time>2014-05-17T13:43:55Z</time>
      </trkpt>
      <trkpt lat="40.141700" lon="-5.244433">
        <ele>1665.0</ele>
        <time>2014-05-17T13:43:56Z</time>
      </trkpt>
      <trkpt lat="40.141700" lon="-5.244500">
        <ele>1666.0</ele>
        <time>2014-05-17T13:43:57Z</time>
      </trkpt>
      <trkpt lat="40.141683" lon="-5.244583">
        <ele>1666.0</ele>
        <time>2014-05-17T13:43:58Z</time>
      </trkpt>
      <trkpt lat="40.141683" lon="-5.244683">
        <ele>1666.0</ele>
        <time>2014-05-17T13:43:59Z</time>
      </trkpt>
      <trkpt lat="40.141683" lon="-5.244800">
        <ele>1666.0</ele>
        <time>2014-05-17T13:44:00Z</time>
      </trkpt>
      <trkpt lat="40.141700" lon="-5.244900">
        <ele>1667.0</ele>
        <time>2014-05-17T13:44:01Z</time>
      </trkpt>
      <trkpt lat="40.141733" lon="-5.245000">
        <ele>1669.0</ele>
        <time>2014-05-17T13:44:02Z</time>
      </trkpt>
      <trkpt lat="40.141767" lon="-5.245117">
        <ele>1670.0</ele>
        <time>2014-05-17T13:44:03Z</time>
      </trkpt>
      <trkpt lat="40.141817" lon="-5.245250">
        <ele>1672.0</ele>
        <time>2014-05-17T13:44:04Z</time>
      </trkpt>
      <trkpt lat="40.141867" lon="-5.245367">
        <ele>1673.0</ele>
        <time>2014-05-17T13:44:05Z</time>
      </trkpt>
      <trkpt lat="40.141917" lon="-5.245467">
        <ele>1676.0</ele>
        <time>2014-05-17T13:44:06Z</time>
      </trkpt>
      <trkpt lat="40.141967" lon="-5.245550">
        <ele>1678.0</ele>
        <time>2014-05-17T13:44:07Z</time>
      </trkpt>
      <trkpt lat="40.142017" lon="-5.245617">
        <ele>1678.0</ele>
        <time>2014-05-17T13:44:08Z</time>
      </trkpt>
      <trkpt lat="40.142083" lon="-5.245700">
        <ele>1677.0</ele>
        <time>2014-05-17T13:44:09Z</time>
      </trkpt>
      <trkpt lat="40.142167" lon="-5.245817">
        <ele>1675.0</ele>
        <time>2014-05-17T13:44:10Z</time>
      </trkpt>
      <trkpt lat="40.142233" lon="-5.245950">
        <ele>1673.0</ele>
        <time>2014-05-17T13:44:11Z</time>
      </trkpt>
      <trkpt lat="40.142300" lon="-5.246067">
        <ele>1671.0</ele>
        <time>2014-05-17T13:44:12Z</time>
      </trkpt>
      <trkpt lat="40.142350" lon="-5.246183">
        <ele>1672.0</ele>
        <time>2014-05-17T13:44:13Z</time>
      </trkpt>
      <trkpt lat="40.142383" lon="-5.246300">
        <ele>1671.0</ele>
        <time>2014-05-17T13:44:14Z</time>
      </trkpt>
      <trkpt lat="40.142417" lon="-5.246417">
        <ele>1670.0</ele>
        <time>2014-05-17T13:44:15Z</time>
      </trkpt>
      <trkpt lat="40.142450" lon="-5.246550">
        <ele>1669.0</ele>
        <time>2014-05-17T13:44:16Z</time>
      </trkpt>
      <trkpt lat="40.142467" lon="-5.246683">
        <ele>1668.0</ele>
        <time>2014-05-17T13:44:17Z</time>
      </trkpt>
      <trkpt lat="40.142483" lon="-5.246800">
        <ele>1666.0</ele>
        <time>2014-05-17T13:44:18Z</time>
      </trkpt>
      <trkpt lat="40.142500" lon="-5.246917">
        <ele>1666.0</ele>
        <time>2014-05-17T13:44:19Z</time>
      </trkpt>
      <trkpt lat="40.142517" lon="-5.247017">
        <ele>1665.0</ele>
        <time>2014-05-17T13:44:20Z</time>
      </trkpt>
      <trkpt lat="40.142517" lon="-5.247117">
        <ele>1664.0</ele>
        <time>2014-05-17T13:44:21Z</time>
      </trkpt>
      <trkpt lat="40.142533" lon="-5.247233">
        <ele>1663.0</ele>
        <time>2014-05-17T13:44:22Z</time>
      </trkpt>
      <trkpt lat="40.142567" lon="-5.247367">
        <ele>1660.0</ele>
        <time>2014-05-17T13:44:23Z</time>
      </trkpt>
      <trkpt lat="40.142567" lon="-5.247500">
        <ele>1658.0</ele>
        <time>2014-05-17T13:44:24Z</time>
      </trkpt>
      <trkpt lat="40.142567" lon="-5.247617">
        <ele>1657.0</ele>
        <time>2014-05-17T13:44:25Z</time>
      </trkpt>
      <trkpt lat="40.142550" lon="-5.247733">
        <ele>1657.0</ele>
        <time>2014-05-17T13:44:26Z</time>
      </trkpt>
      <trkpt lat="40.142533" lon="-5.247833">
        <ele>1656.0</ele>
        <time>2014-05-17T13:44:27Z</time>
      </trkpt>
      <trkpt lat="40.142517" lon="-5.247933">
        <ele>1656.0</ele>
        <time>2014-05-17T13:44:28Z</time>
      </trkpt>
      <trkpt lat="40.142517" lon="-5.248033">
        <ele>1655.0</ele>
        <time>2014-05-17T13:44:29Z</time>
      </trkpt>
      <trkpt lat="40.142517" lon="-5.248133">
        <ele>1653.0</ele>
        <time>2014-05-17T13:44:30Z</time>
      </trkpt>
      <trkpt lat="40.142533" lon="-5.248250">
        <ele>1651.0</ele>
        <time>2014-05-17T13:44:31Z</time>
      </trkpt>
      <trkpt lat="40.142533" lon="-5.248367">
        <ele>1648.0</ele>
        <time>2014-05-17T13:44:32Z</time>
      </trkpt>
      <trkpt lat="40.142550" lon="-5.248500">
        <ele>1646.0</ele>
        <time>2014-05-17T13:44:33Z</time>
      </trkpt>
      <trkpt lat="40.142550" lon="-5.248617">
        <ele>1643.0</ele>
        <time>2014-05-17T13:44:34Z</time>
      </trkpt>
      <trkpt lat="40.142567" lon="-5.248733">
        <ele>1642.0</ele>
        <time>2014-05-17T13:44:35Z</time>
      </trkpt>
      <trkpt lat="40.142567" lon="-5.248833">
        <ele>1641.0</ele>
        <time>2014-05-17T13:44:36Z</time>
      </trkpt>
      <trkpt lat="40.142583" lon="-5.248950">
        <ele>1639.0</ele>
        <time>2014-05-17T13:44:37Z</time>
      </trkpt>
      <trkpt lat="40.142600" lon="-5.249067">
        <ele>1637.0</ele>
        <time>2014-05-17T13:44:38Z</time>
      </trkpt>
      <trkpt lat="40.142617" lon="-5.249200">
        <ele>1635.0</ele>
        <time>2014-05-17T13:44:39Z</time>
      </trkpt>
      <trkpt lat="40.142650" lon="-5.249317">
        <ele>1633.0</ele>
        <time>2014-05-17T13:44:40Z</time>
      </trkpt>
      <trkpt lat="40.142667" lon="-5.249450">
        <ele>1632.0</ele>
        <time>2014-05-17T13:44:41Z</time>
      </trkpt>
      <trkpt lat="40.142683" lon="-5.249567">
        <ele>1631.0</ele>
        <time>2014-05-17T13:44:42Z</time>
      </trkpt>
      <trkpt lat="40.142700" lon="-5.249683">
        <ele>1630.0</ele>
        <time>2014-05-17T13:44:43Z</time>
      </trkpt>
      <trkpt lat="40.142733" lon="-5.249783">
        <ele>1628.0</ele>
        <time>2014-05-17T13:44:44Z</time>
      </trkpt>
      <trkpt lat="40.142750" lon="-5.249900">
        <ele>1626.0</ele>
        <time>2014-05-17T13:44:45Z</time>
      </trkpt>
      <trkpt lat="40.142783" lon="-5.250017">
        <ele>1623.0</ele>
        <time>2014-05-17T13:44:46Z</time>
      </trkpt>
      <trkpt lat="40.142817" lon="-5.250167">
        <ele>1620.0</ele>
        <time>2014-05-17T13:44:47Z</time>
      </trkpt>
      <trkpt lat="40.142833" lon="-5.250317">
        <ele>1618.0</ele>
        <time>2014-05-17T13:44:48Z</time>
      </trkpt>
      <trkpt lat="40.142867" lon="-5.250450">
        <ele>1616.0</ele>
        <time>2014-05-17T13:44:49Z</time>
      </trkpt>
      <trkpt lat="40.142883" lon="-5.250567">
        <ele>1615.0</ele>
        <time>2014-05-17T13:44:50Z</time>
      </trkpt>
      <trkpt lat="40.142900" lon="-5.250683">
        <ele>1614.0</ele>
        <time>2014-05-17T13:44:51Z</time>
      </trkpt>
      <trkpt lat="40.142917" lon="-5.250783">
        <ele>1613.0</ele>
        <time>2014-05-17T13:44:52Z</time>
      </trkpt>
      <trkpt lat="40.142933" lon="-5.250900">
        <ele>1611.0</ele>
        <time>2014-05-17T13:44:53Z</time>
      </trkpt>
      <trkpt lat="40.142950" lon="-5.251033">
        <ele>1608.0</ele>
        <time>2014-05-17T13:44:54Z</time>
      </trkpt>
      <trkpt lat="40.142950" lon="-5.251167">
        <ele>1605.0</ele>
        <time>2014-05-17T13:44:55Z</time>
      </trkpt>
      <trkpt lat="40.142950" lon="-5.251300">
        <ele>1603.0</ele>
        <time>2014-05-17T13:44:56Z</time>
      </trkpt>
      <trkpt lat="40.142933" lon="-5.251433">
        <ele>1601.0</ele>
        <time>2014-05-17T13:44:57Z</time>
      </trkpt>
      <trkpt lat="40.142933" lon="-5.251550">
        <ele>1600.0</ele>
        <time>2014-05-17T13:44:58Z</time>
      </trkpt>
      <trkpt lat="40.142917" lon="-5.251667">
        <ele>1599.0</ele>
        <time>2014-05-17T13:44:59Z</time>
      </trkpt>
      <trkpt lat="40.142900" lon="-5.251783">
        <ele>1597.0</ele>
        <time>2014-05-17T13:45:00Z</time>
      </trkpt>
      <trkpt lat="40.142883" lon="-5.251883">
        <ele>1594.0</ele>
        <time>2014-05-17T13:45:01Z</time>
      </trkpt>
      <trkpt lat="40.142867" lon="-5.252017">
        <ele>1592.0</ele>
        <time>2014-05-17T13:45:02Z</time>
      </trkpt>
      <trkpt lat="40.142850" lon="-5.252150">
        <ele>1589.0</ele>
        <time>2014-05-17T13:45:03Z</time>
      </trkpt>
      <trkpt lat="40.142833" lon="-5.252283">
        <ele>1587.0</ele>
        <time>2014-05-17T13:45:04Z</time>
      </trkpt>
      <trkpt lat="40.142817" lon="-5.252400">
        <ele>1585.0</ele>
        <time>2014-05-17T13:45:05Z</time>
      </trkpt>
      <trkpt lat="40.142800" lon="-5.252533">
        <ele>1583.0</ele>
        <time>2014-05-17T13:45:06Z</time>
      </trkpt>
      <trkpt lat="40.142767" lon="-5.252650">
        <ele>1581.0</ele>
        <time>2014-05-17T13:45:07Z</time>
      </trkpt>
      <trkpt lat="40.142750" lon="-5.252767">
        <ele>1580.0</ele>
        <time>2014-05-17T13:45:08Z</time>
      </trkpt>
      <trkpt lat="40.142733" lon="-5.252883">
        <ele>1579.0</ele>
        <time>2014-05-17T13:45:09Z</time>
      </trkpt>
      <trkpt lat="40.142717" lon="-5.253017">
        <ele>1577.0</ele>
        <time>2014-05-17T13:45:10Z</time>
      </trkpt>
      <trkpt lat="40.142683" lon="-5.253150">
        <ele>1576.0</ele>
        <time>2014-05-17T13:45:11Z</time>
      </trkpt>
      <trkpt lat="40.142650" lon="-5.253283">
        <ele>1576.0</ele>
        <time>2014-05-17T13:45:12Z</time>
      </trkpt>
      <trkpt lat="40.142633" lon="-5.253417">
        <ele>1577.0</ele>
        <time>2014-05-17T13:45:13Z</time>
      </trkpt>
      <trkpt lat="40.142600" lon="-5.253550">
        <ele>1578.0</ele>
        <time>2014-05-17T13:45:14Z</time>
      </trkpt>
      <trkpt lat="40.142583" lon="-5.253683">
        <ele>1580.0</ele>
        <time>2014-05-17T13:45:15Z</time>
      </trkpt>
      <trkpt lat="40.142550" lon="-5.253800">
        <ele>1582.0</ele>
        <time>2014-05-17T13:45:16Z</time>
      </trkpt>
      <trkpt lat="40.142533" lon="-5.253917">
        <ele>1584.0</ele>
        <time>2014-05-17T13:45:17Z</time>
      </trkpt>
      <trkpt lat="40.142517" lon="-5.254050">
        <ele>1587.0</ele>
        <time>2014-05-17T13:45:18Z</time>
      </trkpt>
      <trkpt lat="40.142517" lon="-5.254183">
        <ele>1588.0</ele>
        <time>2014-05-17T13:45:19Z</time>
      </trkpt>
      <trkpt lat="40.142533" lon="-5.254300">
        <ele>1591.0</ele>
        <time>2014-05-17T13:45:20Z</time>
      </trkpt>
      <trkpt lat="40.142533" lon="-5.254417">
        <ele>1593.0</ele>
        <time>2014-05-17T13:45:21Z</time>
      </trkpt>
      <trkpt lat="40.142567" lon="-5.254533">
        <ele>1595.0</ele>
        <time>2014-05-17T13:45:22Z</time>
      </trkpt>
      <trkpt lat="40.142600" lon="-5.254667">
        <ele>1597.0</ele>
        <time>2014-05-17T13:45:23Z</time>
      </trkpt>
      <trkpt lat="40.142667" lon="-5.254783">
        <ele>1599.0</ele>
        <time>2014-05-17T13:45:24Z</time>
      </trkpt>
      <trkpt lat="40.142700" lon="-5.254900">
        <ele>1602.0</ele>
        <time>2014-05-17T13:45:25Z</time>
      </trkpt>
      <trkpt lat="40.142767" lon="-5.254983">
        <ele>1606.0</ele>
        <time>2014-05-17T13:45:26Z</time>
      </trkpt>
      <trkpt lat="40.142817" lon="-5.255067">
        <ele>1609.0</ele>
        <time>2014-05-17T13:45:27Z</time>
      </trkpt>
      <trkpt lat="40.142883" lon="-5.255167">
        <ele>1610.0</ele>
        <time>2014-05-17T13:45:28Z</time>
      </trkpt>
      <trkpt lat="40.142950" lon="-5.255267">
        <ele>1611.0</ele>
        <time>2014-05-17T13:45:29Z</time>
      </trkpt>
      <trkpt lat="40.143033" lon="-5.255333">
        <ele>1613.0</ele>
        <time>2014-05-17T13:45:30Z</time>
      </trkpt>
      <trkpt lat="40.143117" lon="-5.255383">
        <ele>1616.0</ele>
        <time>2014-05-17T13:45:31Z</time>
      </trkpt>
      <trkpt lat="40.143200" lon="-5.255417">
        <ele>1618.0</ele>
        <time>2014-05-17T13:45:32Z</time>
      </trkpt>
      <trkpt lat="40.143283" lon="-5.255400">
        <ele>1620.0</ele>
        <time>2014-05-17T13:45:33Z</time>
      </trkpt>
      <trkpt lat="40.143467" lon="-5.255350">
        <ele>1624.0</ele>
        <time>2014-05-17T13:45:35Z</time>
      </trkpt>
      <trkpt lat="40.143550" lon="-5.255300">
        <ele>1626.0</ele>
        <time>2014-05-17T13:45:36Z</time>
      </trkpt>
      <trkpt lat="40.143617" lon="-5.255233">
        <ele>1628.0</ele>
        <time>2014-05-17T13:45:37Z</time>
      </trkpt>
      <trkpt lat="40.143667" lon="-5.255150">
        <ele>1631.0</ele>
        <time>2014-05-17T13:45:38Z</time>
      </trkpt>
      <trkpt lat="40.143700" lon="-5.255050">
        <ele>1632.0</ele>
        <time>2014-05-17T13:45:39Z</time>
      </trkpt>
      <trkpt lat="40.143733" lon="-5.254950">
        <ele>1634.0</ele>
        <time>2014-05-17T13:45:40Z</time>
      </trkpt>
      <trkpt lat="40.143767" lon="-5.254850">
        <ele>1636.0</ele>
        <time>2014-05-17T13:45:41Z</time>
      </trkpt>
      <trkpt lat="40.143783" lon="-5.254767">
        <ele>1638.0</ele>
        <time>2014-05-17T13:45:42Z</time>
      </trkpt>
      <trkpt lat="40.143783" lon="-5.254700">
        <ele>1640.0</ele>
        <time>2014-05-17T13:45:43Z</time>
      </trkpt>
      <trkpt lat="40.143783" lon="-5.254633">
        <ele>1643.0</ele>
        <time>2014-05-17T13:45:44Z</time>
      </trkpt>
      <trkpt lat="40.143783" lon="-5.254583">
        <ele>1645.0</ele>
        <time>2014-05-17T13:45:45Z</time>
      </trkpt>
      <trkpt lat="40.143767" lon="-5.254550">
        <ele>1646.0</ele>
        <time>2014-05-17T13:45:46Z</time>
      </trkpt>
      <trkpt lat="40.143733" lon="-5.254517">
        <ele>1647.0</ele>
        <time>2014-05-17T13:45:47Z</time>
      </trkpt>
      <trkpt lat="40.143683" lon="-5.254483">
        <ele>1647.0</ele>
        <time>2014-05-17T13:45:48Z</time>
      </trkpt>
      <trkpt lat="40.143617" lon="-5.254450">
        <ele>1648.0</ele>
        <time>2014-05-17T13:45:49Z</time>
      </trkpt>
      <trkpt lat="40.143567" lon="-5.254433">
        <ele>1648.0</ele>
        <time>2014-05-17T13:45:50Z</time>
      </trkpt>
      <trkpt lat="40.143517" lon="-5.254417">
        <ele>1650.0</ele>
        <time>2014-05-17T13:45:51Z</time>
      </trkpt>
      <trkpt lat="40.143467" lon="-5.254433">
        <ele>1650.0</ele>
        <time>2014-05-17T13:45:52Z</time>
      </trkpt>
      <trkpt lat="40.143400" lon="-5.254450">
        <ele>1650.0</ele>
        <time>2014-05-17T13:45:53Z</time>
      </trkpt>
      <trkpt lat="40.143317" lon="-5.254483">
        <ele>1650.0</ele>
        <time>2014-05-17T13:45:54Z</time>
      </trkpt>
      <trkpt lat="40.143217" lon="-5.254517">
        <ele>1649.0</ele>
        <time>2014-05-17T13:45:55Z</time>
      </trkpt>
      <trkpt lat="40.143133" lon="-5.254550">
        <ele>1650.0</ele>
        <time>2014-05-17T13:45:56Z</time>
      </trkpt>
      <trkpt lat="40.143067" lon="-5.254567">
        <ele>1652.0</ele>
        <time>2014-05-17T13:45:57Z</time>
      </trkpt>
      <trkpt lat="40.143017" lon="-5.254617">
        <ele>1654.0</ele>
        <time>2014-05-17T13:45:58Z</time>
      </trkpt>
      <trkpt lat="40.142950" lon="-5.254667">
        <ele>1655.0</ele>
        <time>2014-05-17T13:45:59Z</time>
      </trkpt>
      <trkpt lat="40.142883" lon="-5.254750">
        <ele>1655.0</ele>
        <time>2014-05-17T13:46:00Z</time>
      </trkpt>
      <trkpt lat="40.142833" lon="-5.254850">
        <ele>1656.0</ele>
        <time>2014-05-17T13:46:01Z</time>
      </trkpt>
      <trkpt lat="40.142817" lon="-5.254950">
        <ele>1656.0</ele>
        <time>2014-05-17T13:46:02Z</time>
      </trkpt>
      <trkpt lat="40.142800" lon="-5.255050">
        <ele>1657.0</ele>
        <time>2014-05-17T13:46:03Z</time>
      </trkpt>
      <trkpt lat="40.142800" lon="-5.255167">
        <ele>1659.0</ele>
        <time>2014-05-17T13:46:04Z</time>
      </trkpt>
      <trkpt lat="40.142800" lon="-5.255300">
        <ele>1659.0</ele>
        <time>2014-05-17T13:46:05Z</time>
      </trkpt>
      <trkpt lat="40.142783" lon="-5.255433">
        <ele>1660.0</ele>
        <time>2014-05-17T13:46:06Z</time>
      </trkpt>
      <trkpt lat="40.142783" lon="-5.255550">
        <ele>1662.0</ele>
        <time>2014-05-17T13:46:07Z</time>
      </trkpt>
      <trkpt lat="40.142750" lon="-5.255667">
        <ele>1663.0</ele>
        <time>2014-05-17T13:46:08Z</time>
      </trkpt>
      <trkpt lat="40.142733" lon="-5.255783">
        <ele>1665.0</ele>
        <time>2014-05-17T13:46:09Z</time>
      </trkpt>
      <trkpt lat="40.142717" lon="-5.255917">
        <ele>1666.0</ele>
        <time>2014-05-17T13:46:10Z</time>
      </trkpt>
      <trkpt lat="40.142733" lon="-5.256050">
        <ele>1668.0</ele>
        <time>2014-05-17T13:46:11Z</time>
      </trkpt>
      <trkpt lat="40.142750" lon="-5.256200">
        <ele>1669.0</ele>
        <time>2014-05-17T13:46:12Z</time>
      </trkpt>
      <trkpt lat="40.142750" lon="-5.256367">
        <ele>1670.0</ele>
        <time>2014-05-17T13:46:13Z</time>
      </trkpt>
      <trkpt lat="40.142783" lon="-5.256500">
        <ele>1674.0</ele>
        <time>2014-05-17T13:46:14Z</time>
      </trkpt>
      <trkpt lat="40.142817" lon="-5.256633">
        <ele>1680.0</ele>
        <time>2014-05-17T13:46:15Z</time>
      </trkpt>
      <trkpt lat="40.142867" lon="-5.256733">
        <ele>1685.0</ele>
        <time>2014-05-17T13:46:16Z</time>
      </trkpt>
      <trkpt lat="40.142950" lon="-5.256833">
        <ele>1688.0</ele>
        <time>2014-05-17T13:46:17Z</time>
      </trkpt>
      <trkpt lat="40.143033" lon="-5.256917">
        <ele>1689.0</ele>
        <time>2014-05-17T13:46:18Z</time>
      </trkpt>
      <trkpt lat="40.143117" lon="-5.256983">
        <ele>1689.0</ele>
        <time>2014-05-17T13:46:19Z</time>
      </trkpt>
      <trkpt lat="40.143217" lon="-5.257067">
        <ele>1690.0</ele>
        <time>2014-05-17T13:46:20Z</time>
      </trkpt>
      <trkpt lat="40.143317" lon="-5.257117">
        <ele>1691.0</ele>
        <time>2014-05-17T13:46:21Z</time>
      </trkpt>
      <trkpt lat="40.143400" lon="-5.257167">
        <ele>1692.0</ele>
        <time>2014-05-17T13:46:22Z</time>
      </trkpt>
      <trkpt lat="40.143500" lon="-5.257200">
        <ele>1693.0</ele>
        <time>2014-05-17T13:46:23Z</time>
      </trkpt>
      <trkpt lat="40.143600" lon="-5.257217">
        <ele>1694.0</ele>
        <time>2014-05-17T13:46:24Z</time>
      </trkpt>
      <trkpt lat="40.143883" lon="-5.257217">
        <ele>1696.0</ele>
        <time>2014-05-17T13:46:27Z</time>
      </trkpt>
      <trkpt lat="40.144050" lon="-5.257083">
        <ele>1696.0</ele>
        <time>2014-05-17T13:46:29Z</time>
      </trkpt>
      <trkpt lat="40.144100" lon="-5.257000">
        <ele>1696.0</ele>
        <time>2014-05-17T13:46:30Z</time>
      </trkpt>
      <trkpt lat="40.144117" lon="-5.256900">
        <ele>1696.0</ele>
        <time>2014-05-17T13:46:31Z</time>
      </trkpt>
      <trkpt lat="40.144150" lon="-5.256817">
        <ele>1697.0</ele>
        <time>2014-05-17T13:46:32Z</time>
      </trkpt>
      <trkpt lat="40.144200" lon="-5.256650">
        <ele>1699.0</ele>
        <time>2014-05-17T13:46:34Z</time>
      </trkpt>
      <trkpt lat="40.144217" lon="-5.256550">
        <ele>1699.0</ele>
        <time>2014-05-17T13:46:35Z</time>
      </trkpt>
      <trkpt lat="40.144217" lon="-5.256450">
        <ele>1698.0</ele>
        <time>2014-05-17T13:46:36Z</time>
      </trkpt>
      <trkpt lat="40.144217" lon="-5.256350">
        <ele>1698.0</ele>
        <time>2014-05-17T13:46:37Z</time>
      </trkpt>
      <trkpt lat="40.144217" lon="-5.256250">
        <ele>1698.0</ele>
        <time>2014-05-17T13:46:38Z</time>
      </trkpt>
      <trkpt lat="40.144233" lon="-5.256167">
        <ele>1700.0</ele>
        <time>2014-05-17T13:46:39Z</time>
      </trkpt>
      <trkpt lat="40.144250" lon="-5.256100">
        <ele>1703.0</ele>
        <time>2014-05-17T13:46:40Z</time>
      </trkpt>
      <trkpt lat="40.144250" lon="-5.256033">
        <ele>1706.0</ele>
        <time>2014-05-17T13:46:41Z</time>
      </trkpt>
      <trkpt lat="40.144233" lon="-5.255983">
        <ele>1709.0</ele>
        <time>2014-05-17T13:46:42Z</time>
      </trkpt>
      <trkpt lat="40.144217" lon="-5.255933">
        <ele>1711.0</ele>
        <time>2014-05-17T13:46:43Z</time>
      </trkpt>
      <trkpt lat="40.144217" lon="-5.255883">
        <ele>1713.0</ele>
        <time>2014-05-17T13:46:44Z</time>
      </trkpt>
      <trkpt lat="40.144217" lon="-5.255817">
        <ele>1714.0</ele>
        <time>2014-05-17T13:46:45Z</time>
      </trkpt>
      <trkpt lat="40.144200" lon="-5.255767">
        <ele>1714.0</ele>
        <time>2014-05-17T13:46:46Z</time>
      </trkpt>
      <trkpt lat="40.144183" lon="-5.255700">
        <ele>1714.0</ele>
        <time>2014-05-17T13:46:47Z</time>
      </trkpt>
      <trkpt lat="40.144167" lon="-5.255600">
        <ele>1714.0</ele>
        <time>2014-05-17T13:46:48Z</time>
      </trkpt>
      <trkpt lat="40.144150" lon="-5.255517">
        <ele>1714.0</ele>
        <time>2014-05-17T13:46:49Z</time>
      </trkpt>
      <trkpt lat="40.144133" lon="-5.255417">
        <ele>1715.0</ele>
        <time>2014-05-17T13:46:50Z</time>
      </trkpt>
      <trkpt lat="40.144083" lon="-5.255350">
        <ele>1716.0</ele>
        <time>2014-05-17T13:46:51Z</time>
      </trkpt>
      <trkpt lat="40.144033" lon="-5.255300">
        <ele>1716.0</ele>
        <time>2014-05-17T13:46:52Z</time>
      </trkpt>
      <trkpt lat="40.143983" lon="-5.255267">
        <ele>1717.0</ele>
        <time>2014-05-17T13:46:53Z</time>
      </trkpt>
      <trkpt lat="40.143933" lon="-5.255233">
        <ele>1716.0</ele>
        <time>2014-05-17T13:46:54Z</time>
      </trkpt>
      <trkpt lat="40.143867" lon="-5.255200">
        <ele>1716.0</ele>
        <time>2014-05-17T13:46:55Z</time>
      </trkpt>
      <trkpt lat="40.143817" lon="-5.255167">
        <ele>1716.0</ele>
        <time>2014-05-17T13:46:56Z</time>
      </trkpt>
      <trkpt lat="40.143750" lon="-5.255167">
        <ele>1716.0</ele>
        <time>2014-05-17T13:46:57Z</time>
      </trkpt>
      <trkpt lat="40.143683" lon="-5.255183">
        <ele>1715.0</ele>
        <time>2014-05-17T13:46:58Z</time>
      </trkpt>
      <trkpt lat="40.143617" lon="-5.255200">
        <ele>1714.0</ele>
        <time>2014-05-17T13:46:59Z</time>
      </trkpt>
      <trkpt lat="40.143550" lon="-5.255233">
        <ele>1713.0</ele>
        <time>2014-05-17T13:47:00Z</time>
      </trkpt>
      <trkpt lat="40.143467" lon="-5.255267">
        <ele>1711.0</ele>
        <time>2014-05-17T13:47:01Z</time>
      </trkpt>
      <trkpt lat="40.143400" lon="-5.255333">
        <ele>1710.0</ele>
        <time>2014-05-17T13:47:02Z</time>
      </trkpt>
      <trkpt lat="40.143333" lon="-5.255383">
        <ele>1709.0</ele>
        <time>2014-05-17T13:47:03Z</time>
      </trkpt>
      <trkpt lat="40.143300" lon="-5.255450">
        <ele>1709.0</ele>
        <time>2014-05-17T13:47:04Z</time>
      </trkpt>
      <trkpt lat="40.143250" lon="-5.255517">
        <ele>1710.0</ele>
        <time>2014-05-17T13:47:05Z</time>
      </trkpt>
      <trkpt lat="40.143217" lon="-5.255583">
        <ele>1710.0</ele>
        <time>2014-05-17T13:47:06Z</time>
      </trkpt>
      <trkpt lat="40.143183" lon="-5.255683">
        <ele>1709.0</ele>
        <time>2014-05-17T13:47:07Z</time>
      </trkpt>
      <trkpt lat="40.143167" lon="-5.255783">
        <ele>1708.0</ele>
        <time>2014-05-17T13:47:08Z</time>
      </trkpt>
      <trkpt lat="40.143133" lon="-5.255917">
        <ele>1707.0</ele>
        <time>2014-05-17T13:47:09Z</time>
      </trkpt>
      <trkpt lat="40.143133" lon="-5.256067">
        <ele>1705.0</ele>
        <time>2014-05-17T13:47:10Z</time>
      </trkpt>
      <trkpt lat="40.143117" lon="-5.256217">
        <ele>1703.0</ele>
        <time>2014-05-17T13:47:11Z</time>
      </trkpt>
      <trkpt lat="40.143100" lon="-5.256367">
        <ele>1703.0</ele>
        <time>2014-05-17T13:47:12Z</time>
      </trkpt>
      <trkpt lat="40.143067" lon="-5.256483">
        <ele>1704.0</ele>
        <time>2014-05-17T13:47:13Z</time>
      </trkpt>
      <trkpt lat="40.143050" lon="-5.256617">
        <ele>1704.0</ele>
        <time>2014-05-17T13:47:14Z</time>
      </trkpt>
      <trkpt lat="40.143033" lon="-5.256733">
        <ele>1703.0</ele>
        <time>2014-05-17T13:47:15Z</time>
      </trkpt>
      <trkpt lat="40.143033" lon="-5.256867">
        <ele>1703.0</ele>
        <time>2014-05-17T13:47:16Z</time>
      </trkpt>
      <trkpt lat="40.143017" lon="-5.256983">
        <ele>1703.0</ele>
        <time>2014-05-17T13:47:17Z</time>
      </trkpt>
      <trkpt lat="40.143000" lon="-5.257100">
        <ele>1702.0</ele>
        <time>2014-05-17T13:47:18Z</time>
      </trkpt>
      <trkpt lat="40.142967" lon="-5.257217">
        <ele>1701.0</ele>
        <time>2014-05-17T13:47:19Z</time>
      </trkpt>
      <trkpt lat="40.142917" lon="-5.257333">
        <ele>1699.0</ele>
        <time>2014-05-17T13:47:20Z</time>
      </trkpt>
      <trkpt lat="40.142883" lon="-5.257450">
        <ele>1698.0</ele>
        <time>2014-05-17T13:47:21Z</time>
      </trkpt>
      <trkpt lat="40.142850" lon="-5.257600">
        <ele>1697.0</ele>
        <time>2014-05-17T13:47:22Z</time>
      </trkpt>
      <trkpt lat="40.142833" lon="-5.257733">
        <ele>1696.0</ele>
        <time>2014-05-17T13:47:23Z</time>
      </trkpt>
      <trkpt lat="40.142833" lon="-5.257883">
        <ele>1696.0</ele>
        <time>2014-05-17T13:47:24Z</time>
      </trkpt>
      <trkpt lat="40.142833" lon="-5.258017">
        <ele>1696.0</ele>
        <time>2014-05-17T13:47:25Z</time>
      </trkpt>
      <trkpt lat="40.142817" lon="-5.258167">
        <ele>1696.0</ele>
        <time>2014-05-17T13:47:26Z</time>
      </trkpt>
      <trkpt lat="40.142800" lon="-5.258317">
        <ele>1695.0</ele>
        <time>2014-05-17T13:47:27Z</time>
      </trkpt>
      <trkpt lat="40.142800" lon="-5.258483">
        <ele>1694.0</ele>
        <time>2014-05-17T13:47:28Z</time>
      </trkpt>
      <trkpt lat="40.142783" lon="-5.258633">
        <ele>1694.0</ele>
        <time>2014-05-17T13:47:29Z</time>
      </trkpt>
      <trkpt lat="40.142783" lon="-5.258783">
        <ele>1697.0</ele>
        <time>2014-05-17T13:47:30Z</time>
      </trkpt>
      <trkpt lat="40.142767" lon="-5.258917">
        <ele>1700.0</ele>
        <time>2014-05-17T13:47:31Z</time>
      </trkpt>
      <trkpt lat="40.142750" lon="-5.259033">
        <ele>1703.0</ele>
        <time>2014-05-17T13:47:32Z</time>
      </trkpt>
      <trkpt lat="40.142733" lon="-5.259150">
        <ele>1707.0</ele>
        <time>2014-05-17T13:47:33Z</time>
      </trkpt>
      <trkpt lat="40.142733" lon="-5.259283">
        <ele>1710.0</ele>
        <time>2014-05-17T13:47:34Z</time>
      </trkpt>
      <trkpt lat="40.142750" lon="-5.259417">
        <ele>1712.0</ele>
        <time>2014-05-17T13:47:35Z</time>
      </trkpt>
      <trkpt lat="40.142750" lon="-5.259567">
        <ele>1714.0</ele>
        <time>2014-05-17T13:47:36Z</time>
      </trkpt>
      <trkpt lat="40.142767" lon="-5.259717">
        <ele>1716.0</ele>
        <time>2014-05-17T13:47:37Z</time>
      </trkpt>
      <trkpt lat="40.142767" lon="-5.259850">
        <ele>1719.0</ele>
        <time>2014-05-17T13:47:38Z</time>
      </trkpt>
      <trkpt lat="40.142783" lon="-5.259967">
        <ele>1722.0</ele>
        <time>2014-05-17T13:47:39Z</time>
      </trkpt>
      <trkpt lat="40.142783" lon="-5.260100">
        <ele>1724.0</ele>
        <time>2014-05-17T13:47:40Z</time>
      </trkpt>
      <trkpt lat="40.142783" lon="-5.260233">
        <ele>1726.0</ele>
        <time>2014-05-17T13:47:41Z</time>
      </trkpt>
      <trkpt lat="40.142817" lon="-5.260350">
        <ele>1727.0</ele>
        <time>2014-05-17T13:47:42Z</time>
      </trkpt>
      <trkpt lat="40.142850" lon="-5.260483">
        <ele>1728.0</ele>
        <time>2014-05-17T13:47:43Z</time>
      </trkpt>
      <trkpt lat="40.142917" lon="-5.260600">
        <ele>1729.0</ele>
        <time>2014-05-17T13:47:44Z</time>
      </trkpt>
      <trkpt lat="40.142983" lon="-5.260683">
        <ele>1730.0</ele>
        <time>2014-05-17T13:47:45Z</time>
      </trkpt>
      <trkpt lat="40.143050" lon="-5.260767">
        <ele>1732.0</ele>
        <time>2014-05-17T13:47:46Z</time>
      </trkpt>
      <trkpt lat="40.143133" lon="-5.260833">
        <ele>1734.0</ele>
        <time>2014-05-17T13:47:47Z</time>
      </trkpt>
      <trkpt lat="40.143200" lon="-5.260900">
        <ele>1736.0</ele>
        <time>2014-05-17T13:47:48Z</time>
      </trkpt>
      <trkpt lat="40.143300" lon="-5.260950">
        <ele>1739.0</ele>
        <time>2014-05-17T13:47:49Z</time>
      </trkpt>
      <trkpt lat="40.143400" lon="-5.260967">
        <ele>1742.0</ele>
        <time>2014-05-17T13:47:50Z</time>
      </trkpt>
      <trkpt lat="40.143483" lon="-5.260950">
        <ele>1744.0</ele>
        <time>2014-05-17T13:47:51Z</time>
      </trkpt>
      <trkpt lat="40.143550" lon="-5.260900">
        <ele>1747.0</ele>
        <time>2014-05-17T13:47:52Z</time>
      </trkpt>
      <trkpt lat="40.143700" lon="-5.260700">
        <ele>1752.0</ele>
        <time>2014-05-17T13:47:55Z</time>
      </trkpt>
      <trkpt lat="40.143733" lon="-5.260617">
        <ele>1754.0</ele>
        <time>2014-05-17T13:47:56Z</time>
      </trkpt>
      <trkpt lat="40.143767" lon="-5.260533">
        <ele>1756.0</ele>
        <time>2014-05-17T13:47:57Z</time>
      </trkpt>
      <trkpt lat="40.143767" lon="-5.260467">
        <ele>1757.0</ele>
        <time>2014-05-17T13:47:58Z</time>
      </trkpt>
      <trkpt lat="40.143750" lon="-5.260400">
        <ele>1759.0</ele>
        <time>2014-05-17T13:47:59Z</time>
      </trkpt>
      <trkpt lat="40.143700" lon="-5.260350">
        <ele>1761.0</ele>
        <time>2014-05-17T13:48:00Z</time>
      </trkpt>
      <trkpt lat="40.143650" lon="-5.260300">
        <ele>1762.0</ele>
        <time>2014-05-17T13:48:01Z</time>
      </trkpt>
      <trkpt lat="40.143600" lon="-5.260283">
        <ele>1763.0</ele>
        <time>2014-05-17T13:48:02Z</time>
      </trkpt>
      <trkpt lat="40.143533" lon="-5.260267">
        <ele>1765.0</ele>
        <time>2014-05-17T13:48:03Z</time>
      </trkpt>
      <trkpt lat="40.143467" lon="-5.260250">
        <ele>1766.0</ele>
        <time>2014-05-17T13:48:04Z</time>
      </trkpt>
      <trkpt lat="40.143400" lon="-5.260267">
        <ele>1767.0</ele>
        <time>2014-05-17T13:48:05Z</time>
      </trkpt>
      <trkpt lat="40.143333" lon="-5.260283">
        <ele>1769.0</ele>
        <time>2014-05-17T13:48:06Z</time>
      </trkpt>
      <trkpt lat="40.143267" lon="-5.260350">
        <ele>1770.0</ele>
        <time>2014-05-17T13:48:07Z</time>
      </trkpt>
      <trkpt lat="40.143217" lon="-5.260417">
        <ele>1771.0</ele>
        <time>2014-05-17T13:48:08Z</time>
      </trkpt>
      <trkpt lat="40.143167" lon="-5.260517">
        <ele>1773.0</ele>
        <time>2014-05-17T13:48:09Z</time>
      </trkpt>
      <trkpt lat="40.143133" lon="-5.260617">
        <ele>1775.0</ele>
        <time>2014-05-17T13:48:10Z</time>
      </trkpt>
      <trkpt lat="40.143117" lon="-5.260733">
        <ele>1776.0</ele>
        <time>2014-05-17T13:48:11Z</time>
      </trkpt>
      <trkpt lat="40.143083" lon="-5.260850">
        <ele>1778.0</ele>
        <time>2014-05-17T13:48:12Z</time>
      </trkpt>
      <trkpt lat="40.143083" lon="-5.260983">
        <ele>1779.0</ele>
        <time>2014-05-17T13:48:13Z</time>
      </trkpt>
      <trkpt lat="40.143100" lon="-5.261117">
        <ele>1780.0</ele>
        <time>2014-05-17T13:48:14Z</time>
      </trkpt>
      <trkpt lat="40.143133" lon="-5.261233">
        <ele>1780.0</ele>
        <time>2014-05-17T13:48:15Z</time>
      </trkpt>
      <trkpt lat="40.143200" lon="-5.261350">
        <ele>1781.0</ele>
        <time>2014-05-17T13:48:16Z</time>
      </trkpt>
      <trkpt lat="40.143283" lon="-5.261450">
        <ele>1782.0</ele>
        <time>2014-05-17T13:48:17Z</time>
      </trkpt>
      <trkpt lat="40.143383" lon="-5.261517">
        <ele>1783.0</ele>
        <time>2014-05-17T13:48:18Z</time>
      </trkpt>
      <trkpt lat="40.143467" lon="-5.261567">
        <ele>1785.0</ele>
        <time>2014-05-17T13:48:19Z</time>
      </trkpt>
      <trkpt lat="40.143550" lon="-5.261600">
        <ele>1788.0</ele>
        <time>2014-05-17T13:48:20Z</time>
      </trkpt>
      <trkpt lat="40.143633" lon="-5.261583">
        <ele>1792.0</ele>
        <time>2014-05-17T13:48:21Z</time>
      </trkpt>
      <trkpt lat="40.143700" lon="-5.261583">
        <ele>1795.0</ele>
        <time>2014-05-17T13:48:22Z</time>
      </trkpt>
      <trkpt lat="40.143833" lon="-5.261517">
        <ele>1798.0</ele>
        <time>2014-05-17T13:48:24Z</time>
      </trkpt>
      <trkpt lat="40.143900" lon="-5.261467">
        <ele>1799.0</ele>
        <time>2014-05-17T13:48:25Z</time>
      </trkpt>
      <trkpt lat="40.144017" lon="-5.261333">
        <ele>1801.0</ele>
        <time>2014-05-17T13:48:27Z</time>
      </trkpt>
      <trkpt lat="40.144050" lon="-5.261250">
        <ele>1803.0</ele>
        <time>2014-05-17T13:48:28Z</time>
      </trkpt>
      <trkpt lat="40.144050" lon="-5.261183">
        <ele>1804.0</ele>
        <time>2014-05-17T13:48:29Z</time>
      </trkpt>
      <trkpt lat="40.144050" lon="-5.261100">
        <ele>1805.0</ele>
        <time>2014-05-17T13:48:30Z</time>
      </trkpt>
      <trkpt lat="40.144033" lon="-5.261033">
        <ele>1806.0</ele>
        <time>2014-05-17T13:48:31Z</time>
      </trkpt>
      <trkpt lat="40.144017" lon="-5.260983">
        <ele>1807.0</ele>
        <time>2014-05-17T13:48:32Z</time>
      </trkpt>
      <trkpt lat="40.143983" lon="-5.260933">
        <ele>1808.0</ele>
        <time>2014-05-17T13:48:33Z</time>
      </trkpt>
      <trkpt lat="40.143933" lon="-5.260883">
        <ele>1808.0</ele>
        <time>2014-05-17T13:48:34Z</time>
      </trkpt>
      <trkpt lat="40.143883" lon="-5.260850">
        <ele>1808.0</ele>
        <time>2014-05-17T13:48:35Z</time>
      </trkpt>
      <trkpt lat="40.143833" lon="-5.260800">
        <ele>1808.0</ele>
        <time>2014-05-17T13:48:36Z</time>
      </trkpt>
      <trkpt lat="40.143767" lon="-5.260750">
        <ele>1808.0</ele>
        <time>2014-05-17T13:48:37Z</time>
      </trkpt>
      <trkpt lat="40.143717" lon="-5.260717">
        <ele>1810.0</ele>
        <time>2014-05-17T13:48:38Z</time>
      </trkpt>
      <trkpt lat="40.143650" lon="-5.260700">
        <ele>1812.0</ele>
        <time>2014-05-17T13:48:39Z</time>
      </trkpt>
      <trkpt lat="40.143600" lon="-5.260700">
        <ele>1814.0</ele>
        <time>2014-05-17T13:48:40Z</time>
      </trkpt>
      <trkpt lat="40.143533" lon="-5.260700">
        <ele>1815.0</ele>
        <time>2014-05-17T13:48:41Z</time>
      </trkpt>
      <trkpt lat="40.143467" lon="-5.260717">
        <ele>1816.0</ele>
        <time>2014-05-17T13:48:42Z</time>
      </trkpt>
      <trkpt lat="40.143383" lon="-5.260717">
        <ele>1817.0</ele>
        <time>2014-05-17T13:48:43Z</time>
      </trkpt>
      <trkpt lat="40.143317" lon="-5.260733">
        <ele>1818.0</ele>
        <time>2014-05-17T13:48:44Z</time>
      </trkpt>
      <trkpt lat="40.143250" lon="-5.260750">
        <ele>1819.0</ele>
        <time>2014-05-17T13:48:45Z</time>
      </trkpt>
      <trkpt lat="40.143183" lon="-5.260783">
        <ele>1821.0</ele>
        <time>2014-05-17T13:48:46Z</time>
      </trkpt>
      <trkpt lat="40.143117" lon="-5.260850">
        <ele>1822.0</ele>
        <time>2014-05-17T13:48:47Z</time>
      </trkpt>
      <trkpt lat="40.143050" lon="-5.260933">
        <ele>1823.0</ele>
        <time>2014-05-17T13:48:48Z</time>
      </trkpt>
      <trkpt lat="40.143000" lon="-5.261017">
        <ele>1826.0</ele>
        <time>2014-05-17T13:48:49Z</time>
      </trkpt>
      <trkpt lat="40.142967" lon="-5.261117">
        <ele>1829.0</ele>
        <time>2014-05-17T13:48:50Z</time>
      </trkpt>
      <trkpt lat="40.142933" lon="-5.261233">
        <ele>1831.0</ele>
        <time>2014-05-17T13:48:51Z</time>
      </trkpt>
      <trkpt lat="40.142917" lon="-5.261350">
        <ele>1833.0</ele>
        <time>2014-05-17T13:48:52Z</time>
      </trkpt>
      <trkpt lat="40.142883" lon="-5.261467">
        <ele>1834.0</ele>
        <time>2014-05-17T13:48:53Z</time>
      </trkpt>
      <trkpt lat="40.142867" lon="-5.261600">
        <ele>1835.0</ele>
        <time>2014-05-17T13:48:54Z</time>
      </trkpt>
      <trkpt lat="40.142850" lon="-5.261733">
        <ele>1837.0</ele>
        <time>2014-05-17T13:48:55Z</time>
      </trkpt>
      <trkpt lat="40.142850" lon="-5.261883">
        <ele>1838.0</ele>
        <time>2014-05-17T13:48:56Z</time>
      </trkpt>
      <trkpt lat="40.142867" lon="-5.262033">
        <ele>1840.0</ele>
        <time>2014-05-17T13:48:57Z</time>
      </trkpt>
      <trkpt lat="40.142900" lon="-5.262167">
        <ele>1843.0</ele>
        <time>2014-05-17T13:48:58Z</time>
      </trkpt>
      <trkpt lat="40.142933" lon="-5.262283">
        <ele>1845.0</ele>
        <time>2014-05-17T13:48:59Z</time>
      </trkpt>
      <trkpt lat="40.142967" lon="-5.262417">
        <ele>1847.0</ele>
        <time>2014-05-17T13:49:00Z</time>
      </trkpt>
      <trkpt lat="40.143017" lon="-5.262533">
        <ele>1849.0</ele>
        <time>2014-05-17T13:49:01Z</time>
      </trkpt>
      <trkpt lat="40.143067" lon="-5.262617">
        <ele>1851.0</ele>
        <time>2014-05-17T13:49:02Z</time>
      </trkpt>
      <trkpt lat="40.143133" lon="-5.262683">
        <ele>1854.0</ele>
        <time>2014-05-17T13:49:03Z</time>
      </trkpt>
      <trkpt lat="40.143217" lon="-5.262717">
        <ele>1856.0</ele>
        <time>2014-05-17T13:49:04Z</time>
      </trkpt>
      <trkpt lat="40.143283" lon="-5.262750">
        <ele>1857.0</ele>
        <time>2014-05-17T13:49:05Z</time>
      </trkpt>
      <trkpt lat="40.143367" lon="-5.262750">
        <ele>1858.0</ele>
        <time>2014-05-17T13:49:06Z</time>
      </trkpt>
      <trkpt lat="40.143517" lon="-5.262717">
        <ele>1861.0</ele>
        <time>2014-05-17T13:49:08Z</time>
      </trkpt>
      <trkpt lat="40.143567" lon="-5.262667">
        <ele>1862.0</ele>
        <time>2014-05-17T13:49:09Z</time>
      </trkpt>
      <trkpt lat="40.143650" lon="-5.262533">
        <ele>1863.0</ele>
        <time>2014-05-17T13:49:11Z</time>
      </trkpt>
      <trkpt lat="40.143667" lon="-5.262450">
        <ele>1864.0</ele>
        <time>2014-05-17T13:49:12Z</time>
      </trkpt>
      <trkpt lat="40.143650" lon="-5.262367">
        <ele>1865.0</ele>
        <time>2014-05-17T13:49:13Z</time>
      </trkpt>
      <trkpt lat="40.143633" lon="-5.262283">
        <ele>1866.0</ele>
        <time>2014-05-17T13:49:14Z</time>
      </trkpt>
      <trkpt lat="40.143600" lon="-5.262200">
        <ele>1866.0</ele>
        <time>2014-05-17T13:49:15Z</time>
      </trkpt>
      <trkpt lat="40.143550" lon="-5.262150">
        <ele>1868.0</ele>
        <time>2014-05-17T13:49:16Z</time>
      </trkpt>
      <trkpt lat="40.143500" lon="-5.262100">
        <ele>1870.0</ele>
        <time>2014-05-17T13:49:17Z</time>
      </trkpt>
      <trkpt lat="40.143433" lon="-5.262083">
        <ele>1871.0</ele>
        <time>2014-05-17T13:49:18Z</time>
      </trkpt>
      <trkpt lat="40.143367" lon="-5.262067">
        <ele>1872.0</ele>
        <time>2014-05-17T13:49:19Z</time>
      </trkpt>
      <trkpt lat="40.143267" lon="-5.262067">
        <ele>1872.0</ele>
        <time>2014-05-17T13:49:20Z</time>
      </trkpt>
      <trkpt lat="40.143183" lon="-5.262083">
        <ele>1873.0</ele>
        <time>2014-05-17T13:49:21Z</time>
      </trkpt>
      <trkpt lat="40.143083" lon="-5.262117">
        <ele>1873.0</ele>
        <time>2014-05-17T13:49:22Z</time>
      </trkpt>
      <trkpt lat="40.143017" lon="-5.262150">
        <ele>1875.0</ele>
        <time>2014-05-17T13:49:23Z</time>
      </trkpt>
      <trkpt lat="40.142950" lon="-5.262217">
        <ele>1877.0</ele>
        <time>2014-05-17T13:49:24Z</time>
      </trkpt>
      <trkpt lat="40.142883" lon="-5.262300">
        <ele>1878.0</ele>
        <time>2014-05-17T13:49:25Z</time>
      </trkpt>
      <trkpt lat="40.142833" lon="-5.262417">
        <ele>1879.0</ele>
        <time>2014-05-17T13:49:26Z</time>
      </trkpt>
      <trkpt lat="40.142783" lon="-5.262550">
        <ele>1879.0</ele>
        <time>2014-05-17T13:49:27Z</time>
      </trkpt>
      <trkpt lat="40.142733" lon="-5.262667">
        <ele>1880.0</ele>
        <time>2014-05-17T13:49:28Z</time>
      </trkpt>
      <trkpt lat="40.142683" lon="-5.262800">
        <ele>1881.0</ele>
        <time>2014-05-17T13:49:29Z</time>
      </trkpt>
      <trkpt lat="40.142633" lon="-5.262900">
        <ele>1883.0</ele>
        <time>2014-05-17T13:49:30Z</time>
      </trkpt>
      <trkpt lat="40.142600" lon="-5.263017">
        <ele>1884.0</ele>
        <time>2014-05-17T13:49:31Z</time>
      </trkpt>
      <trkpt lat="40.142567" lon="-5.263133">
        <ele>1885.0</ele>
        <time>2014-05-17T13:49:32Z</time>
      </trkpt>
      <trkpt lat="40.142533" lon="-5.263267">
        <ele>1886.0</ele>
        <time>2014-05-17T13:49:33Z</time>
      </trkpt>
      <trkpt lat="40.142517" lon="-5.263400">
        <ele>1885.0</ele>
        <time>2014-05-17T13:49:34Z</time>
      </trkpt>
      <trkpt lat="40.142517" lon="-5.263550">
        <ele>1883.0</ele>
        <time>2014-05-17T13:49:35Z</time>
      </trkpt>
      <trkpt lat="40.142500" lon="-5.263700">
        <ele>1883.0</ele>
        <time>2014-05-17T13:49:36Z</time>
      </trkpt>
      <trkpt lat="40.142483" lon="-5.263850">
        <ele>1883.0</ele>
        <time>2014-05-17T13:49:37Z</time>
      </trkpt>
      <trkpt lat="40.142483" lon="-5.264000">
        <ele>1882.0</ele>
        <time>2014-05-17T13:49:38Z</time>
      </trkpt>
      <trkpt lat="40.142467" lon="-5.264167">
        <ele>1882.0</ele>
        <time>2014-05-17T13:49:39Z</time>
      </trkpt>
      <trkpt lat="40.142467" lon="-5.264333">
        <ele>1882.0</ele>
        <time>2014-05-17T13:49:40Z</time>
      </trkpt>
      <trkpt lat="40.142450" lon="-5.264483">
        <ele>1883.0</ele>
        <time>2014-05-17T13:49:41Z</time>
      </trkpt>
      <trkpt lat="40.142450" lon="-5.264617">
        <ele>1884.0</ele>
        <time>2014-05-17T13:49:42Z</time>
      </trkpt>
      <trkpt lat="40.142450" lon="-5.264750">
        <ele>1885.0</ele>
        <time>2014-05-17T13:49:43Z</time>
      </trkpt>
      <trkpt lat="40.142450" lon="-5.264900">
        <ele>1885.0</ele>
        <time>2014-05-17T13:49:44Z</time>
      </trkpt>
      <trkpt lat="40.142450" lon="-5.265067">
        <ele>1884.0</ele>
        <time>2014-05-17T13:49:45Z</time>
      </trkpt>
      <trkpt lat="40.142433" lon="-5.265200">
        <ele>1883.0</ele>
        <time>2014-05-17T13:49:46Z</time>
      </trkpt>
      <trkpt lat="40.142417" lon="-5.265333">
        <ele>1884.0</ele>
        <time>2014-05-17T13:49:47Z</time>
      </trkpt>
      <trkpt lat="40.142417" lon="-5.265467">
        <ele>1883.0</ele>
        <time>2014-05-17T13:49:48Z</time>
      </trkpt>
      <trkpt lat="40.142400" lon="-5.265600">
        <ele>1882.0</ele>
        <time>2014-05-17T13:49:49Z</time>
      </trkpt>
      <trkpt lat="40.142383" lon="-5.265767">
        <ele>1879.0</ele>
        <time>2014-05-17T13:49:50Z</time>
      </trkpt>
      <trkpt lat="40.142383" lon="-5.265950">
        <ele>1876.0</ele>
        <time>2014-05-17T13:49:51Z</time>
      </trkpt>
      <trkpt lat="40.142367" lon="-5.266117">
        <ele>1873.0</ele>
        <time>2014-05-17T13:49:52Z</time>
      </trkpt>
      <trkpt lat="40.142350" lon="-5.266283">
        <ele>1872.0</ele>
        <time>2014-05-17T13:49:53Z</time>
      </trkpt>
      <trkpt lat="40.142333" lon="-5.266417">
        <ele>1872.0</ele>
        <time>2014-05-17T13:49:54Z</time>
      </trkpt>
      <trkpt lat="40.142317" lon="-5.266567">
        <ele>1871.0</ele>
        <time>2014-05-17T13:49:55Z</time>
      </trkpt>
      <trkpt lat="40.142283" lon="-5.266717">
        <ele>1870.0</ele>
        <time>2014-05-17T13:49:56Z</time>
      </trkpt>
      <trkpt lat="40.142267" lon="-5.266867">
        <ele>1869.0</ele>
        <time>2014-05-17T13:49:57Z</time>
      </trkpt>
      <trkpt lat="40.142233" lon="-5.267033">
        <ele>1867.0</ele>
        <time>2014-05-17T13:49:58Z</time>
      </trkpt>
      <trkpt lat="40.142183" lon="-5.267183">
        <ele>1866.0</ele>
        <time>2014-05-17T13:49:59Z</time>
      </trkpt>
      <trkpt lat="40.142150" lon="-5.267317">
        <ele>1865.0</ele>
        <time>2014-05-17T13:50:00Z</time>
      </trkpt>
      <trkpt lat="40.142100" lon="-5.267467">
        <ele>1865.0</ele>
        <time>2014-05-17T13:50:01Z</time>
      </trkpt>
      <trkpt lat="40.142067" lon="-5.267600">
        <ele>1864.0</ele>
        <time>2014-05-17T13:50:02Z</time>
      </trkpt>
      <trkpt lat="40.142017" lon="-5.267750">
        <ele>1862.0</ele>
        <time>2014-05-17T13:50:03Z</time>
      </trkpt>
      <trkpt lat="40.141983" lon="-5.267900">
        <ele>1861.0</ele>
        <time>2014-05-17T13:50:04Z</time>
      </trkpt>
      <trkpt lat="40.141950" lon="-5.268033">
        <ele>1861.0</ele>
        <time>2014-05-17T13:50:05Z</time>
      </trkpt>
      <trkpt lat="40.141900" lon="-5.268167">
        <ele>1861.0</ele>
        <time>2014-05-17T13:50:06Z</time>
      </trkpt>
      <trkpt lat="40.141867" lon="-5.268283">
        <ele>1861.0</ele>
        <time>2014-05-17T13:50:07Z</time>
      </trkpt>
      <trkpt lat="40.141800" lon="-5.268400">
        <ele>1860.0</ele>
        <time>2014-05-17T13:50:08Z</time>
      </trkpt>
      <trkpt lat="40.141767" lon="-5.268517">
        <ele>1860.0</ele>
        <time>2014-05-17T13:50:09Z</time>
      </trkpt>
      <trkpt lat="40.141717" lon="-5.268650">
        <ele>1860.0</ele>
        <time>2014-05-17T13:50:10Z</time>
      </trkpt>
      <trkpt lat="40.141683" lon="-5.268783">
        <ele>1860.0</ele>
        <time>2014-05-17T13:50:11Z</time>
      </trkpt>
      <trkpt lat="40.141650" lon="-5.268917">
        <ele>1859.0</ele>
        <time>2014-05-17T13:50:12Z</time>
      </trkpt>
      <trkpt lat="40.141617" lon="-5.269033">
        <ele>1859.0</ele>
        <time>2014-05-17T13:50:13Z</time>
      </trkpt>
      <trkpt lat="40.141583" lon="-5.269183">
        <ele>1859.0</ele>
        <time>2014-05-17T13:50:14Z</time>
      </trkpt>
      <trkpt lat="40.141550" lon="-5.269317">
        <ele>1859.0</ele>
        <time>2014-05-17T13:50:15Z</time>
      </trkpt>
      <trkpt lat="40.141517" lon="-5.269467">
        <ele>1857.0</ele>
        <time>2014-05-17T13:50:16Z</time>
      </trkpt>
      <trkpt lat="40.141500" lon="-5.269617">
        <ele>1856.0</ele>
        <time>2014-05-17T13:50:17Z</time>
      </trkpt>
      <trkpt lat="40.141467" lon="-5.269750">
        <ele>1856.0</ele>
        <time>2014-05-17T13:50:18Z</time>
      </trkpt>
      <trkpt lat="40.141433" lon="-5.269900">
        <ele>1855.0</ele>
        <time>2014-05-17T13:50:19Z</time>
      </trkpt>
      <trkpt lat="40.141400" lon="-5.270050">
        <ele>1854.0</ele>
        <time>2014-05-17T13:50:20Z</time>
      </trkpt>
      <trkpt lat="40.141367" lon="-5.270183">
        <ele>1853.0</ele>
        <time>2014-05-17T13:50:21Z</time>
      </trkpt>
      <trkpt lat="40.141333" lon="-5.270333">
        <ele>1853.0</ele>
        <time>2014-05-17T13:50:22Z</time>
      </trkpt>
      <trkpt lat="40.141300" lon="-5.270467">
        <ele>1852.0</ele>
        <time>2014-05-17T13:50:23Z</time>
      </trkpt>
      <trkpt lat="40.141267" lon="-5.270617">
        <ele>1851.0</ele>
        <time>2014-05-17T13:50:24Z</time>
      </trkpt>
      <trkpt lat="40.141233" lon="-5.270767">
        <ele>1849.0</ele>
        <time>2014-05-17T13:50:25Z</time>
      </trkpt>
      <trkpt lat="40.141200" lon="-5.270933">
        <ele>1847.0</ele>
        <time>2014-05-17T13:50:26Z</time>
      </trkpt>
      <trkpt lat="40.141167" lon="-5.271067">
        <ele>1845.0</ele>
        <time>2014-05-17T13:50:27Z</time>
      </trkpt>
      <trkpt lat="40.141117" lon="-5.271217">
        <ele>1844.0</ele>
        <time>2014-05-17T13:50:28Z</time>
      </trkpt>
      <trkpt lat="40.141083" lon="-5.271350">
        <ele>1843.0</ele>
        <time>2014-05-17T13:50:29Z</time>
      </trkpt>
      <trkpt lat="40.141050" lon="-5.271467">
        <ele>1840.0</ele>
        <time>2014-05-17T13:50:30Z</time>
      </trkpt>
      <trkpt lat="40.141017" lon="-5.271617">
        <ele>1837.0</ele>
        <time>2014-05-17T13:50:31Z</time>
      </trkpt>
      <trkpt lat="40.141000" lon="-5.271750">
        <ele>1833.0</ele>
        <time>2014-05-17T13:50:32Z</time>
      </trkpt>
      <trkpt lat="40.140983" lon="-5.271900">
        <ele>1829.0</ele>
        <time>2014-05-17T13:50:33Z</time>
      </trkpt>
      <trkpt lat="40.140967" lon="-5.272033">
        <ele>1827.0</ele>
        <time>2014-05-17T13:50:34Z</time>
      </trkpt>
      <trkpt lat="40.140950" lon="-5.272167">
        <ele>1824.0</ele>
        <time>2014-05-17T13:50:35Z</time>
      </trkpt>
      <trkpt lat="40.140933" lon="-5.272300">
        <ele>1821.0</ele>
        <time>2014-05-17T13:50:36Z</time>
      </trkpt>
      <trkpt lat="40.140917" lon="-5.272433">
        <ele>1818.0</ele>
        <time>2014-05-17T13:50:37Z</time>
      </trkpt>
      <trkpt lat="40.140883" lon="-5.272567">
        <ele>1815.0</ele>
        <time>2014-05-17T13:50:38Z</time>
      </trkpt>
      <trkpt lat="40.140867" lon="-5.272700">
        <ele>1813.0</ele>
        <time>2014-05-17T13:50:39Z</time>
      </trkpt>
      <trkpt lat="40.140850" lon="-5.272817">
        <ele>1813.0</ele>
        <time>2014-05-17T13:50:40Z</time>
      </trkpt>
      <trkpt lat="40.140833" lon="-5.272917">
        <ele>1813.0</ele>
        <time>2014-05-17T13:50:41Z</time>
      </trkpt>
      <trkpt lat="40.140817" lon="-5.273017">
        <ele>1813.0</ele>
        <time>2014-05-17T13:50:42Z</time>
      </trkpt>
      <trkpt lat="40.140800" lon="-5.273117">
        <ele>1812.0</ele>
        <time>2014-05-17T13:50:43Z</time>
      </trkpt>
      <trkpt lat="40.140783" lon="-5.273250">
        <ele>1810.0</ele>
        <time>2014-05-17T13:50:44Z</time>
      </trkpt>
      <trkpt lat="40.140767" lon="-5.273383">
        <ele>1808.0</ele>
        <time>2014-05-17T13:50:45Z</time>
      </trkpt>
      <trkpt lat="40.140733" lon="-5.273533">
        <ele>1807.0</ele>
        <time>2014-05-17T13:50:46Z</time>
      </trkpt>
      <trkpt lat="40.140700" lon="-5.273650">
        <ele>1806.0</ele>
        <time>2014-05-17T13:50:47Z</time>
      </trkpt>
      <trkpt lat="40.140667" lon="-5.273767">
        <ele>1807.0</ele>
        <time>2014-05-17T13:50:48Z</time>
      </trkpt>
      <trkpt lat="40.140633" lon="-5.273867">
        <ele>1807.0</ele>
        <time>2014-05-17T13:50:49Z</time>
      </trkpt>
      <trkpt lat="40.140600" lon="-5.273983">
        <ele>1807.0</ele>
        <time>2014-05-17T13:50:50Z</time>
      </trkpt>
      <trkpt lat="40.140567" lon="-5.274117">
        <ele>1805.0</ele>
        <time>2014-05-17T13:50:51Z</time>
      </trkpt>
      <trkpt lat="40.140550" lon="-5.274233">
        <ele>1804.0</ele>
        <time>2014-05-17T13:50:52Z</time>
      </trkpt>
      <trkpt lat="40.140517" lon="-5.274367">
        <ele>1803.0</ele>
        <time>2014-05-17T13:50:53Z</time>
      </trkpt>
      <trkpt lat="40.140500" lon="-5.274467">
        <ele>1802.0</ele>
        <time>2014-05-17T13:50:54Z</time>
      </trkpt>
      <trkpt lat="40.140467" lon="-5.274583">
        <ele>1802.0</ele>
        <time>2014-05-17T13:50:55Z</time>
      </trkpt>
      <trkpt lat="40.140433" lon="-5.274683">
        <ele>1801.0</ele>
        <time>2014-05-17T13:50:56Z</time>
      </trkpt>
      <trkpt lat="40.140400" lon="-5.274800">
        <ele>1800.0</ele>
        <time>2014-05-17T13:50:57Z</time>
      </trkpt>
      <trkpt lat="40.140383" lon="-5.274900">
        <ele>1799.0</ele>
        <time>2014-05-17T13:50:58Z</time>
      </trkpt>
      <trkpt lat="40.140350" lon="-5.275017">
        <ele>1798.0</ele>
        <time>2014-05-17T13:50:59Z</time>
      </trkpt>
      <trkpt lat="40.140333" lon="-5.275133">
        <ele>1796.0</ele>
        <time>2014-05-17T13:51:00Z</time>
      </trkpt>
      <trkpt lat="40.140300" lon="-5.275233">
        <ele>1795.0</ele>
        <time>2014-05-17T13:51:01Z</time>
      </trkpt>
      <trkpt lat="40.140283" lon="-5.275350">
        <ele>1793.0</ele>
        <time>2014-05-17T13:51:02Z</time>
      </trkpt>
      <trkpt lat="40.140250" lon="-5.275467">
        <ele>1791.0</ele>
        <time>2014-05-17T13:51:03Z</time>
      </trkpt>
      <trkpt lat="40.140217" lon="-5.275583">
        <ele>1789.0</ele>
        <time>2014-05-17T13:51:04Z</time>
      </trkpt>
      <trkpt lat="40.140183" lon="-5.275700">
        <ele>1787.0</ele>
        <time>2014-05-17T13:51:05Z</time>
      </trkpt>
      <trkpt lat="40.140150" lon="-5.275800">
        <ele>1785.0</ele>
        <time>2014-05-17T13:51:06Z</time>
      </trkpt>
      <trkpt lat="40.140117" lon="-5.275917">
        <ele>1784.0</ele>
        <time>2014-05-17T13:51:07Z</time>
      </trkpt>
      <trkpt lat="40.140083" lon="-5.276017">
        <ele>1783.0</ele>
        <time>2014-05-17T13:51:08Z</time>
      </trkpt>
      <trkpt lat="40.140067" lon="-5.276133">
        <ele>1781.0</ele>
        <time>2014-05-17T13:51:09Z</time>
      </trkpt>
      <trkpt lat="40.140033" lon="-5.276233">
        <ele>1779.0</ele>
        <time>2014-05-17T13:51:10Z</time>
      </trkpt>
      <trkpt lat="40.140017" lon="-5.276367">
        <ele>1777.0</ele>
        <time>2014-05-17T13:51:11Z</time>
      </trkpt>
      <trkpt lat="40.139983" lon="-5.276500">
        <ele>1775.0</ele>
        <time>2014-05-17T13:51:12Z</time>
      </trkpt>
      <trkpt lat="40.139950" lon="-5.276617">
        <ele>1774.0</ele>
        <time>2014-05-17T13:51:13Z</time>
      </trkpt>
      <trkpt lat="40.139917" lon="-5.276733">
        <ele>1773.0</ele>
        <time>2014-05-17T13:51:14Z</time>
      </trkpt>
      <trkpt lat="40.139883" lon="-5.276833">
        <ele>1771.0</ele>
        <time>2014-05-17T13:51:15Z</time>
      </trkpt>
      <trkpt lat="40.139833" lon="-5.276950">
        <ele>1770.0</ele>
        <time>2014-05-17T13:51:16Z</time>
      </trkpt>
      <trkpt lat="40.139817" lon="-5.277067">
        <ele>1768.0</ele>
        <time>2014-05-17T13:51:17Z</time>
      </trkpt>
      <trkpt lat="40.139783" lon="-5.277183">
        <ele>1765.0</ele>
        <time>2014-05-17T13:51:18Z</time>
      </trkpt>
      <trkpt lat="40.139750" lon="-5.277317">
        <ele>1763.0</ele>
        <time>2014-05-17T13:51:19Z</time>
      </trkpt>
      <trkpt lat="40.139717" lon="-5.277450">
        <ele>1760.0</ele>
        <time>2014-05-17T13:51:20Z</time>
      </trkpt>
      <trkpt lat="40.139683" lon="-5.277567">
        <ele>1759.0</ele>
        <time>2014-05-17T13:51:21Z</time>
      </trkpt>
      <trkpt lat="40.139650" lon="-5.277683">
        <ele>1757.0</ele>
        <time>2014-05-17T13:51:22Z</time>
      </trkpt>
      <trkpt lat="40.139617" lon="-5.277800">
        <ele>1756.0</ele>
        <time>2014-05-17T13:51:23Z</time>
      </trkpt>
      <trkpt lat="40.139583" lon="-5.277917">
        <ele>1754.0</ele>
        <time>2014-05-17T13:51:24Z</time>
      </trkpt>
      <trkpt lat="40.139533" lon="-5.278050">
        <ele>1752.0</ele>
        <time>2014-05-17T13:51:25Z</time>
      </trkpt>
      <trkpt lat="40.139483" lon="-5.278167">
        <ele>1750.0</ele>
        <time>2014-05-17T13:51:26Z</time>
      </trkpt>
      <trkpt lat="40.139433" lon="-5.278283">
        <ele>1748.0</ele>
        <time>2014-05-17T13:51:27Z</time>
      </trkpt>
      <trkpt lat="40.139367" lon="-5.278383">
        <ele>1747.0</ele>
        <time>2014-05-17T13:51:28Z</time>
      </trkpt>
      <trkpt lat="40.139300" lon="-5.278483">
        <ele>1746.0</ele>
        <time>2014-05-17T13:51:29Z</time>
      </trkpt>
      <trkpt lat="40.139250" lon="-5.278583">
        <ele>1744.0</ele>
        <time>2014-05-17T13:51:30Z</time>
      </trkpt>
      <trkpt lat="40.139183" lon="-5.278683">
        <ele>1743.0</ele>
        <time>2014-05-17T13:51:31Z</time>
      </trkpt>
      <trkpt lat="40.139133" lon="-5.278800">
        <ele>1741.0</ele>
        <time>2014-05-17T13:51:32Z</time>
      </trkpt>
      <trkpt lat="40.139033" lon="-5.279017">
        <ele>1738.0</ele>
        <time>2014-05-17T13:51:34Z</time>
      </trkpt>
      <trkpt lat="40.139000" lon="-5.279150">
        <ele>1736.0</ele>
        <time>2014-05-17T13:51:35Z</time>
      </trkpt>
      <trkpt lat="40.138967" lon="-5.279283">
        <ele>1735.0</ele>
        <time>2014-05-17T13:51:36Z</time>
      </trkpt>
      <trkpt lat="40.138917" lon="-5.279417">
        <ele>1733.0</ele>
        <time>2014-05-17T13:51:37Z</time>
      </trkpt>
      <trkpt lat="40.138867" lon="-5.279533">
        <ele>1732.0</ele>
        <time>2014-05-17T13:51:38Z</time>
      </trkpt>
      <trkpt lat="40.138817" lon="-5.279650">
        <ele>1730.0</ele>
        <time>2014-05-17T13:51:39Z</time>
      </trkpt>
      <trkpt lat="40.138767" lon="-5.279750">
        <ele>1729.0</ele>
        <time>2014-05-17T13:51:40Z</time>
      </trkpt>
      <trkpt lat="40.138700" lon="-5.279850">
        <ele>1728.0</ele>
        <time>2014-05-17T13:51:41Z</time>
      </trkpt>
      <trkpt lat="40.138667" lon="-5.279950">
        <ele>1727.0</ele>
        <time>2014-05-17T13:51:42Z</time>
      </trkpt>
      <trkpt lat="40.138617" lon="-5.280067">
        <ele>1725.0</ele>
        <time>2014-05-17T13:51:43Z</time>
      </trkpt>
      <trkpt lat="40.138567" lon="-5.280183">
        <ele>1723.0</ele>
        <time>2014-05-17T13:51:44Z</time>
      </trkpt>
      <trkpt lat="40.138500" lon="-5.280317">
        <ele>1721.0</ele>
        <time>2014-05-17T13:51:45Z</time>
      </trkpt>
      <trkpt lat="40.138450" lon="-5.280433">
        <ele>1720.0</ele>
        <time>2014-05-17T13:51:46Z</time>
      </trkpt>
      <trkpt lat="40.138400" lon="-5.280567">
        <ele>1718.0</ele>
        <time>2014-05-17T13:51:47Z</time>
      </trkpt>
      <trkpt lat="40.138367" lon="-5.280683">
        <ele>1717.0</ele>
        <time>2014-05-17T13:51:48Z</time>
      </trkpt>
      <trkpt lat="40.138350" lon="-5.280800">
        <ele>1718.0</ele>
        <time>2014-05-17T13:51:49Z</time>
      </trkpt>
      <trkpt lat="40.138317" lon="-5.280900">
        <ele>1718.0</ele>
        <time>2014-05-17T13:51:50Z</time>
      </trkpt>
      <trkpt lat="40.138267" lon="-5.281000">
        <ele>1717.0</ele>
        <time>2014-05-17T13:51:51Z</time>
      </trkpt>
      <trkpt lat="40.138217" lon="-5.281117">
        <ele>1715.0</ele>
        <time>2014-05-17T13:51:52Z</time>
      </trkpt>
      <trkpt lat="40.138167" lon="-5.281233">
        <ele>1713.0</ele>
        <time>2014-05-17T13:51:53Z</time>
      </trkpt>
      <trkpt lat="40.138117" lon="-5.281350">
        <ele>1711.0</ele>
        <time>2014-05-17T13:51:54Z</time>
      </trkpt>
      <trkpt lat="40.138067" lon="-5.281467">
        <ele>1710.0</ele>
        <time>2014-05-17T13:51:55Z</time>
      </trkpt>
      <trkpt lat="40.138033" lon="-5.281583">
        <ele>1709.0</ele>
        <time>2014-05-17T13:51:56Z</time>
      </trkpt>
      <trkpt lat="40.138000" lon="-5.281700">
        <ele>1709.0</ele>
        <time>2014-05-17T13:51:57Z</time>
      </trkpt>
      <trkpt lat="40.137967" lon="-5.281817">
        <ele>1707.0</ele>
        <time>2014-05-17T13:51:58Z</time>
      </trkpt>
      <trkpt lat="40.137933" lon="-5.281933">
        <ele>1706.0</ele>
        <time>2014-05-17T13:51:59Z</time>
      </trkpt>
      <trkpt lat="40.137883" lon="-5.282050">
        <ele>1704.0</ele>
        <time>2014-05-17T13:52:00Z</time>
      </trkpt>
      <trkpt lat="40.137850" lon="-5.282167">
        <ele>1702.0</ele>
        <time>2014-05-17T13:52:01Z</time>
      </trkpt>
      <trkpt lat="40.137817" lon="-5.282283">
        <ele>1700.0</ele>
        <time>2014-05-17T13:52:02Z</time>
      </trkpt>
      <trkpt lat="40.137783" lon="-5.282383">
        <ele>1697.0</ele>
        <time>2014-05-17T13:52:03Z</time>
      </trkpt>
      <trkpt lat="40.137733" lon="-5.282500">
        <ele>1695.0</ele>
        <time>2014-05-17T13:52:04Z</time>
      </trkpt>
      <trkpt lat="40.137683" lon="-5.282617">
        <ele>1693.0</ele>
        <time>2014-05-17T13:52:05Z</time>
      </trkpt>
      <trkpt lat="40.137650" lon="-5.282733">
        <ele>1691.0</ele>
        <time>2014-05-17T13:52:06Z</time>
      </trkpt>
      <trkpt lat="40.137600" lon="-5.282833">
        <ele>1689.0</ele>
        <time>2014-05-17T13:52:07Z</time>
      </trkpt>
      <trkpt lat="40.137533" lon="-5.282933">
        <ele>1687.0</ele>
        <time>2014-05-17T13:52:08Z</time>
      </trkpt>
      <trkpt lat="40.137483" lon="-5.283017">
        <ele>1685.0</ele>
        <time>2014-05-17T13:52:09Z</time>
      </trkpt>
      <trkpt lat="40.137417" lon="-5.283117">
        <ele>1682.0</ele>
        <time>2014-05-17T13:52:10Z</time>
      </trkpt>
      <trkpt lat="40.137350" lon="-5.283233">
        <ele>1679.0</ele>
        <time>2014-05-17T13:52:11Z</time>
      </trkpt>
      <trkpt lat="40.137283" lon="-5.283333">
        <ele>1677.0</ele>
        <time>2014-05-17T13:52:12Z</time>
      </trkpt>
      <trkpt lat="40.137233" lon="-5.283450">
        <ele>1675.0</ele>
        <time>2014-05-17T13:52:13Z</time>
      </trkpt>
      <trkpt lat="40.137183" lon="-5.283550">
        <ele>1673.0</ele>
        <time>2014-05-17T13:52:14Z</time>
      </trkpt>
      <trkpt lat="40.137133" lon="-5.283667">
        <ele>1672.0</ele>
        <time>2014-05-17T13:52:15Z</time>
      </trkpt>
      <trkpt lat="40.137083" lon="-5.283767">
        <ele>1670.0</ele>
        <time>2014-05-17T13:52:16Z</time>
      </trkpt>
      <trkpt lat="40.137033" lon="-5.283883">
        <ele>1668.0</ele>
        <time>2014-05-17T13:52:17Z</time>
      </trkpt>
      <trkpt lat="40.136983" lon="-5.284000">
        <ele>1666.0</ele>
        <time>2014-05-17T13:52:18Z</time>
      </trkpt>
      <trkpt lat="40.136933" lon="-5.284133">
        <ele>1664.0</ele>
        <time>2014-05-17T13:52:19Z</time>
      </trkpt>
      <trkpt lat="40.136900" lon="-5.284250">
        <ele>1662.0</ele>
        <time>2014-05-17T13:52:20Z</time>
      </trkpt>
      <trkpt lat="40.136850" lon="-5.284383">
        <ele>1660.0</ele>
        <time>2014-05-17T13:52:21Z</time>
      </trkpt>
      <trkpt lat="40.136817" lon="-5.284500">
        <ele>1658.0</ele>
        <time>2014-05-17T13:52:22Z</time>
      </trkpt>
      <trkpt lat="40.136767" lon="-5.284617">
        <ele>1657.0</ele>
        <time>2014-05-17T13:52:23Z</time>
      </trkpt>
      <trkpt lat="40.136717" lon="-5.284750">
        <ele>1654.0</ele>
        <time>2014-05-17T13:52:24Z</time>
      </trkpt>
      <trkpt lat="40.136667" lon="-5.284867">
        <ele>1651.0</ele>
        <time>2014-05-17T13:52:25Z</time>
      </trkpt>
      <trkpt lat="40.136633" lon="-5.285000">
        <ele>1649.0</ele>
        <time>2014-05-17T13:52:26Z</time>
      </trkpt>
      <trkpt lat="40.136600" lon="-5.285117">
        <ele>1646.0</ele>
        <time>2014-05-17T13:52:27Z</time>
      </trkpt>
      <trkpt lat="40.136550" lon="-5.285250">
        <ele>1643.0</ele>
        <time>2014-05-17T13:52:28Z</time>
      </trkpt>
      <trkpt lat="40.136517" lon="-5.285367">
        <ele>1641.0</ele>
        <time>2014-05-17T13:52:29Z</time>
      </trkpt>
      <trkpt lat="40.136467" lon="-5.285483">
        <ele>1638.0</ele>
        <time>2014-05-17T13:52:30Z</time>
      </trkpt>
      <trkpt lat="40.136417" lon="-5.285600">
        <ele>1636.0</ele>
        <time>2014-05-17T13:52:31Z</time>
      </trkpt>
      <trkpt lat="40.136383" lon="-5.285717">
        <ele>1633.0</ele>
        <time>2014-05-17T13:52:32Z</time>
      </trkpt>
      <trkpt lat="40.136350" lon="-5.285833">
        <ele>1631.0</ele>
        <time>2014-05-17T13:52:33Z</time>
      </trkpt>
      <trkpt lat="40.136300" lon="-5.285950">
        <ele>1628.0</ele>
        <time>2014-05-17T13:52:34Z</time>
      </trkpt>
      <trkpt lat="40.136267" lon="-5.286067">
        <ele>1626.0</ele>
        <time>2014-05-17T13:52:35Z</time>
      </trkpt>
      <trkpt lat="40.136217" lon="-5.286183">
        <ele>1624.0</ele>
        <time>2014-05-17T13:52:36Z</time>
      </trkpt>
      <trkpt lat="40.136183" lon="-5.286283">
        <ele>1621.0</ele>
        <time>2014-05-17T13:52:37Z</time>
      </trkpt>
      <trkpt lat="40.136133" lon="-5.286400">
        <ele>1619.0</ele>
        <time>2014-05-17T13:52:38Z</time>
      </trkpt>
      <trkpt lat="40.136083" lon="-5.286500">
        <ele>1616.0</ele>
        <time>2014-05-17T13:52:39Z</time>
      </trkpt>
      <trkpt lat="40.136033" lon="-5.286600">
        <ele>1614.0</ele>
        <time>2014-05-17T13:52:40Z</time>
      </trkpt>
      <trkpt lat="40.135967" lon="-5.286717">
        <ele>1611.0</ele>
        <time>2014-05-17T13:52:41Z</time>
      </trkpt>
      <trkpt lat="40.135917" lon="-5.286817">
        <ele>1609.0</ele>
        <time>2014-05-17T13:52:42Z</time>
      </trkpt>
      <trkpt lat="40.135883" lon="-5.286917">
        <ele>1607.0</ele>
        <time>2014-05-17T13:52:43Z</time>
      </trkpt>
      <trkpt lat="40.135783" lon="-5.287133">
        <ele>1603.0</ele>
        <time>2014-05-17T13:52:45Z</time>
      </trkpt>
      <trkpt lat="40.135733" lon="-5.287233">
        <ele>1601.0</ele>
        <time>2014-05-17T13:52:46Z</time>
      </trkpt>
      <trkpt lat="40.135683" lon="-5.287333">
        <ele>1599.0</ele>
        <time>2014-05-17T13:52:47Z</time>
      </trkpt>
      <trkpt lat="40.135633" lon="-5.287450">
        <ele>1597.0</ele>
        <time>2014-05-17T13:52:48Z</time>
      </trkpt>
      <trkpt lat="40.135583" lon="-5.287550">
        <ele>1596.0</ele>
        <time>2014-05-17T13:52:49Z</time>
      </trkpt>
      <trkpt lat="40.135533" lon="-5.287633">
        <ele>1595.0</ele>
        <time>2014-05-17T13:52:50Z</time>
      </trkpt>
      <trkpt lat="40.135483" lon="-5.287717">
        <ele>1594.0</ele>
        <time>2014-05-17T13:52:51Z</time>
      </trkpt>
      <trkpt lat="40.135433" lon="-5.287817">
        <ele>1592.0</ele>
        <time>2014-05-17T13:52:52Z</time>
      </trkpt>
      <trkpt lat="40.135383" lon="-5.287900">
        <ele>1590.0</ele>
        <time>2014-05-17T13:52:53Z</time>
      </trkpt>
      <trkpt lat="40.135333" lon="-5.288000">
        <ele>1588.0</ele>
        <time>2014-05-17T13:52:54Z</time>
      </trkpt>
      <trkpt lat="40.135283" lon="-5.288100">
        <ele>1586.0</ele>
        <time>2014-05-17T13:52:55Z</time>
      </trkpt>
      <trkpt lat="40.135233" lon="-5.288200">
        <ele>1585.0</ele>
        <time>2014-05-17T13:52:56Z</time>
      </trkpt>
      <trkpt lat="40.135183" lon="-5.288300">
        <ele>1584.0</ele>
        <time>2014-05-17T13:52:57Z</time>
      </trkpt>
      <trkpt lat="40.135117" lon="-5.288400">
        <ele>1581.0</ele>
        <time>2014-05-17T13:52:58Z</time>
      </trkpt>
      <trkpt lat="40.135050" lon="-5.288500">
        <ele>1578.0</ele>
        <time>2014-05-17T13:52:59Z</time>
      </trkpt>
      <trkpt lat="40.135000" lon="-5.288617">
        <ele>1576.0</ele>
        <time>2014-05-17T13:53:00Z</time>
      </trkpt>
      <trkpt lat="40.134950" lon="-5.288733">
        <ele>1574.0</ele>
        <time>2014-05-17T13:53:01Z</time>
      </trkpt>
      <trkpt lat="40.134900" lon="-5.288850">
        <ele>1573.0</ele>
        <time>2014-05-17T13:53:02Z</time>
      </trkpt>
      <trkpt lat="40.134850" lon="-5.288967">
        <ele>1572.0</ele>
        <time>2014-05-17T13:53:03Z</time>
      </trkpt>
      <trkpt lat="40.134800" lon="-5.289083">
        <ele>1571.0</ele>
        <time>2014-05-17T13:53:04Z</time>
      </trkpt>
      <trkpt lat="40.134750" lon="-5.289200">
        <ele>1570.0</ele>
        <time>2014-05-17T13:53:05Z</time>
      </trkpt>
      <trkpt lat="40.134717" lon="-5.289317">
        <ele>1568.0</ele>
        <time>2014-05-17T13:53:06Z</time>
      </trkpt>
      <trkpt lat="40.134683" lon="-5.289433">
        <ele>1567.0</ele>
        <time>2014-05-17T13:53:07Z</time>
      </trkpt>
      <trkpt lat="40.134633" lon="-5.289550">
        <ele>1565.0</ele>
        <time>2014-05-17T13:53:08Z</time>
      </trkpt>
      <trkpt lat="40.134600" lon="-5.289667">
        <ele>1564.0</ele>
        <time>2014-05-17T13:53:09Z</time>
      </trkpt>
      <trkpt lat="40.134567" lon="-5.289783">
        <ele>1562.0</ele>
        <time>2014-05-17T13:53:10Z</time>
      </trkpt>
      <trkpt lat="40.134533" lon="-5.289900">
        <ele>1561.0</ele>
        <time>2014-05-17T13:53:11Z</time>
      </trkpt>
      <trkpt lat="40.134500" lon="-5.290017">
        <ele>1560.0</ele>
        <time>2014-05-17T13:53:12Z</time>
      </trkpt>
      <trkpt lat="40.134467" lon="-5.290133">
        <ele>1559.0</ele>
        <time>2014-05-17T13:53:13Z</time>
      </trkpt>
      <trkpt lat="40.134433" lon="-5.290250">
        <ele>1558.0</ele>
        <time>2014-05-17T13:53:14Z</time>
      </trkpt>
      <trkpt lat="40.134400" lon="-5.290367">
        <ele>1556.0</ele>
        <time>2014-05-17T13:53:15Z</time>
      </trkpt>
      <trkpt lat="40.134367" lon="-5.290483">
        <ele>1554.0</ele>
        <time>2014-05-17T13:53:16Z</time>
      </trkpt>
      <trkpt lat="40.134333" lon="-5.290600">
        <ele>1552.0</ele>
        <time>2014-05-17T13:53:17Z</time>
      </trkpt>
      <trkpt lat="40.134283" lon="-5.290717">
        <ele>1550.0</ele>
        <time>2014-05-17T13:53:18Z</time>
      </trkpt>
      <trkpt lat="40.134250" lon="-5.290833">
        <ele>1548.0</ele>
        <time>2014-05-17T13:53:19Z</time>
      </trkpt>
      <trkpt lat="40.134217" lon="-5.290950">
        <ele>1546.0</ele>
        <time>2014-05-17T13:53:20Z</time>
      </trkpt>
      <trkpt lat="40.134183" lon="-5.291050">
        <ele>1544.0</ele>
        <time>2014-05-17T13:53:21Z</time>
      </trkpt>
      <trkpt lat="40.134167" lon="-5.291150">
        <ele>1543.0</ele>
        <time>2014-05-17T13:53:22Z</time>
      </trkpt>
      <trkpt lat="40.134150" lon="-5.291267">
        <ele>1540.0</ele>
        <time>2014-05-17T13:53:23Z</time>
      </trkpt>
      <trkpt lat="40.134117" lon="-5.291383">
        <ele>1538.0</ele>
        <time>2014-05-17T13:53:24Z</time>
      </trkpt>
      <trkpt lat="40.134083" lon="-5.291500">
        <ele>1536.0</ele>
        <time>2014-05-17T13:53:25Z</time>
      </trkpt>
      <trkpt lat="40.134067" lon="-5.291583">
        <ele>1534.0</ele>
        <time>2014-05-17T13:53:26Z</time>
      </trkpt>
      <trkpt lat="40.134050" lon="-5.291683">
        <ele>1532.0</ele>
        <time>2014-05-17T13:53:27Z</time>
      </trkpt>
      <trkpt lat="40.134033" lon="-5.291800">
        <ele>1529.0</ele>
        <time>2014-05-17T13:53:28Z</time>
      </trkpt>
      <trkpt lat="40.134017" lon="-5.291917">
        <ele>1527.0</ele>
        <time>2014-05-17T13:53:29Z</time>
      </trkpt>
      <trkpt lat="40.134000" lon="-5.292033">
        <ele>1525.0</ele>
        <time>2014-05-17T13:53:30Z</time>
      </trkpt>
      <trkpt lat="40.133983" lon="-5.292167">
        <ele>1523.0</ele>
        <time>2014-05-17T13:53:31Z</time>
      </trkpt>
      <trkpt lat="40.133967" lon="-5.292283">
        <ele>1522.0</ele>
        <time>2014-05-17T13:53:32Z</time>
      </trkpt>
      <trkpt lat="40.133967" lon="-5.292400">
        <ele>1521.0</ele>
        <time>2014-05-17T13:53:33Z</time>
      </trkpt>
      <trkpt lat="40.133967" lon="-5.292517">
        <ele>1519.0</ele>
        <time>2014-05-17T13:53:34Z</time>
      </trkpt>
      <trkpt lat="40.133967" lon="-5.292633">
        <ele>1518.0</ele>
        <time>2014-05-17T13:53:35Z</time>
      </trkpt>
      <trkpt lat="40.133967" lon="-5.292750">
        <ele>1516.0</ele>
        <time>2014-05-17T13:53:36Z</time>
      </trkpt>
      <trkpt lat="40.133950" lon="-5.292867">
        <ele>1513.0</ele>
        <time>2014-05-17T13:53:37Z</time>
      </trkpt>
      <trkpt lat="40.133950" lon="-5.292983">
        <ele>1511.0</ele>
        <time>2014-05-17T13:53:38Z</time>
      </trkpt>
      <trkpt lat="40.133933" lon="-5.293100">
        <ele>1509.0</ele>
        <time>2014-05-17T13:53:39Z</time>
      </trkpt>
      <trkpt lat="40.133917" lon="-5.293217">
        <ele>1507.0</ele>
        <time>2014-05-17T13:53:40Z</time>
      </trkpt>
      <trkpt lat="40.133900" lon="-5.293333">
        <ele>1504.0</ele>
        <time>2014-05-17T13:53:41Z</time>
      </trkpt>
      <trkpt lat="40.133883" lon="-5.293467">
        <ele>1501.0</ele>
        <time>2014-05-17T13:53:42Z</time>
      </trkpt>
      <trkpt lat="40.133883" lon="-5.293583">
        <ele>1499.0</ele>
        <time>2014-05-17T13:53:43Z</time>
      </trkpt>
      <trkpt lat="40.133883" lon="-5.293700">
        <ele>1496.0</ele>
        <time>2014-05-17T13:53:44Z</time>
      </trkpt>
      <trkpt lat="40.133883" lon="-5.293817">
        <ele>1494.0</ele>
        <time>2014-05-17T13:53:45Z</time>
      </trkpt>
      <trkpt lat="40.133883" lon="-5.293933">
        <ele>1491.0</ele>
        <time>2014-05-17T13:53:46Z</time>
      </trkpt>
      <trkpt lat="40.133883" lon="-5.294050">
        <ele>1488.0</ele>
        <time>2014-05-17T13:53:47Z</time>
      </trkpt>
      <trkpt lat="40.133867" lon="-5.294183">
        <ele>1485.0</ele>
        <time>2014-05-17T13:53:48Z</time>
      </trkpt>
      <trkpt lat="40.133867" lon="-5.294300">
        <ele>1482.0</ele>
        <time>2014-05-17T13:53:49Z</time>
      </trkpt>
      <trkpt lat="40.133867" lon="-5.294433">
        <ele>1480.0</ele>
        <time>2014-05-17T13:53:50Z</time>
      </trkpt>
      <trkpt lat="40.133867" lon="-5.294550">
        <ele>1477.0</ele>
        <time>2014-05-17T13:53:51Z</time>
      </trkpt>
      <trkpt lat="40.133883" lon="-5.294683">
        <ele>1474.0</ele>
        <time>2014-05-17T13:53:52Z</time>
      </trkpt>
      <trkpt lat="40.133883" lon="-5.294817">
        <ele>1471.0</ele>
        <time>2014-05-17T13:53:53Z</time>
      </trkpt>
      <trkpt lat="40.133867" lon="-5.294950">
        <ele>1468.0</ele>
        <time>2014-05-17T13:53:54Z</time>
      </trkpt>
      <trkpt lat="40.133867" lon="-5.295083">
        <ele>1465.0</ele>
        <time>2014-05-17T13:53:55Z</time>
      </trkpt>
      <trkpt lat="40.133850" lon="-5.295200">
        <ele>1463.0</ele>
        <time>2014-05-17T13:53:56Z</time>
      </trkpt>
      <trkpt lat="40.133850" lon="-5.295333">
        <ele>1460.0</ele>
        <time>2014-05-17T13:53:57Z</time>
      </trkpt>
      <trkpt lat="40.133833" lon="-5.295467">
        <ele>1457.0</ele>
        <time>2014-05-17T13:53:58Z</time>
      </trkpt>
      <trkpt lat="40.133817" lon="-5.295583">
        <ele>1455.0</ele>
        <time>2014-05-17T13:53:59Z</time>
      </trkpt>
      <trkpt lat="40.133817" lon="-5.295717">
        <ele>1452.0</ele>
        <time>2014-05-17T13:54:00Z</time>
      </trkpt>
      <trkpt lat="40.133800" lon="-5.295833">
        <ele>1449.0</ele>
        <time>2014-05-17T13:54:01Z</time>
      </trkpt>
      <trkpt lat="40.133783" lon="-5.295967">
        <ele>1445.0</ele>
        <time>2014-05-17T13:54:02Z</time>
      </trkpt>
      <trkpt lat="40.133767" lon="-5.296100">
        <ele>1441.0</ele>
        <time>2014-05-17T13:54:03Z</time>
      </trkpt>
      <trkpt lat="40.133750" lon="-5.296233">
        <ele>1438.0</ele>
        <time>2014-05-17T13:54:04Z</time>
      </trkpt>
      <trkpt lat="40.133733" lon="-5.296367">
        <ele>1435.0</ele>
        <time>2014-05-17T13:54:05Z</time>
      </trkpt>
      <trkpt lat="40.133700" lon="-5.296500">
        <ele>1432.0</ele>
        <time>2014-05-17T13:54:06Z</time>
      </trkpt>
      <trkpt lat="40.133667" lon="-5.296617">
        <ele>1430.0</ele>
        <time>2014-05-17T13:54:07Z</time>
      </trkpt>
      <trkpt lat="40.133633" lon="-5.296750">
        <ele>1427.0</ele>
        <time>2014-05-17T13:54:08Z</time>
      </trkpt>
      <trkpt lat="40.133600" lon="-5.296867">
        <ele>1424.0</ele>
        <time>2014-05-17T13:54:09Z</time>
      </trkpt>
      <trkpt lat="40.133567" lon="-5.297000">
        <ele>1420.0</ele>
        <time>2014-05-17T13:54:10Z</time>
      </trkpt>
      <trkpt lat="40.133533" lon="-5.297150">
        <ele>1417.0</ele>
        <time>2014-05-17T13:54:11Z</time>
      </trkpt>
      <trkpt lat="40.133500" lon="-5.297283">
        <ele>1414.0</ele>
        <time>2014-05-17T13:54:12Z</time>
      </trkpt>
      <trkpt lat="40.133467" lon="-5.297417">
        <ele>1411.0</ele>
        <time>2014-05-17T13:54:13Z</time>
      </trkpt>
      <trkpt lat="40.133450" lon="-5.297550">
        <ele>1409.0</ele>
        <time>2014-05-17T13:54:14Z</time>
      </trkpt>
      <trkpt lat="40.133417" lon="-5.297667">
        <ele>1406.0</ele>
        <time>2014-05-17T13:54:15Z</time>
      </trkpt>
      <trkpt lat="40.133383" lon="-5.297800">
        <ele>1402.0</ele>
        <time>2014-05-17T13:54:16Z</time>
      </trkpt>
      <trkpt lat="40.133333" lon="-5.297950">
        <ele>1399.0</ele>
        <time>2014-05-17T13:54:17Z</time>
      </trkpt>
      <trkpt lat="40.133300" lon="-5.298083">
        <ele>1395.0</ele>
        <time>2014-05-17T13:54:18Z</time>
      </trkpt>
      <trkpt lat="40.133250" lon="-5.298200">
        <ele>1392.0</ele>
        <time>2014-05-17T13:54:19Z</time>
      </trkpt>
      <trkpt lat="40.133233" lon="-5.298333">
        <ele>1389.0</ele>
        <time>2014-05-17T13:54:20Z</time>
      </trkpt>
      <trkpt lat="40.133200" lon="-5.298467">
        <ele>1386.0</ele>
        <time>2014-05-17T13:54:21Z</time>
      </trkpt>
      <trkpt lat="40.133167" lon="-5.298617">
        <ele>1383.0</ele>
        <time>2014-05-17T13:54:22Z</time>
      </trkpt>
      <trkpt lat="40.133117" lon="-5.298750">
        <ele>1379.0</ele>
        <time>2014-05-17T13:54:23Z</time>
      </trkpt>
      <trkpt lat="40.133083" lon="-5.298900">
        <ele>1376.0</ele>
        <time>2014-05-17T13:54:24Z</time>
      </trkpt>
      <trkpt lat="40.133033" lon="-5.299033">
        <ele>1373.0</ele>
        <time>2014-05-17T13:54:25Z</time>
      </trkpt>
      <trkpt lat="40.132983" lon="-5.299150">
        <ele>1371.0</ele>
        <time>2014-05-17T13:54:26Z</time>
      </trkpt>
      <trkpt lat="40.132950" lon="-5.299283">
        <ele>1368.0</ele>
        <time>2014-05-17T13:54:27Z</time>
      </trkpt>
      <trkpt lat="40.132900" lon="-5.299417">
        <ele>1365.0</ele>
        <time>2014-05-17T13:54:28Z</time>
      </trkpt>
      <trkpt lat="40.132867" lon="-5.299550">
        <ele>1363.0</ele>
        <time>2014-05-17T13:54:29Z</time>
      </trkpt>
      <trkpt lat="40.132817" lon="-5.299683">
        <ele>1360.0</ele>
        <time>2014-05-17T13:54:30Z</time>
      </trkpt>
      <trkpt lat="40.132783" lon="-5.299817">
        <ele>1358.0</ele>
        <time>2014-05-17T13:54:31Z</time>
      </trkpt>
      <trkpt lat="40.132733" lon="-5.299933">
        <ele>1355.0</ele>
        <time>2014-05-17T13:54:32Z</time>
      </trkpt>
      <trkpt lat="40.132700" lon="-5.300033">
        <ele>1353.0</ele>
        <time>2014-05-17T13:54:33Z</time>
      </trkpt>
      <trkpt lat="40.132650" lon="-5.300167">
        <ele>1349.0</ele>
        <time>2014-05-17T13:54:34Z</time>
      </trkpt>
      <trkpt lat="40.132600" lon="-5.300300">
        <ele>1346.0</ele>
        <time>2014-05-17T13:54:35Z</time>
      </trkpt>
      <trkpt lat="40.132533" lon="-5.300433">
        <ele>1342.0</ele>
        <time>2014-05-17T13:54:36Z</time>
      </trkpt>
      <trkpt lat="40.132483" lon="-5.300550">
        <ele>1339.0</ele>
        <time>2014-05-17T13:54:37Z</time>
      </trkpt>
      <trkpt lat="40.132450" lon="-5.300683">
        <ele>1337.0</ele>
        <time>2014-05-17T13:54:38Z</time>
      </trkpt>
      <trkpt lat="40.132400" lon="-5.300800">
        <ele>1335.0</ele>
        <time>2014-05-17T13:54:39Z</time>
      </trkpt>
      <trkpt lat="40.132350" lon="-5.300933">
        <ele>1333.0</ele>
        <time>2014-05-17T13:54:40Z</time>
      </trkpt>
      <trkpt lat="40.132300" lon="-5.301067">
        <ele>1330.0</ele>
        <time>2014-05-17T13:54:41Z</time>
      </trkpt>
      <trkpt lat="40.132267" lon="-5.301200">
        <ele>1328.0</ele>
        <time>2014-05-17T13:54:42Z</time>
      </trkpt>
      <trkpt lat="40.132233" lon="-5.301333">
        <ele>1327.0</ele>
        <time>2014-05-17T13:54:43Z</time>
      </trkpt>
      <trkpt lat="40.132200" lon="-5.301467">
        <ele>1325.0</ele>
        <time>2014-05-17T13:54:44Z</time>
      </trkpt>
      <trkpt lat="40.132183" lon="-5.301583">
        <ele>1324.0</ele>
        <time>2014-05-17T13:54:45Z</time>
      </trkpt>
      <trkpt lat="40.132150" lon="-5.301717">
        <ele>1322.0</ele>
        <time>2014-05-17T13:54:46Z</time>
      </trkpt>
      <trkpt lat="40.132133" lon="-5.301850">
        <ele>1321.0</ele>
        <time>2014-05-17T13:54:47Z</time>
      </trkpt>
      <trkpt lat="40.132100" lon="-5.301983">
        <ele>1320.0</ele>
        <time>2014-05-17T13:54:48Z</time>
      </trkpt>
      <trkpt lat="40.132067" lon="-5.302100">
        <ele>1320.0</ele>
        <time>2014-05-17T13:54:49Z</time>
      </trkpt>
      <trkpt lat="40.132033" lon="-5.302217">
        <ele>1320.0</ele>
        <time>2014-05-17T13:54:50Z</time>
      </trkpt>
      <trkpt lat="40.132000" lon="-5.302333">
        <ele>1320.0</ele>
        <time>2014-05-17T13:54:51Z</time>
      </trkpt>
      <trkpt lat="40.131950" lon="-5.302467">
        <ele>1321.0</ele>
        <time>2014-05-17T13:54:52Z</time>
      </trkpt>
      <trkpt lat="40.131917" lon="-5.302600">
        <ele>1321.0</ele>
        <time>2014-05-17T13:54:53Z</time>
      </trkpt>
      <trkpt lat="40.131867" lon="-5.302733">
        <ele>1322.0</ele>
        <time>2014-05-17T13:54:54Z</time>
      </trkpt>
      <trkpt lat="40.131833" lon="-5.302850">
        <ele>1323.0</ele>
        <time>2014-05-17T13:54:55Z</time>
      </trkpt>
      <trkpt lat="40.131783" lon="-5.302983">
        <ele>1324.0</ele>
        <time>2014-05-17T13:54:56Z</time>
      </trkpt>
      <trkpt lat="40.131750" lon="-5.303117">
        <ele>1327.0</ele>
        <time>2014-05-17T13:54:57Z</time>
      </trkpt>
      <trkpt lat="40.131717" lon="-5.303250">
        <ele>1331.0</ele>
        <time>2014-05-17T13:54:58Z</time>
      </trkpt>
      <trkpt lat="40.131683" lon="-5.303383">
        <ele>1334.0</ele>
        <time>2014-05-17T13:54:59Z</time>
      </trkpt>
      <trkpt lat="40.131700" lon="-5.303517">
        <ele>1336.0</ele>
        <time>2014-05-17T13:55:00Z</time>
      </trkpt>
      <trkpt lat="40.131733" lon="-5.303650">
        <ele>1338.0</ele>
        <time>2014-05-17T13:55:01Z</time>
      </trkpt>
      <trkpt lat="40.131783" lon="-5.303767">
        <ele>1341.0</ele>
        <time>2014-05-17T13:55:02Z</time>
      </trkpt>
      <trkpt lat="40.131850" lon="-5.303850">
        <ele>1344.0</ele>
        <time>2014-05-17T13:55:03Z</time>
      </trkpt>
      <trkpt lat="40.131933" lon="-5.303900">
        <ele>1346.0</ele>
        <time>2014-05-17T13:55:04Z</time>
      </trkpt>
      <trkpt lat="40.132000" lon="-5.303950">
        <ele>1348.0</ele>
        <time>2014-05-17T13:55:05Z</time>
      </trkpt>
      <trkpt lat="40.132083" lon="-5.303967">
        <ele>1350.0</ele>
        <time>2014-05-17T13:55:06Z</time>
      </trkpt>
      <trkpt lat="40.132150" lon="-5.304000">
        <ele>1351.0</ele>
        <time>2014-05-17T13:55:07Z</time>
      </trkpt>
      <trkpt lat="40.132217" lon="-5.304033">
        <ele>1352.0</ele>
        <time>2014-05-17T13:55:08Z</time>
      </trkpt>
      <trkpt lat="40.132283" lon="-5.304017">
        <ele>1353.0</ele>
        <time>2014-05-17T13:55:09Z</time>
      </trkpt>
      <trkpt lat="40.132333" lon="-5.304000">
        <ele>1352.0</ele>
        <time>2014-05-17T13:55:10Z</time>
      </trkpt>
      <trkpt lat="40.132383" lon="-5.303950">
        <ele>1352.0</ele>
        <time>2014-05-17T13:55:11Z</time>
      </trkpt>
      <trkpt lat="40.132417" lon="-5.303883">
        <ele>1352.0</ele>
        <time>2014-05-17T13:55:12Z</time>
      </trkpt>
      <trkpt lat="40.132450" lon="-5.303800">
        <ele>1352.0</ele>
        <time>2014-05-17T13:55:13Z</time>
      </trkpt>
      <trkpt lat="40.132433" lon="-5.303683">
        <ele>1354.0</ele>
        <time>2014-05-17T13:55:15Z</time>
      </trkpt>
      <trkpt lat="40.132417" lon="-5.303633">
        <ele>1354.0</ele>
        <time>2014-05-17T13:55:16Z</time>
      </trkpt>
      <trkpt lat="40.132400" lon="-5.303517">
        <ele>1356.0</ele>
        <time>2014-05-17T13:55:18Z</time>
      </trkpt>
      <trkpt lat="40.132317" lon="-5.303333">
        <ele>1359.0</ele>
        <time>2014-05-17T13:55:20Z</time>
      </trkpt>
      <trkpt lat="40.132267" lon="-5.303267">
        <ele>1361.0</ele>
        <time>2014-05-17T13:55:21Z</time>
      </trkpt>
      <trkpt lat="40.132200" lon="-5.303217">
        <ele>1364.0</ele>
        <time>2014-05-17T13:55:22Z</time>
      </trkpt>
      <trkpt lat="40.132117" lon="-5.303167">
        <ele>1367.0</ele>
        <time>2014-05-17T13:55:23Z</time>
      </trkpt>
      <trkpt lat="40.132033" lon="-5.303150">
        <ele>1371.0</ele>
        <time>2014-05-17T13:55:24Z</time>
      </trkpt>
      <trkpt lat="40.131950" lon="-5.303133">
        <ele>1375.0</ele>
        <time>2014-05-17T13:55:25Z</time>
      </trkpt>
      <trkpt lat="40.131850" lon="-5.303133">
        <ele>1378.0</ele>
        <time>2014-05-17T13:55:26Z</time>
      </trkpt>
      <trkpt lat="40.131750" lon="-5.303133">
        <ele>1380.0</ele>
        <time>2014-05-17T13:55:27Z</time>
      </trkpt>
      <trkpt lat="40.131650" lon="-5.303150">
        <ele>1384.0</ele>
        <time>2014-05-17T13:55:28Z</time>
      </trkpt>
      <trkpt lat="40.131567" lon="-5.303183">
        <ele>1387.0</ele>
        <time>2014-05-17T13:55:29Z</time>
      </trkpt>
      <trkpt lat="40.131483" lon="-5.303233">
        <ele>1391.0</ele>
        <time>2014-05-17T13:55:30Z</time>
      </trkpt>
      <trkpt lat="40.131417" lon="-5.303300">
        <ele>1394.0</ele>
        <time>2014-05-17T13:55:31Z</time>
      </trkpt>
      <trkpt lat="40.131350" lon="-5.303400">
        <ele>1397.0</ele>
        <time>2014-05-17T13:55:32Z</time>
      </trkpt>
      <trkpt lat="40.131283" lon="-5.303517">
        <ele>1399.0</ele>
        <time>2014-05-17T13:55:33Z</time>
      </trkpt>
      <trkpt lat="40.131250" lon="-5.303650">
        <ele>1401.0</ele>
        <time>2014-05-17T13:55:34Z</time>
      </trkpt>
      <trkpt lat="40.131217" lon="-5.303767">
        <ele>1404.0</ele>
        <time>2014-05-17T13:55:35Z</time>
      </trkpt>
      <trkpt lat="40.131200" lon="-5.303900">
        <ele>1406.0</ele>
        <time>2014-05-17T13:55:36Z</time>
      </trkpt>
      <trkpt lat="40.131217" lon="-5.304017">
        <ele>1410.0</ele>
        <time>2014-05-17T13:55:37Z</time>
      </trkpt>
      <trkpt lat="40.131233" lon="-5.304150">
        <ele>1413.0</ele>
        <time>2014-05-17T13:55:38Z</time>
      </trkpt>
      <trkpt lat="40.131283" lon="-5.304250">
        <ele>1415.0</ele>
        <time>2014-05-17T13:55:39Z</time>
      </trkpt>
      <trkpt lat="40.131333" lon="-5.304333">
        <ele>1417.0</ele>
        <time>2014-05-17T13:55:40Z</time>
      </trkpt>
      <trkpt lat="40.131383" lon="-5.304417">
        <ele>1419.0</ele>
        <time>2014-05-17T13:55:41Z</time>
      </trkpt>
      <trkpt lat="40.131450" lon="-5.304467">
        <ele>1421.0</ele>
        <time>2014-05-17T13:55:42Z</time>
      </trkpt>
      <trkpt lat="40.131533" lon="-5.304483">
        <ele>1423.0</ele>
        <time>2014-05-17T13:55:43Z</time>
      </trkpt>
      <trkpt lat="40.131600" lon="-5.304483">
        <ele>1426.0</ele>
        <time>2014-05-17T13:55:44Z</time>
      </trkpt>
      <trkpt lat="40.131667" lon="-5.304467">
        <ele>1429.0</ele>
        <time>2014-05-17T13:55:45Z</time>
      </trkpt>
      <trkpt lat="40.131733" lon="-5.304433">
        <ele>1433.0</ele>
        <time>2014-05-17T13:55:46Z</time>
      </trkpt>
      <trkpt lat="40.131783" lon="-5.304400">
        <ele>1437.0</ele>
        <time>2014-05-17T13:55:47Z</time>
      </trkpt>
      <trkpt lat="40.131800" lon="-5.304367">
        <ele>1440.0</ele>
        <time>2014-05-17T13:55:48Z</time>
      </trkpt>
      <trkpt lat="40.131883" lon="-5.304283">
        <ele>1444.0</ele>
        <time>2014-05-17T13:55:49Z</time>
      </trkpt>
      <trkpt lat="40.131933" lon="-5.304200">
        <ele>1437.0</ele>
        <time>2014-05-17T13:55:50Z</time>
      </trkpt>
      <trkpt lat="40.132000" lon="-5.304017">
        <ele>1440.0</ele>
        <time>2014-05-17T13:55:52Z</time>
      </trkpt>
      <trkpt lat="40.131983" lon="-5.303850">
        <ele>1444.0</ele>
        <time>2014-05-17T13:55:54Z</time>
      </trkpt>
      <trkpt lat="40.131950" lon="-5.303767">
        <ele>1446.0</ele>
        <time>2014-05-17T13:55:55Z</time>
      </trkpt>
      <trkpt lat="40.131917" lon="-5.303700">
        <ele>1448.0</ele>
        <time>2014-05-17T13:55:56Z</time>
      </trkpt>
      <trkpt lat="40.131867" lon="-5.303617">
        <ele>1450.0</ele>
        <time>2014-05-17T13:55:57Z</time>
      </trkpt>
      <trkpt lat="40.131800" lon="-5.303550">
        <ele>1452.0</ele>
        <time>2014-05-17T13:55:58Z</time>
      </trkpt>
      <trkpt lat="40.131700" lon="-5.303517">
        <ele>1455.0</ele>
        <time>2014-05-17T13:55:59Z</time>
      </trkpt>
      <trkpt lat="40.131617" lon="-5.303500">
        <ele>1459.0</ele>
        <time>2014-05-17T13:56:00Z</time>
      </trkpt>
      <trkpt lat="40.131517" lon="-5.303483">
        <ele>1462.0</ele>
        <time>2014-05-17T13:56:01Z</time>
      </trkpt>
      <trkpt lat="40.131417" lon="-5.303500">
        <ele>1466.0</ele>
        <time>2014-05-17T13:56:02Z</time>
      </trkpt>
      <trkpt lat="40.131317" lon="-5.303517">
        <ele>1468.0</ele>
        <time>2014-05-17T13:56:03Z</time>
      </trkpt>
      <trkpt lat="40.131217" lon="-5.303550">
        <ele>1471.0</ele>
        <time>2014-05-17T13:56:04Z</time>
      </trkpt>
      <trkpt lat="40.131117" lon="-5.303600">
        <ele>1474.0</ele>
        <time>2014-05-17T13:56:05Z</time>
      </trkpt>
      <trkpt lat="40.131033" lon="-5.303667">
        <ele>1477.0</ele>
        <time>2014-05-17T13:56:06Z</time>
      </trkpt>
      <trkpt lat="40.130967" lon="-5.303750">
        <ele>1480.0</ele>
        <time>2014-05-17T13:56:07Z</time>
      </trkpt>
      <trkpt lat="40.130917" lon="-5.303850">
        <ele>1481.0</ele>
        <time>2014-05-17T13:56:08Z</time>
      </trkpt>
      <trkpt lat="40.130867" lon="-5.303950">
        <ele>1482.0</ele>
        <time>2014-05-17T13:56:09Z</time>
      </trkpt>
      <trkpt lat="40.130817" lon="-5.304067">
        <ele>1484.0</ele>
        <time>2014-05-17T13:56:10Z</time>
      </trkpt>
      <trkpt lat="40.130783" lon="-5.304183">
        <ele>1485.0</ele>
        <time>2014-05-17T13:56:11Z</time>
      </trkpt>
      <trkpt lat="40.130767" lon="-5.304317">
        <ele>1488.0</ele>
        <time>2014-05-17T13:56:12Z</time>
      </trkpt>
      <trkpt lat="40.130767" lon="-5.304417">
        <ele>1490.0</ele>
        <time>2014-05-17T13:56:13Z</time>
      </trkpt>
      <trkpt lat="40.130783" lon="-5.304533">
        <ele>1492.0</ele>
        <time>2014-05-17T13:56:14Z</time>
      </trkpt>
      <trkpt lat="40.130817" lon="-5.304633">
        <ele>1494.0</ele>
        <time>2014-05-17T13:56:15Z</time>
      </trkpt>
      <trkpt lat="40.130867" lon="-5.304733">
        <ele>1496.0</ele>
        <time>2014-05-17T13:56:16Z</time>
      </trkpt>
      <trkpt lat="40.130917" lon="-5.304817">
        <ele>1499.0</ele>
        <time>2014-05-17T13:56:17Z</time>
      </trkpt>
      <trkpt lat="40.130983" lon="-5.304867">
        <ele>1502.0</ele>
        <time>2014-05-17T13:56:18Z</time>
      </trkpt>
      <trkpt lat="40.131067" lon="-5.304883">
        <ele>1505.0</ele>
        <time>2014-05-17T13:56:19Z</time>
      </trkpt>
      <trkpt lat="40.131133" lon="-5.304867">
        <ele>1508.0</ele>
        <time>2014-05-17T13:56:20Z</time>
      </trkpt>
      <trkpt lat="40.131200" lon="-5.304850">
        <ele>1511.0</ele>
        <time>2014-05-17T13:56:21Z</time>
      </trkpt>
      <trkpt lat="40.131250" lon="-5.304817">
        <ele>1515.0</ele>
        <time>2014-05-17T13:56:22Z</time>
      </trkpt>
      <trkpt lat="40.131300" lon="-5.304767">
        <ele>1519.0</ele>
        <time>2014-05-17T13:56:23Z</time>
      </trkpt>
      <trkpt lat="40.131317" lon="-5.304683">
        <ele>1522.0</ele>
        <time>2014-05-17T13:56:24Z</time>
      </trkpt>
      <trkpt lat="40.131333" lon="-5.304600">
        <ele>1526.0</ele>
        <time>2014-05-17T13:56:25Z</time>
      </trkpt>
      <trkpt lat="40.131317" lon="-5.304500">
        <ele>1529.0</ele>
        <time>2014-05-17T13:56:26Z</time>
      </trkpt>
      <trkpt lat="40.131300" lon="-5.304400">
        <ele>1532.0</ele>
        <time>2014-05-17T13:56:27Z</time>
      </trkpt>
      <trkpt lat="40.131250" lon="-5.304317">
        <ele>1536.0</ele>
        <time>2014-05-17T13:56:28Z</time>
      </trkpt>
      <trkpt lat="40.131200" lon="-5.304250">
        <ele>1539.0</ele>
        <time>2014-05-17T13:56:29Z</time>
      </trkpt>
      <trkpt lat="40.131117" lon="-5.304200">
        <ele>1541.0</ele>
        <time>2014-05-17T13:56:30Z</time>
      </trkpt>
      <trkpt lat="40.131033" lon="-5.304150">
        <ele>1544.0</ele>
        <time>2014-05-17T13:56:31Z</time>
      </trkpt>
      <trkpt lat="40.130950" lon="-5.304117">
        <ele>1546.0</ele>
        <time>2014-05-17T13:56:32Z</time>
      </trkpt>
      <trkpt lat="40.130867" lon="-5.304083">
        <ele>1549.0</ele>
        <time>2014-05-17T13:56:33Z</time>
      </trkpt>
      <trkpt lat="40.130783" lon="-5.304067">
        <ele>1551.0</ele>
        <time>2014-05-17T13:56:34Z</time>
      </trkpt>
      <trkpt lat="40.130700" lon="-5.304100">
        <ele>1553.0</ele>
        <time>2014-05-17T13:56:35Z</time>
      </trkpt>
      <trkpt lat="40.130617" lon="-5.304150">
        <ele>1554.0</ele>
        <time>2014-05-17T13:56:36Z</time>
      </trkpt>
      <trkpt lat="40.130533" lon="-5.304217">
        <ele>1554.0</ele>
        <time>2014-05-17T13:56:37Z</time>
      </trkpt>
      <trkpt lat="40.130433" lon="-5.304300">
        <ele>1554.0</ele>
        <time>2014-05-17T13:56:38Z</time>
      </trkpt>
      <trkpt lat="40.130350" lon="-5.304367">
        <ele>1555.0</ele>
        <time>2014-05-17T13:56:39Z</time>
      </trkpt>
      <trkpt lat="40.130283" lon="-5.304433">
        <ele>1556.0</ele>
        <time>2014-05-17T13:56:40Z</time>
      </trkpt>
      <trkpt lat="40.130233" lon="-5.304517">
        <ele>1557.0</ele>
        <time>2014-05-17T13:56:41Z</time>
      </trkpt>
      <trkpt lat="40.130183" lon="-5.304617">
        <ele>1558.0</ele>
        <time>2014-05-17T13:56:42Z</time>
      </trkpt>
      <trkpt lat="40.130150" lon="-5.304750">
        <ele>1558.0</ele>
        <time>2014-05-17T13:56:43Z</time>
      </trkpt>
      <trkpt lat="40.130100" lon="-5.304867">
        <ele>1560.0</ele>
        <time>2014-05-17T13:56:44Z</time>
      </trkpt>
      <trkpt lat="40.130067" lon="-5.304967">
        <ele>1562.0</ele>
        <time>2014-05-17T13:56:45Z</time>
      </trkpt>
      <trkpt lat="40.130033" lon="-5.305067">
        <ele>1565.0</ele>
        <time>2014-05-17T13:56:46Z</time>
      </trkpt>
      <trkpt lat="40.130017" lon="-5.305167">
        <ele>1568.0</ele>
        <time>2014-05-17T13:56:47Z</time>
      </trkpt>
      <trkpt lat="40.130033" lon="-5.305250">
        <ele>1569.0</ele>
        <time>2014-05-17T13:56:48Z</time>
      </trkpt>
      <trkpt lat="40.130033" lon="-5.305367">
        <ele>1570.0</ele>
        <time>2014-05-17T13:56:49Z</time>
      </trkpt>
      <trkpt lat="40.130050" lon="-5.305500">
        <ele>1571.0</ele>
        <time>2014-05-17T13:56:50Z</time>
      </trkpt>
      <trkpt lat="40.130083" lon="-5.305633">
        <ele>1572.0</ele>
        <time>2014-05-17T13:56:51Z</time>
      </trkpt>
      <trkpt lat="40.130117" lon="-5.305750">
        <ele>1574.0</ele>
        <time>2014-05-17T13:56:52Z</time>
      </trkpt>
      <trkpt lat="40.130167" lon="-5.305833">
        <ele>1576.0</ele>
        <time>2014-05-17T13:56:53Z</time>
      </trkpt>
      <trkpt lat="40.130217" lon="-5.305917">
        <ele>1578.0</ele>
        <time>2014-05-17T13:56:54Z</time>
      </trkpt>
      <trkpt lat="40.130283" lon="-5.305983">
        <ele>1578.0</ele>
        <time>2014-05-17T13:56:55Z</time>
      </trkpt>
      <trkpt lat="40.130350" lon="-5.306033">
        <ele>1580.0</ele>
        <time>2014-05-17T13:56:56Z</time>
      </trkpt>
      <trkpt lat="40.130433" lon="-5.306067">
        <ele>1581.0</ele>
        <time>2014-05-17T13:56:57Z</time>
      </trkpt>
      <trkpt lat="40.130500" lon="-5.306050">
        <ele>1583.0</ele>
        <time>2014-05-17T13:56:58Z</time>
      </trkpt>
      <trkpt lat="40.130567" lon="-5.306017">
        <ele>1584.0</ele>
        <time>2014-05-17T13:56:59Z</time>
      </trkpt>
      <trkpt lat="40.130633" lon="-5.305950">
        <ele>1586.0</ele>
        <time>2014-05-17T13:57:00Z</time>
      </trkpt>
      <trkpt lat="40.130717" lon="-5.305717">
        <ele>1593.0</ele>
        <time>2014-05-17T13:57:03Z</time>
      </trkpt>
      <trkpt lat="40.130717" lon="-5.305617">
        <ele>1596.0</ele>
        <time>2014-05-17T13:57:04Z</time>
      </trkpt>
      <trkpt lat="40.130683" lon="-5.305533">
        <ele>1599.0</ele>
        <time>2014-05-17T13:57:05Z</time>
      </trkpt>
      <trkpt lat="40.130633" lon="-5.305450">
        <ele>1602.0</ele>
        <time>2014-05-17T13:57:06Z</time>
      </trkpt>
      <trkpt lat="40.130567" lon="-5.305400">
        <ele>1605.0</ele>
        <time>2014-05-17T13:57:07Z</time>
      </trkpt>
      <trkpt lat="40.130500" lon="-5.305333">
        <ele>1609.0</ele>
        <time>2014-05-17T13:57:08Z</time>
      </trkpt>
      <trkpt lat="40.130400" lon="-5.305300">
        <ele>1612.0</ele>
        <time>2014-05-17T13:57:09Z</time>
      </trkpt>
      <trkpt lat="40.130300" lon="-5.305300">
        <ele>1617.0</ele>
        <time>2014-05-17T13:57:10Z</time>
      </trkpt>
      <trkpt lat="40.130200" lon="-5.305300">
        <ele>1621.0</ele>
        <time>2014-05-17T13:57:11Z</time>
      </trkpt>
      <trkpt lat="40.130117" lon="-5.305333">
        <ele>1625.0</ele>
        <time>2014-05-17T13:57:12Z</time>
      </trkpt>
      <trkpt lat="40.130033" lon="-5.305383">
        <ele>1629.0</ele>
        <time>2014-05-17T13:57:13Z</time>
      </trkpt>
      <trkpt lat="40.129967" lon="-5.305467">
        <ele>1633.0</ele>
        <time>2014-05-17T13:57:14Z</time>
      </trkpt>
      <trkpt lat="40.129900" lon="-5.305567">
        <ele>1636.0</ele>
        <time>2014-05-17T13:57:15Z</time>
      </trkpt>
      <trkpt lat="40.129833" lon="-5.305667">
        <ele>1639.0</ele>
        <time>2014-05-17T13:57:16Z</time>
      </trkpt>
      <trkpt lat="40.129800" lon="-5.305783">
        <ele>1642.0</ele>
        <time>2014-05-17T13:57:17Z</time>
      </trkpt>
      <trkpt lat="40.129800" lon="-5.305900">
        <ele>1645.0</ele>
        <time>2014-05-17T13:57:18Z</time>
      </trkpt>
      <trkpt lat="40.129817" lon="-5.306017">
        <ele>1647.0</ele>
        <time>2014-05-17T13:57:19Z</time>
      </trkpt>
      <trkpt lat="40.129867" lon="-5.306117">
        <ele>1649.0</ele>
        <time>2014-05-17T13:57:20Z</time>
      </trkpt>
      <trkpt lat="40.129933" lon="-5.306200">
        <ele>1651.0</ele>
        <time>2014-05-17T13:57:21Z</time>
      </trkpt>
      <trkpt lat="40.129983" lon="-5.306267">
        <ele>1653.0</ele>
        <time>2014-05-17T13:57:22Z</time>
      </trkpt>
      <trkpt lat="40.130050" lon="-5.306317">
        <ele>1656.0</ele>
        <time>2014-05-17T13:57:23Z</time>
      </trkpt>
      <trkpt lat="40.130117" lon="-5.306367">
        <ele>1657.0</ele>
        <time>2014-05-17T13:57:24Z</time>
      </trkpt>
      <trkpt lat="40.130200" lon="-5.306383">
        <ele>1658.0</ele>
        <time>2014-05-17T13:57:25Z</time>
      </trkpt>
      <trkpt lat="40.130267" lon="-5.306367">
        <ele>1660.0</ele>
        <time>2014-05-17T13:57:26Z</time>
      </trkpt>
      <trkpt lat="40.130350" lon="-5.306333">
        <ele>1662.0</ele>
        <time>2014-05-17T13:57:27Z</time>
      </trkpt>
      <trkpt lat="40.130417" lon="-5.306283">
        <ele>1664.0</ele>
        <time>2014-05-17T13:57:28Z</time>
      </trkpt>
      <trkpt lat="40.130483" lon="-5.306233">
        <ele>1666.0</ele>
        <time>2014-05-17T13:57:29Z</time>
      </trkpt>
      <trkpt lat="40.130517" lon="-5.306167">
        <ele>1668.0</ele>
        <time>2014-05-17T13:57:30Z</time>
      </trkpt>
      <trkpt lat="40.130550" lon="-5.306083">
        <ele>1671.0</ele>
        <time>2014-05-17T13:57:31Z</time>
      </trkpt>
      <trkpt lat="40.130550" lon="-5.305983">
        <ele>1675.0</ele>
        <time>2014-05-17T13:57:32Z</time>
      </trkpt>
      <trkpt lat="40.130550" lon="-5.305883">
        <ele>1679.0</ele>
        <time>2014-05-17T13:57:33Z</time>
      </trkpt>
      <trkpt lat="40.130517" lon="-5.305800">
        <ele>1684.0</ele>
        <time>2014-05-17T13:57:34Z</time>
      </trkpt>
      <trkpt lat="40.130483" lon="-5.305717">
        <ele>1688.0</ele>
        <time>2014-05-17T13:57:35Z</time>
      </trkpt>
      <trkpt lat="40.130433" lon="-5.305650">
        <ele>1692.0</ele>
        <time>2014-05-17T13:57:36Z</time>
      </trkpt>
      <trkpt lat="40.130383" lon="-5.305583">
        <ele>1696.0</ele>
        <time>2014-05-17T13:57:37Z</time>
      </trkpt>
      <trkpt lat="40.130333" lon="-5.305517">
        <ele>1699.0</ele>
        <time>2014-05-17T13:57:38Z</time>
      </trkpt>
      <trkpt lat="40.130283" lon="-5.305467">
        <ele>1702.0</ele>
        <time>2014-05-17T13:57:39Z</time>
      </trkpt>
      <trkpt lat="40.130250" lon="-5.305433">
        <ele>1704.0</ele>
        <time>2014-05-17T13:57:40Z</time>
      </trkpt>
      <trkpt lat="40.130183" lon="-5.305433">
        <ele>1706.0</ele>
        <time>2014-05-17T13:57:41Z</time>
      </trkpt>
      <trkpt lat="40.130117" lon="-5.305417">
        <ele>1707.0</ele>
        <time>2014-05-17T13:57:42Z</time>
      </trkpt>
      <trkpt lat="40.130033" lon="-5.305417">
        <ele>1706.0</ele>
        <time>2014-05-17T13:57:43Z</time>
      </trkpt>
      <trkpt lat="40.129950" lon="-5.305417">
        <ele>1705.0</ele>
        <time>2014-05-17T13:57:44Z</time>
      </trkpt>
      <trkpt lat="40.129850" lon="-5.305400">
        <ele>1704.0</ele>
        <time>2014-05-17T13:57:45Z</time>
      </trkpt>
      <trkpt lat="40.129767" lon="-5.305417">
        <ele>1704.0</ele>
        <time>2014-05-17T13:57:46Z</time>
      </trkpt>
      <trkpt lat="40.129700" lon="-5.305450">
        <ele>1706.0</ele>
        <time>2014-05-17T13:57:47Z</time>
      </trkpt>
      <trkpt lat="40.129633" lon="-5.305500">
        <ele>1707.0</ele>
        <time>2014-05-17T13:57:48Z</time>
      </trkpt>
      <trkpt lat="40.129550" lon="-5.305583">
        <ele>1707.0</ele>
        <time>2014-05-17T13:57:49Z</time>
      </trkpt>
      <trkpt lat="40.129500" lon="-5.305683">
        <ele>1707.0</ele>
        <time>2014-05-17T13:57:50Z</time>
      </trkpt>
      <trkpt lat="40.129433" lon="-5.305767">
        <ele>1708.0</ele>
        <time>2014-05-17T13:57:51Z</time>
      </trkpt>
      <trkpt lat="40.129383" lon="-5.305867">
        <ele>1710.0</ele>
        <time>2014-05-17T13:57:52Z</time>
      </trkpt>
      <trkpt lat="40.129350" lon="-5.305967">
        <ele>1711.0</ele>
        <time>2014-05-17T13:57:53Z</time>
      </trkpt>
      <trkpt lat="40.129317" lon="-5.306083">
        <ele>1713.0</ele>
        <time>2014-05-17T13:57:54Z</time>
      </trkpt>
      <trkpt lat="40.129317" lon="-5.306200">
        <ele>1715.0</ele>
        <time>2014-05-17T13:57:55Z</time>
      </trkpt>
      <trkpt lat="40.129317" lon="-5.306317">
        <ele>1718.0</ele>
        <time>2014-05-17T13:57:56Z</time>
      </trkpt>
      <trkpt lat="40.129333" lon="-5.306433">
        <ele>1721.0</ele>
        <time>2014-05-17T13:57:57Z</time>
      </trkpt>
      <trkpt lat="40.129367" lon="-5.306517">
        <ele>1724.0</ele>
        <time>2014-05-17T13:57:58Z</time>
      </trkpt>
      <trkpt lat="40.129417" lon="-5.306583">
        <ele>1727.0</ele>
        <time>2014-05-17T13:57:59Z</time>
      </trkpt>
      <trkpt lat="40.129467" lon="-5.306650">
        <ele>1729.0</ele>
        <time>2014-05-17T13:58:00Z</time>
      </trkpt>
      <trkpt lat="40.129533" lon="-5.306717">
        <ele>1731.0</ele>
        <time>2014-05-17T13:58:01Z</time>
      </trkpt>
      <trkpt lat="40.129600" lon="-5.306733">
        <ele>1733.0</ele>
        <time>2014-05-17T13:58:02Z</time>
      </trkpt>
      <trkpt lat="40.129667" lon="-5.306733">
        <ele>1735.0</ele>
        <time>2014-05-17T13:58:03Z</time>
      </trkpt>
      <trkpt lat="40.129733" lon="-5.306700">
        <ele>1737.0</ele>
        <time>2014-05-17T13:58:04Z</time>
      </trkpt>
      <trkpt lat="40.129783" lon="-5.306667">
        <ele>1739.0</ele>
        <time>2014-05-17T13:58:05Z</time>
      </trkpt>
      <trkpt lat="40.129833" lon="-5.306600">
        <ele>1742.0</ele>
        <time>2014-05-17T13:58:06Z</time>
      </trkpt>
      <trkpt lat="40.129867" lon="-5.306533">
        <ele>1745.0</ele>
        <time>2014-05-17T13:58:07Z</time>
      </trkpt>
      <trkpt lat="40.129883" lon="-5.306483">
        <ele>1749.0</ele>
        <time>2014-05-17T13:58:08Z</time>
      </trkpt>
      <trkpt lat="40.129900" lon="-5.306417">
        <ele>1752.0</ele>
        <time>2014-05-17T13:58:09Z</time>
      </trkpt>
      <trkpt lat="40.129900" lon="-5.306350">
        <ele>1755.0</ele>
        <time>2014-05-17T13:58:10Z</time>
      </trkpt>
      <trkpt lat="40.129883" lon="-5.306250">
        <ele>1757.0</ele>
        <time>2014-05-17T13:58:11Z</time>
      </trkpt>
      <trkpt lat="40.129867" lon="-5.306167">
        <ele>1759.0</ele>
        <time>2014-05-17T13:58:12Z</time>
      </trkpt>
      <trkpt lat="40.129850" lon="-5.306100">
        <ele>1761.0</ele>
        <time>2014-05-17T13:58:13Z</time>
      </trkpt>
      <trkpt lat="40.129817" lon="-5.306033">
        <ele>1762.0</ele>
        <time>2014-05-17T13:58:14Z</time>
      </trkpt>
      <trkpt lat="40.129750" lon="-5.305983">
        <ele>1763.0</ele>
        <time>2014-05-17T13:58:15Z</time>
      </trkpt>
      <trkpt lat="40.129667" lon="-5.305967">
        <ele>1764.0</ele>
        <time>2014-05-17T13:58:16Z</time>
      </trkpt>
      <trkpt lat="40.129583" lon="-5.305967">
        <ele>1766.0</ele>
        <time>2014-05-17T13:58:17Z</time>
      </trkpt>
      <trkpt lat="40.129517" lon="-5.305967">
        <ele>1768.0</ele>
        <time>2014-05-17T13:58:18Z</time>
      </trkpt>
      <trkpt lat="40.129433" lon="-5.305983">
        <ele>1769.0</ele>
        <time>2014-05-17T13:58:19Z</time>
      </trkpt>
      <trkpt lat="40.129367" lon="-5.306017">
        <ele>1771.0</ele>
        <time>2014-05-17T13:58:20Z</time>
      </trkpt>
      <trkpt lat="40.129300" lon="-5.306067">
        <ele>1772.0</ele>
        <time>2014-05-17T13:58:21Z</time>
      </trkpt>
      <trkpt lat="40.129233" lon="-5.306167">
        <ele>1772.0</ele>
        <time>2014-05-17T13:58:22Z</time>
      </trkpt>
      <trkpt lat="40.129183" lon="-5.306283">
        <ele>1773.0</ele>
        <time>2014-05-17T13:58:23Z</time>
      </trkpt>
      <trkpt lat="40.129150" lon="-5.306383">
        <ele>1775.0</ele>
        <time>2014-05-17T13:58:24Z</time>
      </trkpt>
      <trkpt lat="40.129117" lon="-5.306483">
        <ele>1776.0</ele>
        <time>2014-05-17T13:58:25Z</time>
      </trkpt>
      <trkpt lat="40.129083" lon="-5.306583">
        <ele>1778.0</ele>
        <time>2014-05-17T13:58:26Z</time>
      </trkpt>
      <trkpt lat="40.129050" lon="-5.306683">
        <ele>1780.0</ele>
        <time>2014-05-17T13:58:27Z</time>
      </trkpt>
      <trkpt lat="40.129050" lon="-5.306800">
        <ele>1781.0</ele>
        <time>2014-05-17T13:58:28Z</time>
      </trkpt>
      <trkpt lat="40.129067" lon="-5.306933">
        <ele>1782.0</ele>
        <time>2014-05-17T13:58:29Z</time>
      </trkpt>
      <trkpt lat="40.129100" lon="-5.307033">
        <ele>1784.0</ele>
        <time>2014-05-17T13:58:30Z</time>
      </trkpt>
      <trkpt lat="40.129150" lon="-5.307117">
        <ele>1786.0</ele>
        <time>2014-05-17T13:58:31Z</time>
      </trkpt>
      <trkpt lat="40.129200" lon="-5.307167">
        <ele>1789.0</ele>
        <time>2014-05-17T13:58:32Z</time>
      </trkpt>
      <trkpt lat="40.129250" lon="-5.307200">
        <ele>1792.0</ele>
        <time>2014-05-17T13:58:33Z</time>
      </trkpt>
      <trkpt lat="40.129300" lon="-5.307217">
        <ele>1794.0</ele>
        <time>2014-05-17T13:58:34Z</time>
      </trkpt>
      <trkpt lat="40.129367" lon="-5.307217">
        <ele>1795.0</ele>
        <time>2014-05-17T13:58:35Z</time>
      </trkpt>
      <trkpt lat="40.129433" lon="-5.307200">
        <ele>1796.0</ele>
        <time>2014-05-17T13:58:36Z</time>
      </trkpt>
      <trkpt lat="40.129483" lon="-5.307150">
        <ele>1797.0</ele>
        <time>2014-05-17T13:58:37Z</time>
      </trkpt>
      <trkpt lat="40.129517" lon="-5.307100">
        <ele>1799.0</ele>
        <time>2014-05-17T13:58:38Z</time>
      </trkpt>
      <trkpt lat="40.129550" lon="-5.307050">
        <ele>1801.0</ele>
        <time>2014-05-17T13:58:39Z</time>
      </trkpt>
      <trkpt lat="40.129583" lon="-5.306983">
        <ele>1803.0</ele>
        <time>2014-05-17T13:58:40Z</time>
      </trkpt>
      <trkpt lat="40.129600" lon="-5.306917">
        <ele>1806.0</ele>
        <time>2014-05-17T13:58:41Z</time>
      </trkpt>
      <trkpt lat="40.129617" lon="-5.306850">
        <ele>1807.0</ele>
        <time>2014-05-17T13:58:42Z</time>
      </trkpt>
      <trkpt lat="40.129633" lon="-5.306767">
        <ele>1808.0</ele>
        <time>2014-05-17T13:58:43Z</time>
      </trkpt>
      <trkpt lat="40.129633" lon="-5.306667">
        <ele>1808.0</ele>
        <time>2014-05-17T13:58:44Z</time>
      </trkpt>
      <trkpt lat="40.129650" lon="-5.306583">
        <ele>1809.0</ele>
        <time>2014-05-17T13:58:45Z</time>
      </trkpt>
      <trkpt lat="40.129633" lon="-5.306517">
        <ele>1811.0</ele>
        <time>2014-05-17T13:58:46Z</time>
      </trkpt>
      <trkpt lat="40.129600" lon="-5.306433">
        <ele>1813.0</ele>
        <time>2014-05-17T13:58:47Z</time>
      </trkpt>
      <trkpt lat="40.129550" lon="-5.306383">
        <ele>1814.0</ele>
        <time>2014-05-17T13:58:48Z</time>
      </trkpt>
      <trkpt lat="40.129483" lon="-5.306333">
        <ele>1815.0</ele>
        <time>2014-05-17T13:58:49Z</time>
      </trkpt>
      <trkpt lat="40.129400" lon="-5.306300">
        <ele>1816.0</ele>
        <time>2014-05-17T13:58:50Z</time>
      </trkpt>
      <trkpt lat="40.129317" lon="-5.306283">
        <ele>1817.0</ele>
        <time>2014-05-17T13:58:51Z</time>
      </trkpt>
      <trkpt lat="40.129233" lon="-5.306300">
        <ele>1818.0</ele>
        <time>2014-05-17T13:58:52Z</time>
      </trkpt>
      <trkpt lat="40.129167" lon="-5.306333">
        <ele>1820.0</ele>
        <time>2014-05-17T13:58:53Z</time>
      </trkpt>
      <trkpt lat="40.129100" lon="-5.306400">
        <ele>1820.0</ele>
        <time>2014-05-17T13:58:54Z</time>
      </trkpt>
      <trkpt lat="40.129033" lon="-5.306483">
        <ele>1821.0</ele>
        <time>2014-05-17T13:58:55Z</time>
      </trkpt>
      <trkpt lat="40.128983" lon="-5.306583">
        <ele>1820.0</ele>
        <time>2014-05-17T13:58:56Z</time>
      </trkpt>
      <trkpt lat="40.128950" lon="-5.306700">
        <ele>1821.0</ele>
        <time>2014-05-17T13:58:57Z</time>
      </trkpt>
      <trkpt lat="40.128933" lon="-5.306833">
        <ele>1821.0</ele>
        <time>2014-05-17T13:58:58Z</time>
      </trkpt>
      <trkpt lat="40.128933" lon="-5.306950">
        <ele>1822.0</ele>
        <time>2014-05-17T13:58:59Z</time>
      </trkpt>
      <trkpt lat="40.128967" lon="-5.307067">
        <ele>1824.0</ele>
        <time>2014-05-17T13:59:00Z</time>
      </trkpt>
      <trkpt lat="40.129000" lon="-5.307167">
        <ele>1825.0</ele>
        <time>2014-05-17T13:59:01Z</time>
      </trkpt>
      <trkpt lat="40.129067" lon="-5.307267">
        <ele>1827.0</ele>
        <time>2014-05-17T13:59:02Z</time>
      </trkpt>
      <trkpt lat="40.129117" lon="-5.307350">
        <ele>1828.0</ele>
        <time>2014-05-17T13:59:03Z</time>
      </trkpt>
      <trkpt lat="40.129183" lon="-5.307433">
        <ele>1830.0</ele>
        <time>2014-05-17T13:59:04Z</time>
      </trkpt>
      <trkpt lat="40.129233" lon="-5.307500">
        <ele>1832.0</ele>
        <time>2014-05-17T13:59:05Z</time>
      </trkpt>
      <trkpt lat="40.129300" lon="-5.307550">
        <ele>1834.0</ele>
        <time>2014-05-17T13:59:06Z</time>
      </trkpt>
      <trkpt lat="40.129367" lon="-5.307567">
        <ele>1835.0</ele>
        <time>2014-05-17T13:59:07Z</time>
      </trkpt>
      <trkpt lat="40.129517" lon="-5.307550">
        <ele>1837.0</ele>
        <time>2014-05-17T13:59:09Z</time>
      </trkpt>
      <trkpt lat="40.129583" lon="-5.307533">
        <ele>1839.0</ele>
        <time>2014-05-17T13:59:10Z</time>
      </trkpt>
      <trkpt lat="40.129633" lon="-5.307500">
        <ele>1840.0</ele>
        <time>2014-05-17T13:59:11Z</time>
      </trkpt>
      <trkpt lat="40.129683" lon="-5.307467">
        <ele>1841.0</ele>
        <time>2014-05-17T13:59:12Z</time>
      </trkpt>
      <trkpt lat="40.129733" lon="-5.307400">
        <ele>1843.0</ele>
        <time>2014-05-17T13:59:13Z</time>
      </trkpt>
      <trkpt lat="40.129750" lon="-5.307333">
        <ele>1844.0</ele>
        <time>2014-05-17T13:59:14Z</time>
      </trkpt>
      <trkpt lat="40.129767" lon="-5.307233">
        <ele>1844.0</ele>
        <time>2014-05-17T13:59:15Z</time>
      </trkpt>
      <trkpt lat="40.129783" lon="-5.307133">
        <ele>1845.0</ele>
        <time>2014-05-17T13:59:16Z</time>
      </trkpt>
      <trkpt lat="40.129800" lon="-5.307033">
        <ele>1846.0</ele>
        <time>2014-05-17T13:59:17Z</time>
      </trkpt>
      <trkpt lat="40.129783" lon="-5.306950">
        <ele>1847.0</ele>
        <time>2014-05-17T13:59:18Z</time>
      </trkpt>
      <trkpt lat="40.129750" lon="-5.306867">
        <ele>1848.0</ele>
        <time>2014-05-17T13:59:19Z</time>
      </trkpt>
      <trkpt lat="40.129700" lon="-5.306783">
        <ele>1849.0</ele>
        <time>2014-05-17T13:59:20Z</time>
      </trkpt>
      <trkpt lat="40.129633" lon="-5.306700">
        <ele>1850.0</ele>
        <time>2014-05-17T13:59:21Z</time>
      </trkpt>
      <trkpt lat="40.129567" lon="-5.306633">
        <ele>1852.0</ele>
        <time>2014-05-17T13:59:22Z</time>
      </trkpt>
      <trkpt lat="40.129517" lon="-5.306600">
        <ele>1854.0</ele>
        <time>2014-05-17T13:59:23Z</time>
      </trkpt>
      <trkpt lat="40.129450" lon="-5.306567">
        <ele>1858.0</ele>
        <time>2014-05-17T13:59:24Z</time>
      </trkpt>
      <trkpt lat="40.129400" lon="-5.306533">
        <ele>1860.0</ele>
        <time>2014-05-17T13:59:25Z</time>
      </trkpt>
      <trkpt lat="40.129317" lon="-5.306500">
        <ele>1860.0</ele>
        <time>2014-05-17T13:59:26Z</time>
      </trkpt>
      <trkpt lat="40.129250" lon="-5.306483">
        <ele>1860.0</ele>
        <time>2014-05-17T13:59:27Z</time>
      </trkpt>
      <trkpt lat="40.129167" lon="-5.306483">
        <ele>1860.0</ele>
        <time>2014-05-17T13:59:28Z</time>
      </trkpt>
      <trkpt lat="40.129100" lon="-5.306483">
        <ele>1860.0</ele>
        <time>2014-05-17T13:59:29Z</time>
      </trkpt>
      <trkpt lat="40.129033" lon="-5.306483">
        <ele>1860.0</ele>
        <time>2014-05-17T13:59:30Z</time>
      </trkpt>
      <trkpt lat="40.128950" lon="-5.306517">
        <ele>1860.0</ele>
        <time>2014-05-17T13:59:31Z</time>
      </trkpt>
      <trkpt lat="40.128883" lon="-5.306567">
        <ele>1859.0</ele>
        <time>2014-05-17T13:59:32Z</time>
      </trkpt>
      <trkpt lat="40.128800" lon="-5.306650">
        <ele>1858.0</ele>
        <time>2014-05-17T13:59:33Z</time>
      </trkpt>
      <trkpt lat="40.128733" lon="-5.306750">
        <ele>1857.0</ele>
        <time>2014-05-17T13:59:34Z</time>
      </trkpt>
      <trkpt lat="40.128683" lon="-5.306833">
        <ele>1856.0</ele>
        <time>2014-05-17T13:59:35Z</time>
      </trkpt>
      <trkpt lat="40.128633" lon="-5.306933">
        <ele>1856.0</ele>
        <time>2014-05-17T13:59:36Z</time>
      </trkpt>
      <trkpt lat="40.128600" lon="-5.307050">
        <ele>1856.0</ele>
        <time>2014-05-17T13:59:37Z</time>
      </trkpt>
      <trkpt lat="40.128583" lon="-5.307167">
        <ele>1856.0</ele>
        <time>2014-05-17T13:59:38Z</time>
      </trkpt>
      <trkpt lat="40.128600" lon="-5.307300">
        <ele>1856.0</ele>
        <time>2014-05-17T13:59:39Z</time>
      </trkpt>
      <trkpt lat="40.128633" lon="-5.307417">
        <ele>1857.0</ele>
        <time>2014-05-17T13:59:40Z</time>
      </trkpt>
      <trkpt lat="40.128667" lon="-5.307517">
        <ele>1857.0</ele>
        <time>2014-05-17T13:59:41Z</time>
      </trkpt>
      <trkpt lat="40.128733" lon="-5.307600">
        <ele>1858.0</ele>
        <time>2014-05-17T13:59:42Z</time>
      </trkpt>
      <trkpt lat="40.128800" lon="-5.307667">
        <ele>1860.0</ele>
        <time>2014-05-17T13:59:43Z</time>
      </trkpt>
      <trkpt lat="40.128883" lon="-5.307717">
        <ele>1861.0</ele>
        <time>2014-05-17T13:59:44Z</time>
      </trkpt>
      <trkpt lat="40.128967" lon="-5.307717">
        <ele>1862.0</ele>
        <time>2014-05-17T13:59:45Z</time>
      </trkpt>
      <trkpt lat="40.129050" lon="-5.307717">
        <ele>1863.0</ele>
        <time>2014-05-17T13:59:46Z</time>
      </trkpt>
      <trkpt lat="40.129100" lon="-5.307700">
        <ele>1865.0</ele>
        <time>2014-05-17T13:59:47Z</time>
      </trkpt>
      <trkpt lat="40.129150" lon="-5.307683">
        <ele>1868.0</ele>
        <time>2014-05-17T13:59:48Z</time>
      </trkpt>
      <trkpt lat="40.129200" lon="-5.307667">
        <ele>1868.0</ele>
        <time>2014-05-17T13:59:49Z</time>
      </trkpt>
      <trkpt lat="40.129333" lon="-5.307550">
        <ele>1869.0</ele>
        <time>2014-05-17T13:59:51Z</time>
      </trkpt>
      <trkpt lat="40.129400" lon="-5.307500">
        <ele>1869.0</ele>
        <time>2014-05-17T13:59:52Z</time>
      </trkpt>
      <trkpt lat="40.129450" lon="-5.307433">
        <ele>1869.0</ele>
        <time>2014-05-17T13:59:53Z</time>
      </trkpt>
      <trkpt lat="40.129483" lon="-5.307383">
        <ele>1870.0</ele>
        <time>2014-05-17T13:59:54Z</time>
      </trkpt>
      <trkpt lat="40.129500" lon="-5.307300">
        <ele>1871.0</ele>
        <time>2014-05-17T13:59:55Z</time>
      </trkpt>
      <trkpt lat="40.129500" lon="-5.307217">
        <ele>1871.0</ele>
        <time>2014-05-17T13:59:56Z</time>
      </trkpt>
      <trkpt lat="40.129467" lon="-5.307133">
        <ele>1871.0</ele>
        <time>2014-05-17T13:59:57Z</time>
      </trkpt>
      <trkpt lat="40.129433" lon="-5.307050">
        <ele>1871.0</ele>
        <time>2014-05-17T13:59:58Z</time>
      </trkpt>
      <trkpt lat="40.129400" lon="-5.306983">
        <ele>1871.0</ele>
        <time>2014-05-17T13:59:59Z</time>
      </trkpt>
      <trkpt lat="40.129350" lon="-5.306917">
        <ele>1872.0</ele>
        <time>2014-05-17T14:00:00Z</time>
      </trkpt>
      <trkpt lat="40.129300" lon="-5.306883">
        <ele>1872.0</ele>
        <time>2014-05-17T14:00:01Z</time>
      </trkpt>
      <trkpt lat="40.129217" lon="-5.306867">
        <ele>1872.0</ele>
        <time>2014-05-17T14:00:02Z</time>
      </trkpt>
      <trkpt lat="40.129133" lon="-5.306867">
        <ele>1871.0</ele>
        <time>2014-05-17T14:00:03Z</time>
      </trkpt>
      <trkpt lat="40.129067" lon="-5.306883">
        <ele>1871.0</ele>
        <time>2014-05-17T14:00:04Z</time>
      </trkpt>
      <trkpt lat="40.128983" lon="-5.306900">
        <ele>1870.0</ele>
        <time>2014-05-17T14:00:05Z</time>
      </trkpt>
      <trkpt lat="40.128917" lon="-5.306933">
        <ele>1871.0</ele>
        <time>2014-05-17T14:00:06Z</time>
      </trkpt>
      <trkpt lat="40.128850" lon="-5.306967">
        <ele>1871.0</ele>
        <time>2014-05-17T14:00:07Z</time>
      </trkpt>
      <trkpt lat="40.128767" lon="-5.307033">
        <ele>1870.0</ele>
        <time>2014-05-17T14:00:08Z</time>
      </trkpt>
      <trkpt lat="40.128700" lon="-5.307133">
        <ele>1869.0</ele>
        <time>2014-05-17T14:00:09Z</time>
      </trkpt>
      <trkpt lat="40.128633" lon="-5.307233">
        <ele>1868.0</ele>
        <time>2014-05-17T14:00:10Z</time>
      </trkpt>
      <trkpt lat="40.128567" lon="-5.307300">
        <ele>1868.0</ele>
        <time>2014-05-17T14:00:11Z</time>
      </trkpt>
      <trkpt lat="40.128500" lon="-5.307383">
        <ele>1868.0</ele>
        <time>2014-05-17T14:00:12Z</time>
      </trkpt>
      <trkpt lat="40.128433" lon="-5.307450">
        <ele>1868.0</ele>
        <time>2014-05-17T14:00:13Z</time>
      </trkpt>
      <trkpt lat="40.128383" lon="-5.307533">
        <ele>1867.0</ele>
        <time>2014-05-17T14:00:14Z</time>
      </trkpt>
      <trkpt lat="40.128300" lon="-5.307633">
        <ele>1866.0</ele>
        <time>2014-05-17T14:00:15Z</time>
      </trkpt>
      <trkpt lat="40.128233" lon="-5.307733">
        <ele>1864.0</ele>
        <time>2014-05-17T14:00:16Z</time>
      </trkpt>
      <trkpt lat="40.128167" lon="-5.307850">
        <ele>1863.0</ele>
        <time>2014-05-17T14:00:17Z</time>
      </trkpt>
      <trkpt lat="40.128117" lon="-5.307950">
        <ele>1863.0</ele>
        <time>2014-05-17T14:00:18Z</time>
      </trkpt>
      <trkpt lat="40.128050" lon="-5.308050">
        <ele>1864.0</ele>
        <time>2014-05-17T14:00:19Z</time>
      </trkpt>
      <trkpt lat="40.128000" lon="-5.308150">
        <ele>1863.0</ele>
        <time>2014-05-17T14:00:20Z</time>
      </trkpt>
      <trkpt lat="40.127950" lon="-5.308250">
        <ele>1864.0</ele>
        <time>2014-05-17T14:00:21Z</time>
      </trkpt>
      <trkpt lat="40.127900" lon="-5.308350">
        <ele>1864.0</ele>
        <time>2014-05-17T14:00:22Z</time>
      </trkpt>
      <trkpt lat="40.127833" lon="-5.308433">
        <ele>1865.0</ele>
        <time>2014-05-17T14:00:23Z</time>
      </trkpt>
      <trkpt lat="40.127783" lon="-5.308533">
        <ele>1865.0</ele>
        <time>2014-05-17T14:00:24Z</time>
      </trkpt>
      <trkpt lat="40.127717" lon="-5.308633">
        <ele>1865.0</ele>
        <time>2014-05-17T14:00:25Z</time>
      </trkpt>
      <trkpt lat="40.127650" lon="-5.308750">
        <ele>1866.0</ele>
        <time>2014-05-17T14:00:26Z</time>
      </trkpt>
      <trkpt lat="40.127600" lon="-5.308867">
        <ele>1866.0</ele>
        <time>2014-05-17T14:00:27Z</time>
      </trkpt>
      <trkpt lat="40.127533" lon="-5.308983">
        <ele>1868.0</ele>
        <time>2014-05-17T14:00:28Z</time>
      </trkpt>
      <trkpt lat="40.127483" lon="-5.309067">
        <ele>1870.0</ele>
        <time>2014-05-17T14:00:29Z</time>
      </trkpt>
      <trkpt lat="40.127417" lon="-5.309167">
        <ele>1872.0</ele>
        <time>2014-05-17T14:00:30Z</time>
      </trkpt>
      <trkpt lat="40.127383" lon="-5.309283">
        <ele>1874.0</ele>
        <time>2014-05-17T14:00:31Z</time>
      </trkpt>
      <trkpt lat="40.127350" lon="-5.309400">
        <ele>1875.0</ele>
        <time>2014-05-17T14:00:32Z</time>
      </trkpt>
      <trkpt lat="40.127350" lon="-5.309533">
        <ele>1876.0</ele>
        <time>2014-05-17T14:00:33Z</time>
      </trkpt>
      <trkpt lat="40.127367" lon="-5.309667">
        <ele>1877.0</ele>
        <time>2014-05-17T14:00:34Z</time>
      </trkpt>
      <trkpt lat="40.127383" lon="-5.309783">
        <ele>1878.0</ele>
        <time>2014-05-17T14:00:35Z</time>
      </trkpt>
      <trkpt lat="40.127433" lon="-5.309900">
        <ele>1880.0</ele>
        <time>2014-05-17T14:00:36Z</time>
      </trkpt>
      <trkpt lat="40.127483" lon="-5.309983">
        <ele>1881.0</ele>
        <time>2014-05-17T14:00:37Z</time>
      </trkpt>
      <trkpt lat="40.127550" lon="-5.310050">
        <ele>1882.0</ele>
        <time>2014-05-17T14:00:38Z</time>
      </trkpt>
      <trkpt lat="40.127600" lon="-5.310100">
        <ele>1883.0</ele>
        <time>2014-05-17T14:00:39Z</time>
      </trkpt>
      <trkpt lat="40.127683" lon="-5.310133">
        <ele>1884.0</ele>
        <time>2014-05-17T14:00:40Z</time>
      </trkpt>
      <trkpt lat="40.127750" lon="-5.310150">
        <ele>1885.0</ele>
        <time>2014-05-17T14:00:41Z</time>
      </trkpt>
      <trkpt lat="40.127850" lon="-5.310100">
        <ele>1888.0</ele>
        <time>2014-05-17T14:00:43Z</time>
      </trkpt>
      <trkpt lat="40.127900" lon="-5.310017">
        <ele>1889.0</ele>
        <time>2014-05-17T14:00:44Z</time>
      </trkpt>
      <trkpt lat="40.127917" lon="-5.309933">
        <ele>1890.0</ele>
        <time>2014-05-17T14:00:45Z</time>
      </trkpt>
      <trkpt lat="40.127933" lon="-5.309833">
        <ele>1891.0</ele>
        <time>2014-05-17T14:00:46Z</time>
      </trkpt>
      <trkpt lat="40.127917" lon="-5.309750">
        <ele>1893.0</ele>
        <time>2014-05-17T14:00:47Z</time>
      </trkpt>
      <trkpt lat="40.127883" lon="-5.309683">
        <ele>1894.0</ele>
        <time>2014-05-17T14:00:48Z</time>
      </trkpt>
      <trkpt lat="40.127833" lon="-5.309617">
        <ele>1895.0</ele>
        <time>2014-05-17T14:00:49Z</time>
      </trkpt>
      <trkpt lat="40.127767" lon="-5.309550">
        <ele>1896.0</ele>
        <time>2014-05-17T14:00:50Z</time>
      </trkpt>
      <trkpt lat="40.127683" lon="-5.309483">
        <ele>1896.0</ele>
        <time>2014-05-17T14:00:51Z</time>
      </trkpt>
      <trkpt lat="40.127600" lon="-5.309450">
        <ele>1897.0</ele>
        <time>2014-05-17T14:00:52Z</time>
      </trkpt>
      <trkpt lat="40.127517" lon="-5.309433">
        <ele>1898.0</ele>
        <time>2014-05-17T14:00:53Z</time>
      </trkpt>
      <trkpt lat="40.127433" lon="-5.309450">
        <ele>1900.0</ele>
        <time>2014-05-17T14:00:54Z</time>
      </trkpt>
      <trkpt lat="40.127350" lon="-5.309483">
        <ele>1901.0</ele>
        <time>2014-05-17T14:00:55Z</time>
      </trkpt>
      <trkpt lat="40.127267" lon="-5.309517">
        <ele>1902.0</ele>
        <time>2014-05-17T14:00:56Z</time>
      </trkpt>
      <trkpt lat="40.127183" lon="-5.309567">
        <ele>1904.0</ele>
        <time>2014-05-17T14:00:57Z</time>
      </trkpt>
      <trkpt lat="40.127100" lon="-5.309617">
        <ele>1906.0</ele>
        <time>2014-05-17T14:00:58Z</time>
      </trkpt>
      <trkpt lat="40.127033" lon="-5.309700">
        <ele>1907.0</ele>
        <time>2014-05-17T14:00:59Z</time>
      </trkpt>
      <trkpt lat="40.126967" lon="-5.309800">
        <ele>1907.0</ele>
        <time>2014-05-17T14:01:00Z</time>
      </trkpt>
      <trkpt lat="40.126917" lon="-5.309917">
        <ele>1907.0</ele>
        <time>2014-05-17T14:01:01Z</time>
      </trkpt>
      <trkpt lat="40.126883" lon="-5.310050">
        <ele>1908.0</ele>
        <time>2014-05-17T14:01:02Z</time>
      </trkpt>
      <trkpt lat="40.126867" lon="-5.310150">
        <ele>1908.0</ele>
        <time>2014-05-17T14:01:03Z</time>
      </trkpt>
      <trkpt lat="40.126833" lon="-5.310267">
        <ele>1909.0</ele>
        <time>2014-05-17T14:01:04Z</time>
      </trkpt>
      <trkpt lat="40.126817" lon="-5.310383">
        <ele>1909.0</ele>
        <time>2014-05-17T14:01:05Z</time>
      </trkpt>
      <trkpt lat="40.126817" lon="-5.310500">
        <ele>1909.0</ele>
        <time>2014-05-17T14:01:06Z</time>
      </trkpt>
      <trkpt lat="40.126800" lon="-5.310617">
        <ele>1909.0</ele>
        <time>2014-05-17T14:01:07Z</time>
      </trkpt>
      <trkpt lat="40.126800" lon="-5.310733">
        <ele>1908.0</ele>
        <time>2014-05-17T14:01:08Z</time>
      </trkpt>
      <trkpt lat="40.126783" lon="-5.310850">
        <ele>1908.0</ele>
        <time>2014-05-17T14:01:09Z</time>
      </trkpt>
      <trkpt lat="40.126767" lon="-5.310950">
        <ele>1907.0</ele>
        <time>2014-05-17T14:01:10Z</time>
      </trkpt>
      <trkpt lat="40.126733" lon="-5.311067">
        <ele>1906.0</ele>
        <time>2014-05-17T14:01:11Z</time>
      </trkpt>
      <trkpt lat="40.126700" lon="-5.311167">
        <ele>1904.0</ele>
        <time>2014-05-17T14:01:12Z</time>
      </trkpt>
      <trkpt lat="40.126683" lon="-5.311283">
        <ele>1902.0</ele>
        <time>2014-05-17T14:01:13Z</time>
      </trkpt>
      <trkpt lat="40.126650" lon="-5.311383">
        <ele>1902.0</ele>
        <time>2014-05-17T14:01:14Z</time>
      </trkpt>
      <trkpt lat="40.126633" lon="-5.311483">
        <ele>1901.0</ele>
        <time>2014-05-17T14:01:15Z</time>
      </trkpt>
      <trkpt lat="40.126600" lon="-5.311583">
        <ele>1901.0</ele>
        <time>2014-05-17T14:01:16Z</time>
      </trkpt>
      <trkpt lat="40.126550" lon="-5.311683">
        <ele>1901.0</ele>
        <time>2014-05-17T14:01:17Z</time>
      </trkpt>
      <trkpt lat="40.126517" lon="-5.311800">
        <ele>1901.0</ele>
        <time>2014-05-17T14:01:18Z</time>
      </trkpt>
      <trkpt lat="40.126450" lon="-5.311917">
        <ele>1901.0</ele>
        <time>2014-05-17T14:01:19Z</time>
      </trkpt>
      <trkpt lat="40.126400" lon="-5.312033">
        <ele>1900.0</ele>
        <time>2014-05-17T14:01:20Z</time>
      </trkpt>
      <trkpt lat="40.126350" lon="-5.312150">
        <ele>1900.0</ele>
        <time>2014-05-17T14:01:21Z</time>
      </trkpt>
      <trkpt lat="40.126300" lon="-5.312250">
        <ele>1901.0</ele>
        <time>2014-05-17T14:01:22Z</time>
      </trkpt>
      <trkpt lat="40.126250" lon="-5.312367">
        <ele>1902.0</ele>
        <time>2014-05-17T14:01:23Z</time>
      </trkpt>
      <trkpt lat="40.126217" lon="-5.312483">
        <ele>1902.0</ele>
        <time>2014-05-17T14:01:24Z</time>
      </trkpt>
      <trkpt lat="40.126183" lon="-5.312600">
        <ele>1903.0</ele>
        <time>2014-05-17T14:01:25Z</time>
      </trkpt>
      <trkpt lat="40.126133" lon="-5.312733">
        <ele>1903.0</ele>
        <time>2014-05-17T14:01:26Z</time>
      </trkpt>
      <trkpt lat="40.126100" lon="-5.312850">
        <ele>1903.0</ele>
        <time>2014-05-17T14:01:27Z</time>
      </trkpt>
      <trkpt lat="40.126050" lon="-5.312983">
        <ele>1903.0</ele>
        <time>2014-05-17T14:01:28Z</time>
      </trkpt>
      <trkpt lat="40.126017" lon="-5.313100">
        <ele>1904.0</ele>
        <time>2014-05-17T14:01:29Z</time>
      </trkpt>
      <trkpt lat="40.125967" lon="-5.313217">
        <ele>1906.0</ele>
        <time>2014-05-17T14:01:30Z</time>
      </trkpt>
      <trkpt lat="40.125933" lon="-5.313317">
        <ele>1907.0</ele>
        <time>2014-05-17T14:01:31Z</time>
      </trkpt>
      <trkpt lat="40.125900" lon="-5.313417">
        <ele>1908.0</ele>
        <time>2014-05-17T14:01:32Z</time>
      </trkpt>
      <trkpt lat="40.125867" lon="-5.313517">
        <ele>1908.0</ele>
        <time>2014-05-17T14:01:33Z</time>
      </trkpt>
      <trkpt lat="40.125833" lon="-5.313650">
        <ele>1909.0</ele>
        <time>2014-05-17T14:01:34Z</time>
      </trkpt>
      <trkpt lat="40.125800" lon="-5.313767">
        <ele>1910.0</ele>
        <time>2014-05-17T14:01:35Z</time>
      </trkpt>
      <trkpt lat="40.125783" lon="-5.313867">
        <ele>1912.0</ele>
        <time>2014-05-17T14:01:36Z</time>
      </trkpt>
      <trkpt lat="40.125750" lon="-5.313967">
        <ele>1914.0</ele>
        <time>2014-05-17T14:01:37Z</time>
      </trkpt>
      <trkpt lat="40.125733" lon="-5.314050">
        <ele>1916.0</ele>
        <time>2014-05-17T14:01:38Z</time>
      </trkpt>
      <trkpt lat="40.125700" lon="-5.314167">
        <ele>1917.0</ele>
        <time>2014-05-17T14:01:39Z</time>
      </trkpt>
      <trkpt lat="40.125683" lon="-5.314300">
        <ele>1918.0</ele>
        <time>2014-05-17T14:01:40Z</time>
      </trkpt>
      <trkpt lat="40.125700" lon="-5.314433">
        <ele>1918.0</ele>
        <time>2014-05-17T14:01:41Z</time>
      </trkpt>
      <trkpt lat="40.125750" lon="-5.314583">
        <ele>1919.0</ele>
        <time>2014-05-17T14:01:42Z</time>
      </trkpt>
      <trkpt lat="40.125833" lon="-5.314700">
        <ele>1920.0</ele>
        <time>2014-05-17T14:01:43Z</time>
      </trkpt>
      <trkpt lat="40.125917" lon="-5.314800">
        <ele>1921.0</ele>
        <time>2014-05-17T14:01:44Z</time>
      </trkpt>
      <trkpt lat="40.126017" lon="-5.314850">
        <ele>1922.0</ele>
        <time>2014-05-17T14:01:45Z</time>
      </trkpt>
      <trkpt lat="40.126133" lon="-5.314867">
        <ele>1923.0</ele>
        <time>2014-05-17T14:01:46Z</time>
      </trkpt>
      <trkpt lat="40.126233" lon="-5.314867">
        <ele>1923.0</ele>
        <time>2014-05-17T14:01:47Z</time>
      </trkpt>
      <trkpt lat="40.126317" lon="-5.314850">
        <ele>1924.0</ele>
        <time>2014-05-17T14:01:48Z</time>
      </trkpt>
      <trkpt lat="40.126383" lon="-5.314800">
        <ele>1923.0</ele>
        <time>2014-05-17T14:01:49Z</time>
      </trkpt>
      <trkpt lat="40.126433" lon="-5.314750">
        <ele>1924.0</ele>
        <time>2014-05-17T14:01:50Z</time>
      </trkpt>
      <trkpt lat="40.126467" lon="-5.314683">
        <ele>1923.0</ele>
        <time>2014-05-17T14:01:51Z</time>
      </trkpt>
      <trkpt lat="40.126483" lon="-5.314617">
        <ele>1923.0</ele>
        <time>2014-05-17T14:01:52Z</time>
      </trkpt>
      <trkpt lat="40.126483" lon="-5.314550">
        <ele>1923.0</ele>
        <time>2014-05-17T14:01:53Z</time>
      </trkpt>
      <trkpt lat="40.126467" lon="-5.314483">
        <ele>1922.0</ele>
        <time>2014-05-17T14:01:54Z</time>
      </trkpt>
      <trkpt lat="40.126433" lon="-5.314433">
        <ele>1922.0</ele>
        <time>2014-05-17T14:01:55Z</time>
      </trkpt>
      <trkpt lat="40.126367" lon="-5.314400">
        <ele>1921.0</ele>
        <time>2014-05-17T14:01:56Z</time>
      </trkpt>
      <trkpt lat="40.126317" lon="-5.314383">
        <ele>1920.0</ele>
        <time>2014-05-17T14:01:57Z</time>
      </trkpt>
      <trkpt lat="40.126250" lon="-5.314400">
        <ele>1920.0</ele>
        <time>2014-05-17T14:01:58Z</time>
      </trkpt>
      <trkpt lat="40.126183" lon="-5.314417">
        <ele>1920.0</ele>
        <time>2014-05-17T14:01:59Z</time>
      </trkpt>
      <trkpt lat="40.126100" lon="-5.314450">
        <ele>1920.0</ele>
        <time>2014-05-17T14:02:00Z</time>
      </trkpt>
      <trkpt lat="40.126033" lon="-5.314500">
        <ele>1920.0</ele>
        <time>2014-05-17T14:02:01Z</time>
      </trkpt>
      <trkpt lat="40.125967" lon="-5.314567">
        <ele>1920.0</ele>
        <time>2014-05-17T14:02:02Z</time>
      </trkpt>
      <trkpt lat="40.125917" lon="-5.314633">
        <ele>1921.0</ele>
        <time>2014-05-17T14:02:03Z</time>
      </trkpt>
      <trkpt lat="40.125850" lon="-5.314683">
        <ele>1922.0</ele>
        <time>2014-05-17T14:02:04Z</time>
      </trkpt>
      <trkpt lat="40.125800" lon="-5.314733">
        <ele>1923.0</ele>
        <time>2014-05-17T14:02:05Z</time>
      </trkpt>
      <trkpt lat="40.125733" lon="-5.314800">
        <ele>1923.0</ele>
        <time>2014-05-17T14:02:06Z</time>
      </trkpt>
      <trkpt lat="40.125667" lon="-5.314867">
        <ele>1923.0</ele>
        <time>2014-05-17T14:02:07Z</time>
      </trkpt>
      <trkpt lat="40.125583" lon="-5.314950">
        <ele>1923.0</ele>
        <time>2014-05-17T14:02:08Z</time>
      </trkpt>
      <trkpt lat="40.125517" lon="-5.315017">
        <ele>1924.0</ele>
        <time>2014-05-17T14:02:09Z</time>
      </trkpt>
      <trkpt lat="40.125467" lon="-5.315117">
        <ele>1926.0</ele>
        <time>2014-05-17T14:02:10Z</time>
      </trkpt>
      <trkpt lat="40.125417" lon="-5.315217">
        <ele>1927.0</ele>
        <time>2014-05-17T14:02:11Z</time>
      </trkpt>
      <trkpt lat="40.125383" lon="-5.315350">
        <ele>1927.0</ele>
        <time>2014-05-17T14:02:12Z</time>
      </trkpt>
      <trkpt lat="40.125350" lon="-5.315483">
        <ele>1928.0</ele>
        <time>2014-05-17T14:02:13Z</time>
      </trkpt>
      <trkpt lat="40.125333" lon="-5.315633">
        <ele>1928.0</ele>
        <time>2014-05-17T14:02:14Z</time>
      </trkpt>
      <trkpt lat="40.125367" lon="-5.315783">
        <ele>1929.0</ele>
        <time>2014-05-17T14:02:15Z</time>
      </trkpt>
      <trkpt lat="40.125400" lon="-5.315917">
        <ele>1930.0</ele>
        <time>2014-05-17T14:02:16Z</time>
      </trkpt>
      <trkpt lat="40.125467" lon="-5.316050">
        <ele>1929.0</ele>
        <time>2014-05-17T14:02:17Z</time>
      </trkpt>
      <trkpt lat="40.125550" lon="-5.316183">
        <ele>1929.0</ele>
        <time>2014-05-17T14:02:18Z</time>
      </trkpt>
      <trkpt lat="40.125650" lon="-5.316283">
        <ele>1929.0</ele>
        <time>2014-05-17T14:02:19Z</time>
      </trkpt>
      <trkpt lat="40.125767" lon="-5.316333">
        <ele>1930.0</ele>
        <time>2014-05-17T14:02:20Z</time>
      </trkpt>
      <trkpt lat="40.125883" lon="-5.316367">
        <ele>1930.0</ele>
        <time>2014-05-17T14:02:21Z</time>
      </trkpt>
      <trkpt lat="40.125983" lon="-5.316383">
        <ele>1930.0</ele>
        <time>2014-05-17T14:02:22Z</time>
      </trkpt>
      <trkpt lat="40.126100" lon="-5.316400">
        <ele>1931.0</ele>
        <time>2014-05-17T14:02:23Z</time>
      </trkpt>
      <trkpt lat="40.126200" lon="-5.316400">
        <ele>1932.0</ele>
        <time>2014-05-17T14:02:24Z</time>
      </trkpt>
      <trkpt lat="40.126300" lon="-5.316367">
        <ele>1933.0</ele>
        <time>2014-05-17T14:02:25Z</time>
      </trkpt>
      <trkpt lat="40.126383" lon="-5.316333">
        <ele>1934.0</ele>
        <time>2014-05-17T14:02:26Z</time>
      </trkpt>
      <trkpt lat="40.126433" lon="-5.316267">
        <ele>1934.0</ele>
        <time>2014-05-17T14:02:27Z</time>
      </trkpt>
      <trkpt lat="40.126467" lon="-5.316200">
        <ele>1935.0</ele>
        <time>2014-05-17T14:02:28Z</time>
      </trkpt>
      <trkpt lat="40.126500" lon="-5.316133">
        <ele>1935.0</ele>
        <time>2014-05-17T14:02:29Z</time>
      </trkpt>
      <trkpt lat="40.126533" lon="-5.316050">
        <ele>1935.0</ele>
        <time>2014-05-17T14:02:30Z</time>
      </trkpt>
      <trkpt lat="40.126550" lon="-5.315967">
        <ele>1935.0</ele>
        <time>2014-05-17T14:02:31Z</time>
      </trkpt>
      <trkpt lat="40.126533" lon="-5.315883">
        <ele>1936.0</ele>
        <time>2014-05-17T14:02:32Z</time>
      </trkpt>
      <trkpt lat="40.126517" lon="-5.315817">
        <ele>1936.0</ele>
        <time>2014-05-17T14:02:33Z</time>
      </trkpt>
      <trkpt lat="40.126483" lon="-5.315767">
        <ele>1936.0</ele>
        <time>2014-05-17T14:02:34Z</time>
      </trkpt>
      <trkpt lat="40.126433" lon="-5.315717">
        <ele>1937.0</ele>
        <time>2014-05-17T14:02:35Z</time>
      </trkpt>
      <trkpt lat="40.126367" lon="-5.315700">
        <ele>1937.0</ele>
        <time>2014-05-17T14:02:36Z</time>
      </trkpt>
      <trkpt lat="40.126300" lon="-5.315717">
        <ele>1939.0</ele>
        <time>2014-05-17T14:02:37Z</time>
      </trkpt>
      <trkpt lat="40.126250" lon="-5.315733">
        <ele>1940.0</ele>
        <time>2014-05-17T14:02:38Z</time>
      </trkpt>
      <trkpt lat="40.126200" lon="-5.315750">
        <ele>1940.0</ele>
        <time>2014-05-17T14:02:39Z</time>
      </trkpt>
      <trkpt lat="40.126150" lon="-5.315783">
        <ele>1940.0</ele>
        <time>2014-05-17T14:02:40Z</time>
      </trkpt>
      <trkpt lat="40.126083" lon="-5.315817">
        <ele>1940.0</ele>
        <time>2014-05-17T14:02:41Z</time>
      </trkpt>
      <trkpt lat="40.126017" lon="-5.315883">
        <ele>1940.0</ele>
        <time>2014-05-17T14:02:42Z</time>
      </trkpt>
      <trkpt lat="40.125950" lon="-5.315967">
        <ele>1939.0</ele>
        <time>2014-05-17T14:02:43Z</time>
      </trkpt>
      <trkpt lat="40.125900" lon="-5.316067">
        <ele>1939.0</ele>
        <time>2014-05-17T14:02:44Z</time>
      </trkpt>
      <trkpt lat="40.125833" lon="-5.316150">
        <ele>1939.0</ele>
        <time>2014-05-17T14:02:45Z</time>
      </trkpt>
      <trkpt lat="40.125767" lon="-5.316233">
        <ele>1940.0</ele>
        <time>2014-05-17T14:02:46Z</time>
      </trkpt>
      <trkpt lat="40.125683" lon="-5.316317">
        <ele>1940.0</ele>
        <time>2014-05-17T14:02:47Z</time>
      </trkpt>
      <trkpt lat="40.125633" lon="-5.316417">
        <ele>1941.0</ele>
        <time>2014-05-17T14:02:48Z</time>
      </trkpt>
      <trkpt lat="40.125583" lon="-5.316517">
        <ele>1942.0</ele>
        <time>2014-05-17T14:02:49Z</time>
      </trkpt>
      <trkpt lat="40.125533" lon="-5.316617">
        <ele>1943.0</ele>
        <time>2014-05-17T14:02:50Z</time>
      </trkpt>
      <trkpt lat="40.125483" lon="-5.316717">
        <ele>1944.0</ele>
        <time>2014-05-17T14:02:51Z</time>
      </trkpt>
      <trkpt lat="40.125433" lon="-5.316833">
        <ele>1945.0</ele>
        <time>2014-05-17T14:02:52Z</time>
      </trkpt>
      <trkpt lat="40.125417" lon="-5.316950">
        <ele>1945.0</ele>
        <time>2014-05-17T14:02:53Z</time>
      </trkpt>
      <trkpt lat="40.125383" lon="-5.317100">
        <ele>1944.0</ele>
        <time>2014-05-17T14:02:54Z</time>
      </trkpt>
      <trkpt lat="40.125367" lon="-5.317233">
        <ele>1944.0</ele>
        <time>2014-05-17T14:02:55Z</time>
      </trkpt>
      <trkpt lat="40.125350" lon="-5.317367">
        <ele>1944.0</ele>
        <time>2014-05-17T14:02:56Z</time>
      </trkpt>
      <trkpt lat="40.125333" lon="-5.317483">
        <ele>1945.0</ele>
        <time>2014-05-17T14:02:57Z</time>
      </trkpt>
      <trkpt lat="40.125317" lon="-5.317617">
        <ele>1945.0</ele>
        <time>2014-05-17T14:02:58Z</time>
      </trkpt>
      <trkpt lat="40.125300" lon="-5.317750">
        <ele>1945.0</ele>
        <time>2014-05-17T14:02:59Z</time>
      </trkpt>
      <trkpt lat="40.125283" lon="-5.317883">
        <ele>1945.0</ele>
        <time>2014-05-17T14:03:00Z</time>
      </trkpt>
      <trkpt lat="40.125250" lon="-5.318033">
        <ele>1945.0</ele>
        <time>2014-05-17T14:03:01Z</time>
      </trkpt>
      <trkpt lat="40.125233" lon="-5.318167">
        <ele>1946.0</ele>
        <time>2014-05-17T14:03:02Z</time>
      </trkpt>
      <trkpt lat="40.125200" lon="-5.318267">
        <ele>1947.0</ele>
        <time>2014-05-17T14:03:03Z</time>
      </trkpt>
      <trkpt lat="40.125167" lon="-5.318367">
        <ele>1949.0</ele>
        <time>2014-05-17T14:03:04Z</time>
      </trkpt>
      <trkpt lat="40.125133" lon="-5.318450">
        <ele>1951.0</ele>
        <time>2014-05-17T14:03:05Z</time>
      </trkpt>
      <trkpt lat="40.125100" lon="-5.318550">
        <ele>1951.0</ele>
        <time>2014-05-17T14:03:06Z</time>
      </trkpt>
      <trkpt lat="40.125067" lon="-5.318667">
        <ele>1952.0</ele>
        <time>2014-05-17T14:03:07Z</time>
      </trkpt>
      <trkpt lat="40.125033" lon="-5.318783">
        <ele>1952.0</ele>
        <time>2014-05-17T14:03:08Z</time>
      </trkpt>
      <trkpt lat="40.124983" lon="-5.318883">
        <ele>1953.0</ele>
        <time>2014-05-17T14:03:09Z</time>
      </trkpt>
      <trkpt lat="40.124950" lon="-5.318967">
        <ele>1954.0</ele>
        <time>2014-05-17T14:03:10Z</time>
      </trkpt>
      <trkpt lat="40.124917" lon="-5.319033">
        <ele>1956.0</ele>
        <time>2014-05-17T14:03:11Z</time>
      </trkpt>
      <trkpt lat="40.124883" lon="-5.319117">
        <ele>1956.0</ele>
        <time>2014-05-17T14:03:12Z</time>
      </trkpt>
      <trkpt lat="40.124850" lon="-5.319200">
        <ele>1956.0</ele>
        <time>2014-05-17T14:03:13Z</time>
      </trkpt>
      <trkpt lat="40.124800" lon="-5.319300">
        <ele>1955.0</ele>
        <time>2014-05-17T14:03:14Z</time>
      </trkpt>
      <trkpt lat="40.124750" lon="-5.319400">
        <ele>1953.0</ele>
        <time>2014-05-17T14:03:15Z</time>
      </trkpt>
      <trkpt lat="40.124717" lon="-5.319517">
        <ele>1953.0</ele>
        <time>2014-05-17T14:03:16Z</time>
      </trkpt>
      <trkpt lat="40.124667" lon="-5.319600">
        <ele>1953.0</ele>
        <time>2014-05-17T14:03:17Z</time>
      </trkpt>
      <trkpt lat="40.124633" lon="-5.319700">
        <ele>1954.0</ele>
        <time>2014-05-17T14:03:18Z</time>
      </trkpt>
      <trkpt lat="40.124583" lon="-5.319783">
        <ele>1954.0</ele>
        <time>2014-05-17T14:03:19Z</time>
      </trkpt>
      <trkpt lat="40.124533" lon="-5.319867">
        <ele>1954.0</ele>
        <time>2014-05-17T14:03:20Z</time>
      </trkpt>
      <trkpt lat="40.124483" lon="-5.319950">
        <ele>1953.0</ele>
        <time>2014-05-17T14:03:21Z</time>
      </trkpt>
      <trkpt lat="40.124433" lon="-5.320050">
        <ele>1953.0</ele>
        <time>2014-05-17T14:03:22Z</time>
      </trkpt>
      <trkpt lat="40.124383" lon="-5.320150">
        <ele>1953.0</ele>
        <time>2014-05-17T14:03:23Z</time>
      </trkpt>
      <trkpt lat="40.124350" lon="-5.320250">
        <ele>1953.0</ele>
        <time>2014-05-17T14:03:24Z</time>
      </trkpt>
      <trkpt lat="40.124317" lon="-5.320350">
        <ele>1953.0</ele>
        <time>2014-05-17T14:03:25Z</time>
      </trkpt>
      <trkpt lat="40.124283" lon="-5.320433">
        <ele>1952.0</ele>
        <time>2014-05-17T14:03:26Z</time>
      </trkpt>
      <trkpt lat="40.124233" lon="-5.320533">
        <ele>1952.0</ele>
        <time>2014-05-17T14:03:27Z</time>
      </trkpt>
      <trkpt lat="40.124183" lon="-5.320650">
        <ele>1951.0</ele>
        <time>2014-05-17T14:03:28Z</time>
      </trkpt>
      <trkpt lat="40.124133" lon="-5.320767">
        <ele>1950.0</ele>
        <time>2014-05-17T14:03:29Z</time>
      </trkpt>
      <trkpt lat="40.124100" lon="-5.320867">
        <ele>1949.0</ele>
        <time>2014-05-17T14:03:30Z</time>
      </trkpt>
      <trkpt lat="40.124067" lon="-5.320950">
        <ele>1949.0</ele>
        <time>2014-05-17T14:03:31Z</time>
      </trkpt>
      <trkpt lat="40.124017" lon="-5.321033">
        <ele>1948.0</ele>
        <time>2014-05-17T14:03:32Z</time>
      </trkpt>
      <trkpt lat="40.123967" lon="-5.321117">
        <ele>1946.0</ele>
        <time>2014-05-17T14:03:33Z</time>
      </trkpt>
      <trkpt lat="40.123917" lon="-5.321217">
        <ele>1943.0</ele>
        <time>2014-05-17T14:03:34Z</time>
      </trkpt>
      <trkpt lat="40.123867" lon="-5.321300">
        <ele>1941.0</ele>
        <time>2014-05-17T14:03:35Z</time>
      </trkpt>
      <trkpt lat="40.123817" lon="-5.321400">
        <ele>1940.0</ele>
        <time>2014-05-17T14:03:36Z</time>
      </trkpt>
      <trkpt lat="40.123783" lon="-5.321483">
        <ele>1939.0</ele>
        <time>2014-05-17T14:03:37Z</time>
      </trkpt>
      <trkpt lat="40.123733" lon="-5.321583">
        <ele>1937.0</ele>
        <time>2014-05-17T14:03:38Z</time>
      </trkpt>
      <trkpt lat="40.123683" lon="-5.321667">
        <ele>1935.0</ele>
        <time>2014-05-17T14:03:39Z</time>
      </trkpt>
      <trkpt lat="40.123633" lon="-5.321767">
        <ele>1933.0</ele>
        <time>2014-05-17T14:03:40Z</time>
      </trkpt>
      <trkpt lat="40.123583" lon="-5.321850">
        <ele>1932.0</ele>
        <time>2014-05-17T14:03:41Z</time>
      </trkpt>
      <trkpt lat="40.123533" lon="-5.321917">
        <ele>1931.0</ele>
        <time>2014-05-17T14:03:42Z</time>
      </trkpt>
      <trkpt lat="40.123483" lon="-5.321983">
        <ele>1930.0</ele>
        <time>2014-05-17T14:03:43Z</time>
      </trkpt>
      <trkpt lat="40.123433" lon="-5.322067">
        <ele>1929.0</ele>
        <time>2014-05-17T14:03:44Z</time>
      </trkpt>
      <trkpt lat="40.123383" lon="-5.322150">
        <ele>1927.0</ele>
        <time>2014-05-17T14:03:45Z</time>
      </trkpt>
      <trkpt lat="40.123317" lon="-5.322233">
        <ele>1925.0</ele>
        <time>2014-05-17T14:03:46Z</time>
      </trkpt>
      <trkpt lat="40.123250" lon="-5.322300">
        <ele>1924.0</ele>
        <time>2014-05-17T14:03:47Z</time>
      </trkpt>
      <trkpt lat="40.123200" lon="-5.322367">
        <ele>1923.0</ele>
        <time>2014-05-17T14:03:48Z</time>
      </trkpt>
      <trkpt lat="40.123150" lon="-5.322433">
        <ele>1922.0</ele>
        <time>2014-05-17T14:03:49Z</time>
      </trkpt>
      <trkpt lat="40.123100" lon="-5.322500">
        <ele>1920.0</ele>
        <time>2014-05-17T14:03:50Z</time>
      </trkpt>
      <trkpt lat="40.123050" lon="-5.322583">
        <ele>1918.0</ele>
        <time>2014-05-17T14:03:51Z</time>
      </trkpt>
      <trkpt lat="40.122983" lon="-5.322650">
        <ele>1916.0</ele>
        <time>2014-05-17T14:03:52Z</time>
      </trkpt>
      <trkpt lat="40.122933" lon="-5.322733">
        <ele>1915.0</ele>
        <time>2014-05-17T14:03:53Z</time>
      </trkpt>
      <trkpt lat="40.122883" lon="-5.322800">
        <ele>1914.0</ele>
        <time>2014-05-17T14:03:54Z</time>
      </trkpt>
      <trkpt lat="40.122833" lon="-5.322883">
        <ele>1913.0</ele>
        <time>2014-05-17T14:03:55Z</time>
      </trkpt>
      <trkpt lat="40.122783" lon="-5.322950">
        <ele>1912.0</ele>
        <time>2014-05-17T14:03:56Z</time>
      </trkpt>
      <trkpt lat="40.122717" lon="-5.323033">
        <ele>1911.0</ele>
        <time>2014-05-17T14:03:57Z</time>
      </trkpt>
      <trkpt lat="40.122667" lon="-5.323117">
        <ele>1910.0</ele>
        <time>2014-05-17T14:03:58Z</time>
      </trkpt>
      <trkpt lat="40.122617" lon="-5.323183">
        <ele>1910.0</ele>
        <time>2014-05-17T14:03:59Z</time>
      </trkpt>
      <trkpt lat="40.122567" lon="-5.323267">
        <ele>1909.0</ele>
        <time>2014-05-17T14:04:00Z</time>
      </trkpt>
      <trkpt lat="40.122517" lon="-5.323350">
        <ele>1908.0</ele>
        <time>2014-05-17T14:04:01Z</time>
      </trkpt>
      <trkpt lat="40.122467" lon="-5.323433">
        <ele>1906.0</ele>
        <time>2014-05-17T14:04:02Z</time>
      </trkpt>
      <trkpt lat="40.122417" lon="-5.323517">
        <ele>1905.0</ele>
        <time>2014-05-17T14:04:03Z</time>
      </trkpt>
      <trkpt lat="40.122367" lon="-5.323583">
        <ele>1903.0</ele>
        <time>2014-05-17T14:04:04Z</time>
      </trkpt>
      <trkpt lat="40.122300" lon="-5.323650">
        <ele>1902.0</ele>
        <time>2014-05-17T14:04:05Z</time>
      </trkpt>
      <trkpt lat="40.122250" lon="-5.323717">
        <ele>1901.0</ele>
        <time>2014-05-17T14:04:06Z</time>
      </trkpt>
      <trkpt lat="40.122183" lon="-5.323783">
        <ele>1900.0</ele>
        <time>2014-05-17T14:04:07Z</time>
      </trkpt>
      <trkpt lat="40.122133" lon="-5.323850">
        <ele>1899.0</ele>
        <time>2014-05-17T14:04:08Z</time>
      </trkpt>
      <trkpt lat="40.122083" lon="-5.323900">
        <ele>1899.0</ele>
        <time>2014-05-17T14:04:09Z</time>
      </trkpt>
      <trkpt lat="40.122017" lon="-5.323967">
        <ele>1898.0</ele>
        <time>2014-05-17T14:04:10Z</time>
      </trkpt>
      <trkpt lat="40.121967" lon="-5.324033">
        <ele>1896.0</ele>
        <time>2014-05-17T14:04:11Z</time>
      </trkpt>
      <trkpt lat="40.121900" lon="-5.324100">
        <ele>1894.0</ele>
        <time>2014-05-17T14:04:12Z</time>
      </trkpt>
      <trkpt lat="40.121850" lon="-5.324183">
        <ele>1893.0</ele>
        <time>2014-05-17T14:04:13Z</time>
      </trkpt>
      <trkpt lat="40.121800" lon="-5.324267">
        <ele>1892.0</ele>
        <time>2014-05-17T14:04:14Z</time>
      </trkpt>
      <trkpt lat="40.121750" lon="-5.324333">
        <ele>1891.0</ele>
        <time>2014-05-17T14:04:15Z</time>
      </trkpt>
      <trkpt lat="40.121700" lon="-5.324400">
        <ele>1889.0</ele>
        <time>2014-05-17T14:04:16Z</time>
      </trkpt>
      <trkpt lat="40.121650" lon="-5.324483">
        <ele>1888.0</ele>
        <time>2014-05-17T14:04:17Z</time>
      </trkpt>
      <trkpt lat="40.121600" lon="-5.324567">
        <ele>1886.0</ele>
        <time>2014-05-17T14:04:18Z</time>
      </trkpt>
      <trkpt lat="40.121533" lon="-5.324667">
        <ele>1884.0</ele>
        <time>2014-05-17T14:04:19Z</time>
      </trkpt>
      <trkpt lat="40.121483" lon="-5.324750">
        <ele>1881.0</ele>
        <time>2014-05-17T14:04:20Z</time>
      </trkpt>
      <trkpt lat="40.121433" lon="-5.324850">
        <ele>1879.0</ele>
        <time>2014-05-17T14:04:21Z</time>
      </trkpt>
      <trkpt lat="40.121383" lon="-5.324967">
        <ele>1877.0</ele>
        <time>2014-05-17T14:04:22Z</time>
      </trkpt>
      <trkpt lat="40.121333" lon="-5.325067">
        <ele>1875.0</ele>
        <time>2014-05-17T14:04:23Z</time>
      </trkpt>
      <trkpt lat="40.121267" lon="-5.325183">
        <ele>1872.0</ele>
        <time>2014-05-17T14:04:24Z</time>
      </trkpt>
      <trkpt lat="40.121217" lon="-5.325283">
        <ele>1870.0</ele>
        <time>2014-05-17T14:04:25Z</time>
      </trkpt>
      <trkpt lat="40.121150" lon="-5.325400">
        <ele>1868.0</ele>
        <time>2014-05-17T14:04:26Z</time>
      </trkpt>
      <trkpt lat="40.121100" lon="-5.325517">
        <ele>1867.0</ele>
        <time>2014-05-17T14:04:27Z</time>
      </trkpt>
      <trkpt lat="40.121050" lon="-5.325617">
        <ele>1865.0</ele>
        <time>2014-05-17T14:04:28Z</time>
      </trkpt>
      <trkpt lat="40.121000" lon="-5.325717">
        <ele>1864.0</ele>
        <time>2014-05-17T14:04:29Z</time>
      </trkpt>
      <trkpt lat="40.120950" lon="-5.325817">
        <ele>1861.0</ele>
        <time>2014-05-17T14:04:30Z</time>
      </trkpt>
      <trkpt lat="40.120900" lon="-5.325933">
        <ele>1859.0</ele>
        <time>2014-05-17T14:04:31Z</time>
      </trkpt>
      <trkpt lat="40.120850" lon="-5.326050">
        <ele>1856.0</ele>
        <time>2014-05-17T14:04:32Z</time>
      </trkpt>
      <trkpt lat="40.120800" lon="-5.326150">
        <ele>1854.0</ele>
        <time>2014-05-17T14:04:33Z</time>
      </trkpt>
      <trkpt lat="40.120750" lon="-5.326250">
        <ele>1852.0</ele>
        <time>2014-05-17T14:04:34Z</time>
      </trkpt>
      <trkpt lat="40.120700" lon="-5.326350">
        <ele>1851.0</ele>
        <time>2014-05-17T14:04:35Z</time>
      </trkpt>
      <trkpt lat="40.120650" lon="-5.326450">
        <ele>1848.0</ele>
        <time>2014-05-17T14:04:36Z</time>
      </trkpt>
      <trkpt lat="40.120600" lon="-5.326550">
        <ele>1846.0</ele>
        <time>2014-05-17T14:04:37Z</time>
      </trkpt>
      <trkpt lat="40.120550" lon="-5.326650">
        <ele>1843.0</ele>
        <time>2014-05-17T14:04:38Z</time>
      </trkpt>
      <trkpt lat="40.120483" lon="-5.326750">
        <ele>1841.0</ele>
        <time>2014-05-17T14:04:39Z</time>
      </trkpt>
      <trkpt lat="40.120433" lon="-5.326850">
        <ele>1838.0</ele>
        <time>2014-05-17T14:04:40Z</time>
      </trkpt>
      <trkpt lat="40.120367" lon="-5.326950">
        <ele>1836.0</ele>
        <time>2014-05-17T14:04:41Z</time>
      </trkpt>
      <trkpt lat="40.120317" lon="-5.327033">
        <ele>1834.0</ele>
        <time>2014-05-17T14:04:42Z</time>
      </trkpt>
      <trkpt lat="40.120250" lon="-5.327133">
        <ele>1832.0</ele>
        <time>2014-05-17T14:04:43Z</time>
      </trkpt>
      <trkpt lat="40.120200" lon="-5.327217">
        <ele>1830.0</ele>
        <time>2014-05-17T14:04:44Z</time>
      </trkpt>
      <trkpt lat="40.120133" lon="-5.327317">
        <ele>1827.0</ele>
        <time>2014-05-17T14:04:45Z</time>
      </trkpt>
      <trkpt lat="40.120067" lon="-5.327417">
        <ele>1825.0</ele>
        <time>2014-05-17T14:04:46Z</time>
      </trkpt>
      <trkpt lat="40.120017" lon="-5.327533">
        <ele>1822.0</ele>
        <time>2014-05-17T14:04:47Z</time>
      </trkpt>
      <trkpt lat="40.119967" lon="-5.327633">
        <ele>1820.0</ele>
        <time>2014-05-17T14:04:48Z</time>
      </trkpt>
      <trkpt lat="40.119917" lon="-5.327717">
        <ele>1819.0</ele>
        <time>2014-05-17T14:04:49Z</time>
      </trkpt>
      <trkpt lat="40.119867" lon="-5.327817">
        <ele>1817.0</ele>
        <time>2014-05-17T14:04:50Z</time>
      </trkpt>
      <trkpt lat="40.119800" lon="-5.327917">
        <ele>1815.0</ele>
        <time>2014-05-17T14:04:51Z</time>
      </trkpt>
      <trkpt lat="40.119717" lon="-5.328117">
        <ele>1811.0</ele>
        <time>2014-05-17T14:04:53Z</time>
      </trkpt>
      <trkpt lat="40.119667" lon="-5.328217">
        <ele>1810.0</ele>
        <time>2014-05-17T14:04:54Z</time>
      </trkpt>
      <trkpt lat="40.119633" lon="-5.328317">
        <ele>1809.0</ele>
        <time>2014-05-17T14:04:55Z</time>
      </trkpt>
      <trkpt lat="40.119583" lon="-5.328417">
        <ele>1807.0</ele>
        <time>2014-05-17T14:04:56Z</time>
      </trkpt>
      <trkpt lat="40.119533" lon="-5.328517">
        <ele>1805.0</ele>
        <time>2014-05-17T14:04:57Z</time>
      </trkpt>
      <trkpt lat="40.119500" lon="-5.328633">
        <ele>1803.0</ele>
        <time>2014-05-17T14:04:58Z</time>
      </trkpt>
      <trkpt lat="40.119450" lon="-5.328733">
        <ele>1801.0</ele>
        <time>2014-05-17T14:04:59Z</time>
      </trkpt>
      <trkpt lat="40.119400" lon="-5.328833">
        <ele>1799.0</ele>
        <time>2014-05-17T14:05:00Z</time>
      </trkpt>
      <trkpt lat="40.119350" lon="-5.328917">
        <ele>1798.0</ele>
        <time>2014-05-17T14:05:01Z</time>
      </trkpt>
      <trkpt lat="40.119317" lon="-5.329017">
        <ele>1797.0</ele>
        <time>2014-05-17T14:05:02Z</time>
      </trkpt>
      <trkpt lat="40.119267" lon="-5.329100">
        <ele>1796.0</ele>
        <time>2014-05-17T14:05:03Z</time>
      </trkpt>
      <trkpt lat="40.119167" lon="-5.329300">
        <ele>1793.0</ele>
        <time>2014-05-17T14:05:05Z</time>
      </trkpt>
      <trkpt lat="40.119117" lon="-5.329400">
        <ele>1791.0</ele>
        <time>2014-05-17T14:05:06Z</time>
      </trkpt>
      <trkpt lat="40.119083" lon="-5.329500">
        <ele>1790.0</ele>
        <time>2014-05-17T14:05:07Z</time>
      </trkpt>
      <trkpt lat="40.119050" lon="-5.329600">
        <ele>1788.0</ele>
        <time>2014-05-17T14:05:08Z</time>
      </trkpt>
      <trkpt lat="40.119017" lon="-5.329700">
        <ele>1787.0</ele>
        <time>2014-05-17T14:05:09Z</time>
      </trkpt>
      <trkpt lat="40.118967" lon="-5.329800">
        <ele>1785.0</ele>
        <time>2014-05-17T14:05:10Z</time>
      </trkpt>
      <trkpt lat="40.118883" lon="-5.330050">
        <ele>1780.0</ele>
        <time>2014-05-17T14:05:12Z</time>
      </trkpt>
      <trkpt lat="40.118800" lon="-5.330250">
        <ele>1775.0</ele>
        <time>2014-05-17T14:05:14Z</time>
      </trkpt>
      <trkpt lat="40.118767" lon="-5.330350">
        <ele>1773.0</ele>
        <time>2014-05-17T14:05:15Z</time>
      </trkpt>
      <trkpt lat="40.118717" lon="-5.330450">
        <ele>1769.0</ele>
        <time>2014-05-17T14:05:16Z</time>
      </trkpt>
      <trkpt lat="40.118667" lon="-5.330567">
        <ele>1765.0</ele>
        <time>2014-05-17T14:05:17Z</time>
      </trkpt>
      <trkpt lat="40.118600" lon="-5.330683">
        <ele>1761.0</ele>
        <time>2014-05-17T14:05:18Z</time>
      </trkpt>
      <trkpt lat="40.118533" lon="-5.330783">
        <ele>1758.0</ele>
        <time>2014-05-17T14:05:19Z</time>
      </trkpt>
      <trkpt lat="40.118467" lon="-5.330883">
        <ele>1755.0</ele>
        <time>2014-05-17T14:05:20Z</time>
      </trkpt>
      <trkpt lat="40.118417" lon="-5.330983">
        <ele>1753.0</ele>
        <time>2014-05-17T14:05:21Z</time>
      </trkpt>
      <trkpt lat="40.118350" lon="-5.331083">
        <ele>1750.0</ele>
        <time>2014-05-17T14:05:22Z</time>
      </trkpt>
      <trkpt lat="40.118283" lon="-5.331200">
        <ele>1746.0</ele>
        <time>2014-05-17T14:05:23Z</time>
      </trkpt>
      <trkpt lat="40.118217" lon="-5.331317">
        <ele>1742.0</ele>
        <time>2014-05-17T14:05:24Z</time>
      </trkpt>
      <trkpt lat="40.118133" lon="-5.331417">
        <ele>1738.0</ele>
        <time>2014-05-17T14:05:25Z</time>
      </trkpt>
      <trkpt lat="40.118067" lon="-5.331517">
        <ele>1736.0</ele>
        <time>2014-05-17T14:05:26Z</time>
      </trkpt>
      <trkpt lat="40.118017" lon="-5.331617">
        <ele>1733.0</ele>
        <time>2014-05-17T14:05:27Z</time>
      </trkpt>
      <trkpt lat="40.117950" lon="-5.331700">
        <ele>1731.0</ele>
        <time>2014-05-17T14:05:28Z</time>
      </trkpt>
      <trkpt lat="40.117883" lon="-5.331800">
        <ele>1728.0</ele>
        <time>2014-05-17T14:05:29Z</time>
      </trkpt>
      <trkpt lat="40.117800" lon="-5.331900">
        <ele>1724.0</ele>
        <time>2014-05-17T14:05:30Z</time>
      </trkpt>
      <trkpt lat="40.117717" lon="-5.331983">
        <ele>1721.0</ele>
        <time>2014-05-17T14:05:31Z</time>
      </trkpt>
      <trkpt lat="40.117650" lon="-5.332067">
        <ele>1719.0</ele>
        <time>2014-05-17T14:05:32Z</time>
      </trkpt>
      <trkpt lat="40.117583" lon="-5.332150">
        <ele>1718.0</ele>
        <time>2014-05-17T14:05:33Z</time>
      </trkpt>
      <trkpt lat="40.117533" lon="-5.332233">
        <ele>1716.0</ele>
        <time>2014-05-17T14:05:34Z</time>
      </trkpt>
      <trkpt lat="40.117467" lon="-5.332317">
        <ele>1714.0</ele>
        <time>2014-05-17T14:05:35Z</time>
      </trkpt>
      <trkpt lat="40.117383" lon="-5.332417">
        <ele>1712.0</ele>
        <time>2014-05-17T14:05:36Z</time>
      </trkpt>
      <trkpt lat="40.117317" lon="-5.332500">
        <ele>1709.0</ele>
        <time>2014-05-17T14:05:37Z</time>
      </trkpt>
      <trkpt lat="40.117250" lon="-5.332583">
        <ele>1707.0</ele>
        <time>2014-05-17T14:05:38Z</time>
      </trkpt>
      <trkpt lat="40.117183" lon="-5.332667">
        <ele>1705.0</ele>
        <time>2014-05-17T14:05:39Z</time>
      </trkpt>
      <trkpt lat="40.117117" lon="-5.332750">
        <ele>1703.0</ele>
        <time>2014-05-17T14:05:40Z</time>
      </trkpt>
      <trkpt lat="40.117050" lon="-5.332833">
        <ele>1701.0</ele>
        <time>2014-05-17T14:05:41Z</time>
      </trkpt>
      <trkpt lat="40.116983" lon="-5.332933">
        <ele>1699.0</ele>
        <time>2014-05-17T14:05:42Z</time>
      </trkpt>
      <trkpt lat="40.116933" lon="-5.333033">
        <ele>1696.0</ele>
        <time>2014-05-17T14:05:43Z</time>
      </trkpt>
      <trkpt lat="40.116817" lon="-5.333233">
        <ele>1692.0</ele>
        <time>2014-05-17T14:05:45Z</time>
      </trkpt>
      <trkpt lat="40.116750" lon="-5.333300">
        <ele>1690.0</ele>
        <time>2014-05-17T14:05:46Z</time>
      </trkpt>
      <trkpt lat="40.116633" lon="-5.333467">
        <ele>1685.0</ele>
        <time>2014-05-17T14:05:48Z</time>
      </trkpt>
      <trkpt lat="40.116567" lon="-5.333550">
        <ele>1682.0</ele>
        <time>2014-05-17T14:05:49Z</time>
      </trkpt>
      <trkpt lat="40.116500" lon="-5.333650">
        <ele>1679.0</ele>
        <time>2014-05-17T14:05:50Z</time>
      </trkpt>
      <trkpt lat="40.116433" lon="-5.333767">
        <ele>1677.0</ele>
        <time>2014-05-17T14:05:51Z</time>
      </trkpt>
      <trkpt lat="40.116383" lon="-5.333867">
        <ele>1674.0</ele>
        <time>2014-05-17T14:05:52Z</time>
      </trkpt>
      <trkpt lat="40.116317" lon="-5.333967">
        <ele>1671.0</ele>
        <time>2014-05-17T14:05:53Z</time>
      </trkpt>
      <trkpt lat="40.116250" lon="-5.334083">
        <ele>1668.0</ele>
        <time>2014-05-17T14:05:54Z</time>
      </trkpt>
      <trkpt lat="40.116183" lon="-5.334200">
        <ele>1665.0</ele>
        <time>2014-05-17T14:05:55Z</time>
      </trkpt>
      <trkpt lat="40.116117" lon="-5.334300">
        <ele>1663.0</ele>
        <time>2014-05-17T14:05:56Z</time>
      </trkpt>
      <trkpt lat="40.116050" lon="-5.334400">
        <ele>1661.0</ele>
        <time>2014-05-17T14:05:57Z</time>
      </trkpt>
      <trkpt lat="40.115933" lon="-5.334583">
        <ele>1656.0</ele>
        <time>2014-05-17T14:05:59Z</time>
      </trkpt>
      <trkpt lat="40.115867" lon="-5.334683">
        <ele>1653.0</ele>
        <time>2014-05-17T14:06:00Z</time>
      </trkpt>
      <trkpt lat="40.115800" lon="-5.334800">
        <ele>1650.0</ele>
        <time>2014-05-17T14:06:01Z</time>
      </trkpt>
      <trkpt lat="40.115733" lon="-5.334900">
        <ele>1647.0</ele>
        <time>2014-05-17T14:06:02Z</time>
      </trkpt>
      <trkpt lat="40.115583" lon="-5.335083">
        <ele>1641.0</ele>
        <time>2014-05-17T14:06:04Z</time>
      </trkpt>
      <trkpt lat="40.115517" lon="-5.335183">
        <ele>1639.0</ele>
        <time>2014-05-17T14:06:05Z</time>
      </trkpt>
      <trkpt lat="40.115433" lon="-5.335267">
        <ele>1636.0</ele>
        <time>2014-05-17T14:06:06Z</time>
      </trkpt>
      <trkpt lat="40.115367" lon="-5.335350">
        <ele>1634.0</ele>
        <time>2014-05-17T14:06:07Z</time>
      </trkpt>
      <trkpt lat="40.115300" lon="-5.335433">
        <ele>1632.0</ele>
        <time>2014-05-17T14:06:08Z</time>
      </trkpt>
      <trkpt lat="40.115233" lon="-5.335517">
        <ele>1629.0</ele>
        <time>2014-05-17T14:06:09Z</time>
      </trkpt>
      <trkpt lat="40.115167" lon="-5.335600">
        <ele>1627.0</ele>
        <time>2014-05-17T14:06:10Z</time>
      </trkpt>
      <trkpt lat="40.115100" lon="-5.335683">
        <ele>1625.0</ele>
        <time>2014-05-17T14:06:11Z</time>
      </trkpt>
      <trkpt lat="40.115050" lon="-5.335767">
        <ele>1624.0</ele>
        <time>2014-05-17T14:06:12Z</time>
      </trkpt>
      <trkpt lat="40.114983" lon="-5.335833">
        <ele>1622.0</ele>
        <time>2014-05-17T14:06:13Z</time>
      </trkpt>
      <trkpt lat="40.114917" lon="-5.335917">
        <ele>1621.0</ele>
        <time>2014-05-17T14:06:14Z</time>
      </trkpt>
      <trkpt lat="40.114850" lon="-5.336000">
        <ele>1618.0</ele>
        <time>2014-05-17T14:06:15Z</time>
      </trkpt>
      <trkpt lat="40.114783" lon="-5.336083">
        <ele>1615.0</ele>
        <time>2014-05-17T14:06:16Z</time>
      </trkpt>
      <trkpt lat="40.114717" lon="-5.336167">
        <ele>1613.0</ele>
        <time>2014-05-17T14:06:17Z</time>
      </trkpt>
      <trkpt lat="40.114650" lon="-5.336250">
        <ele>1612.0</ele>
        <time>2014-05-17T14:06:18Z</time>
      </trkpt>
      <trkpt lat="40.114600" lon="-5.336317">
        <ele>1611.0</ele>
        <time>2014-05-17T14:06:19Z</time>
      </trkpt>
      <trkpt lat="40.114533" lon="-5.336400">
        <ele>1609.0</ele>
        <time>2014-05-17T14:06:20Z</time>
      </trkpt>
      <trkpt lat="40.114467" lon="-5.336483">
        <ele>1606.0</ele>
        <time>2014-05-17T14:06:21Z</time>
      </trkpt>
      <trkpt lat="40.114400" lon="-5.336583">
        <ele>1603.0</ele>
        <time>2014-05-17T14:06:22Z</time>
      </trkpt>
      <trkpt lat="40.114317" lon="-5.336667">
        <ele>1600.0</ele>
        <time>2014-05-17T14:06:23Z</time>
      </trkpt>
      <trkpt lat="40.114250" lon="-5.336750">
        <ele>1598.0</ele>
        <time>2014-05-17T14:06:24Z</time>
      </trkpt>
      <trkpt lat="40.114200" lon="-5.336850">
        <ele>1596.0</ele>
        <time>2014-05-17T14:06:25Z</time>
      </trkpt>
      <trkpt lat="40.114150" lon="-5.336950">
        <ele>1594.0</ele>
        <time>2014-05-17T14:06:26Z</time>
      </trkpt>
      <trkpt lat="40.114100" lon="-5.337050">
        <ele>1592.0</ele>
        <time>2014-05-17T14:06:27Z</time>
      </trkpt>
      <trkpt lat="40.114050" lon="-5.337150">
        <ele>1589.0</ele>
        <time>2014-05-17T14:06:28Z</time>
      </trkpt>
      <trkpt lat="40.113983" lon="-5.337267">
        <ele>1586.0</ele>
        <time>2014-05-17T14:06:29Z</time>
      </trkpt>
      <trkpt lat="40.113933" lon="-5.337367">
        <ele>1583.0</ele>
        <time>2014-05-17T14:06:30Z</time>
      </trkpt>
      <trkpt lat="40.113883" lon="-5.337467">
        <ele>1580.0</ele>
        <time>2014-05-17T14:06:31Z</time>
      </trkpt>
      <trkpt lat="40.113833" lon="-5.337583">
        <ele>1578.0</ele>
        <time>2014-05-17T14:06:32Z</time>
      </trkpt>
      <trkpt lat="40.113783" lon="-5.337683">
        <ele>1575.0</ele>
        <time>2014-05-17T14:06:33Z</time>
      </trkpt>
      <trkpt lat="40.113733" lon="-5.337783">
        <ele>1572.0</ele>
        <time>2014-05-17T14:06:34Z</time>
      </trkpt>
      <trkpt lat="40.113667" lon="-5.337883">
        <ele>1569.0</ele>
        <time>2014-05-17T14:06:35Z</time>
      </trkpt>
      <trkpt lat="40.113617" lon="-5.337983">
        <ele>1566.0</ele>
        <time>2014-05-17T14:06:36Z</time>
      </trkpt>
      <trkpt lat="40.113550" lon="-5.338083">
        <ele>1563.0</ele>
        <time>2014-05-17T14:06:37Z</time>
      </trkpt>
      <trkpt lat="40.113483" lon="-5.338183">
        <ele>1560.0</ele>
        <time>2014-05-17T14:06:38Z</time>
      </trkpt>
      <trkpt lat="40.113433" lon="-5.338283">
        <ele>1557.0</ele>
        <time>2014-05-17T14:06:39Z</time>
      </trkpt>
      <trkpt lat="40.113367" lon="-5.338367">
        <ele>1555.0</ele>
        <time>2014-05-17T14:06:40Z</time>
      </trkpt>
      <trkpt lat="40.113300" lon="-5.338467">
        <ele>1553.0</ele>
        <time>2014-05-17T14:06:41Z</time>
      </trkpt>
      <trkpt lat="40.113233" lon="-5.338567">
        <ele>1551.0</ele>
        <time>2014-05-17T14:06:42Z</time>
      </trkpt>
      <trkpt lat="40.113167" lon="-5.338650">
        <ele>1549.0</ele>
        <time>2014-05-17T14:06:43Z</time>
      </trkpt>
      <trkpt lat="40.113100" lon="-5.338750">
        <ele>1548.0</ele>
        <time>2014-05-17T14:06:44Z</time>
      </trkpt>
      <trkpt lat="40.113033" lon="-5.338850">
        <ele>1546.0</ele>
        <time>2014-05-17T14:06:45Z</time>
      </trkpt>
      <trkpt lat="40.112967" lon="-5.338933">
        <ele>1544.0</ele>
        <time>2014-05-17T14:06:46Z</time>
      </trkpt>
      <trkpt lat="40.112900" lon="-5.339033">
        <ele>1542.0</ele>
        <time>2014-05-17T14:06:47Z</time>
      </trkpt>
      <trkpt lat="40.112833" lon="-5.339133">
        <ele>1540.0</ele>
        <time>2014-05-17T14:06:48Z</time>
      </trkpt>
      <trkpt lat="40.112750" lon="-5.339233">
        <ele>1538.0</ele>
        <time>2014-05-17T14:06:49Z</time>
      </trkpt>
      <trkpt lat="40.112683" lon="-5.339333">
        <ele>1536.0</ele>
        <time>2014-05-17T14:06:50Z</time>
      </trkpt>
      <trkpt lat="40.112633" lon="-5.339433">
        <ele>1535.0</ele>
        <time>2014-05-17T14:06:51Z</time>
      </trkpt>
      <trkpt lat="40.112567" lon="-5.339533">
        <ele>1533.0</ele>
        <time>2014-05-17T14:06:52Z</time>
      </trkpt>
      <trkpt lat="40.112500" lon="-5.339633">
        <ele>1531.0</ele>
        <time>2014-05-17T14:06:53Z</time>
      </trkpt>
      <trkpt lat="40.112433" lon="-5.339733">
        <ele>1529.0</ele>
        <time>2014-05-17T14:06:54Z</time>
      </trkpt>
      <trkpt lat="40.112367" lon="-5.339850">
        <ele>1527.0</ele>
        <time>2014-05-17T14:06:55Z</time>
      </trkpt>
      <trkpt lat="40.112300" lon="-5.339950">
        <ele>1525.0</ele>
        <time>2014-05-17T14:06:56Z</time>
      </trkpt>
      <trkpt lat="40.112233" lon="-5.340067">
        <ele>1524.0</ele>
        <time>2014-05-17T14:06:57Z</time>
      </trkpt>
      <trkpt lat="40.112183" lon="-5.340183">
        <ele>1522.0</ele>
        <time>2014-05-17T14:06:58Z</time>
      </trkpt>
      <trkpt lat="40.112117" lon="-5.340317">
        <ele>1519.0</ele>
        <time>2014-05-17T14:06:59Z</time>
      </trkpt>
      <trkpt lat="40.112050" lon="-5.340450">
        <ele>1517.0</ele>
        <time>2014-05-17T14:07:00Z</time>
      </trkpt>
      <trkpt lat="40.112000" lon="-5.340600">
        <ele>1515.0</ele>
        <time>2014-05-17T14:07:01Z</time>
      </trkpt>
      <trkpt lat="40.111933" lon="-5.340717">
        <ele>1512.0</ele>
        <time>2014-05-17T14:07:02Z</time>
      </trkpt>
      <trkpt lat="40.111883" lon="-5.340850">
        <ele>1511.0</ele>
        <time>2014-05-17T14:07:03Z</time>
      </trkpt>
      <trkpt lat="40.111817" lon="-5.340967">
        <ele>1509.0</ele>
        <time>2014-05-17T14:07:04Z</time>
      </trkpt>
      <trkpt lat="40.111767" lon="-5.341067">
        <ele>1507.0</ele>
        <time>2014-05-17T14:07:05Z</time>
      </trkpt>
      <trkpt lat="40.111700" lon="-5.341183">
        <ele>1506.0</ele>
        <time>2014-05-17T14:07:06Z</time>
      </trkpt>
      <trkpt lat="40.111650" lon="-5.341300">
        <ele>1504.0</ele>
        <time>2014-05-17T14:07:07Z</time>
      </trkpt>
      <trkpt lat="40.111533" lon="-5.341517">
        <ele>1501.0</ele>
        <time>2014-05-17T14:07:09Z</time>
      </trkpt>
      <trkpt lat="40.111483" lon="-5.341617">
        <ele>1499.0</ele>
        <time>2014-05-17T14:07:10Z</time>
      </trkpt>
      <trkpt lat="40.111417" lon="-5.341700">
        <ele>1497.0</ele>
        <time>2014-05-17T14:07:11Z</time>
      </trkpt>
      <trkpt lat="40.111367" lon="-5.341800">
        <ele>1495.0</ele>
        <time>2014-05-17T14:07:12Z</time>
      </trkpt>
      <trkpt lat="40.111300" lon="-5.341900">
        <ele>1493.0</ele>
        <time>2014-05-17T14:07:13Z</time>
      </trkpt>
      <trkpt lat="40.111250" lon="-5.342000">
        <ele>1491.0</ele>
        <time>2014-05-17T14:07:14Z</time>
      </trkpt>
      <trkpt lat="40.111217" lon="-5.342117">
        <ele>1489.0</ele>
        <time>2014-05-17T14:07:15Z</time>
      </trkpt>
      <trkpt lat="40.111167" lon="-5.342217">
        <ele>1486.0</ele>
        <time>2014-05-17T14:07:16Z</time>
      </trkpt>
      <trkpt lat="40.111117" lon="-5.342317">
        <ele>1484.0</ele>
        <time>2014-05-17T14:07:17Z</time>
      </trkpt>
      <trkpt lat="40.111067" lon="-5.342417">
        <ele>1481.0</ele>
        <time>2014-05-17T14:07:18Z</time>
      </trkpt>
      <trkpt lat="40.111017" lon="-5.342533">
        <ele>1478.0</ele>
        <time>2014-05-17T14:07:19Z</time>
      </trkpt>
      <trkpt lat="40.110950" lon="-5.342650">
        <ele>1475.0</ele>
        <time>2014-05-17T14:07:20Z</time>
      </trkpt>
      <trkpt lat="40.110900" lon="-5.342767">
        <ele>1472.0</ele>
        <time>2014-05-17T14:07:21Z</time>
      </trkpt>
      <trkpt lat="40.110833" lon="-5.342867">
        <ele>1469.0</ele>
        <time>2014-05-17T14:07:22Z</time>
      </trkpt>
      <trkpt lat="40.110767" lon="-5.342983">
        <ele>1466.0</ele>
        <time>2014-05-17T14:07:23Z</time>
      </trkpt>
      <trkpt lat="40.110717" lon="-5.343083">
        <ele>1463.0</ele>
        <time>2014-05-17T14:07:24Z</time>
      </trkpt>
      <trkpt lat="40.110650" lon="-5.343200">
        <ele>1460.0</ele>
        <time>2014-05-17T14:07:25Z</time>
      </trkpt>
      <trkpt lat="40.110583" lon="-5.343317">
        <ele>1458.0</ele>
        <time>2014-05-17T14:07:26Z</time>
      </trkpt>
      <trkpt lat="40.110517" lon="-5.343417">
        <ele>1455.0</ele>
        <time>2014-05-17T14:07:27Z</time>
      </trkpt>
      <trkpt lat="40.110467" lon="-5.343500">
        <ele>1454.0</ele>
        <time>2014-05-17T14:07:28Z</time>
      </trkpt>
      <trkpt lat="40.110400" lon="-5.343567">
        <ele>1452.0</ele>
        <time>2014-05-17T14:07:29Z</time>
      </trkpt>
      <trkpt lat="40.110333" lon="-5.343650">
        <ele>1449.0</ele>
        <time>2014-05-17T14:07:30Z</time>
      </trkpt>
      <trkpt lat="40.110267" lon="-5.343733">
        <ele>1445.0</ele>
        <time>2014-05-17T14:07:31Z</time>
      </trkpt>
      <trkpt lat="40.110200" lon="-5.343817">
        <ele>1442.0</ele>
        <time>2014-05-17T14:07:32Z</time>
      </trkpt>
      <trkpt lat="40.110117" lon="-5.343883">
        <ele>1439.0</ele>
        <time>2014-05-17T14:07:33Z</time>
      </trkpt>
      <trkpt lat="40.110033" lon="-5.343950">
        <ele>1437.0</ele>
        <time>2014-05-17T14:07:34Z</time>
      </trkpt>
      <trkpt lat="40.109967" lon="-5.344000">
        <ele>1435.0</ele>
        <time>2014-05-17T14:07:35Z</time>
      </trkpt>
      <trkpt lat="40.109900" lon="-5.344067">
        <ele>1434.0</ele>
        <time>2014-05-17T14:07:36Z</time>
      </trkpt>
      <trkpt lat="40.109850" lon="-5.344133">
        <ele>1432.0</ele>
        <time>2014-05-17T14:07:37Z</time>
      </trkpt>
      <trkpt lat="40.109783" lon="-5.344200">
        <ele>1429.0</ele>
        <time>2014-05-17T14:07:38Z</time>
      </trkpt>
      <trkpt lat="40.109717" lon="-5.344267">
        <ele>1426.0</ele>
        <time>2014-05-17T14:07:39Z</time>
      </trkpt>
      <trkpt lat="40.109650" lon="-5.344350">
        <ele>1422.0</ele>
        <time>2014-05-17T14:07:40Z</time>
      </trkpt>
      <trkpt lat="40.109583" lon="-5.344450">
        <ele>1418.0</ele>
        <time>2014-05-17T14:07:41Z</time>
      </trkpt>
      <trkpt lat="40.109517" lon="-5.344533">
        <ele>1415.0</ele>
        <time>2014-05-17T14:07:42Z</time>
      </trkpt>
      <trkpt lat="40.109450" lon="-5.344633">
        <ele>1412.0</ele>
        <time>2014-05-17T14:07:43Z</time>
      </trkpt>
      <trkpt lat="40.109400" lon="-5.344717">
        <ele>1408.0</ele>
        <time>2014-05-17T14:07:44Z</time>
      </trkpt>
      <trkpt lat="40.109333" lon="-5.344817">
        <ele>1405.0</ele>
        <time>2014-05-17T14:07:45Z</time>
      </trkpt>
      <trkpt lat="40.109283" lon="-5.344917">
        <ele>1402.0</ele>
        <time>2014-05-17T14:07:46Z</time>
      </trkpt>
      <trkpt lat="40.109217" lon="-5.345033">
        <ele>1399.0</ele>
        <time>2014-05-17T14:07:47Z</time>
      </trkpt>
      <trkpt lat="40.109100" lon="-5.345233">
        <ele>1392.0</ele>
        <time>2014-05-17T14:07:49Z</time>
      </trkpt>
      <trkpt lat="40.109033" lon="-5.345333">
        <ele>1388.0</ele>
        <time>2014-05-17T14:07:50Z</time>
      </trkpt>
      <trkpt lat="40.108983" lon="-5.345433">
        <ele>1385.0</ele>
        <time>2014-05-17T14:07:51Z</time>
      </trkpt>
      <trkpt lat="40.108917" lon="-5.345533">
        <ele>1381.0</ele>
        <time>2014-05-17T14:07:52Z</time>
      </trkpt>
      <trkpt lat="40.108850" lon="-5.345633">
        <ele>1377.0</ele>
        <time>2014-05-17T14:07:53Z</time>
      </trkpt>
      <trkpt lat="40.108783" lon="-5.345733">
        <ele>1373.0</ele>
        <time>2014-05-17T14:07:54Z</time>
      </trkpt>
      <trkpt lat="40.108717" lon="-5.345833">
        <ele>1369.0</ele>
        <time>2014-05-17T14:07:55Z</time>
      </trkpt>
      <trkpt lat="40.108650" lon="-5.345917">
        <ele>1366.0</ele>
        <time>2014-05-17T14:07:56Z</time>
      </trkpt>
      <trkpt lat="40.108600" lon="-5.346017">
        <ele>1363.0</ele>
        <time>2014-05-17T14:07:57Z</time>
      </trkpt>
      <trkpt lat="40.108533" lon="-5.346117">
        <ele>1360.0</ele>
        <time>2014-05-17T14:07:58Z</time>
      </trkpt>
      <trkpt lat="40.108467" lon="-5.346233">
        <ele>1357.0</ele>
        <time>2014-05-17T14:07:59Z</time>
      </trkpt>
      <trkpt lat="40.108400" lon="-5.346350">
        <ele>1354.0</ele>
        <time>2014-05-17T14:08:00Z</time>
      </trkpt>
      <trkpt lat="40.108350" lon="-5.346467">
        <ele>1351.0</ele>
        <time>2014-05-17T14:08:01Z</time>
      </trkpt>
      <trkpt lat="40.108283" lon="-5.346567">
        <ele>1348.0</ele>
        <time>2014-05-17T14:08:02Z</time>
      </trkpt>
      <trkpt lat="40.108250" lon="-5.346683">
        <ele>1346.0</ele>
        <time>2014-05-17T14:08:03Z</time>
      </trkpt>
      <trkpt lat="40.108200" lon="-5.346800">
        <ele>1344.0</ele>
        <time>2014-05-17T14:08:04Z</time>
      </trkpt>
      <trkpt lat="40.108150" lon="-5.346900">
        <ele>1341.0</ele>
        <time>2014-05-17T14:08:05Z</time>
      </trkpt>
      <trkpt lat="40.108083" lon="-5.347017">
        <ele>1338.0</ele>
        <time>2014-05-17T14:08:06Z</time>
      </trkpt>
      <trkpt lat="40.108017" lon="-5.347133">
        <ele>1334.0</ele>
        <time>2014-05-17T14:08:07Z</time>
      </trkpt>
      <trkpt lat="40.107967" lon="-5.347250">
        <ele>1332.0</ele>
        <time>2014-05-17T14:08:08Z</time>
      </trkpt>
      <trkpt lat="40.107900" lon="-5.347367">
        <ele>1330.0</ele>
        <time>2014-05-17T14:08:09Z</time>
      </trkpt>
      <trkpt lat="40.107850" lon="-5.347467">
        <ele>1328.0</ele>
        <time>2014-05-17T14:08:10Z</time>
      </trkpt>
      <trkpt lat="40.107800" lon="-5.347567">
        <ele>1326.0</ele>
        <time>2014-05-17T14:08:11Z</time>
      </trkpt>
      <trkpt lat="40.107733" lon="-5.347667">
        <ele>1324.0</ele>
        <time>2014-05-17T14:08:12Z</time>
      </trkpt>
      <trkpt lat="40.107667" lon="-5.347767">
        <ele>1323.0</ele>
        <time>2014-05-17T14:08:13Z</time>
      </trkpt>
      <trkpt lat="40.107617" lon="-5.347867">
        <ele>1321.0</ele>
        <time>2014-05-17T14:08:14Z</time>
      </trkpt>
      <trkpt lat="40.107550" lon="-5.347983">
        <ele>1319.0</ele>
        <time>2014-05-17T14:08:15Z</time>
      </trkpt>
      <trkpt lat="40.107483" lon="-5.348100">
        <ele>1317.0</ele>
        <time>2014-05-17T14:08:16Z</time>
      </trkpt>
      <trkpt lat="40.107417" lon="-5.348217">
        <ele>1315.0</ele>
        <time>2014-05-17T14:08:17Z</time>
      </trkpt>
      <trkpt lat="40.107367" lon="-5.348317">
        <ele>1313.0</ele>
        <time>2014-05-17T14:08:18Z</time>
      </trkpt>
      <trkpt lat="40.107300" lon="-5.348433">
        <ele>1312.0</ele>
        <time>2014-05-17T14:08:19Z</time>
      </trkpt>
      <trkpt lat="40.107250" lon="-5.348550">
        <ele>1311.0</ele>
        <time>2014-05-17T14:08:20Z</time>
      </trkpt>
      <trkpt lat="40.107183" lon="-5.348650">
        <ele>1310.0</ele>
        <time>2014-05-17T14:08:21Z</time>
      </trkpt>
      <trkpt lat="40.107117" lon="-5.348767">
        <ele>1309.0</ele>
        <time>2014-05-17T14:08:22Z</time>
      </trkpt>
      <trkpt lat="40.107067" lon="-5.348883">
        <ele>1307.0</ele>
        <time>2014-05-17T14:08:23Z</time>
      </trkpt>
      <trkpt lat="40.107000" lon="-5.349000">
        <ele>1306.0</ele>
        <time>2014-05-17T14:08:24Z</time>
      </trkpt>
      <trkpt lat="40.106933" lon="-5.349117">
        <ele>1305.0</ele>
        <time>2014-05-17T14:08:25Z</time>
      </trkpt>
      <trkpt lat="40.106883" lon="-5.349233">
        <ele>1303.0</ele>
        <time>2014-05-17T14:08:26Z</time>
      </trkpt>
      <trkpt lat="40.106817" lon="-5.349350">
        <ele>1302.0</ele>
        <time>2014-05-17T14:08:27Z</time>
      </trkpt>
      <trkpt lat="40.106767" lon="-5.349450">
        <ele>1301.0</ele>
        <time>2014-05-17T14:08:28Z</time>
      </trkpt>
      <trkpt lat="40.106700" lon="-5.349550">
        <ele>1300.0</ele>
        <time>2014-05-17T14:08:29Z</time>
      </trkpt>
      <trkpt lat="40.106650" lon="-5.349650">
        <ele>1299.0</ele>
        <time>2014-05-17T14:08:30Z</time>
      </trkpt>
      <trkpt lat="40.106583" lon="-5.349750">
        <ele>1296.0</ele>
        <time>2014-05-17T14:08:31Z</time>
      </trkpt>
      <trkpt lat="40.106517" lon="-5.349867">
        <ele>1293.0</ele>
        <time>2014-05-17T14:08:32Z</time>
      </trkpt>
      <trkpt lat="40.106433" lon="-5.349967">
        <ele>1291.0</ele>
        <time>2014-05-17T14:08:33Z</time>
      </trkpt>
      <trkpt lat="40.106367" lon="-5.350067">
        <ele>1288.0</ele>
        <time>2014-05-17T14:08:34Z</time>
      </trkpt>
      <trkpt lat="40.106300" lon="-5.350167">
        <ele>1287.0</ele>
        <time>2014-05-17T14:08:35Z</time>
      </trkpt>
      <trkpt lat="40.106233" lon="-5.350283">
        <ele>1285.0</ele>
        <time>2014-05-17T14:08:36Z</time>
      </trkpt>
      <trkpt lat="40.106167" lon="-5.350383">
        <ele>1283.0</ele>
        <time>2014-05-17T14:08:37Z</time>
      </trkpt>
      <trkpt lat="40.106100" lon="-5.350483">
        <ele>1282.0</ele>
        <time>2014-05-17T14:08:38Z</time>
      </trkpt>
      <trkpt lat="40.106033" lon="-5.350583">
        <ele>1280.0</ele>
        <time>2014-05-17T14:08:39Z</time>
      </trkpt>
      <trkpt lat="40.105983" lon="-5.350683">
        <ele>1279.0</ele>
        <time>2014-05-17T14:08:40Z</time>
      </trkpt>
      <trkpt lat="40.105933" lon="-5.350767">
        <ele>1277.0</ele>
        <time>2014-05-17T14:08:41Z</time>
      </trkpt>
      <trkpt lat="40.105883" lon="-5.350867">
        <ele>1276.0</ele>
        <time>2014-05-17T14:08:42Z</time>
      </trkpt>
      <trkpt lat="40.105833" lon="-5.350967">
        <ele>1273.0</ele>
        <time>2014-05-17T14:08:43Z</time>
      </trkpt>
      <trkpt lat="40.105767" lon="-5.351083">
        <ele>1270.0</ele>
        <time>2014-05-17T14:08:44Z</time>
      </trkpt>
      <trkpt lat="40.105700" lon="-5.351200">
        <ele>1268.0</ele>
        <time>2014-05-17T14:08:45Z</time>
      </trkpt>
      <trkpt lat="40.105633" lon="-5.351300">
        <ele>1266.0</ele>
        <time>2014-05-17T14:08:46Z</time>
      </trkpt>
      <trkpt lat="40.105583" lon="-5.351400">
        <ele>1264.0</ele>
        <time>2014-05-17T14:08:47Z</time>
      </trkpt>
      <trkpt lat="40.105533" lon="-5.351500">
        <ele>1262.0</ele>
        <time>2014-05-17T14:08:48Z</time>
      </trkpt>
      <trkpt lat="40.105483" lon="-5.351600">
        <ele>1259.0</ele>
        <time>2014-05-17T14:08:49Z</time>
      </trkpt>
      <trkpt lat="40.105417" lon="-5.351700">
        <ele>1255.0</ele>
        <time>2014-05-17T14:08:50Z</time>
      </trkpt>
      <trkpt lat="40.105350" lon="-5.351817">
        <ele>1250.0</ele>
        <time>2014-05-17T14:08:51Z</time>
      </trkpt>
      <trkpt lat="40.105283" lon="-5.351933">
        <ele>1246.0</ele>
        <time>2014-05-17T14:08:52Z</time>
      </trkpt>
      <trkpt lat="40.105217" lon="-5.352050">
        <ele>1244.0</ele>
        <time>2014-05-17T14:08:53Z</time>
      </trkpt>
      <trkpt lat="40.105167" lon="-5.352150">
        <ele>1242.0</ele>
        <time>2014-05-17T14:08:54Z</time>
      </trkpt>
      <trkpt lat="40.105100" lon="-5.352233">
        <ele>1240.0</ele>
        <time>2014-05-17T14:08:55Z</time>
      </trkpt>
      <trkpt lat="40.104967" lon="-5.352433">
        <ele>1234.0</ele>
        <time>2014-05-17T14:08:57Z</time>
      </trkpt>
      <trkpt lat="40.104883" lon="-5.352517">
        <ele>1230.0</ele>
        <time>2014-05-17T14:08:58Z</time>
      </trkpt>
      <trkpt lat="40.104800" lon="-5.352617">
        <ele>1228.0</ele>
        <time>2014-05-17T14:08:59Z</time>
      </trkpt>
      <trkpt lat="40.104733" lon="-5.352700">
        <ele>1227.0</ele>
        <time>2014-05-17T14:09:00Z</time>
      </trkpt>
      <trkpt lat="40.104583" lon="-5.352850">
        <ele>1224.0</ele>
        <time>2014-05-17T14:09:02Z</time>
      </trkpt>
      <trkpt lat="40.104517" lon="-5.352917">
        <ele>1222.0</ele>
        <time>2014-05-17T14:09:03Z</time>
      </trkpt>
      <trkpt lat="40.104450" lon="-5.353000">
        <ele>1219.0</ele>
        <time>2014-05-17T14:09:04Z</time>
      </trkpt>
      <trkpt lat="40.104367" lon="-5.353100">
        <ele>1217.0</ele>
        <time>2014-05-17T14:09:05Z</time>
      </trkpt>
      <trkpt lat="40.104300" lon="-5.353200">
        <ele>1214.0</ele>
        <time>2014-05-17T14:09:06Z</time>
      </trkpt>
      <trkpt lat="40.104217" lon="-5.353300">
        <ele>1212.0</ele>
        <time>2014-05-17T14:09:07Z</time>
      </trkpt>
      <trkpt lat="40.104133" lon="-5.353383">
        <ele>1210.0</ele>
        <time>2014-05-17T14:09:08Z</time>
      </trkpt>
      <trkpt lat="40.104067" lon="-5.353483">
        <ele>1208.0</ele>
        <time>2014-05-17T14:09:09Z</time>
      </trkpt>
      <trkpt lat="40.103983" lon="-5.353583">
        <ele>1206.0</ele>
        <time>2014-05-17T14:09:10Z</time>
      </trkpt>
      <trkpt lat="40.103917" lon="-5.353683">
        <ele>1205.0</ele>
        <time>2014-05-17T14:09:11Z</time>
      </trkpt>
      <trkpt lat="40.103833" lon="-5.353783">
        <ele>1203.0</ele>
        <time>2014-05-17T14:09:12Z</time>
      </trkpt>
      <trkpt lat="40.103767" lon="-5.353883">
        <ele>1202.0</ele>
        <time>2014-05-17T14:09:13Z</time>
      </trkpt>
      <trkpt lat="40.103700" lon="-5.353967">
        <ele>1201.0</ele>
        <time>2014-05-17T14:09:14Z</time>
      </trkpt>
      <trkpt lat="40.103650" lon="-5.354050">
        <ele>1200.0</ele>
        <time>2014-05-17T14:09:15Z</time>
      </trkpt>
      <trkpt lat="40.103583" lon="-5.354133">
        <ele>1198.0</ele>
        <time>2014-05-17T14:09:16Z</time>
      </trkpt>
      <trkpt lat="40.103500" lon="-5.354217">
        <ele>1195.0</ele>
        <time>2014-05-17T14:09:17Z</time>
      </trkpt>
      <trkpt lat="40.103417" lon="-5.354300">
        <ele>1193.0</ele>
        <time>2014-05-17T14:09:18Z</time>
      </trkpt>
      <trkpt lat="40.103350" lon="-5.354400">
        <ele>1191.0</ele>
        <time>2014-05-17T14:09:19Z</time>
      </trkpt>
      <trkpt lat="40.103283" lon="-5.354483">
        <ele>1189.0</ele>
        <time>2014-05-17T14:09:20Z</time>
      </trkpt>
      <trkpt lat="40.103200" lon="-5.354583">
        <ele>1187.0</ele>
        <time>2014-05-17T14:09:21Z</time>
      </trkpt>
      <trkpt lat="40.103133" lon="-5.354667">
        <ele>1185.0</ele>
        <time>2014-05-17T14:09:22Z</time>
      </trkpt>
      <trkpt lat="40.103067" lon="-5.354750">
        <ele>1182.0</ele>
        <time>2014-05-17T14:09:23Z</time>
      </trkpt>
      <trkpt lat="40.102983" lon="-5.354850">
        <ele>1179.0</ele>
        <time>2014-05-17T14:09:24Z</time>
      </trkpt>
      <trkpt lat="40.102900" lon="-5.354950">
        <ele>1177.0</ele>
        <time>2014-05-17T14:09:25Z</time>
      </trkpt>
      <trkpt lat="40.102833" lon="-5.355033">
        <ele>1175.0</ele>
        <time>2014-05-17T14:09:26Z</time>
      </trkpt>
      <trkpt lat="40.102767" lon="-5.355100">
        <ele>1174.0</ele>
        <time>2014-05-17T14:09:27Z</time>
      </trkpt>
      <trkpt lat="40.102717" lon="-5.355183">
        <ele>1173.0</ele>
        <time>2014-05-17T14:09:28Z</time>
      </trkpt>
      <trkpt lat="40.102650" lon="-5.355250">
        <ele>1170.0</ele>
        <time>2014-05-17T14:09:29Z</time>
      </trkpt>
      <trkpt lat="40.102583" lon="-5.355317">
        <ele>1167.0</ele>
        <time>2014-05-17T14:09:30Z</time>
      </trkpt>
      <trkpt lat="40.102500" lon="-5.355400">
        <ele>1163.0</ele>
        <time>2014-05-17T14:09:31Z</time>
      </trkpt>
      <trkpt lat="40.102433" lon="-5.355483">
        <ele>1161.0</ele>
        <time>2014-05-17T14:09:32Z</time>
      </trkpt>
      <trkpt lat="40.102383" lon="-5.355567">
        <ele>1159.0</ele>
        <time>2014-05-17T14:09:33Z</time>
      </trkpt>
      <trkpt lat="40.102317" lon="-5.355650">
        <ele>1158.0</ele>
        <time>2014-05-17T14:09:34Z</time>
      </trkpt>
      <trkpt lat="40.102267" lon="-5.355733">
        <ele>1156.0</ele>
        <time>2014-05-17T14:09:35Z</time>
      </trkpt>
      <trkpt lat="40.102183" lon="-5.355817">
        <ele>1153.0</ele>
        <time>2014-05-17T14:09:36Z</time>
      </trkpt>
      <trkpt lat="40.102117" lon="-5.355883">
        <ele>1151.0</ele>
        <time>2014-05-17T14:09:37Z</time>
      </trkpt>
      <trkpt lat="40.102033" lon="-5.355983">
        <ele>1148.0</ele>
        <time>2014-05-17T14:09:38Z</time>
      </trkpt>
      <trkpt lat="40.101967" lon="-5.356067">
        <ele>1146.0</ele>
        <time>2014-05-17T14:09:39Z</time>
      </trkpt>
      <trkpt lat="40.101917" lon="-5.356167">
        <ele>1143.0</ele>
        <time>2014-05-17T14:09:40Z</time>
      </trkpt>
      <trkpt lat="40.101867" lon="-5.356267">
        <ele>1141.0</ele>
        <time>2014-05-17T14:09:41Z</time>
      </trkpt>
      <trkpt lat="40.101817" lon="-5.356367">
        <ele>1138.0</ele>
        <time>2014-05-17T14:09:42Z</time>
      </trkpt>
      <trkpt lat="40.101750" lon="-5.356467">
        <ele>1136.0</ele>
        <time>2014-05-17T14:09:43Z</time>
      </trkpt>
      <trkpt lat="40.101683" lon="-5.356550">
        <ele>1134.0</ele>
        <time>2014-05-17T14:09:44Z</time>
      </trkpt>
      <trkpt lat="40.101633" lon="-5.356650">
        <ele>1132.0</ele>
        <time>2014-05-17T14:09:45Z</time>
      </trkpt>
      <trkpt lat="40.101567" lon="-5.356733">
        <ele>1131.0</ele>
        <time>2014-05-17T14:09:46Z</time>
      </trkpt>
      <trkpt lat="40.101517" lon="-5.356817">
        <ele>1129.0</ele>
        <time>2014-05-17T14:09:47Z</time>
      </trkpt>
      <trkpt lat="40.101417" lon="-5.356983">
        <ele>1125.0</ele>
        <time>2014-05-17T14:09:49Z</time>
      </trkpt>
      <trkpt lat="40.101350" lon="-5.357083">
        <ele>1122.0</ele>
        <time>2014-05-17T14:09:50Z</time>
      </trkpt>
      <trkpt lat="40.101283" lon="-5.357183">
        <ele>1119.0</ele>
        <time>2014-05-17T14:09:51Z</time>
      </trkpt>
      <trkpt lat="40.101233" lon="-5.357267">
        <ele>1116.0</ele>
        <time>2014-05-17T14:09:52Z</time>
      </trkpt>
      <trkpt lat="40.101183" lon="-5.357367">
        <ele>1115.0</ele>
        <time>2014-05-17T14:09:53Z</time>
      </trkpt>
      <trkpt lat="40.101083" lon="-5.357567">
        <ele>1111.0</ele>
        <time>2014-05-17T14:09:55Z</time>
      </trkpt>
      <trkpt lat="40.101033" lon="-5.357667">
        <ele>1109.0</ele>
        <time>2014-05-17T14:09:56Z</time>
      </trkpt>
      <trkpt lat="40.100983" lon="-5.357767">
        <ele>1106.0</ele>
        <time>2014-05-17T14:09:57Z</time>
      </trkpt>
      <trkpt lat="40.100917" lon="-5.357883">
        <ele>1103.0</ele>
        <time>2014-05-17T14:09:58Z</time>
      </trkpt>
      <trkpt lat="40.100867" lon="-5.357983">
        <ele>1101.0</ele>
        <time>2014-05-17T14:09:59Z</time>
      </trkpt>
      <trkpt lat="40.100817" lon="-5.358067">
        <ele>1099.0</ele>
        <time>2014-05-17T14:10:00Z</time>
      </trkpt>
      <trkpt lat="40.100783" lon="-5.358167">
        <ele>1097.0</ele>
        <time>2014-05-17T14:10:01Z</time>
      </trkpt>
      <trkpt lat="40.100733" lon="-5.358267">
        <ele>1095.0</ele>
        <time>2014-05-17T14:10:02Z</time>
      </trkpt>
      <trkpt lat="40.100683" lon="-5.358367">
        <ele>1092.0</ele>
        <time>2014-05-17T14:10:03Z</time>
      </trkpt>
      <trkpt lat="40.100633" lon="-5.358483">
        <ele>1090.0</ele>
        <time>2014-05-17T14:10:04Z</time>
      </trkpt>
      <trkpt lat="40.100583" lon="-5.358600">
        <ele>1088.0</ele>
        <time>2014-05-17T14:10:05Z</time>
      </trkpt>
      <trkpt lat="40.100533" lon="-5.358700">
        <ele>1087.0</ele>
        <time>2014-05-17T14:10:06Z</time>
      </trkpt>
      <trkpt lat="40.100467" lon="-5.358867">
        <ele>1085.0</ele>
        <time>2014-05-17T14:10:08Z</time>
      </trkpt>
      <trkpt lat="40.100417" lon="-5.358950">
        <ele>1083.0</ele>
        <time>2014-05-17T14:10:09Z</time>
      </trkpt>
      <trkpt lat="40.100367" lon="-5.359050">
        <ele>1081.0</ele>
        <time>2014-05-17T14:10:10Z</time>
      </trkpt>
      <trkpt lat="40.100300" lon="-5.359150">
        <ele>1078.0</ele>
        <time>2014-05-17T14:10:11Z</time>
      </trkpt>
      <trkpt lat="40.100183" lon="-5.359333">
        <ele>1073.0</ele>
        <time>2014-05-17T14:10:13Z</time>
      </trkpt>
      <trkpt lat="40.100117" lon="-5.359417">
        <ele>1071.0</ele>
        <time>2014-05-17T14:10:14Z</time>
      </trkpt>
      <trkpt lat="40.100050" lon="-5.359500">
        <ele>1070.0</ele>
        <time>2014-05-17T14:10:15Z</time>
      </trkpt>
      <trkpt lat="40.099983" lon="-5.359583">
        <ele>1069.0</ele>
        <time>2014-05-17T14:10:16Z</time>
      </trkpt>
      <trkpt lat="40.099917" lon="-5.359683">
        <ele>1068.0</ele>
        <time>2014-05-17T14:10:17Z</time>
      </trkpt>
      <trkpt lat="40.099850" lon="-5.359783">
        <ele>1067.0</ele>
        <time>2014-05-17T14:10:18Z</time>
      </trkpt>
      <trkpt lat="40.099800" lon="-5.359883">
        <ele>1066.0</ele>
        <time>2014-05-17T14:10:19Z</time>
      </trkpt>
      <trkpt lat="40.099733" lon="-5.359983">
        <ele>1065.0</ele>
        <time>2014-05-17T14:10:20Z</time>
      </trkpt>
      <trkpt lat="40.099683" lon="-5.360083">
        <ele>1065.0</ele>
        <time>2014-05-17T14:10:21Z</time>
      </trkpt>
      <trkpt lat="40.099633" lon="-5.360183">
        <ele>1064.0</ele>
        <time>2014-05-17T14:10:22Z</time>
      </trkpt>
      <trkpt lat="40.099567" lon="-5.360283">
        <ele>1063.0</ele>
        <time>2014-05-17T14:10:23Z</time>
      </trkpt>
      <trkpt lat="40.099517" lon="-5.360367">
        <ele>1063.0</ele>
        <time>2014-05-17T14:10:24Z</time>
      </trkpt>
      <trkpt lat="40.099467" lon="-5.360450">
        <ele>1063.0</ele>
        <time>2014-05-17T14:10:25Z</time>
      </trkpt>
      <trkpt lat="40.099400" lon="-5.360550">
        <ele>1062.0</ele>
        <time>2014-05-17T14:10:26Z</time>
      </trkpt>
      <trkpt lat="40.099317" lon="-5.360633">
        <ele>1060.0</ele>
        <time>2014-05-17T14:10:27Z</time>
      </trkpt>
      <trkpt lat="40.099250" lon="-5.360717">
        <ele>1059.0</ele>
        <time>2014-05-17T14:10:28Z</time>
      </trkpt>
      <trkpt lat="40.099183" lon="-5.360817">
        <ele>1057.0</ele>
        <time>2014-05-17T14:10:29Z</time>
      </trkpt>
      <trkpt lat="40.099117" lon="-5.360900">
        <ele>1055.0</ele>
        <time>2014-05-17T14:10:30Z</time>
      </trkpt>
      <trkpt lat="40.099050" lon="-5.361000">
        <ele>1053.0</ele>
        <time>2014-05-17T14:10:31Z</time>
      </trkpt>
      <trkpt lat="40.099000" lon="-5.361100">
        <ele>1051.0</ele>
        <time>2014-05-17T14:10:32Z</time>
      </trkpt>
      <trkpt lat="40.098933" lon="-5.361183">
        <ele>1049.0</ele>
        <time>2014-05-17T14:10:33Z</time>
      </trkpt>
      <trkpt lat="40.098883" lon="-5.361283">
        <ele>1047.0</ele>
        <time>2014-05-17T14:10:34Z</time>
      </trkpt>
      <trkpt lat="40.098817" lon="-5.361367">
        <ele>1045.0</ele>
        <time>2014-05-17T14:10:35Z</time>
      </trkpt>
      <trkpt lat="40.098767" lon="-5.361450">
        <ele>1043.0</ele>
        <time>2014-05-17T14:10:36Z</time>
      </trkpt>
      <trkpt lat="40.098700" lon="-5.361550">
        <ele>1041.0</ele>
        <time>2014-05-17T14:10:37Z</time>
      </trkpt>
      <trkpt lat="40.098633" lon="-5.361633">
        <ele>1038.0</ele>
        <time>2014-05-17T14:10:38Z</time>
      </trkpt>
      <trkpt lat="40.098567" lon="-5.361733">
        <ele>1036.0</ele>
        <time>2014-05-17T14:10:39Z</time>
      </trkpt>
      <trkpt lat="40.098500" lon="-5.361817">
        <ele>1034.0</ele>
        <time>2014-05-17T14:10:40Z</time>
      </trkpt>
      <trkpt lat="40.098450" lon="-5.361917">
        <ele>1032.0</ele>
        <time>2014-05-17T14:10:41Z</time>
      </trkpt>
      <trkpt lat="40.098383" lon="-5.362000">
        <ele>1030.0</ele>
        <time>2014-05-17T14:10:42Z</time>
      </trkpt>
      <trkpt lat="40.098317" lon="-5.362100">
        <ele>1028.0</ele>
        <time>2014-05-17T14:10:43Z</time>
      </trkpt>
      <trkpt lat="40.098250" lon="-5.362183">
        <ele>1026.0</ele>
        <time>2014-05-17T14:10:44Z</time>
      </trkpt>
      <trkpt lat="40.098183" lon="-5.362267">
        <ele>1025.0</ele>
        <time>2014-05-17T14:10:45Z</time>
      </trkpt>
      <trkpt lat="40.098133" lon="-5.362350">
        <ele>1023.0</ele>
        <time>2014-05-17T14:10:46Z</time>
      </trkpt>
      <trkpt lat="40.098067" lon="-5.362433">
        <ele>1022.0</ele>
        <time>2014-05-17T14:10:47Z</time>
      </trkpt>
      <trkpt lat="40.098000" lon="-5.362517">
        <ele>1020.0</ele>
        <time>2014-05-17T14:10:48Z</time>
      </trkpt>
      <trkpt lat="40.097933" lon="-5.362600">
        <ele>1019.0</ele>
        <time>2014-05-17T14:10:49Z</time>
      </trkpt>
      <trkpt lat="40.097850" lon="-5.362683">
        <ele>1017.0</ele>
        <time>2014-05-17T14:10:50Z</time>
      </trkpt>
      <trkpt lat="40.097783" lon="-5.362783">
        <ele>1015.0</ele>
        <time>2014-05-17T14:10:51Z</time>
      </trkpt>
      <trkpt lat="40.097717" lon="-5.362883">
        <ele>1013.0</ele>
        <time>2014-05-17T14:10:52Z</time>
      </trkpt>
      <trkpt lat="40.097633" lon="-5.362967">
        <ele>1011.0</ele>
        <time>2014-05-17T14:10:53Z</time>
      </trkpt>
      <trkpt lat="40.097567" lon="-5.363050">
        <ele>1010.0</ele>
        <time>2014-05-17T14:10:54Z</time>
      </trkpt>
      <trkpt lat="40.097517" lon="-5.363150">
        <ele>1009.0</ele>
        <time>2014-05-17T14:10:55Z</time>
      </trkpt>
      <trkpt lat="40.097450" lon="-5.363250">
        <ele>1007.0</ele>
        <time>2014-05-17T14:10:56Z</time>
      </trkpt>
      <trkpt lat="40.097400" lon="-5.363350">
        <ele>1006.0</ele>
        <time>2014-05-17T14:10:57Z</time>
      </trkpt>
      <trkpt lat="40.097333" lon="-5.363450">
        <ele>1005.0</ele>
        <time>2014-05-17T14:10:58Z</time>
      </trkpt>
      <trkpt lat="40.097267" lon="-5.363550">
        <ele>1004.0</ele>
        <time>2014-05-17T14:10:59Z</time>
      </trkpt>
      <trkpt lat="40.097217" lon="-5.363650">
        <ele>1002.0</ele>
        <time>2014-05-17T14:11:00Z</time>
      </trkpt>
      <trkpt lat="40.097017" lon="-5.363967">
        <ele>996.0</ele>
        <time>2014-05-17T14:11:03Z</time>
      </trkpt>
      <trkpt lat="40.096967" lon="-5.364067">
        <ele>995.0</ele>
        <time>2014-05-17T14:11:04Z</time>
      </trkpt>
      <trkpt lat="40.096917" lon="-5.364183">
        <ele>993.0</ele>
        <time>2014-05-17T14:11:05Z</time>
      </trkpt>
      <trkpt lat="40.096850" lon="-5.364283">
        <ele>991.0</ele>
        <time>2014-05-17T14:11:06Z</time>
      </trkpt>
      <trkpt lat="40.096800" lon="-5.364400">
        <ele>989.0</ele>
        <time>2014-05-17T14:11:07Z</time>
      </trkpt>
      <trkpt lat="40.096750" lon="-5.364517">
        <ele>987.0</ele>
        <time>2014-05-17T14:11:08Z</time>
      </trkpt>
      <trkpt lat="40.096717" lon="-5.364633">
        <ele>985.0</ele>
        <time>2014-05-17T14:11:09Z</time>
      </trkpt>
      <trkpt lat="40.096667" lon="-5.364767">
        <ele>982.0</ele>
        <time>2014-05-17T14:11:10Z</time>
      </trkpt>
      <trkpt lat="40.096633" lon="-5.364900">
        <ele>980.0</ele>
        <time>2014-05-17T14:11:11Z</time>
      </trkpt>
      <trkpt lat="40.096583" lon="-5.365017">
        <ele>978.0</ele>
        <time>2014-05-17T14:11:12Z</time>
      </trkpt>
      <trkpt lat="40.096533" lon="-5.365150">
        <ele>976.0</ele>
        <time>2014-05-17T14:11:13Z</time>
      </trkpt>
      <trkpt lat="40.096500" lon="-5.365283">
        <ele>974.0</ele>
        <time>2014-05-17T14:11:14Z</time>
      </trkpt>
      <trkpt lat="40.096400" lon="-5.365550">
        <ele>969.0</ele>
        <time>2014-05-17T14:11:16Z</time>
      </trkpt>
      <trkpt lat="40.096350" lon="-5.365667">
        <ele>967.0</ele>
        <time>2014-05-17T14:11:17Z</time>
      </trkpt>
      <trkpt lat="40.096317" lon="-5.365800">
        <ele>966.0</ele>
        <time>2014-05-17T14:11:18Z</time>
      </trkpt>
      <trkpt lat="40.096267" lon="-5.365933">
        <ele>964.0</ele>
        <time>2014-05-17T14:11:19Z</time>
      </trkpt>
      <trkpt lat="40.096233" lon="-5.366067">
        <ele>962.0</ele>
        <time>2014-05-17T14:11:20Z</time>
      </trkpt>
      <trkpt lat="40.096183" lon="-5.366183">
        <ele>960.0</ele>
        <time>2014-05-17T14:11:21Z</time>
      </trkpt>
      <trkpt lat="40.096150" lon="-5.366317">
        <ele>958.0</ele>
        <time>2014-05-17T14:11:22Z</time>
      </trkpt>
      <trkpt lat="40.096067" lon="-5.366567">
        <ele>955.0</ele>
        <time>2014-05-17T14:11:24Z</time>
      </trkpt>
      <trkpt lat="40.096017" lon="-5.366700">
        <ele>953.0</ele>
        <time>2014-05-17T14:11:25Z</time>
      </trkpt>
      <trkpt lat="40.095983" lon="-5.366833">
        <ele>952.0</ele>
        <time>2014-05-17T14:11:26Z</time>
      </trkpt>
      <trkpt lat="40.095933" lon="-5.366967">
        <ele>950.0</ele>
        <time>2014-05-17T14:11:27Z</time>
      </trkpt>
      <trkpt lat="40.095900" lon="-5.367083">
        <ele>949.0</ele>
        <time>2014-05-17T14:11:28Z</time>
      </trkpt>
      <trkpt lat="40.095850" lon="-5.367200">
        <ele>948.0</ele>
        <time>2014-05-17T14:11:29Z</time>
      </trkpt>
      <trkpt lat="40.095800" lon="-5.367317">
        <ele>946.0</ele>
        <time>2014-05-17T14:11:30Z</time>
      </trkpt>
      <trkpt lat="40.095750" lon="-5.367450">
        <ele>944.0</ele>
        <time>2014-05-17T14:11:31Z</time>
      </trkpt>
      <trkpt lat="40.095700" lon="-5.367567">
        <ele>942.0</ele>
        <time>2014-05-17T14:11:32Z</time>
      </trkpt>
      <trkpt lat="40.095650" lon="-5.367700">
        <ele>940.0</ele>
        <time>2014-05-17T14:11:33Z</time>
      </trkpt>
      <trkpt lat="40.095600" lon="-5.367800">
        <ele>938.0</ele>
        <time>2014-05-17T14:11:34Z</time>
      </trkpt>
      <trkpt lat="40.095550" lon="-5.367917">
        <ele>937.0</ele>
        <time>2014-05-17T14:11:35Z</time>
      </trkpt>
      <trkpt lat="40.095433" lon="-5.368150">
        <ele>933.0</ele>
        <time>2014-05-17T14:11:37Z</time>
      </trkpt>
      <trkpt lat="40.095283" lon="-5.368467">
        <ele>927.0</ele>
        <time>2014-05-17T14:11:40Z</time>
      </trkpt>
      <trkpt lat="40.095233" lon="-5.368567">
        <ele>925.0</ele>
        <time>2014-05-17T14:11:41Z</time>
      </trkpt>
      <trkpt lat="40.095183" lon="-5.368683">
        <ele>923.0</ele>
        <time>2014-05-17T14:11:42Z</time>
      </trkpt>
      <trkpt lat="40.095150" lon="-5.368817">
        <ele>920.0</ele>
        <time>2014-05-17T14:11:43Z</time>
      </trkpt>
      <trkpt lat="40.095100" lon="-5.368950">
        <ele>918.0</ele>
        <time>2014-05-17T14:11:44Z</time>
      </trkpt>
      <trkpt lat="40.095067" lon="-5.369067">
        <ele>916.0</ele>
        <time>2014-05-17T14:11:45Z</time>
      </trkpt>
      <trkpt lat="40.095017" lon="-5.369200">
        <ele>914.0</ele>
        <time>2014-05-17T14:11:46Z</time>
      </trkpt>
      <trkpt lat="40.094983" lon="-5.369300">
        <ele>913.0</ele>
        <time>2014-05-17T14:11:47Z</time>
      </trkpt>
      <trkpt lat="40.094933" lon="-5.369417">
        <ele>911.0</ele>
        <time>2014-05-17T14:11:48Z</time>
      </trkpt>
      <trkpt lat="40.094883" lon="-5.369550">
        <ele>908.0</ele>
        <time>2014-05-17T14:11:49Z</time>
      </trkpt>
      <trkpt lat="40.094850" lon="-5.369667">
        <ele>906.0</ele>
        <time>2014-05-17T14:11:50Z</time>
      </trkpt>
      <trkpt lat="40.094800" lon="-5.369800">
        <ele>903.0</ele>
        <time>2014-05-17T14:11:51Z</time>
      </trkpt>
      <trkpt lat="40.094767" lon="-5.369933">
        <ele>900.0</ele>
        <time>2014-05-17T14:11:52Z</time>
      </trkpt>
      <trkpt lat="40.094717" lon="-5.370050">
        <ele>898.0</ele>
        <time>2014-05-17T14:11:53Z</time>
      </trkpt>
      <trkpt lat="40.094667" lon="-5.370167">
        <ele>896.0</ele>
        <time>2014-05-17T14:11:54Z</time>
      </trkpt>
      <trkpt lat="40.094617" lon="-5.370267">
        <ele>895.0</ele>
        <time>2014-05-17T14:11:55Z</time>
      </trkpt>
      <trkpt lat="40.094583" lon="-5.370383">
        <ele>893.0</ele>
        <time>2014-05-17T14:11:56Z</time>
      </trkpt>
      <trkpt lat="40.094533" lon="-5.370500">
        <ele>891.0</ele>
        <time>2014-05-17T14:11:57Z</time>
      </trkpt>
      <trkpt lat="40.094467" lon="-5.370617">
        <ele>890.0</ele>
        <time>2014-05-17T14:11:58Z</time>
      </trkpt>
      <trkpt lat="40.094417" lon="-5.370733">
        <ele>888.0</ele>
        <time>2014-05-17T14:11:59Z</time>
      </trkpt>
      <trkpt lat="40.094367" lon="-5.370850">
        <ele>886.0</ele>
        <time>2014-05-17T14:12:00Z</time>
      </trkpt>
      <trkpt lat="40.094317" lon="-5.370967">
        <ele>885.0</ele>
        <time>2014-05-17T14:12:01Z</time>
      </trkpt>
      <trkpt lat="40.094250" lon="-5.371083">
        <ele>883.0</ele>
        <time>2014-05-17T14:12:02Z</time>
      </trkpt>
      <trkpt lat="40.094200" lon="-5.371200">
        <ele>882.0</ele>
        <time>2014-05-17T14:12:03Z</time>
      </trkpt>
      <trkpt lat="40.094133" lon="-5.371317">
        <ele>880.0</ele>
        <time>2014-05-17T14:12:04Z</time>
      </trkpt>
      <trkpt lat="40.094083" lon="-5.371417">
        <ele>878.0</ele>
        <time>2014-05-17T14:12:05Z</time>
      </trkpt>
      <trkpt lat="40.094033" lon="-5.371533">
        <ele>877.0</ele>
        <time>2014-05-17T14:12:06Z</time>
      </trkpt>
      <trkpt lat="40.093967" lon="-5.371650">
        <ele>875.0</ele>
        <time>2014-05-17T14:12:07Z</time>
      </trkpt>
      <trkpt lat="40.093900" lon="-5.371767">
        <ele>872.0</ele>
        <time>2014-05-17T14:12:08Z</time>
      </trkpt>
      <trkpt lat="40.093850" lon="-5.371883">
        <ele>870.0</ele>
        <time>2014-05-17T14:12:09Z</time>
      </trkpt>
      <trkpt lat="40.093783" lon="-5.372000">
        <ele>868.0</ele>
        <time>2014-05-17T14:12:10Z</time>
      </trkpt>
      <trkpt lat="40.093733" lon="-5.372100">
        <ele>867.0</ele>
        <time>2014-05-17T14:12:11Z</time>
      </trkpt>
      <trkpt lat="40.093667" lon="-5.372217">
        <ele>865.0</ele>
        <time>2014-05-17T14:12:12Z</time>
      </trkpt>
      <trkpt lat="40.093617" lon="-5.372317">
        <ele>862.0</ele>
        <time>2014-05-17T14:12:13Z</time>
      </trkpt>
      <trkpt lat="40.093550" lon="-5.372433">
        <ele>861.0</ele>
        <time>2014-05-17T14:12:14Z</time>
      </trkpt>
      <trkpt lat="40.093483" lon="-5.372550">
        <ele>858.0</ele>
        <time>2014-05-17T14:12:15Z</time>
      </trkpt>
      <trkpt lat="40.093417" lon="-5.372650">
        <ele>856.0</ele>
        <time>2014-05-17T14:12:16Z</time>
      </trkpt>
      <trkpt lat="40.093350" lon="-5.372767">
        <ele>854.0</ele>
        <time>2014-05-17T14:12:17Z</time>
      </trkpt>
      <trkpt lat="40.093300" lon="-5.372867">
        <ele>852.0</ele>
        <time>2014-05-17T14:12:18Z</time>
      </trkpt>
      <trkpt lat="40.093233" lon="-5.372967">
        <ele>849.0</ele>
        <time>2014-05-17T14:12:19Z</time>
      </trkpt>
      <trkpt lat="40.093150" lon="-5.373083">
        <ele>846.0</ele>
        <time>2014-05-17T14:12:20Z</time>
      </trkpt>
      <trkpt lat="40.093067" lon="-5.373167">
        <ele>844.0</ele>
        <time>2014-05-17T14:12:21Z</time>
      </trkpt>
      <trkpt lat="40.093000" lon="-5.373250">
        <ele>843.0</ele>
        <time>2014-05-17T14:12:22Z</time>
      </trkpt>
      <trkpt lat="40.092950" lon="-5.373333">
        <ele>843.0</ele>
        <time>2014-05-17T14:12:23Z</time>
      </trkpt>
      <trkpt lat="40.092900" lon="-5.373433">
        <ele>843.0</ele>
        <time>2014-05-17T14:12:24Z</time>
      </trkpt>
      <trkpt lat="40.092850" lon="-5.373533">
        <ele>843.0</ele>
        <time>2014-05-17T14:12:25Z</time>
      </trkpt>
      <trkpt lat="40.092817" lon="-5.373617">
        <ele>842.0</ele>
        <time>2014-05-17T14:12:26Z</time>
      </trkpt>
      <trkpt lat="40.092767" lon="-5.373700">
        <ele>844.0</ele>
        <time>2014-05-17T14:12:27Z</time>
      </trkpt>
      <trkpt lat="40.092717" lon="-5.373767">
        <ele>845.0</ele>
        <time>2014-05-17T14:12:28Z</time>
      </trkpt>
      <trkpt lat="40.092683" lon="-5.373850">
        <ele>846.0</ele>
        <time>2014-05-17T14:12:29Z</time>
      </trkpt>
      <trkpt lat="40.092650" lon="-5.373950">
        <ele>847.0</ele>
        <time>2014-05-17T14:12:30Z</time>
      </trkpt>
      <trkpt lat="40.092650" lon="-5.374050">
        <ele>847.0</ele>
        <time>2014-05-17T14:12:31Z</time>
      </trkpt>
      <trkpt lat="40.092650" lon="-5.374167">
        <ele>848.0</ele>
        <time>2014-05-17T14:12:32Z</time>
      </trkpt>
      <trkpt lat="40.092683" lon="-5.374267">
        <ele>849.0</ele>
        <time>2014-05-17T14:12:33Z</time>
      </trkpt>
      <trkpt lat="40.092717" lon="-5.374350">
        <ele>851.0</ele>
        <time>2014-05-17T14:12:34Z</time>
      </trkpt>
      <trkpt lat="40.092767" lon="-5.374433">
        <ele>853.0</ele>
        <time>2014-05-17T14:12:35Z</time>
      </trkpt>
      <trkpt lat="40.092850" lon="-5.374467">
        <ele>854.0</ele>
        <time>2014-05-17T14:12:36Z</time>
      </trkpt>
      <trkpt lat="40.092933" lon="-5.374483">
        <ele>856.0</ele>
        <time>2014-05-17T14:12:37Z</time>
      </trkpt>
      <trkpt lat="40.093017" lon="-5.374467">
        <ele>858.0</ele>
        <time>2014-05-17T14:12:38Z</time>
      </trkpt>
      <trkpt lat="40.093083" lon="-5.374433">
        <ele>860.0</ele>
        <time>2014-05-17T14:12:39Z</time>
      </trkpt>
      <trkpt lat="40.093150" lon="-5.374400">
        <ele>863.0</ele>
        <time>2014-05-17T14:12:40Z</time>
      </trkpt>
      <trkpt lat="40.093250" lon="-5.374367">
        <ele>869.0</ele>
        <time>2014-05-17T14:12:42Z</time>
      </trkpt>
      <trkpt lat="40.093300" lon="-5.374333">
        <ele>870.0</ele>
        <time>2014-05-17T14:12:43Z</time>
      </trkpt>
      <trkpt lat="40.093400" lon="-5.374167">
        <ele>873.0</ele>
        <time>2014-05-17T14:12:46Z</time>
      </trkpt>
      <trkpt lat="40.093383" lon="-5.374050">
        <ele>875.0</ele>
        <time>2014-05-17T14:12:48Z</time>
      </trkpt>
      <trkpt lat="40.093367" lon="-5.374000">
        <ele>875.0</ele>
        <time>2014-05-17T14:12:49Z</time>
      </trkpt>
      <trkpt lat="40.093350" lon="-5.373933">
        <ele>874.0</ele>
        <time>2014-05-17T14:12:50Z</time>
      </trkpt>
      <trkpt lat="40.093317" lon="-5.373883">
        <ele>872.0</ele>
        <time>2014-05-17T14:12:51Z</time>
      </trkpt>
      <trkpt lat="40.093267" lon="-5.373833">
        <ele>869.0</ele>
        <time>2014-05-17T14:12:52Z</time>
      </trkpt>
      <trkpt lat="40.093217" lon="-5.373800">
        <ele>866.0</ele>
        <time>2014-05-17T14:12:53Z</time>
      </trkpt>
      <trkpt lat="40.093150" lon="-5.373783">
        <ele>864.0</ele>
        <time>2014-05-17T14:12:54Z</time>
      </trkpt>
      <trkpt lat="40.093083" lon="-5.373783">
        <ele>862.0</ele>
        <time>2014-05-17T14:12:55Z</time>
      </trkpt>
      <trkpt lat="40.093000" lon="-5.373783">
        <ele>859.0</ele>
        <time>2014-05-17T14:12:56Z</time>
      </trkpt>
      <trkpt lat="40.092933" lon="-5.373767">
        <ele>856.0</ele>
        <time>2014-05-17T14:12:57Z</time>
      </trkpt>
      <trkpt lat="40.092833" lon="-5.373767">
        <ele>854.0</ele>
        <time>2014-05-17T14:12:58Z</time>
      </trkpt>
      <trkpt lat="40.092750" lon="-5.373800">
        <ele>852.0</ele>
        <time>2014-05-17T14:12:59Z</time>
      </trkpt>
      <trkpt lat="40.092683" lon="-5.373850">
        <ele>852.0</ele>
        <time>2014-05-17T14:13:00Z</time>
      </trkpt>
      <trkpt lat="40.092600" lon="-5.373917">
        <ele>850.0</ele>
        <time>2014-05-17T14:13:01Z</time>
      </trkpt>
      <trkpt lat="40.092500" lon="-5.373983">
        <ele>850.0</ele>
        <time>2014-05-17T14:13:02Z</time>
      </trkpt>
      <trkpt lat="40.092417" lon="-5.374050">
        <ele>850.0</ele>
        <time>2014-05-17T14:13:03Z</time>
      </trkpt>
      <trkpt lat="40.092333" lon="-5.374117">
        <ele>851.0</ele>
        <time>2014-05-17T14:13:04Z</time>
      </trkpt>
      <trkpt lat="40.092283" lon="-5.374200">
        <ele>854.0</ele>
        <time>2014-05-17T14:13:05Z</time>
      </trkpt>
      <trkpt lat="40.092217" lon="-5.374267">
        <ele>856.0</ele>
        <time>2014-05-17T14:13:06Z</time>
      </trkpt>
      <trkpt lat="40.092150" lon="-5.374333">
        <ele>857.0</ele>
        <time>2014-05-17T14:13:07Z</time>
      </trkpt>
      <trkpt lat="40.092100" lon="-5.374433">
        <ele>858.0</ele>
        <time>2014-05-17T14:13:08Z</time>
      </trkpt>
      <trkpt lat="40.092067" lon="-5.374550">
        <ele>860.0</ele>
        <time>2014-05-17T14:13:09Z</time>
      </trkpt>
      <trkpt lat="40.092067" lon="-5.374683">
        <ele>861.0</ele>
        <time>2014-05-17T14:13:10Z</time>
      </trkpt>
      <trkpt lat="40.092083" lon="-5.374817">
        <ele>862.0</ele>
        <time>2014-05-17T14:13:11Z</time>
      </trkpt>
      <trkpt lat="40.092117" lon="-5.374917">
        <ele>863.0</ele>
        <time>2014-05-17T14:13:12Z</time>
      </trkpt>
      <trkpt lat="40.092167" lon="-5.374967">
        <ele>866.0</ele>
        <time>2014-05-17T14:13:13Z</time>
      </trkpt>
      <trkpt lat="40.092217" lon="-5.374983">
        <ele>868.0</ele>
        <time>2014-05-17T14:13:14Z</time>
      </trkpt>
      <trkpt lat="40.092267" lon="-5.374967">
        <ele>869.0</ele>
        <time>2014-05-17T14:13:15Z</time>
      </trkpt>
      <trkpt lat="40.092317" lon="-5.374933">
        <ele>870.0</ele>
        <time>2014-05-17T14:13:16Z</time>
      </trkpt>
      <trkpt lat="40.092367" lon="-5.374817">
        <ele>872.0</ele>
        <time>2014-05-17T14:13:18Z</time>
      </trkpt>
      <trkpt lat="40.092367" lon="-5.374733">
        <ele>874.0</ele>
        <time>2014-05-17T14:13:19Z</time>
      </trkpt>
      <trkpt lat="40.092367" lon="-5.374650">
        <ele>875.0</ele>
        <time>2014-05-17T14:13:20Z</time>
      </trkpt>
      <trkpt lat="40.092367" lon="-5.374567">
        <ele>876.0</ele>
        <time>2014-05-17T14:13:21Z</time>
      </trkpt>
      <trkpt lat="40.092333" lon="-5.374500">
        <ele>877.0</ele>
        <time>2014-05-17T14:13:22Z</time>
      </trkpt>
      <trkpt lat="40.092300" lon="-5.374467">
        <ele>879.0</ele>
        <time>2014-05-17T14:13:23Z</time>
      </trkpt>
      <trkpt lat="40.092250" lon="-5.374433">
        <ele>880.0</ele>
        <time>2014-05-17T14:13:24Z</time>
      </trkpt>
      <trkpt lat="40.092183" lon="-5.374400">
        <ele>880.0</ele>
        <time>2014-05-17T14:13:25Z</time>
      </trkpt>
      <trkpt lat="40.092100" lon="-5.374367">
        <ele>879.0</ele>
        <time>2014-05-17T14:13:26Z</time>
      </trkpt>
      <trkpt lat="40.092000" lon="-5.374367">
        <ele>877.0</ele>
        <time>2014-05-17T14:13:27Z</time>
      </trkpt>
      <trkpt lat="40.091883" lon="-5.374383">
        <ele>875.0</ele>
        <time>2014-05-17T14:13:28Z</time>
      </trkpt>
      <trkpt lat="40.091783" lon="-5.374417">
        <ele>875.0</ele>
        <time>2014-05-17T14:13:29Z</time>
      </trkpt>
      <trkpt lat="40.091700" lon="-5.374483">
        <ele>876.0</ele>
        <time>2014-05-17T14:13:30Z</time>
      </trkpt>
      <trkpt lat="40.091633" lon="-5.374550">
        <ele>875.0</ele>
        <time>2014-05-17T14:13:31Z</time>
      </trkpt>
      <trkpt lat="40.091567" lon="-5.374650">
        <ele>874.0</ele>
        <time>2014-05-17T14:13:32Z</time>
      </trkpt>
      <trkpt lat="40.091500" lon="-5.374750">
        <ele>873.0</ele>
        <time>2014-05-17T14:13:33Z</time>
      </trkpt>
      <trkpt lat="40.091417" lon="-5.374867">
        <ele>871.0</ele>
        <time>2014-05-17T14:13:34Z</time>
      </trkpt>
      <trkpt lat="40.091333" lon="-5.374967">
        <ele>869.0</ele>
        <time>2014-05-17T14:13:35Z</time>
      </trkpt>
      <trkpt lat="40.091267" lon="-5.375067">
        <ele>868.0</ele>
        <time>2014-05-17T14:13:36Z</time>
      </trkpt>
      <trkpt lat="40.091217" lon="-5.375167">
        <ele>868.0</ele>
        <time>2014-05-17T14:13:37Z</time>
      </trkpt>
      <trkpt lat="40.091167" lon="-5.375283">
        <ele>867.0</ele>
        <time>2014-05-17T14:13:38Z</time>
      </trkpt>
      <trkpt lat="40.091133" lon="-5.375417">
        <ele>866.0</ele>
        <time>2014-05-17T14:13:39Z</time>
      </trkpt>
      <trkpt lat="40.091100" lon="-5.375567">
        <ele>865.0</ele>
        <time>2014-05-17T14:13:40Z</time>
      </trkpt>
      <trkpt lat="40.091050" lon="-5.375700">
        <ele>863.0</ele>
        <time>2014-05-17T14:13:41Z</time>
      </trkpt>
      <trkpt lat="40.091000" lon="-5.375833">
        <ele>863.0</ele>
        <time>2014-05-17T14:13:42Z</time>
      </trkpt>
      <trkpt lat="40.090900" lon="-5.376250">
        <ele>862.0</ele>
        <time>2014-05-17T14:13:45Z</time>
      </trkpt>
      <trkpt lat="40.090850" lon="-5.376417">
        <ele>862.0</ele>
        <time>2014-05-17T14:13:46Z</time>
      </trkpt>
      <trkpt lat="40.090817" lon="-5.376567">
        <ele>862.0</ele>
        <time>2014-05-17T14:13:47Z</time>
      </trkpt>
      <trkpt lat="40.090783" lon="-5.376717">
        <ele>861.0</ele>
        <time>2014-05-17T14:13:48Z</time>
      </trkpt>
      <trkpt lat="40.090750" lon="-5.376867">
        <ele>861.0</ele>
        <time>2014-05-17T14:13:49Z</time>
      </trkpt>
      <trkpt lat="40.090700" lon="-5.377000">
        <ele>862.0</ele>
        <time>2014-05-17T14:13:50Z</time>
      </trkpt>
      <trkpt lat="40.090667" lon="-5.377117">
        <ele>862.0</ele>
        <time>2014-05-17T14:13:51Z</time>
      </trkpt>
      <trkpt lat="40.090617" lon="-5.377250">
        <ele>863.0</ele>
        <time>2014-05-17T14:13:52Z</time>
      </trkpt>
      <trkpt lat="40.090567" lon="-5.377383">
        <ele>863.0</ele>
        <time>2014-05-17T14:13:53Z</time>
      </trkpt>
      <trkpt lat="40.090517" lon="-5.377533">
        <ele>864.0</ele>
        <time>2014-05-17T14:13:54Z</time>
      </trkpt>
      <trkpt lat="40.090500" lon="-5.377683">
        <ele>865.0</ele>
        <time>2014-05-17T14:13:55Z</time>
      </trkpt>
      <trkpt lat="40.090500" lon="-5.377817">
        <ele>866.0</ele>
        <time>2014-05-17T14:13:56Z</time>
      </trkpt>
      <trkpt lat="40.090500" lon="-5.377967">
        <ele>867.0</ele>
        <time>2014-05-17T14:13:57Z</time>
      </trkpt>
      <trkpt lat="40.090533" lon="-5.378100">
        <ele>867.0</ele>
        <time>2014-05-17T14:13:58Z</time>
      </trkpt>
      <trkpt lat="40.090583" lon="-5.378250">
        <ele>868.0</ele>
        <time>2014-05-17T14:13:59Z</time>
      </trkpt>
      <trkpt lat="40.090667" lon="-5.378383">
        <ele>869.0</ele>
        <time>2014-05-17T14:14:00Z</time>
      </trkpt>
      <trkpt lat="40.090733" lon="-5.378450">
        <ele>875.0</ele>
        <time>2014-05-17T14:14:01Z</time>
      </trkpt>
      <trkpt lat="40.090783" lon="-5.378500">
        <ele>882.0</ele>
        <time>2014-05-17T14:14:02Z</time>
      </trkpt>
      <trkpt lat="40.090833" lon="-5.378500">
        <ele>889.0</ele>
        <time>2014-05-17T14:14:03Z</time>
      </trkpt>
      <trkpt lat="40.090883" lon="-5.378517">
        <ele>892.0</ele>
        <time>2014-05-17T14:14:04Z</time>
      </trkpt>
      <trkpt lat="40.090950" lon="-5.378567">
        <ele>894.0</ele>
        <time>2014-05-17T14:14:05Z</time>
      </trkpt>
      <trkpt lat="40.091033" lon="-5.378650">
        <ele>895.0</ele>
        <time>2014-05-17T14:14:06Z</time>
      </trkpt>
      <trkpt lat="40.091133" lon="-5.378700">
        <ele>897.0</ele>
        <time>2014-05-17T14:14:07Z</time>
      </trkpt>
      <trkpt lat="40.091217" lon="-5.378717">
        <ele>899.0</ele>
        <time>2014-05-17T14:14:08Z</time>
      </trkpt>
      <trkpt lat="40.091267" lon="-5.378683">
        <ele>902.0</ele>
        <time>2014-05-17T14:14:09Z</time>
      </trkpt>
      <trkpt lat="40.091317" lon="-5.378617">
        <ele>906.0</ele>
        <time>2014-05-17T14:14:10Z</time>
      </trkpt>
      <trkpt lat="40.091350" lon="-5.378550">
        <ele>908.0</ele>
        <time>2014-05-17T14:14:11Z</time>
      </trkpt>
      <trkpt lat="40.091367" lon="-5.378467">
        <ele>912.0</ele>
        <time>2014-05-17T14:14:12Z</time>
      </trkpt>
      <trkpt lat="40.091350" lon="-5.378400">
        <ele>915.0</ele>
        <time>2014-05-17T14:14:13Z</time>
      </trkpt>
      <trkpt lat="40.091333" lon="-5.378350">
        <ele>918.0</ele>
        <time>2014-05-17T14:14:14Z</time>
      </trkpt>
      <trkpt lat="40.091317" lon="-5.378283">
        <ele>922.0</ele>
        <time>2014-05-17T14:14:15Z</time>
      </trkpt>
      <trkpt lat="40.091267" lon="-5.378233">
        <ele>924.0</ele>
        <time>2014-05-17T14:14:16Z</time>
      </trkpt>
      <trkpt lat="40.091217" lon="-5.378183">
        <ele>926.0</ele>
        <time>2014-05-17T14:14:17Z</time>
      </trkpt>
      <trkpt lat="40.091150" lon="-5.378150">
        <ele>928.0</ele>
        <time>2014-05-17T14:14:18Z</time>
      </trkpt>
      <trkpt lat="40.091067" lon="-5.378150">
        <ele>929.0</ele>
        <time>2014-05-17T14:14:19Z</time>
      </trkpt>
      <trkpt lat="40.090983" lon="-5.378167">
        <ele>931.0</ele>
        <time>2014-05-17T14:14:20Z</time>
      </trkpt>
      <trkpt lat="40.090900" lon="-5.378200">
        <ele>934.0</ele>
        <time>2014-05-17T14:14:21Z</time>
      </trkpt>
      <trkpt lat="40.090817" lon="-5.378233">
        <ele>936.0</ele>
        <time>2014-05-17T14:14:22Z</time>
      </trkpt>
      <trkpt lat="40.090717" lon="-5.378283">
        <ele>938.0</ele>
        <time>2014-05-17T14:14:23Z</time>
      </trkpt>
      <trkpt lat="40.090633" lon="-5.378333">
        <ele>939.0</ele>
        <time>2014-05-17T14:14:24Z</time>
      </trkpt>
      <trkpt lat="40.090533" lon="-5.378417">
        <ele>940.0</ele>
        <time>2014-05-17T14:14:25Z</time>
      </trkpt>
      <trkpt lat="40.090433" lon="-5.378533">
        <ele>941.0</ele>
        <time>2014-05-17T14:14:26Z</time>
      </trkpt>
      <trkpt lat="40.090367" lon="-5.378667">
        <ele>942.0</ele>
        <time>2014-05-17T14:14:27Z</time>
      </trkpt>
      <trkpt lat="40.090333" lon="-5.378817">
        <ele>943.0</ele>
        <time>2014-05-17T14:14:28Z</time>
      </trkpt>
      <trkpt lat="40.090317" lon="-5.378983">
        <ele>944.0</ele>
        <time>2014-05-17T14:14:29Z</time>
      </trkpt>
      <trkpt lat="40.090333" lon="-5.379133">
        <ele>944.0</ele>
        <time>2014-05-17T14:14:30Z</time>
      </trkpt>
      <trkpt lat="40.090367" lon="-5.379267">
        <ele>945.0</ele>
        <time>2014-05-17T14:14:31Z</time>
      </trkpt>
      <trkpt lat="40.090383" lon="-5.379400">
        <ele>946.0</ele>
        <time>2014-05-17T14:14:32Z</time>
      </trkpt>
      <trkpt lat="40.090417" lon="-5.379533">
        <ele>946.0</ele>
        <time>2014-05-17T14:14:33Z</time>
      </trkpt>
      <trkpt lat="40.090433" lon="-5.379683">
        <ele>946.0</ele>
        <time>2014-05-17T14:14:34Z</time>
      </trkpt>
      <trkpt lat="40.090483" lon="-5.379850">
        <ele>947.0</ele>
        <time>2014-05-17T14:14:35Z</time>
      </trkpt>
      <trkpt lat="40.090533" lon="-5.380000">
        <ele>950.0</ele>
        <time>2014-05-17T14:14:36Z</time>
      </trkpt>
      <trkpt lat="40.090583" lon="-5.380100">
        <ele>955.0</ele>
        <time>2014-05-17T14:14:37Z</time>
      </trkpt>
      <trkpt lat="40.090617" lon="-5.380183">
        <ele>961.0</ele>
        <time>2014-05-17T14:14:38Z</time>
      </trkpt>
      <trkpt lat="40.090633" lon="-5.380267">
        <ele>965.0</ele>
        <time>2014-05-17T14:14:39Z</time>
      </trkpt>
      <trkpt lat="40.090667" lon="-5.380383">
        <ele>968.0</ele>
        <time>2014-05-17T14:14:40Z</time>
      </trkpt>
      <trkpt lat="40.090717" lon="-5.380500">
        <ele>970.0</ele>
        <time>2014-05-17T14:14:41Z</time>
      </trkpt>
      <trkpt lat="40.090767" lon="-5.380600">
        <ele>972.0</ele>
        <time>2014-05-17T14:14:42Z</time>
      </trkpt>
      <trkpt lat="40.090817" lon="-5.380667">
        <ele>976.0</ele>
        <time>2014-05-17T14:14:43Z</time>
      </trkpt>
      <trkpt lat="40.090867" lon="-5.380700">
        <ele>979.0</ele>
        <time>2014-05-17T14:14:44Z</time>
      </trkpt>
      <trkpt lat="40.090933" lon="-5.380717">
        <ele>983.0</ele>
        <time>2014-05-17T14:14:45Z</time>
      </trkpt>
      <trkpt lat="40.091050" lon="-5.380633">
        <ele>992.0</ele>
        <time>2014-05-17T14:14:48Z</time>
      </trkpt>
      <trkpt lat="40.091067" lon="-5.380583">
        <ele>995.0</ele>
        <time>2014-05-17T14:14:49Z</time>
      </trkpt>
      <trkpt lat="40.091083" lon="-5.380500">
        <ele>998.0</ele>
        <time>2014-05-17T14:14:50Z</time>
      </trkpt>
      <trkpt lat="40.091067" lon="-5.380417">
        <ele>999.0</ele>
        <time>2014-05-17T14:14:51Z</time>
      </trkpt>
      <trkpt lat="40.091050" lon="-5.380333">
        <ele>1001.0</ele>
        <time>2014-05-17T14:14:52Z</time>
      </trkpt>
      <trkpt lat="40.091000" lon="-5.380250">
        <ele>1003.0</ele>
        <time>2014-05-17T14:14:53Z</time>
      </trkpt>
      <trkpt lat="40.090933" lon="-5.380200">
        <ele>1006.0</ele>
        <time>2014-05-17T14:14:54Z</time>
      </trkpt>
      <trkpt lat="40.090850" lon="-5.380167">
        <ele>1008.0</ele>
        <time>2014-05-17T14:14:55Z</time>
      </trkpt>
      <trkpt lat="40.090750" lon="-5.380183">
        <ele>1012.0</ele>
        <time>2014-05-17T14:14:56Z</time>
      </trkpt>
      <trkpt lat="40.090667" lon="-5.380233">
        <ele>1016.0</ele>
        <time>2014-05-17T14:14:57Z</time>
      </trkpt>
      <trkpt lat="40.090583" lon="-5.380283">
        <ele>1019.0</ele>
        <time>2014-05-17T14:14:58Z</time>
      </trkpt>
      <trkpt lat="40.090500" lon="-5.380333">
        <ele>1023.0</ele>
        <time>2014-05-17T14:14:59Z</time>
      </trkpt>
      <trkpt lat="40.090433" lon="-5.380400">
        <ele>1026.0</ele>
        <time>2014-05-17T14:15:00Z</time>
      </trkpt>
      <trkpt lat="40.090367" lon="-5.380483">
        <ele>1030.0</ele>
        <time>2014-05-17T14:15:01Z</time>
      </trkpt>
      <trkpt lat="40.090300" lon="-5.380600">
        <ele>1032.0</ele>
        <time>2014-05-17T14:15:02Z</time>
      </trkpt>
      <trkpt lat="40.090233" lon="-5.380717">
        <ele>1034.0</ele>
        <time>2014-05-17T14:15:03Z</time>
      </trkpt>
      <trkpt lat="40.090183" lon="-5.380850">
        <ele>1036.0</ele>
        <time>2014-05-17T14:15:04Z</time>
      </trkpt>
      <trkpt lat="40.090133" lon="-5.381000">
        <ele>1038.0</ele>
        <time>2014-05-17T14:15:05Z</time>
      </trkpt>
      <trkpt lat="40.090083" lon="-5.381150">
        <ele>1040.0</ele>
        <time>2014-05-17T14:15:06Z</time>
      </trkpt>
      <trkpt lat="40.090050" lon="-5.381300">
        <ele>1042.0</ele>
        <time>2014-05-17T14:15:07Z</time>
      </trkpt>
      <trkpt lat="40.090050" lon="-5.381483">
        <ele>1044.0</ele>
        <time>2014-05-17T14:15:08Z</time>
      </trkpt>
      <trkpt lat="40.090083" lon="-5.381667">
        <ele>1046.0</ele>
        <time>2014-05-17T14:15:09Z</time>
      </trkpt>
      <trkpt lat="40.090133" lon="-5.381817">
        <ele>1049.0</ele>
        <time>2014-05-17T14:15:10Z</time>
      </trkpt>
      <trkpt lat="40.090183" lon="-5.381950">
        <ele>1053.0</ele>
        <time>2014-05-17T14:15:11Z</time>
      </trkpt>
      <trkpt lat="40.090233" lon="-5.382050">
        <ele>1059.0</ele>
        <time>2014-05-17T14:15:12Z</time>
      </trkpt>
      <trkpt lat="40.090267" lon="-5.382150">
        <ele>1064.0</ele>
        <time>2014-05-17T14:15:13Z</time>
      </trkpt>
      <trkpt lat="40.090317" lon="-5.382233">
        <ele>1068.0</ele>
        <time>2014-05-17T14:15:14Z</time>
      </trkpt>
      <trkpt lat="40.090400" lon="-5.382317">
        <ele>1071.0</ele>
        <time>2014-05-17T14:15:15Z</time>
      </trkpt>
      <trkpt lat="40.090483" lon="-5.382417">
        <ele>1074.0</ele>
        <time>2014-05-17T14:15:16Z</time>
      </trkpt>
      <trkpt lat="40.090567" lon="-5.382517">
        <ele>1077.0</ele>
        <time>2014-05-17T14:15:17Z</time>
      </trkpt>
      <trkpt lat="40.090617" lon="-5.382617">
        <ele>1082.0</ele>
        <time>2014-05-17T14:15:18Z</time>
      </trkpt>
      <trkpt lat="40.090667" lon="-5.382683">
        <ele>1087.0</ele>
        <time>2014-05-17T14:15:19Z</time>
      </trkpt>
      <trkpt lat="40.090717" lon="-5.382733">
        <ele>1092.0</ele>
        <time>2014-05-17T14:15:20Z</time>
      </trkpt>
      <trkpt lat="40.090783" lon="-5.382767">
        <ele>1096.0</ele>
        <time>2014-05-17T14:15:21Z</time>
      </trkpt>
      <trkpt lat="40.090833" lon="-5.382800">
        <ele>1098.0</ele>
        <time>2014-05-17T14:15:22Z</time>
      </trkpt>
      <trkpt lat="40.090917" lon="-5.382833">
        <ele>1100.0</ele>
        <time>2014-05-17T14:15:23Z</time>
      </trkpt>
      <trkpt lat="40.091000" lon="-5.382850">
        <ele>1102.0</ele>
        <time>2014-05-17T14:15:24Z</time>
      </trkpt>
      <trkpt lat="40.091100" lon="-5.382867">
        <ele>1104.0</ele>
        <time>2014-05-17T14:15:25Z</time>
      </trkpt>
      <trkpt lat="40.091183" lon="-5.382867">
        <ele>1108.0</ele>
        <time>2014-05-17T14:15:26Z</time>
      </trkpt>
      <trkpt lat="40.091267" lon="-5.382867">
        <ele>1112.0</ele>
        <time>2014-05-17T14:15:27Z</time>
      </trkpt>
      <trkpt lat="40.091333" lon="-5.382817">
        <ele>1115.0</ele>
        <time>2014-05-17T14:15:28Z</time>
      </trkpt>
      <trkpt lat="40.091400" lon="-5.382767">
        <ele>1119.0</ele>
        <time>2014-05-17T14:15:29Z</time>
      </trkpt>
      <trkpt lat="40.091450" lon="-5.382700">
        <ele>1123.0</ele>
        <time>2014-05-17T14:15:30Z</time>
      </trkpt>
      <trkpt lat="40.091500" lon="-5.382633">
        <ele>1126.0</ele>
        <time>2014-05-17T14:15:31Z</time>
      </trkpt>
      <trkpt lat="40.091517" lon="-5.382550">
        <ele>1131.0</ele>
        <time>2014-05-17T14:15:32Z</time>
      </trkpt>
      <trkpt lat="40.091517" lon="-5.382467">
        <ele>1135.0</ele>
        <time>2014-05-17T14:15:33Z</time>
      </trkpt>
      <trkpt lat="40.091500" lon="-5.382400">
        <ele>1138.0</ele>
        <time>2014-05-17T14:15:34Z</time>
      </trkpt>
      <trkpt lat="40.091467" lon="-5.382350">
        <ele>1141.0</ele>
        <time>2014-05-17T14:15:35Z</time>
      </trkpt>
      <trkpt lat="40.091400" lon="-5.382283">
        <ele>1142.0</ele>
        <time>2014-05-17T14:15:36Z</time>
      </trkpt>
      <trkpt lat="40.091317" lon="-5.382217">
        <ele>1144.0</ele>
        <time>2014-05-17T14:15:37Z</time>
      </trkpt>
      <trkpt lat="40.091233" lon="-5.382183">
        <ele>1146.0</ele>
        <time>2014-05-17T14:15:38Z</time>
      </trkpt>
      <trkpt lat="40.091150" lon="-5.382183">
        <ele>1148.0</ele>
        <time>2014-05-17T14:15:39Z</time>
      </trkpt>
      <trkpt lat="40.091050" lon="-5.382200">
        <ele>1151.0</ele>
        <time>2014-05-17T14:15:40Z</time>
      </trkpt>
      <trkpt lat="40.090950" lon="-5.382233">
        <ele>1152.0</ele>
        <time>2014-05-17T14:15:41Z</time>
      </trkpt>
      <trkpt lat="40.090850" lon="-5.382250">
        <ele>1154.0</ele>
        <time>2014-05-17T14:15:42Z</time>
      </trkpt>
      <trkpt lat="40.090750" lon="-5.382283">
        <ele>1157.0</ele>
        <time>2014-05-17T14:15:43Z</time>
      </trkpt>
      <trkpt lat="40.090667" lon="-5.382317">
        <ele>1160.0</ele>
        <time>2014-05-17T14:15:44Z</time>
      </trkpt>
      <trkpt lat="40.090600" lon="-5.382383">
        <ele>1163.0</ele>
        <time>2014-05-17T14:15:45Z</time>
      </trkpt>
      <trkpt lat="40.090500" lon="-5.382483">
        <ele>1165.0</ele>
        <time>2014-05-17T14:15:46Z</time>
      </trkpt>
      <trkpt lat="40.090417" lon="-5.382600">
        <ele>1166.0</ele>
        <time>2014-05-17T14:15:47Z</time>
      </trkpt>
      <trkpt lat="40.090333" lon="-5.382717">
        <ele>1168.0</ele>
        <time>2014-05-17T14:15:48Z</time>
      </trkpt>
      <trkpt lat="40.090267" lon="-5.382817">
        <ele>1172.0</ele>
        <time>2014-05-17T14:15:49Z</time>
      </trkpt>
      <trkpt lat="40.090217" lon="-5.382933">
        <ele>1176.0</ele>
        <time>2014-05-17T14:15:50Z</time>
      </trkpt>
      <trkpt lat="40.090167" lon="-5.383050">
        <ele>1180.0</ele>
        <time>2014-05-17T14:15:51Z</time>
      </trkpt>
      <trkpt lat="40.090150" lon="-5.383183">
        <ele>1184.0</ele>
        <time>2014-05-17T14:15:52Z</time>
      </trkpt>
      <trkpt lat="40.090150" lon="-5.383350">
        <ele>1187.0</ele>
        <time>2014-05-17T14:15:53Z</time>
      </trkpt>
      <trkpt lat="40.090167" lon="-5.383500">
        <ele>1190.0</ele>
        <time>2014-05-17T14:15:54Z</time>
      </trkpt>
      <trkpt lat="40.090217" lon="-5.383633">
        <ele>1193.0</ele>
        <time>2014-05-17T14:15:55Z</time>
      </trkpt>
      <trkpt lat="40.090283" lon="-5.383750">
        <ele>1197.0</ele>
        <time>2014-05-17T14:15:56Z</time>
      </trkpt>
      <trkpt lat="40.090350" lon="-5.383867">
        <ele>1200.0</ele>
        <time>2014-05-17T14:15:57Z</time>
      </trkpt>
      <trkpt lat="40.090417" lon="-5.383967">
        <ele>1204.0</ele>
        <time>2014-05-17T14:15:58Z</time>
      </trkpt>
      <trkpt lat="40.090500" lon="-5.384050">
        <ele>1207.0</ele>
        <time>2014-05-17T14:15:59Z</time>
      </trkpt>
      <trkpt lat="40.090567" lon="-5.384100">
        <ele>1211.0</ele>
        <time>2014-05-17T14:16:00Z</time>
      </trkpt>
      <trkpt lat="40.090650" lon="-5.384117">
        <ele>1214.0</ele>
        <time>2014-05-17T14:16:01Z</time>
      </trkpt>
      <trkpt lat="40.090783" lon="-5.384100">
        <ele>1219.0</ele>
        <time>2014-05-17T14:16:03Z</time>
      </trkpt>
      <trkpt lat="40.090850" lon="-5.384083">
        <ele>1223.0</ele>
        <time>2014-05-17T14:16:04Z</time>
      </trkpt>
      <trkpt lat="40.090883" lon="-5.384033">
        <ele>1227.0</ele>
        <time>2014-05-17T14:16:05Z</time>
      </trkpt>
      <trkpt lat="40.090900" lon="-5.383983">
        <ele>1230.0</ele>
        <time>2014-05-17T14:16:06Z</time>
      </trkpt>
      <trkpt lat="40.090917" lon="-5.383900">
        <ele>1233.0</ele>
        <time>2014-05-17T14:16:07Z</time>
      </trkpt>
      <trkpt lat="40.090917" lon="-5.383817">
        <ele>1236.0</ele>
        <time>2014-05-17T14:16:08Z</time>
      </trkpt>
      <trkpt lat="40.090917" lon="-5.383733">
        <ele>1238.0</ele>
        <time>2014-05-17T14:16:09Z</time>
      </trkpt>
      <trkpt lat="40.090883" lon="-5.383650">
        <ele>1241.0</ele>
        <time>2014-05-17T14:16:10Z</time>
      </trkpt>
      <trkpt lat="40.090833" lon="-5.383583">
        <ele>1244.0</ele>
        <time>2014-05-17T14:16:11Z</time>
      </trkpt>
      <trkpt lat="40.090750" lon="-5.383533">
        <ele>1248.0</ele>
        <time>2014-05-17T14:16:12Z</time>
      </trkpt>
      <trkpt lat="40.090683" lon="-5.383517">
        <ele>1253.0</ele>
        <time>2014-05-17T14:16:13Z</time>
      </trkpt>
      <trkpt lat="40.090617" lon="-5.383517">
        <ele>1257.0</ele>
        <time>2014-05-17T14:16:14Z</time>
      </trkpt>
      <trkpt lat="40.090550" lon="-5.383500">
        <ele>1260.0</ele>
        <time>2014-05-17T14:16:15Z</time>
      </trkpt>
      <trkpt lat="40.090450" lon="-5.383500">
        <ele>1262.0</ele>
        <time>2014-05-17T14:16:16Z</time>
      </trkpt>
      <trkpt lat="40.090350" lon="-5.383517">
        <ele>1264.0</ele>
        <time>2014-05-17T14:16:17Z</time>
      </trkpt>
      <trkpt lat="40.090267" lon="-5.383567">
        <ele>1267.0</ele>
        <time>2014-05-17T14:16:18Z</time>
      </trkpt>
      <trkpt lat="40.090183" lon="-5.383617">
        <ele>1270.0</ele>
        <time>2014-05-17T14:16:19Z</time>
      </trkpt>
      <trkpt lat="40.090100" lon="-5.383683">
        <ele>1273.0</ele>
        <time>2014-05-17T14:16:20Z</time>
      </trkpt>
      <trkpt lat="40.090017" lon="-5.383733">
        <ele>1276.0</ele>
        <time>2014-05-17T14:16:21Z</time>
      </trkpt>
      <trkpt lat="40.089933" lon="-5.383800">
        <ele>1279.0</ele>
        <time>2014-05-17T14:16:22Z</time>
      </trkpt>
      <trkpt lat="40.089867" lon="-5.383900">
        <ele>1281.0</ele>
        <time>2014-05-17T14:16:23Z</time>
      </trkpt>
      <trkpt lat="40.089800" lon="-5.384000">
        <ele>1284.0</ele>
        <time>2014-05-17T14:16:24Z</time>
      </trkpt>
      <trkpt lat="40.089733" lon="-5.384133">
        <ele>1286.0</ele>
        <time>2014-05-17T14:16:25Z</time>
      </trkpt>
      <trkpt lat="40.089667" lon="-5.384283">
        <ele>1288.0</ele>
        <time>2014-05-17T14:16:26Z</time>
      </trkpt>
      <trkpt lat="40.089617" lon="-5.384433">
        <ele>1290.0</ele>
        <time>2014-05-17T14:16:27Z</time>
      </trkpt>
      <trkpt lat="40.089583" lon="-5.384600">
        <ele>1293.0</ele>
        <time>2014-05-17T14:16:28Z</time>
      </trkpt>
      <trkpt lat="40.089567" lon="-5.384750">
        <ele>1296.0</ele>
        <time>2014-05-17T14:16:29Z</time>
      </trkpt>
      <trkpt lat="40.089567" lon="-5.384883">
        <ele>1299.0</ele>
        <time>2014-05-17T14:16:30Z</time>
      </trkpt>
      <trkpt lat="40.089583" lon="-5.385033">
        <ele>1302.0</ele>
        <time>2014-05-17T14:16:31Z</time>
      </trkpt>
      <trkpt lat="40.089600" lon="-5.385183">
        <ele>1305.0</ele>
        <time>2014-05-17T14:16:32Z</time>
      </trkpt>
      <trkpt lat="40.089650" lon="-5.385317">
        <ele>1307.0</ele>
        <time>2014-05-17T14:16:33Z</time>
      </trkpt>
      <trkpt lat="40.089717" lon="-5.385450">
        <ele>1310.0</ele>
        <time>2014-05-17T14:16:34Z</time>
      </trkpt>
      <trkpt lat="40.089800" lon="-5.385550">
        <ele>1312.0</ele>
        <time>2014-05-17T14:16:35Z</time>
      </trkpt>
      <trkpt lat="40.089900" lon="-5.385600">
        <ele>1314.0</ele>
        <time>2014-05-17T14:16:36Z</time>
      </trkpt>
      <trkpt lat="40.089983" lon="-5.385617">
        <ele>1316.0</ele>
        <time>2014-05-17T14:16:37Z</time>
      </trkpt>
      <trkpt lat="40.090100" lon="-5.385583">
        <ele>1321.0</ele>
        <time>2014-05-17T14:16:39Z</time>
      </trkpt>
      <trkpt lat="40.090133" lon="-5.385533">
        <ele>1324.0</ele>
        <time>2014-05-17T14:16:40Z</time>
      </trkpt>
      <trkpt lat="40.090150" lon="-5.385500">
        <ele>1328.0</ele>
        <time>2014-05-17T14:16:41Z</time>
      </trkpt>
      <trkpt lat="40.090167" lon="-5.385450">
        <ele>1332.0</ele>
        <time>2014-05-17T14:16:42Z</time>
      </trkpt>
      <trkpt lat="40.090167" lon="-5.385383">
        <ele>1335.0</ele>
        <time>2014-05-17T14:16:43Z</time>
      </trkpt>
      <trkpt lat="40.090167" lon="-5.385333">
        <ele>1339.0</ele>
        <time>2014-05-17T14:16:44Z</time>
      </trkpt>
      <trkpt lat="40.090133" lon="-5.385283">
        <ele>1342.0</ele>
        <time>2014-05-17T14:16:45Z</time>
      </trkpt>
      <trkpt lat="40.090100" lon="-5.385250">
        <ele>1345.0</ele>
        <time>2014-05-17T14:16:46Z</time>
      </trkpt>
      <trkpt lat="40.090050" lon="-5.385200">
        <ele>1348.0</ele>
        <time>2014-05-17T14:16:47Z</time>
      </trkpt>
      <trkpt lat="40.089983" lon="-5.385167">
        <ele>1351.0</ele>
        <time>2014-05-17T14:16:48Z</time>
      </trkpt>
      <trkpt lat="40.089917" lon="-5.385150">
        <ele>1354.0</ele>
        <time>2014-05-17T14:16:49Z</time>
      </trkpt>
      <trkpt lat="40.089833" lon="-5.385133">
        <ele>1357.0</ele>
        <time>2014-05-17T14:16:50Z</time>
      </trkpt>
      <trkpt lat="40.089767" lon="-5.385117">
        <ele>1360.0</ele>
        <time>2014-05-17T14:16:51Z</time>
      </trkpt>
      <trkpt lat="40.089683" lon="-5.385100">
        <ele>1363.0</ele>
        <time>2014-05-17T14:16:52Z</time>
      </trkpt>
      <trkpt lat="40.089617" lon="-5.385117">
        <ele>1367.0</ele>
        <time>2014-05-17T14:16:53Z</time>
      </trkpt>
      <trkpt lat="40.089550" lon="-5.385133">
        <ele>1370.0</ele>
        <time>2014-05-17T14:16:54Z</time>
      </trkpt>
      <trkpt lat="40.089467" lon="-5.385167">
        <ele>1373.0</ele>
        <time>2014-05-17T14:16:55Z</time>
      </trkpt>
      <trkpt lat="40.089383" lon="-5.385233">
        <ele>1375.0</ele>
        <time>2014-05-17T14:16:56Z</time>
      </trkpt>
      <trkpt lat="40.089300" lon="-5.385300">
        <ele>1377.0</ele>
        <time>2014-05-17T14:16:57Z</time>
      </trkpt>
      <trkpt lat="40.089217" lon="-5.385383">
        <ele>1380.0</ele>
        <time>2014-05-17T14:16:58Z</time>
      </trkpt>
      <trkpt lat="40.089167" lon="-5.385483">
        <ele>1383.0</ele>
        <time>2014-05-17T14:16:59Z</time>
      </trkpt>
      <trkpt lat="40.089117" lon="-5.385600">
        <ele>1385.0</ele>
        <time>2014-05-17T14:17:00Z</time>
      </trkpt>
      <trkpt lat="40.089067" lon="-5.385717">
        <ele>1387.0</ele>
        <time>2014-05-17T14:17:01Z</time>
      </trkpt>
      <trkpt lat="40.089033" lon="-5.385850">
        <ele>1389.0</ele>
        <time>2014-05-17T14:17:02Z</time>
      </trkpt>
      <trkpt lat="40.089017" lon="-5.385983">
        <ele>1391.0</ele>
        <time>2014-05-17T14:17:03Z</time>
      </trkpt>
      <trkpt lat="40.089033" lon="-5.386117">
        <ele>1394.0</ele>
        <time>2014-05-17T14:17:04Z</time>
      </trkpt>
      <trkpt lat="40.089067" lon="-5.386267">
        <ele>1395.0</ele>
        <time>2014-05-17T14:17:05Z</time>
      </trkpt>
      <trkpt lat="40.089117" lon="-5.386383">
        <ele>1397.0</ele>
        <time>2014-05-17T14:17:06Z</time>
      </trkpt>
      <trkpt lat="40.089183" lon="-5.386483">
        <ele>1399.0</ele>
        <time>2014-05-17T14:17:07Z</time>
      </trkpt>
      <trkpt lat="40.089250" lon="-5.386567">
        <ele>1401.0</ele>
        <time>2014-05-17T14:17:08Z</time>
      </trkpt>
      <trkpt lat="40.089333" lon="-5.386650">
        <ele>1403.0</ele>
        <time>2014-05-17T14:17:09Z</time>
      </trkpt>
      <trkpt lat="40.089433" lon="-5.386700">
        <ele>1405.0</ele>
        <time>2014-05-17T14:17:10Z</time>
      </trkpt>
      <trkpt lat="40.089517" lon="-5.386733">
        <ele>1407.0</ele>
        <time>2014-05-17T14:17:11Z</time>
      </trkpt>
      <trkpt lat="40.089617" lon="-5.386750">
        <ele>1409.0</ele>
        <time>2014-05-17T14:17:12Z</time>
      </trkpt>
      <trkpt lat="40.089683" lon="-5.386733">
        <ele>1411.0</ele>
        <time>2014-05-17T14:17:13Z</time>
      </trkpt>
      <trkpt lat="40.089733" lon="-5.386700">
        <ele>1413.0</ele>
        <time>2014-05-17T14:17:14Z</time>
      </trkpt>
      <trkpt lat="40.089767" lon="-5.386650">
        <ele>1415.0</ele>
        <time>2014-05-17T14:17:15Z</time>
      </trkpt>
      <trkpt lat="40.089817" lon="-5.386517">
        <ele>1424.0</ele>
        <time>2014-05-17T14:17:18Z</time>
      </trkpt>
      <trkpt lat="40.089800" lon="-5.386467">
        <ele>1427.0</ele>
        <time>2014-05-17T14:17:19Z</time>
      </trkpt>
      <trkpt lat="40.089767" lon="-5.386417">
        <ele>1429.0</ele>
        <time>2014-05-17T14:17:20Z</time>
      </trkpt>
      <trkpt lat="40.089717" lon="-5.386383">
        <ele>1431.0</ele>
        <time>2014-05-17T14:17:21Z</time>
      </trkpt>
      <trkpt lat="40.089650" lon="-5.386367">
        <ele>1434.0</ele>
        <time>2014-05-17T14:17:22Z</time>
      </trkpt>
      <trkpt lat="40.089567" lon="-5.386367">
        <ele>1436.0</ele>
        <time>2014-05-17T14:17:23Z</time>
      </trkpt>
      <trkpt lat="40.089500" lon="-5.386400">
        <ele>1439.0</ele>
        <time>2014-05-17T14:17:24Z</time>
      </trkpt>
      <trkpt lat="40.089400" lon="-5.386433">
        <ele>1441.0</ele>
        <time>2014-05-17T14:17:25Z</time>
      </trkpt>
      <trkpt lat="40.089317" lon="-5.386483">
        <ele>1443.0</ele>
        <time>2014-05-17T14:17:26Z</time>
      </trkpt>
      <trkpt lat="40.089250" lon="-5.386533">
        <ele>1445.0</ele>
        <time>2014-05-17T14:17:27Z</time>
      </trkpt>
      <trkpt lat="40.089167" lon="-5.386617">
        <ele>1447.0</ele>
        <time>2014-05-17T14:17:28Z</time>
      </trkpt>
      <trkpt lat="40.089100" lon="-5.386717">
        <ele>1449.0</ele>
        <time>2014-05-17T14:17:29Z</time>
      </trkpt>
      <trkpt lat="40.089050" lon="-5.386817">
        <ele>1450.0</ele>
        <time>2014-05-17T14:17:30Z</time>
      </trkpt>
      <trkpt lat="40.089000" lon="-5.386950">
        <ele>1452.0</ele>
        <time>2014-05-17T14:17:31Z</time>
      </trkpt>
      <trkpt lat="40.088967" lon="-5.387067">
        <ele>1454.0</ele>
        <time>2014-05-17T14:17:32Z</time>
      </trkpt>
      <trkpt lat="40.088950" lon="-5.387217">
        <ele>1456.0</ele>
        <time>2014-05-17T14:17:33Z</time>
      </trkpt>
      <trkpt lat="40.088967" lon="-5.387350">
        <ele>1458.0</ele>
        <time>2014-05-17T14:17:34Z</time>
      </trkpt>
      <trkpt lat="40.088967" lon="-5.387500">
        <ele>1459.0</ele>
        <time>2014-05-17T14:17:35Z</time>
      </trkpt>
      <trkpt lat="40.088967" lon="-5.387633">
        <ele>1461.0</ele>
        <time>2014-05-17T14:17:36Z</time>
      </trkpt>
      <trkpt lat="40.088967" lon="-5.387767">
        <ele>1463.0</ele>
        <time>2014-05-17T14:17:37Z</time>
      </trkpt>
      <trkpt lat="40.088983" lon="-5.387883">
        <ele>1467.0</ele>
        <time>2014-05-17T14:17:38Z</time>
      </trkpt>
      <trkpt lat="40.089017" lon="-5.388000">
        <ele>1471.0</ele>
        <time>2014-05-17T14:17:39Z</time>
      </trkpt>
      <trkpt lat="40.089067" lon="-5.388083">
        <ele>1472.0</ele>
        <time>2014-05-17T14:17:40Z</time>
      </trkpt>
      <trkpt lat="40.089133" lon="-5.388167">
        <ele>1473.0</ele>
        <time>2014-05-17T14:17:41Z</time>
      </trkpt>
      <trkpt lat="40.089217" lon="-5.388250">
        <ele>1474.0</ele>
        <time>2014-05-17T14:17:42Z</time>
      </trkpt>
      <trkpt lat="40.089317" lon="-5.388317">
        <ele>1476.0</ele>
        <time>2014-05-17T14:17:43Z</time>
      </trkpt>
      <trkpt lat="40.089400" lon="-5.388383">
        <ele>1478.0</ele>
        <time>2014-05-17T14:17:44Z</time>
      </trkpt>
      <trkpt lat="40.089483" lon="-5.388400">
        <ele>1481.0</ele>
        <time>2014-05-17T14:17:45Z</time>
      </trkpt>
      <trkpt lat="40.089550" lon="-5.388400">
        <ele>1483.0</ele>
        <time>2014-05-17T14:17:46Z</time>
      </trkpt>
      <trkpt lat="40.089633" lon="-5.388367">
        <ele>1484.0</ele>
        <time>2014-05-17T14:17:47Z</time>
      </trkpt>
      <trkpt lat="40.089683" lon="-5.388333">
        <ele>1486.0</ele>
        <time>2014-05-17T14:17:48Z</time>
      </trkpt>
      <trkpt lat="40.089733" lon="-5.388250">
        <ele>1490.0</ele>
        <time>2014-05-17T14:17:50Z</time>
      </trkpt>
      <trkpt lat="40.089717" lon="-5.388150">
        <ele>1494.0</ele>
        <time>2014-05-17T14:17:52Z</time>
      </trkpt>
      <trkpt lat="40.089667" lon="-5.388100">
        <ele>1495.0</ele>
        <time>2014-05-17T14:17:53Z</time>
      </trkpt>
      <trkpt lat="40.089617" lon="-5.388050">
        <ele>1497.0</ele>
        <time>2014-05-17T14:17:54Z</time>
      </trkpt>
      <trkpt lat="40.089567" lon="-5.388017">
        <ele>1499.0</ele>
        <time>2014-05-17T14:17:55Z</time>
      </trkpt>
      <trkpt lat="40.089500" lon="-5.388000">
        <ele>1500.0</ele>
        <time>2014-05-17T14:17:56Z</time>
      </trkpt>
      <trkpt lat="40.089433" lon="-5.388000">
        <ele>1502.0</ele>
        <time>2014-05-17T14:17:57Z</time>
      </trkpt>
      <trkpt lat="40.089367" lon="-5.388000">
        <ele>1504.0</ele>
        <time>2014-05-17T14:17:58Z</time>
      </trkpt>
      <trkpt lat="40.089283" lon="-5.388033">
        <ele>1505.0</ele>
        <time>2014-05-17T14:17:59Z</time>
      </trkpt>
      <trkpt lat="40.089200" lon="-5.388067">
        <ele>1507.0</ele>
        <time>2014-05-17T14:18:00Z</time>
      </trkpt>
      <trkpt lat="40.089133" lon="-5.388150">
        <ele>1509.0</ele>
        <time>2014-05-17T14:18:01Z</time>
      </trkpt>
      <trkpt lat="40.089067" lon="-5.388233">
        <ele>1511.0</ele>
        <time>2014-05-17T14:18:02Z</time>
      </trkpt>
      <trkpt lat="40.089017" lon="-5.388350">
        <ele>1512.0</ele>
        <time>2014-05-17T14:18:03Z</time>
      </trkpt>
      <trkpt lat="40.088983" lon="-5.388483">
        <ele>1514.0</ele>
        <time>2014-05-17T14:18:04Z</time>
      </trkpt>
      <trkpt lat="40.088967" lon="-5.388617">
        <ele>1516.0</ele>
        <time>2014-05-17T14:18:05Z</time>
      </trkpt>
      <trkpt lat="40.088950" lon="-5.388750">
        <ele>1518.0</ele>
        <time>2014-05-17T14:18:06Z</time>
      </trkpt>
      <trkpt lat="40.088967" lon="-5.388883">
        <ele>1520.0</ele>
        <time>2014-05-17T14:18:07Z</time>
      </trkpt>
      <trkpt lat="40.088983" lon="-5.389017">
        <ele>1522.0</ele>
        <time>2014-05-17T14:18:08Z</time>
      </trkpt>
      <trkpt lat="40.089017" lon="-5.389117">
        <ele>1524.0</ele>
        <time>2014-05-17T14:18:09Z</time>
      </trkpt>
      <trkpt lat="40.089050" lon="-5.389233">
        <ele>1525.0</ele>
        <time>2014-05-17T14:18:10Z</time>
      </trkpt>
      <trkpt lat="40.089100" lon="-5.389350">
        <ele>1526.0</ele>
        <time>2014-05-17T14:18:11Z</time>
      </trkpt>
      <trkpt lat="40.089150" lon="-5.389467">
        <ele>1528.0</ele>
        <time>2014-05-17T14:18:12Z</time>
      </trkpt>
      <trkpt lat="40.089200" lon="-5.389583">
        <ele>1530.0</ele>
        <time>2014-05-17T14:18:13Z</time>
      </trkpt>
      <trkpt lat="40.089250" lon="-5.389683">
        <ele>1533.0</ele>
        <time>2014-05-17T14:18:14Z</time>
      </trkpt>
      <trkpt lat="40.089317" lon="-5.389767">
        <ele>1535.0</ele>
        <time>2014-05-17T14:18:15Z</time>
      </trkpt>
      <trkpt lat="40.089383" lon="-5.389817">
        <ele>1537.0</ele>
        <time>2014-05-17T14:18:16Z</time>
      </trkpt>
      <trkpt lat="40.089483" lon="-5.389867">
        <ele>1538.0</ele>
        <time>2014-05-17T14:18:17Z</time>
      </trkpt>
      <trkpt lat="40.089567" lon="-5.389883">
        <ele>1540.0</ele>
        <time>2014-05-17T14:18:18Z</time>
      </trkpt>
      <trkpt lat="40.089650" lon="-5.389883">
        <ele>1541.0</ele>
        <time>2014-05-17T14:18:19Z</time>
      </trkpt>
      <trkpt lat="40.089717" lon="-5.389867">
        <ele>1544.0</ele>
        <time>2014-05-17T14:18:20Z</time>
      </trkpt>
      <trkpt lat="40.089767" lon="-5.389850">
        <ele>1546.0</ele>
        <time>2014-05-17T14:18:21Z</time>
      </trkpt>
      <trkpt lat="40.089800" lon="-5.389817">
        <ele>1548.0</ele>
        <time>2014-05-17T14:18:22Z</time>
      </trkpt>
      <trkpt lat="40.089833" lon="-5.389767">
        <ele>1550.0</ele>
        <time>2014-05-17T14:18:23Z</time>
      </trkpt>
      <trkpt lat="40.089867" lon="-5.389717">
        <ele>1551.0</ele>
        <time>2014-05-17T14:18:24Z</time>
      </trkpt>
      <trkpt lat="40.089900" lon="-5.389667">
        <ele>1554.0</ele>
        <time>2014-05-17T14:18:25Z</time>
      </trkpt>
      <trkpt lat="40.089917" lon="-5.389600">
        <ele>1556.0</ele>
        <time>2014-05-17T14:18:26Z</time>
      </trkpt>
      <trkpt lat="40.089917" lon="-5.389550">
        <ele>1560.0</ele>
        <time>2014-05-17T14:18:27Z</time>
      </trkpt>
      <trkpt lat="40.089883" lon="-5.389500">
        <ele>1563.0</ele>
        <time>2014-05-17T14:18:28Z</time>
      </trkpt>
      <trkpt lat="40.089833" lon="-5.389450">
        <ele>1565.0</ele>
        <time>2014-05-17T14:18:29Z</time>
      </trkpt>
      <trkpt lat="40.089783" lon="-5.389417">
        <ele>1567.0</ele>
        <time>2014-05-17T14:18:30Z</time>
      </trkpt>
      <trkpt lat="40.089717" lon="-5.389383">
        <ele>1570.0</ele>
        <time>2014-05-17T14:18:31Z</time>
      </trkpt>
      <trkpt lat="40.089667" lon="-5.389383">
        <ele>1573.0</ele>
        <time>2014-05-17T14:18:32Z</time>
      </trkpt>
      <trkpt lat="40.089600" lon="-5.389417">
        <ele>1575.0</ele>
        <time>2014-05-17T14:18:33Z</time>
      </trkpt>
      <trkpt lat="40.089533" lon="-5.389450">
        <ele>1577.0</ele>
        <time>2014-05-17T14:18:34Z</time>
      </trkpt>
      <trkpt lat="40.089450" lon="-5.389500">
        <ele>1579.0</ele>
        <time>2014-05-17T14:18:35Z</time>
      </trkpt>
      <trkpt lat="40.089367" lon="-5.389583">
        <ele>1581.0</ele>
        <time>2014-05-17T14:18:36Z</time>
      </trkpt>
      <trkpt lat="40.089300" lon="-5.389667">
        <ele>1582.0</ele>
        <time>2014-05-17T14:18:37Z</time>
      </trkpt>
      <trkpt lat="40.089233" lon="-5.389783">
        <ele>1584.0</ele>
        <time>2014-05-17T14:18:38Z</time>
      </trkpt>
      <trkpt lat="40.089183" lon="-5.389900">
        <ele>1585.0</ele>
        <time>2014-05-17T14:18:39Z</time>
      </trkpt>
      <trkpt lat="40.089150" lon="-5.390033">
        <ele>1587.0</ele>
        <time>2014-05-17T14:18:40Z</time>
      </trkpt>
      <trkpt lat="40.089133" lon="-5.390167">
        <ele>1588.0</ele>
        <time>2014-05-17T14:18:41Z</time>
      </trkpt>
      <trkpt lat="40.089117" lon="-5.390300">
        <ele>1590.0</ele>
        <time>2014-05-17T14:18:42Z</time>
      </trkpt>
      <trkpt lat="40.089117" lon="-5.390433">
        <ele>1591.0</ele>
        <time>2014-05-17T14:18:43Z</time>
      </trkpt>
      <trkpt lat="40.089117" lon="-5.390583">
        <ele>1592.0</ele>
        <time>2014-05-17T14:18:44Z</time>
      </trkpt>
      <trkpt lat="40.089150" lon="-5.390717">
        <ele>1593.0</ele>
        <time>2014-05-17T14:18:45Z</time>
      </trkpt>
      <trkpt lat="40.089183" lon="-5.390850">
        <ele>1595.0</ele>
        <time>2014-05-17T14:18:46Z</time>
      </trkpt>
      <trkpt lat="40.089233" lon="-5.390967">
        <ele>1596.0</ele>
        <time>2014-05-17T14:18:47Z</time>
      </trkpt>
      <trkpt lat="40.089300" lon="-5.391067">
        <ele>1598.0</ele>
        <time>2014-05-17T14:18:48Z</time>
      </trkpt>
      <trkpt lat="40.089367" lon="-5.391133">
        <ele>1600.0</ele>
        <time>2014-05-17T14:18:49Z</time>
      </trkpt>
      <trkpt lat="40.089450" lon="-5.391167">
        <ele>1602.0</ele>
        <time>2014-05-17T14:18:50Z</time>
      </trkpt>
      <trkpt lat="40.089517" lon="-5.391200">
        <ele>1603.0</ele>
        <time>2014-05-17T14:18:51Z</time>
      </trkpt>
      <trkpt lat="40.089667" lon="-5.391217">
        <ele>1606.0</ele>
        <time>2014-05-17T14:18:53Z</time>
      </trkpt>
      <trkpt lat="40.089717" lon="-5.391200">
        <ele>1609.0</ele>
        <time>2014-05-17T14:18:54Z</time>
      </trkpt>
      <trkpt lat="40.089767" lon="-5.391200">
        <ele>1611.0</ele>
        <time>2014-05-17T14:18:55Z</time>
      </trkpt>
      <trkpt lat="40.089800" lon="-5.391183">
        <ele>1613.0</ele>
        <time>2014-05-17T14:18:56Z</time>
      </trkpt>
      <trkpt lat="40.089850" lon="-5.391167">
        <ele>1615.0</ele>
        <time>2014-05-17T14:18:57Z</time>
      </trkpt>
      <trkpt lat="40.089867" lon="-5.391100">
        <ele>1616.0</ele>
        <time>2014-05-17T14:18:58Z</time>
      </trkpt>
      <trkpt lat="40.089867" lon="-5.390983">
        <ele>1620.0</ele>
        <time>2014-05-17T14:19:00Z</time>
      </trkpt>
      <trkpt lat="40.089817" lon="-5.390933">
        <ele>1623.0</ele>
        <time>2014-05-17T14:19:01Z</time>
      </trkpt>
      <trkpt lat="40.089767" lon="-5.390900">
        <ele>1627.0</ele>
        <time>2014-05-17T14:19:02Z</time>
      </trkpt>
      <trkpt lat="40.089717" lon="-5.390883">
        <ele>1629.0</ele>
        <time>2014-05-17T14:19:03Z</time>
      </trkpt>
      <trkpt lat="40.089650" lon="-5.390850">
        <ele>1632.0</ele>
        <time>2014-05-17T14:19:04Z</time>
      </trkpt>
      <trkpt lat="40.089567" lon="-5.390850">
        <ele>1634.0</ele>
        <time>2014-05-17T14:19:05Z</time>
      </trkpt>
      <trkpt lat="40.089500" lon="-5.390850">
        <ele>1636.0</ele>
        <time>2014-05-17T14:19:06Z</time>
      </trkpt>
      <trkpt lat="40.089400" lon="-5.390900">
        <ele>1638.0</ele>
        <time>2014-05-17T14:19:07Z</time>
      </trkpt>
      <trkpt lat="40.089317" lon="-5.390950">
        <ele>1640.0</ele>
        <time>2014-05-17T14:19:08Z</time>
      </trkpt>
      <trkpt lat="40.089233" lon="-5.391033">
        <ele>1642.0</ele>
        <time>2014-05-17T14:19:09Z</time>
      </trkpt>
      <trkpt lat="40.089167" lon="-5.391100">
        <ele>1644.0</ele>
        <time>2014-05-17T14:19:10Z</time>
      </trkpt>
      <trkpt lat="40.089100" lon="-5.391183">
        <ele>1645.0</ele>
        <time>2014-05-17T14:19:11Z</time>
      </trkpt>
      <trkpt lat="40.089017" lon="-5.391250">
        <ele>1647.0</ele>
        <time>2014-05-17T14:19:12Z</time>
      </trkpt>
      <trkpt lat="40.088933" lon="-5.391333">
        <ele>1648.0</ele>
        <time>2014-05-17T14:19:13Z</time>
      </trkpt>
      <trkpt lat="40.088867" lon="-5.391450">
        <ele>1649.0</ele>
        <time>2014-05-17T14:19:14Z</time>
      </trkpt>
      <trkpt lat="40.088817" lon="-5.391567">
        <ele>1651.0</ele>
        <time>2014-05-17T14:19:15Z</time>
      </trkpt>
      <trkpt lat="40.088783" lon="-5.391717">
        <ele>1652.0</ele>
        <time>2014-05-17T14:19:16Z</time>
      </trkpt>
      <trkpt lat="40.088750" lon="-5.391850">
        <ele>1654.0</ele>
        <time>2014-05-17T14:19:17Z</time>
      </trkpt>
      <trkpt lat="40.088750" lon="-5.392000">
        <ele>1656.0</ele>
        <time>2014-05-17T14:19:18Z</time>
      </trkpt>
      <trkpt lat="40.088750" lon="-5.392133">
        <ele>1657.0</ele>
        <time>2014-05-17T14:19:19Z</time>
      </trkpt>
      <trkpt lat="40.088767" lon="-5.392283">
        <ele>1658.0</ele>
        <time>2014-05-17T14:19:20Z</time>
      </trkpt>
      <trkpt lat="40.088783" lon="-5.392417">
        <ele>1659.0</ele>
        <time>2014-05-17T14:19:21Z</time>
      </trkpt>
      <trkpt lat="40.088817" lon="-5.392550">
        <ele>1660.0</ele>
        <time>2014-05-17T14:19:22Z</time>
      </trkpt>
      <trkpt lat="40.088833" lon="-5.392683">
        <ele>1661.0</ele>
        <time>2014-05-17T14:19:23Z</time>
      </trkpt>
      <trkpt lat="40.088850" lon="-5.392817">
        <ele>1662.0</ele>
        <time>2014-05-17T14:19:24Z</time>
      </trkpt>
      <trkpt lat="40.088883" lon="-5.392933">
        <ele>1663.0</ele>
        <time>2014-05-17T14:19:25Z</time>
      </trkpt>
      <trkpt lat="40.088950" lon="-5.393033">
        <ele>1664.0</ele>
        <time>2014-05-17T14:19:26Z</time>
      </trkpt>
      <trkpt lat="40.089017" lon="-5.393100">
        <ele>1664.0</ele>
        <time>2014-05-17T14:19:27Z</time>
      </trkpt>
      <trkpt lat="40.089100" lon="-5.393133">
        <ele>1665.0</ele>
        <time>2014-05-17T14:19:28Z</time>
      </trkpt>
      <trkpt lat="40.089183" lon="-5.393150">
        <ele>1666.0</ele>
        <time>2014-05-17T14:19:29Z</time>
      </trkpt>
      <trkpt lat="40.089250" lon="-5.393150">
        <ele>1668.0</ele>
        <time>2014-05-17T14:19:30Z</time>
      </trkpt>
      <trkpt lat="40.089317" lon="-5.393067">
        <ele>1669.0</ele>
        <time>2014-05-17T14:19:32Z</time>
      </trkpt>
      <trkpt lat="40.089350" lon="-5.393000">
        <ele>1669.0</ele>
        <time>2014-05-17T14:19:33Z</time>
      </trkpt>
      <trkpt lat="40.089383" lon="-5.392933">
        <ele>1669.0</ele>
        <time>2014-05-17T14:19:34Z</time>
      </trkpt>
      <trkpt lat="40.089433" lon="-5.392883">
        <ele>1669.0</ele>
        <time>2014-05-17T14:19:35Z</time>
      </trkpt>
      <trkpt lat="40.089467" lon="-5.392833">
        <ele>1671.0</ele>
        <time>2014-05-17T14:19:36Z</time>
      </trkpt>
      <trkpt lat="40.089467" lon="-5.392767">
        <ele>1672.0</ele>
        <time>2014-05-17T14:19:37Z</time>
      </trkpt>
      <trkpt lat="40.089450" lon="-5.392683">
        <ele>1674.0</ele>
        <time>2014-05-17T14:19:38Z</time>
      </trkpt>
      <trkpt lat="40.089417" lon="-5.392617">
        <ele>1675.0</ele>
        <time>2014-05-17T14:19:39Z</time>
      </trkpt>
      <trkpt lat="40.089367" lon="-5.392567">
        <ele>1678.0</ele>
        <time>2014-05-17T14:19:40Z</time>
      </trkpt>
      <trkpt lat="40.089300" lon="-5.392533">
        <ele>1681.0</ele>
        <time>2014-05-17T14:19:41Z</time>
      </trkpt>
      <trkpt lat="40.089250" lon="-5.392517">
        <ele>1686.0</ele>
        <time>2014-05-17T14:19:42Z</time>
      </trkpt>
      <trkpt lat="40.089217" lon="-5.392500">
        <ele>1688.0</ele>
        <time>2014-05-17T14:19:43Z</time>
      </trkpt>
      <trkpt lat="40.089150" lon="-5.392467">
        <ele>1689.0</ele>
        <time>2014-05-17T14:19:44Z</time>
      </trkpt>
      <trkpt lat="40.089067" lon="-5.392450">
        <ele>1690.0</ele>
        <time>2014-05-17T14:19:45Z</time>
      </trkpt>
      <trkpt lat="40.088983" lon="-5.392467">
        <ele>1691.0</ele>
        <time>2014-05-17T14:19:46Z</time>
      </trkpt>
      <trkpt lat="40.088900" lon="-5.392517">
        <ele>1694.0</ele>
        <time>2014-05-17T14:19:47Z</time>
      </trkpt>
      <trkpt lat="40.088817" lon="-5.392617">
        <ele>1696.0</ele>
        <time>2014-05-17T14:19:48Z</time>
      </trkpt>
      <trkpt lat="40.088733" lon="-5.392717">
        <ele>1697.0</ele>
        <time>2014-05-17T14:19:49Z</time>
      </trkpt>
      <trkpt lat="40.088667" lon="-5.392833">
        <ele>1699.0</ele>
        <time>2014-05-17T14:19:50Z</time>
      </trkpt>
      <trkpt lat="40.088600" lon="-5.392967">
        <ele>1700.0</ele>
        <time>2014-05-17T14:19:51Z</time>
      </trkpt>
      <trkpt lat="40.088567" lon="-5.393117">
        <ele>1702.0</ele>
        <time>2014-05-17T14:19:52Z</time>
      </trkpt>
      <trkpt lat="40.088550" lon="-5.393283">
        <ele>1703.0</ele>
        <time>2014-05-17T14:19:53Z</time>
      </trkpt>
      <trkpt lat="40.088533" lon="-5.393450">
        <ele>1704.0</ele>
        <time>2014-05-17T14:19:54Z</time>
      </trkpt>
      <trkpt lat="40.088550" lon="-5.393600">
        <ele>1704.0</ele>
        <time>2014-05-17T14:19:55Z</time>
      </trkpt>
      <trkpt lat="40.088567" lon="-5.393767">
        <ele>1706.0</ele>
        <time>2014-05-17T14:19:56Z</time>
      </trkpt>
      <trkpt lat="40.088600" lon="-5.393900">
        <ele>1707.0</ele>
        <time>2014-05-17T14:19:57Z</time>
      </trkpt>
      <trkpt lat="40.088650" lon="-5.394000">
        <ele>1709.0</ele>
        <time>2014-05-17T14:19:58Z</time>
      </trkpt>
      <trkpt lat="40.088700" lon="-5.394083">
        <ele>1709.0</ele>
        <time>2014-05-17T14:19:59Z</time>
      </trkpt>
      <trkpt lat="40.088767" lon="-5.394167">
        <ele>1707.0</ele>
        <time>2014-05-17T14:20:00Z</time>
      </trkpt>
      <trkpt lat="40.088850" lon="-5.394217">
        <ele>1707.0</ele>
        <time>2014-05-17T14:20:01Z</time>
      </trkpt>
      <trkpt lat="40.088917" lon="-5.394267">
        <ele>1707.0</ele>
        <time>2014-05-17T14:20:02Z</time>
      </trkpt>
      <trkpt lat="40.088983" lon="-5.394283">
        <ele>1708.0</ele>
        <time>2014-05-17T14:20:03Z</time>
      </trkpt>
      <trkpt lat="40.089033" lon="-5.394283">
        <ele>1709.0</ele>
        <time>2014-05-17T14:20:04Z</time>
      </trkpt>
      <trkpt lat="40.089067" lon="-5.394250">
        <ele>1709.0</ele>
        <time>2014-05-17T14:20:05Z</time>
      </trkpt>
      <trkpt lat="40.089100" lon="-5.394183">
        <ele>1709.0</ele>
        <time>2014-05-17T14:20:06Z</time>
      </trkpt>
      <trkpt lat="40.089117" lon="-5.394133">
        <ele>1710.0</ele>
        <time>2014-05-17T14:20:07Z</time>
      </trkpt>
      <trkpt lat="40.089100" lon="-5.394100">
        <ele>1712.0</ele>
        <time>2014-05-17T14:20:08Z</time>
      </trkpt>
      <trkpt lat="40.089083" lon="-5.394067">
        <ele>1714.0</ele>
        <time>2014-05-17T14:20:09Z</time>
      </trkpt>
      <trkpt lat="40.089050" lon="-5.394033">
        <ele>1716.0</ele>
        <time>2014-05-17T14:20:10Z</time>
      </trkpt>
      <trkpt lat="40.089000" lon="-5.394000">
        <ele>1717.0</ele>
        <time>2014-05-17T14:20:11Z</time>
      </trkpt>
      <trkpt lat="40.088933" lon="-5.393967">
        <ele>1717.0</ele>
        <time>2014-05-17T14:20:12Z</time>
      </trkpt>
      <trkpt lat="40.088833" lon="-5.393967">
        <ele>1718.0</ele>
        <time>2014-05-17T14:20:13Z</time>
      </trkpt>
      <trkpt lat="40.088750" lon="-5.393983">
        <ele>1719.0</ele>
        <time>2014-05-17T14:20:14Z</time>
      </trkpt>
      <trkpt lat="40.088650" lon="-5.394050">
        <ele>1720.0</ele>
        <time>2014-05-17T14:20:15Z</time>
      </trkpt>
      <trkpt lat="40.088567" lon="-5.394117">
        <ele>1721.0</ele>
        <time>2014-05-17T14:20:16Z</time>
      </trkpt>
      <trkpt lat="40.088467" lon="-5.394217">
        <ele>1722.0</ele>
        <time>2014-05-17T14:20:17Z</time>
      </trkpt>
      <trkpt lat="40.088383" lon="-5.394300">
        <ele>1723.0</ele>
        <time>2014-05-17T14:20:18Z</time>
      </trkpt>
      <trkpt lat="40.088300" lon="-5.394417">
        <ele>1724.0</ele>
        <time>2014-05-17T14:20:19Z</time>
      </trkpt>
      <trkpt lat="40.088233" lon="-5.394550">
        <ele>1724.0</ele>
        <time>2014-05-17T14:20:20Z</time>
      </trkpt>
      <trkpt lat="40.088183" lon="-5.394683">
        <ele>1724.0</ele>
        <time>2014-05-17T14:20:21Z</time>
      </trkpt>
      <trkpt lat="40.088150" lon="-5.394833">
        <ele>1724.0</ele>
        <time>2014-05-17T14:20:22Z</time>
      </trkpt>
      <trkpt lat="40.088133" lon="-5.394983">
        <ele>1724.0</ele>
        <time>2014-05-17T14:20:23Z</time>
      </trkpt>
      <trkpt lat="40.088117" lon="-5.395133">
        <ele>1724.0</ele>
        <time>2014-05-17T14:20:24Z</time>
      </trkpt>
      <trkpt lat="40.088117" lon="-5.395300">
        <ele>1724.0</ele>
        <time>2014-05-17T14:20:25Z</time>
      </trkpt>
      <trkpt lat="40.088117" lon="-5.395467">
        <ele>1723.0</ele>
        <time>2014-05-17T14:20:26Z</time>
      </trkpt>
      <trkpt lat="40.088117" lon="-5.395617">
        <ele>1722.0</ele>
        <time>2014-05-17T14:20:27Z</time>
      </trkpt>
      <trkpt lat="40.088133" lon="-5.395750">
        <ele>1722.0</ele>
        <time>2014-05-17T14:20:28Z</time>
      </trkpt>
      <trkpt lat="40.088167" lon="-5.395883">
        <ele>1721.0</ele>
        <time>2014-05-17T14:20:29Z</time>
      </trkpt>
      <trkpt lat="40.088200" lon="-5.396000">
        <ele>1720.0</ele>
        <time>2014-05-17T14:20:30Z</time>
      </trkpt>
      <trkpt lat="40.088250" lon="-5.396117">
        <ele>1718.0</ele>
        <time>2014-05-17T14:20:31Z</time>
      </trkpt>
      <trkpt lat="40.088317" lon="-5.396233">
        <ele>1716.0</ele>
        <time>2014-05-17T14:20:32Z</time>
      </trkpt>
      <trkpt lat="40.088400" lon="-5.396317">
        <ele>1714.0</ele>
        <time>2014-05-17T14:20:33Z</time>
      </trkpt>
      <trkpt lat="40.088500" lon="-5.396383">
        <ele>1713.0</ele>
        <time>2014-05-17T14:20:34Z</time>
      </trkpt>
      <trkpt lat="40.088583" lon="-5.396417">
        <ele>1711.0</ele>
        <time>2014-05-17T14:20:35Z</time>
      </trkpt>
      <trkpt lat="40.088667" lon="-5.396433">
        <ele>1710.0</ele>
        <time>2014-05-17T14:20:36Z</time>
      </trkpt>
      <trkpt lat="40.088733" lon="-5.396433">
        <ele>1708.0</ele>
        <time>2014-05-17T14:20:37Z</time>
      </trkpt>
      <trkpt lat="40.088800" lon="-5.396433">
        <ele>1706.0</ele>
        <time>2014-05-17T14:20:38Z</time>
      </trkpt>
      <trkpt lat="40.088867" lon="-5.396417">
        <ele>1704.0</ele>
        <time>2014-05-17T14:20:39Z</time>
      </trkpt>
      <trkpt lat="40.088917" lon="-5.396383">
        <ele>1701.0</ele>
        <time>2014-05-17T14:20:40Z</time>
      </trkpt>
      <trkpt lat="40.088967" lon="-5.396317">
        <ele>1698.0</ele>
        <time>2014-05-17T14:20:41Z</time>
      </trkpt>
      <trkpt lat="40.089000" lon="-5.396233">
        <ele>1695.0</ele>
        <time>2014-05-17T14:20:42Z</time>
      </trkpt>
      <trkpt lat="40.089017" lon="-5.396150">
        <ele>1693.0</ele>
        <time>2014-05-17T14:20:43Z</time>
      </trkpt>
      <trkpt lat="40.089000" lon="-5.396067">
        <ele>1691.0</ele>
        <time>2014-05-17T14:20:44Z</time>
      </trkpt>
      <trkpt lat="40.088967" lon="-5.396000">
        <ele>1691.0</ele>
        <time>2014-05-17T14:20:45Z</time>
      </trkpt>
      <trkpt lat="40.088917" lon="-5.395950">
        <ele>1690.0</ele>
        <time>2014-05-17T14:20:46Z</time>
      </trkpt>
      <trkpt lat="40.088850" lon="-5.395933">
        <ele>1688.0</ele>
        <time>2014-05-17T14:20:47Z</time>
      </trkpt>
      <trkpt lat="40.088783" lon="-5.395917">
        <ele>1687.0</ele>
        <time>2014-05-17T14:20:48Z</time>
      </trkpt>
      <trkpt lat="40.088683" lon="-5.395917">
        <ele>1685.0</ele>
        <time>2014-05-17T14:20:49Z</time>
      </trkpt>
      <trkpt lat="40.088600" lon="-5.395950">
        <ele>1684.0</ele>
        <time>2014-05-17T14:20:50Z</time>
      </trkpt>
      <trkpt lat="40.088517" lon="-5.396000">
        <ele>1683.0</ele>
        <time>2014-05-17T14:20:51Z</time>
      </trkpt>
      <trkpt lat="40.088433" lon="-5.396067">
        <ele>1683.0</ele>
        <time>2014-05-17T14:20:52Z</time>
      </trkpt>
      <trkpt lat="40.088383" lon="-5.396117">
        <ele>1684.0</ele>
        <time>2014-05-17T14:20:53Z</time>
      </trkpt>
      <trkpt lat="40.088317" lon="-5.396183">
        <ele>1684.0</ele>
        <time>2014-05-17T14:20:54Z</time>
      </trkpt>
      <trkpt lat="40.088267" lon="-5.396250">
        <ele>1684.0</ele>
        <time>2014-05-17T14:20:55Z</time>
      </trkpt>
      <trkpt lat="40.088200" lon="-5.396350">
        <ele>1682.0</ele>
        <time>2014-05-17T14:20:56Z</time>
      </trkpt>
      <trkpt lat="40.088117" lon="-5.396450">
        <ele>1680.0</ele>
        <time>2014-05-17T14:20:57Z</time>
      </trkpt>
      <trkpt lat="40.088050" lon="-5.396533">
        <ele>1678.0</ele>
        <time>2014-05-17T14:20:58Z</time>
      </trkpt>
      <trkpt lat="40.087967" lon="-5.396633">
        <ele>1677.0</ele>
        <time>2014-05-17T14:20:59Z</time>
      </trkpt>
      <trkpt lat="40.087900" lon="-5.396717">
        <ele>1676.0</ele>
        <time>2014-05-17T14:21:00Z</time>
      </trkpt>
      <trkpt lat="40.087833" lon="-5.396833">
        <ele>1674.0</ele>
        <time>2014-05-17T14:21:01Z</time>
      </trkpt>
      <trkpt lat="40.087800" lon="-5.396967">
        <ele>1673.0</ele>
        <time>2014-05-17T14:21:02Z</time>
      </trkpt>
      <trkpt lat="40.087750" lon="-5.397100">
        <ele>1673.0</ele>
        <time>2014-05-17T14:21:03Z</time>
      </trkpt>
      <trkpt lat="40.087717" lon="-5.397217">
        <ele>1672.0</ele>
        <time>2014-05-17T14:21:04Z</time>
      </trkpt>
      <trkpt lat="40.087667" lon="-5.397350">
        <ele>1671.0</ele>
        <time>2014-05-17T14:21:05Z</time>
      </trkpt>
      <trkpt lat="40.087600" lon="-5.397467">
        <ele>1670.0</ele>
        <time>2014-05-17T14:21:06Z</time>
      </trkpt>
      <trkpt lat="40.087550" lon="-5.397600">
        <ele>1669.0</ele>
        <time>2014-05-17T14:21:07Z</time>
      </trkpt>
      <trkpt lat="40.087500" lon="-5.397717">
        <ele>1669.0</ele>
        <time>2014-05-17T14:21:08Z</time>
      </trkpt>
      <trkpt lat="40.087450" lon="-5.397817">
        <ele>1669.0</ele>
        <time>2014-05-17T14:21:09Z</time>
      </trkpt>
      <trkpt lat="40.087400" lon="-5.397900">
        <ele>1670.0</ele>
        <time>2014-05-17T14:21:10Z</time>
      </trkpt>
      <trkpt lat="40.087367" lon="-5.398000">
        <ele>1670.0</ele>
        <time>2014-05-17T14:21:11Z</time>
      </trkpt>
      <trkpt lat="40.087317" lon="-5.398100">
        <ele>1669.0</ele>
        <time>2014-05-17T14:21:12Z</time>
      </trkpt>
      <trkpt lat="40.087267" lon="-5.398200">
        <ele>1667.0</ele>
        <time>2014-05-17T14:21:13Z</time>
      </trkpt>
      <trkpt lat="40.087200" lon="-5.398317">
        <ele>1666.0</ele>
        <time>2014-05-17T14:21:14Z</time>
      </trkpt>
      <trkpt lat="40.087150" lon="-5.398433">
        <ele>1665.0</ele>
        <time>2014-05-17T14:21:15Z</time>
      </trkpt>
      <trkpt lat="40.087100" lon="-5.398517">
        <ele>1665.0</ele>
        <time>2014-05-17T14:21:16Z</time>
      </trkpt>
      <trkpt lat="40.087050" lon="-5.398617">
        <ele>1665.0</ele>
        <time>2014-05-17T14:21:17Z</time>
      </trkpt>
      <trkpt lat="40.087000" lon="-5.398717">
        <ele>1664.0</ele>
        <time>2014-05-17T14:21:18Z</time>
      </trkpt>
      <trkpt lat="40.086950" lon="-5.398833">
        <ele>1662.0</ele>
        <time>2014-05-17T14:21:19Z</time>
      </trkpt>
      <trkpt lat="40.086900" lon="-5.398967">
        <ele>1660.0</ele>
        <time>2014-05-17T14:21:20Z</time>
      </trkpt>
      <trkpt lat="40.086867" lon="-5.399100">
        <ele>1659.0</ele>
        <time>2014-05-17T14:21:21Z</time>
      </trkpt>
      <trkpt lat="40.086817" lon="-5.399217">
        <ele>1658.0</ele>
        <time>2014-05-17T14:21:22Z</time>
      </trkpt>
      <trkpt lat="40.086783" lon="-5.399333">
        <ele>1657.0</ele>
        <time>2014-05-17T14:21:23Z</time>
      </trkpt>
      <trkpt lat="40.086750" lon="-5.399450">
        <ele>1655.0</ele>
        <time>2014-05-17T14:21:24Z</time>
      </trkpt>
      <trkpt lat="40.086700" lon="-5.399567">
        <ele>1651.0</ele>
        <time>2014-05-17T14:21:25Z</time>
      </trkpt>
      <trkpt lat="40.086633" lon="-5.399683">
        <ele>1648.0</ele>
        <time>2014-05-17T14:21:26Z</time>
      </trkpt>
      <trkpt lat="40.086583" lon="-5.399800">
        <ele>1645.0</ele>
        <time>2014-05-17T14:21:27Z</time>
      </trkpt>
      <trkpt lat="40.086467" lon="-5.400000">
        <ele>1643.0</ele>
        <time>2014-05-17T14:21:29Z</time>
      </trkpt>
      <trkpt lat="40.086400" lon="-5.400100">
        <ele>1641.0</ele>
        <time>2014-05-17T14:21:30Z</time>
      </trkpt>
      <trkpt lat="40.086350" lon="-5.400200">
        <ele>1639.0</ele>
        <time>2014-05-17T14:21:31Z</time>
      </trkpt>
      <trkpt lat="40.086283" lon="-5.400317">
        <ele>1637.0</ele>
        <time>2014-05-17T14:21:32Z</time>
      </trkpt>
      <trkpt lat="40.086217" lon="-5.400450">
        <ele>1636.0</ele>
        <time>2014-05-17T14:21:33Z</time>
      </trkpt>
      <trkpt lat="40.086167" lon="-5.400567">
        <ele>1636.0</ele>
        <time>2014-05-17T14:21:34Z</time>
      </trkpt>
      <trkpt lat="40.086133" lon="-5.400683">
        <ele>1636.0</ele>
        <time>2014-05-17T14:21:35Z</time>
      </trkpt>
      <trkpt lat="40.086083" lon="-5.400767">
        <ele>1636.0</ele>
        <time>2014-05-17T14:21:36Z</time>
      </trkpt>
      <trkpt lat="40.086033" lon="-5.400883">
        <ele>1635.0</ele>
        <time>2014-05-17T14:21:37Z</time>
      </trkpt>
      <trkpt lat="40.085967" lon="-5.401000">
        <ele>1634.0</ele>
        <time>2014-05-17T14:21:38Z</time>
      </trkpt>
      <trkpt lat="40.085917" lon="-5.401117">
        <ele>1633.0</ele>
        <time>2014-05-17T14:21:39Z</time>
      </trkpt>
      <trkpt lat="40.085850" lon="-5.401233">
        <ele>1632.0</ele>
        <time>2014-05-17T14:21:40Z</time>
      </trkpt>
      <trkpt lat="40.085783" lon="-5.401333">
        <ele>1632.0</ele>
        <time>2014-05-17T14:21:41Z</time>
      </trkpt>
      <trkpt lat="40.085717" lon="-5.401450">
        <ele>1632.0</ele>
        <time>2014-05-17T14:21:42Z</time>
      </trkpt>
      <trkpt lat="40.085650" lon="-5.401567">
        <ele>1631.0</ele>
        <time>2014-05-17T14:21:43Z</time>
      </trkpt>
      <trkpt lat="40.085583" lon="-5.401683">
        <ele>1630.0</ele>
        <time>2014-05-17T14:21:44Z</time>
      </trkpt>
      <trkpt lat="40.085517" lon="-5.401817">
        <ele>1630.0</ele>
        <time>2014-05-17T14:21:45Z</time>
      </trkpt>
      <trkpt lat="40.085450" lon="-5.401950">
        <ele>1629.0</ele>
        <time>2014-05-17T14:21:46Z</time>
      </trkpt>
      <trkpt lat="40.085383" lon="-5.402067">
        <ele>1629.0</ele>
        <time>2014-05-17T14:21:47Z</time>
      </trkpt>
      <trkpt lat="40.085300" lon="-5.402167">
        <ele>1629.0</ele>
        <time>2014-05-17T14:21:48Z</time>
      </trkpt>
      <trkpt lat="40.085233" lon="-5.402267">
        <ele>1629.0</ele>
        <time>2014-05-17T14:21:49Z</time>
      </trkpt>
      <trkpt lat="40.085167" lon="-5.402367">
        <ele>1629.0</ele>
        <time>2014-05-17T14:21:50Z</time>
      </trkpt>
      <trkpt lat="40.085083" lon="-5.402483">
        <ele>1629.0</ele>
        <time>2014-05-17T14:21:51Z</time>
      </trkpt>
      <trkpt lat="40.085017" lon="-5.402617">
        <ele>1629.0</ele>
        <time>2014-05-17T14:21:52Z</time>
      </trkpt>
      <trkpt lat="40.084950" lon="-5.402750">
        <ele>1629.0</ele>
        <time>2014-05-17T14:21:53Z</time>
      </trkpt>
      <trkpt lat="40.084883" lon="-5.402867">
        <ele>1629.0</ele>
        <time>2014-05-17T14:21:54Z</time>
      </trkpt>
      <trkpt lat="40.084833" lon="-5.403000">
        <ele>1629.0</ele>
        <time>2014-05-17T14:21:55Z</time>
      </trkpt>
      <trkpt lat="40.084767" lon="-5.403117">
        <ele>1629.0</ele>
        <time>2014-05-17T14:21:56Z</time>
      </trkpt>
      <trkpt lat="40.084700" lon="-5.403217">
        <ele>1628.0</ele>
        <time>2014-05-17T14:21:57Z</time>
      </trkpt>
      <trkpt lat="40.084617" lon="-5.403333">
        <ele>1626.0</ele>
        <time>2014-05-17T14:21:58Z</time>
      </trkpt>
      <trkpt lat="40.084550" lon="-5.403450">
        <ele>1625.0</ele>
        <time>2014-05-17T14:21:59Z</time>
      </trkpt>
      <trkpt lat="40.084483" lon="-5.403567">
        <ele>1623.0</ele>
        <time>2014-05-17T14:22:00Z</time>
      </trkpt>
      <trkpt lat="40.084400" lon="-5.403683">
        <ele>1622.0</ele>
        <time>2014-05-17T14:22:01Z</time>
      </trkpt>
      <trkpt lat="40.084333" lon="-5.403800">
        <ele>1621.0</ele>
        <time>2014-05-17T14:22:02Z</time>
      </trkpt>
      <trkpt lat="40.084267" lon="-5.403917">
        <ele>1619.0</ele>
        <time>2014-05-17T14:22:03Z</time>
      </trkpt>
      <trkpt lat="40.084183" lon="-5.404033">
        <ele>1617.0</ele>
        <time>2014-05-17T14:22:04Z</time>
      </trkpt>
      <trkpt lat="40.084100" lon="-5.404150">
        <ele>1615.0</ele>
        <time>2014-05-17T14:22:05Z</time>
      </trkpt>
      <trkpt lat="40.084033" lon="-5.404267">
        <ele>1614.0</ele>
        <time>2014-05-17T14:22:06Z</time>
      </trkpt>
      <trkpt lat="40.083967" lon="-5.404383">
        <ele>1614.0</ele>
        <time>2014-05-17T14:22:07Z</time>
      </trkpt>
      <trkpt lat="40.083900" lon="-5.404483">
        <ele>1614.0</ele>
        <time>2014-05-17T14:22:08Z</time>
      </trkpt>
      <trkpt lat="40.083850" lon="-5.404567">
        <ele>1615.0</ele>
        <time>2014-05-17T14:22:09Z</time>
      </trkpt>
      <trkpt lat="40.083817" lon="-5.404650">
        <ele>1615.0</ele>
        <time>2014-05-17T14:22:10Z</time>
      </trkpt>
      <trkpt lat="40.083767" lon="-5.404750">
        <ele>1615.0</ele>
        <time>2014-05-17T14:22:11Z</time>
      </trkpt>
      <trkpt lat="40.083717" lon="-5.404867">
        <ele>1614.0</ele>
        <time>2014-05-17T14:22:12Z</time>
      </trkpt>
      <trkpt lat="40.083667" lon="-5.404983">
        <ele>1613.0</ele>
        <time>2014-05-17T14:22:13Z</time>
      </trkpt>
      <trkpt lat="40.083617" lon="-5.405083">
        <ele>1613.0</ele>
        <time>2014-05-17T14:22:14Z</time>
      </trkpt>
      <trkpt lat="40.083567" lon="-5.405183">
        <ele>1613.0</ele>
        <time>2014-05-17T14:22:15Z</time>
      </trkpt>
      <trkpt lat="40.083517" lon="-5.405283">
        <ele>1613.0</ele>
        <time>2014-05-17T14:22:16Z</time>
      </trkpt>
      <trkpt lat="40.083467" lon="-5.405383">
        <ele>1613.0</ele>
        <time>2014-05-17T14:22:17Z</time>
      </trkpt>
      <trkpt lat="40.083400" lon="-5.405483">
        <ele>1612.0</ele>
        <time>2014-05-17T14:22:18Z</time>
      </trkpt>
      <trkpt lat="40.083333" lon="-5.405567">
        <ele>1611.0</ele>
        <time>2014-05-17T14:22:19Z</time>
      </trkpt>
      <trkpt lat="40.083267" lon="-5.405650">
        <ele>1611.0</ele>
        <time>2014-05-17T14:22:20Z</time>
      </trkpt>
      <trkpt lat="40.083217" lon="-5.405733">
        <ele>1611.0</ele>
        <time>2014-05-17T14:22:21Z</time>
      </trkpt>
      <trkpt lat="40.083150" lon="-5.405800">
        <ele>1612.0</ele>
        <time>2014-05-17T14:22:22Z</time>
      </trkpt>
      <trkpt lat="40.083100" lon="-5.405867">
        <ele>1613.0</ele>
        <time>2014-05-17T14:22:23Z</time>
      </trkpt>
      <trkpt lat="40.083050" lon="-5.405933">
        <ele>1613.0</ele>
        <time>2014-05-17T14:22:24Z</time>
      </trkpt>
      <trkpt lat="40.082983" lon="-5.406017">
        <ele>1613.0</ele>
        <time>2014-05-17T14:22:25Z</time>
      </trkpt>
      <trkpt lat="40.082917" lon="-5.406100">
        <ele>1613.0</ele>
        <time>2014-05-17T14:22:26Z</time>
      </trkpt>
      <trkpt lat="40.082867" lon="-5.406183">
        <ele>1613.0</ele>
        <time>2014-05-17T14:22:27Z</time>
      </trkpt>
      <trkpt lat="40.082800" lon="-5.406283">
        <ele>1614.0</ele>
        <time>2014-05-17T14:22:28Z</time>
      </trkpt>
      <trkpt lat="40.082733" lon="-5.406367">
        <ele>1615.0</ele>
        <time>2014-05-17T14:22:29Z</time>
      </trkpt>
      <trkpt lat="40.082667" lon="-5.406450">
        <ele>1617.0</ele>
        <time>2014-05-17T14:22:30Z</time>
      </trkpt>
      <trkpt lat="40.082617" lon="-5.406533">
        <ele>1618.0</ele>
        <time>2014-05-17T14:22:31Z</time>
      </trkpt>
      <trkpt lat="40.082550" lon="-5.406600">
        <ele>1620.0</ele>
        <time>2014-05-17T14:22:32Z</time>
      </trkpt>
      <trkpt lat="40.082500" lon="-5.406683">
        <ele>1621.0</ele>
        <time>2014-05-17T14:22:33Z</time>
      </trkpt>
      <trkpt lat="40.082467" lon="-5.406783">
        <ele>1622.0</ele>
        <time>2014-05-17T14:22:34Z</time>
      </trkpt>
      <trkpt lat="40.082433" lon="-5.406900">
        <ele>1622.0</ele>
        <time>2014-05-17T14:22:35Z</time>
      </trkpt>
      <trkpt lat="40.082417" lon="-5.407167">
        <ele>1623.0</ele>
        <time>2014-05-17T14:22:37Z</time>
      </trkpt>
      <trkpt lat="40.082450" lon="-5.407300">
        <ele>1623.0</ele>
        <time>2014-05-17T14:22:38Z</time>
      </trkpt>
      <trkpt lat="40.082517" lon="-5.407433">
        <ele>1622.0</ele>
        <time>2014-05-17T14:22:39Z</time>
      </trkpt>
      <trkpt lat="40.082600" lon="-5.407533">
        <ele>1622.0</ele>
        <time>2014-05-17T14:22:40Z</time>
      </trkpt>
      <trkpt lat="40.082683" lon="-5.407617">
        <ele>1622.0</ele>
        <time>2014-05-17T14:22:41Z</time>
      </trkpt>
      <trkpt lat="40.082783" lon="-5.407667">
        <ele>1621.0</ele>
        <time>2014-05-17T14:22:42Z</time>
      </trkpt>
      <trkpt lat="40.082883" lon="-5.407683">
        <ele>1620.0</ele>
        <time>2014-05-17T14:22:43Z</time>
      </trkpt>
      <trkpt lat="40.083000" lon="-5.407700">
        <ele>1620.0</ele>
        <time>2014-05-17T14:22:44Z</time>
      </trkpt>
      <trkpt lat="40.083100" lon="-5.407683">
        <ele>1619.0</ele>
        <time>2014-05-17T14:22:45Z</time>
      </trkpt>
      <trkpt lat="40.083183" lon="-5.407650">
        <ele>1620.0</ele>
        <time>2014-05-17T14:22:46Z</time>
      </trkpt>
      <trkpt lat="40.083233" lon="-5.407583">
        <ele>1620.0</ele>
        <time>2014-05-17T14:22:47Z</time>
      </trkpt>
      <trkpt lat="40.083267" lon="-5.407517">
        <ele>1620.0</ele>
        <time>2014-05-17T14:22:48Z</time>
      </trkpt>
      <trkpt lat="40.083300" lon="-5.407450">
        <ele>1621.0</ele>
        <time>2014-05-17T14:22:49Z</time>
      </trkpt>
      <trkpt lat="40.083317" lon="-5.407367">
        <ele>1621.0</ele>
        <time>2014-05-17T14:22:50Z</time>
      </trkpt>
      <trkpt lat="40.083317" lon="-5.407300">
        <ele>1622.0</ele>
        <time>2014-05-17T14:22:51Z</time>
      </trkpt>
      <trkpt lat="40.083317" lon="-5.407233">
        <ele>1623.0</ele>
        <time>2014-05-17T14:22:52Z</time>
      </trkpt>
      <trkpt lat="40.083300" lon="-5.407183">
        <ele>1624.0</ele>
        <time>2014-05-17T14:22:53Z</time>
      </trkpt>
      <trkpt lat="40.083283" lon="-5.407150">
        <ele>1625.0</ele>
        <time>2014-05-17T14:22:54Z</time>
      </trkpt>
      <trkpt lat="40.083250" lon="-5.407117">
        <ele>1625.0</ele>
        <time>2014-05-17T14:22:55Z</time>
      </trkpt>
      <trkpt lat="40.083200" lon="-5.407100">
        <ele>1624.0</ele>
        <time>2014-05-17T14:22:56Z</time>
      </trkpt>
      <trkpt lat="40.083150" lon="-5.407083">
        <ele>1623.0</ele>
        <time>2014-05-17T14:22:57Z</time>
      </trkpt>
      <trkpt lat="40.083067" lon="-5.407083">
        <ele>1622.0</ele>
        <time>2014-05-17T14:22:58Z</time>
      </trkpt>
      <trkpt lat="40.083000" lon="-5.407083">
        <ele>1621.0</ele>
        <time>2014-05-17T14:22:59Z</time>
      </trkpt>
      <trkpt lat="40.082917" lon="-5.407117">
        <ele>1621.0</ele>
        <time>2014-05-17T14:23:00Z</time>
      </trkpt>
      <trkpt lat="40.082850" lon="-5.407150">
        <ele>1621.0</ele>
        <time>2014-05-17T14:23:01Z</time>
      </trkpt>
      <trkpt lat="40.082783" lon="-5.407200">
        <ele>1623.0</ele>
        <time>2014-05-17T14:23:02Z</time>
      </trkpt>
      <trkpt lat="40.082717" lon="-5.407250">
        <ele>1623.0</ele>
        <time>2014-05-17T14:23:03Z</time>
      </trkpt>
      <trkpt lat="40.082667" lon="-5.407317">
        <ele>1623.0</ele>
        <time>2014-05-17T14:23:04Z</time>
      </trkpt>
      <trkpt lat="40.082600" lon="-5.407367">
        <ele>1623.0</ele>
        <time>2014-05-17T14:23:05Z</time>
      </trkpt>
      <trkpt lat="40.082533" lon="-5.407450">
        <ele>1622.0</ele>
        <time>2014-05-17T14:23:06Z</time>
      </trkpt>
      <trkpt lat="40.082467" lon="-5.407517">
        <ele>1622.0</ele>
        <time>2014-05-17T14:23:07Z</time>
      </trkpt>
      <trkpt lat="40.082417" lon="-5.407567">
        <ele>1624.0</ele>
        <time>2014-05-17T14:23:08Z</time>
      </trkpt>
      <trkpt lat="40.082383" lon="-5.407617">
        <ele>1626.0</ele>
        <time>2014-05-17T14:23:09Z</time>
      </trkpt>
      <trkpt lat="40.082350" lon="-5.407683">
        <ele>1627.0</ele>
        <time>2014-05-17T14:23:10Z</time>
      </trkpt>
      <trkpt lat="40.082300" lon="-5.407750">
        <ele>1628.0</ele>
        <time>2014-05-17T14:23:11Z</time>
      </trkpt>
      <trkpt lat="40.082267" lon="-5.407833">
        <ele>1628.0</ele>
        <time>2014-05-17T14:23:12Z</time>
      </trkpt>
      <trkpt lat="40.082233" lon="-5.407950">
        <ele>1628.0</ele>
        <time>2014-05-17T14:23:13Z</time>
      </trkpt>
      <trkpt lat="40.082217" lon="-5.408067">
        <ele>1628.0</ele>
        <time>2014-05-17T14:23:14Z</time>
      </trkpt>
      <trkpt lat="40.082233" lon="-5.408183">
        <ele>1629.0</ele>
        <time>2014-05-17T14:23:15Z</time>
      </trkpt>
      <trkpt lat="40.082267" lon="-5.408317">
        <ele>1630.0</ele>
        <time>2014-05-17T14:23:16Z</time>
      </trkpt>
      <trkpt lat="40.082333" lon="-5.408433">
        <ele>1631.0</ele>
        <time>2014-05-17T14:23:17Z</time>
      </trkpt>
      <trkpt lat="40.082400" lon="-5.408550">
        <ele>1631.0</ele>
        <time>2014-05-17T14:23:18Z</time>
      </trkpt>
      <trkpt lat="40.082483" lon="-5.408650">
        <ele>1633.0</ele>
        <time>2014-05-17T14:23:19Z</time>
      </trkpt>
      <trkpt lat="40.082583" lon="-5.408700">
        <ele>1634.0</ele>
        <time>2014-05-17T14:23:20Z</time>
      </trkpt>
      <trkpt lat="40.082683" lon="-5.408733">
        <ele>1634.0</ele>
        <time>2014-05-17T14:23:21Z</time>
      </trkpt>
      <trkpt lat="40.082783" lon="-5.408717">
        <ele>1635.0</ele>
        <time>2014-05-17T14:23:22Z</time>
      </trkpt>
      <trkpt lat="40.082883" lon="-5.408683">
        <ele>1635.0</ele>
        <time>2014-05-17T14:23:23Z</time>
      </trkpt>
      <trkpt lat="40.082967" lon="-5.408650">
        <ele>1637.0</ele>
        <time>2014-05-17T14:23:24Z</time>
      </trkpt>
      <trkpt lat="40.083017" lon="-5.408583">
        <ele>1638.0</ele>
        <time>2014-05-17T14:23:25Z</time>
      </trkpt>
      <trkpt lat="40.083067" lon="-5.408517">
        <ele>1639.0</ele>
        <time>2014-05-17T14:23:26Z</time>
      </trkpt>
      <trkpt lat="40.083067" lon="-5.408433">
        <ele>1640.0</ele>
        <time>2014-05-17T14:23:27Z</time>
      </trkpt>
      <trkpt lat="40.083050" lon="-5.408367">
        <ele>1641.0</ele>
        <time>2014-05-17T14:23:28Z</time>
      </trkpt>
      <trkpt lat="40.083017" lon="-5.408317">
        <ele>1640.0</ele>
        <time>2014-05-17T14:23:29Z</time>
      </trkpt>
      <trkpt lat="40.082983" lon="-5.408267">
        <ele>1640.0</ele>
        <time>2014-05-17T14:23:30Z</time>
      </trkpt>
      <trkpt lat="40.082933" lon="-5.408233">
        <ele>1641.0</ele>
        <time>2014-05-17T14:23:31Z</time>
      </trkpt>
      <trkpt lat="40.082883" lon="-5.408200">
        <ele>1641.0</ele>
        <time>2014-05-17T14:23:32Z</time>
      </trkpt>
      <trkpt lat="40.082833" lon="-5.408183">
        <ele>1641.0</ele>
        <time>2014-05-17T14:23:33Z</time>
      </trkpt>
      <trkpt lat="40.082783" lon="-5.408183">
        <ele>1641.0</ele>
        <time>2014-05-17T14:23:34Z</time>
      </trkpt>
      <trkpt lat="40.082717" lon="-5.408217">
        <ele>1642.0</ele>
        <time>2014-05-17T14:23:35Z</time>
      </trkpt>
      <trkpt lat="40.082667" lon="-5.408250">
        <ele>1643.0</ele>
        <time>2014-05-17T14:23:36Z</time>
      </trkpt>
      <trkpt lat="40.082617" lon="-5.408317">
        <ele>1643.0</ele>
        <time>2014-05-17T14:23:37Z</time>
      </trkpt>
      <trkpt lat="40.082583" lon="-5.408400">
        <ele>1644.0</ele>
        <time>2014-05-17T14:23:38Z</time>
      </trkpt>
      <trkpt lat="40.082550" lon="-5.408517">
        <ele>1644.0</ele>
        <time>2014-05-17T14:23:39Z</time>
      </trkpt>
      <trkpt lat="40.082533" lon="-5.408633">
        <ele>1644.0</ele>
        <time>2014-05-17T14:23:40Z</time>
      </trkpt>
      <trkpt lat="40.082533" lon="-5.408750">
        <ele>1645.0</ele>
        <time>2014-05-17T14:23:41Z</time>
      </trkpt>
      <trkpt lat="40.082567" lon="-5.409000">
        <ele>1647.0</ele>
        <time>2014-05-17T14:23:43Z</time>
      </trkpt>
      <trkpt lat="40.082600" lon="-5.409100">
        <ele>1649.0</ele>
        <time>2014-05-17T14:23:44Z</time>
      </trkpt>
      <trkpt lat="40.082633" lon="-5.409217">
        <ele>1651.0</ele>
        <time>2014-05-17T14:23:45Z</time>
      </trkpt>
      <trkpt lat="40.082683" lon="-5.409333">
        <ele>1652.0</ele>
        <time>2014-05-17T14:23:46Z</time>
      </trkpt>
      <trkpt lat="40.082733" lon="-5.409450">
        <ele>1653.0</ele>
        <time>2014-05-17T14:23:47Z</time>
      </trkpt>
      <trkpt lat="40.082800" lon="-5.409567">
        <ele>1655.0</ele>
        <time>2014-05-17T14:23:48Z</time>
      </trkpt>
      <trkpt lat="40.082867" lon="-5.409683">
        <ele>1655.0</ele>
        <time>2014-05-17T14:23:49Z</time>
      </trkpt>
      <trkpt lat="40.082967" lon="-5.409783">
        <ele>1656.0</ele>
        <time>2014-05-17T14:23:50Z</time>
      </trkpt>
      <trkpt lat="40.083067" lon="-5.409850">
        <ele>1657.0</ele>
        <time>2014-05-17T14:23:51Z</time>
      </trkpt>
      <trkpt lat="40.083167" lon="-5.409883">
        <ele>1658.0</ele>
        <time>2014-05-17T14:23:52Z</time>
      </trkpt>
      <trkpt lat="40.083350" lon="-5.409900">
        <ele>1661.0</ele>
        <time>2014-05-17T14:23:54Z</time>
      </trkpt>
      <trkpt lat="40.083433" lon="-5.409883">
        <ele>1662.0</ele>
        <time>2014-05-17T14:23:55Z</time>
      </trkpt>
      <trkpt lat="40.083500" lon="-5.409833">
        <ele>1663.0</ele>
        <time>2014-05-17T14:23:56Z</time>
      </trkpt>
      <trkpt lat="40.083550" lon="-5.409783">
        <ele>1664.0</ele>
        <time>2014-05-17T14:23:57Z</time>
      </trkpt>
      <trkpt lat="40.083650" lon="-5.409617">
        <ele>1664.0</ele>
        <time>2014-05-17T14:24:00Z</time>
      </trkpt>
      <trkpt lat="40.083667" lon="-5.409550">
        <ele>1664.0</ele>
        <time>2014-05-17T14:24:01Z</time>
      </trkpt>
      <trkpt lat="40.083683" lon="-5.409483">
        <ele>1663.0</ele>
        <time>2014-05-17T14:24:02Z</time>
      </trkpt>
      <trkpt lat="40.083683" lon="-5.409417">
        <ele>1662.0</ele>
        <time>2014-05-17T14:24:03Z</time>
      </trkpt>
      <trkpt lat="40.083650" lon="-5.409350">
        <ele>1661.0</ele>
        <time>2014-05-17T14:24:04Z</time>
      </trkpt>
      <trkpt lat="40.083600" lon="-5.409300">
        <ele>1661.0</ele>
        <time>2014-05-17T14:24:05Z</time>
      </trkpt>
      <trkpt lat="40.083533" lon="-5.409283">
        <ele>1659.0</ele>
        <time>2014-05-17T14:24:06Z</time>
      </trkpt>
      <trkpt lat="40.083450" lon="-5.409283">
        <ele>1658.0</ele>
        <time>2014-05-17T14:24:07Z</time>
      </trkpt>
      <trkpt lat="40.083383" lon="-5.409300">
        <ele>1658.0</ele>
        <time>2014-05-17T14:24:08Z</time>
      </trkpt>
      <trkpt lat="40.083317" lon="-5.409317">
        <ele>1658.0</ele>
        <time>2014-05-17T14:24:09Z</time>
      </trkpt>
      <trkpt lat="40.083233" lon="-5.409333">
        <ele>1657.0</ele>
        <time>2014-05-17T14:24:10Z</time>
      </trkpt>
      <trkpt lat="40.083167" lon="-5.409350">
        <ele>1657.0</ele>
        <time>2014-05-17T14:24:11Z</time>
      </trkpt>
      <trkpt lat="40.083100" lon="-5.409367">
        <ele>1658.0</ele>
        <time>2014-05-17T14:24:12Z</time>
      </trkpt>
      <trkpt lat="40.083033" lon="-5.409417">
        <ele>1660.0</ele>
        <time>2014-05-17T14:24:13Z</time>
      </trkpt>
      <trkpt lat="40.082967" lon="-5.409467">
        <ele>1661.0</ele>
        <time>2014-05-17T14:24:14Z</time>
      </trkpt>
      <trkpt lat="40.082917" lon="-5.409517">
        <ele>1661.0</ele>
        <time>2014-05-17T14:24:15Z</time>
      </trkpt>
      <trkpt lat="40.082850" lon="-5.409600">
        <ele>1662.0</ele>
        <time>2014-05-17T14:24:16Z</time>
      </trkpt>
      <trkpt lat="40.082783" lon="-5.409667">
        <ele>1663.0</ele>
        <time>2014-05-17T14:24:17Z</time>
      </trkpt>
      <trkpt lat="40.082733" lon="-5.409733">
        <ele>1664.0</ele>
        <time>2014-05-17T14:24:18Z</time>
      </trkpt>
      <trkpt lat="40.082667" lon="-5.409800">
        <ele>1665.0</ele>
        <time>2014-05-17T14:24:19Z</time>
      </trkpt>
      <trkpt lat="40.082617" lon="-5.409867">
        <ele>1667.0</ele>
        <time>2014-05-17T14:24:20Z</time>
      </trkpt>
      <trkpt lat="40.082550" lon="-5.409950">
        <ele>1668.0</ele>
        <time>2014-05-17T14:24:21Z</time>
      </trkpt>
      <trkpt lat="40.082500" lon="-5.410033">
        <ele>1669.0</ele>
        <time>2014-05-17T14:24:22Z</time>
      </trkpt>
      <trkpt lat="40.082467" lon="-5.410133">
        <ele>1670.0</ele>
        <time>2014-05-17T14:24:23Z</time>
      </trkpt>
      <trkpt lat="40.082467" lon="-5.410267">
        <ele>1671.0</ele>
        <time>2014-05-17T14:24:24Z</time>
      </trkpt>
      <trkpt lat="40.082483" lon="-5.410417">
        <ele>1672.0</ele>
        <time>2014-05-17T14:24:25Z</time>
      </trkpt>
      <trkpt lat="40.082533" lon="-5.410550">
        <ele>1674.0</ele>
        <time>2014-05-17T14:24:26Z</time>
      </trkpt>
      <trkpt lat="40.082583" lon="-5.410667">
        <ele>1676.0</ele>
        <time>2014-05-17T14:24:27Z</time>
      </trkpt>
      <trkpt lat="40.082667" lon="-5.410750">
        <ele>1678.0</ele>
        <time>2014-05-17T14:24:28Z</time>
      </trkpt>
      <trkpt lat="40.082733" lon="-5.410833">
        <ele>1680.0</ele>
        <time>2014-05-17T14:24:29Z</time>
      </trkpt>
      <trkpt lat="40.082817" lon="-5.410900">
        <ele>1681.0</ele>
        <time>2014-05-17T14:24:30Z</time>
      </trkpt>
      <trkpt lat="40.082933" lon="-5.410950">
        <ele>1682.0</ele>
        <time>2014-05-17T14:24:31Z</time>
      </trkpt>
      <trkpt lat="40.083033" lon="-5.410967">
        <ele>1683.0</ele>
        <time>2014-05-17T14:24:32Z</time>
      </trkpt>
      <trkpt lat="40.083117" lon="-5.410933">
        <ele>1684.0</ele>
        <time>2014-05-17T14:24:33Z</time>
      </trkpt>
      <trkpt lat="40.083183" lon="-5.410883">
        <ele>1686.0</ele>
        <time>2014-05-17T14:24:34Z</time>
      </trkpt>
      <trkpt lat="40.083217" lon="-5.410833">
        <ele>1688.0</ele>
        <time>2014-05-17T14:24:35Z</time>
      </trkpt>
      <trkpt lat="40.083233" lon="-5.410783">
        <ele>1690.0</ele>
        <time>2014-05-17T14:24:36Z</time>
      </trkpt>
      <trkpt lat="40.083233" lon="-5.410683">
        <ele>1693.0</ele>
        <time>2014-05-17T14:24:38Z</time>
      </trkpt>
      <trkpt lat="40.083217" lon="-5.410617">
        <ele>1694.0</ele>
        <time>2014-05-17T14:24:39Z</time>
      </trkpt>
      <trkpt lat="40.083183" lon="-5.410550">
        <ele>1694.0</ele>
        <time>2014-05-17T14:24:40Z</time>
      </trkpt>
      <trkpt lat="40.083133" lon="-5.410500">
        <ele>1695.0</ele>
        <time>2014-05-17T14:24:41Z</time>
      </trkpt>
      <trkpt lat="40.083067" lon="-5.410483">
        <ele>1697.0</ele>
        <time>2014-05-17T14:24:42Z</time>
      </trkpt>
      <trkpt lat="40.083000" lon="-5.410483">
        <ele>1699.0</ele>
        <time>2014-05-17T14:24:43Z</time>
      </trkpt>
      <trkpt lat="40.082950" lon="-5.410500">
        <ele>1701.0</ele>
        <time>2014-05-17T14:24:44Z</time>
      </trkpt>
      <trkpt lat="40.082883" lon="-5.410550">
        <ele>1702.0</ele>
        <time>2014-05-17T14:24:45Z</time>
      </trkpt>
      <trkpt lat="40.082817" lon="-5.410600">
        <ele>1704.0</ele>
        <time>2014-05-17T14:24:46Z</time>
      </trkpt>
      <trkpt lat="40.082750" lon="-5.410667">
        <ele>1705.0</ele>
        <time>2014-05-17T14:24:47Z</time>
      </trkpt>
      <trkpt lat="40.082700" lon="-5.410767">
        <ele>1706.0</ele>
        <time>2014-05-17T14:24:48Z</time>
      </trkpt>
      <trkpt lat="40.082667" lon="-5.410900">
        <ele>1706.0</ele>
        <time>2014-05-17T14:24:49Z</time>
      </trkpt>
      <trkpt lat="40.082650" lon="-5.411050">
        <ele>1707.0</ele>
        <time>2014-05-17T14:24:50Z</time>
      </trkpt>
      <trkpt lat="40.082667" lon="-5.411200">
        <ele>1708.0</ele>
        <time>2014-05-17T14:24:51Z</time>
      </trkpt>
      <trkpt lat="40.082700" lon="-5.411333">
        <ele>1710.0</ele>
        <time>2014-05-17T14:24:52Z</time>
      </trkpt>
      <trkpt lat="40.082767" lon="-5.411450">
        <ele>1711.0</ele>
        <time>2014-05-17T14:24:53Z</time>
      </trkpt>
      <trkpt lat="40.082833" lon="-5.411567">
        <ele>1713.0</ele>
        <time>2014-05-17T14:24:54Z</time>
      </trkpt>
      <trkpt lat="40.082917" lon="-5.411650">
        <ele>1715.0</ele>
        <time>2014-05-17T14:24:55Z</time>
      </trkpt>
      <trkpt lat="40.083000" lon="-5.411733">
        <ele>1717.0</ele>
        <time>2014-05-17T14:24:56Z</time>
      </trkpt>
      <trkpt lat="40.083083" lon="-5.411783">
        <ele>1720.0</ele>
        <time>2014-05-17T14:24:57Z</time>
      </trkpt>
      <trkpt lat="40.083167" lon="-5.411800">
        <ele>1722.0</ele>
        <time>2014-05-17T14:24:58Z</time>
      </trkpt>
      <trkpt lat="40.083233" lon="-5.411783">
        <ele>1723.0</ele>
        <time>2014-05-17T14:24:59Z</time>
      </trkpt>
      <trkpt lat="40.083300" lon="-5.411750">
        <ele>1725.0</ele>
        <time>2014-05-17T14:25:00Z</time>
      </trkpt>
      <trkpt lat="40.083350" lon="-5.411717">
        <ele>1727.0</ele>
        <time>2014-05-17T14:25:01Z</time>
      </trkpt>
      <trkpt lat="40.083383" lon="-5.411667">
        <ele>1729.0</ele>
        <time>2014-05-17T14:25:02Z</time>
      </trkpt>
      <trkpt lat="40.083400" lon="-5.411600">
        <ele>1731.0</ele>
        <time>2014-05-17T14:25:03Z</time>
      </trkpt>
      <trkpt lat="40.083400" lon="-5.411533">
        <ele>1732.0</ele>
        <time>2014-05-17T14:25:04Z</time>
      </trkpt>
      <trkpt lat="40.083383" lon="-5.411467">
        <ele>1733.0</ele>
        <time>2014-05-17T14:25:05Z</time>
      </trkpt>
      <trkpt lat="40.083350" lon="-5.411417">
        <ele>1733.0</ele>
        <time>2014-05-17T14:25:06Z</time>
      </trkpt>
      <trkpt lat="40.083283" lon="-5.411383">
        <ele>1733.0</ele>
        <time>2014-05-17T14:25:07Z</time>
      </trkpt>
      <trkpt lat="40.083217" lon="-5.411367">
        <ele>1733.0</ele>
        <time>2014-05-17T14:25:08Z</time>
      </trkpt>
      <trkpt lat="40.083150" lon="-5.411383">
        <ele>1733.0</ele>
        <time>2014-05-17T14:25:09Z</time>
      </trkpt>
      <trkpt lat="40.083067" lon="-5.411417">
        <ele>1734.0</ele>
        <time>2014-05-17T14:25:10Z</time>
      </trkpt>
      <trkpt lat="40.083017" lon="-5.411467">
        <ele>1736.0</ele>
        <time>2014-05-17T14:25:11Z</time>
      </trkpt>
      <trkpt lat="40.082950" lon="-5.411550">
        <ele>1737.0</ele>
        <time>2014-05-17T14:25:12Z</time>
      </trkpt>
      <trkpt lat="40.082900" lon="-5.411650">
        <ele>1738.0</ele>
        <time>2014-05-17T14:25:13Z</time>
      </trkpt>
      <trkpt lat="40.082850" lon="-5.411767">
        <ele>1739.0</ele>
        <time>2014-05-17T14:25:14Z</time>
      </trkpt>
      <trkpt lat="40.082817" lon="-5.411900">
        <ele>1740.0</ele>
        <time>2014-05-17T14:25:15Z</time>
      </trkpt>
      <trkpt lat="40.082800" lon="-5.412050">
        <ele>1741.0</ele>
        <time>2014-05-17T14:25:16Z</time>
      </trkpt>
      <trkpt lat="40.082817" lon="-5.412200">
        <ele>1743.0</ele>
        <time>2014-05-17T14:25:17Z</time>
      </trkpt>
      <trkpt lat="40.082833" lon="-5.412350">
        <ele>1744.0</ele>
        <time>2014-05-17T14:25:18Z</time>
      </trkpt>
      <trkpt lat="40.082883" lon="-5.412483">
        <ele>1746.0</ele>
        <time>2014-05-17T14:25:19Z</time>
      </trkpt>
      <trkpt lat="40.082950" lon="-5.412617">
        <ele>1748.0</ele>
        <time>2014-05-17T14:25:20Z</time>
      </trkpt>
      <trkpt lat="40.083017" lon="-5.412717">
        <ele>1750.0</ele>
        <time>2014-05-17T14:25:21Z</time>
      </trkpt>
      <trkpt lat="40.083100" lon="-5.412817">
        <ele>1752.0</ele>
        <time>2014-05-17T14:25:22Z</time>
      </trkpt>
      <trkpt lat="40.083183" lon="-5.412883">
        <ele>1754.0</ele>
        <time>2014-05-17T14:25:23Z</time>
      </trkpt>
      <trkpt lat="40.083283" lon="-5.412933">
        <ele>1755.0</ele>
        <time>2014-05-17T14:25:24Z</time>
      </trkpt>
      <trkpt lat="40.083367" lon="-5.412933">
        <ele>1757.0</ele>
        <time>2014-05-17T14:25:25Z</time>
      </trkpt>
      <trkpt lat="40.083450" lon="-5.412933">
        <ele>1758.0</ele>
        <time>2014-05-17T14:25:26Z</time>
      </trkpt>
      <trkpt lat="40.083517" lon="-5.412917">
        <ele>1760.0</ele>
        <time>2014-05-17T14:25:27Z</time>
      </trkpt>
      <trkpt lat="40.083583" lon="-5.412883">
        <ele>1762.0</ele>
        <time>2014-05-17T14:25:28Z</time>
      </trkpt>
      <trkpt lat="40.083650" lon="-5.412833">
        <ele>1762.0</ele>
        <time>2014-05-17T14:25:29Z</time>
      </trkpt>
      <trkpt lat="40.083683" lon="-5.412783">
        <ele>1764.0</ele>
        <time>2014-05-17T14:25:30Z</time>
      </trkpt>
      <trkpt lat="40.083700" lon="-5.412733">
        <ele>1765.0</ele>
        <time>2014-05-17T14:25:31Z</time>
      </trkpt>
      <trkpt lat="40.083700" lon="-5.412683">
        <ele>1766.0</ele>
        <time>2014-05-17T14:25:32Z</time>
      </trkpt>
      <trkpt lat="40.083667" lon="-5.412633">
        <ele>1766.0</ele>
        <time>2014-05-17T14:25:33Z</time>
      </trkpt>
      <trkpt lat="40.083633" lon="-5.412583">
        <ele>1765.0</ele>
        <time>2014-05-17T14:25:34Z</time>
      </trkpt>
      <trkpt lat="40.083567" lon="-5.412550">
        <ele>1765.0</ele>
        <time>2014-05-17T14:25:35Z</time>
      </trkpt>
      <trkpt lat="40.083500" lon="-5.412517">
        <ele>1765.0</ele>
        <time>2014-05-17T14:25:36Z</time>
      </trkpt>
      <trkpt lat="40.083417" lon="-5.412517">
        <ele>1765.0</ele>
        <time>2014-05-17T14:25:37Z</time>
      </trkpt>
      <trkpt lat="40.083350" lon="-5.412517">
        <ele>1766.0</ele>
        <time>2014-05-17T14:25:38Z</time>
      </trkpt>
      <trkpt lat="40.083283" lon="-5.412533">
        <ele>1767.0</ele>
        <time>2014-05-17T14:25:39Z</time>
      </trkpt>
      <trkpt lat="40.083217" lon="-5.412583">
        <ele>1768.0</ele>
        <time>2014-05-17T14:25:40Z</time>
      </trkpt>
      <trkpt lat="40.083133" lon="-5.412650">
        <ele>1768.0</ele>
        <time>2014-05-17T14:25:41Z</time>
      </trkpt>
      <trkpt lat="40.083050" lon="-5.412750">
        <ele>1768.0</ele>
        <time>2014-05-17T14:25:42Z</time>
      </trkpt>
      <trkpt lat="40.082983" lon="-5.412833">
        <ele>1768.0</ele>
        <time>2014-05-17T14:25:43Z</time>
      </trkpt>
      <trkpt lat="40.082900" lon="-5.412917">
        <ele>1769.0</ele>
        <time>2014-05-17T14:25:44Z</time>
      </trkpt>
      <trkpt lat="40.082833" lon="-5.413000">
        <ele>1771.0</ele>
        <time>2014-05-17T14:25:45Z</time>
      </trkpt>
      <trkpt lat="40.082783" lon="-5.413117">
        <ele>1773.0</ele>
        <time>2014-05-17T14:25:46Z</time>
      </trkpt>
      <trkpt lat="40.082733" lon="-5.413267">
        <ele>1775.0</ele>
        <time>2014-05-17T14:25:47Z</time>
      </trkpt>
      <trkpt lat="40.082700" lon="-5.413417">
        <ele>1777.0</ele>
        <time>2014-05-17T14:25:48Z</time>
      </trkpt>
      <trkpt lat="40.082683" lon="-5.413583">
        <ele>1778.0</ele>
        <time>2014-05-17T14:25:49Z</time>
      </trkpt>
      <trkpt lat="40.082683" lon="-5.413717">
        <ele>1781.0</ele>
        <time>2014-05-17T14:25:50Z</time>
      </trkpt>
      <trkpt lat="40.082700" lon="-5.413850">
        <ele>1784.0</ele>
        <time>2014-05-17T14:25:51Z</time>
      </trkpt>
      <trkpt lat="40.082717" lon="-5.413967">
        <ele>1788.0</ele>
        <time>2014-05-17T14:25:52Z</time>
      </trkpt>
      <trkpt lat="40.082750" lon="-5.414083">
        <ele>1790.0</ele>
        <time>2014-05-17T14:25:53Z</time>
      </trkpt>
      <trkpt lat="40.082783" lon="-5.414183">
        <ele>1792.0</ele>
        <time>2014-05-17T14:25:54Z</time>
      </trkpt>
      <trkpt lat="40.082867" lon="-5.414300">
        <ele>1793.0</ele>
        <time>2014-05-17T14:25:55Z</time>
      </trkpt>
      <trkpt lat="40.082950" lon="-5.414400">
        <ele>1794.0</ele>
        <time>2014-05-17T14:25:56Z</time>
      </trkpt>
      <trkpt lat="40.083033" lon="-5.414467">
        <ele>1795.0</ele>
        <time>2014-05-17T14:25:57Z</time>
      </trkpt>
      <trkpt lat="40.083117" lon="-5.414483">
        <ele>1797.0</ele>
        <time>2014-05-17T14:25:58Z</time>
      </trkpt>
      <trkpt lat="40.083217" lon="-5.414450">
        <ele>1798.0</ele>
        <time>2014-05-17T14:25:59Z</time>
      </trkpt>
      <trkpt lat="40.083283" lon="-5.414400">
        <ele>1799.0</ele>
        <time>2014-05-17T14:26:00Z</time>
      </trkpt>
      <trkpt lat="40.083350" lon="-5.414367">
        <ele>1801.0</ele>
        <time>2014-05-17T14:26:01Z</time>
      </trkpt>
      <trkpt lat="40.083417" lon="-5.414333">
        <ele>1803.0</ele>
        <time>2014-05-17T14:26:02Z</time>
      </trkpt>
      <trkpt lat="40.083450" lon="-5.414283">
        <ele>1805.0</ele>
        <time>2014-05-17T14:26:03Z</time>
      </trkpt>
      <trkpt lat="40.083483" lon="-5.414250">
        <ele>1808.0</ele>
        <time>2014-05-17T14:26:04Z</time>
      </trkpt>
      <trkpt lat="40.083483" lon="-5.414200">
        <ele>1810.0</ele>
        <time>2014-05-17T14:26:05Z</time>
      </trkpt>
      <trkpt lat="40.083483" lon="-5.414033">
        <ele>1814.0</ele>
        <time>2014-05-17T14:26:08Z</time>
      </trkpt>
      <trkpt lat="40.083467" lon="-5.414000">
        <ele>1814.0</ele>
        <time>2014-05-17T14:26:09Z</time>
      </trkpt>
      <trkpt lat="40.083417" lon="-5.413967">
        <ele>1814.0</ele>
        <time>2014-05-17T14:26:10Z</time>
      </trkpt>
      <trkpt lat="40.083350" lon="-5.413950">
        <ele>1813.0</ele>
        <time>2014-05-17T14:26:11Z</time>
      </trkpt>
      <trkpt lat="40.083283" lon="-5.413967">
        <ele>1814.0</ele>
        <time>2014-05-17T14:26:12Z</time>
      </trkpt>
      <trkpt lat="40.083233" lon="-5.414017">
        <ele>1814.0</ele>
        <time>2014-05-17T14:26:13Z</time>
      </trkpt>
      <trkpt lat="40.083167" lon="-5.414050">
        <ele>1815.0</ele>
        <time>2014-05-17T14:26:14Z</time>
      </trkpt>
      <trkpt lat="40.083100" lon="-5.414100">
        <ele>1815.0</ele>
        <time>2014-05-17T14:26:15Z</time>
      </trkpt>
      <trkpt lat="40.083017" lon="-5.414150">
        <ele>1815.0</ele>
        <time>2014-05-17T14:26:16Z</time>
      </trkpt>
      <trkpt lat="40.082933" lon="-5.414217">
        <ele>1816.0</ele>
        <time>2014-05-17T14:26:17Z</time>
      </trkpt>
      <trkpt lat="40.082867" lon="-5.414317">
        <ele>1817.0</ele>
        <time>2014-05-17T14:26:18Z</time>
      </trkpt>
      <trkpt lat="40.082800" lon="-5.414417">
        <ele>1819.0</ele>
        <time>2014-05-17T14:26:19Z</time>
      </trkpt>
      <trkpt lat="40.082767" lon="-5.414517">
        <ele>1822.0</ele>
        <time>2014-05-17T14:26:20Z</time>
      </trkpt>
      <trkpt lat="40.082733" lon="-5.414633">
        <ele>1825.0</ele>
        <time>2014-05-17T14:26:21Z</time>
      </trkpt>
      <trkpt lat="40.082700" lon="-5.414733">
        <ele>1829.0</ele>
        <time>2014-05-17T14:26:22Z</time>
      </trkpt>
      <trkpt lat="40.082667" lon="-5.414833">
        <ele>1832.0</ele>
        <time>2014-05-17T14:26:23Z</time>
      </trkpt>
      <trkpt lat="40.082633" lon="-5.414933">
        <ele>1833.0</ele>
        <time>2014-05-17T14:26:24Z</time>
      </trkpt>
      <trkpt lat="40.082583" lon="-5.415033">
        <ele>1835.0</ele>
        <time>2014-05-17T14:26:25Z</time>
      </trkpt>
      <trkpt lat="40.082567" lon="-5.415150">
        <ele>1836.0</ele>
        <time>2014-05-17T14:26:26Z</time>
      </trkpt>
      <trkpt lat="40.082533" lon="-5.415283">
        <ele>1837.0</ele>
        <time>2014-05-17T14:26:27Z</time>
      </trkpt>
      <trkpt lat="40.082533" lon="-5.415417">
        <ele>1838.0</ele>
        <time>2014-05-17T14:26:28Z</time>
      </trkpt>
      <trkpt lat="40.082550" lon="-5.415517">
        <ele>1840.0</ele>
        <time>2014-05-17T14:26:29Z</time>
      </trkpt>
      <trkpt lat="40.082567" lon="-5.415633">
        <ele>1841.0</ele>
        <time>2014-05-17T14:26:30Z</time>
      </trkpt>
      <trkpt lat="40.082600" lon="-5.415750">
        <ele>1842.0</ele>
        <time>2014-05-17T14:26:31Z</time>
      </trkpt>
      <trkpt lat="40.082600" lon="-5.415850">
        <ele>1843.0</ele>
        <time>2014-05-17T14:26:32Z</time>
      </trkpt>
      <trkpt lat="40.082617" lon="-5.415967">
        <ele>1843.0</ele>
        <time>2014-05-17T14:26:33Z</time>
      </trkpt>
      <trkpt lat="40.082617" lon="-5.416083">
        <ele>1842.0</ele>
        <time>2014-05-17T14:26:34Z</time>
      </trkpt>
      <trkpt lat="40.082617" lon="-5.416217">
        <ele>1841.0</ele>
        <time>2014-05-17T14:26:35Z</time>
      </trkpt>
      <trkpt lat="40.082600" lon="-5.416350">
        <ele>1838.0</ele>
        <time>2014-05-17T14:26:36Z</time>
      </trkpt>
      <trkpt lat="40.082550" lon="-5.416467">
        <ele>1836.0</ele>
        <time>2014-05-17T14:26:37Z</time>
      </trkpt>
      <trkpt lat="40.082517" lon="-5.416583">
        <ele>1835.0</ele>
        <time>2014-05-17T14:26:38Z</time>
      </trkpt>
      <trkpt lat="40.082450" lon="-5.416700">
        <ele>1834.0</ele>
        <time>2014-05-17T14:26:39Z</time>
      </trkpt>
      <trkpt lat="40.082383" lon="-5.416800">
        <ele>1834.0</ele>
        <time>2014-05-17T14:26:40Z</time>
      </trkpt>
      <trkpt lat="40.082333" lon="-5.416900">
        <ele>1834.0</ele>
        <time>2014-05-17T14:26:41Z</time>
      </trkpt>
      <trkpt lat="40.082283" lon="-5.417017">
        <ele>1834.0</ele>
        <time>2014-05-17T14:26:42Z</time>
      </trkpt>
      <trkpt lat="40.082217" lon="-5.417117">
        <ele>1834.0</ele>
        <time>2014-05-17T14:26:43Z</time>
      </trkpt>
      <trkpt lat="40.082167" lon="-5.417217">
        <ele>1836.0</ele>
        <time>2014-05-17T14:26:44Z</time>
      </trkpt>
      <trkpt lat="40.082117" lon="-5.417317">
        <ele>1838.0</ele>
        <time>2014-05-17T14:26:45Z</time>
      </trkpt>
      <trkpt lat="40.082067" lon="-5.417417">
        <ele>1841.0</ele>
        <time>2014-05-17T14:26:46Z</time>
      </trkpt>
      <trkpt lat="40.082017" lon="-5.417517">
        <ele>1844.0</ele>
        <time>2014-05-17T14:26:47Z</time>
      </trkpt>
      <trkpt lat="40.081967" lon="-5.417617">
        <ele>1846.0</ele>
        <time>2014-05-17T14:26:48Z</time>
      </trkpt>
      <trkpt lat="40.081917" lon="-5.417750">
        <ele>1850.0</ele>
        <time>2014-05-17T14:26:49Z</time>
      </trkpt>
      <trkpt lat="40.081867" lon="-5.417867">
        <ele>1853.0</ele>
        <time>2014-05-17T14:26:50Z</time>
      </trkpt>
      <trkpt lat="40.081833" lon="-5.417967">
        <ele>1857.0</ele>
        <time>2014-05-17T14:26:51Z</time>
      </trkpt>
      <trkpt lat="40.081800" lon="-5.418083">
        <ele>1862.0</ele>
        <time>2014-05-17T14:26:52Z</time>
      </trkpt>
      <trkpt lat="40.081767" lon="-5.418183">
        <ele>1867.0</ele>
        <time>2014-05-17T14:26:53Z</time>
      </trkpt>
      <trkpt lat="40.081733" lon="-5.418300">
        <ele>1871.0</ele>
        <time>2014-05-17T14:26:54Z</time>
      </trkpt>
      <trkpt lat="40.081683" lon="-5.418417">
        <ele>1874.0</ele>
        <time>2014-05-17T14:26:55Z</time>
      </trkpt>
      <trkpt lat="40.081667" lon="-5.418533">
        <ele>1877.0</ele>
        <time>2014-05-17T14:26:56Z</time>
      </trkpt>
      <trkpt lat="40.081667" lon="-5.418650">
        <ele>1881.0</ele>
        <time>2014-05-17T14:26:57Z</time>
      </trkpt>
      <trkpt lat="40.081700" lon="-5.418750">
        <ele>1885.0</ele>
        <time>2014-05-17T14:26:58Z</time>
      </trkpt>
      <trkpt lat="40.081733" lon="-5.418833">
        <ele>1888.0</ele>
        <time>2014-05-17T14:26:59Z</time>
      </trkpt>
      <trkpt lat="40.081767" lon="-5.418950">
        <ele>1889.0</ele>
        <time>2014-05-17T14:27:00Z</time>
      </trkpt>
      <trkpt lat="40.081833" lon="-5.419083">
        <ele>1889.0</ele>
        <time>2014-05-17T14:27:01Z</time>
      </trkpt>
      <trkpt lat="40.081900" lon="-5.419217">
        <ele>1890.0</ele>
        <time>2014-05-17T14:27:02Z</time>
      </trkpt>
      <trkpt lat="40.082000" lon="-5.419317">
        <ele>1893.0</ele>
        <time>2014-05-17T14:27:03Z</time>
      </trkpt>
      <trkpt lat="40.082100" lon="-5.419367">
        <ele>1896.0</ele>
        <time>2014-05-17T14:27:04Z</time>
      </trkpt>
      <trkpt lat="40.082200" lon="-5.419400">
        <ele>1899.0</ele>
        <time>2014-05-17T14:27:05Z</time>
      </trkpt>
      <trkpt lat="40.082300" lon="-5.419417">
        <ele>1901.0</ele>
        <time>2014-05-17T14:27:06Z</time>
      </trkpt>
      <trkpt lat="40.082383" lon="-5.419450">
        <ele>1903.0</ele>
        <time>2014-05-17T14:27:07Z</time>
      </trkpt>
      <trkpt lat="40.082467" lon="-5.419467">
        <ele>1905.0</ele>
        <time>2014-05-17T14:27:08Z</time>
      </trkpt>
      <trkpt lat="40.082567" lon="-5.419467">
        <ele>1907.0</ele>
        <time>2014-05-17T14:27:09Z</time>
      </trkpt>
      <trkpt lat="40.082650" lon="-5.419433">
        <ele>1909.0</ele>
        <time>2014-05-17T14:27:10Z</time>
      </trkpt>
      <trkpt lat="40.082733" lon="-5.419383">
        <ele>1910.0</ele>
        <time>2014-05-17T14:27:11Z</time>
      </trkpt>
      <trkpt lat="40.082817" lon="-5.419333">
        <ele>1912.0</ele>
        <time>2014-05-17T14:27:12Z</time>
      </trkpt>
      <trkpt lat="40.082883" lon="-5.419283">
        <ele>1914.0</ele>
        <time>2014-05-17T14:27:13Z</time>
      </trkpt>
      <trkpt lat="40.082933" lon="-5.419233">
        <ele>1916.0</ele>
        <time>2014-05-17T14:27:14Z</time>
      </trkpt>
      <trkpt lat="40.082983" lon="-5.419167">
        <ele>1918.0</ele>
        <time>2014-05-17T14:27:15Z</time>
      </trkpt>
      <trkpt lat="40.083033" lon="-5.419083">
        <ele>1919.0</ele>
        <time>2014-05-17T14:27:16Z</time>
      </trkpt>
      <trkpt lat="40.083067" lon="-5.419000">
        <ele>1920.0</ele>
        <time>2014-05-17T14:27:17Z</time>
      </trkpt>
      <trkpt lat="40.083083" lon="-5.418917">
        <ele>1921.0</ele>
        <time>2014-05-17T14:27:18Z</time>
      </trkpt>
      <trkpt lat="40.083100" lon="-5.418833">
        <ele>1922.0</ele>
        <time>2014-05-17T14:27:19Z</time>
      </trkpt>
      <trkpt lat="40.083100" lon="-5.418750">
        <ele>1923.0</ele>
        <time>2014-05-17T14:27:20Z</time>
      </trkpt>
      <trkpt lat="40.083083" lon="-5.418667">
        <ele>1923.0</ele>
        <time>2014-05-17T14:27:21Z</time>
      </trkpt>
      <trkpt lat="40.082983" lon="-5.418567">
        <ele>1922.0</ele>
        <time>2014-05-17T14:27:23Z</time>
      </trkpt>
      <trkpt lat="40.082917" lon="-5.418550">
        <ele>1922.0</ele>
        <time>2014-05-17T14:27:24Z</time>
      </trkpt>
      <trkpt lat="40.082833" lon="-5.418550">
        <ele>1922.0</ele>
        <time>2014-05-17T14:27:25Z</time>
      </trkpt>
      <trkpt lat="40.082750" lon="-5.418567">
        <ele>1921.0</ele>
        <time>2014-05-17T14:27:26Z</time>
      </trkpt>
      <trkpt lat="40.082667" lon="-5.418600">
        <ele>1921.0</ele>
        <time>2014-05-17T14:27:27Z</time>
      </trkpt>
      <trkpt lat="40.082583" lon="-5.418650">
        <ele>1921.0</ele>
        <time>2014-05-17T14:27:28Z</time>
      </trkpt>
      <trkpt lat="40.082500" lon="-5.418717">
        <ele>1922.0</ele>
        <time>2014-05-17T14:27:29Z</time>
      </trkpt>
      <trkpt lat="40.082433" lon="-5.418800">
        <ele>1922.0</ele>
        <time>2014-05-17T14:27:30Z</time>
      </trkpt>
      <trkpt lat="40.082350" lon="-5.418883">
        <ele>1924.0</ele>
        <time>2014-05-17T14:27:31Z</time>
      </trkpt>
      <trkpt lat="40.082283" lon="-5.418983">
        <ele>1926.0</ele>
        <time>2014-05-17T14:27:32Z</time>
      </trkpt>
      <trkpt lat="40.082233" lon="-5.419067">
        <ele>1929.0</ele>
        <time>2014-05-17T14:27:33Z</time>
      </trkpt>
      <trkpt lat="40.082200" lon="-5.419150">
        <ele>1933.0</ele>
        <time>2014-05-17T14:27:34Z</time>
      </trkpt>
      <trkpt lat="40.082150" lon="-5.419233">
        <ele>1935.0</ele>
        <time>2014-05-17T14:27:35Z</time>
      </trkpt>
      <trkpt lat="40.082067" lon="-5.419300">
        <ele>1937.0</ele>
        <time>2014-05-17T14:27:36Z</time>
      </trkpt>
      <trkpt lat="40.082000" lon="-5.419367">
        <ele>1938.0</ele>
        <time>2014-05-17T14:27:37Z</time>
      </trkpt>
      <trkpt lat="40.081917" lon="-5.419433">
        <ele>1939.0</ele>
        <time>2014-05-17T14:27:38Z</time>
      </trkpt>
      <trkpt lat="40.081850" lon="-5.419500">
        <ele>1940.0</ele>
        <time>2014-05-17T14:27:39Z</time>
      </trkpt>
      <trkpt lat="40.081767" lon="-5.419550">
        <ele>1942.0</ele>
        <time>2014-05-17T14:27:40Z</time>
      </trkpt>
      <trkpt lat="40.081683" lon="-5.419600">
        <ele>1945.0</ele>
        <time>2014-05-17T14:27:41Z</time>
      </trkpt>
      <trkpt lat="40.081617" lon="-5.419650">
        <ele>1950.0</ele>
        <time>2014-05-17T14:27:42Z</time>
      </trkpt>
      <trkpt lat="40.081550" lon="-5.419717">
        <ele>1954.0</ele>
        <time>2014-05-17T14:27:43Z</time>
      </trkpt>
      <trkpt lat="40.081500" lon="-5.419783">
        <ele>1957.0</ele>
        <time>2014-05-17T14:27:44Z</time>
      </trkpt>
      <trkpt lat="40.081433" lon="-5.419867">
        <ele>1960.0</ele>
        <time>2014-05-17T14:27:45Z</time>
      </trkpt>
      <trkpt lat="40.081367" lon="-5.419950">
        <ele>1962.0</ele>
        <time>2014-05-17T14:27:46Z</time>
      </trkpt>
      <trkpt lat="40.081300" lon="-5.420033">
        <ele>1965.0</ele>
        <time>2014-05-17T14:27:47Z</time>
      </trkpt>
      <trkpt lat="40.081233" lon="-5.420117">
        <ele>1968.0</ele>
        <time>2014-05-17T14:27:48Z</time>
      </trkpt>
      <trkpt lat="40.081167" lon="-5.420200">
        <ele>1970.0</ele>
        <time>2014-05-17T14:27:49Z</time>
      </trkpt>
      <trkpt lat="40.081100" lon="-5.420283">
        <ele>1972.0</ele>
        <time>2014-05-17T14:27:50Z</time>
      </trkpt>
      <trkpt lat="40.081033" lon="-5.420350">
        <ele>1973.0</ele>
        <time>2014-05-17T14:27:51Z</time>
      </trkpt>
      <trkpt lat="40.080950" lon="-5.420433">
        <ele>1973.0</ele>
        <time>2014-05-17T14:27:52Z</time>
      </trkpt>
      <trkpt lat="40.080883" lon="-5.420500">
        <ele>1974.0</ele>
        <time>2014-05-17T14:27:53Z</time>
      </trkpt>
      <trkpt lat="40.080817" lon="-5.420583">
        <ele>1975.0</ele>
        <time>2014-05-17T14:27:54Z</time>
      </trkpt>
      <trkpt lat="40.080750" lon="-5.420650">
        <ele>1975.0</ele>
        <time>2014-05-17T14:27:55Z</time>
      </trkpt>
      <trkpt lat="40.080683" lon="-5.420717">
        <ele>1976.0</ele>
        <time>2014-05-17T14:27:56Z</time>
      </trkpt>
      <trkpt lat="40.080600" lon="-5.420783">
        <ele>1976.0</ele>
        <time>2014-05-17T14:27:57Z</time>
      </trkpt>
      <trkpt lat="40.080533" lon="-5.420867">
        <ele>1977.0</ele>
        <time>2014-05-17T14:27:58Z</time>
      </trkpt>
      <trkpt lat="40.080467" lon="-5.420933">
        <ele>1976.0</ele>
        <time>2014-05-17T14:27:59Z</time>
      </trkpt>
      <trkpt lat="40.080417" lon="-5.421017">
        <ele>1976.0</ele>
        <time>2014-05-17T14:28:00Z</time>
      </trkpt>
      <trkpt lat="40.080350" lon="-5.421083">
        <ele>1975.0</ele>
        <time>2014-05-17T14:28:01Z</time>
      </trkpt>
      <trkpt lat="40.080283" lon="-5.421167">
        <ele>1975.0</ele>
        <time>2014-05-17T14:28:02Z</time>
      </trkpt>
      <trkpt lat="40.080233" lon="-5.421217">
        <ele>1974.0</ele>
        <time>2014-05-17T14:28:03Z</time>
      </trkpt>
      <trkpt lat="40.080167" lon="-5.421300">
        <ele>1972.0</ele>
        <time>2014-05-17T14:28:04Z</time>
      </trkpt>
      <trkpt lat="40.080100" lon="-5.421367">
        <ele>1970.0</ele>
        <time>2014-05-17T14:28:05Z</time>
      </trkpt>
      <trkpt lat="40.080050" lon="-5.421450">
        <ele>1968.0</ele>
        <time>2014-05-17T14:28:06Z</time>
      </trkpt>
      <trkpt lat="40.079983" lon="-5.421533">
        <ele>1965.0</ele>
        <time>2014-05-17T14:28:07Z</time>
      </trkpt>
      <trkpt lat="40.079933" lon="-5.421617">
        <ele>1963.0</ele>
        <time>2014-05-17T14:28:08Z</time>
      </trkpt>
      <trkpt lat="40.079867" lon="-5.421683">
        <ele>1961.0</ele>
        <time>2014-05-17T14:28:09Z</time>
      </trkpt>
      <trkpt lat="40.079817" lon="-5.421750">
        <ele>1959.0</ele>
        <time>2014-05-17T14:28:10Z</time>
      </trkpt>
      <trkpt lat="40.079767" lon="-5.421817">
        <ele>1958.0</ele>
        <time>2014-05-17T14:28:11Z</time>
      </trkpt>
      <trkpt lat="40.079733" lon="-5.421883">
        <ele>1956.0</ele>
        <time>2014-05-17T14:28:12Z</time>
      </trkpt>
      <trkpt lat="40.079683" lon="-5.421967">
        <ele>1954.0</ele>
        <time>2014-05-17T14:28:13Z</time>
      </trkpt>
      <trkpt lat="40.079650" lon="-5.422050">
        <ele>1952.0</ele>
        <time>2014-05-17T14:28:14Z</time>
      </trkpt>
      <trkpt lat="40.079600" lon="-5.422150">
        <ele>1949.0</ele>
        <time>2014-05-17T14:28:15Z</time>
      </trkpt>
      <trkpt lat="40.079550" lon="-5.422250">
        <ele>1947.0</ele>
        <time>2014-05-17T14:28:16Z</time>
      </trkpt>
      <trkpt lat="40.079500" lon="-5.422317">
        <ele>1945.0</ele>
        <time>2014-05-17T14:28:17Z</time>
      </trkpt>
      <trkpt lat="40.079450" lon="-5.422400">
        <ele>1943.0</ele>
        <time>2014-05-17T14:28:18Z</time>
      </trkpt>
      <trkpt lat="40.079383" lon="-5.422450">
        <ele>1941.0</ele>
        <time>2014-05-17T14:28:19Z</time>
      </trkpt>
      <trkpt lat="40.079267" lon="-5.422633">
        <ele>1935.0</ele>
        <time>2014-05-17T14:28:21Z</time>
      </trkpt>
      <trkpt lat="40.079217" lon="-5.422750">
        <ele>1931.0</ele>
        <time>2014-05-17T14:28:22Z</time>
      </trkpt>
      <trkpt lat="40.079133" lon="-5.422850">
        <ele>1928.0</ele>
        <time>2014-05-17T14:28:23Z</time>
      </trkpt>
      <trkpt lat="40.079067" lon="-5.422933">
        <ele>1926.0</ele>
        <time>2014-05-17T14:28:24Z</time>
      </trkpt>
      <trkpt lat="40.078983" lon="-5.423017">
        <ele>1924.0</ele>
        <time>2014-05-17T14:28:25Z</time>
      </trkpt>
      <trkpt lat="40.078917" lon="-5.423117">
        <ele>1922.0</ele>
        <time>2014-05-17T14:28:26Z</time>
      </trkpt>
      <trkpt lat="40.078850" lon="-5.423200">
        <ele>1920.0</ele>
        <time>2014-05-17T14:28:27Z</time>
      </trkpt>
      <trkpt lat="40.078800" lon="-5.423283">
        <ele>1919.0</ele>
        <time>2014-05-17T14:28:28Z</time>
      </trkpt>
      <trkpt lat="40.078733" lon="-5.423367">
        <ele>1918.0</ele>
        <time>2014-05-17T14:28:29Z</time>
      </trkpt>
      <trkpt lat="40.078667" lon="-5.423450">
        <ele>1917.0</ele>
        <time>2014-05-17T14:28:30Z</time>
      </trkpt>
      <trkpt lat="40.078617" lon="-5.423550">
        <ele>1916.0</ele>
        <time>2014-05-17T14:28:31Z</time>
      </trkpt>
      <trkpt lat="40.078550" lon="-5.423650">
        <ele>1914.0</ele>
        <time>2014-05-17T14:28:32Z</time>
      </trkpt>
      <trkpt lat="40.078483" lon="-5.423750">
        <ele>1914.0</ele>
        <time>2014-05-17T14:28:33Z</time>
      </trkpt>
      <trkpt lat="40.078433" lon="-5.423850">
        <ele>1914.0</ele>
        <time>2014-05-17T14:28:34Z</time>
      </trkpt>
      <trkpt lat="40.078400" lon="-5.423933">
        <ele>1913.0</ele>
        <time>2014-05-17T14:28:35Z</time>
      </trkpt>
      <trkpt lat="40.078367" lon="-5.424033">
        <ele>1912.0</ele>
        <time>2014-05-17T14:28:36Z</time>
      </trkpt>
      <trkpt lat="40.078317" lon="-5.424117">
        <ele>1909.0</ele>
        <time>2014-05-17T14:28:37Z</time>
      </trkpt>
      <trkpt lat="40.078250" lon="-5.424200">
        <ele>1906.0</ele>
        <time>2014-05-17T14:28:38Z</time>
      </trkpt>
      <trkpt lat="40.078167" lon="-5.424300">
        <ele>1903.0</ele>
        <time>2014-05-17T14:28:39Z</time>
      </trkpt>
      <trkpt lat="40.078100" lon="-5.424400">
        <ele>1900.0</ele>
        <time>2014-05-17T14:28:40Z</time>
      </trkpt>
      <trkpt lat="40.078017" lon="-5.424483">
        <ele>1899.0</ele>
        <time>2014-05-17T14:28:41Z</time>
      </trkpt>
      <trkpt lat="40.077950" lon="-5.424567">
        <ele>1898.0</ele>
        <time>2014-05-17T14:28:42Z</time>
      </trkpt>
      <trkpt lat="40.077883" lon="-5.424633">
        <ele>1896.0</ele>
        <time>2014-05-17T14:28:43Z</time>
      </trkpt>
      <trkpt lat="40.077800" lon="-5.424717">
        <ele>1894.0</ele>
        <time>2014-05-17T14:28:44Z</time>
      </trkpt>
      <trkpt lat="40.077733" lon="-5.424817">
        <ele>1892.0</ele>
        <time>2014-05-17T14:28:45Z</time>
      </trkpt>
      <trkpt lat="40.077650" lon="-5.424900">
        <ele>1890.0</ele>
        <time>2014-05-17T14:28:46Z</time>
      </trkpt>
      <trkpt lat="40.077583" lon="-5.424983">
        <ele>1889.0</ele>
        <time>2014-05-17T14:28:47Z</time>
      </trkpt>
      <trkpt lat="40.077500" lon="-5.425050">
        <ele>1888.0</ele>
        <time>2014-05-17T14:28:48Z</time>
      </trkpt>
      <trkpt lat="40.077433" lon="-5.425133">
        <ele>1887.0</ele>
        <time>2014-05-17T14:28:49Z</time>
      </trkpt>
      <trkpt lat="40.077367" lon="-5.425217">
        <ele>1886.0</ele>
        <time>2014-05-17T14:28:50Z</time>
      </trkpt>
      <trkpt lat="40.077300" lon="-5.425300">
        <ele>1885.0</ele>
        <time>2014-05-17T14:28:51Z</time>
      </trkpt>
      <trkpt lat="40.077233" lon="-5.425400">
        <ele>1884.0</ele>
        <time>2014-05-17T14:28:52Z</time>
      </trkpt>
      <trkpt lat="40.077167" lon="-5.425483">
        <ele>1883.0</ele>
        <time>2014-05-17T14:28:53Z</time>
      </trkpt>
      <trkpt lat="40.077100" lon="-5.425583">
        <ele>1881.0</ele>
        <time>2014-05-17T14:28:54Z</time>
      </trkpt>
      <trkpt lat="40.077033" lon="-5.425683">
        <ele>1880.0</ele>
        <time>2014-05-17T14:28:55Z</time>
      </trkpt>
      <trkpt lat="40.076983" lon="-5.425783">
        <ele>1878.0</ele>
        <time>2014-05-17T14:28:56Z</time>
      </trkpt>
      <trkpt lat="40.076900" lon="-5.425883">
        <ele>1877.0</ele>
        <time>2014-05-17T14:28:57Z</time>
      </trkpt>
      <trkpt lat="40.076833" lon="-5.425983">
        <ele>1875.0</ele>
        <time>2014-05-17T14:28:58Z</time>
      </trkpt>
      <trkpt lat="40.076783" lon="-5.426083">
        <ele>1875.0</ele>
        <time>2014-05-17T14:28:59Z</time>
      </trkpt>
      <trkpt lat="40.076717" lon="-5.426167">
        <ele>1875.0</ele>
        <time>2014-05-17T14:29:00Z</time>
      </trkpt>
      <trkpt lat="40.076650" lon="-5.426267">
        <ele>1874.0</ele>
        <time>2014-05-17T14:29:01Z</time>
      </trkpt>
      <trkpt lat="40.076600" lon="-5.426350">
        <ele>1873.0</ele>
        <time>2014-05-17T14:29:02Z</time>
      </trkpt>
      <trkpt lat="40.076550" lon="-5.426467">
        <ele>1871.0</ele>
        <time>2014-05-17T14:29:03Z</time>
      </trkpt>
      <trkpt lat="40.076483" lon="-5.426567">
        <ele>1870.0</ele>
        <time>2014-05-17T14:29:04Z</time>
      </trkpt>
      <trkpt lat="40.076433" lon="-5.426683">
        <ele>1869.0</ele>
        <time>2014-05-17T14:29:05Z</time>
      </trkpt>
      <trkpt lat="40.076367" lon="-5.426800">
        <ele>1867.0</ele>
        <time>2014-05-17T14:29:06Z</time>
      </trkpt>
      <trkpt lat="40.076317" lon="-5.426917">
        <ele>1866.0</ele>
        <time>2014-05-17T14:29:07Z</time>
      </trkpt>
      <trkpt lat="40.076233" lon="-5.427017">
        <ele>1865.0</ele>
        <time>2014-05-17T14:29:08Z</time>
      </trkpt>
      <trkpt lat="40.076167" lon="-5.427117">
        <ele>1865.0</ele>
        <time>2014-05-17T14:29:09Z</time>
      </trkpt>
      <trkpt lat="40.076117" lon="-5.427200">
        <ele>1865.0</ele>
        <time>2014-05-17T14:29:10Z</time>
      </trkpt>
      <trkpt lat="40.076050" lon="-5.427283">
        <ele>1864.0</ele>
        <time>2014-05-17T14:29:11Z</time>
      </trkpt>
      <trkpt lat="40.075983" lon="-5.427367">
        <ele>1863.0</ele>
        <time>2014-05-17T14:29:12Z</time>
      </trkpt>
      <trkpt lat="40.075917" lon="-5.427450">
        <ele>1862.0</ele>
        <time>2014-05-17T14:29:13Z</time>
      </trkpt>
      <trkpt lat="40.075850" lon="-5.427550">
        <ele>1861.0</ele>
        <time>2014-05-17T14:29:14Z</time>
      </trkpt>
      <trkpt lat="40.075783" lon="-5.427633">
        <ele>1860.0</ele>
        <time>2014-05-17T14:29:15Z</time>
      </trkpt>
      <trkpt lat="40.075717" lon="-5.427717">
        <ele>1859.0</ele>
        <time>2014-05-17T14:29:16Z</time>
      </trkpt>
      <trkpt lat="40.075650" lon="-5.427817">
        <ele>1858.0</ele>
        <time>2014-05-17T14:29:17Z</time>
      </trkpt>
      <trkpt lat="40.075583" lon="-5.427917">
        <ele>1856.0</ele>
        <time>2014-05-17T14:29:18Z</time>
      </trkpt>
      <trkpt lat="40.075517" lon="-5.428017">
        <ele>1854.0</ele>
        <time>2014-05-17T14:29:19Z</time>
      </trkpt>
      <trkpt lat="40.075450" lon="-5.428117">
        <ele>1853.0</ele>
        <time>2014-05-17T14:29:20Z</time>
      </trkpt>
      <trkpt lat="40.075383" lon="-5.428233">
        <ele>1851.0</ele>
        <time>2014-05-17T14:29:21Z</time>
      </trkpt>
      <trkpt lat="40.075333" lon="-5.428333">
        <ele>1850.0</ele>
        <time>2014-05-17T14:29:22Z</time>
      </trkpt>
      <trkpt lat="40.075267" lon="-5.428450">
        <ele>1849.0</ele>
        <time>2014-05-17T14:29:23Z</time>
      </trkpt>
      <trkpt lat="40.075200" lon="-5.428550">
        <ele>1846.0</ele>
        <time>2014-05-17T14:29:24Z</time>
      </trkpt>
      <trkpt lat="40.075133" lon="-5.428667">
        <ele>1844.0</ele>
        <time>2014-05-17T14:29:25Z</time>
      </trkpt>
      <trkpt lat="40.075067" lon="-5.428783">
        <ele>1841.0</ele>
        <time>2014-05-17T14:29:26Z</time>
      </trkpt>
      <trkpt lat="40.075000" lon="-5.428883">
        <ele>1839.0</ele>
        <time>2014-05-17T14:29:27Z</time>
      </trkpt>
      <trkpt lat="40.074933" lon="-5.428983">
        <ele>1837.0</ele>
        <time>2014-05-17T14:29:28Z</time>
      </trkpt>
      <trkpt lat="40.074867" lon="-5.429083">
        <ele>1835.0</ele>
        <time>2014-05-17T14:29:29Z</time>
      </trkpt>
      <trkpt lat="40.074800" lon="-5.429183">
        <ele>1833.0</ele>
        <time>2014-05-17T14:29:30Z</time>
      </trkpt>
      <trkpt lat="40.074733" lon="-5.429283">
        <ele>1831.0</ele>
        <time>2014-05-17T14:29:31Z</time>
      </trkpt>
      <trkpt lat="40.074650" lon="-5.429383">
        <ele>1829.0</ele>
        <time>2014-05-17T14:29:32Z</time>
      </trkpt>
      <trkpt lat="40.074567" lon="-5.429467">
        <ele>1826.0</ele>
        <time>2014-05-17T14:29:33Z</time>
      </trkpt>
      <trkpt lat="40.074467" lon="-5.429567">
        <ele>1823.0</ele>
        <time>2014-05-17T14:29:34Z</time>
      </trkpt>
      <trkpt lat="40.074400" lon="-5.429650">
        <ele>1822.0</ele>
        <time>2014-05-17T14:29:35Z</time>
      </trkpt>
      <trkpt lat="40.074333" lon="-5.429733">
        <ele>1821.0</ele>
        <time>2014-05-17T14:29:36Z</time>
      </trkpt>
      <trkpt lat="40.074267" lon="-5.429817">
        <ele>1820.0</ele>
        <time>2014-05-17T14:29:37Z</time>
      </trkpt>
      <trkpt lat="40.074200" lon="-5.429917">
        <ele>1818.0</ele>
        <time>2014-05-17T14:29:38Z</time>
      </trkpt>
      <trkpt lat="40.074117" lon="-5.430033">
        <ele>1814.0</ele>
        <time>2014-05-17T14:29:39Z</time>
      </trkpt>
      <trkpt lat="40.074033" lon="-5.430133">
        <ele>1812.0</ele>
        <time>2014-05-17T14:29:40Z</time>
      </trkpt>
      <trkpt lat="40.073983" lon="-5.430250">
        <ele>1810.0</ele>
        <time>2014-05-17T14:29:41Z</time>
      </trkpt>
      <trkpt lat="40.073933" lon="-5.430350">
        <ele>1810.0</ele>
        <time>2014-05-17T14:29:42Z</time>
      </trkpt>
      <trkpt lat="40.073883" lon="-5.430450">
        <ele>1809.0</ele>
        <time>2014-05-17T14:29:43Z</time>
      </trkpt>
      <trkpt lat="40.073833" lon="-5.430567">
        <ele>1807.0</ele>
        <time>2014-05-17T14:29:44Z</time>
      </trkpt>
      <trkpt lat="40.073767" lon="-5.430683">
        <ele>1804.0</ele>
        <time>2014-05-17T14:29:45Z</time>
      </trkpt>
      <trkpt lat="40.073683" lon="-5.430783">
        <ele>1802.0</ele>
        <time>2014-05-17T14:29:46Z</time>
      </trkpt>
      <trkpt lat="40.073633" lon="-5.430883">
        <ele>1801.0</ele>
        <time>2014-05-17T14:29:47Z</time>
      </trkpt>
      <trkpt lat="40.073567" lon="-5.430983">
        <ele>1800.0</ele>
        <time>2014-05-17T14:29:48Z</time>
      </trkpt>
      <trkpt lat="40.073517" lon="-5.431067">
        <ele>1798.0</ele>
        <time>2014-05-17T14:29:49Z</time>
      </trkpt>
      <trkpt lat="40.073450" lon="-5.431167">
        <ele>1797.0</ele>
        <time>2014-05-17T14:29:50Z</time>
      </trkpt>
      <trkpt lat="40.073383" lon="-5.431283">
        <ele>1794.0</ele>
        <time>2014-05-17T14:29:51Z</time>
      </trkpt>
      <trkpt lat="40.073300" lon="-5.431400">
        <ele>1792.0</ele>
        <time>2014-05-17T14:29:52Z</time>
      </trkpt>
      <trkpt lat="40.073233" lon="-5.431500">
        <ele>1789.0</ele>
        <time>2014-05-17T14:29:53Z</time>
      </trkpt>
      <trkpt lat="40.073100" lon="-5.431667">
        <ele>1787.0</ele>
        <time>2014-05-17T14:29:55Z</time>
      </trkpt>
      <trkpt lat="40.073050" lon="-5.431750">
        <ele>1786.0</ele>
        <time>2014-05-17T14:29:56Z</time>
      </trkpt>
      <trkpt lat="40.073000" lon="-5.431833">
        <ele>1785.0</ele>
        <time>2014-05-17T14:29:57Z</time>
      </trkpt>
      <trkpt lat="40.072950" lon="-5.431950">
        <ele>1782.0</ele>
        <time>2014-05-17T14:29:58Z</time>
      </trkpt>
      <trkpt lat="40.072883" lon="-5.432067">
        <ele>1780.0</ele>
        <time>2014-05-17T14:29:59Z</time>
      </trkpt>
      <trkpt lat="40.072833" lon="-5.432183">
        <ele>1778.0</ele>
        <time>2014-05-17T14:30:00Z</time>
      </trkpt>
      <trkpt lat="40.072783" lon="-5.432300">
        <ele>1777.0</ele>
        <time>2014-05-17T14:30:01Z</time>
      </trkpt>
      <trkpt lat="40.072733" lon="-5.432400">
        <ele>1777.0</ele>
        <time>2014-05-17T14:30:02Z</time>
      </trkpt>
      <trkpt lat="40.072683" lon="-5.432483">
        <ele>1775.0</ele>
        <time>2014-05-17T14:30:03Z</time>
      </trkpt>
      <trkpt lat="40.072617" lon="-5.432583">
        <ele>1773.0</ele>
        <time>2014-05-17T14:30:04Z</time>
      </trkpt>
      <trkpt lat="40.072550" lon="-5.432683">
        <ele>1771.0</ele>
        <time>2014-05-17T14:30:05Z</time>
      </trkpt>
      <trkpt lat="40.072483" lon="-5.432783">
        <ele>1770.0</ele>
        <time>2014-05-17T14:30:06Z</time>
      </trkpt>
      <trkpt lat="40.072417" lon="-5.432883">
        <ele>1768.0</ele>
        <time>2014-05-17T14:30:07Z</time>
      </trkpt>
      <trkpt lat="40.072350" lon="-5.432983">
        <ele>1768.0</ele>
        <time>2014-05-17T14:30:08Z</time>
      </trkpt>
      <trkpt lat="40.072300" lon="-5.433067">
        <ele>1768.0</ele>
        <time>2014-05-17T14:30:09Z</time>
      </trkpt>
      <trkpt lat="40.072233" lon="-5.433167">
        <ele>1768.0</ele>
        <time>2014-05-17T14:30:10Z</time>
      </trkpt>
      <trkpt lat="40.072183" lon="-5.433267">
        <ele>1767.0</ele>
        <time>2014-05-17T14:30:11Z</time>
      </trkpt>
      <trkpt lat="40.072117" lon="-5.433383">
        <ele>1766.0</ele>
        <time>2014-05-17T14:30:12Z</time>
      </trkpt>
      <trkpt lat="40.072050" lon="-5.433500">
        <ele>1764.0</ele>
        <time>2014-05-17T14:30:13Z</time>
      </trkpt>
      <trkpt lat="40.071983" lon="-5.433617">
        <ele>1763.0</ele>
        <time>2014-05-17T14:30:14Z</time>
      </trkpt>
      <trkpt lat="40.071833" lon="-5.433817">
        <ele>1760.0</ele>
        <time>2014-05-17T14:30:16Z</time>
      </trkpt>
      <trkpt lat="40.071750" lon="-5.433917">
        <ele>1758.0</ele>
        <time>2014-05-17T14:30:17Z</time>
      </trkpt>
      <trkpt lat="40.071667" lon="-5.434033">
        <ele>1755.0</ele>
        <time>2014-05-17T14:30:18Z</time>
      </trkpt>
      <trkpt lat="40.071600" lon="-5.434133">
        <ele>1753.0</ele>
        <time>2014-05-17T14:30:19Z</time>
      </trkpt>
      <trkpt lat="40.071517" lon="-5.434250">
        <ele>1751.0</ele>
        <time>2014-05-17T14:30:20Z</time>
      </trkpt>
      <trkpt lat="40.071433" lon="-5.434367">
        <ele>1749.0</ele>
        <time>2014-05-17T14:30:21Z</time>
      </trkpt>
      <trkpt lat="40.071367" lon="-5.434467">
        <ele>1748.0</ele>
        <time>2014-05-17T14:30:22Z</time>
      </trkpt>
      <trkpt lat="40.071283" lon="-5.434567">
        <ele>1748.0</ele>
        <time>2014-05-17T14:30:23Z</time>
      </trkpt>
      <trkpt lat="40.071233" lon="-5.434650">
        <ele>1747.0</ele>
        <time>2014-05-17T14:30:24Z</time>
      </trkpt>
      <trkpt lat="40.071167" lon="-5.434767">
        <ele>1746.0</ele>
        <time>2014-05-17T14:30:25Z</time>
      </trkpt>
      <trkpt lat="40.071083" lon="-5.434883">
        <ele>1743.0</ele>
        <time>2014-05-17T14:30:26Z</time>
      </trkpt>
      <trkpt lat="40.070983" lon="-5.435000">
        <ele>1741.0</ele>
        <time>2014-05-17T14:30:27Z</time>
      </trkpt>
      <trkpt lat="40.070900" lon="-5.435133">
        <ele>1740.0</ele>
        <time>2014-05-17T14:30:28Z</time>
      </trkpt>
      <trkpt lat="40.070833" lon="-5.435233">
        <ele>1741.0</ele>
        <time>2014-05-17T14:30:29Z</time>
      </trkpt>
      <trkpt lat="40.070750" lon="-5.435333">
        <ele>1741.0</ele>
        <time>2014-05-17T14:30:30Z</time>
      </trkpt>
      <trkpt lat="40.070700" lon="-5.435400">
        <ele>1742.0</ele>
        <time>2014-05-17T14:30:31Z</time>
      </trkpt>
      <trkpt lat="40.070633" lon="-5.435467">
        <ele>1742.0</ele>
        <time>2014-05-17T14:30:32Z</time>
      </trkpt>
      <trkpt lat="40.070550" lon="-5.435533">
        <ele>1741.0</ele>
        <time>2014-05-17T14:30:33Z</time>
      </trkpt>
      <trkpt lat="40.070467" lon="-5.435600">
        <ele>1738.0</ele>
        <time>2014-05-17T14:30:34Z</time>
      </trkpt>
      <trkpt lat="40.070367" lon="-5.435700">
        <ele>1736.0</ele>
        <time>2014-05-17T14:30:35Z</time>
      </trkpt>
      <trkpt lat="40.070267" lon="-5.435783">
        <ele>1734.0</ele>
        <time>2014-05-17T14:30:36Z</time>
      </trkpt>
      <trkpt lat="40.070200" lon="-5.435900">
        <ele>1733.0</ele>
        <time>2014-05-17T14:30:37Z</time>
      </trkpt>
      <trkpt lat="40.070117" lon="-5.436000">
        <ele>1733.0</ele>
        <time>2014-05-17T14:30:38Z</time>
      </trkpt>
      <trkpt lat="40.070050" lon="-5.436117">
        <ele>1732.0</ele>
        <time>2014-05-17T14:30:39Z</time>
      </trkpt>
      <trkpt lat="40.069983" lon="-5.436233">
        <ele>1731.0</ele>
        <time>2014-05-17T14:30:40Z</time>
      </trkpt>
      <trkpt lat="40.069900" lon="-5.436333">
        <ele>1731.0</ele>
        <time>2014-05-17T14:30:41Z</time>
      </trkpt>
      <trkpt lat="40.069833" lon="-5.436450">
        <ele>1731.0</ele>
        <time>2014-05-17T14:30:42Z</time>
      </trkpt>
      <trkpt lat="40.069767" lon="-5.436550">
        <ele>1731.0</ele>
        <time>2014-05-17T14:30:43Z</time>
      </trkpt>
      <trkpt lat="40.069717" lon="-5.436650">
        <ele>1731.0</ele>
        <time>2014-05-17T14:30:44Z</time>
      </trkpt>
      <trkpt lat="40.069667" lon="-5.436733">
        <ele>1731.0</ele>
        <time>2014-05-17T14:30:45Z</time>
      </trkpt>
      <trkpt lat="40.069617" lon="-5.436833">
        <ele>1729.0</ele>
        <time>2014-05-17T14:30:46Z</time>
      </trkpt>
      <trkpt lat="40.069550" lon="-5.436950">
        <ele>1725.0</ele>
        <time>2014-05-17T14:30:47Z</time>
      </trkpt>
      <trkpt lat="40.069467" lon="-5.437083">
        <ele>1722.0</ele>
        <time>2014-05-17T14:30:48Z</time>
      </trkpt>
      <trkpt lat="40.069400" lon="-5.437200">
        <ele>1719.0</ele>
        <time>2014-05-17T14:30:49Z</time>
      </trkpt>
      <trkpt lat="40.069350" lon="-5.437300">
        <ele>1719.0</ele>
        <time>2014-05-17T14:30:50Z</time>
      </trkpt>
      <trkpt lat="40.069283" lon="-5.437400">
        <ele>1718.0</ele>
        <time>2014-05-17T14:30:51Z</time>
      </trkpt>
      <trkpt lat="40.069233" lon="-5.437500">
        <ele>1717.0</ele>
        <time>2014-05-17T14:30:52Z</time>
      </trkpt>
      <trkpt lat="40.069167" lon="-5.437600">
        <ele>1714.0</ele>
        <time>2014-05-17T14:30:53Z</time>
      </trkpt>
      <trkpt lat="40.069083" lon="-5.437700">
        <ele>1712.0</ele>
        <time>2014-05-17T14:30:54Z</time>
      </trkpt>
      <trkpt lat="40.069017" lon="-5.437817">
        <ele>1709.0</ele>
        <time>2014-05-17T14:30:55Z</time>
      </trkpt>
      <trkpt lat="40.068950" lon="-5.437900">
        <ele>1708.0</ele>
        <time>2014-05-17T14:30:56Z</time>
      </trkpt>
      <trkpt lat="40.068883" lon="-5.438000">
        <ele>1706.0</ele>
        <time>2014-05-17T14:30:57Z</time>
      </trkpt>
      <trkpt lat="40.068800" lon="-5.438083">
        <ele>1704.0</ele>
        <time>2014-05-17T14:30:58Z</time>
      </trkpt>
      <trkpt lat="40.068733" lon="-5.438167">
        <ele>1702.0</ele>
        <time>2014-05-17T14:30:59Z</time>
      </trkpt>
      <trkpt lat="40.068650" lon="-5.438250">
        <ele>1700.0</ele>
        <time>2014-05-17T14:31:00Z</time>
      </trkpt>
      <trkpt lat="40.068583" lon="-5.438350">
        <ele>1697.0</ele>
        <time>2014-05-17T14:31:01Z</time>
      </trkpt>
      <trkpt lat="40.068517" lon="-5.438433">
        <ele>1696.0</ele>
        <time>2014-05-17T14:31:02Z</time>
      </trkpt>
      <trkpt lat="40.068433" lon="-5.438517">
        <ele>1694.0</ele>
        <time>2014-05-17T14:31:03Z</time>
      </trkpt>
      <trkpt lat="40.068367" lon="-5.438600">
        <ele>1693.0</ele>
        <time>2014-05-17T14:31:04Z</time>
      </trkpt>
      <trkpt lat="40.068300" lon="-5.438683">
        <ele>1691.0</ele>
        <time>2014-05-17T14:31:05Z</time>
      </trkpt>
      <trkpt lat="40.068217" lon="-5.438767">
        <ele>1688.0</ele>
        <time>2014-05-17T14:31:06Z</time>
      </trkpt>
      <trkpt lat="40.068150" lon="-5.438867">
        <ele>1686.0</ele>
        <time>2014-05-17T14:31:07Z</time>
      </trkpt>
      <trkpt lat="40.068067" lon="-5.438967">
        <ele>1684.0</ele>
        <time>2014-05-17T14:31:08Z</time>
      </trkpt>
      <trkpt lat="40.068000" lon="-5.439033">
        <ele>1682.0</ele>
        <time>2014-05-17T14:31:09Z</time>
      </trkpt>
      <trkpt lat="40.067917" lon="-5.439100">
        <ele>1680.0</ele>
        <time>2014-05-17T14:31:10Z</time>
      </trkpt>
      <trkpt lat="40.067850" lon="-5.439183">
        <ele>1678.0</ele>
        <time>2014-05-17T14:31:11Z</time>
      </trkpt>
      <trkpt lat="40.067767" lon="-5.439250">
        <ele>1675.0</ele>
        <time>2014-05-17T14:31:12Z</time>
      </trkpt>
      <trkpt lat="40.067700" lon="-5.439333">
        <ele>1672.0</ele>
        <time>2014-05-17T14:31:13Z</time>
      </trkpt>
      <trkpt lat="40.067617" lon="-5.439400">
        <ele>1668.0</ele>
        <time>2014-05-17T14:31:14Z</time>
      </trkpt>
      <trkpt lat="40.067533" lon="-5.439483">
        <ele>1665.0</ele>
        <time>2014-05-17T14:31:15Z</time>
      </trkpt>
      <trkpt lat="40.067450" lon="-5.439550">
        <ele>1662.0</ele>
        <time>2014-05-17T14:31:16Z</time>
      </trkpt>
      <trkpt lat="40.067367" lon="-5.439617">
        <ele>1659.0</ele>
        <time>2014-05-17T14:31:17Z</time>
      </trkpt>
      <trkpt lat="40.067283" lon="-5.439667">
        <ele>1657.0</ele>
        <time>2014-05-17T14:31:18Z</time>
      </trkpt>
      <trkpt lat="40.067200" lon="-5.439733">
        <ele>1654.0</ele>
        <time>2014-05-17T14:31:19Z</time>
      </trkpt>
      <trkpt lat="40.067117" lon="-5.439800">
        <ele>1650.0</ele>
        <time>2014-05-17T14:31:20Z</time>
      </trkpt>
      <trkpt lat="40.067033" lon="-5.439867">
        <ele>1647.0</ele>
        <time>2014-05-17T14:31:21Z</time>
      </trkpt>
      <trkpt lat="40.066950" lon="-5.439933">
        <ele>1643.0</ele>
        <time>2014-05-17T14:31:22Z</time>
      </trkpt>
      <trkpt lat="40.066867" lon="-5.440000">
        <ele>1640.0</ele>
        <time>2014-05-17T14:31:23Z</time>
      </trkpt>
      <trkpt lat="40.066783" lon="-5.440067">
        <ele>1638.0</ele>
        <time>2014-05-17T14:31:24Z</time>
      </trkpt>
      <trkpt lat="40.066700" lon="-5.440150">
        <ele>1635.0</ele>
        <time>2014-05-17T14:31:25Z</time>
      </trkpt>
      <trkpt lat="40.066617" lon="-5.440217">
        <ele>1632.0</ele>
        <time>2014-05-17T14:31:26Z</time>
      </trkpt>
      <trkpt lat="40.066450" lon="-5.440400">
        <ele>1624.0</ele>
        <time>2014-05-17T14:31:28Z</time>
      </trkpt>
      <trkpt lat="40.066367" lon="-5.440500">
        <ele>1621.0</ele>
        <time>2014-05-17T14:31:29Z</time>
      </trkpt>
      <trkpt lat="40.066283" lon="-5.440583">
        <ele>1618.0</ele>
        <time>2014-05-17T14:31:30Z</time>
      </trkpt>
      <trkpt lat="40.066200" lon="-5.440667">
        <ele>1615.0</ele>
        <time>2014-05-17T14:31:31Z</time>
      </trkpt>
      <trkpt lat="40.066133" lon="-5.440750">
        <ele>1612.0</ele>
        <time>2014-05-17T14:31:32Z</time>
      </trkpt>
      <trkpt lat="40.066050" lon="-5.440850">
        <ele>1609.0</ele>
        <time>2014-05-17T14:31:33Z</time>
      </trkpt>
      <trkpt lat="40.065967" lon="-5.440950">
        <ele>1605.0</ele>
        <time>2014-05-17T14:31:34Z</time>
      </trkpt>
      <trkpt lat="40.065900" lon="-5.441050">
        <ele>1602.0</ele>
        <time>2014-05-17T14:31:35Z</time>
      </trkpt>
      <trkpt lat="40.065817" lon="-5.441133">
        <ele>1599.0</ele>
        <time>2014-05-17T14:31:36Z</time>
      </trkpt>
      <trkpt lat="40.065750" lon="-5.441233">
        <ele>1597.0</ele>
        <time>2014-05-17T14:31:37Z</time>
      </trkpt>
      <trkpt lat="40.065700" lon="-5.441333">
        <ele>1593.0</ele>
        <time>2014-05-17T14:31:38Z</time>
      </trkpt>
      <trkpt lat="40.065633" lon="-5.441433">
        <ele>1589.0</ele>
        <time>2014-05-17T14:31:39Z</time>
      </trkpt>
      <trkpt lat="40.065583" lon="-5.441550">
        <ele>1585.0</ele>
        <time>2014-05-17T14:31:40Z</time>
      </trkpt>
      <trkpt lat="40.065517" lon="-5.441683">
        <ele>1581.0</ele>
        <time>2014-05-17T14:31:41Z</time>
      </trkpt>
      <trkpt lat="40.065450" lon="-5.441800">
        <ele>1577.0</ele>
        <time>2014-05-17T14:31:42Z</time>
      </trkpt>
      <trkpt lat="40.065383" lon="-5.441933">
        <ele>1573.0</ele>
        <time>2014-05-17T14:31:43Z</time>
      </trkpt>
      <trkpt lat="40.065317" lon="-5.442050">
        <ele>1570.0</ele>
        <time>2014-05-17T14:31:44Z</time>
      </trkpt>
      <trkpt lat="40.065250" lon="-5.442167">
        <ele>1567.0</ele>
        <time>2014-05-17T14:31:45Z</time>
      </trkpt>
      <trkpt lat="40.065183" lon="-5.442267">
        <ele>1564.0</ele>
        <time>2014-05-17T14:31:46Z</time>
      </trkpt>
      <trkpt lat="40.065117" lon="-5.442383">
        <ele>1561.0</ele>
        <time>2014-05-17T14:31:47Z</time>
      </trkpt>
      <trkpt lat="40.065050" lon="-5.442500">
        <ele>1558.0</ele>
        <time>2014-05-17T14:31:48Z</time>
      </trkpt>
      <trkpt lat="40.064933" lon="-5.442733">
        <ele>1551.0</ele>
        <time>2014-05-17T14:31:50Z</time>
      </trkpt>
      <trkpt lat="40.064867" lon="-5.442867">
        <ele>1548.0</ele>
        <time>2014-05-17T14:31:51Z</time>
      </trkpt>
      <trkpt lat="40.064800" lon="-5.442983">
        <ele>1545.0</ele>
        <time>2014-05-17T14:31:52Z</time>
      </trkpt>
      <trkpt lat="40.064733" lon="-5.443100">
        <ele>1544.0</ele>
        <time>2014-05-17T14:31:53Z</time>
      </trkpt>
      <trkpt lat="40.064683" lon="-5.443217">
        <ele>1542.0</ele>
        <time>2014-05-17T14:31:54Z</time>
      </trkpt>
      <trkpt lat="40.064617" lon="-5.443333">
        <ele>1540.0</ele>
        <time>2014-05-17T14:31:55Z</time>
      </trkpt>
      <trkpt lat="40.064567" lon="-5.443433">
        <ele>1538.0</ele>
        <time>2014-05-17T14:31:56Z</time>
      </trkpt>
      <trkpt lat="40.064500" lon="-5.443533">
        <ele>1535.0</ele>
        <time>2014-05-17T14:31:57Z</time>
      </trkpt>
      <trkpt lat="40.064417" lon="-5.443650">
        <ele>1531.0</ele>
        <time>2014-05-17T14:31:58Z</time>
      </trkpt>
      <trkpt lat="40.064333" lon="-5.443750">
        <ele>1528.0</ele>
        <time>2014-05-17T14:31:59Z</time>
      </trkpt>
      <trkpt lat="40.064267" lon="-5.443867">
        <ele>1526.0</ele>
        <time>2014-05-17T14:32:00Z</time>
      </trkpt>
      <trkpt lat="40.064183" lon="-5.443967">
        <ele>1524.0</ele>
        <time>2014-05-17T14:32:01Z</time>
      </trkpt>
      <trkpt lat="40.064117" lon="-5.444067">
        <ele>1522.0</ele>
        <time>2014-05-17T14:32:02Z</time>
      </trkpt>
      <trkpt lat="40.064050" lon="-5.444183">
        <ele>1520.0</ele>
        <time>2014-05-17T14:32:03Z</time>
      </trkpt>
      <trkpt lat="40.063983" lon="-5.444283">
        <ele>1517.0</ele>
        <time>2014-05-17T14:32:04Z</time>
      </trkpt>
      <trkpt lat="40.063900" lon="-5.444400">
        <ele>1514.0</ele>
        <time>2014-05-17T14:32:05Z</time>
      </trkpt>
      <trkpt lat="40.063750" lon="-5.444600">
        <ele>1509.0</ele>
        <time>2014-05-17T14:32:07Z</time>
      </trkpt>
      <trkpt lat="40.063683" lon="-5.444700">
        <ele>1506.0</ele>
        <time>2014-05-17T14:32:08Z</time>
      </trkpt>
      <trkpt lat="40.063600" lon="-5.444817">
        <ele>1503.0</ele>
        <time>2014-05-17T14:32:09Z</time>
      </trkpt>
      <trkpt lat="40.063533" lon="-5.444917">
        <ele>1500.0</ele>
        <time>2014-05-17T14:32:10Z</time>
      </trkpt>
      <trkpt lat="40.063467" lon="-5.445033">
        <ele>1498.0</ele>
        <time>2014-05-17T14:32:11Z</time>
      </trkpt>
      <trkpt lat="40.063400" lon="-5.445133">
        <ele>1496.0</ele>
        <time>2014-05-17T14:32:12Z</time>
      </trkpt>
      <trkpt lat="40.063333" lon="-5.445250">
        <ele>1493.0</ele>
        <time>2014-05-17T14:32:13Z</time>
      </trkpt>
      <trkpt lat="40.063267" lon="-5.445367">
        <ele>1490.0</ele>
        <time>2014-05-17T14:32:14Z</time>
      </trkpt>
      <trkpt lat="40.063200" lon="-5.445467">
        <ele>1488.0</ele>
        <time>2014-05-17T14:32:15Z</time>
      </trkpt>
      <trkpt lat="40.063150" lon="-5.445567">
        <ele>1485.0</ele>
        <time>2014-05-17T14:32:16Z</time>
      </trkpt>
      <trkpt lat="40.063100" lon="-5.445667">
        <ele>1483.0</ele>
        <time>2014-05-17T14:32:17Z</time>
      </trkpt>
      <trkpt lat="40.063033" lon="-5.445750">
        <ele>1480.0</ele>
        <time>2014-05-17T14:32:18Z</time>
      </trkpt>
      <trkpt lat="40.062967" lon="-5.445850">
        <ele>1477.0</ele>
        <time>2014-05-17T14:32:19Z</time>
      </trkpt>
      <trkpt lat="40.062900" lon="-5.445967">
        <ele>1473.0</ele>
        <time>2014-05-17T14:32:20Z</time>
      </trkpt>
      <trkpt lat="40.062817" lon="-5.446067">
        <ele>1469.0</ele>
        <time>2014-05-17T14:32:21Z</time>
      </trkpt>
      <trkpt lat="40.062750" lon="-5.446183">
        <ele>1467.0</ele>
        <time>2014-05-17T14:32:22Z</time>
      </trkpt>
      <trkpt lat="40.062683" lon="-5.446283">
        <ele>1466.0</ele>
        <time>2014-05-17T14:32:23Z</time>
      </trkpt>
      <trkpt lat="40.062617" lon="-5.446400">
        <ele>1464.0</ele>
        <time>2014-05-17T14:32:24Z</time>
      </trkpt>
      <trkpt lat="40.062567" lon="-5.446500">
        <ele>1462.0</ele>
        <time>2014-05-17T14:32:25Z</time>
      </trkpt>
      <trkpt lat="40.062500" lon="-5.446617">
        <ele>1460.0</ele>
        <time>2014-05-17T14:32:26Z</time>
      </trkpt>
      <trkpt lat="40.062433" lon="-5.446733">
        <ele>1457.0</ele>
        <time>2014-05-17T14:32:27Z</time>
      </trkpt>
      <trkpt lat="40.062367" lon="-5.446850">
        <ele>1454.0</ele>
        <time>2014-05-17T14:32:28Z</time>
      </trkpt>
      <trkpt lat="40.062317" lon="-5.446950">
        <ele>1452.0</ele>
        <time>2014-05-17T14:32:29Z</time>
      </trkpt>
      <trkpt lat="40.062250" lon="-5.447050">
        <ele>1451.0</ele>
        <time>2014-05-17T14:32:30Z</time>
      </trkpt>
      <trkpt lat="40.062200" lon="-5.447133">
        <ele>1449.0</ele>
        <time>2014-05-17T14:32:31Z</time>
      </trkpt>
      <trkpt lat="40.062133" lon="-5.447233">
        <ele>1447.0</ele>
        <time>2014-05-17T14:32:32Z</time>
      </trkpt>
      <trkpt lat="40.062083" lon="-5.447350">
        <ele>1443.0</ele>
        <time>2014-05-17T14:32:33Z</time>
      </trkpt>
      <trkpt lat="40.062017" lon="-5.447450">
        <ele>1440.0</ele>
        <time>2014-05-17T14:32:34Z</time>
      </trkpt>
      <trkpt lat="40.061950" lon="-5.447567">
        <ele>1438.0</ele>
        <time>2014-05-17T14:32:35Z</time>
      </trkpt>
      <trkpt lat="40.061900" lon="-5.447650">
        <ele>1436.0</ele>
        <time>2014-05-17T14:32:36Z</time>
      </trkpt>
      <trkpt lat="40.061833" lon="-5.447750">
        <ele>1433.0</ele>
        <time>2014-05-17T14:32:37Z</time>
      </trkpt>
      <trkpt lat="40.061767" lon="-5.447850">
        <ele>1431.0</ele>
        <time>2014-05-17T14:32:38Z</time>
      </trkpt>
      <trkpt lat="40.061700" lon="-5.447950">
        <ele>1428.0</ele>
        <time>2014-05-17T14:32:39Z</time>
      </trkpt>
      <trkpt lat="40.061633" lon="-5.448050">
        <ele>1425.0</ele>
        <time>2014-05-17T14:32:40Z</time>
      </trkpt>
      <trkpt lat="40.061567" lon="-5.448150">
        <ele>1423.0</ele>
        <time>2014-05-17T14:32:41Z</time>
      </trkpt>
      <trkpt lat="40.061517" lon="-5.448250">
        <ele>1422.0</ele>
        <time>2014-05-17T14:32:42Z</time>
      </trkpt>
      <trkpt lat="40.061467" lon="-5.448350">
        <ele>1420.0</ele>
        <time>2014-05-17T14:32:43Z</time>
      </trkpt>
      <trkpt lat="40.061400" lon="-5.448450">
        <ele>1418.0</ele>
        <time>2014-05-17T14:32:44Z</time>
      </trkpt>
      <trkpt lat="40.061350" lon="-5.448550">
        <ele>1415.0</ele>
        <time>2014-05-17T14:32:45Z</time>
      </trkpt>
      <trkpt lat="40.061283" lon="-5.448650">
        <ele>1412.0</ele>
        <time>2014-05-17T14:32:46Z</time>
      </trkpt>
      <trkpt lat="40.061200" lon="-5.448750">
        <ele>1410.0</ele>
        <time>2014-05-17T14:32:47Z</time>
      </trkpt>
      <trkpt lat="40.061133" lon="-5.448850">
        <ele>1408.0</ele>
        <time>2014-05-17T14:32:48Z</time>
      </trkpt>
      <trkpt lat="40.061067" lon="-5.448950">
        <ele>1407.0</ele>
        <time>2014-05-17T14:32:49Z</time>
      </trkpt>
      <trkpt lat="40.061000" lon="-5.449050">
        <ele>1406.0</ele>
        <time>2014-05-17T14:32:50Z</time>
      </trkpt>
      <trkpt lat="40.060950" lon="-5.449150">
        <ele>1404.0</ele>
        <time>2014-05-17T14:32:51Z</time>
      </trkpt>
      <trkpt lat="40.060883" lon="-5.449250">
        <ele>1402.0</ele>
        <time>2014-05-17T14:32:52Z</time>
      </trkpt>
      <trkpt lat="40.060833" lon="-5.449367">
        <ele>1399.0</ele>
        <time>2014-05-17T14:32:53Z</time>
      </trkpt>
      <trkpt lat="40.060750" lon="-5.449467">
        <ele>1396.0</ele>
        <time>2014-05-17T14:32:54Z</time>
      </trkpt>
      <trkpt lat="40.060683" lon="-5.449583">
        <ele>1393.0</ele>
        <time>2014-05-17T14:32:55Z</time>
      </trkpt>
      <trkpt lat="40.060617" lon="-5.449700">
        <ele>1391.0</ele>
        <time>2014-05-17T14:32:56Z</time>
      </trkpt>
      <trkpt lat="40.060550" lon="-5.449800">
        <ele>1389.0</ele>
        <time>2014-05-17T14:32:57Z</time>
      </trkpt>
      <trkpt lat="40.060483" lon="-5.449900">
        <ele>1386.0</ele>
        <time>2014-05-17T14:32:58Z</time>
      </trkpt>
      <trkpt lat="40.060417" lon="-5.450017">
        <ele>1384.0</ele>
        <time>2014-05-17T14:32:59Z</time>
      </trkpt>
      <trkpt lat="40.060350" lon="-5.450117">
        <ele>1382.0</ele>
        <time>2014-05-17T14:33:00Z</time>
      </trkpt>
      <trkpt lat="40.060283" lon="-5.450217">
        <ele>1380.0</ele>
        <time>2014-05-17T14:33:01Z</time>
      </trkpt>
      <trkpt lat="40.060217" lon="-5.450317">
        <ele>1379.0</ele>
        <time>2014-05-17T14:33:02Z</time>
      </trkpt>
      <trkpt lat="40.060167" lon="-5.450400">
        <ele>1378.0</ele>
        <time>2014-05-17T14:33:03Z</time>
      </trkpt>
      <trkpt lat="40.060100" lon="-5.450483">
        <ele>1377.0</ele>
        <time>2014-05-17T14:33:04Z</time>
      </trkpt>
      <trkpt lat="40.060050" lon="-5.450550">
        <ele>1375.0</ele>
        <time>2014-05-17T14:33:05Z</time>
      </trkpt>
      <trkpt lat="40.059967" lon="-5.450633">
        <ele>1372.0</ele>
        <time>2014-05-17T14:33:06Z</time>
      </trkpt>
      <trkpt lat="40.059900" lon="-5.450700">
        <ele>1370.0</ele>
        <time>2014-05-17T14:33:07Z</time>
      </trkpt>
      <trkpt lat="40.059833" lon="-5.450783">
        <ele>1368.0</ele>
        <time>2014-05-17T14:33:08Z</time>
      </trkpt>
      <trkpt lat="40.059783" lon="-5.450850">
        <ele>1366.0</ele>
        <time>2014-05-17T14:33:09Z</time>
      </trkpt>
      <trkpt lat="40.059717" lon="-5.450933">
        <ele>1364.0</ele>
        <time>2014-05-17T14:33:10Z</time>
      </trkpt>
      <trkpt lat="40.059650" lon="-5.451017">
        <ele>1361.0</ele>
        <time>2014-05-17T14:33:11Z</time>
      </trkpt>
      <trkpt lat="40.059567" lon="-5.451100">
        <ele>1359.0</ele>
        <time>2014-05-17T14:33:12Z</time>
      </trkpt>
      <trkpt lat="40.059500" lon="-5.451183">
        <ele>1357.0</ele>
        <time>2014-05-17T14:33:13Z</time>
      </trkpt>
      <trkpt lat="40.059450" lon="-5.451267">
        <ele>1356.0</ele>
        <time>2014-05-17T14:33:14Z</time>
      </trkpt>
      <trkpt lat="40.059400" lon="-5.451350">
        <ele>1355.0</ele>
        <time>2014-05-17T14:33:15Z</time>
      </trkpt>
      <trkpt lat="40.059367" lon="-5.451433">
        <ele>1353.0</ele>
        <time>2014-05-17T14:33:16Z</time>
      </trkpt>
      <trkpt lat="40.059300" lon="-5.451517">
        <ele>1351.0</ele>
        <time>2014-05-17T14:33:17Z</time>
      </trkpt>
      <trkpt lat="40.059150" lon="-5.451700">
        <ele>1344.0</ele>
        <time>2014-05-17T14:33:19Z</time>
      </trkpt>
      <trkpt lat="40.059067" lon="-5.451800">
        <ele>1341.0</ele>
        <time>2014-05-17T14:33:20Z</time>
      </trkpt>
      <trkpt lat="40.058983" lon="-5.451900">
        <ele>1340.0</ele>
        <time>2014-05-17T14:33:21Z</time>
      </trkpt>
      <trkpt lat="40.058917" lon="-5.451983">
        <ele>1341.0</ele>
        <time>2014-05-17T14:33:22Z</time>
      </trkpt>
      <trkpt lat="40.058867" lon="-5.452083">
        <ele>1341.0</ele>
        <time>2014-05-17T14:33:23Z</time>
      </trkpt>
      <trkpt lat="40.058800" lon="-5.452183">
        <ele>1341.0</ele>
        <time>2014-05-17T14:33:24Z</time>
      </trkpt>
      <trkpt lat="40.058717" lon="-5.452283">
        <ele>1341.0</ele>
        <time>2014-05-17T14:33:25Z</time>
      </trkpt>
      <trkpt lat="40.058633" lon="-5.452383">
        <ele>1340.0</ele>
        <time>2014-05-17T14:33:26Z</time>
      </trkpt>
      <trkpt lat="40.058567" lon="-5.452500">
        <ele>1341.0</ele>
        <time>2014-05-17T14:33:27Z</time>
      </trkpt>
      <trkpt lat="40.058483" lon="-5.452600">
        <ele>1342.0</ele>
        <time>2014-05-17T14:33:28Z</time>
      </trkpt>
      <trkpt lat="40.058417" lon="-5.452717">
        <ele>1344.0</ele>
        <time>2014-05-17T14:33:29Z</time>
      </trkpt>
      <trkpt lat="40.058350" lon="-5.452817">
        <ele>1345.0</ele>
        <time>2014-05-17T14:33:30Z</time>
      </trkpt>
      <trkpt lat="40.058283" lon="-5.452917">
        <ele>1346.0</ele>
        <time>2014-05-17T14:33:31Z</time>
      </trkpt>
      <trkpt lat="40.058200" lon="-5.453033">
        <ele>1346.0</ele>
        <time>2014-05-17T14:33:32Z</time>
      </trkpt>
      <trkpt lat="40.058100" lon="-5.453150">
        <ele>1347.0</ele>
        <time>2014-05-17T14:33:33Z</time>
      </trkpt>
      <trkpt lat="40.058033" lon="-5.453250">
        <ele>1349.0</ele>
        <time>2014-05-17T14:33:34Z</time>
      </trkpt>
      <trkpt lat="40.057950" lon="-5.453333">
        <ele>1350.0</ele>
        <time>2014-05-17T14:33:35Z</time>
      </trkpt>
      <trkpt lat="40.057867" lon="-5.453433">
        <ele>1350.0</ele>
        <time>2014-05-17T14:33:36Z</time>
      </trkpt>
      <trkpt lat="40.057767" lon="-5.453517">
        <ele>1348.0</ele>
        <time>2014-05-17T14:33:37Z</time>
      </trkpt>
      <trkpt lat="40.057667" lon="-5.453633">
        <ele>1347.0</ele>
        <time>2014-05-17T14:33:38Z</time>
      </trkpt>
      <trkpt lat="40.057583" lon="-5.453717">
        <ele>1346.0</ele>
        <time>2014-05-17T14:33:39Z</time>
      </trkpt>
      <trkpt lat="40.057500" lon="-5.453800">
        <ele>1344.0</ele>
        <time>2014-05-17T14:33:40Z</time>
      </trkpt>
      <trkpt lat="40.057433" lon="-5.453883">
        <ele>1344.0</ele>
        <time>2014-05-17T14:33:41Z</time>
      </trkpt>
      <trkpt lat="40.057367" lon="-5.453983">
        <ele>1342.0</ele>
        <time>2014-05-17T14:33:42Z</time>
      </trkpt>
      <trkpt lat="40.057300" lon="-5.454083">
        <ele>1340.0</ele>
        <time>2014-05-17T14:33:43Z</time>
      </trkpt>
      <trkpt lat="40.057250" lon="-5.454200">
        <ele>1336.0</ele>
        <time>2014-05-17T14:33:44Z</time>
      </trkpt>
      <trkpt lat="40.057100" lon="-5.454417">
        <ele>1329.0</ele>
        <time>2014-05-17T14:33:46Z</time>
      </trkpt>
      <trkpt lat="40.057033" lon="-5.454533">
        <ele>1326.0</ele>
        <time>2014-05-17T14:33:47Z</time>
      </trkpt>
      <trkpt lat="40.056933" lon="-5.454767">
        <ele>1321.0</ele>
        <time>2014-05-17T14:33:49Z</time>
      </trkpt>
      <trkpt lat="40.056750" lon="-5.455100">
        <ele>1312.0</ele>
        <time>2014-05-17T14:33:52Z</time>
      </trkpt>
      <trkpt lat="40.056683" lon="-5.455217">
        <ele>1309.0</ele>
        <time>2014-05-17T14:33:53Z</time>
      </trkpt>
      <trkpt lat="40.056617" lon="-5.455333">
        <ele>1307.0</ele>
        <time>2014-05-17T14:33:54Z</time>
      </trkpt>
      <trkpt lat="40.056567" lon="-5.455450">
        <ele>1306.0</ele>
        <time>2014-05-17T14:33:55Z</time>
      </trkpt>
      <trkpt lat="40.056517" lon="-5.455567">
        <ele>1303.0</ele>
        <time>2014-05-17T14:33:56Z</time>
      </trkpt>
      <trkpt lat="40.056467" lon="-5.455683">
        <ele>1300.0</ele>
        <time>2014-05-17T14:33:57Z</time>
      </trkpt>
      <trkpt lat="40.056400" lon="-5.455817">
        <ele>1297.0</ele>
        <time>2014-05-17T14:33:58Z</time>
      </trkpt>
      <trkpt lat="40.056350" lon="-5.455950">
        <ele>1295.0</ele>
        <time>2014-05-17T14:33:59Z</time>
      </trkpt>
      <trkpt lat="40.056283" lon="-5.456067">
        <ele>1292.0</ele>
        <time>2014-05-17T14:34:00Z</time>
      </trkpt>
      <trkpt lat="40.056233" lon="-5.456200">
        <ele>1290.0</ele>
        <time>2014-05-17T14:34:01Z</time>
      </trkpt>
      <trkpt lat="40.056167" lon="-5.456317">
        <ele>1288.0</ele>
        <time>2014-05-17T14:34:02Z</time>
      </trkpt>
      <trkpt lat="40.056117" lon="-5.456417">
        <ele>1286.0</ele>
        <time>2014-05-17T14:34:03Z</time>
      </trkpt>
      <trkpt lat="40.056050" lon="-5.456533">
        <ele>1284.0</ele>
        <time>2014-05-17T14:34:04Z</time>
      </trkpt>
      <trkpt lat="40.055983" lon="-5.456650">
        <ele>1283.0</ele>
        <time>2014-05-17T14:34:05Z</time>
      </trkpt>
      <trkpt lat="40.055917" lon="-5.456767">
        <ele>1281.0</ele>
        <time>2014-05-17T14:34:06Z</time>
      </trkpt>
      <trkpt lat="40.055850" lon="-5.456883">
        <ele>1279.0</ele>
        <time>2014-05-17T14:34:07Z</time>
      </trkpt>
      <trkpt lat="40.055767" lon="-5.456983">
        <ele>1276.0</ele>
        <time>2014-05-17T14:34:08Z</time>
      </trkpt>
      <trkpt lat="40.055683" lon="-5.457100">
        <ele>1274.0</ele>
        <time>2014-05-17T14:34:09Z</time>
      </trkpt>
      <trkpt lat="40.055600" lon="-5.457233">
        <ele>1272.0</ele>
        <time>2014-05-17T14:34:10Z</time>
      </trkpt>
      <trkpt lat="40.055533" lon="-5.457350">
        <ele>1271.0</ele>
        <time>2014-05-17T14:34:11Z</time>
      </trkpt>
      <trkpt lat="40.055467" lon="-5.457467">
        <ele>1270.0</ele>
        <time>2014-05-17T14:34:12Z</time>
      </trkpt>
      <trkpt lat="40.055417" lon="-5.457583">
        <ele>1269.0</ele>
        <time>2014-05-17T14:34:13Z</time>
      </trkpt>
      <trkpt lat="40.055350" lon="-5.457700">
        <ele>1268.0</ele>
        <time>2014-05-17T14:34:14Z</time>
      </trkpt>
      <trkpt lat="40.055300" lon="-5.457833">
        <ele>1267.0</ele>
        <time>2014-05-17T14:34:15Z</time>
      </trkpt>
      <trkpt lat="40.055233" lon="-5.457967">
        <ele>1265.0</ele>
        <time>2014-05-17T14:34:16Z</time>
      </trkpt>
      <trkpt lat="40.055167" lon="-5.458100">
        <ele>1264.0</ele>
        <time>2014-05-17T14:34:17Z</time>
      </trkpt>
      <trkpt lat="40.055117" lon="-5.458217">
        <ele>1263.0</ele>
        <time>2014-05-17T14:34:18Z</time>
      </trkpt>
      <trkpt lat="40.055067" lon="-5.458317">
        <ele>1262.0</ele>
        <time>2014-05-17T14:34:19Z</time>
      </trkpt>
      <trkpt lat="40.055000" lon="-5.458417">
        <ele>1260.0</ele>
        <time>2014-05-17T14:34:20Z</time>
      </trkpt>
      <trkpt lat="40.054950" lon="-5.458517">
        <ele>1259.0</ele>
        <time>2014-05-17T14:34:21Z</time>
      </trkpt>
      <trkpt lat="40.054883" lon="-5.458617">
        <ele>1257.0</ele>
        <time>2014-05-17T14:34:22Z</time>
      </trkpt>
      <trkpt lat="40.054817" lon="-5.458700">
        <ele>1255.0</ele>
        <time>2014-05-17T14:34:23Z</time>
      </trkpt>
      <trkpt lat="40.054750" lon="-5.458800">
        <ele>1254.0</ele>
        <time>2014-05-17T14:34:24Z</time>
      </trkpt>
      <trkpt lat="40.054700" lon="-5.458900">
        <ele>1252.0</ele>
        <time>2014-05-17T14:34:25Z</time>
      </trkpt>
      <trkpt lat="40.054617" lon="-5.458983">
        <ele>1250.0</ele>
        <time>2014-05-17T14:34:26Z</time>
      </trkpt>
      <trkpt lat="40.054550" lon="-5.459067">
        <ele>1249.0</ele>
        <time>2014-05-17T14:34:27Z</time>
      </trkpt>
      <trkpt lat="40.054483" lon="-5.459133">
        <ele>1247.0</ele>
        <time>2014-05-17T14:34:28Z</time>
      </trkpt>
      <trkpt lat="40.054417" lon="-5.459200">
        <ele>1246.0</ele>
        <time>2014-05-17T14:34:29Z</time>
      </trkpt>
      <trkpt lat="40.054333" lon="-5.459283">
        <ele>1244.0</ele>
        <time>2014-05-17T14:34:30Z</time>
      </trkpt>
      <trkpt lat="40.054267" lon="-5.459383">
        <ele>1243.0</ele>
        <time>2014-05-17T14:34:31Z</time>
      </trkpt>
      <trkpt lat="40.054217" lon="-5.459467">
        <ele>1242.0</ele>
        <time>2014-05-17T14:34:32Z</time>
      </trkpt>
      <trkpt lat="40.054150" lon="-5.459567">
        <ele>1241.0</ele>
        <time>2014-05-17T14:34:33Z</time>
      </trkpt>
      <trkpt lat="40.054100" lon="-5.459650">
        <ele>1240.0</ele>
        <time>2014-05-17T14:34:34Z</time>
      </trkpt>
      <trkpt lat="40.054033" lon="-5.459733">
        <ele>1239.0</ele>
        <time>2014-05-17T14:34:35Z</time>
      </trkpt>
      <trkpt lat="40.053967" lon="-5.459833">
        <ele>1237.0</ele>
        <time>2014-05-17T14:34:36Z</time>
      </trkpt>
      <trkpt lat="40.053900" lon="-5.459917">
        <ele>1235.0</ele>
        <time>2014-05-17T14:34:37Z</time>
      </trkpt>
      <trkpt lat="40.053833" lon="-5.460000">
        <ele>1234.0</ele>
        <time>2014-05-17T14:34:38Z</time>
      </trkpt>
      <trkpt lat="40.053767" lon="-5.460083">
        <ele>1233.0</ele>
        <time>2014-05-17T14:34:39Z</time>
      </trkpt>
      <trkpt lat="40.053717" lon="-5.460167">
        <ele>1232.0</ele>
        <time>2014-05-17T14:34:40Z</time>
      </trkpt>
      <trkpt lat="40.053650" lon="-5.460250">
        <ele>1230.0</ele>
        <time>2014-05-17T14:34:41Z</time>
      </trkpt>
      <trkpt lat="40.053583" lon="-5.460333">
        <ele>1228.0</ele>
        <time>2014-05-17T14:34:42Z</time>
      </trkpt>
      <trkpt lat="40.053533" lon="-5.460417">
        <ele>1226.0</ele>
        <time>2014-05-17T14:34:43Z</time>
      </trkpt>
      <trkpt lat="40.053467" lon="-5.460483">
        <ele>1224.0</ele>
        <time>2014-05-17T14:34:44Z</time>
      </trkpt>
      <trkpt lat="40.053417" lon="-5.460550">
        <ele>1223.0</ele>
        <time>2014-05-17T14:34:45Z</time>
      </trkpt>
      <trkpt lat="40.053367" lon="-5.460633">
        <ele>1221.0</ele>
        <time>2014-05-17T14:34:46Z</time>
      </trkpt>
      <trkpt lat="40.053300" lon="-5.460717">
        <ele>1218.0</ele>
        <time>2014-05-17T14:34:47Z</time>
      </trkpt>
      <trkpt lat="40.053250" lon="-5.460800">
        <ele>1215.0</ele>
        <time>2014-05-17T14:34:48Z</time>
      </trkpt>
      <trkpt lat="40.053183" lon="-5.460883">
        <ele>1212.0</ele>
        <time>2014-05-17T14:34:49Z</time>
      </trkpt>
      <trkpt lat="40.053133" lon="-5.460967">
        <ele>1210.0</ele>
        <time>2014-05-17T14:34:50Z</time>
      </trkpt>
      <trkpt lat="40.053083" lon="-5.461033">
        <ele>1208.0</ele>
        <time>2014-05-17T14:34:51Z</time>
      </trkpt>
      <trkpt lat="40.053033" lon="-5.461100">
        <ele>1207.0</ele>
        <time>2014-05-17T14:34:52Z</time>
      </trkpt>
      <trkpt lat="40.052983" lon="-5.461183">
        <ele>1205.0</ele>
        <time>2014-05-17T14:34:53Z</time>
      </trkpt>
      <trkpt lat="40.052933" lon="-5.461250">
        <ele>1203.0</ele>
        <time>2014-05-17T14:34:54Z</time>
      </trkpt>
      <trkpt lat="40.052883" lon="-5.461333">
        <ele>1201.0</ele>
        <time>2014-05-17T14:34:55Z</time>
      </trkpt>
      <trkpt lat="40.052833" lon="-5.461417">
        <ele>1198.0</ele>
        <time>2014-05-17T14:34:56Z</time>
      </trkpt>
      <trkpt lat="40.052783" lon="-5.461483">
        <ele>1196.0</ele>
        <time>2014-05-17T14:34:57Z</time>
      </trkpt>
      <trkpt lat="40.052733" lon="-5.461550">
        <ele>1194.0</ele>
        <time>2014-05-17T14:34:58Z</time>
      </trkpt>
      <trkpt lat="40.052700" lon="-5.461600">
        <ele>1193.0</ele>
        <time>2014-05-17T14:34:59Z</time>
      </trkpt>
      <trkpt lat="40.052650" lon="-5.461650">
        <ele>1191.0</ele>
        <time>2014-05-17T14:35:00Z</time>
      </trkpt>
      <trkpt lat="40.052600" lon="-5.461733">
        <ele>1189.0</ele>
        <time>2014-05-17T14:35:01Z</time>
      </trkpt>
      <trkpt lat="40.052533" lon="-5.461800">
        <ele>1185.0</ele>
        <time>2014-05-17T14:35:02Z</time>
      </trkpt>
      <trkpt lat="40.052467" lon="-5.461900">
        <ele>1182.0</ele>
        <time>2014-05-17T14:35:03Z</time>
      </trkpt>
      <trkpt lat="40.052400" lon="-5.461983">
        <ele>1178.0</ele>
        <time>2014-05-17T14:35:04Z</time>
      </trkpt>
      <trkpt lat="40.052350" lon="-5.462050">
        <ele>1175.0</ele>
        <time>2014-05-17T14:35:05Z</time>
      </trkpt>
      <trkpt lat="40.052300" lon="-5.462117">
        <ele>1172.0</ele>
        <time>2014-05-17T14:35:06Z</time>
      </trkpt>
      <trkpt lat="40.052233" lon="-5.462183">
        <ele>1169.0</ele>
        <time>2014-05-17T14:35:07Z</time>
      </trkpt>
      <trkpt lat="40.052183" lon="-5.462267">
        <ele>1165.0</ele>
        <time>2014-05-17T14:35:08Z</time>
      </trkpt>
      <trkpt lat="40.052117" lon="-5.462333">
        <ele>1161.0</ele>
        <time>2014-05-17T14:35:09Z</time>
      </trkpt>
      <trkpt lat="40.052050" lon="-5.462400">
        <ele>1157.0</ele>
        <time>2014-05-17T14:35:10Z</time>
      </trkpt>
      <trkpt lat="40.051983" lon="-5.462450">
        <ele>1153.0</ele>
        <time>2014-05-17T14:35:11Z</time>
      </trkpt>
      <trkpt lat="40.051917" lon="-5.462517">
        <ele>1149.0</ele>
        <time>2014-05-17T14:35:12Z</time>
      </trkpt>
      <trkpt lat="40.051850" lon="-5.462567">
        <ele>1146.0</ele>
        <time>2014-05-17T14:35:13Z</time>
      </trkpt>
      <trkpt lat="40.051783" lon="-5.462617">
        <ele>1142.0</ele>
        <time>2014-05-17T14:35:14Z</time>
      </trkpt>
      <trkpt lat="40.051717" lon="-5.462667">
        <ele>1138.0</ele>
        <time>2014-05-17T14:35:15Z</time>
      </trkpt>
      <trkpt lat="40.051633" lon="-5.462733">
        <ele>1135.0</ele>
        <time>2014-05-17T14:35:16Z</time>
      </trkpt>
      <trkpt lat="40.051500" lon="-5.462867">
        <ele>1131.0</ele>
        <time>2014-05-17T14:35:18Z</time>
      </trkpt>
      <trkpt lat="40.051433" lon="-5.462950">
        <ele>1130.0</ele>
        <time>2014-05-17T14:35:19Z</time>
      </trkpt>
      <trkpt lat="40.051367" lon="-5.463017">
        <ele>1129.0</ele>
        <time>2014-05-17T14:35:20Z</time>
      </trkpt>
      <trkpt lat="40.051300" lon="-5.463083">
        <ele>1127.0</ele>
        <time>2014-05-17T14:35:21Z</time>
      </trkpt>
      <trkpt lat="40.051233" lon="-5.463167">
        <ele>1126.0</ele>
        <time>2014-05-17T14:35:22Z</time>
      </trkpt>
      <trkpt lat="40.051167" lon="-5.463250">
        <ele>1124.0</ele>
        <time>2014-05-17T14:35:23Z</time>
      </trkpt>
      <trkpt lat="40.051083" lon="-5.463333">
        <ele>1122.0</ele>
        <time>2014-05-17T14:35:24Z</time>
      </trkpt>
      <trkpt lat="40.051017" lon="-5.463433">
        <ele>1121.0</ele>
        <time>2014-05-17T14:35:25Z</time>
      </trkpt>
      <trkpt lat="40.050950" lon="-5.463533">
        <ele>1120.0</ele>
        <time>2014-05-17T14:35:26Z</time>
      </trkpt>
      <trkpt lat="40.050867" lon="-5.463617">
        <ele>1119.0</ele>
        <time>2014-05-17T14:35:27Z</time>
      </trkpt>
      <trkpt lat="40.050783" lon="-5.463700">
        <ele>1119.0</ele>
        <time>2014-05-17T14:35:28Z</time>
      </trkpt>
      <trkpt lat="40.050717" lon="-5.463783">
        <ele>1120.0</ele>
        <time>2014-05-17T14:35:29Z</time>
      </trkpt>
      <trkpt lat="40.050650" lon="-5.463867">
        <ele>1120.0</ele>
        <time>2014-05-17T14:35:30Z</time>
      </trkpt>
      <trkpt lat="40.050583" lon="-5.463967">
        <ele>1121.0</ele>
        <time>2014-05-17T14:35:31Z</time>
      </trkpt>
      <trkpt lat="40.050517" lon="-5.464083">
        <ele>1122.0</ele>
        <time>2014-05-17T14:35:32Z</time>
      </trkpt>
      <trkpt lat="40.050467" lon="-5.464183">
        <ele>1122.0</ele>
        <time>2014-05-17T14:35:33Z</time>
      </trkpt>
      <trkpt lat="40.050400" lon="-5.464300">
        <ele>1122.0</ele>
        <time>2014-05-17T14:35:34Z</time>
      </trkpt>
      <trkpt lat="40.050333" lon="-5.464400">
        <ele>1123.0</ele>
        <time>2014-05-17T14:35:35Z</time>
      </trkpt>
      <trkpt lat="40.050267" lon="-5.464500">
        <ele>1123.0</ele>
        <time>2014-05-17T14:35:36Z</time>
      </trkpt>
      <trkpt lat="40.050217" lon="-5.464600">
        <ele>1124.0</ele>
        <time>2014-05-17T14:35:37Z</time>
      </trkpt>
      <trkpt lat="40.050133" lon="-5.464700">
        <ele>1125.0</ele>
        <time>2014-05-17T14:35:38Z</time>
      </trkpt>
      <trkpt lat="40.050050" lon="-5.464783">
        <ele>1125.0</ele>
        <time>2014-05-17T14:35:39Z</time>
      </trkpt>
      <trkpt lat="40.049967" lon="-5.464883">
        <ele>1126.0</ele>
        <time>2014-05-17T14:35:40Z</time>
      </trkpt>
      <trkpt lat="40.049883" lon="-5.464983">
        <ele>1127.0</ele>
        <time>2014-05-17T14:35:41Z</time>
      </trkpt>
      <trkpt lat="40.049817" lon="-5.465083">
        <ele>1129.0</ele>
        <time>2014-05-17T14:35:42Z</time>
      </trkpt>
      <trkpt lat="40.049750" lon="-5.465200">
        <ele>1131.0</ele>
        <time>2014-05-17T14:35:43Z</time>
      </trkpt>
      <trkpt lat="40.049683" lon="-5.465283">
        <ele>1133.0</ele>
        <time>2014-05-17T14:35:44Z</time>
      </trkpt>
      <trkpt lat="40.049600" lon="-5.465400">
        <ele>1135.0</ele>
        <time>2014-05-17T14:35:45Z</time>
      </trkpt>
      <trkpt lat="40.049517" lon="-5.465500">
        <ele>1136.0</ele>
        <time>2014-05-17T14:35:46Z</time>
      </trkpt>
      <trkpt lat="40.049433" lon="-5.465633">
        <ele>1137.0</ele>
        <time>2014-05-17T14:35:47Z</time>
      </trkpt>
      <trkpt lat="40.049350" lon="-5.465750">
        <ele>1139.0</ele>
        <time>2014-05-17T14:35:48Z</time>
      </trkpt>
      <trkpt lat="40.049300" lon="-5.465850">
        <ele>1141.0</ele>
        <time>2014-05-17T14:35:49Z</time>
      </trkpt>
      <trkpt lat="40.049250" lon="-5.465933">
        <ele>1144.0</ele>
        <time>2014-05-17T14:35:50Z</time>
      </trkpt>
      <trkpt lat="40.049183" lon="-5.466033">
        <ele>1145.0</ele>
        <time>2014-05-17T14:35:51Z</time>
      </trkpt>
      <trkpt lat="40.049117" lon="-5.466133">
        <ele>1145.0</ele>
        <time>2014-05-17T14:35:52Z</time>
      </trkpt>
      <trkpt lat="40.049050" lon="-5.466250">
        <ele>1145.0</ele>
        <time>2014-05-17T14:35:53Z</time>
      </trkpt>
      <trkpt lat="40.048967" lon="-5.466367">
        <ele>1145.0</ele>
        <time>2014-05-17T14:35:54Z</time>
      </trkpt>
      <trkpt lat="40.048850" lon="-5.466550">
        <ele>1147.0</ele>
        <time>2014-05-17T14:35:56Z</time>
      </trkpt>
      <trkpt lat="40.048717" lon="-5.466750">
        <ele>1148.0</ele>
        <time>2014-05-17T14:35:58Z</time>
      </trkpt>
      <trkpt lat="40.048650" lon="-5.466867">
        <ele>1147.0</ele>
        <time>2014-05-17T14:35:59Z</time>
      </trkpt>
      <trkpt lat="40.048583" lon="-5.466983">
        <ele>1147.0</ele>
        <time>2014-05-17T14:36:00Z</time>
      </trkpt>
      <trkpt lat="40.048517" lon="-5.467100">
        <ele>1146.0</ele>
        <time>2014-05-17T14:36:01Z</time>
      </trkpt>
      <trkpt lat="40.048433" lon="-5.467200">
        <ele>1146.0</ele>
        <time>2014-05-17T14:36:02Z</time>
      </trkpt>
      <trkpt lat="40.048367" lon="-5.467300">
        <ele>1144.0</ele>
        <time>2014-05-17T14:36:03Z</time>
      </trkpt>
      <trkpt lat="40.048300" lon="-5.467417">
        <ele>1142.0</ele>
        <time>2014-05-17T14:36:04Z</time>
      </trkpt>
      <trkpt lat="40.048217" lon="-5.467517">
        <ele>1139.0</ele>
        <time>2014-05-17T14:36:05Z</time>
      </trkpt>
      <trkpt lat="40.048150" lon="-5.467617">
        <ele>1138.0</ele>
        <time>2014-05-17T14:36:06Z</time>
      </trkpt>
      <trkpt lat="40.048067" lon="-5.467717">
        <ele>1136.0</ele>
        <time>2014-05-17T14:36:07Z</time>
      </trkpt>
      <trkpt lat="40.048000" lon="-5.467817">
        <ele>1134.0</ele>
        <time>2014-05-17T14:36:08Z</time>
      </trkpt>
      <trkpt lat="40.047933" lon="-5.467917">
        <ele>1132.0</ele>
        <time>2014-05-17T14:36:09Z</time>
      </trkpt>
      <trkpt lat="40.047867" lon="-5.468033">
        <ele>1129.0</ele>
        <time>2014-05-17T14:36:10Z</time>
      </trkpt>
      <trkpt lat="40.047783" lon="-5.468150">
        <ele>1128.0</ele>
        <time>2014-05-17T14:36:11Z</time>
      </trkpt>
      <trkpt lat="40.047717" lon="-5.468283">
        <ele>1126.0</ele>
        <time>2014-05-17T14:36:12Z</time>
      </trkpt>
      <trkpt lat="40.047650" lon="-5.468383">
        <ele>1125.0</ele>
        <time>2014-05-17T14:36:13Z</time>
      </trkpt>
      <trkpt lat="40.047567" lon="-5.468483">
        <ele>1123.0</ele>
        <time>2014-05-17T14:36:14Z</time>
      </trkpt>
      <trkpt lat="40.047483" lon="-5.468567">
        <ele>1120.0</ele>
        <time>2014-05-17T14:36:15Z</time>
      </trkpt>
      <trkpt lat="40.047400" lon="-5.468667">
        <ele>1115.0</ele>
        <time>2014-05-17T14:36:16Z</time>
      </trkpt>
      <trkpt lat="40.047317" lon="-5.468767">
        <ele>1112.0</ele>
        <time>2014-05-17T14:36:17Z</time>
      </trkpt>
      <trkpt lat="40.047250" lon="-5.468883">
        <ele>1109.0</ele>
        <time>2014-05-17T14:36:18Z</time>
      </trkpt>
      <trkpt lat="40.047183" lon="-5.468967">
        <ele>1106.0</ele>
        <time>2014-05-17T14:36:19Z</time>
      </trkpt>
      <trkpt lat="40.047117" lon="-5.469067">
        <ele>1102.0</ele>
        <time>2014-05-17T14:36:20Z</time>
      </trkpt>
      <trkpt lat="40.047050" lon="-5.469150">
        <ele>1098.0</ele>
        <time>2014-05-17T14:36:21Z</time>
      </trkpt>
      <trkpt lat="40.046967" lon="-5.469233">
        <ele>1093.0</ele>
        <time>2014-05-17T14:36:22Z</time>
      </trkpt>
      <trkpt lat="40.046867" lon="-5.469333">
        <ele>1089.0</ele>
        <time>2014-05-17T14:36:23Z</time>
      </trkpt>
      <trkpt lat="40.046800" lon="-5.469417">
        <ele>1085.0</ele>
        <time>2014-05-17T14:36:24Z</time>
      </trkpt>
      <trkpt lat="40.046717" lon="-5.469500">
        <ele>1082.0</ele>
        <time>2014-05-17T14:36:25Z</time>
      </trkpt>
      <trkpt lat="40.046633" lon="-5.469600">
        <ele>1079.0</ele>
        <time>2014-05-17T14:36:26Z</time>
      </trkpt>
      <trkpt lat="40.046550" lon="-5.469667">
        <ele>1077.0</ele>
        <time>2014-05-17T14:36:27Z</time>
      </trkpt>
      <trkpt lat="40.046400" lon="-5.469833">
        <ele>1071.0</ele>
        <time>2014-05-17T14:36:29Z</time>
      </trkpt>
      <trkpt lat="40.046317" lon="-5.469917">
        <ele>1068.0</ele>
        <time>2014-05-17T14:36:30Z</time>
      </trkpt>
      <trkpt lat="40.046150" lon="-5.470083">
        <ele>1062.0</ele>
        <time>2014-05-17T14:36:32Z</time>
      </trkpt>
      <trkpt lat="40.046067" lon="-5.470150">
        <ele>1060.0</ele>
        <time>2014-05-17T14:36:33Z</time>
      </trkpt>
      <trkpt lat="40.045983" lon="-5.470217">
        <ele>1057.0</ele>
        <time>2014-05-17T14:36:34Z</time>
      </trkpt>
      <trkpt lat="40.045883" lon="-5.470283">
        <ele>1054.0</ele>
        <time>2014-05-17T14:36:35Z</time>
      </trkpt>
      <trkpt lat="40.045800" lon="-5.470350">
        <ele>1052.0</ele>
        <time>2014-05-17T14:36:36Z</time>
      </trkpt>
      <trkpt lat="40.045717" lon="-5.470400">
        <ele>1049.0</ele>
        <time>2014-05-17T14:36:37Z</time>
      </trkpt>
      <trkpt lat="40.045617" lon="-5.470467">
        <ele>1047.0</ele>
        <time>2014-05-17T14:36:38Z</time>
      </trkpt>
      <trkpt lat="40.045533" lon="-5.470517">
        <ele>1045.0</ele>
        <time>2014-05-17T14:36:39Z</time>
      </trkpt>
      <trkpt lat="40.045433" lon="-5.470583">
        <ele>1043.0</ele>
        <time>2014-05-17T14:36:40Z</time>
      </trkpt>
      <trkpt lat="40.045350" lon="-5.470633">
        <ele>1040.0</ele>
        <time>2014-05-17T14:36:41Z</time>
      </trkpt>
      <trkpt lat="40.045250" lon="-5.470700">
        <ele>1037.0</ele>
        <time>2014-05-17T14:36:42Z</time>
      </trkpt>
      <trkpt lat="40.045133" lon="-5.470767">
        <ele>1034.0</ele>
        <time>2014-05-17T14:36:43Z</time>
      </trkpt>
      <trkpt lat="40.045033" lon="-5.470833">
        <ele>1031.0</ele>
        <time>2014-05-17T14:36:44Z</time>
      </trkpt>
      <trkpt lat="40.044950" lon="-5.470917">
        <ele>1029.0</ele>
        <time>2014-05-17T14:36:45Z</time>
      </trkpt>
      <trkpt lat="40.044850" lon="-5.471000">
        <ele>1026.0</ele>
        <time>2014-05-17T14:36:46Z</time>
      </trkpt>
      <trkpt lat="40.044767" lon="-5.471067">
        <ele>1024.0</ele>
        <time>2014-05-17T14:36:47Z</time>
      </trkpt>
      <trkpt lat="40.044683" lon="-5.471150">
        <ele>1022.0</ele>
        <time>2014-05-17T14:36:48Z</time>
      </trkpt>
      <trkpt lat="40.044600" lon="-5.471217">
        <ele>1019.0</ele>
        <time>2014-05-17T14:36:49Z</time>
      </trkpt>
      <trkpt lat="40.044517" lon="-5.471267">
        <ele>1016.0</ele>
        <time>2014-05-17T14:36:50Z</time>
      </trkpt>
      <trkpt lat="40.044450" lon="-5.471333">
        <ele>1013.0</ele>
        <time>2014-05-17T14:36:51Z</time>
      </trkpt>
      <trkpt lat="40.044400" lon="-5.471400">
        <ele>1009.0</ele>
        <time>2014-05-17T14:36:52Z</time>
      </trkpt>
      <trkpt lat="40.044333" lon="-5.471483">
        <ele>1005.0</ele>
        <time>2014-05-17T14:36:53Z</time>
      </trkpt>
      <trkpt lat="40.044200" lon="-5.471683">
        <ele>997.0</ele>
        <time>2014-05-17T14:36:55Z</time>
      </trkpt>
      <trkpt lat="40.044167" lon="-5.471767">
        <ele>994.0</ele>
        <time>2014-05-17T14:36:56Z</time>
      </trkpt>
      <trkpt lat="40.044117" lon="-5.471933">
        <ele>989.0</ele>
        <time>2014-05-17T14:36:58Z</time>
      </trkpt>
      <trkpt lat="40.044067" lon="-5.472033">
        <ele>986.0</ele>
        <time>2014-05-17T14:36:59Z</time>
      </trkpt>
      <trkpt lat="40.043967" lon="-5.472283">
        <ele>978.0</ele>
        <time>2014-05-17T14:37:01Z</time>
      </trkpt>
      <trkpt lat="40.043917" lon="-5.472417">
        <ele>976.0</ele>
        <time>2014-05-17T14:37:02Z</time>
      </trkpt>
      <trkpt lat="40.043850" lon="-5.472583">
        <ele>973.0</ele>
        <time>2014-05-17T14:37:04Z</time>
      </trkpt>
      <trkpt lat="40.043833" lon="-5.472650">
        <ele>972.0</ele>
        <time>2014-05-17T14:37:05Z</time>
      </trkpt>
      <trkpt lat="40.043783" lon="-5.472717">
        <ele>969.0</ele>
        <time>2014-05-17T14:37:06Z</time>
      </trkpt>
      <trkpt lat="40.043717" lon="-5.472817">
        <ele>966.0</ele>
        <time>2014-05-17T14:37:07Z</time>
      </trkpt>
      <trkpt lat="40.043633" lon="-5.472917">
        <ele>972.0</ele>
        <time>2014-05-17T14:37:08Z</time>
      </trkpt>
      <trkpt lat="40.043550" lon="-5.473000">
        <ele>969.0</ele>
        <time>2014-05-17T14:37:09Z</time>
      </trkpt>
      <trkpt lat="40.043483" lon="-5.473067">
        <ele>968.0</ele>
        <time>2014-05-17T14:37:10Z</time>
      </trkpt>
      <trkpt lat="40.043433" lon="-5.473117">
        <ele>966.0</ele>
        <time>2014-05-17T14:37:11Z</time>
      </trkpt>
      <trkpt lat="40.043383" lon="-5.473167">
        <ele>965.0</ele>
        <time>2014-05-17T14:37:12Z</time>
      </trkpt>
      <trkpt lat="40.043333" lon="-5.473217">
        <ele>962.0</ele>
        <time>2014-05-17T14:37:13Z</time>
      </trkpt>
      <trkpt lat="40.043267" lon="-5.473283">
        <ele>959.0</ele>
        <time>2014-05-17T14:37:14Z</time>
      </trkpt>
      <trkpt lat="40.043183" lon="-5.473333">
        <ele>955.0</ele>
        <time>2014-05-17T14:37:15Z</time>
      </trkpt>
      <trkpt lat="40.043117" lon="-5.473367">
        <ele>951.0</ele>
        <time>2014-05-17T14:37:16Z</time>
      </trkpt>
      <trkpt lat="40.043067" lon="-5.473383">
        <ele>948.0</ele>
        <time>2014-05-17T14:37:17Z</time>
      </trkpt>
      <trkpt lat="40.043000" lon="-5.473400">
        <ele>943.0</ele>
        <time>2014-05-17T14:37:18Z</time>
      </trkpt>
      <trkpt lat="40.042933" lon="-5.473433">
        <ele>937.0</ele>
        <time>2014-05-17T14:37:19Z</time>
      </trkpt>
      <trkpt lat="40.042850" lon="-5.473467">
        <ele>930.0</ele>
        <time>2014-05-17T14:37:20Z</time>
      </trkpt>
      <trkpt lat="40.042733" lon="-5.473517">
        <ele>924.0</ele>
        <time>2014-05-17T14:37:21Z</time>
      </trkpt>
      <trkpt lat="40.042650" lon="-5.473567">
        <ele>919.0</ele>
        <time>2014-05-17T14:37:22Z</time>
      </trkpt>
      <trkpt lat="40.042567" lon="-5.473600">
        <ele>916.0</ele>
        <time>2014-05-17T14:37:23Z</time>
      </trkpt>
      <trkpt lat="40.042500" lon="-5.473650">
        <ele>915.0</ele>
        <time>2014-05-17T14:37:24Z</time>
      </trkpt>
      <trkpt lat="40.042433" lon="-5.473683">
        <ele>913.0</ele>
        <time>2014-05-17T14:37:25Z</time>
      </trkpt>
      <trkpt lat="40.042367" lon="-5.473733">
        <ele>909.0</ele>
        <time>2014-05-17T14:37:26Z</time>
      </trkpt>
      <trkpt lat="40.042283" lon="-5.473767">
        <ele>913.0</ele>
        <time>2014-05-17T14:37:27Z</time>
      </trkpt>
      <trkpt lat="40.042200" lon="-5.473817">
        <ele>910.0</ele>
        <time>2014-05-17T14:37:28Z</time>
      </trkpt>
      <trkpt lat="40.042133" lon="-5.473850">
        <ele>907.0</ele>
        <time>2014-05-17T14:37:29Z</time>
      </trkpt>
      <trkpt lat="40.042067" lon="-5.473900">
        <ele>902.0</ele>
        <time>2014-05-17T14:37:30Z</time>
      </trkpt>
      <trkpt lat="40.042000" lon="-5.473933">
        <ele>898.0</ele>
        <time>2014-05-17T14:37:31Z</time>
      </trkpt>
      <trkpt lat="40.041933" lon="-5.474000">
        <ele>894.0</ele>
        <time>2014-05-17T14:37:32Z</time>
      </trkpt>
      <trkpt lat="40.041850" lon="-5.474050">
        <ele>888.0</ele>
        <time>2014-05-17T14:37:33Z</time>
      </trkpt>
      <trkpt lat="40.041767" lon="-5.474117">
        <ele>883.0</ele>
        <time>2014-05-17T14:37:34Z</time>
      </trkpt>
      <trkpt lat="40.041683" lon="-5.474167">
        <ele>879.0</ele>
        <time>2014-05-17T14:37:35Z</time>
      </trkpt>
      <trkpt lat="40.041617" lon="-5.474217">
        <ele>875.0</ele>
        <time>2014-05-17T14:37:36Z</time>
      </trkpt>
      <trkpt lat="40.041533" lon="-5.474267">
        <ele>871.0</ele>
        <time>2014-05-17T14:37:37Z</time>
      </trkpt>
      <trkpt lat="40.041467" lon="-5.474300">
        <ele>867.0</ele>
        <time>2014-05-17T14:37:38Z</time>
      </trkpt>
      <trkpt lat="40.041383" lon="-5.474350">
        <ele>864.0</ele>
        <time>2014-05-17T14:37:39Z</time>
      </trkpt>
      <trkpt lat="40.041300" lon="-5.474383">
        <ele>859.0</ele>
        <time>2014-05-17T14:37:40Z</time>
      </trkpt>
      <trkpt lat="40.041233" lon="-5.474433">
        <ele>856.0</ele>
        <time>2014-05-17T14:37:41Z</time>
      </trkpt>
      <trkpt lat="40.041150" lon="-5.474467">
        <ele>853.0</ele>
        <time>2014-05-17T14:37:42Z</time>
      </trkpt>
      <trkpt lat="40.041067" lon="-5.474500">
        <ele>849.0</ele>
        <time>2014-05-17T14:37:43Z</time>
      </trkpt>
      <trkpt lat="40.041000" lon="-5.474533">
        <ele>846.0</ele>
        <time>2014-05-17T14:37:44Z</time>
      </trkpt>
      <trkpt lat="40.040917" lon="-5.474550">
        <ele>842.0</ele>
        <time>2014-05-17T14:37:45Z</time>
      </trkpt>
      <trkpt lat="40.040850" lon="-5.474567">
        <ele>838.0</ele>
        <time>2014-05-17T14:37:46Z</time>
      </trkpt>
      <trkpt lat="40.040767" lon="-5.474583">
        <ele>835.0</ele>
        <time>2014-05-17T14:37:47Z</time>
      </trkpt>
      <trkpt lat="40.040700" lon="-5.474600">
        <ele>832.0</ele>
        <time>2014-05-17T14:37:48Z</time>
      </trkpt>
      <trkpt lat="40.040617" lon="-5.474617">
        <ele>829.0</ele>
        <time>2014-05-17T14:37:49Z</time>
      </trkpt>
      <trkpt lat="40.040550" lon="-5.474650">
        <ele>827.0</ele>
        <time>2014-05-17T14:37:50Z</time>
      </trkpt>
      <trkpt lat="40.040483" lon="-5.474667">
        <ele>824.0</ele>
        <time>2014-05-17T14:37:51Z</time>
      </trkpt>
      <trkpt lat="40.040400" lon="-5.474683">
        <ele>821.0</ele>
        <time>2014-05-17T14:37:52Z</time>
      </trkpt>
      <trkpt lat="40.040333" lon="-5.474700">
        <ele>817.0</ele>
        <time>2014-05-17T14:37:53Z</time>
      </trkpt>
      <trkpt lat="40.040250" lon="-5.474717">
        <ele>813.0</ele>
        <time>2014-05-17T14:37:54Z</time>
      </trkpt>
      <trkpt lat="40.040183" lon="-5.474717">
        <ele>810.0</ele>
        <time>2014-05-17T14:37:55Z</time>
      </trkpt>
      <trkpt lat="40.040100" lon="-5.474733">
        <ele>806.0</ele>
        <time>2014-05-17T14:37:56Z</time>
      </trkpt>
      <trkpt lat="40.040017" lon="-5.474750">
        <ele>803.0</ele>
        <time>2014-05-17T14:37:57Z</time>
      </trkpt>
      <trkpt lat="40.039950" lon="-5.474767">
        <ele>801.0</ele>
        <time>2014-05-17T14:37:58Z</time>
      </trkpt>
      <trkpt lat="40.039867" lon="-5.474783">
        <ele>798.0</ele>
        <time>2014-05-17T14:37:59Z</time>
      </trkpt>
      <trkpt lat="40.039800" lon="-5.474817">
        <ele>796.0</ele>
        <time>2014-05-17T14:38:00Z</time>
      </trkpt>
      <trkpt lat="40.039717" lon="-5.474867">
        <ele>793.0</ele>
        <time>2014-05-17T14:38:01Z</time>
      </trkpt>
      <trkpt lat="40.039633" lon="-5.474917">
        <ele>790.0</ele>
        <time>2014-05-17T14:38:02Z</time>
      </trkpt>
      <trkpt lat="40.039533" lon="-5.474950">
        <ele>787.0</ele>
        <time>2014-05-17T14:38:03Z</time>
      </trkpt>
      <trkpt lat="40.039450" lon="-5.475000">
        <ele>784.0</ele>
        <time>2014-05-17T14:38:04Z</time>
      </trkpt>
      <trkpt lat="40.039367" lon="-5.475050">
        <ele>782.0</ele>
        <time>2014-05-17T14:38:05Z</time>
      </trkpt>
      <trkpt lat="40.039283" lon="-5.475100">
        <ele>780.0</ele>
        <time>2014-05-17T14:38:06Z</time>
      </trkpt>
      <trkpt lat="40.039217" lon="-5.475167">
        <ele>778.0</ele>
        <time>2014-05-17T14:38:07Z</time>
      </trkpt>
      <trkpt lat="40.039133" lon="-5.475233">
        <ele>776.0</ele>
        <time>2014-05-17T14:38:08Z</time>
      </trkpt>
      <trkpt lat="40.039050" lon="-5.475300">
        <ele>774.0</ele>
        <time>2014-05-17T14:38:09Z</time>
      </trkpt>
      <trkpt lat="40.038967" lon="-5.475367">
        <ele>771.0</ele>
        <time>2014-05-17T14:38:10Z</time>
      </trkpt>
      <trkpt lat="40.038883" lon="-5.475433">
        <ele>770.0</ele>
        <time>2014-05-17T14:38:11Z</time>
      </trkpt>
      <trkpt lat="40.038800" lon="-5.475500">
        <ele>768.0</ele>
        <time>2014-05-17T14:38:12Z</time>
      </trkpt>
      <trkpt lat="40.038750" lon="-5.475567">
        <ele>768.0</ele>
        <time>2014-05-17T14:38:13Z</time>
      </trkpt>
      <trkpt lat="40.038683" lon="-5.475633">
        <ele>767.0</ele>
        <time>2014-05-17T14:38:14Z</time>
      </trkpt>
      <trkpt lat="40.038617" lon="-5.475700">
        <ele>766.0</ele>
        <time>2014-05-17T14:38:15Z</time>
      </trkpt>
      <trkpt lat="40.038550" lon="-5.475783">
        <ele>764.0</ele>
        <time>2014-05-17T14:38:16Z</time>
      </trkpt>
      <trkpt lat="40.038483" lon="-5.475867">
        <ele>763.0</ele>
        <time>2014-05-17T14:38:17Z</time>
      </trkpt>
      <trkpt lat="40.038433" lon="-5.475950">
        <ele>763.0</ele>
        <time>2014-05-17T14:38:18Z</time>
      </trkpt>
      <trkpt lat="40.038383" lon="-5.476033">
        <ele>764.0</ele>
        <time>2014-05-17T14:38:19Z</time>
      </trkpt>
      <trkpt lat="40.038333" lon="-5.476100">
        <ele>764.0</ele>
        <time>2014-05-17T14:38:20Z</time>
      </trkpt>
      <trkpt lat="40.038267" lon="-5.476183">
        <ele>763.0</ele>
        <time>2014-05-17T14:38:21Z</time>
      </trkpt>
      <trkpt lat="40.038217" lon="-5.476267">
        <ele>761.0</ele>
        <time>2014-05-17T14:38:22Z</time>
      </trkpt>
      <trkpt lat="40.038133" lon="-5.476367">
        <ele>759.0</ele>
        <time>2014-05-17T14:38:23Z</time>
      </trkpt>
      <trkpt lat="40.038067" lon="-5.476433">
        <ele>758.0</ele>
        <time>2014-05-17T14:38:24Z</time>
      </trkpt>
      <trkpt lat="40.038000" lon="-5.476517">
        <ele>758.0</ele>
        <time>2014-05-17T14:38:25Z</time>
      </trkpt>
      <trkpt lat="40.037933" lon="-5.476600">
        <ele>758.0</ele>
        <time>2014-05-17T14:38:26Z</time>
      </trkpt>
      <trkpt lat="40.037883" lon="-5.476683">
        <ele>758.0</ele>
        <time>2014-05-17T14:38:27Z</time>
      </trkpt>
      <trkpt lat="40.037817" lon="-5.476750">
        <ele>758.0</ele>
        <time>2014-05-17T14:38:28Z</time>
      </trkpt>
      <trkpt lat="40.037767" lon="-5.476817">
        <ele>759.0</ele>
        <time>2014-05-17T14:38:29Z</time>
      </trkpt>
      <trkpt lat="40.037700" lon="-5.476883">
        <ele>757.0</ele>
        <time>2014-05-17T14:38:30Z</time>
      </trkpt>
      <trkpt lat="40.037633" lon="-5.476967">
        <ele>756.0</ele>
        <time>2014-05-17T14:38:31Z</time>
      </trkpt>
      <trkpt lat="40.037567" lon="-5.477050">
        <ele>755.0</ele>
        <time>2014-05-17T14:38:32Z</time>
      </trkpt>
      <trkpt lat="40.037500" lon="-5.477150">
        <ele>755.0</ele>
        <time>2014-05-17T14:38:33Z</time>
      </trkpt>
      <trkpt lat="40.037450" lon="-5.477250">
        <ele>754.0</ele>
        <time>2014-05-17T14:38:34Z</time>
      </trkpt>
      <trkpt lat="40.037383" lon="-5.477317">
        <ele>754.0</ele>
        <time>2014-05-17T14:38:35Z</time>
      </trkpt>
      <trkpt lat="40.037317" lon="-5.477367">
        <ele>754.0</ele>
        <time>2014-05-17T14:38:36Z</time>
      </trkpt>
      <trkpt lat="40.037233" lon="-5.477417">
        <ele>753.0</ele>
        <time>2014-05-17T14:38:37Z</time>
      </trkpt>
      <trkpt lat="40.037150" lon="-5.477467">
        <ele>751.0</ele>
        <time>2014-05-17T14:38:38Z</time>
      </trkpt>
      <trkpt lat="40.037067" lon="-5.477500">
        <ele>751.0</ele>
        <time>2014-05-17T14:38:39Z</time>
      </trkpt>
      <trkpt lat="40.037000" lon="-5.477517">
        <ele>751.0</ele>
        <time>2014-05-17T14:38:40Z</time>
      </trkpt>
      <trkpt lat="40.036933" lon="-5.477517">
        <ele>751.0</ele>
        <time>2014-05-17T14:38:41Z</time>
      </trkpt>
      <trkpt lat="40.036850" lon="-5.477517">
        <ele>752.0</ele>
        <time>2014-05-17T14:38:42Z</time>
      </trkpt>
      <trkpt lat="40.036783" lon="-5.477500">
        <ele>752.0</ele>
        <time>2014-05-17T14:38:43Z</time>
      </trkpt>
      <trkpt lat="40.036700" lon="-5.477483">
        <ele>752.0</ele>
        <time>2014-05-17T14:38:44Z</time>
      </trkpt>
      <trkpt lat="40.036633" lon="-5.477483">
        <ele>753.0</ele>
        <time>2014-05-17T14:38:45Z</time>
      </trkpt>
      <trkpt lat="40.036567" lon="-5.477467">
        <ele>753.0</ele>
        <time>2014-05-17T14:38:46Z</time>
      </trkpt>
      <trkpt lat="40.036517" lon="-5.477467">
        <ele>756.0</ele>
        <time>2014-05-17T14:38:47Z</time>
      </trkpt>
      <trkpt lat="40.036450" lon="-5.477450">
        <ele>758.0</ele>
        <time>2014-05-17T14:38:48Z</time>
      </trkpt>
      <trkpt lat="40.036400" lon="-5.477433">
        <ele>758.0</ele>
        <time>2014-05-17T14:38:49Z</time>
      </trkpt>
      <trkpt lat="40.036350" lon="-5.477383">
        <ele>758.0</ele>
        <time>2014-05-17T14:38:50Z</time>
      </trkpt>
      <trkpt lat="40.036317" lon="-5.477317">
        <ele>758.0</ele>
        <time>2014-05-17T14:38:51Z</time>
      </trkpt>
      <trkpt lat="40.036283" lon="-5.477250">
        <ele>758.0</ele>
        <time>2014-05-17T14:38:52Z</time>
      </trkpt>
      <trkpt lat="40.036250" lon="-5.477183">
        <ele>759.0</ele>
        <time>2014-05-17T14:38:53Z</time>
      </trkpt>
      <trkpt lat="40.036217" lon="-5.477150">
        <ele>760.0</ele>
        <time>2014-05-17T14:38:54Z</time>
      </trkpt>
      <trkpt lat="40.036200" lon="-5.477100">
        <ele>760.0</ele>
        <time>2014-05-17T14:38:55Z</time>
      </trkpt>
      <trkpt lat="40.036167" lon="-5.477067">
        <ele>760.0</ele>
        <time>2014-05-17T14:38:56Z</time>
      </trkpt>
      <trkpt lat="40.036133" lon="-5.477050">
        <ele>760.0</ele>
        <time>2014-05-17T14:38:57Z</time>
      </trkpt>
      <trkpt lat="40.036100" lon="-5.477017">
        <ele>760.0</ele>
        <time>2014-05-17T14:38:58Z</time>
      </trkpt>
      <trkpt lat="40.036067" lon="-5.476983">
        <ele>760.0</ele>
        <time>2014-05-17T14:38:59Z</time>
      </trkpt>
      <trkpt lat="40.036000" lon="-5.476933">
        <ele>759.0</ele>
        <time>2014-05-17T14:39:00Z</time>
      </trkpt>
      <trkpt lat="40.035950" lon="-5.476883">
        <ele>759.0</ele>
        <time>2014-05-17T14:39:01Z</time>
      </trkpt>
      <trkpt lat="40.035883" lon="-5.476850">
        <ele>760.0</ele>
        <time>2014-05-17T14:39:02Z</time>
      </trkpt>
      <trkpt lat="40.035850" lon="-5.476817">
        <ele>762.0</ele>
        <time>2014-05-17T14:39:03Z</time>
      </trkpt>
      <trkpt lat="40.035800" lon="-5.476800">
        <ele>763.0</ele>
        <time>2014-05-17T14:39:04Z</time>
      </trkpt>
      <trkpt lat="40.035767" lon="-5.476767">
        <ele>763.0</ele>
        <time>2014-05-17T14:39:05Z</time>
      </trkpt>
      <trkpt lat="40.035717" lon="-5.476717">
        <ele>762.0</ele>
        <time>2014-05-17T14:39:06Z</time>
      </trkpt>
      <trkpt lat="40.035700" lon="-5.476650">
        <ele>761.0</ele>
        <time>2014-05-17T14:39:07Z</time>
      </trkpt>
      <trkpt lat="40.035700" lon="-5.476583">
        <ele>760.0</ele>
        <time>2014-05-17T14:39:08Z</time>
      </trkpt>
      <trkpt lat="40.035733" lon="-5.476500">
        <ele>760.0</ele>
        <time>2014-05-17T14:39:09Z</time>
      </trkpt>
      <trkpt lat="40.035767" lon="-5.476433">
        <ele>760.0</ele>
        <time>2014-05-17T14:39:10Z</time>
      </trkpt>
      <trkpt lat="40.035800" lon="-5.476367">
        <ele>762.0</ele>
        <time>2014-05-17T14:39:11Z</time>
      </trkpt>
      <trkpt lat="40.035833" lon="-5.476317">
        <ele>763.0</ele>
        <time>2014-05-17T14:39:12Z</time>
      </trkpt>
      <trkpt lat="40.035867" lon="-5.476267">
        <ele>765.0</ele>
        <time>2014-05-17T14:39:13Z</time>
      </trkpt>
      <trkpt lat="40.035933" lon="-5.476217">
        <ele>766.0</ele>
        <time>2014-05-17T14:39:14Z</time>
      </trkpt>
      <trkpt lat="40.036000" lon="-5.476167">
        <ele>765.0</ele>
        <time>2014-05-17T14:39:15Z</time>
      </trkpt>
      <trkpt lat="40.036067" lon="-5.476117">
        <ele>765.0</ele>
        <time>2014-05-17T14:39:16Z</time>
      </trkpt>
      <trkpt lat="40.036133" lon="-5.476083">
        <ele>766.0</ele>
        <time>2014-05-17T14:39:17Z</time>
      </trkpt>
      <trkpt lat="40.036183" lon="-5.476050">
        <ele>768.0</ele>
        <time>2014-05-17T14:39:18Z</time>
      </trkpt>
      <trkpt lat="40.036233" lon="-5.476017">
        <ele>771.0</ele>
        <time>2014-05-17T14:39:19Z</time>
      </trkpt>
      <trkpt lat="40.036300" lon="-5.476000">
        <ele>774.0</ele>
        <time>2014-05-17T14:39:20Z</time>
      </trkpt>
      <trkpt lat="40.036367" lon="-5.476000">
        <ele>775.0</ele>
        <time>2014-05-17T14:39:21Z</time>
      </trkpt>
      <trkpt lat="40.036433" lon="-5.475983">
        <ele>777.0</ele>
        <time>2014-05-17T14:39:22Z</time>
      </trkpt>
      <trkpt lat="40.036500" lon="-5.475983">
        <ele>778.0</ele>
        <time>2014-05-17T14:39:23Z</time>
      </trkpt>
      <trkpt lat="40.036583" lon="-5.476033">
        <ele>779.0</ele>
        <time>2014-05-17T14:39:24Z</time>
      </trkpt>
      <trkpt lat="40.036633" lon="-5.476100">
        <ele>781.0</ele>
        <time>2014-05-17T14:39:25Z</time>
      </trkpt>
      <trkpt lat="40.036700" lon="-5.476167">
        <ele>782.0</ele>
        <time>2014-05-17T14:39:26Z</time>
      </trkpt>
      <trkpt lat="40.036767" lon="-5.476233">
        <ele>782.0</ele>
        <time>2014-05-17T14:39:27Z</time>
      </trkpt>
      <trkpt lat="40.036833" lon="-5.476300">
        <ele>782.0</ele>
        <time>2014-05-17T14:39:28Z</time>
      </trkpt>
      <trkpt lat="40.036917" lon="-5.476383">
        <ele>781.0</ele>
        <time>2014-05-17T14:39:29Z</time>
      </trkpt>
      <trkpt lat="40.036983" lon="-5.476467">
        <ele>780.0</ele>
        <time>2014-05-17T14:39:30Z</time>
      </trkpt>
      <trkpt lat="40.037050" lon="-5.476583">
        <ele>780.0</ele>
        <time>2014-05-17T14:39:31Z</time>
      </trkpt>
      <trkpt lat="40.037100" lon="-5.476683">
        <ele>779.0</ele>
        <time>2014-05-17T14:39:32Z</time>
      </trkpt>
      <trkpt lat="40.037167" lon="-5.476783">
        <ele>779.0</ele>
        <time>2014-05-17T14:39:33Z</time>
      </trkpt>
      <trkpt lat="40.037250" lon="-5.476883">
        <ele>779.0</ele>
        <time>2014-05-17T14:39:34Z</time>
      </trkpt>
      <trkpt lat="40.037317" lon="-5.476950">
        <ele>780.0</ele>
        <time>2014-05-17T14:39:35Z</time>
      </trkpt>
      <trkpt lat="40.037400" lon="-5.477033">
        <ele>783.0</ele>
        <time>2014-05-17T14:39:36Z</time>
      </trkpt>
      <trkpt lat="40.037467" lon="-5.477100">
        <ele>785.0</ele>
        <time>2014-05-17T14:39:37Z</time>
      </trkpt>
      <trkpt lat="40.037550" lon="-5.477183">
        <ele>787.0</ele>
        <time>2014-05-17T14:39:38Z</time>
      </trkpt>
      <trkpt lat="40.037633" lon="-5.477233">
        <ele>788.0</ele>
        <time>2014-05-17T14:39:39Z</time>
      </trkpt>
      <trkpt lat="40.037717" lon="-5.477300">
        <ele>790.0</ele>
        <time>2014-05-17T14:39:40Z</time>
      </trkpt>
      <trkpt lat="40.037783" lon="-5.477367">
        <ele>791.0</ele>
        <time>2014-05-17T14:39:41Z</time>
      </trkpt>
      <trkpt lat="40.037850" lon="-5.477467">
        <ele>793.0</ele>
        <time>2014-05-17T14:39:42Z</time>
      </trkpt>
      <trkpt lat="40.037900" lon="-5.477600">
        <ele>795.0</ele>
        <time>2014-05-17T14:39:43Z</time>
      </trkpt>
      <trkpt lat="40.037950" lon="-5.478000">
        <ele>800.0</ele>
        <time>2014-05-17T14:39:46Z</time>
      </trkpt>
      <trkpt lat="40.037967" lon="-5.478133">
        <ele>801.0</ele>
        <time>2014-05-17T14:39:47Z</time>
      </trkpt>
      <trkpt lat="40.037983" lon="-5.478267">
        <ele>802.0</ele>
        <time>2014-05-17T14:39:48Z</time>
      </trkpt>
      <trkpt lat="40.037967" lon="-5.478417">
        <ele>803.0</ele>
        <time>2014-05-17T14:39:49Z</time>
      </trkpt>
      <trkpt lat="40.037950" lon="-5.478583">
        <ele>803.0</ele>
        <time>2014-05-17T14:39:50Z</time>
      </trkpt>
      <trkpt lat="40.037933" lon="-5.478717">
        <ele>804.0</ele>
        <time>2014-05-17T14:39:51Z</time>
      </trkpt>
      <trkpt lat="40.037917" lon="-5.478867">
        <ele>804.0</ele>
        <time>2014-05-17T14:39:52Z</time>
      </trkpt>
      <trkpt lat="40.037900" lon="-5.479000">
        <ele>805.0</ele>
        <time>2014-05-17T14:39:53Z</time>
      </trkpt>
      <trkpt lat="40.037883" lon="-5.479133">
        <ele>806.0</ele>
        <time>2014-05-17T14:39:54Z</time>
      </trkpt>
      <trkpt lat="40.037883" lon="-5.479267">
        <ele>806.0</ele>
        <time>2014-05-17T14:39:55Z</time>
      </trkpt>
      <trkpt lat="40.037883" lon="-5.479400">
        <ele>806.0</ele>
        <time>2014-05-17T14:39:56Z</time>
      </trkpt>
      <trkpt lat="40.037867" lon="-5.479533">
        <ele>806.0</ele>
        <time>2014-05-17T14:39:57Z</time>
      </trkpt>
      <trkpt lat="40.037833" lon="-5.479683">
        <ele>806.0</ele>
        <time>2014-05-17T14:39:58Z</time>
      </trkpt>
      <trkpt lat="40.037800" lon="-5.479817">
        <ele>806.0</ele>
        <time>2014-05-17T14:39:59Z</time>
      </trkpt>
      <trkpt lat="40.037767" lon="-5.479933">
        <ele>806.0</ele>
        <time>2014-05-17T14:40:00Z</time>
      </trkpt>
      <trkpt lat="40.037717" lon="-5.480050">
        <ele>806.0</ele>
        <time>2014-05-17T14:40:01Z</time>
      </trkpt>
      <trkpt lat="40.037667" lon="-5.480133">
        <ele>805.0</ele>
        <time>2014-05-17T14:40:02Z</time>
      </trkpt>
      <trkpt lat="40.037617" lon="-5.480233">
        <ele>803.0</ele>
        <time>2014-05-17T14:40:03Z</time>
      </trkpt>
      <trkpt lat="40.037550" lon="-5.480333">
        <ele>801.0</ele>
        <time>2014-05-17T14:40:04Z</time>
      </trkpt>
      <trkpt lat="40.037483" lon="-5.480433">
        <ele>800.0</ele>
        <time>2014-05-17T14:40:05Z</time>
      </trkpt>
      <trkpt lat="40.037433" lon="-5.480533">
        <ele>801.0</ele>
        <time>2014-05-17T14:40:06Z</time>
      </trkpt>
      <trkpt lat="40.037383" lon="-5.480617">
        <ele>800.0</ele>
        <time>2014-05-17T14:40:07Z</time>
      </trkpt>
      <trkpt lat="40.037317" lon="-5.480700">
        <ele>800.0</ele>
        <time>2014-05-17T14:40:08Z</time>
      </trkpt>
      <trkpt lat="40.037267" lon="-5.480783">
        <ele>799.0</ele>
        <time>2014-05-17T14:40:09Z</time>
      </trkpt>
      <trkpt lat="40.037200" lon="-5.480883">
        <ele>798.0</ele>
        <time>2014-05-17T14:40:10Z</time>
      </trkpt>
      <trkpt lat="40.037117" lon="-5.480967">
        <ele>797.0</ele>
        <time>2014-05-17T14:40:11Z</time>
      </trkpt>
      <trkpt lat="40.037050" lon="-5.481017">
        <ele>796.0</ele>
        <time>2014-05-17T14:40:12Z</time>
      </trkpt>
      <trkpt lat="40.036967" lon="-5.481000">
        <ele>793.0</ele>
        <time>2014-05-17T14:40:13Z</time>
      </trkpt>
      <trkpt lat="40.036900" lon="-5.480950">
        <ele>790.0</ele>
        <time>2014-05-17T14:40:14Z</time>
      </trkpt>
      <trkpt lat="40.036833" lon="-5.480883">
        <ele>786.0</ele>
        <time>2014-05-17T14:40:15Z</time>
      </trkpt>
      <trkpt lat="40.036800" lon="-5.480833">
        <ele>785.0</ele>
        <time>2014-05-17T14:40:16Z</time>
      </trkpt>
      <trkpt lat="40.036750" lon="-5.480800">
        <ele>786.0</ele>
        <time>2014-05-17T14:40:17Z</time>
      </trkpt>
      <trkpt lat="40.036700" lon="-5.480767">
        <ele>786.0</ele>
        <time>2014-05-17T14:40:18Z</time>
      </trkpt>
      <trkpt lat="40.036650" lon="-5.480717">
        <ele>784.0</ele>
        <time>2014-05-17T14:40:19Z</time>
      </trkpt>
      <trkpt lat="40.036617" lon="-5.480650">
        <ele>782.0</ele>
        <time>2014-05-17T14:40:20Z</time>
      </trkpt>
      <trkpt lat="40.036583" lon="-5.480583">
        <ele>781.0</ele>
        <time>2014-05-17T14:40:21Z</time>
      </trkpt>
      <trkpt lat="40.036567" lon="-5.480517">
        <ele>781.0</ele>
        <time>2014-05-17T14:40:22Z</time>
      </trkpt>
      <trkpt lat="40.036533" lon="-5.480450">
        <ele>781.0</ele>
        <time>2014-05-17T14:40:23Z</time>
      </trkpt>
      <trkpt lat="40.036500" lon="-5.480417">
        <ele>781.0</ele>
        <time>2014-05-17T14:40:24Z</time>
      </trkpt>
      <trkpt lat="40.036467" lon="-5.480367">
        <ele>780.0</ele>
        <time>2014-05-17T14:40:25Z</time>
      </trkpt>
      <trkpt lat="40.036417" lon="-5.480317">
        <ele>779.0</ele>
        <time>2014-05-17T14:40:26Z</time>
      </trkpt>
      <trkpt lat="40.036350" lon="-5.480267">
        <ele>777.0</ele>
        <time>2014-05-17T14:40:27Z</time>
      </trkpt>
      <trkpt lat="40.036300" lon="-5.480217">
        <ele>776.0</ele>
        <time>2014-05-17T14:40:28Z</time>
      </trkpt>
      <trkpt lat="40.036233" lon="-5.480167">
        <ele>776.0</ele>
        <time>2014-05-17T14:40:29Z</time>
      </trkpt>
      <trkpt lat="40.036150" lon="-5.480133">
        <ele>776.0</ele>
        <time>2014-05-17T14:40:30Z</time>
      </trkpt>
      <trkpt lat="40.036083" lon="-5.480133">
        <ele>776.0</ele>
        <time>2014-05-17T14:40:31Z</time>
      </trkpt>
      <trkpt lat="40.036000" lon="-5.480150">
        <ele>776.0</ele>
        <time>2014-05-17T14:40:32Z</time>
      </trkpt>
      <trkpt lat="40.035933" lon="-5.480200">
        <ele>776.0</ele>
        <time>2014-05-17T14:40:33Z</time>
      </trkpt>
      <trkpt lat="40.035867" lon="-5.480300">
        <ele>775.0</ele>
        <time>2014-05-17T14:40:34Z</time>
      </trkpt>
      <trkpt lat="40.035800" lon="-5.480417">
        <ele>775.0</ele>
        <time>2014-05-17T14:40:35Z</time>
      </trkpt>
      <trkpt lat="40.035783" lon="-5.480550">
        <ele>774.0</ele>
        <time>2014-05-17T14:40:36Z</time>
      </trkpt>
      <trkpt lat="40.035800" lon="-5.480683">
        <ele>774.0</ele>
        <time>2014-05-17T14:40:37Z</time>
      </trkpt>
      <trkpt lat="40.035850" lon="-5.480800">
        <ele>773.0</ele>
        <time>2014-05-17T14:40:38Z</time>
      </trkpt>
      <trkpt lat="40.035933" lon="-5.480883">
        <ele>771.0</ele>
        <time>2014-05-17T14:40:39Z</time>
      </trkpt>
      <trkpt lat="40.036083" lon="-5.480833">
        <ele>769.0</ele>
        <time>2014-05-17T14:40:41Z</time>
      </trkpt>
      <trkpt lat="40.036083" lon="-5.480750">
        <ele>767.0</ele>
        <time>2014-05-17T14:40:42Z</time>
      </trkpt>
      <trkpt lat="40.036033" lon="-5.480667">
        <ele>765.0</ele>
        <time>2014-05-17T14:40:43Z</time>
      </trkpt>
      <trkpt lat="40.035967" lon="-5.480633">
        <ele>764.0</ele>
        <time>2014-05-17T14:40:44Z</time>
      </trkpt>
      <trkpt lat="40.035883" lon="-5.480667">
        <ele>763.0</ele>
        <time>2014-05-17T14:40:45Z</time>
      </trkpt>
      <trkpt lat="40.035817" lon="-5.480750">
        <ele>762.0</ele>
        <time>2014-05-17T14:40:46Z</time>
      </trkpt>
      <trkpt lat="40.035783" lon="-5.480883">
        <ele>761.0</ele>
        <time>2014-05-17T14:40:47Z</time>
      </trkpt>
      <trkpt lat="40.035767" lon="-5.481017">
        <ele>760.0</ele>
        <time>2014-05-17T14:40:48Z</time>
      </trkpt>
      <trkpt lat="40.035783" lon="-5.481150">
        <ele>759.0</ele>
        <time>2014-05-17T14:40:49Z</time>
      </trkpt>
      <trkpt lat="40.035800" lon="-5.481283">
        <ele>759.0</ele>
        <time>2014-05-17T14:40:50Z</time>
      </trkpt>
      <trkpt lat="40.035850" lon="-5.481417">
        <ele>758.0</ele>
        <time>2014-05-17T14:40:51Z</time>
      </trkpt>
      <trkpt lat="40.035900" lon="-5.481517">
        <ele>757.0</ele>
        <time>2014-05-17T14:40:52Z</time>
      </trkpt>
      <trkpt lat="40.035983" lon="-5.481600">
        <ele>757.0</ele>
        <time>2014-05-17T14:40:53Z</time>
      </trkpt>
      <trkpt lat="40.036117" lon="-5.481550">
        <ele>754.0</ele>
        <time>2014-05-17T14:40:55Z</time>
      </trkpt>
      <trkpt lat="40.036117" lon="-5.481450">
        <ele>751.0</ele>
        <time>2014-05-17T14:40:56Z</time>
      </trkpt>
      <trkpt lat="40.035950" lon="-5.481400">
        <ele>747.0</ele>
        <time>2014-05-17T14:40:58Z</time>
      </trkpt>
      <trkpt lat="40.035833" lon="-5.481650">
        <ele>742.0</ele>
        <time>2014-05-17T14:41:00Z</time>
      </trkpt>
      <trkpt lat="40.035867" lon="-5.481783">
        <ele>741.0</ele>
        <time>2014-05-17T14:41:01Z</time>
      </trkpt>
      <trkpt lat="40.035950" lon="-5.481867">
        <ele>739.0</ele>
        <time>2014-05-17T14:41:02Z</time>
      </trkpt>
      <trkpt lat="40.036050" lon="-5.481833">
        <ele>737.0</ele>
        <time>2014-05-17T14:41:03Z</time>
      </trkpt>
      <trkpt lat="40.036083" lon="-5.481750">
        <ele>735.0</ele>
        <time>2014-05-17T14:41:04Z</time>
      </trkpt>
      <trkpt lat="40.036050" lon="-5.481650">
        <ele>733.0</ele>
        <time>2014-05-17T14:41:05Z</time>
      </trkpt>
      <trkpt lat="40.035967" lon="-5.481600">
        <ele>731.0</ele>
        <time>2014-05-17T14:41:06Z</time>
      </trkpt>
      <trkpt lat="40.035883" lon="-5.481617">
        <ele>729.0</ele>
        <time>2014-05-17T14:41:07Z</time>
      </trkpt>
      <trkpt lat="40.035800" lon="-5.481683">
        <ele>728.0</ele>
        <time>2014-05-17T14:41:08Z</time>
      </trkpt>
      <trkpt lat="40.035750" lon="-5.481767">
        <ele>727.0</ele>
        <time>2014-05-17T14:41:09Z</time>
      </trkpt>
      <trkpt lat="40.035700" lon="-5.481883">
        <ele>727.0</ele>
        <time>2014-05-17T14:41:10Z</time>
      </trkpt>
      <trkpt lat="40.035683" lon="-5.482000">
        <ele>726.0</ele>
        <time>2014-05-17T14:41:11Z</time>
      </trkpt>
      <trkpt lat="40.035683" lon="-5.482117">
        <ele>726.0</ele>
        <time>2014-05-17T14:41:12Z</time>
      </trkpt>
      <trkpt lat="40.035717" lon="-5.482250">
        <ele>725.0</ele>
        <time>2014-05-17T14:41:13Z</time>
      </trkpt>
      <trkpt lat="40.035750" lon="-5.482350">
        <ele>724.0</ele>
        <time>2014-05-17T14:41:14Z</time>
      </trkpt>
      <trkpt lat="40.035800" lon="-5.482450">
        <ele>726.0</ele>
        <time>2014-05-17T14:41:15Z</time>
      </trkpt>
      <trkpt lat="40.035850" lon="-5.482533">
        <ele>728.0</ele>
        <time>2014-05-17T14:41:16Z</time>
      </trkpt>
      <trkpt lat="40.035900" lon="-5.482633">
        <ele>728.0</ele>
        <time>2014-05-17T14:41:17Z</time>
      </trkpt>
      <trkpt lat="40.035950" lon="-5.482717">
        <ele>727.0</ele>
        <time>2014-05-17T14:41:18Z</time>
      </trkpt>
      <trkpt lat="40.036000" lon="-5.482783">
        <ele>725.0</ele>
        <time>2014-05-17T14:41:19Z</time>
      </trkpt>
      <trkpt lat="40.036083" lon="-5.482817">
        <ele>723.0</ele>
        <time>2014-05-17T14:41:20Z</time>
      </trkpt>
      <trkpt lat="40.036150" lon="-5.482767">
        <ele>721.0</ele>
        <time>2014-05-17T14:41:21Z</time>
      </trkpt>
      <trkpt lat="40.036167" lon="-5.482683">
        <ele>718.0</ele>
        <time>2014-05-17T14:41:22Z</time>
      </trkpt>
      <trkpt lat="40.036117" lon="-5.482600">
        <ele>716.0</ele>
        <time>2014-05-17T14:41:23Z</time>
      </trkpt>
      <trkpt lat="40.036000" lon="-5.482600">
        <ele>713.0</ele>
        <time>2014-05-17T14:41:24Z</time>
      </trkpt>
      <trkpt lat="40.035900" lon="-5.482683">
        <ele>710.0</ele>
        <time>2014-05-17T14:41:25Z</time>
      </trkpt>
      <trkpt lat="40.035867" lon="-5.482833">
        <ele>707.0</ele>
        <time>2014-05-17T14:41:26Z</time>
      </trkpt>
      <trkpt lat="40.035933" lon="-5.482967">
        <ele>705.0</ele>
        <time>2014-05-17T14:41:27Z</time>
      </trkpt>
      <trkpt lat="40.036017" lon="-5.483017">
        <ele>702.0</ele>
        <time>2014-05-17T14:41:28Z</time>
      </trkpt>
      <trkpt lat="40.036067" lon="-5.482950">
        <ele>699.0</ele>
        <time>2014-05-17T14:41:29Z</time>
      </trkpt>
      <trkpt lat="40.036067" lon="-5.482850">
        <ele>698.0</ele>
        <time>2014-05-17T14:41:30Z</time>
      </trkpt>
      <trkpt lat="40.036000" lon="-5.482767">
        <ele>696.0</ele>
        <time>2014-05-17T14:41:31Z</time>
      </trkpt>
      <trkpt lat="40.035917" lon="-5.482750">
        <ele>695.0</ele>
        <time>2014-05-17T14:41:32Z</time>
      </trkpt>
      <trkpt lat="40.035817" lon="-5.482767">
        <ele>695.0</ele>
        <time>2014-05-17T14:41:33Z</time>
      </trkpt>
      <trkpt lat="40.035750" lon="-5.482767">
        <ele>697.0</ele>
        <time>2014-05-17T14:41:34Z</time>
      </trkpt>
      <trkpt lat="40.035683" lon="-5.482733">
        <ele>696.0</ele>
        <time>2014-05-17T14:41:35Z</time>
      </trkpt>
      <trkpt lat="40.035617" lon="-5.482683">
        <ele>694.0</ele>
        <time>2014-05-17T14:41:36Z</time>
      </trkpt>
      <trkpt lat="40.035533" lon="-5.482617">
        <ele>691.0</ele>
        <time>2014-05-17T14:41:37Z</time>
      </trkpt>
      <trkpt lat="40.035433" lon="-5.482600">
        <ele>689.0</ele>
        <time>2014-05-17T14:41:38Z</time>
      </trkpt>
      <trkpt lat="40.035350" lon="-5.482633">
        <ele>689.0</ele>
        <time>2014-05-17T14:41:39Z</time>
      </trkpt>
      <trkpt lat="40.035267" lon="-5.482733">
        <ele>687.0</ele>
        <time>2014-05-17T14:41:40Z</time>
      </trkpt>
      <trkpt lat="40.035250" lon="-5.482883">
        <ele>685.0</ele>
        <time>2014-05-17T14:41:41Z</time>
      </trkpt>
      <trkpt lat="40.035267" lon="-5.483017">
        <ele>682.0</ele>
        <time>2014-05-17T14:41:42Z</time>
      </trkpt>
      <trkpt lat="40.035350" lon="-5.483100">
        <ele>679.0</ele>
        <time>2014-05-17T14:41:43Z</time>
      </trkpt>
      <trkpt lat="40.035433" lon="-5.483067">
        <ele>677.0</ele>
        <time>2014-05-17T14:41:44Z</time>
      </trkpt>
      <trkpt lat="40.035433" lon="-5.482950">
        <ele>673.0</ele>
        <time>2014-05-17T14:41:45Z</time>
      </trkpt>
      <trkpt lat="40.035367" lon="-5.482850">
        <ele>670.0</ele>
        <time>2014-05-17T14:41:46Z</time>
      </trkpt>
      <trkpt lat="40.035150" lon="-5.482933">
        <ele>666.0</ele>
        <time>2014-05-17T14:41:48Z</time>
      </trkpt>
      <trkpt lat="40.035117" lon="-5.483067">
        <ele>664.0</ele>
        <time>2014-05-17T14:41:49Z</time>
      </trkpt>
      <trkpt lat="40.035117" lon="-5.483200">
        <ele>664.0</ele>
        <time>2014-05-17T14:41:50Z</time>
      </trkpt>
      <trkpt lat="40.035133" lon="-5.483300">
        <ele>666.0</ele>
        <time>2014-05-17T14:41:51Z</time>
      </trkpt>
      <trkpt lat="40.035150" lon="-5.483383">
        <ele>667.0</ele>
        <time>2014-05-17T14:41:52Z</time>
      </trkpt>
      <trkpt lat="40.035200" lon="-5.483467">
        <ele>670.0</ele>
        <time>2014-05-17T14:41:53Z</time>
      </trkpt>
      <trkpt lat="40.035233" lon="-5.483567">
        <ele>670.0</ele>
        <time>2014-05-17T14:41:54Z</time>
      </trkpt>
      <trkpt lat="40.035267" lon="-5.483683">
        <ele>670.0</ele>
        <time>2014-05-17T14:41:55Z</time>
      </trkpt>
      <trkpt lat="40.035300" lon="-5.483800">
        <ele>670.0</ele>
        <time>2014-05-17T14:41:56Z</time>
      </trkpt>
      <trkpt lat="40.035350" lon="-5.483883">
        <ele>670.0</ele>
        <time>2014-05-17T14:41:57Z</time>
      </trkpt>
      <trkpt lat="40.035417" lon="-5.483917">
        <ele>670.0</ele>
        <time>2014-05-17T14:41:58Z</time>
      </trkpt>
      <trkpt lat="40.035500" lon="-5.483917">
        <ele>667.0</ele>
        <time>2014-05-17T14:41:59Z</time>
      </trkpt>
      <trkpt lat="40.035583" lon="-5.483917">
        <ele>666.0</ele>
        <time>2014-05-17T14:42:00Z</time>
      </trkpt>
      <trkpt lat="40.035650" lon="-5.483950">
        <ele>666.0</ele>
        <time>2014-05-17T14:42:01Z</time>
      </trkpt>
      <trkpt lat="40.035717" lon="-5.484000">
        <ele>667.0</ele>
        <time>2014-05-17T14:42:02Z</time>
      </trkpt>
      <trkpt lat="40.035783" lon="-5.484033">
        <ele>668.0</ele>
        <time>2014-05-17T14:42:03Z</time>
      </trkpt>
      <trkpt lat="40.035833" lon="-5.484050">
        <ele>668.0</ele>
        <time>2014-05-17T14:42:04Z</time>
      </trkpt>
      <trkpt lat="40.035900" lon="-5.484033">
        <ele>667.0</ele>
        <time>2014-05-17T14:42:05Z</time>
      </trkpt>
      <trkpt lat="40.035933" lon="-5.484000">
        <ele>667.0</ele>
        <time>2014-05-17T14:42:06Z</time>
      </trkpt>
      <trkpt lat="40.035950" lon="-5.483933">
        <ele>666.0</ele>
        <time>2014-05-17T14:42:07Z</time>
      </trkpt>
      <trkpt lat="40.035967" lon="-5.483850">
        <ele>665.0</ele>
        <time>2014-05-17T14:42:08Z</time>
      </trkpt>
      <trkpt lat="40.035900" lon="-5.483717">
        <ele>663.0</ele>
        <time>2014-05-17T14:42:10Z</time>
      </trkpt>
      <trkpt lat="40.035833" lon="-5.483650">
        <ele>661.0</ele>
        <time>2014-05-17T14:42:11Z</time>
      </trkpt>
      <trkpt lat="40.035767" lon="-5.483600">
        <ele>659.0</ele>
        <time>2014-05-17T14:42:12Z</time>
      </trkpt>
      <trkpt lat="40.035683" lon="-5.483567">
        <ele>658.0</ele>
        <time>2014-05-17T14:42:13Z</time>
      </trkpt>
      <trkpt lat="40.035617" lon="-5.483567">
        <ele>656.0</ele>
        <time>2014-05-17T14:42:14Z</time>
      </trkpt>
      <trkpt lat="40.035517" lon="-5.483617">
        <ele>654.0</ele>
        <time>2014-05-17T14:42:15Z</time>
      </trkpt>
      <trkpt lat="40.035450" lon="-5.483700">
        <ele>651.0</ele>
        <time>2014-05-17T14:42:16Z</time>
      </trkpt>
      <trkpt lat="40.035400" lon="-5.483833">
        <ele>649.0</ele>
        <time>2014-05-17T14:42:17Z</time>
      </trkpt>
      <trkpt lat="40.035400" lon="-5.483967">
        <ele>645.0</ele>
        <time>2014-05-17T14:42:18Z</time>
      </trkpt>
      <trkpt lat="40.035467" lon="-5.484067">
        <ele>641.0</ele>
        <time>2014-05-17T14:42:19Z</time>
      </trkpt>
      <trkpt lat="40.035550" lon="-5.484083">
        <ele>638.0</ele>
        <time>2014-05-17T14:42:20Z</time>
      </trkpt>
      <trkpt lat="40.035633" lon="-5.484033">
        <ele>636.0</ele>
        <time>2014-05-17T14:42:21Z</time>
      </trkpt>
      <trkpt lat="40.035650" lon="-5.483967">
        <ele>634.0</ele>
        <time>2014-05-17T14:42:22Z</time>
      </trkpt>
      <trkpt lat="40.035667" lon="-5.483917">
        <ele>634.0</ele>
        <time>2014-05-17T14:42:23Z</time>
      </trkpt>
      <trkpt lat="40.035650" lon="-5.483817">
        <ele>632.0</ele>
        <time>2014-05-17T14:42:25Z</time>
      </trkpt>
      <trkpt lat="40.035617" lon="-5.483617">
        <ele>627.0</ele>
        <time>2014-05-17T14:42:27Z</time>
      </trkpt>
      <trkpt lat="40.035550" lon="-5.483533">
        <ele>625.0</ele>
        <time>2014-05-17T14:42:28Z</time>
      </trkpt>
      <trkpt lat="40.035483" lon="-5.483500">
        <ele>624.0</ele>
        <time>2014-05-17T14:42:29Z</time>
      </trkpt>
      <trkpt lat="40.035400" lon="-5.483500">
        <ele>623.0</ele>
        <time>2014-05-17T14:42:30Z</time>
      </trkpt>
      <trkpt lat="40.035300" lon="-5.483533">
        <ele>622.0</ele>
        <time>2014-05-17T14:42:31Z</time>
      </trkpt>
      <trkpt lat="40.035217" lon="-5.483583">
        <ele>621.0</ele>
        <time>2014-05-17T14:42:32Z</time>
      </trkpt>
      <trkpt lat="40.035133" lon="-5.483633">
        <ele>620.0</ele>
        <time>2014-05-17T14:42:33Z</time>
      </trkpt>
      <trkpt lat="40.035067" lon="-5.483717">
        <ele>620.0</ele>
        <time>2014-05-17T14:42:34Z</time>
      </trkpt>
      <trkpt lat="40.035000" lon="-5.483817">
        <ele>619.0</ele>
        <time>2014-05-17T14:42:35Z</time>
      </trkpt>
      <trkpt lat="40.034967" lon="-5.483917">
        <ele>619.0</ele>
        <time>2014-05-17T14:42:36Z</time>
      </trkpt>
      <trkpt lat="40.034950" lon="-5.484033">
        <ele>619.0</ele>
        <time>2014-05-17T14:42:37Z</time>
      </trkpt>
      <trkpt lat="40.034933" lon="-5.484133">
        <ele>619.0</ele>
        <time>2014-05-17T14:42:38Z</time>
      </trkpt>
      <trkpt lat="40.034950" lon="-5.484233">
        <ele>621.0</ele>
        <time>2014-05-17T14:42:39Z</time>
      </trkpt>
      <trkpt lat="40.035017" lon="-5.484333">
        <ele>621.0</ele>
        <time>2014-05-17T14:42:40Z</time>
      </trkpt>
      <trkpt lat="40.035083" lon="-5.484400">
        <ele>621.0</ele>
        <time>2014-05-17T14:42:41Z</time>
      </trkpt>
      <trkpt lat="40.035133" lon="-5.484450">
        <ele>620.0</ele>
        <time>2014-05-17T14:42:42Z</time>
      </trkpt>
      <trkpt lat="40.035200" lon="-5.484483">
        <ele>620.0</ele>
        <time>2014-05-17T14:42:43Z</time>
      </trkpt>
      <trkpt lat="40.035267" lon="-5.484467">
        <ele>620.0</ele>
        <time>2014-05-17T14:42:44Z</time>
      </trkpt>
      <trkpt lat="40.035317" lon="-5.484433">
        <ele>619.0</ele>
        <time>2014-05-17T14:42:45Z</time>
      </trkpt>
      <trkpt lat="40.035367" lon="-5.484383">
        <ele>618.0</ele>
        <time>2014-05-17T14:42:46Z</time>
      </trkpt>
      <trkpt lat="40.035417" lon="-5.484333">
        <ele>617.0</ele>
        <time>2014-05-17T14:42:47Z</time>
      </trkpt>
      <trkpt lat="40.035467" lon="-5.484317">
        <ele>616.0</ele>
        <time>2014-05-17T14:42:48Z</time>
      </trkpt>
      <trkpt lat="40.035517" lon="-5.484300">
        <ele>615.0</ele>
        <time>2014-05-17T14:42:49Z</time>
      </trkpt>
      <trkpt lat="40.035567" lon="-5.484267">
        <ele>614.0</ele>
        <time>2014-05-17T14:42:50Z</time>
      </trkpt>
      <trkpt lat="40.035617" lon="-5.484217">
        <ele>613.0</ele>
        <time>2014-05-17T14:42:51Z</time>
      </trkpt>
      <trkpt lat="40.035650" lon="-5.484150">
        <ele>611.0</ele>
        <time>2014-05-17T14:42:52Z</time>
      </trkpt>
      <trkpt lat="40.035650" lon="-5.484067">
        <ele>610.0</ele>
        <time>2014-05-17T14:42:53Z</time>
      </trkpt>
      <trkpt lat="40.035617" lon="-5.483983">
        <ele>608.0</ele>
        <time>2014-05-17T14:42:54Z</time>
      </trkpt>
      <trkpt lat="40.035567" lon="-5.483900">
        <ele>607.0</ele>
        <time>2014-05-17T14:42:55Z</time>
      </trkpt>
      <trkpt lat="40.035483" lon="-5.483850">
        <ele>606.0</ele>
        <time>2014-05-17T14:42:56Z</time>
      </trkpt>
      <trkpt lat="40.035400" lon="-5.483833">
        <ele>605.0</ele>
        <time>2014-05-17T14:42:57Z</time>
      </trkpt>
      <trkpt lat="40.035300" lon="-5.483833">
        <ele>603.0</ele>
        <time>2014-05-17T14:42:58Z</time>
      </trkpt>
      <trkpt lat="40.035217" lon="-5.483883">
        <ele>602.0</ele>
        <time>2014-05-17T14:42:59Z</time>
      </trkpt>
      <trkpt lat="40.035133" lon="-5.483967">
        <ele>601.0</ele>
        <time>2014-05-17T14:43:00Z</time>
      </trkpt>
      <trkpt lat="40.035083" lon="-5.484083">
        <ele>598.0</ele>
        <time>2014-05-17T14:43:01Z</time>
      </trkpt>
      <trkpt lat="40.035067" lon="-5.484217">
        <ele>597.0</ele>
        <time>2014-05-17T14:43:02Z</time>
      </trkpt>
      <trkpt lat="40.035083" lon="-5.484333">
        <ele>594.0</ele>
        <time>2014-05-17T14:43:03Z</time>
      </trkpt>
      <trkpt lat="40.035150" lon="-5.484400">
        <ele>592.0</ele>
        <time>2014-05-17T14:43:04Z</time>
      </trkpt>
      <trkpt lat="40.035233" lon="-5.484417">
        <ele>589.0</ele>
        <time>2014-05-17T14:43:05Z</time>
      </trkpt>
      <trkpt lat="40.035283" lon="-5.484367">
        <ele>587.0</ele>
        <time>2014-05-17T14:43:06Z</time>
      </trkpt>
      <trkpt lat="40.035317" lon="-5.484300">
        <ele>585.0</ele>
        <time>2014-05-17T14:43:07Z</time>
      </trkpt>
      <trkpt lat="40.035333" lon="-5.484233">
        <ele>584.0</ele>
        <time>2014-05-17T14:43:08Z</time>
      </trkpt>
      <trkpt lat="40.035350" lon="-5.484150">
        <ele>583.0</ele>
        <time>2014-05-17T14:43:09Z</time>
      </trkpt>
      <trkpt lat="40.035367" lon="-5.484083">
        <ele>582.0</ele>
        <time>2014-05-17T14:43:10Z</time>
      </trkpt>
      <trkpt lat="40.035400" lon="-5.484017">
        <ele>581.0</ele>
        <time>2014-05-17T14:43:11Z</time>
      </trkpt>
      <trkpt lat="40.035450" lon="-5.483950">
        <ele>579.0</ele>
        <time>2014-05-17T14:43:12Z</time>
      </trkpt>
      <trkpt lat="40.035500" lon="-5.483883">
        <ele>579.0</ele>
        <time>2014-05-17T14:43:13Z</time>
      </trkpt>
      <trkpt lat="40.035550" lon="-5.483833">
        <ele>580.0</ele>
        <time>2014-05-17T14:43:14Z</time>
      </trkpt>
      <trkpt lat="40.035550" lon="-5.483767">
        <ele>581.0</ele>
        <time>2014-05-17T14:43:15Z</time>
      </trkpt>
      <trkpt lat="40.035533" lon="-5.483700">
        <ele>580.0</ele>
        <time>2014-05-17T14:43:16Z</time>
      </trkpt>
      <trkpt lat="40.035500" lon="-5.483617">
        <ele>579.0</ele>
        <time>2014-05-17T14:43:17Z</time>
      </trkpt>
      <trkpt lat="40.035433" lon="-5.483533">
        <ele>578.0</ele>
        <time>2014-05-17T14:43:18Z</time>
      </trkpt>
      <trkpt lat="40.035367" lon="-5.483483">
        <ele>577.0</ele>
        <time>2014-05-17T14:43:19Z</time>
      </trkpt>
      <trkpt lat="40.035300" lon="-5.483450">
        <ele>578.0</ele>
        <time>2014-05-17T14:43:20Z</time>
      </trkpt>
      <trkpt lat="40.035250" lon="-5.483417">
        <ele>578.0</ele>
        <time>2014-05-17T14:43:21Z</time>
      </trkpt>
      <trkpt lat="40.035183" lon="-5.483383">
        <ele>577.0</ele>
        <time>2014-05-17T14:43:22Z</time>
      </trkpt>
      <trkpt lat="40.035100" lon="-5.483333">
        <ele>576.0</ele>
        <time>2014-05-17T14:43:23Z</time>
      </trkpt>
      <trkpt lat="40.035017" lon="-5.483283">
        <ele>574.0</ele>
        <time>2014-05-17T14:43:24Z</time>
      </trkpt>
      <trkpt lat="40.034933" lon="-5.483250">
        <ele>574.0</ele>
        <time>2014-05-17T14:43:25Z</time>
      </trkpt>
      <trkpt lat="40.034850" lon="-5.483233">
        <ele>574.0</ele>
        <time>2014-05-17T14:43:26Z</time>
      </trkpt>
      <trkpt lat="40.034767" lon="-5.483233">
        <ele>574.0</ele>
        <time>2014-05-17T14:43:27Z</time>
      </trkpt>
      <trkpt lat="40.034683" lon="-5.483233">
        <ele>573.0</ele>
        <time>2014-05-17T14:43:28Z</time>
      </trkpt>
      <trkpt lat="40.034600" lon="-5.483217">
        <ele>572.0</ele>
        <time>2014-05-17T14:43:29Z</time>
      </trkpt>
      <trkpt lat="40.034517" lon="-5.483183">
        <ele>572.0</ele>
        <time>2014-05-17T14:43:30Z</time>
      </trkpt>
      <trkpt lat="40.034433" lon="-5.483117">
        <ele>571.0</ele>
        <time>2014-05-17T14:43:31Z</time>
      </trkpt>
      <trkpt lat="40.034383" lon="-5.483033">
        <ele>570.0</ele>
        <time>2014-05-17T14:43:32Z</time>
      </trkpt>
      <trkpt lat="40.034367" lon="-5.482950">
        <ele>570.0</ele>
        <time>2014-05-17T14:43:33Z</time>
      </trkpt>
      <trkpt lat="40.034350" lon="-5.482867">
        <ele>570.0</ele>
        <time>2014-05-17T14:43:34Z</time>
      </trkpt>
      <trkpt lat="40.034350" lon="-5.482783">
        <ele>570.0</ele>
        <time>2014-05-17T14:43:35Z</time>
      </trkpt>
      <trkpt lat="40.034367" lon="-5.482717">
        <ele>569.0</ele>
        <time>2014-05-17T14:43:36Z</time>
      </trkpt>
      <trkpt lat="40.034383" lon="-5.482650">
        <ele>569.0</ele>
        <time>2014-05-17T14:43:37Z</time>
      </trkpt>
      <trkpt lat="40.034417" lon="-5.482600">
        <ele>569.0</ele>
        <time>2014-05-17T14:43:38Z</time>
      </trkpt>
      <trkpt lat="40.034467" lon="-5.482550">
        <ele>569.0</ele>
        <time>2014-05-17T14:43:39Z</time>
      </trkpt>
      <trkpt lat="40.034500" lon="-5.482517">
        <ele>569.0</ele>
        <time>2014-05-17T14:43:40Z</time>
      </trkpt>
      <trkpt lat="40.034550" lon="-5.482483">
        <ele>569.0</ele>
        <time>2014-05-17T14:43:41Z</time>
      </trkpt>
      <trkpt lat="40.034583" lon="-5.482450">
        <ele>568.0</ele>
        <time>2014-05-17T14:43:42Z</time>
      </trkpt>
      <trkpt lat="40.034650" lon="-5.482417">
        <ele>569.0</ele>
        <time>2014-05-17T14:43:43Z</time>
      </trkpt>
      <trkpt lat="40.034700" lon="-5.482400">
        <ele>569.0</ele>
        <time>2014-05-17T14:43:44Z</time>
      </trkpt>
      <trkpt lat="40.034750" lon="-5.482383">
        <ele>569.0</ele>
        <time>2014-05-17T14:43:45Z</time>
      </trkpt>
      <trkpt lat="40.034783" lon="-5.482350">
        <ele>567.0</ele>
        <time>2014-05-17T14:43:46Z</time>
      </trkpt>
      <trkpt lat="40.034850" lon="-5.482333">
        <ele>566.0</ele>
        <time>2014-05-17T14:43:47Z</time>
      </trkpt>
      <trkpt lat="40.034900" lon="-5.482300">
        <ele>564.0</ele>
        <time>2014-05-17T14:43:48Z</time>
      </trkpt>
      <trkpt lat="40.034967" lon="-5.482283">
        <ele>563.0</ele>
        <time>2014-05-17T14:43:49Z</time>
      </trkpt>
      <trkpt lat="40.035017" lon="-5.482267">
        <ele>562.0</ele>
        <time>2014-05-17T14:43:50Z</time>
      </trkpt>
      <trkpt lat="40.035083" lon="-5.482267">
        <ele>561.0</ele>
        <time>2014-05-17T14:43:51Z</time>
      </trkpt>
      <trkpt lat="40.035133" lon="-5.482250">
        <ele>560.0</ele>
        <time>2014-05-17T14:43:52Z</time>
      </trkpt>
      <trkpt lat="40.035200" lon="-5.482233">
        <ele>558.0</ele>
        <time>2014-05-17T14:43:53Z</time>
      </trkpt>
      <trkpt lat="40.035250" lon="-5.482183">
        <ele>557.0</ele>
        <time>2014-05-17T14:43:54Z</time>
      </trkpt>
      <trkpt lat="40.035300" lon="-5.482133">
        <ele>556.0</ele>
        <time>2014-05-17T14:43:55Z</time>
      </trkpt>
      <trkpt lat="40.035350" lon="-5.482083">
        <ele>555.0</ele>
        <time>2014-05-17T14:43:56Z</time>
      </trkpt>
      <trkpt lat="40.035400" lon="-5.482033">
        <ele>554.0</ele>
        <time>2014-05-17T14:43:57Z</time>
      </trkpt>
      <trkpt lat="40.035450" lon="-5.481983">
        <ele>554.0</ele>
        <time>2014-05-17T14:43:58Z</time>
      </trkpt>
      <trkpt lat="40.035467" lon="-5.481917">
        <ele>553.0</ele>
        <time>2014-05-17T14:43:59Z</time>
      </trkpt>
      <trkpt lat="40.035467" lon="-5.481833">
        <ele>552.0</ele>
        <time>2014-05-17T14:44:00Z</time>
      </trkpt>
      <trkpt lat="40.035433" lon="-5.481783">
        <ele>552.0</ele>
        <time>2014-05-17T14:44:01Z</time>
      </trkpt>
      <trkpt lat="40.035367" lon="-5.481750">
        <ele>551.0</ele>
        <time>2014-05-17T14:44:02Z</time>
      </trkpt>
      <trkpt lat="40.035283" lon="-5.481767">
        <ele>550.0</ele>
        <time>2014-05-17T14:44:03Z</time>
      </trkpt>
      <trkpt lat="40.035200" lon="-5.481833">
        <ele>549.0</ele>
        <time>2014-05-17T14:44:04Z</time>
      </trkpt>
      <trkpt lat="40.035150" lon="-5.481950">
        <ele>548.0</ele>
        <time>2014-05-17T14:44:05Z</time>
      </trkpt>
      <trkpt lat="40.035133" lon="-5.482100">
        <ele>546.0</ele>
        <time>2014-05-17T14:44:06Z</time>
      </trkpt>
      <trkpt lat="40.035183" lon="-5.482250">
        <ele>543.0</ele>
        <time>2014-05-17T14:44:07Z</time>
      </trkpt>
      <trkpt lat="40.035250" lon="-5.482350">
        <ele>541.0</ele>
        <time>2014-05-17T14:44:08Z</time>
      </trkpt>
      <trkpt lat="40.035350" lon="-5.482367">
        <ele>539.0</ele>
        <time>2014-05-17T14:44:09Z</time>
      </trkpt>
      <trkpt lat="40.035467" lon="-5.482217">
        <ele>541.0</ele>
        <time>2014-05-17T14:44:11Z</time>
      </trkpt>
      <trkpt lat="40.035467" lon="-5.482133">
        <ele>541.0</ele>
        <time>2014-05-17T14:44:12Z</time>
      </trkpt>
      <trkpt lat="40.035467" lon="-5.482067">
        <ele>540.0</ele>
        <time>2014-05-17T14:44:13Z</time>
      </trkpt>
      <trkpt lat="40.035467" lon="-5.481983">
        <ele>541.0</ele>
        <time>2014-05-17T14:44:14Z</time>
      </trkpt>
      <trkpt lat="40.035467" lon="-5.481900">
        <ele>541.0</ele>
        <time>2014-05-17T14:44:15Z</time>
      </trkpt>
      <trkpt lat="40.035483" lon="-5.481800">
        <ele>540.0</ele>
        <time>2014-05-17T14:44:16Z</time>
      </trkpt>
      <trkpt lat="40.035500" lon="-5.481683">
        <ele>538.0</ele>
        <time>2014-05-17T14:44:17Z</time>
      </trkpt>
      <trkpt lat="40.035533" lon="-5.481583">
        <ele>537.0</ele>
        <time>2014-05-17T14:44:18Z</time>
      </trkpt>
      <trkpt lat="40.035600" lon="-5.481500">
        <ele>538.0</ele>
        <time>2014-05-17T14:44:19Z</time>
      </trkpt>
      <trkpt lat="40.035650" lon="-5.481467">
        <ele>539.0</ele>
        <time>2014-05-17T14:44:20Z</time>
      </trkpt>
      <trkpt lat="40.035733" lon="-5.481467">
        <ele>539.0</ele>
        <time>2014-05-17T14:44:21Z</time>
      </trkpt>
      <trkpt lat="40.035800" lon="-5.481467">
        <ele>538.0</ele>
        <time>2014-05-17T14:44:22Z</time>
      </trkpt>
      <trkpt lat="40.035883" lon="-5.481433">
        <ele>538.0</ele>
        <time>2014-05-17T14:44:23Z</time>
      </trkpt>
      <trkpt lat="40.035950" lon="-5.481350">
        <ele>537.0</ele>
        <time>2014-05-17T14:44:24Z</time>
      </trkpt>
      <trkpt lat="40.035950" lon="-5.481233">
        <ele>535.0</ele>
        <time>2014-05-17T14:44:25Z</time>
      </trkpt>
      <trkpt lat="40.035917" lon="-5.481133">
        <ele>534.0</ele>
        <time>2014-05-17T14:44:26Z</time>
      </trkpt>
      <trkpt lat="40.035867" lon="-5.481067">
        <ele>533.0</ele>
        <time>2014-05-17T14:44:27Z</time>
      </trkpt>
      <trkpt lat="40.035800" lon="-5.481017">
        <ele>533.0</ele>
        <time>2014-05-17T14:44:28Z</time>
      </trkpt>
      <trkpt lat="40.035750" lon="-5.480967">
        <ele>533.0</ele>
        <time>2014-05-17T14:44:29Z</time>
      </trkpt>
      <trkpt lat="40.035700" lon="-5.480917">
        <ele>533.0</ele>
        <time>2014-05-17T14:44:30Z</time>
      </trkpt>
      <trkpt lat="40.035633" lon="-5.480867">
        <ele>531.0</ele>
        <time>2014-05-17T14:44:31Z</time>
      </trkpt>
      <trkpt lat="40.035550" lon="-5.480817">
        <ele>530.0</ele>
        <time>2014-05-17T14:44:32Z</time>
      </trkpt>
      <trkpt lat="40.035450" lon="-5.480783">
        <ele>528.0</ele>
        <time>2014-05-17T14:44:33Z</time>
      </trkpt>
      <trkpt lat="40.035350" lon="-5.480767">
        <ele>526.0</ele>
        <time>2014-05-17T14:44:34Z</time>
      </trkpt>
      <trkpt lat="40.035250" lon="-5.480733">
        <ele>525.0</ele>
        <time>2014-05-17T14:44:35Z</time>
      </trkpt>
      <trkpt lat="40.035150" lon="-5.480717">
        <ele>525.0</ele>
        <time>2014-05-17T14:44:36Z</time>
      </trkpt>
      <trkpt lat="40.035067" lon="-5.480683">
        <ele>524.0</ele>
        <time>2014-05-17T14:44:37Z</time>
      </trkpt>
      <trkpt lat="40.034983" lon="-5.480667">
        <ele>523.0</ele>
        <time>2014-05-17T14:44:38Z</time>
      </trkpt>
      <trkpt lat="40.034883" lon="-5.480633">
        <ele>522.0</ele>
        <time>2014-05-17T14:44:39Z</time>
      </trkpt>
      <trkpt lat="40.034800" lon="-5.480600">
        <ele>521.0</ele>
        <time>2014-05-17T14:44:40Z</time>
      </trkpt>
      <trkpt lat="40.034717" lon="-5.480583">
        <ele>519.0</ele>
        <time>2014-05-17T14:44:41Z</time>
      </trkpt>
      <trkpt lat="40.034633" lon="-5.480550">
        <ele>518.0</ele>
        <time>2014-05-17T14:44:42Z</time>
      </trkpt>
      <trkpt lat="40.034550" lon="-5.480533">
        <ele>517.0</ele>
        <time>2014-05-17T14:44:43Z</time>
      </trkpt>
      <trkpt lat="40.034467" lon="-5.480517">
        <ele>515.0</ele>
        <time>2014-05-17T14:44:44Z</time>
      </trkpt>
      <trkpt lat="40.034367" lon="-5.480517">
        <ele>514.0</ele>
        <time>2014-05-17T14:44:45Z</time>
      </trkpt>
      <trkpt lat="40.034267" lon="-5.480550">
        <ele>513.0</ele>
        <time>2014-05-17T14:44:46Z</time>
      </trkpt>
      <trkpt lat="40.034183" lon="-5.480600">
        <ele>511.0</ele>
        <time>2014-05-17T14:44:47Z</time>
      </trkpt>
      <trkpt lat="40.034117" lon="-5.480667">
        <ele>510.0</ele>
        <time>2014-05-17T14:44:48Z</time>
      </trkpt>
      <trkpt lat="40.034050" lon="-5.480700">
        <ele>508.0</ele>
        <time>2014-05-17T14:44:49Z</time>
      </trkpt>
      <trkpt lat="40.033967" lon="-5.480717">
        <ele>504.0</ele>
        <time>2014-05-17T14:44:50Z</time>
      </trkpt>
      <trkpt lat="40.033883" lon="-5.480700">
        <ele>501.0</ele>
        <time>2014-05-17T14:44:51Z</time>
      </trkpt>
      <trkpt lat="40.033817" lon="-5.480667">
        <ele>497.0</ele>
        <time>2014-05-17T14:44:52Z</time>
      </trkpt>
      <trkpt lat="40.033750" lon="-5.480633">
        <ele>494.0</ele>
        <time>2014-05-17T14:44:53Z</time>
      </trkpt>
      <trkpt lat="40.033717" lon="-5.480583">
        <ele>492.0</ele>
        <time>2014-05-17T14:44:54Z</time>
      </trkpt>
      <trkpt lat="40.033683" lon="-5.480533">
        <ele>489.0</ele>
        <time>2014-05-17T14:44:55Z</time>
      </trkpt>
      <trkpt lat="40.033667" lon="-5.480467">
        <ele>486.0</ele>
        <time>2014-05-17T14:44:56Z</time>
      </trkpt>
      <trkpt lat="40.033617" lon="-5.480367">
        <ele>483.0</ele>
        <time>2014-05-17T14:44:57Z</time>
      </trkpt>
      <trkpt lat="40.033600" lon="-5.480283">
        <ele>488.0</ele>
        <time>2014-05-17T14:44:58Z</time>
      </trkpt>
      <trkpt lat="40.033583" lon="-5.480217">
        <ele>486.0</ele>
        <time>2014-05-17T14:44:59Z</time>
      </trkpt>
      <trkpt lat="40.033583" lon="-5.480150">
        <ele>485.0</ele>
        <time>2014-05-17T14:45:00Z</time>
      </trkpt>
      <trkpt lat="40.033567" lon="-5.480100">
        <ele>485.0</ele>
        <time>2014-05-17T14:45:01Z</time>
      </trkpt>
      <trkpt lat="40.033533" lon="-5.479917">
        <ele>484.0</ele>
        <time>2014-05-17T14:45:03Z</time>
      </trkpt>
      <trkpt lat="40.033533" lon="-5.479833">
        <ele>483.0</ele>
        <time>2014-05-17T14:45:04Z</time>
      </trkpt>
      <trkpt lat="40.033517" lon="-5.479750">
        <ele>481.0</ele>
        <time>2014-05-17T14:45:05Z</time>
      </trkpt>
      <trkpt lat="40.033533" lon="-5.479683">
        <ele>480.0</ele>
        <time>2014-05-17T14:45:06Z</time>
      </trkpt>
      <trkpt lat="40.033550" lon="-5.479617">
        <ele>478.0</ele>
        <time>2014-05-17T14:45:07Z</time>
      </trkpt>
      <trkpt lat="40.033583" lon="-5.479550">
        <ele>475.0</ele>
        <time>2014-05-17T14:45:08Z</time>
      </trkpt>
      <trkpt lat="40.033617" lon="-5.479483">
        <ele>472.0</ele>
        <time>2014-05-17T14:45:09Z</time>
      </trkpt>
      <trkpt lat="40.033633" lon="-5.479417">
        <ele>469.0</ele>
        <time>2014-05-17T14:45:10Z</time>
      </trkpt>
      <trkpt lat="40.033650" lon="-5.479350">
        <ele>466.0</ele>
        <time>2014-05-17T14:45:11Z</time>
      </trkpt>
      <trkpt lat="40.033667" lon="-5.479283">
        <ele>462.0</ele>
        <time>2014-05-17T14:45:12Z</time>
      </trkpt>
      <trkpt lat="40.033683" lon="-5.479217">
        <ele>459.0</ele>
        <time>2014-05-17T14:45:13Z</time>
      </trkpt>
      <trkpt lat="40.033733" lon="-5.479067">
        <ele>450.0</ele>
        <time>2014-05-17T14:45:15Z</time>
      </trkpt>
      <trkpt lat="40.033733" lon="-5.478983">
        <ele>447.0</ele>
        <time>2014-05-17T14:45:16Z</time>
      </trkpt>
      <trkpt lat="40.033733" lon="-5.478900">
        <ele>445.0</ele>
        <time>2014-05-17T14:45:17Z</time>
      </trkpt>
      <trkpt lat="40.033733" lon="-5.478817">
        <ele>445.0</ele>
        <time>2014-05-17T14:45:18Z</time>
      </trkpt>
      <trkpt lat="40.033700" lon="-5.478750">
        <ele>445.0</ele>
        <time>2014-05-17T14:45:19Z</time>
      </trkpt>
      <trkpt lat="40.033667" lon="-5.478683">
        <ele>444.0</ele>
        <time>2014-05-17T14:45:20Z</time>
      </trkpt>
      <trkpt lat="40.033633" lon="-5.478600">
        <ele>442.0</ele>
        <time>2014-05-17T14:45:21Z</time>
      </trkpt>
      <trkpt lat="40.033600" lon="-5.478500">
        <ele>440.0</ele>
        <time>2014-05-17T14:45:22Z</time>
      </trkpt>
      <trkpt lat="40.033600" lon="-5.478400">
        <ele>438.0</ele>
        <time>2014-05-17T14:45:23Z</time>
      </trkpt>
      <trkpt lat="40.033633" lon="-5.478300">
        <ele>436.0</ele>
        <time>2014-05-17T14:45:24Z</time>
      </trkpt>
      <trkpt lat="40.033700" lon="-5.478217">
        <ele>435.0</ele>
        <time>2014-05-17T14:45:25Z</time>
      </trkpt>
      <trkpt lat="40.033783" lon="-5.478167">
        <ele>434.0</ele>
        <time>2014-05-17T14:45:26Z</time>
      </trkpt>
      <trkpt lat="40.033867" lon="-5.478133">
        <ele>433.0</ele>
        <time>2014-05-17T14:45:27Z</time>
      </trkpt>
      <trkpt lat="40.033950" lon="-5.478150">
        <ele>433.0</ele>
        <time>2014-05-17T14:45:28Z</time>
      </trkpt>
      <trkpt lat="40.034033" lon="-5.478183">
        <ele>433.0</ele>
        <time>2014-05-17T14:45:29Z</time>
      </trkpt>
      <trkpt lat="40.034133" lon="-5.478233">
        <ele>432.0</ele>
        <time>2014-05-17T14:45:30Z</time>
      </trkpt>
      <trkpt lat="40.034217" lon="-5.478283">
        <ele>432.0</ele>
        <time>2014-05-17T14:45:31Z</time>
      </trkpt>
      <trkpt lat="40.034300" lon="-5.478300">
        <ele>432.0</ele>
        <time>2014-05-17T14:45:32Z</time>
      </trkpt>
      <trkpt lat="40.034383" lon="-5.478300">
        <ele>433.0</ele>
        <time>2014-05-17T14:45:33Z</time>
      </trkpt>
      <trkpt lat="40.034450" lon="-5.478267">
        <ele>434.0</ele>
        <time>2014-05-17T14:45:34Z</time>
      </trkpt>
      <trkpt lat="40.034517" lon="-5.478217">
        <ele>435.0</ele>
        <time>2014-05-17T14:45:35Z</time>
      </trkpt>
      <trkpt lat="40.034600" lon="-5.478183">
        <ele>436.0</ele>
        <time>2014-05-17T14:45:36Z</time>
      </trkpt>
      <trkpt lat="40.034667" lon="-5.478133">
        <ele>436.0</ele>
        <time>2014-05-17T14:45:37Z</time>
      </trkpt>
      <trkpt lat="40.034700" lon="-5.478067">
        <ele>438.0</ele>
        <time>2014-05-17T14:45:38Z</time>
      </trkpt>
      <trkpt lat="40.034717" lon="-5.477983">
        <ele>439.0</ele>
        <time>2014-05-17T14:45:39Z</time>
      </trkpt>
      <trkpt lat="40.034717" lon="-5.477900">
        <ele>440.0</ele>
        <time>2014-05-17T14:45:40Z</time>
      </trkpt>
      <trkpt lat="40.034683" lon="-5.477817">
        <ele>441.0</ele>
        <time>2014-05-17T14:45:41Z</time>
      </trkpt>
      <trkpt lat="40.034633" lon="-5.477750">
        <ele>442.0</ele>
        <time>2014-05-17T14:45:42Z</time>
      </trkpt>
      <trkpt lat="40.034567" lon="-5.477683">
        <ele>443.0</ele>
        <time>2014-05-17T14:45:43Z</time>
      </trkpt>
      <trkpt lat="40.034500" lon="-5.477633">
        <ele>445.0</ele>
        <time>2014-05-17T14:45:44Z</time>
      </trkpt>
      <trkpt lat="40.034433" lon="-5.477583">
        <ele>446.0</ele>
        <time>2014-05-17T14:45:45Z</time>
      </trkpt>
      <trkpt lat="40.034350" lon="-5.477567">
        <ele>447.0</ele>
        <time>2014-05-17T14:45:46Z</time>
      </trkpt>
      <trkpt lat="40.034267" lon="-5.477550">
        <ele>448.0</ele>
        <time>2014-05-17T14:45:47Z</time>
      </trkpt>
      <trkpt lat="40.034200" lon="-5.477533">
        <ele>449.0</ele>
        <time>2014-05-17T14:45:48Z</time>
      </trkpt>
      <trkpt lat="40.034117" lon="-5.477533">
        <ele>449.0</ele>
        <time>2014-05-17T14:45:49Z</time>
      </trkpt>
      <trkpt lat="40.034050" lon="-5.477533">
        <ele>449.0</ele>
        <time>2014-05-17T14:45:50Z</time>
      </trkpt>
      <trkpt lat="40.033967" lon="-5.477517">
        <ele>449.0</ele>
        <time>2014-05-17T14:45:51Z</time>
      </trkpt>
      <trkpt lat="40.033883" lon="-5.477517">
        <ele>448.0</ele>
        <time>2014-05-17T14:45:52Z</time>
      </trkpt>
      <trkpt lat="40.033800" lon="-5.477517">
        <ele>448.0</ele>
        <time>2014-05-17T14:45:53Z</time>
      </trkpt>
      <trkpt lat="40.033717" lon="-5.477517">
        <ele>448.0</ele>
        <time>2014-05-17T14:45:54Z</time>
      </trkpt>
      <trkpt lat="40.033633" lon="-5.477500">
        <ele>447.0</ele>
        <time>2014-05-17T14:45:55Z</time>
      </trkpt>
      <trkpt lat="40.033567" lon="-5.477500">
        <ele>445.0</ele>
        <time>2014-05-17T14:45:56Z</time>
      </trkpt>
      <trkpt lat="40.033483" lon="-5.477517">
        <ele>444.0</ele>
        <time>2014-05-17T14:45:57Z</time>
      </trkpt>
      <trkpt lat="40.033417" lon="-5.477533">
        <ele>443.0</ele>
        <time>2014-05-17T14:45:58Z</time>
      </trkpt>
      <trkpt lat="40.033350" lon="-5.477550">
        <ele>443.0</ele>
        <time>2014-05-17T14:45:59Z</time>
      </trkpt>
      <trkpt lat="40.033283" lon="-5.477583">
        <ele>442.0</ele>
        <time>2014-05-17T14:46:00Z</time>
      </trkpt>
      <trkpt lat="40.033217" lon="-5.477617">
        <ele>441.0</ele>
        <time>2014-05-17T14:46:01Z</time>
      </trkpt>
      <trkpt lat="40.033150" lon="-5.477667">
        <ele>440.0</ele>
        <time>2014-05-17T14:46:02Z</time>
      </trkpt>
      <trkpt lat="40.033067" lon="-5.477750">
        <ele>438.0</ele>
        <time>2014-05-17T14:46:03Z</time>
      </trkpt>
      <trkpt lat="40.033000" lon="-5.477850">
        <ele>435.0</ele>
        <time>2014-05-17T14:46:04Z</time>
      </trkpt>
      <trkpt lat="40.032967" lon="-5.478000">
        <ele>434.0</ele>
        <time>2014-05-17T14:46:05Z</time>
      </trkpt>
      <trkpt lat="40.032983" lon="-5.478117">
        <ele>432.0</ele>
        <time>2014-05-17T14:46:06Z</time>
      </trkpt>
      <trkpt lat="40.033033" lon="-5.478217">
        <ele>430.0</ele>
        <time>2014-05-17T14:46:07Z</time>
      </trkpt>
      <trkpt lat="40.033100" lon="-5.478300">
        <ele>427.0</ele>
        <time>2014-05-17T14:46:08Z</time>
      </trkpt>
      <trkpt lat="40.033183" lon="-5.478350">
        <ele>425.0</ele>
        <time>2014-05-17T14:46:09Z</time>
      </trkpt>
      <trkpt lat="40.033250" lon="-5.478417">
        <ele>426.0</ele>
        <time>2014-05-17T14:46:10Z</time>
      </trkpt>
      <trkpt lat="40.033317" lon="-5.478500">
        <ele>425.0</ele>
        <time>2014-05-17T14:46:11Z</time>
      </trkpt>
      <trkpt lat="40.033467" lon="-5.478600">
        <ele>424.0</ele>
        <time>2014-05-17T14:46:13Z</time>
      </trkpt>
      <trkpt lat="40.033650" lon="-5.478500">
        <ele>421.0</ele>
        <time>2014-05-17T14:46:16Z</time>
      </trkpt>
      <trkpt lat="40.033667" lon="-5.478450">
        <ele>420.0</ele>
        <time>2014-05-17T14:46:17Z</time>
      </trkpt>
      <trkpt lat="40.033683" lon="-5.478400">
        <ele>418.0</ele>
        <time>2014-05-17T14:46:18Z</time>
      </trkpt>
      <trkpt lat="40.033683" lon="-5.478283">
        <ele>414.0</ele>
        <time>2014-05-17T14:46:20Z</time>
      </trkpt>
      <trkpt lat="40.033700" lon="-5.478200">
        <ele>411.0</ele>
        <time>2014-05-17T14:46:21Z</time>
      </trkpt>
      <trkpt lat="40.033700" lon="-5.478133">
        <ele>408.0</ele>
        <time>2014-05-17T14:46:22Z</time>
      </trkpt>
      <trkpt lat="40.033667" lon="-5.478083">
        <ele>407.0</ele>
        <time>2014-05-17T14:46:23Z</time>
      </trkpt>
      <trkpt lat="40.033617" lon="-5.478050">
        <ele>406.0</ele>
        <time>2014-05-17T14:46:24Z</time>
      </trkpt>
      <trkpt lat="40.033550" lon="-5.478033">
        <ele>404.0</ele>
        <time>2014-05-17T14:46:25Z</time>
      </trkpt>
      <trkpt lat="40.033483" lon="-5.478033">
        <ele>402.0</ele>
        <time>2014-05-17T14:46:26Z</time>
      </trkpt>
      <trkpt lat="40.033417" lon="-5.478033">
        <ele>402.0</ele>
        <time>2014-05-17T14:46:27Z</time>
      </trkpt>
      <trkpt lat="40.033367" lon="-5.478033">
        <ele>400.0</ele>
        <time>2014-05-17T14:46:28Z</time>
      </trkpt>
      <trkpt lat="40.033300" lon="-5.478033">
        <ele>399.0</ele>
        <time>2014-05-17T14:46:29Z</time>
      </trkpt>
      <trkpt lat="40.033233" lon="-5.478033">
        <ele>398.0</ele>
        <time>2014-05-17T14:46:30Z</time>
      </trkpt>
      <trkpt lat="40.033167" lon="-5.478033">
        <ele>396.0</ele>
        <time>2014-05-17T14:46:31Z</time>
      </trkpt>
      <trkpt lat="40.033133" lon="-5.478000">
        <ele>395.0</ele>
        <time>2014-05-17T14:46:32Z</time>
      </trkpt>
      <trkpt lat="40.033083" lon="-5.477967">
        <ele>392.0</ele>
        <time>2014-05-17T14:46:33Z</time>
      </trkpt>
      <trkpt lat="40.033050" lon="-5.477933">
        <ele>390.0</ele>
        <time>2014-05-17T14:46:34Z</time>
      </trkpt>
      <trkpt lat="40.033033" lon="-5.477883">
        <ele>388.0</ele>
        <time>2014-05-17T14:46:35Z</time>
      </trkpt>
      <trkpt lat="40.033000" lon="-5.477850">
        <ele>385.0</ele>
        <time>2014-05-17T14:46:36Z</time>
      </trkpt>
      <trkpt lat="40.032983" lon="-5.477783">
        <ele>382.0</ele>
        <time>2014-05-17T14:46:37Z</time>
      </trkpt>
      <trkpt lat="40.032967" lon="-5.477733">
        <ele>380.0</ele>
        <time>2014-05-17T14:46:38Z</time>
      </trkpt>
      <trkpt lat="40.032933" lon="-5.477683">
        <ele>379.0</ele>
        <time>2014-05-17T14:46:39Z</time>
      </trkpt>
      <trkpt lat="40.032917" lon="-5.477633">
        <ele>377.0</ele>
        <time>2014-05-17T14:46:40Z</time>
      </trkpt>
      <trkpt lat="40.032883" lon="-5.477583">
        <ele>376.0</ele>
        <time>2014-05-17T14:46:41Z</time>
      </trkpt>
      <trkpt lat="40.032850" lon="-5.477550">
        <ele>374.0</ele>
        <time>2014-05-17T14:46:42Z</time>
      </trkpt>
      <trkpt lat="40.032817" lon="-5.477500">
        <ele>372.0</ele>
        <time>2014-05-17T14:46:43Z</time>
      </trkpt>
      <trkpt lat="40.032783" lon="-5.477450">
        <ele>370.0</ele>
        <time>2014-05-17T14:46:44Z</time>
      </trkpt>
      <trkpt lat="40.032750" lon="-5.477417">
        <ele>369.0</ele>
        <time>2014-05-17T14:46:45Z</time>
      </trkpt>
      <trkpt lat="40.032717" lon="-5.477367">
        <ele>368.0</ele>
        <time>2014-05-17T14:46:46Z</time>
      </trkpt>
      <trkpt lat="40.032700" lon="-5.477333">
        <ele>366.0</ele>
        <time>2014-05-17T14:46:47Z</time>
      </trkpt>
      <trkpt lat="40.032667" lon="-5.477300">
        <ele>365.0</ele>
        <time>2014-05-17T14:46:48Z</time>
      </trkpt>
      <trkpt lat="40.032650" lon="-5.477250">
        <ele>363.0</ele>
        <time>2014-05-17T14:46:49Z</time>
      </trkpt>
      <trkpt lat="40.032617" lon="-5.477183">
        <ele>361.0</ele>
        <time>2014-05-17T14:46:50Z</time>
      </trkpt>
      <trkpt lat="40.032600" lon="-5.477133">
        <ele>359.0</ele>
        <time>2014-05-17T14:46:51Z</time>
      </trkpt>
      <trkpt lat="40.032567" lon="-5.477100">
        <ele>358.0</ele>
        <time>2014-05-17T14:46:52Z</time>
      </trkpt>
      <trkpt lat="40.032550" lon="-5.477050">
        <ele>357.0</ele>
        <time>2014-05-17T14:46:53Z</time>
      </trkpt>
      <trkpt lat="40.032550" lon="-5.476983">
        <ele>355.0</ele>
        <time>2014-05-17T14:46:54Z</time>
      </trkpt>
      <trkpt lat="40.032533" lon="-5.476917">
        <ele>353.0</ele>
        <time>2014-05-17T14:46:55Z</time>
      </trkpt>
      <trkpt lat="40.032533" lon="-5.476850">
        <ele>351.0</ele>
        <time>2014-05-17T14:46:56Z</time>
      </trkpt>
      <trkpt lat="40.032500" lon="-5.476783">
        <ele>349.0</ele>
        <time>2014-05-17T14:46:57Z</time>
      </trkpt>
      <trkpt lat="40.032450" lon="-5.476733">
        <ele>348.0</ele>
        <time>2014-05-17T14:46:58Z</time>
      </trkpt>
      <trkpt lat="40.032400" lon="-5.476683">
        <ele>346.0</ele>
        <time>2014-05-17T14:46:59Z</time>
      </trkpt>
      <trkpt lat="40.032367" lon="-5.476617">
        <ele>346.0</ele>
        <time>2014-05-17T14:47:00Z</time>
      </trkpt>
      <trkpt lat="40.032367" lon="-5.476567">
        <ele>346.0</ele>
        <time>2014-05-17T14:47:01Z</time>
      </trkpt>
      <trkpt lat="40.032367" lon="-5.476533">
        <ele>345.0</ele>
        <time>2014-05-17T14:47:02Z</time>
      </trkpt>
      <trkpt lat="40.032383" lon="-5.476467">
        <ele>343.0</ele>
        <time>2014-05-17T14:47:03Z</time>
      </trkpt>
      <trkpt lat="40.032400" lon="-5.476417">
        <ele>340.0</ele>
        <time>2014-05-17T14:47:04Z</time>
      </trkpt>
      <trkpt lat="40.032433" lon="-5.476350">
        <ele>338.0</ele>
        <time>2014-05-17T14:47:05Z</time>
      </trkpt>
      <trkpt lat="40.032483" lon="-5.476283">
        <ele>336.0</ele>
        <time>2014-05-17T14:47:06Z</time>
      </trkpt>
      <trkpt lat="40.032517" lon="-5.476250">
        <ele>335.0</ele>
        <time>2014-05-17T14:47:07Z</time>
      </trkpt>
      <trkpt lat="40.032583" lon="-5.476200">
        <ele>334.0</ele>
        <time>2014-05-17T14:47:08Z</time>
      </trkpt>
      <trkpt lat="40.032650" lon="-5.476167">
        <ele>333.0</ele>
        <time>2014-05-17T14:47:09Z</time>
      </trkpt>
      <trkpt lat="40.032733" lon="-5.476150">
        <ele>332.0</ele>
        <time>2014-05-17T14:47:10Z</time>
      </trkpt>
      <trkpt lat="40.032817" lon="-5.476150">
        <ele>331.0</ele>
        <time>2014-05-17T14:47:11Z</time>
      </trkpt>
      <trkpt lat="40.032900" lon="-5.476200">
        <ele>330.0</ele>
        <time>2014-05-17T14:47:12Z</time>
      </trkpt>
      <trkpt lat="40.032967" lon="-5.476283">
        <ele>329.0</ele>
        <time>2014-05-17T14:47:13Z</time>
      </trkpt>
      <trkpt lat="40.033017" lon="-5.476367">
        <ele>328.0</ele>
        <time>2014-05-17T14:47:14Z</time>
      </trkpt>
      <trkpt lat="40.033083" lon="-5.476450">
        <ele>327.0</ele>
        <time>2014-05-17T14:47:15Z</time>
      </trkpt>
      <trkpt lat="40.033150" lon="-5.476533">
        <ele>327.0</ele>
        <time>2014-05-17T14:47:16Z</time>
      </trkpt>
      <trkpt lat="40.033200" lon="-5.476633">
        <ele>326.0</ele>
        <time>2014-05-17T14:47:17Z</time>
      </trkpt>
      <trkpt lat="40.033250" lon="-5.476750">
        <ele>323.0</ele>
        <time>2014-05-17T14:47:18Z</time>
      </trkpt>
      <trkpt lat="40.033283" lon="-5.476867">
        <ele>322.0</ele>
        <time>2014-05-17T14:47:19Z</time>
      </trkpt>
      <trkpt lat="40.033333" lon="-5.476950">
        <ele>321.0</ele>
        <time>2014-05-17T14:47:20Z</time>
      </trkpt>
      <trkpt lat="40.033400" lon="-5.477017">
        <ele>321.0</ele>
        <time>2014-05-17T14:47:21Z</time>
      </trkpt>
      <trkpt lat="40.033467" lon="-5.477067">
        <ele>322.0</ele>
        <time>2014-05-17T14:47:22Z</time>
      </trkpt>
      <trkpt lat="40.033550" lon="-5.477133">
        <ele>322.0</ele>
        <time>2014-05-17T14:47:23Z</time>
      </trkpt>
      <trkpt lat="40.033633" lon="-5.477167">
        <ele>321.0</ele>
        <time>2014-05-17T14:47:24Z</time>
      </trkpt>
      <trkpt lat="40.033700" lon="-5.477150">
        <ele>321.0</ele>
        <time>2014-05-17T14:47:25Z</time>
      </trkpt>
      <trkpt lat="40.033750" lon="-5.477083">
        <ele>320.0</ele>
        <time>2014-05-17T14:47:26Z</time>
      </trkpt>
      <trkpt lat="40.033783" lon="-5.477017">
        <ele>319.0</ele>
        <time>2014-05-17T14:47:27Z</time>
      </trkpt>
      <trkpt lat="40.033783" lon="-5.476950">
        <ele>317.0</ele>
        <time>2014-05-17T14:47:28Z</time>
      </trkpt>
      <trkpt lat="40.033783" lon="-5.476900">
        <ele>316.0</ele>
        <time>2014-05-17T14:47:29Z</time>
      </trkpt>
      <trkpt lat="40.033767" lon="-5.476833">
        <ele>315.0</ele>
        <time>2014-05-17T14:47:30Z</time>
      </trkpt>
      <trkpt lat="40.033733" lon="-5.476783">
        <ele>316.0</ele>
        <time>2014-05-17T14:47:31Z</time>
      </trkpt>
      <trkpt lat="40.033683" lon="-5.476717">
        <ele>316.0</ele>
        <time>2014-05-17T14:47:32Z</time>
      </trkpt>
      <trkpt lat="40.033633" lon="-5.476633">
        <ele>315.0</ele>
        <time>2014-05-17T14:47:33Z</time>
      </trkpt>
      <trkpt lat="40.033600" lon="-5.476567">
        <ele>314.0</ele>
        <time>2014-05-17T14:47:34Z</time>
      </trkpt>
      <trkpt lat="40.033567" lon="-5.476500">
        <ele>313.0</ele>
        <time>2014-05-17T14:47:35Z</time>
      </trkpt>
      <trkpt lat="40.033533" lon="-5.476450">
        <ele>312.0</ele>
        <time>2014-05-17T14:47:36Z</time>
      </trkpt>
      <trkpt lat="40.033483" lon="-5.476417">
        <ele>311.0</ele>
        <time>2014-05-17T14:47:37Z</time>
      </trkpt>
      <trkpt lat="40.033433" lon="-5.476400">
        <ele>309.0</ele>
        <time>2014-05-17T14:47:38Z</time>
      </trkpt>
      <trkpt lat="40.033350" lon="-5.476400">
        <ele>307.0</ele>
        <time>2014-05-17T14:47:39Z</time>
      </trkpt>
      <trkpt lat="40.033283" lon="-5.476400">
        <ele>306.0</ele>
        <time>2014-05-17T14:47:40Z</time>
      </trkpt>
      <trkpt lat="40.033233" lon="-5.476383">
        <ele>305.0</ele>
        <time>2014-05-17T14:47:41Z</time>
      </trkpt>
      <trkpt lat="40.033167" lon="-5.476350">
        <ele>304.0</ele>
        <time>2014-05-17T14:47:42Z</time>
      </trkpt>
      <trkpt lat="40.033117" lon="-5.476300">
        <ele>302.0</ele>
        <time>2014-05-17T14:47:43Z</time>
      </trkpt>
      <trkpt lat="40.033067" lon="-5.476250">
        <ele>301.0</ele>
        <time>2014-05-17T14:47:44Z</time>
      </trkpt>
      <trkpt lat="40.033033" lon="-5.476217">
        <ele>300.0</ele>
        <time>2014-05-17T14:47:45Z</time>
      </trkpt>
      <trkpt lat="40.032983" lon="-5.476183">
        <ele>299.0</ele>
        <time>2014-05-17T14:47:46Z</time>
      </trkpt>
      <trkpt lat="40.032967" lon="-5.476133">
        <ele>298.0</ele>
        <time>2014-05-17T14:47:47Z</time>
      </trkpt>
      <trkpt lat="40.032967" lon="-5.476067">
        <ele>295.0</ele>
        <time>2014-05-17T14:47:48Z</time>
      </trkpt>
      <trkpt lat="40.032983" lon="-5.475983">
        <ele>293.0</ele>
        <time>2014-05-17T14:47:49Z</time>
      </trkpt>
      <trkpt lat="40.033017" lon="-5.475900">
        <ele>291.0</ele>
        <time>2014-05-17T14:47:50Z</time>
      </trkpt>
      <trkpt lat="40.033050" lon="-5.475833">
        <ele>289.0</ele>
        <time>2014-05-17T14:47:51Z</time>
      </trkpt>
      <trkpt lat="40.033067" lon="-5.475783">
        <ele>288.0</ele>
        <time>2014-05-17T14:47:52Z</time>
      </trkpt>
      <trkpt lat="40.033083" lon="-5.475750">
        <ele>286.0</ele>
        <time>2014-05-17T14:47:53Z</time>
      </trkpt>
      <trkpt lat="40.033100" lon="-5.475750">
        <ele>283.0</ele>
        <time>2014-05-17T14:47:56Z</time>
      </trkpt>
      <trkpt lat="40.033100" lon="-5.475750">
        <ele>284.0</ele>
        <time>2014-05-17T14:47:57Z</time>
      </trkpt>
      <trkpt lat="40.033100" lon="-5.475750">
        <ele>284.0</ele>
        <time>2014-05-17T14:47:58Z</time>
      </trkpt>
      <trkpt lat="40.033100" lon="-5.475750">
        <ele>284.0</ele>
        <time>2014-05-17T14:47:59Z</time>
      </trkpt>
      <trkpt lat="40.033100" lon="-5.475750">
        <ele>284.0</ele>
        <time>2014-05-17T14:48:00Z</time>
      </trkpt>
      <trkpt lat="40.033100" lon="-5.475767">
        <ele>284.0</ele>
        <time>2014-05-17T14:48:01Z</time>
      </trkpt>
      <trkpt lat="40.033100" lon="-5.475767">
        <ele>283.0</ele>
        <time>2014-05-17T14:48:02Z</time>
      </trkpt>
      <trkpt lat="40.033100" lon="-5.475767">
        <ele>283.0</ele>
        <time>2014-05-17T14:48:03Z</time>
      </trkpt>
      <trkpt lat="40.033100" lon="-5.475767">
        <ele>283.0</ele>
        <time>2014-05-17T14:48:04Z</time>
      </trkpt>
    </trkseg>
  </trk>
</gpx>
